<?xml version="1.0" encoding="UTF-8" standalone="no" ?>
<gpx xmlns="http://www.topografix.com/GPX/1/1" xmlns:xsi="http://www.w3.org/2001/XMLSchema-instance" xsi:schemaLocation="http://www.topografix.com/GPX/1/1 http://www.topografix.com/GPX/1/1/gpx.xsd" version="1.1" creator="VisuGPX - https://www.visugpx.com">
  <metadata>
    <name>Propriano - Porto Vecchio</name>
    <desc><![CDATA[Détail ici: [url]https://www.visugpx.com/pBhEft75la[/url]]]></desc>
  </metadata>
  <trk>
    <name><![CDATA[Propriano - Porto Vecchio_1]]></name>
    <trkseg>
      <trkpt lat="41.67424" lon="8.90176">
        <ele>5</ele>
        <time>2008-05-28T09:01:06+02:00</time>
      </trkpt>
      <trkpt lat="41.67426" lon="8.90176">
        <ele>5</ele>
        <time>2008-05-28T09:01:07+02:00</time>
      </trkpt>
      <trkpt lat="41.67428" lon="8.90176">
        <ele>5</ele>
        <time>2008-05-28T09:08:05+02:00</time>
      </trkpt>
      <trkpt lat="41.67429" lon="8.90175">
        <ele>5</ele>
        <time>2008-05-28T09:08:08+02:00</time>
      </trkpt>
      <trkpt lat="41.67434" lon="8.90182">
        <ele>5</ele>
        <time>2008-05-28T09:08:14+02:00</time>
      </trkpt>
      <trkpt lat="41.67438" lon="8.90187">
        <ele>5</ele>
        <time>2008-05-28T09:08:17+02:00</time>
      </trkpt>
      <trkpt lat="41.67444" lon="8.90205">
        <ele>6</ele>
        <time>2008-05-28T09:08:24+02:00</time>
      </trkpt>
      <trkpt lat="41.6745" lon="8.90213">
        <ele>6</ele>
        <time>2008-05-28T09:08:29+02:00</time>
      </trkpt>
      <trkpt lat="41.67451" lon="8.9023">
        <ele>6</ele>
        <time>2008-05-28T09:08:36+02:00</time>
      </trkpt>
      <trkpt lat="41.67449" lon="8.90246">
        <ele>6</ele>
        <time>2008-05-28T09:08:42+02:00</time>
      </trkpt>
      <trkpt lat="41.67446" lon="8.90261">
        <ele>8</ele>
        <time>2008-05-28T09:08:49+02:00</time>
      </trkpt>
      <trkpt lat="41.67446" lon="8.90269">
        <ele>8</ele>
        <time>2008-05-28T09:08:53+02:00</time>
      </trkpt>
      <trkpt lat="41.67447" lon="8.90277">
        <ele>8</ele>
        <time>2008-05-28T09:08:57+02:00</time>
      </trkpt>
      <trkpt lat="41.67451" lon="8.90294">
        <ele>9</ele>
        <time>2008-05-28T09:09:04+02:00</time>
      </trkpt>
      <trkpt lat="41.67454" lon="8.90317">
        <ele>9</ele>
        <time>2008-05-28T09:09:12+02:00</time>
      </trkpt>
      <trkpt lat="41.67459" lon="8.90343">
        <ele>12</ele>
        <time>2008-05-28T09:09:20+02:00</time>
      </trkpt>
      <trkpt lat="41.67461" lon="8.90369">
        <ele>13</ele>
        <time>2008-05-28T09:09:26+02:00</time>
      </trkpt>
      <trkpt lat="41.67464" lon="8.90393">
        <ele>13</ele>
        <time>2008-05-28T09:09:33+02:00</time>
      </trkpt>
      <trkpt lat="41.67472" lon="8.90404">
        <ele>13</ele>
        <time>2008-05-28T09:09:39+02:00</time>
      </trkpt>
      <trkpt lat="41.67484" lon="8.90415">
        <ele>13</ele>
        <time>2008-05-28T09:09:43+02:00</time>
      </trkpt>
      <trkpt lat="41.67491" lon="8.90419">
        <ele>14</ele>
        <time>2008-05-28T09:09:49+02:00</time>
      </trkpt>
      <trkpt lat="41.67494" lon="8.90429">
        <ele>15</ele>
        <time>2008-05-28T09:09:57+02:00</time>
      </trkpt>
      <trkpt lat="41.67495" lon="8.90436">
        <ele>15</ele>
        <time>2008-05-28T09:10:03+02:00</time>
      </trkpt>
      <trkpt lat="41.675" lon="8.90438">
        <ele>15</ele>
        <time>2008-05-28T09:10:12+02:00</time>
      </trkpt>
      <trkpt lat="41.67501" lon="8.9044">
        <ele>15</ele>
        <time>2008-05-28T09:10:15+02:00</time>
      </trkpt>
      <trkpt lat="41.67497" lon="8.90446">
        <ele>16</ele>
        <time>2008-05-28T09:10:21+02:00</time>
      </trkpt>
      <trkpt lat="41.67488" lon="8.90458">
        <ele>16</ele>
        <time>2008-05-28T09:10:27+02:00</time>
      </trkpt>
      <trkpt lat="41.67478" lon="8.90467">
        <ele>17</ele>
        <time>2008-05-28T09:10:32+02:00</time>
      </trkpt>
      <trkpt lat="41.6747" lon="8.90481">
        <ele>17</ele>
        <time>2008-05-28T09:10:38+02:00</time>
      </trkpt>
      <trkpt lat="41.67463" lon="8.90498">
        <ele>17</ele>
        <time>2008-05-28T09:10:44+02:00</time>
      </trkpt>
      <trkpt lat="41.67453" lon="8.90515">
        <ele>20</ele>
        <time>2008-05-28T09:10:50+02:00</time>
      </trkpt>
      <trkpt lat="41.67439" lon="8.90534">
        <ele>20</ele>
        <time>2008-05-28T09:10:57+02:00</time>
      </trkpt>
      <trkpt lat="41.67431" lon="8.90554">
        <ele>21</ele>
        <time>2008-05-28T09:11:03+02:00</time>
      </trkpt>
      <trkpt lat="41.67428" lon="8.9057">
        <ele>21</ele>
        <time>2008-05-28T09:11:08+02:00</time>
      </trkpt>
      <trkpt lat="41.67428" lon="8.90574">
        <ele>21</ele>
        <time>2008-05-28T09:11:09+02:00</time>
      </trkpt>
      <trkpt lat="41.67437" lon="8.9058">
        <ele>21</ele>
        <time>2008-05-28T09:11:14+02:00</time>
      </trkpt>
      <trkpt lat="41.67451" lon="8.90581">
        <ele>22</ele>
        <time>2008-05-28T09:11:20+02:00</time>
      </trkpt>
      <trkpt lat="41.67466" lon="8.9057">
        <ele>22</ele>
        <time>2008-05-28T09:11:27+02:00</time>
      </trkpt>
      <trkpt lat="41.6748" lon="8.90551">
        <ele>21</ele>
        <time>2008-05-28T09:11:35+02:00</time>
      </trkpt>
      <trkpt lat="41.67497" lon="8.90527">
        <ele>20</ele>
        <time>2008-05-28T09:11:45+02:00</time>
      </trkpt>
      <trkpt lat="41.67508" lon="8.90525">
        <ele>19</ele>
        <time>2008-05-28T09:11:50+02:00</time>
      </trkpt>
      <trkpt lat="41.67517" lon="8.90532">
        <ele>19</ele>
        <time>2008-05-28T09:11:54+02:00</time>
      </trkpt>
      <trkpt lat="41.67527" lon="8.90551">
        <ele>19</ele>
        <time>2008-05-28T09:12:00+02:00</time>
      </trkpt>
      <trkpt lat="41.67543" lon="8.90566">
        <ele>19</ele>
        <time>2008-05-28T09:12:05+02:00</time>
      </trkpt>
      <trkpt lat="41.67545" lon="8.9058">
        <ele>19</ele>
        <time>2008-05-28T09:12:07+02:00</time>
      </trkpt>
      <trkpt lat="41.67547" lon="8.90625">
        <ele>22</ele>
        <time>2008-05-28T09:12:15+02:00</time>
      </trkpt>
      <trkpt lat="41.67551" lon="8.90655">
        <ele>23</ele>
        <time>2008-05-28T09:12:22+02:00</time>
      </trkpt>
      <trkpt lat="41.67555" lon="8.90666">
        <ele>23</ele>
        <time>2008-05-28T09:12:26+02:00</time>
      </trkpt>
      <trkpt lat="41.67566" lon="8.90664">
        <ele>22</ele>
        <time>2008-05-28T09:12:31+02:00</time>
      </trkpt>
      <trkpt lat="41.6757" lon="8.90664">
        <ele>22</ele>
        <time>2008-05-28T09:12:32+02:00</time>
      </trkpt>
      <trkpt lat="41.67589" lon="8.90665">
        <ele>20</ele>
        <time>2008-05-28T09:12:37+02:00</time>
      </trkpt>
      <trkpt lat="41.67603" lon="8.90673">
        <ele>19</ele>
        <time>2008-05-28T09:12:42+02:00</time>
      </trkpt>
      <trkpt lat="41.67609" lon="8.90695">
        <ele>18</ele>
        <time>2008-05-28T09:12:48+02:00</time>
      </trkpt>
      <trkpt lat="41.67611" lon="8.90722">
        <ele>18</ele>
        <time>2008-05-28T09:12:56+02:00</time>
      </trkpt>
      <trkpt lat="41.67615" lon="8.90737">
        <ele>18</ele>
        <time>2008-05-28T09:13:01+02:00</time>
      </trkpt>
      <trkpt lat="41.67616" lon="8.90738">
        <ele>18</ele>
        <time>2008-05-28T09:13:02+02:00</time>
      </trkpt>
      <trkpt lat="41.67624" lon="8.90737">
        <ele>17</ele>
        <time>2008-05-28T09:13:05+02:00</time>
      </trkpt>
      <trkpt lat="41.67635" lon="8.90751">
        <ele>17</ele>
        <time>2008-05-28T09:13:10+02:00</time>
      </trkpt>
      <trkpt lat="41.67636" lon="8.90754">
        <ele>17</ele>
        <time>2008-05-28T09:13:11+02:00</time>
      </trkpt>
      <trkpt lat="41.67642" lon="8.90782">
        <ele>17</ele>
        <time>2008-05-28T09:13:19+02:00</time>
      </trkpt>
      <trkpt lat="41.67647" lon="8.90817">
        <ele>16</ele>
        <time>2008-05-28T09:13:25+02:00</time>
      </trkpt>
      <trkpt lat="41.6765" lon="8.90867">
        <ele>16</ele>
        <time>2008-05-28T09:13:32+02:00</time>
      </trkpt>
      <trkpt lat="41.67653" lon="8.9089">
        <ele>15</ele>
        <time>2008-05-28T09:13:35+02:00</time>
      </trkpt>
      <trkpt lat="41.67661" lon="8.90939">
        <ele>16</ele>
        <time>2008-05-28T09:13:41+02:00</time>
      </trkpt>
      <trkpt lat="41.67678" lon="8.90969">
        <ele>11</ele>
        <time>2008-05-28T09:13:45+02:00</time>
      </trkpt>
      <trkpt lat="41.67691" lon="8.90979">
        <ele>11</ele>
        <time>2008-05-28T09:13:47+02:00</time>
      </trkpt>
      <trkpt lat="41.67749" lon="8.91022">
        <ele>12</ele>
        <time>2008-05-28T09:13:56+02:00</time>
      </trkpt>
      <trkpt lat="41.67787" lon="8.91049">
        <ele>8</ele>
        <time>2008-05-28T09:14:03+02:00</time>
      </trkpt>
      <trkpt lat="41.67811" lon="8.9107">
        <ele>8</ele>
        <time>2008-05-28T09:14:09+02:00</time>
      </trkpt>
      <trkpt lat="41.67836" lon="8.91095">
        <ele>9</ele>
        <time>2008-05-28T09:14:18+02:00</time>
      </trkpt>
      <trkpt lat="41.67864" lon="8.91112">
        <ele>11</ele>
        <time>2008-05-28T09:14:28+02:00</time>
      </trkpt>
      <trkpt lat="41.67887" lon="8.91113">
        <ele>11</ele>
        <time>2008-05-28T09:14:36+02:00</time>
      </trkpt>
      <trkpt lat="41.67912" lon="8.91115">
        <ele>11</ele>
        <time>2008-05-28T09:14:45+02:00</time>
      </trkpt>
      <trkpt lat="41.67928" lon="8.91127">
        <ele>11</ele>
        <time>2008-05-28T09:14:52+02:00</time>
      </trkpt>
      <trkpt lat="41.67937" lon="8.91146">
        <ele>13</ele>
        <time>2008-05-28T09:14:59+02:00</time>
      </trkpt>
      <trkpt lat="41.67943" lon="8.91175">
        <ele>15</ele>
        <time>2008-05-28T09:15:08+02:00</time>
      </trkpt>
      <trkpt lat="41.67952" lon="8.91199">
        <ele>14</ele>
        <time>2008-05-28T09:15:16+02:00</time>
      </trkpt>
      <trkpt lat="41.67958" lon="8.91224">
        <ele>13</ele>
        <time>2008-05-28T09:15:24+02:00</time>
      </trkpt>
      <trkpt lat="41.67964" lon="8.91253">
        <ele>15</ele>
        <time>2008-05-28T09:15:32+02:00</time>
      </trkpt>
      <trkpt lat="41.6796" lon="8.91273">
        <ele>17</ele>
        <time>2008-05-28T09:15:38+02:00</time>
      </trkpt>
      <trkpt lat="41.67948" lon="8.91287">
        <ele>19</ele>
        <time>2008-05-28T09:15:44+02:00</time>
      </trkpt>
      <trkpt lat="41.67931" lon="8.91299">
        <ele>20</ele>
        <time>2008-05-28T09:15:51+02:00</time>
      </trkpt>
      <trkpt lat="41.67917" lon="8.91312">
        <ele>25</ele>
        <time>2008-05-28T09:15:58+02:00</time>
      </trkpt>
      <trkpt lat="41.67908" lon="8.91333">
        <ele>25</ele>
        <time>2008-05-28T09:16:04+02:00</time>
      </trkpt>
      <trkpt lat="41.67906" lon="8.91365">
        <ele>25</ele>
        <time>2008-05-28T09:16:10+02:00</time>
      </trkpt>
      <trkpt lat="41.67907" lon="8.91407">
        <ele>24</ele>
        <time>2008-05-28T09:16:16+02:00</time>
      </trkpt>
      <trkpt lat="41.6791" lon="8.9147">
        <ele>28</ele>
        <time>2008-05-28T09:16:24+02:00</time>
      </trkpt>
      <trkpt lat="41.67924" lon="8.91493">
        <ele>25</ele>
        <time>2008-05-28T09:16:28+02:00</time>
      </trkpt>
      <trkpt lat="41.67941" lon="8.91495">
        <ele>22</ele>
        <time>2008-05-28T09:16:31+02:00</time>
      </trkpt>
      <trkpt lat="41.67968" lon="8.9149">
        <ele>20</ele>
        <time>2008-05-28T09:16:36+02:00</time>
      </trkpt>
      <trkpt lat="41.67998" lon="8.91495">
        <ele>21</ele>
        <time>2008-05-28T09:16:43+02:00</time>
      </trkpt>
      <trkpt lat="41.68015" lon="8.91511">
        <ele>23</ele>
        <time>2008-05-28T09:16:49+02:00</time>
      </trkpt>
      <trkpt lat="41.68038" lon="8.91548">
        <ele>26</ele>
        <time>2008-05-28T09:17:00+02:00</time>
      </trkpt>
      <trkpt lat="41.68061" lon="8.91568">
        <ele>27</ele>
        <time>2008-05-28T09:17:08+02:00</time>
      </trkpt>
      <trkpt lat="41.6808" lon="8.91586">
        <ele>31</ele>
        <time>2008-05-28T09:17:15+02:00</time>
      </trkpt>
      <trkpt lat="41.68099" lon="8.91604">
        <ele>25</ele>
        <time>2008-05-28T09:17:22+02:00</time>
      </trkpt>
      <trkpt lat="41.68119" lon="8.91629">
        <ele>24</ele>
        <time>2008-05-28T09:17:29+02:00</time>
      </trkpt>
      <trkpt lat="41.68137" lon="8.91654">
        <ele>22</ele>
        <time>2008-05-28T09:17:35+02:00</time>
      </trkpt>
      <trkpt lat="41.68155" lon="8.91692">
        <ele>27</ele>
        <time>2008-05-28T09:17:41+02:00</time>
      </trkpt>
      <trkpt lat="41.68173" lon="8.91745">
        <ele>23</ele>
        <time>2008-05-28T09:17:47+02:00</time>
      </trkpt>
      <trkpt lat="41.68193" lon="8.9182">
        <ele>18</ele>
        <time>2008-05-28T09:17:54+02:00</time>
      </trkpt>
      <trkpt lat="41.68218" lon="8.91919">
        <ele>15</ele>
        <time>2008-05-28T09:18:02+02:00</time>
      </trkpt>
      <trkpt lat="41.68235" lon="8.91983">
        <ele>16</ele>
        <time>2008-05-28T09:18:07+02:00</time>
      </trkpt>
      <trkpt lat="41.68257" lon="8.92023">
        <ele>12</ele>
        <time>2008-05-28T09:18:11+02:00</time>
      </trkpt>
      <trkpt lat="41.68269" lon="8.92037">
        <ele>11</ele>
        <time>2008-05-28T09:18:13+02:00</time>
      </trkpt>
      <trkpt lat="41.68312" lon="8.92067">
        <ele>8</ele>
        <time>2008-05-28T09:18:19+02:00</time>
      </trkpt>
      <trkpt lat="41.68349" lon="8.92089">
        <ele>4</ele>
        <time>2008-05-28T09:18:24+02:00</time>
      </trkpt>
      <trkpt lat="41.68375" lon="8.921">
        <ele>3</ele>
        <time>2008-05-28T09:18:29+02:00</time>
      </trkpt>
      <trkpt lat="41.68383" lon="8.92102">
        <ele>3</ele>
        <time>2008-05-28T09:18:31+02:00</time>
      </trkpt>
      <trkpt lat="41.68392" lon="8.9211">
        <ele>3</ele>
        <time>2008-05-28T09:18:36+02:00</time>
      </trkpt>
      <trkpt lat="41.68393" lon="8.92114">
        <ele>3</ele>
        <time>2008-05-28T09:18:42+02:00</time>
      </trkpt>
      <trkpt lat="41.68395" lon="8.92115">
        <ele>3</ele>
        <time>2008-05-28T09:18:51+02:00</time>
      </trkpt>
      <trkpt lat="41.68399" lon="8.92126">
        <ele>3</ele>
        <time>2008-05-28T09:18:56+02:00</time>
      </trkpt>
      <trkpt lat="41.68407" lon="8.92147">
        <ele>3</ele>
        <time>2008-05-28T09:19:03+02:00</time>
      </trkpt>
      <trkpt lat="41.68421" lon="8.92151">
        <ele>3</ele>
        <time>2008-05-28T09:19:08+02:00</time>
      </trkpt>
      <trkpt lat="41.68439" lon="8.92161">
        <ele>3</ele>
        <time>2008-05-28T09:19:14+02:00</time>
      </trkpt>
      <trkpt lat="41.68447" lon="8.92183">
        <ele>3</ele>
        <time>2008-05-28T09:19:18+02:00</time>
      </trkpt>
      <trkpt lat="41.68452" lon="8.92216">
        <ele>3</ele>
        <time>2008-05-28T09:19:23+02:00</time>
      </trkpt>
      <trkpt lat="41.68457" lon="8.92263">
        <ele>4</ele>
        <time>2008-05-28T09:19:30+02:00</time>
      </trkpt>
      <trkpt lat="41.68463" lon="8.92303">
        <ele>4</ele>
        <time>2008-05-28T09:19:37+02:00</time>
      </trkpt>
      <trkpt lat="41.68466" lon="8.9232">
        <ele>4</ele>
        <time>2008-05-28T09:19:40+02:00</time>
      </trkpt>
      <trkpt lat="41.6847" lon="8.9233">
        <ele>5</ele>
        <time>2008-05-28T09:19:42+02:00</time>
      </trkpt>
      <trkpt lat="41.68477" lon="8.92364">
        <ele>5</ele>
        <time>2008-05-28T09:19:48+02:00</time>
      </trkpt>
      <trkpt lat="41.68486" lon="8.9241">
        <ele>4</ele>
        <time>2008-05-28T09:19:56+02:00</time>
      </trkpt>
      <trkpt lat="41.68498" lon="8.92456">
        <ele>5</ele>
        <time>2008-05-28T09:20:04+02:00</time>
      </trkpt>
      <trkpt lat="41.68503" lon="8.9248">
        <ele>5</ele>
        <time>2008-05-28T09:20:08+02:00</time>
      </trkpt>
      <trkpt lat="41.68517" lon="8.92529">
        <ele>7</ele>
        <time>2008-05-28T09:20:17+02:00</time>
      </trkpt>
      <trkpt lat="41.68523" lon="8.92555">
        <ele>8</ele>
        <time>2008-05-28T09:20:22+02:00</time>
      </trkpt>
      <trkpt lat="41.68535" lon="8.926">
        <ele>10</ele>
        <time>2008-05-28T09:20:31+02:00</time>
      </trkpt>
      <trkpt lat="41.68539" lon="8.92616">
        <ele>10</ele>
        <time>2008-05-28T09:20:36+02:00</time>
      </trkpt>
      <trkpt lat="41.68544" lon="8.92637">
        <ele>10</ele>
        <time>2008-05-28T09:20:42+02:00</time>
      </trkpt>
      <trkpt lat="41.68548" lon="8.9266">
        <ele>10</ele>
        <time>2008-05-28T09:20:49+02:00</time>
      </trkpt>
      <trkpt lat="41.68558" lon="8.92691">
        <ele>12</ele>
        <time>2008-05-28T09:20:58+02:00</time>
      </trkpt>
      <trkpt lat="41.68569" lon="8.92725">
        <ele>13</ele>
        <time>2008-05-28T09:21:06+02:00</time>
      </trkpt>
      <trkpt lat="41.68579" lon="8.92764">
        <ele>14</ele>
        <time>2008-05-28T09:21:14+02:00</time>
      </trkpt>
      <trkpt lat="41.68586" lon="8.92797">
        <ele>10</ele>
        <time>2008-05-28T09:21:20+02:00</time>
      </trkpt>
      <trkpt lat="41.68591" lon="8.92812">
        <ele>11</ele>
        <time>2008-05-28T09:21:23+02:00</time>
      </trkpt>
      <trkpt lat="41.68599" lon="8.9283">
        <ele>12</ele>
        <time>2008-05-28T09:21:27+02:00</time>
      </trkpt>
      <trkpt lat="41.68607" lon="8.92845">
        <ele>14</ele>
        <time>2008-05-28T09:21:30+02:00</time>
      </trkpt>
      <trkpt lat="41.68618" lon="8.92858">
        <ele>13</ele>
        <time>2008-05-28T09:21:33+02:00</time>
      </trkpt>
      <trkpt lat="41.68645" lon="8.92884">
        <ele>12</ele>
        <time>2008-05-28T09:21:40+02:00</time>
      </trkpt>
      <trkpt lat="41.68681" lon="8.92908">
        <ele>9</ele>
        <time>2008-05-28T09:21:49+02:00</time>
      </trkpt>
      <trkpt lat="41.68701" lon="8.92916">
        <ele>7</ele>
        <time>2008-05-28T09:21:54+02:00</time>
      </trkpt>
      <trkpt lat="41.68712" lon="8.92924">
        <ele>9</ele>
        <time>2008-05-28T09:21:57+02:00</time>
      </trkpt>
      <trkpt lat="41.68725" lon="8.92941">
        <ele>9</ele>
        <time>2008-05-28T09:22:01+02:00</time>
      </trkpt>
      <trkpt lat="41.68733" lon="8.92962">
        <ele>9</ele>
        <time>2008-05-28T09:22:05+02:00</time>
      </trkpt>
      <trkpt lat="41.68735" lon="8.92978">
        <ele>9</ele>
        <time>2008-05-28T09:22:08+02:00</time>
      </trkpt>
      <trkpt lat="41.68735" lon="8.93015">
        <ele>11</ele>
        <time>2008-05-28T09:22:14+02:00</time>
      </trkpt>
      <trkpt lat="41.68737" lon="8.93021">
        <ele>11</ele>
        <time>2008-05-28T09:22:15+02:00</time>
      </trkpt>
      <trkpt lat="41.68745" lon="8.93044">
        <ele>11</ele>
        <time>2008-05-28T09:22:19+02:00</time>
      </trkpt>
      <trkpt lat="41.68758" lon="8.93064">
        <ele>9</ele>
        <time>2008-05-28T09:22:24+02:00</time>
      </trkpt>
      <trkpt lat="41.68766" lon="8.93075">
        <ele>10</ele>
        <time>2008-05-28T09:22:27+02:00</time>
      </trkpt>
      <trkpt lat="41.68801" lon="8.93121">
        <ele>12</ele>
        <time>2008-05-28T09:22:38+02:00</time>
      </trkpt>
      <trkpt lat="41.68819" lon="8.93153">
        <ele>12</ele>
        <time>2008-05-28T09:22:44+02:00</time>
      </trkpt>
      <trkpt lat="41.68827" lon="8.93181">
        <ele>13</ele>
        <time>2008-05-28T09:22:49+02:00</time>
      </trkpt>
      <trkpt lat="41.68831" lon="8.93201">
        <ele>14</ele>
        <time>2008-05-28T09:22:53+02:00</time>
      </trkpt>
      <trkpt lat="41.68839" lon="8.93239">
        <ele>11</ele>
        <time>2008-05-28T09:23:01+02:00</time>
      </trkpt>
      <trkpt lat="41.68846" lon="8.93274">
        <ele>12</ele>
        <time>2008-05-28T09:23:09+02:00</time>
      </trkpt>
      <trkpt lat="41.68854" lon="8.93319">
        <ele>13</ele>
        <time>2008-05-28T09:23:20+02:00</time>
      </trkpt>
      <trkpt lat="41.68859" lon="8.93353">
        <ele>14</ele>
        <time>2008-05-28T09:23:28+02:00</time>
      </trkpt>
      <trkpt lat="41.68868" lon="8.93398">
        <ele>15</ele>
        <time>2008-05-28T09:23:38+02:00</time>
      </trkpt>
      <trkpt lat="41.68881" lon="8.93437">
        <ele>16</ele>
        <time>2008-05-28T09:23:46+02:00</time>
      </trkpt>
      <trkpt lat="41.68885" lon="8.93442">
        <ele>16</ele>
        <time>2008-05-28T09:23:47+02:00</time>
      </trkpt>
      <trkpt lat="41.68892" lon="8.93458">
        <ele>16</ele>
        <time>2008-05-28T09:23:50+02:00</time>
      </trkpt>
      <trkpt lat="41.68923" lon="8.93499">
        <ele>13</ele>
        <time>2008-05-28T09:23:58+02:00</time>
      </trkpt>
      <trkpt lat="41.68948" lon="8.93531">
        <ele>14</ele>
        <time>2008-05-28T09:24:05+02:00</time>
      </trkpt>
      <trkpt lat="41.68966" lon="8.9356">
        <ele>14</ele>
        <time>2008-05-28T09:24:11+02:00</time>
      </trkpt>
      <trkpt lat="41.68984" lon="8.93596">
        <ele>15</ele>
        <time>2008-05-28T09:24:17+02:00</time>
      </trkpt>
      <trkpt lat="41.69001" lon="8.93625">
        <ele>13</ele>
        <time>2008-05-28T09:24:23+02:00</time>
      </trkpt>
      <trkpt lat="41.69008" lon="8.93646">
        <ele>15</ele>
        <time>2008-05-28T09:24:27+02:00</time>
      </trkpt>
      <trkpt lat="41.69008" lon="8.93698">
        <ele>17</ele>
        <time>2008-05-28T09:24:36+02:00</time>
      </trkpt>
      <trkpt lat="41.69014" lon="8.93753">
        <ele>23</ele>
        <time>2008-05-28T09:24:46+02:00</time>
      </trkpt>
      <trkpt lat="41.69027" lon="8.93788">
        <ele>23</ele>
        <time>2008-05-28T09:24:54+02:00</time>
      </trkpt>
      <trkpt lat="41.69044" lon="8.938">
        <ele>23</ele>
        <time>2008-05-28T09:24:59+02:00</time>
      </trkpt>
      <trkpt lat="41.69063" lon="8.93797">
        <ele>22</ele>
        <time>2008-05-28T09:25:05+02:00</time>
      </trkpt>
      <trkpt lat="41.6908" lon="8.93794">
        <ele>22</ele>
        <time>2008-05-28T09:25:12+02:00</time>
      </trkpt>
      <trkpt lat="41.69094" lon="8.93801">
        <ele>18</ele>
        <time>2008-05-28T09:25:18+02:00</time>
      </trkpt>
      <trkpt lat="41.69106" lon="8.93816">
        <ele>18</ele>
        <time>2008-05-28T09:25:24+02:00</time>
      </trkpt>
      <trkpt lat="41.69116" lon="8.93831">
        <ele>18</ele>
        <time>2008-05-28T09:25:29+02:00</time>
      </trkpt>
      <trkpt lat="41.69126" lon="8.9385">
        <ele>22</ele>
        <time>2008-05-28T09:25:33+02:00</time>
      </trkpt>
      <trkpt lat="41.69133" lon="8.93873">
        <ele>22</ele>
        <time>2008-05-28T09:25:36+02:00</time>
      </trkpt>
      <trkpt lat="41.69158" lon="8.93931">
        <ele>23</ele>
        <time>2008-05-28T09:25:42+02:00</time>
      </trkpt>
      <trkpt lat="41.6918" lon="8.93989">
        <ele>19</ele>
        <time>2008-05-28T09:25:48+02:00</time>
      </trkpt>
      <trkpt lat="41.69194" lon="8.94024">
        <ele>21</ele>
        <time>2008-05-28T09:25:53+02:00</time>
      </trkpt>
      <trkpt lat="41.69196" lon="8.9403">
        <ele>21</ele>
        <time>2008-05-28T09:25:54+02:00</time>
      </trkpt>
      <trkpt lat="41.69223" lon="8.9407">
        <ele>19</ele>
        <time>2008-05-28T09:26:03+02:00</time>
      </trkpt>
      <trkpt lat="41.69242" lon="8.94099">
        <ele>20</ele>
        <time>2008-05-28T09:26:09+02:00</time>
      </trkpt>
      <trkpt lat="41.69263" lon="8.94134">
        <ele>18</ele>
        <time>2008-05-28T09:26:15+02:00</time>
      </trkpt>
      <trkpt lat="41.69282" lon="8.94149">
        <ele>18</ele>
        <time>2008-05-28T09:26:19+02:00</time>
      </trkpt>
      <trkpt lat="41.69294" lon="8.9416">
        <ele>17</ele>
        <time>2008-05-28T09:26:22+02:00</time>
      </trkpt>
      <trkpt lat="41.69306" lon="8.94175">
        <ele>22</ele>
        <time>2008-05-28T09:26:26+02:00</time>
      </trkpt>
      <trkpt lat="41.69332" lon="8.94216">
        <ele>24</ele>
        <time>2008-05-28T09:26:34+02:00</time>
      </trkpt>
      <trkpt lat="41.69354" lon="8.94242">
        <ele>19</ele>
        <time>2008-05-28T09:26:41+02:00</time>
      </trkpt>
      <trkpt lat="41.69368" lon="8.94266">
        <ele>23</ele>
        <time>2008-05-28T09:26:48+02:00</time>
      </trkpt>
      <trkpt lat="41.69377" lon="8.9429">
        <ele>23</ele>
        <time>2008-05-28T09:26:55+02:00</time>
      </trkpt>
      <trkpt lat="41.6938" lon="8.94317">
        <ele>24</ele>
        <time>2008-05-28T09:27:02+02:00</time>
      </trkpt>
      <trkpt lat="41.69382" lon="8.94345">
        <ele>29</ele>
        <time>2008-05-28T09:27:08+02:00</time>
      </trkpt>
      <trkpt lat="41.69391" lon="8.94375">
        <ele>30</ele>
        <time>2008-05-28T09:27:13+02:00</time>
      </trkpt>
      <trkpt lat="41.69392" lon="8.94382">
        <ele>30</ele>
        <time>2008-05-28T09:27:14+02:00</time>
      </trkpt>
      <trkpt lat="41.69407" lon="8.9442">
        <ele>29</ele>
        <time>2008-05-28T09:27:20+02:00</time>
      </trkpt>
      <trkpt lat="41.6941" lon="8.94426">
        <ele>30</ele>
        <time>2008-05-28T09:27:21+02:00</time>
      </trkpt>
      <trkpt lat="41.69425" lon="8.94462">
        <ele>25</ele>
        <time>2008-05-28T09:27:27+02:00</time>
      </trkpt>
      <trkpt lat="41.69429" lon="8.94479">
        <ele>27</ele>
        <time>2008-05-28T09:27:30+02:00</time>
      </trkpt>
      <trkpt lat="41.69434" lon="8.94524">
        <ele>31</ele>
        <time>2008-05-28T09:27:39+02:00</time>
      </trkpt>
      <trkpt lat="41.69444" lon="8.94568">
        <ele>31</ele>
        <time>2008-05-28T09:27:48+02:00</time>
      </trkpt>
      <trkpt lat="41.69453" lon="8.94604">
        <ele>32</ele>
        <time>2008-05-28T09:27:54+02:00</time>
      </trkpt>
      <trkpt lat="41.69464" lon="8.94647">
        <ele>29</ele>
        <time>2008-05-28T09:27:59+02:00</time>
      </trkpt>
      <trkpt lat="41.69466" lon="8.94699">
        <ele>30</ele>
        <time>2008-05-28T09:28:04+02:00</time>
      </trkpt>
      <trkpt lat="41.69468" lon="8.94747">
        <ele>28</ele>
        <time>2008-05-28T09:28:09+02:00</time>
      </trkpt>
      <trkpt lat="41.69471" lon="8.94773">
        <ele>29</ele>
        <time>2008-05-28T09:28:12+02:00</time>
      </trkpt>
      <trkpt lat="41.69485" lon="8.94822">
        <ele>25</ele>
        <time>2008-05-28T09:28:19+02:00</time>
      </trkpt>
      <trkpt lat="41.69493" lon="8.94845">
        <ele>24</ele>
        <time>2008-05-28T09:28:23+02:00</time>
      </trkpt>
      <trkpt lat="41.69491" lon="8.94876">
        <ele>28</ele>
        <time>2008-05-28T09:28:29+02:00</time>
      </trkpt>
      <trkpt lat="41.6949" lon="8.9488">
        <ele>28</ele>
        <time>2008-05-28T09:28:30+02:00</time>
      </trkpt>
      <trkpt lat="41.6948" lon="8.94905">
        <ele>28</ele>
        <time>2008-05-28T09:28:37+02:00</time>
      </trkpt>
      <trkpt lat="41.69479" lon="8.94941">
        <ele>31</ele>
        <time>2008-05-28T09:28:45+02:00</time>
      </trkpt>
      <trkpt lat="41.6948" lon="8.94978">
        <ele>31</ele>
        <time>2008-05-28T09:28:53+02:00</time>
      </trkpt>
      <trkpt lat="41.69478" lon="8.95016">
        <ele>33</ele>
        <time>2008-05-28T09:29:00+02:00</time>
      </trkpt>
      <trkpt lat="41.69477" lon="8.95035">
        <ele>34</ele>
        <time>2008-05-28T09:29:03+02:00</time>
      </trkpt>
      <trkpt lat="41.69478" lon="8.95048">
        <ele>35</ele>
        <time>2008-05-28T09:29:05+02:00</time>
      </trkpt>
      <trkpt lat="41.6949" lon="8.95096">
        <ele>33</ele>
        <time>2008-05-28T09:29:11+02:00</time>
      </trkpt>
      <trkpt lat="41.6951" lon="8.9515">
        <ele>26</ele>
        <time>2008-05-28T09:29:18+02:00</time>
      </trkpt>
      <trkpt lat="41.6953" lon="8.95207">
        <ele>27</ele>
        <time>2008-05-28T09:29:27+02:00</time>
      </trkpt>
      <trkpt lat="41.69544" lon="8.95245">
        <ele>27</ele>
        <time>2008-05-28T09:29:34+02:00</time>
      </trkpt>
      <trkpt lat="41.69557" lon="8.95287">
        <ele>28</ele>
        <time>2008-05-28T09:29:41+02:00</time>
      </trkpt>
      <trkpt lat="41.69561" lon="8.953">
        <ele>28</ele>
        <time>2008-05-28T09:29:43+02:00</time>
      </trkpt>
      <trkpt lat="41.69578" lon="8.95324">
        <ele>25</ele>
        <time>2008-05-28T09:29:47+02:00</time>
      </trkpt>
      <trkpt lat="41.69598" lon="8.95324">
        <ele>22</ele>
        <time>2008-05-28T09:29:50+02:00</time>
      </trkpt>
      <trkpt lat="41.69604" lon="8.95321">
        <ele>22</ele>
        <time>2008-05-28T09:29:51+02:00</time>
      </trkpt>
      <trkpt lat="41.69629" lon="8.95304">
        <ele>21</ele>
        <time>2008-05-28T09:29:57+02:00</time>
      </trkpt>
      <trkpt lat="41.69642" lon="8.95296">
        <ele>21</ele>
        <time>2008-05-28T09:30:01+02:00</time>
      </trkpt>
      <trkpt lat="41.69658" lon="8.95274">
        <ele>22</ele>
        <time>2008-05-28T09:30:08+02:00</time>
      </trkpt>
      <trkpt lat="41.69666" lon="8.95248">
        <ele>23</ele>
        <time>2008-05-28T09:30:16+02:00</time>
      </trkpt>
      <trkpt lat="41.69675" lon="8.95224">
        <ele>22</ele>
        <time>2008-05-28T09:30:23+02:00</time>
      </trkpt>
      <trkpt lat="41.69692" lon="8.95203">
        <ele>22</ele>
        <time>2008-05-28T09:30:30+02:00</time>
      </trkpt>
      <trkpt lat="41.6971" lon="8.95196">
        <ele>22</ele>
        <time>2008-05-28T09:30:35+02:00</time>
      </trkpt>
      <trkpt lat="41.6973" lon="8.95193">
        <ele>22</ele>
        <time>2008-05-28T09:30:41+02:00</time>
      </trkpt>
      <trkpt lat="41.6976" lon="8.95192">
        <ele>24</ele>
        <time>2008-05-28T09:30:50+02:00</time>
      </trkpt>
      <trkpt lat="41.69789" lon="8.95188">
        <ele>25</ele>
        <time>2008-05-28T09:30:58+02:00</time>
      </trkpt>
      <trkpt lat="41.69813" lon="8.95186">
        <ele>25</ele>
        <time>2008-05-28T09:31:05+02:00</time>
      </trkpt>
      <trkpt lat="41.69837" lon="8.95192">
        <ele>28</ele>
        <time>2008-05-28T09:31:12+02:00</time>
      </trkpt>
      <trkpt lat="41.69859" lon="8.95202">
        <ele>29</ele>
        <time>2008-05-28T09:31:20+02:00</time>
      </trkpt>
      <trkpt lat="41.69881" lon="8.95211">
        <ele>30</ele>
        <time>2008-05-28T09:31:28+02:00</time>
      </trkpt>
      <trkpt lat="41.69897" lon="8.95219">
        <ele>31</ele>
        <time>2008-05-28T09:31:34+02:00</time>
      </trkpt>
      <trkpt lat="41.69899" lon="8.9523">
        <ele>32</ele>
        <time>2008-05-28T09:31:38+02:00</time>
      </trkpt>
      <trkpt lat="41.69895" lon="8.95248">
        <ele>33</ele>
        <time>2008-05-28T09:31:45+02:00</time>
      </trkpt>
      <trkpt lat="41.69889" lon="8.95268">
        <ele>36</ele>
        <time>2008-05-28T09:31:53+02:00</time>
      </trkpt>
      <trkpt lat="41.69885" lon="8.9529">
        <ele>36</ele>
        <time>2008-05-28T09:32:02+02:00</time>
      </trkpt>
      <trkpt lat="41.69883" lon="8.9531">
        <ele>36</ele>
        <time>2008-05-28T09:32:10+02:00</time>
      </trkpt>
      <trkpt lat="41.69885" lon="8.95333">
        <ele>37</ele>
        <time>2008-05-28T09:32:19+02:00</time>
      </trkpt>
      <trkpt lat="41.69891" lon="8.95356">
        <ele>36</ele>
        <time>2008-05-28T09:32:28+02:00</time>
      </trkpt>
      <trkpt lat="41.69897" lon="8.95368">
        <ele>36</ele>
        <time>2008-05-28T09:32:33+02:00</time>
      </trkpt>
      <trkpt lat="41.69909" lon="8.95387">
        <ele>36</ele>
        <time>2008-05-28T09:32:40+02:00</time>
      </trkpt>
      <trkpt lat="41.69923" lon="8.95409">
        <ele>41</ele>
        <time>2008-05-28T09:32:48+02:00</time>
      </trkpt>
      <trkpt lat="41.6994" lon="8.9544">
        <ele>44</ele>
        <time>2008-05-28T09:32:58+02:00</time>
      </trkpt>
      <trkpt lat="41.6995" lon="8.9546">
        <ele>45</ele>
        <time>2008-05-28T09:33:05+02:00</time>
      </trkpt>
      <trkpt lat="41.69964" lon="8.95479">
        <ele>46</ele>
        <time>2008-05-28T09:33:13+02:00</time>
      </trkpt>
      <trkpt lat="41.69972" lon="8.95498">
        <ele>48</ele>
        <time>2008-05-28T09:33:19+02:00</time>
      </trkpt>
      <trkpt lat="41.69976" lon="8.95513">
        <ele>45</ele>
        <time>2008-05-28T09:33:24+02:00</time>
      </trkpt>
      <trkpt lat="41.69979" lon="8.95527">
        <ele>45</ele>
        <time>2008-05-28T09:33:30+02:00</time>
      </trkpt>
      <trkpt lat="41.69981" lon="8.95534">
        <ele>44</ele>
        <time>2008-05-28T09:33:35+02:00</time>
      </trkpt>
      <trkpt lat="41.69985" lon="8.95541">
        <ele>44</ele>
        <time>2008-05-28T09:33:45+02:00</time>
      </trkpt>
      <trkpt lat="41.69996" lon="8.95558">
        <ele>44</ele>
        <time>2008-05-28T09:33:51+02:00</time>
      </trkpt>
      <trkpt lat="41.7001" lon="8.95584">
        <ele>48</ele>
        <time>2008-05-28T09:34:00+02:00</time>
      </trkpt>
      <trkpt lat="41.70023" lon="8.956">
        <ele>50</ele>
        <time>2008-05-28T09:34:07+02:00</time>
      </trkpt>
      <trkpt lat="41.70038" lon="8.95618">
        <ele>52</ele>
        <time>2008-05-28T09:34:14+02:00</time>
      </trkpt>
      <trkpt lat="41.70047" lon="8.9564">
        <ele>52</ele>
        <time>2008-05-28T09:34:20+02:00</time>
      </trkpt>
      <trkpt lat="41.70048" lon="8.9567">
        <ele>49</ele>
        <time>2008-05-28T09:34:27+02:00</time>
      </trkpt>
      <trkpt lat="41.70051" lon="8.95702">
        <ele>49</ele>
        <time>2008-05-28T09:34:33+02:00</time>
      </trkpt>
      <trkpt lat="41.70055" lon="8.95738">
        <ele>49</ele>
        <time>2008-05-28T09:34:41+02:00</time>
      </trkpt>
      <trkpt lat="41.70061" lon="8.95769">
        <ele>48</ele>
        <time>2008-05-28T09:34:49+02:00</time>
      </trkpt>
      <trkpt lat="41.70068" lon="8.95798">
        <ele>47</ele>
        <time>2008-05-28T09:34:56+02:00</time>
      </trkpt>
      <trkpt lat="41.70076" lon="8.95825">
        <ele>48</ele>
        <time>2008-05-28T09:35:03+02:00</time>
      </trkpt>
      <trkpt lat="41.70084" lon="8.95847">
        <ele>50</ele>
        <time>2008-05-28T09:35:10+02:00</time>
      </trkpt>
      <trkpt lat="41.70093" lon="8.95854">
        <ele>50</ele>
        <time>2008-05-28T09:35:16+02:00</time>
      </trkpt>
      <trkpt lat="41.701" lon="8.95856">
        <ele>50</ele>
        <time>2008-05-28T09:35:23+02:00</time>
      </trkpt>
      <trkpt lat="41.70115" lon="8.95858">
        <ele>51</ele>
        <time>2008-05-28T09:35:29+02:00</time>
      </trkpt>
      <trkpt lat="41.70137" lon="8.95862">
        <ele>52</ele>
        <time>2008-05-28T09:35:34+02:00</time>
      </trkpt>
      <trkpt lat="41.70149" lon="8.95871">
        <ele>52</ele>
        <time>2008-05-28T09:35:37+02:00</time>
      </trkpt>
      <trkpt lat="41.70157" lon="8.95894">
        <ele>52</ele>
        <time>2008-05-28T09:35:41+02:00</time>
      </trkpt>
      <trkpt lat="41.70159" lon="8.95912">
        <ele>53</ele>
        <time>2008-05-28T09:35:44+02:00</time>
      </trkpt>
      <trkpt lat="41.70162" lon="8.95933">
        <ele>51</ele>
        <time>2008-05-28T09:35:48+02:00</time>
      </trkpt>
      <trkpt lat="41.70161" lon="8.95975">
        <ele>49</ele>
        <time>2008-05-28T09:35:56+02:00</time>
      </trkpt>
      <trkpt lat="41.70162" lon="8.96007">
        <ele>50</ele>
        <time>2008-05-28T09:36:02+02:00</time>
      </trkpt>
      <trkpt lat="41.70167" lon="8.96038">
        <ele>56</ele>
        <time>2008-05-28T09:36:08+02:00</time>
      </trkpt>
      <trkpt lat="41.70177" lon="8.96076">
        <ele>54</ele>
        <time>2008-05-28T09:36:16+02:00</time>
      </trkpt>
      <trkpt lat="41.70187" lon="8.96095">
        <ele>54</ele>
        <time>2008-05-28T09:36:21+02:00</time>
      </trkpt>
      <trkpt lat="41.70213" lon="8.96124">
        <ele>56</ele>
        <time>2008-05-28T09:36:30+02:00</time>
      </trkpt>
      <trkpt lat="41.70232" lon="8.9615">
        <ele>57</ele>
        <time>2008-05-28T09:36:37+02:00</time>
      </trkpt>
      <trkpt lat="41.70234" lon="8.96174">
        <ele>56</ele>
        <time>2008-05-28T09:36:42+02:00</time>
      </trkpt>
      <trkpt lat="41.70234" lon="8.96213">
        <ele>55</ele>
        <time>2008-05-28T09:36:50+02:00</time>
      </trkpt>
      <trkpt lat="41.70231" lon="8.96249">
        <ele>55</ele>
        <time>2008-05-28T09:36:58+02:00</time>
      </trkpt>
      <trkpt lat="41.7023" lon="8.96279">
        <ele>54</ele>
        <time>2008-05-28T09:37:06+02:00</time>
      </trkpt>
      <trkpt lat="41.70236" lon="8.96309">
        <ele>55</ele>
        <time>2008-05-28T09:37:14+02:00</time>
      </trkpt>
      <trkpt lat="41.70244" lon="8.96341">
        <ele>57</ele>
        <time>2008-05-28T09:37:22+02:00</time>
      </trkpt>
      <trkpt lat="41.70255" lon="8.96372">
        <ele>61</ele>
        <time>2008-05-28T09:37:31+02:00</time>
      </trkpt>
      <trkpt lat="41.70273" lon="8.96394">
        <ele>61</ele>
        <time>2008-05-28T09:37:39+02:00</time>
      </trkpt>
      <trkpt lat="41.70295" lon="8.96411">
        <ele>62</ele>
        <time>2008-05-28T09:37:46+02:00</time>
      </trkpt>
      <trkpt lat="41.70318" lon="8.96433">
        <ele>61</ele>
        <time>2008-05-28T09:37:54+02:00</time>
      </trkpt>
      <trkpt lat="41.70334" lon="8.96459">
        <ele>63</ele>
        <time>2008-05-28T09:38:00+02:00</time>
      </trkpt>
      <trkpt lat="41.70338" lon="8.9647">
        <ele>63</ele>
        <time>2008-05-28T09:38:02+02:00</time>
      </trkpt>
      <trkpt lat="41.70342" lon="8.96488">
        <ele>61</ele>
        <time>2008-05-28T09:38:05+02:00</time>
      </trkpt>
      <trkpt lat="41.70345" lon="8.96533">
        <ele>63</ele>
        <time>2008-05-28T09:38:13+02:00</time>
      </trkpt>
      <trkpt lat="41.70353" lon="8.96562">
        <ele>65</ele>
        <time>2008-05-28T09:38:20+02:00</time>
      </trkpt>
      <trkpt lat="41.70362" lon="8.96585">
        <ele>71</ele>
        <time>2008-05-28T09:38:28+02:00</time>
      </trkpt>
      <trkpt lat="41.70371" lon="8.96602">
        <ele>72</ele>
        <time>2008-05-28T09:38:35+02:00</time>
      </trkpt>
      <trkpt lat="41.70379" lon="8.96613">
        <ele>72</ele>
        <time>2008-05-28T09:38:41+02:00</time>
      </trkpt>
      <trkpt lat="41.70392" lon="8.96631">
        <ele>72</ele>
        <time>2008-05-28T09:38:50+02:00</time>
      </trkpt>
      <trkpt lat="41.70407" lon="8.96653">
        <ele>72</ele>
        <time>2008-05-28T09:39:01+02:00</time>
      </trkpt>
      <trkpt lat="41.70415" lon="8.96674">
        <ele>76</ele>
        <time>2008-05-28T09:39:09+02:00</time>
      </trkpt>
      <trkpt lat="41.70428" lon="8.96693">
        <ele>75</ele>
        <time>2008-05-28T09:39:18+02:00</time>
      </trkpt>
      <trkpt lat="41.70444" lon="8.96715">
        <ele>77</ele>
        <time>2008-05-28T09:39:29+02:00</time>
      </trkpt>
      <trkpt lat="41.70452" lon="8.96734">
        <ele>78</ele>
        <time>2008-05-28T09:39:37+02:00</time>
      </trkpt>
      <trkpt lat="41.70458" lon="8.9675">
        <ele>88</ele>
        <time>2008-05-28T09:39:44+02:00</time>
      </trkpt>
      <trkpt lat="41.70465" lon="8.96766">
        <ele>88</ele>
        <time>2008-05-28T09:39:51+02:00</time>
      </trkpt>
      <trkpt lat="41.70473" lon="8.96781">
        <ele>89</ele>
        <time>2008-05-28T09:39:59+02:00</time>
      </trkpt>
      <trkpt lat="41.70485" lon="8.96801">
        <ele>90</ele>
        <time>2008-05-28T09:40:09+02:00</time>
      </trkpt>
      <trkpt lat="41.70494" lon="8.96818">
        <ele>89</ele>
        <time>2008-05-28T09:40:18+02:00</time>
      </trkpt>
      <trkpt lat="41.70502" lon="8.96836">
        <ele>87</ele>
        <time>2008-05-28T09:40:27+02:00</time>
      </trkpt>
      <trkpt lat="41.70508" lon="8.9686">
        <ele>88</ele>
        <time>2008-05-28T09:40:37+02:00</time>
      </trkpt>
      <trkpt lat="41.70514" lon="8.96878">
        <ele>89</ele>
        <time>2008-05-28T09:40:45+02:00</time>
      </trkpt>
      <trkpt lat="41.7052" lon="8.96899">
        <ele>92</ele>
        <time>2008-05-28T09:40:54+02:00</time>
      </trkpt>
      <trkpt lat="41.70523" lon="8.96924">
        <ele>100</ele>
        <time>2008-05-28T09:41:04+02:00</time>
      </trkpt>
      <trkpt lat="41.70529" lon="8.96939">
        <ele>100</ele>
        <time>2008-05-28T09:41:11+02:00</time>
      </trkpt>
      <trkpt lat="41.70539" lon="8.96952">
        <ele>100</ele>
        <time>2008-05-28T09:41:18+02:00</time>
      </trkpt>
      <trkpt lat="41.70552" lon="8.9697">
        <ele>100</ele>
        <time>2008-05-28T09:41:28+02:00</time>
      </trkpt>
      <trkpt lat="41.70565" lon="8.96991">
        <ele>99</ele>
        <time>2008-05-28T09:41:39+02:00</time>
      </trkpt>
      <trkpt lat="41.70577" lon="8.9701">
        <ele>106</ele>
        <time>2008-05-28T09:41:48+02:00</time>
      </trkpt>
      <trkpt lat="41.70589" lon="8.97026">
        <ele>99</ele>
        <time>2008-05-28T09:41:57+02:00</time>
      </trkpt>
      <trkpt lat="41.70601" lon="8.97043">
        <ele>101</ele>
        <time>2008-05-28T09:42:05+02:00</time>
      </trkpt>
      <trkpt lat="41.7061" lon="8.97069">
        <ele>104</ele>
        <time>2008-05-28T09:42:13+02:00</time>
      </trkpt>
      <trkpt lat="41.70625" lon="8.97093">
        <ele>113</ele>
        <time>2008-05-28T09:42:21+02:00</time>
      </trkpt>
      <trkpt lat="41.7064" lon="8.97104">
        <ele>111</ele>
        <time>2008-05-28T09:42:28+02:00</time>
      </trkpt>
      <trkpt lat="41.70654" lon="8.97126">
        <ele>112</ele>
        <time>2008-05-28T09:42:36+02:00</time>
      </trkpt>
      <trkpt lat="41.70663" lon="8.9714">
        <ele>113</ele>
        <time>2008-05-28T09:42:41+02:00</time>
      </trkpt>
      <trkpt lat="41.70676" lon="8.97156">
        <ele>107</ele>
        <time>2008-05-28T09:42:47+02:00</time>
      </trkpt>
      <trkpt lat="41.70693" lon="8.97175">
        <ele>113</ele>
        <time>2008-05-28T09:42:56+02:00</time>
      </trkpt>
      <trkpt lat="41.70703" lon="8.97183">
        <ele>113</ele>
        <time>2008-05-28T09:43:01+02:00</time>
      </trkpt>
      <trkpt lat="41.70727" lon="8.97208">
        <ele>113</ele>
        <time>2008-05-28T09:43:13+02:00</time>
      </trkpt>
      <trkpt lat="41.70745" lon="8.97227">
        <ele>114</ele>
        <time>2008-05-28T09:43:22+02:00</time>
      </trkpt>
      <trkpt lat="41.70764" lon="8.97245">
        <ele>111</ele>
        <time>2008-05-28T09:43:31+02:00</time>
      </trkpt>
      <trkpt lat="41.7078" lon="8.97261">
        <ele>118</ele>
        <time>2008-05-28T09:43:40+02:00</time>
      </trkpt>
      <trkpt lat="41.70791" lon="8.97273">
        <ele>118</ele>
        <time>2008-05-28T09:43:46+02:00</time>
      </trkpt>
      <trkpt lat="41.708" lon="8.97281">
        <ele>118</ele>
        <time>2008-05-28T09:43:52+02:00</time>
      </trkpt>
      <trkpt lat="41.7081" lon="8.97291">
        <ele>119</ele>
        <time>2008-05-28T09:43:59+02:00</time>
      </trkpt>
      <trkpt lat="41.70821" lon="8.97301">
        <ele>120</ele>
        <time>2008-05-28T09:44:08+02:00</time>
      </trkpt>
      <trkpt lat="41.70828" lon="8.9731">
        <ele>120</ele>
        <time>2008-05-28T09:44:14+02:00</time>
      </trkpt>
      <trkpt lat="41.70839" lon="8.97325">
        <ele>119</ele>
        <time>2008-05-28T09:44:23+02:00</time>
      </trkpt>
      <trkpt lat="41.70847" lon="8.97336">
        <ele>125</ele>
        <time>2008-05-28T09:44:30+02:00</time>
      </trkpt>
      <trkpt lat="41.70853" lon="8.97347">
        <ele>125</ele>
        <time>2008-05-28T09:44:36+02:00</time>
      </trkpt>
      <trkpt lat="41.70859" lon="8.9736">
        <ele>127</ele>
        <time>2008-05-28T09:44:43+02:00</time>
      </trkpt>
      <trkpt lat="41.70869" lon="8.97378">
        <ele>128</ele>
        <time>2008-05-28T09:44:52+02:00</time>
      </trkpt>
      <trkpt lat="41.70879" lon="8.97389">
        <ele>129</ele>
        <time>2008-05-28T09:44:59+02:00</time>
      </trkpt>
      <trkpt lat="41.70893" lon="8.97403">
        <ele>128</ele>
        <time>2008-05-28T09:45:08+02:00</time>
      </trkpt>
      <trkpt lat="41.70906" lon="8.97418">
        <ele>136</ele>
        <time>2008-05-28T09:45:16+02:00</time>
      </trkpt>
      <trkpt lat="41.70919" lon="8.97432">
        <ele>130</ele>
        <time>2008-05-28T09:45:23+02:00</time>
      </trkpt>
      <trkpt lat="41.70936" lon="8.97455">
        <ele>133</ele>
        <time>2008-05-28T09:45:32+02:00</time>
      </trkpt>
      <trkpt lat="41.7095" lon="8.97477">
        <ele>135</ele>
        <time>2008-05-28T09:45:40+02:00</time>
      </trkpt>
      <trkpt lat="41.70963" lon="8.97499">
        <ele>135</ele>
        <time>2008-05-28T09:45:48+02:00</time>
      </trkpt>
      <trkpt lat="41.70975" lon="8.97513">
        <ele>147</ele>
        <time>2008-05-28T09:45:55+02:00</time>
      </trkpt>
      <trkpt lat="41.71" lon="8.97533">
        <ele>148</ele>
        <time>2008-05-28T09:46:04+02:00</time>
      </trkpt>
      <trkpt lat="41.71021" lon="8.97552">
        <ele>139</ele>
        <time>2008-05-28T09:46:12+02:00</time>
      </trkpt>
      <trkpt lat="41.71039" lon="8.97571">
        <ele>138</ele>
        <time>2008-05-28T09:46:19+02:00</time>
      </trkpt>
      <trkpt lat="41.71061" lon="8.97592">
        <ele>145</ele>
        <time>2008-05-28T09:46:27+02:00</time>
      </trkpt>
      <trkpt lat="41.71083" lon="8.97615">
        <ele>147</ele>
        <time>2008-05-28T09:46:35+02:00</time>
      </trkpt>
      <trkpt lat="41.71103" lon="8.97633">
        <ele>141</ele>
        <time>2008-05-28T09:46:42+02:00</time>
      </trkpt>
      <trkpt lat="41.71122" lon="8.97638">
        <ele>141</ele>
        <time>2008-05-28T09:46:48+02:00</time>
      </trkpt>
      <trkpt lat="41.71152" lon="8.97641">
        <ele>140</ele>
        <time>2008-05-28T09:46:58+02:00</time>
      </trkpt>
      <trkpt lat="41.71166" lon="8.97635">
        <ele>140</ele>
        <time>2008-05-28T09:47:03+02:00</time>
      </trkpt>
      <trkpt lat="41.71174" lon="8.97619">
        <ele>144</ele>
        <time>2008-05-28T09:47:08+02:00</time>
      </trkpt>
      <trkpt lat="41.71176" lon="8.97597">
        <ele>142</ele>
        <time>2008-05-28T09:47:15+02:00</time>
      </trkpt>
      <trkpt lat="41.71176" lon="8.97578">
        <ele>143</ele>
        <time>2008-05-28T09:47:22+02:00</time>
      </trkpt>
      <trkpt lat="41.71178" lon="8.97557">
        <ele>148</ele>
        <time>2008-05-28T09:47:30+02:00</time>
      </trkpt>
      <trkpt lat="41.71179" lon="8.97536">
        <ele>150</ele>
        <time>2008-05-28T09:47:38+02:00</time>
      </trkpt>
      <trkpt lat="41.71177" lon="8.97517">
        <ele>149</ele>
        <time>2008-05-28T09:47:45+02:00</time>
      </trkpt>
      <trkpt lat="41.71175" lon="8.97499">
        <ele>150</ele>
        <time>2008-05-28T09:47:51+02:00</time>
      </trkpt>
      <trkpt lat="41.71173" lon="8.97483">
        <ele>153</ele>
        <time>2008-05-28T09:47:57+02:00</time>
      </trkpt>
      <trkpt lat="41.71171" lon="8.97466">
        <ele>156</ele>
        <time>2008-05-28T09:48:03+02:00</time>
      </trkpt>
      <trkpt lat="41.71167" lon="8.97447">
        <ele>157</ele>
        <time>2008-05-28T09:48:10+02:00</time>
      </trkpt>
      <trkpt lat="41.71167" lon="8.97438">
        <ele>156</ele>
        <time>2008-05-28T09:48:14+02:00</time>
      </trkpt>
      <trkpt lat="41.71174" lon="8.97435">
        <ele>156</ele>
        <time>2008-05-28T09:48:19+02:00</time>
      </trkpt>
      <trkpt lat="41.7118" lon="8.97444">
        <ele>158</ele>
        <time>2008-05-28T09:48:24+02:00</time>
      </trkpt>
      <trkpt lat="41.7119" lon="8.97466">
        <ele>158</ele>
        <time>2008-05-28T09:48:33+02:00</time>
      </trkpt>
      <trkpt lat="41.71201" lon="8.97488">
        <ele>159</ele>
        <time>2008-05-28T09:48:42+02:00</time>
      </trkpt>
      <trkpt lat="41.7121" lon="8.97506">
        <ele>156</ele>
        <time>2008-05-28T09:48:49+02:00</time>
      </trkpt>
      <trkpt lat="41.71217" lon="8.97522">
        <ele>156</ele>
        <time>2008-05-28T09:48:56+02:00</time>
      </trkpt>
      <trkpt lat="41.71221" lon="8.97542">
        <ele>155</ele>
        <time>2008-05-28T09:49:04+02:00</time>
      </trkpt>
      <trkpt lat="41.71226" lon="8.97564">
        <ele>155</ele>
        <time>2008-05-28T09:49:13+02:00</time>
      </trkpt>
      <trkpt lat="41.71234" lon="8.97577">
        <ele>156</ele>
        <time>2008-05-28T09:49:19+02:00</time>
      </trkpt>
      <trkpt lat="41.71245" lon="8.97585">
        <ele>156</ele>
        <time>2008-05-28T09:49:25+02:00</time>
      </trkpt>
      <trkpt lat="41.71264" lon="8.97596">
        <ele>163</ele>
        <time>2008-05-28T09:49:35+02:00</time>
      </trkpt>
      <trkpt lat="41.7128" lon="8.976">
        <ele>166</ele>
        <time>2008-05-28T09:49:43+02:00</time>
      </trkpt>
      <trkpt lat="41.71291" lon="8.97602">
        <ele>168</ele>
        <time>2008-05-28T09:49:49+02:00</time>
      </trkpt>
      <trkpt lat="41.71301" lon="8.97607">
        <ele>170</ele>
        <time>2008-05-28T09:49:56+02:00</time>
      </trkpt>
      <trkpt lat="41.71317" lon="8.97611">
        <ele>172</ele>
        <time>2008-05-28T09:50:05+02:00</time>
      </trkpt>
      <trkpt lat="41.71331" lon="8.97619">
        <ele>172</ele>
        <time>2008-05-28T09:50:14+02:00</time>
      </trkpt>
      <trkpt lat="41.71342" lon="8.97628">
        <ele>189</ele>
        <time>2008-05-28T09:50:22+02:00</time>
      </trkpt>
      <trkpt lat="41.71354" lon="8.97635">
        <ele>190</ele>
        <time>2008-05-28T09:50:30+02:00</time>
      </trkpt>
      <trkpt lat="41.71364" lon="8.97644">
        <ele>190</ele>
        <time>2008-05-28T09:50:38+02:00</time>
      </trkpt>
      <trkpt lat="41.71374" lon="8.97651">
        <ele>192</ele>
        <time>2008-05-28T09:50:45+02:00</time>
      </trkpt>
      <trkpt lat="41.71383" lon="8.9766">
        <ele>194</ele>
        <time>2008-05-28T09:50:52+02:00</time>
      </trkpt>
      <trkpt lat="41.71389" lon="8.97674">
        <ele>192</ele>
        <time>2008-05-28T09:50:59+02:00</time>
      </trkpt>
      <trkpt lat="41.71383" lon="8.97693">
        <ele>192</ele>
        <time>2008-05-28T09:51:07+02:00</time>
      </trkpt>
      <trkpt lat="41.7137" lon="8.97706">
        <ele>190</ele>
        <time>2008-05-28T09:51:16+02:00</time>
      </trkpt>
      <trkpt lat="41.71357" lon="8.97719">
        <ele>188</ele>
        <time>2008-05-28T09:51:25+02:00</time>
      </trkpt>
      <trkpt lat="41.71351" lon="8.97738">
        <ele>187</ele>
        <time>2008-05-28T09:51:34+02:00</time>
      </trkpt>
      <trkpt lat="41.71349" lon="8.97755">
        <ele>191</ele>
        <time>2008-05-28T09:51:41+02:00</time>
      </trkpt>
      <trkpt lat="41.71347" lon="8.9777">
        <ele>194</ele>
        <time>2008-05-28T09:51:48+02:00</time>
      </trkpt>
      <trkpt lat="41.71344" lon="8.97782">
        <ele>196</ele>
        <time>2008-05-28T09:51:54+02:00</time>
      </trkpt>
      <trkpt lat="41.7134" lon="8.97798">
        <ele>197</ele>
        <time>2008-05-28T09:52:01+02:00</time>
      </trkpt>
      <trkpt lat="41.71338" lon="8.97812">
        <ele>196</ele>
        <time>2008-05-28T09:52:07+02:00</time>
      </trkpt>
      <trkpt lat="41.71339" lon="8.97828">
        <ele>193</ele>
        <time>2008-05-28T09:52:14+02:00</time>
      </trkpt>
      <trkpt lat="41.71342" lon="8.97846">
        <ele>199</ele>
        <time>2008-05-28T09:52:22+02:00</time>
      </trkpt>
      <trkpt lat="41.71344" lon="8.97864">
        <ele>203</ele>
        <time>2008-05-28T09:52:30+02:00</time>
      </trkpt>
      <trkpt lat="41.71347" lon="8.97885">
        <ele>204</ele>
        <time>2008-05-28T09:52:39+02:00</time>
      </trkpt>
      <trkpt lat="41.71345" lon="8.97905">
        <ele>202</ele>
        <time>2008-05-28T09:52:48+02:00</time>
      </trkpt>
      <trkpt lat="41.71339" lon="8.97923">
        <ele>199</ele>
        <time>2008-05-28T09:52:56+02:00</time>
      </trkpt>
      <trkpt lat="41.71339" lon="8.97945">
        <ele>202</ele>
        <time>2008-05-28T09:53:05+02:00</time>
      </trkpt>
      <trkpt lat="41.71349" lon="8.97965">
        <ele>203</ele>
        <time>2008-05-28T09:53:14+02:00</time>
      </trkpt>
      <trkpt lat="41.71363" lon="8.97979">
        <ele>204</ele>
        <time>2008-05-28T09:53:23+02:00</time>
      </trkpt>
      <trkpt lat="41.71372" lon="8.97985">
        <ele>205</ele>
        <time>2008-05-28T09:53:29+02:00</time>
      </trkpt>
      <trkpt lat="41.71385" lon="8.97991">
        <ele>207</ele>
        <time>2008-05-28T09:53:36+02:00</time>
      </trkpt>
      <trkpt lat="41.71396" lon="8.98">
        <ele>204</ele>
        <time>2008-05-28T09:53:43+02:00</time>
      </trkpt>
      <trkpt lat="41.71411" lon="8.98011">
        <ele>206</ele>
        <time>2008-05-28T09:53:52+02:00</time>
      </trkpt>
      <trkpt lat="41.71425" lon="8.98023">
        <ele>217</ele>
        <time>2008-05-28T09:54:01+02:00</time>
      </trkpt>
      <trkpt lat="41.71434" lon="8.98035">
        <ele>218</ele>
        <time>2008-05-28T09:54:09+02:00</time>
      </trkpt>
      <trkpt lat="41.71443" lon="8.98051">
        <ele>218</ele>
        <time>2008-05-28T09:54:17+02:00</time>
      </trkpt>
      <trkpt lat="41.71449" lon="8.98066">
        <ele>217</ele>
        <time>2008-05-28T09:54:24+02:00</time>
      </trkpt>
      <trkpt lat="41.71457" lon="8.98083">
        <ele>218</ele>
        <time>2008-05-28T09:54:32+02:00</time>
      </trkpt>
      <trkpt lat="41.71464" lon="8.98095">
        <ele>213</ele>
        <time>2008-05-28T09:54:38+02:00</time>
      </trkpt>
      <trkpt lat="41.71475" lon="8.98109">
        <ele>214</ele>
        <time>2008-05-28T09:54:45+02:00</time>
      </trkpt>
      <trkpt lat="41.71488" lon="8.98123">
        <ele>215</ele>
        <time>2008-05-28T09:54:55+02:00</time>
      </trkpt>
      <trkpt lat="41.71498" lon="8.98134">
        <ele>215</ele>
        <time>2008-05-28T09:55:02+02:00</time>
      </trkpt>
      <trkpt lat="41.71506" lon="8.98141">
        <ele>227</ele>
        <time>2008-05-28T09:55:08+02:00</time>
      </trkpt>
      <trkpt lat="41.71521" lon="8.98147">
        <ele>228</ele>
        <time>2008-05-28T09:55:16+02:00</time>
      </trkpt>
      <trkpt lat="41.71536" lon="8.98146">
        <ele>229</ele>
        <time>2008-05-28T09:55:23+02:00</time>
      </trkpt>
      <trkpt lat="41.71555" lon="8.9815">
        <ele>231</ele>
        <time>2008-05-28T09:55:32+02:00</time>
      </trkpt>
      <trkpt lat="41.71574" lon="8.98157">
        <ele>230</ele>
        <time>2008-05-28T09:55:41+02:00</time>
      </trkpt>
      <trkpt lat="41.71587" lon="8.98168">
        <ele>227</ele>
        <time>2008-05-28T09:55:48+02:00</time>
      </trkpt>
      <trkpt lat="41.71599" lon="8.98186">
        <ele>223</ele>
        <time>2008-05-28T09:55:56+02:00</time>
      </trkpt>
      <trkpt lat="41.71615" lon="8.98201">
        <ele>221</ele>
        <time>2008-05-28T09:56:03+02:00</time>
      </trkpt>
      <trkpt lat="41.71633" lon="8.98208">
        <ele>220</ele>
        <time>2008-05-28T09:56:09+02:00</time>
      </trkpt>
      <trkpt lat="41.71646" lon="8.98205">
        <ele>221</ele>
        <time>2008-05-28T09:56:14+02:00</time>
      </trkpt>
      <trkpt lat="41.71657" lon="8.9819">
        <ele>225</ele>
        <time>2008-05-28T09:56:19+02:00</time>
      </trkpt>
      <trkpt lat="41.71669" lon="8.98168">
        <ele>234</ele>
        <time>2008-05-28T09:56:25+02:00</time>
      </trkpt>
      <trkpt lat="41.71681" lon="8.98159">
        <ele>242</ele>
        <time>2008-05-28T09:56:29+02:00</time>
      </trkpt>
      <trkpt lat="41.71698" lon="8.98161">
        <ele>245</ele>
        <time>2008-05-28T09:56:34+02:00</time>
      </trkpt>
      <trkpt lat="41.71722" lon="8.98164">
        <ele>245</ele>
        <time>2008-05-28T09:56:41+02:00</time>
      </trkpt>
      <trkpt lat="41.71738" lon="8.98163">
        <ele>243</ele>
        <time>2008-05-28T09:56:47+02:00</time>
      </trkpt>
      <trkpt lat="41.71755" lon="8.98166">
        <ele>243</ele>
        <time>2008-05-28T09:56:52+02:00</time>
      </trkpt>
      <trkpt lat="41.71758" lon="8.98168">
        <ele>243</ele>
        <time>2008-05-28T09:56:53+02:00</time>
      </trkpt>
      <trkpt lat="41.71762" lon="8.98183">
        <ele>247</ele>
        <time>2008-05-28T09:56:58+02:00</time>
      </trkpt>
      <trkpt lat="41.71759" lon="8.9821">
        <ele>248</ele>
        <time>2008-05-28T09:57:06+02:00</time>
      </trkpt>
      <trkpt lat="41.7176" lon="8.9824">
        <ele>240</ele>
        <time>2008-05-28T09:57:14+02:00</time>
      </trkpt>
      <trkpt lat="41.71763" lon="8.98264">
        <ele>238</ele>
        <time>2008-05-28T09:57:20+02:00</time>
      </trkpt>
      <trkpt lat="41.71766" lon="8.983">
        <ele>238</ele>
        <time>2008-05-28T09:57:28+02:00</time>
      </trkpt>
      <trkpt lat="41.71776" lon="8.98325">
        <ele>237</ele>
        <time>2008-05-28T09:57:35+02:00</time>
      </trkpt>
      <trkpt lat="41.71786" lon="8.98344">
        <ele>228</ele>
        <time>2008-05-28T09:57:41+02:00</time>
      </trkpt>
      <trkpt lat="41.71803" lon="8.98363">
        <ele>230</ele>
        <time>2008-05-28T09:57:50+02:00</time>
      </trkpt>
      <trkpt lat="41.71821" lon="8.98377">
        <ele>230</ele>
        <time>2008-05-28T09:57:58+02:00</time>
      </trkpt>
      <trkpt lat="41.71836" lon="8.98382">
        <ele>243</ele>
        <time>2008-05-28T09:58:04+02:00</time>
      </trkpt>
      <trkpt lat="41.71854" lon="8.98385">
        <ele>244</ele>
        <time>2008-05-28T09:58:10+02:00</time>
      </trkpt>
      <trkpt lat="41.71879" lon="8.98389">
        <ele>245</ele>
        <time>2008-05-28T09:58:19+02:00</time>
      </trkpt>
      <trkpt lat="41.71902" lon="8.9839">
        <ele>246</ele>
        <time>2008-05-28T09:58:26+02:00</time>
      </trkpt>
      <trkpt lat="41.71917" lon="8.98398">
        <ele>251</ele>
        <time>2008-05-28T09:58:31+02:00</time>
      </trkpt>
      <trkpt lat="41.71937" lon="8.98408">
        <ele>253</ele>
        <time>2008-05-28T09:58:38+02:00</time>
      </trkpt>
      <trkpt lat="41.71966" lon="8.98415">
        <ele>257</ele>
        <time>2008-05-28T09:58:47+02:00</time>
      </trkpt>
      <trkpt lat="41.71983" lon="8.98419">
        <ele>240</ele>
        <time>2008-05-28T09:58:53+02:00</time>
      </trkpt>
      <trkpt lat="41.72006" lon="8.98428">
        <ele>245</ele>
        <time>2008-05-28T09:59:01+02:00</time>
      </trkpt>
      <trkpt lat="41.72024" lon="8.98429">
        <ele>242</ele>
        <time>2008-05-28T09:59:07+02:00</time>
      </trkpt>
      <trkpt lat="41.72043" lon="8.98435">
        <ele>241</ele>
        <time>2008-05-28T09:59:13+02:00</time>
      </trkpt>
      <trkpt lat="41.72062" lon="8.98438">
        <ele>243</ele>
        <time>2008-05-28T09:59:19+02:00</time>
      </trkpt>
      <trkpt lat="41.72081" lon="8.98434">
        <ele>247</ele>
        <time>2008-05-28T09:59:25+02:00</time>
      </trkpt>
      <trkpt lat="41.72103" lon="8.98425">
        <ele>256</ele>
        <time>2008-05-28T09:59:32+02:00</time>
      </trkpt>
      <trkpt lat="41.7212" lon="8.98429">
        <ele>257</ele>
        <time>2008-05-28T09:59:37+02:00</time>
      </trkpt>
      <trkpt lat="41.72128" lon="8.98445">
        <ele>256</ele>
        <time>2008-05-28T09:59:41+02:00</time>
      </trkpt>
      <trkpt lat="41.72137" lon="8.98475">
        <ele>251</ele>
        <time>2008-05-28T09:59:48+02:00</time>
      </trkpt>
      <trkpt lat="41.7215" lon="8.98484">
        <ele>251</ele>
        <time>2008-05-28T09:59:52+02:00</time>
      </trkpt>
      <trkpt lat="41.72174" lon="8.98501">
        <ele>250</ele>
        <time>2008-05-28T09:59:59+02:00</time>
      </trkpt>
      <trkpt lat="41.7219" lon="8.98523">
        <ele>252</ele>
        <time>2008-05-28T10:00:05+02:00</time>
      </trkpt>
      <trkpt lat="41.72213" lon="8.98536">
        <ele>254</ele>
        <time>2008-05-28T10:00:12+02:00</time>
      </trkpt>
      <trkpt lat="41.72233" lon="8.98549">
        <ele>255</ele>
        <time>2008-05-28T10:00:19+02:00</time>
      </trkpt>
      <trkpt lat="41.7224" lon="8.9857">
        <ele>252</ele>
        <time>2008-05-28T10:00:24+02:00</time>
      </trkpt>
      <trkpt lat="41.72247" lon="8.98598">
        <ele>243</ele>
        <time>2008-05-28T10:00:31+02:00</time>
      </trkpt>
      <trkpt lat="41.72262" lon="8.98608">
        <ele>252</ele>
        <time>2008-05-28T10:00:37+02:00</time>
      </trkpt>
      <trkpt lat="41.72287" lon="8.98615">
        <ele>255</ele>
        <time>2008-05-28T10:00:46+02:00</time>
      </trkpt>
      <trkpt lat="41.7231" lon="8.98619">
        <ele>258</ele>
        <time>2008-05-28T10:00:55+02:00</time>
      </trkpt>
      <trkpt lat="41.7233" lon="8.9863">
        <ele>257</ele>
        <time>2008-05-28T10:01:03+02:00</time>
      </trkpt>
      <trkpt lat="41.72346" lon="8.98645">
        <ele>263</ele>
        <time>2008-05-28T10:01:10+02:00</time>
      </trkpt>
      <trkpt lat="41.72368" lon="8.98663">
        <ele>264</ele>
        <time>2008-05-28T10:01:19+02:00</time>
      </trkpt>
      <trkpt lat="41.72386" lon="8.98668">
        <ele>262</ele>
        <time>2008-05-28T10:01:26+02:00</time>
      </trkpt>
      <trkpt lat="41.72396" lon="8.98655">
        <ele>268</ele>
        <time>2008-05-28T10:01:31+02:00</time>
      </trkpt>
      <trkpt lat="41.72403" lon="8.98634">
        <ele>269</ele>
        <time>2008-05-28T10:01:36+02:00</time>
      </trkpt>
      <trkpt lat="41.72415" lon="8.98616">
        <ele>271</ele>
        <time>2008-05-28T10:01:42+02:00</time>
      </trkpt>
      <trkpt lat="41.72429" lon="8.98613">
        <ele>285</ele>
        <time>2008-05-28T10:01:46+02:00</time>
      </trkpt>
      <trkpt lat="41.72441" lon="8.98625">
        <ele>287</ele>
        <time>2008-05-28T10:01:50+02:00</time>
      </trkpt>
      <trkpt lat="41.72442" lon="8.98646">
        <ele>286</ele>
        <time>2008-05-28T10:01:54+02:00</time>
      </trkpt>
      <trkpt lat="41.72433" lon="8.98673">
        <ele>282</ele>
        <time>2008-05-28T10:02:00+02:00</time>
      </trkpt>
      <trkpt lat="41.7242" lon="8.98704">
        <ele>286</ele>
        <time>2008-05-28T10:02:08+02:00</time>
      </trkpt>
      <trkpt lat="41.72409" lon="8.9873">
        <ele>266</ele>
        <time>2008-05-28T10:02:16+02:00</time>
      </trkpt>
      <trkpt lat="41.72399" lon="8.98754">
        <ele>273</ele>
        <time>2008-05-28T10:02:25+02:00</time>
      </trkpt>
      <trkpt lat="41.72388" lon="8.98771">
        <ele>273</ele>
        <time>2008-05-28T10:02:33+02:00</time>
      </trkpt>
      <trkpt lat="41.72377" lon="8.98786">
        <ele>274</ele>
        <time>2008-05-28T10:02:42+02:00</time>
      </trkpt>
      <trkpt lat="41.72364" lon="8.988">
        <ele>275</ele>
        <time>2008-05-28T10:02:50+02:00</time>
      </trkpt>
      <trkpt lat="41.72351" lon="8.98808">
        <ele>274</ele>
        <time>2008-05-28T10:02:57+02:00</time>
      </trkpt>
      <trkpt lat="41.72336" lon="8.98811">
        <ele>274</ele>
        <time>2008-05-28T10:03:04+02:00</time>
      </trkpt>
      <trkpt lat="41.7232" lon="8.98815">
        <ele>267</ele>
        <time>2008-05-28T10:03:13+02:00</time>
      </trkpt>
      <trkpt lat="41.72308" lon="8.9882">
        <ele>267</ele>
        <time>2008-05-28T10:03:20+02:00</time>
      </trkpt>
      <trkpt lat="41.72295" lon="8.98827">
        <ele>266</ele>
        <time>2008-05-28T10:03:27+02:00</time>
      </trkpt>
      <trkpt lat="41.72279" lon="8.98833">
        <ele>266</ele>
        <time>2008-05-28T10:03:34+02:00</time>
      </trkpt>
      <trkpt lat="41.72264" lon="8.98828">
        <ele>267</ele>
        <time>2008-05-28T10:03:40+02:00</time>
      </trkpt>
      <trkpt lat="41.72252" lon="8.98826">
        <ele>268</ele>
        <time>2008-05-28T10:03:45+02:00</time>
      </trkpt>
      <trkpt lat="41.72243" lon="8.98832">
        <ele>265</ele>
        <time>2008-05-28T10:03:49+02:00</time>
      </trkpt>
      <trkpt lat="41.72242" lon="8.98851">
        <ele>264</ele>
        <time>2008-05-28T10:03:54+02:00</time>
      </trkpt>
      <trkpt lat="41.7225" lon="8.98869">
        <ele>263</ele>
        <time>2008-05-28T10:04:01+02:00</time>
      </trkpt>
      <trkpt lat="41.72263" lon="8.98882">
        <ele>276</ele>
        <time>2008-05-28T10:04:07+02:00</time>
      </trkpt>
      <trkpt lat="41.72276" lon="8.98902">
        <ele>278</ele>
        <time>2008-05-28T10:04:13+02:00</time>
      </trkpt>
      <trkpt lat="41.72277" lon="8.9893">
        <ele>281</ele>
        <time>2008-05-28T10:04:17+02:00</time>
      </trkpt>
      <trkpt lat="41.72272" lon="8.9898">
        <ele>281</ele>
        <time>2008-05-28T10:04:23+02:00</time>
      </trkpt>
      <trkpt lat="41.72279" lon="8.99005">
        <ele>277</ele>
        <time>2008-05-28T10:04:27+02:00</time>
      </trkpt>
      <trkpt lat="41.72282" lon="8.99008">
        <ele>277</ele>
        <time>2008-05-28T10:04:28+02:00</time>
      </trkpt>
      <trkpt lat="41.72299" lon="8.99016">
        <ele>280</ele>
        <time>2008-05-28T10:04:35+02:00</time>
      </trkpt>
      <trkpt lat="41.72311" lon="8.99025">
        <ele>282</ele>
        <time>2008-05-28T10:04:42+02:00</time>
      </trkpt>
      <trkpt lat="41.72326" lon="8.99041">
        <ele>281</ele>
        <time>2008-05-28T10:04:51+02:00</time>
      </trkpt>
      <trkpt lat="41.72339" lon="8.99055">
        <ele>300</ele>
        <time>2008-05-28T10:04:59+02:00</time>
      </trkpt>
      <trkpt lat="41.72353" lon="8.99072">
        <ele>298</ele>
        <time>2008-05-28T10:05:09+02:00</time>
      </trkpt>
      <trkpt lat="41.72362" lon="8.99087">
        <ele>292</ele>
        <time>2008-05-28T10:05:17+02:00</time>
      </trkpt>
      <trkpt lat="41.72369" lon="8.99102">
        <ele>294</ele>
        <time>2008-05-28T10:05:25+02:00</time>
      </trkpt>
      <trkpt lat="41.72375" lon="8.99115">
        <ele>295</ele>
        <time>2008-05-28T10:05:32+02:00</time>
      </trkpt>
      <trkpt lat="41.72383" lon="8.99128">
        <ele>296</ele>
        <time>2008-05-28T10:05:40+02:00</time>
      </trkpt>
      <trkpt lat="41.72392" lon="8.99139">
        <ele>297</ele>
        <time>2008-05-28T10:05:47+02:00</time>
      </trkpt>
      <trkpt lat="41.72403" lon="8.99149">
        <ele>298</ele>
        <time>2008-05-28T10:05:54+02:00</time>
      </trkpt>
      <trkpt lat="41.72418" lon="8.99162">
        <ele>306</ele>
        <time>2008-05-28T10:06:03+02:00</time>
      </trkpt>
      <trkpt lat="41.72434" lon="8.99177">
        <ele>308</ele>
        <time>2008-05-28T10:06:13+02:00</time>
      </trkpt>
      <trkpt lat="41.72442" lon="8.99193">
        <ele>311</ele>
        <time>2008-05-28T10:06:21+02:00</time>
      </trkpt>
      <trkpt lat="41.72448" lon="8.99212">
        <ele>311</ele>
        <time>2008-05-28T10:06:30+02:00</time>
      </trkpt>
      <trkpt lat="41.72455" lon="8.9923">
        <ele>311</ele>
        <time>2008-05-28T10:06:39+02:00</time>
      </trkpt>
      <trkpt lat="41.72463" lon="8.9924">
        <ele>312</ele>
        <time>2008-05-28T10:06:45+02:00</time>
      </trkpt>
      <trkpt lat="41.72473" lon="8.9925">
        <ele>315</ele>
        <time>2008-05-28T10:06:52+02:00</time>
      </trkpt>
      <trkpt lat="41.72488" lon="8.99265">
        <ele>315</ele>
        <time>2008-05-28T10:07:02+02:00</time>
      </trkpt>
      <trkpt lat="41.725" lon="8.99277">
        <ele>314</ele>
        <time>2008-05-28T10:07:11+02:00</time>
      </trkpt>
      <trkpt lat="41.72511" lon="8.99289">
        <ele>330</ele>
        <time>2008-05-28T10:07:19+02:00</time>
      </trkpt>
      <trkpt lat="41.72521" lon="8.99301">
        <ele>330</ele>
        <time>2008-05-28T10:07:27+02:00</time>
      </trkpt>
      <trkpt lat="41.72531" lon="8.99316">
        <ele>331</ele>
        <time>2008-05-28T10:07:35+02:00</time>
      </trkpt>
      <trkpt lat="41.72539" lon="8.99327">
        <ele>332</ele>
        <time>2008-05-28T10:07:42+02:00</time>
      </trkpt>
      <trkpt lat="41.72546" lon="8.99338">
        <ele>330</ele>
        <time>2008-05-28T10:07:48+02:00</time>
      </trkpt>
      <trkpt lat="41.72555" lon="8.9935">
        <ele>331</ele>
        <time>2008-05-28T10:07:56+02:00</time>
      </trkpt>
      <trkpt lat="41.72564" lon="8.99364">
        <ele>332</ele>
        <time>2008-05-28T10:08:04+02:00</time>
      </trkpt>
      <trkpt lat="41.72575" lon="8.99375">
        <ele>332</ele>
        <time>2008-05-28T10:08:12+02:00</time>
      </trkpt>
      <trkpt lat="41.72583" lon="8.99383">
        <ele>345</ele>
        <time>2008-05-28T10:08:19+02:00</time>
      </trkpt>
      <trkpt lat="41.72598" lon="8.994">
        <ele>343</ele>
        <time>2008-05-28T10:08:30+02:00</time>
      </trkpt>
      <trkpt lat="41.72608" lon="8.99413">
        <ele>345</ele>
        <time>2008-05-28T10:08:38+02:00</time>
      </trkpt>
      <trkpt lat="41.72614" lon="8.99429">
        <ele>345</ele>
        <time>2008-05-28T10:08:46+02:00</time>
      </trkpt>
      <trkpt lat="41.72616" lon="8.99446">
        <ele>346</ele>
        <time>2008-05-28T10:08:54+02:00</time>
      </trkpt>
      <trkpt lat="41.7262" lon="8.9947">
        <ele>347</ele>
        <time>2008-05-28T10:09:05+02:00</time>
      </trkpt>
      <trkpt lat="41.72622" lon="8.99482">
        <ele>348</ele>
        <time>2008-05-28T10:09:10+02:00</time>
      </trkpt>
      <trkpt lat="41.72628" lon="8.995">
        <ele>353</ele>
        <time>2008-05-28T10:09:19+02:00</time>
      </trkpt>
      <trkpt lat="41.72632" lon="8.99513">
        <ele>353</ele>
        <time>2008-05-28T10:09:25+02:00</time>
      </trkpt>
      <trkpt lat="41.72635" lon="8.99525">
        <ele>354</ele>
        <time>2008-05-28T10:09:30+02:00</time>
      </trkpt>
      <trkpt lat="41.72639" lon="8.99607">
        <ele>364</ele>
        <time>2008-05-28T10:10:16+02:00</time>
      </trkpt>
      <trkpt lat="41.72626" lon="8.99598">
        <ele>364</ele>
        <time>2008-05-28T10:10:23+02:00</time>
      </trkpt>
      <trkpt lat="41.726" lon="8.99578">
        <ele>356</ele>
        <time>2008-05-28T10:10:41+02:00</time>
      </trkpt>
      <trkpt lat="41.72592" lon="8.99577">
        <ele>357</ele>
        <time>2008-05-28T10:10:47+02:00</time>
      </trkpt>
      <trkpt lat="41.7259" lon="8.99578">
        <ele>357</ele>
        <time>2008-05-28T10:10:48+02:00</time>
      </trkpt>
      <trkpt lat="41.72591" lon="8.99586">
        <ele>361</ele>
        <time>2008-05-28T10:10:53+02:00</time>
      </trkpt>
      <trkpt lat="41.726" lon="8.99594">
        <ele>363</ele>
        <time>2008-05-28T10:10:59+02:00</time>
      </trkpt>
      <trkpt lat="41.72612" lon="8.99604">
        <ele>365</ele>
        <time>2008-05-28T10:11:07+02:00</time>
      </trkpt>
      <trkpt lat="41.72622" lon="8.99614">
        <ele>366</ele>
        <time>2008-05-28T10:11:14+02:00</time>
      </trkpt>
      <trkpt lat="41.7263" lon="8.99627">
        <ele>366</ele>
        <time>2008-05-28T10:11:21+02:00</time>
      </trkpt>
      <trkpt lat="41.72637" lon="8.99638">
        <ele>367</ele>
        <time>2008-05-28T10:11:27+02:00</time>
      </trkpt>
      <trkpt lat="41.7265" lon="8.99657">
        <ele>367</ele>
        <time>2008-05-28T10:11:37+02:00</time>
      </trkpt>
      <trkpt lat="41.72658" lon="8.99669">
        <ele>372</ele>
        <time>2008-05-28T10:11:44+02:00</time>
      </trkpt>
      <trkpt lat="41.72671" lon="8.99683">
        <ele>374</ele>
        <time>2008-05-28T10:11:53+02:00</time>
      </trkpt>
      <trkpt lat="41.72683" lon="8.99693">
        <ele>377</ele>
        <time>2008-05-28T10:12:01+02:00</time>
      </trkpt>
      <trkpt lat="41.72693" lon="8.99704">
        <ele>379</ele>
        <time>2008-05-28T10:12:09+02:00</time>
      </trkpt>
      <trkpt lat="41.72705" lon="8.99714">
        <ele>381</ele>
        <time>2008-05-28T10:12:17+02:00</time>
      </trkpt>
      <trkpt lat="41.72716" lon="8.99714">
        <ele>381</ele>
        <time>2008-05-28T10:12:24+02:00</time>
      </trkpt>
      <trkpt lat="41.72721" lon="8.99705">
        <ele>381</ele>
        <time>2008-05-28T10:12:29+02:00</time>
      </trkpt>
      <trkpt lat="41.72723" lon="8.99686">
        <ele>381</ele>
        <time>2008-05-28T10:12:37+02:00</time>
      </trkpt>
      <trkpt lat="41.72724" lon="8.99664">
        <ele>378</ele>
        <time>2008-05-28T10:12:46+02:00</time>
      </trkpt>
      <trkpt lat="41.72724" lon="8.99646">
        <ele>378</ele>
        <time>2008-05-28T10:12:54+02:00</time>
      </trkpt>
      <trkpt lat="41.72724" lon="8.99626">
        <ele>377</ele>
        <time>2008-05-28T10:13:02+02:00</time>
      </trkpt>
      <trkpt lat="41.72723" lon="8.99619">
        <ele>377</ele>
        <time>2008-05-28T10:13:05+02:00</time>
      </trkpt>
      <trkpt lat="41.72723" lon="8.9961">
        <ele>378</ele>
        <time>2008-05-28T10:13:09+02:00</time>
      </trkpt>
      <trkpt lat="41.72722" lon="8.99587">
        <ele>379</ele>
        <time>2008-05-28T10:13:18+02:00</time>
      </trkpt>
      <trkpt lat="41.72721" lon="8.9957">
        <ele>380</ele>
        <time>2008-05-28T10:13:25+02:00</time>
      </trkpt>
      <trkpt lat="41.72719" lon="8.99553">
        <ele>380</ele>
        <time>2008-05-28T10:13:32+02:00</time>
      </trkpt>
      <trkpt lat="41.72717" lon="8.99539">
        <ele>380</ele>
        <time>2008-05-28T10:13:38+02:00</time>
      </trkpt>
      <trkpt lat="41.72704" lon="8.99491">
        <ele>381</ele>
        <time>2008-05-28T10:13:59+02:00</time>
      </trkpt>
      <trkpt lat="41.72701" lon="8.99473">
        <ele>380</ele>
        <time>2008-05-28T10:14:07+02:00</time>
      </trkpt>
      <trkpt lat="41.72705" lon="8.99444">
        <ele>382</ele>
        <time>2008-05-28T10:14:22+02:00</time>
      </trkpt>
      <trkpt lat="41.72706" lon="8.99443">
        <ele>382</ele>
        <time>2008-05-28T10:14:23+02:00</time>
      </trkpt>
      <trkpt lat="41.72712" lon="8.99448">
        <ele>384</ele>
        <time>2008-05-28T10:14:28+02:00</time>
      </trkpt>
      <trkpt lat="41.72716" lon="8.99467">
        <ele>385</ele>
        <time>2008-05-28T10:14:37+02:00</time>
      </trkpt>
      <trkpt lat="41.72721" lon="8.99483">
        <ele>386</ele>
        <time>2008-05-28T10:14:45+02:00</time>
      </trkpt>
      <trkpt lat="41.72728" lon="8.99496">
        <ele>390</ele>
        <time>2008-05-28T10:14:52+02:00</time>
      </trkpt>
      <trkpt lat="41.72738" lon="8.99516">
        <ele>389</ele>
        <time>2008-05-28T10:15:03+02:00</time>
      </trkpt>
      <trkpt lat="41.72743" lon="8.99531">
        <ele>386</ele>
        <time>2008-05-28T10:15:10+02:00</time>
      </trkpt>
      <trkpt lat="41.7275" lon="8.99547">
        <ele>385</ele>
        <time>2008-05-28T10:15:18+02:00</time>
      </trkpt>
      <trkpt lat="41.72755" lon="8.99564">
        <ele>406</ele>
        <time>2008-05-28T10:15:25+02:00</time>
      </trkpt>
      <trkpt lat="41.72761" lon="8.99582">
        <ele>402</ele>
        <time>2008-05-28T10:15:33+02:00</time>
      </trkpt>
      <trkpt lat="41.72767" lon="8.99599">
        <ele>403</ele>
        <time>2008-05-28T10:15:41+02:00</time>
      </trkpt>
      <trkpt lat="41.72772" lon="8.99616">
        <ele>405</ele>
        <time>2008-05-28T10:15:48+02:00</time>
      </trkpt>
      <trkpt lat="41.72777" lon="8.99631">
        <ele>405</ele>
        <time>2008-05-28T10:15:55+02:00</time>
      </trkpt>
      <trkpt lat="41.72784" lon="8.99644">
        <ele>406</ele>
        <time>2008-05-28T10:16:02+02:00</time>
      </trkpt>
      <trkpt lat="41.72789" lon="8.99655">
        <ele>407</ele>
        <time>2008-05-28T10:16:08+02:00</time>
      </trkpt>
      <trkpt lat="41.72792" lon="8.99661">
        <ele>408</ele>
        <time>2008-05-28T10:16:11+02:00</time>
      </trkpt>
      <trkpt lat="41.72797" lon="8.9967">
        <ele>404</ele>
        <time>2008-05-28T10:16:16+02:00</time>
      </trkpt>
      <trkpt lat="41.72804" lon="8.99687">
        <ele>405</ele>
        <time>2008-05-28T10:16:24+02:00</time>
      </trkpt>
      <trkpt lat="41.72813" lon="8.99704">
        <ele>405</ele>
        <time>2008-05-28T10:16:34+02:00</time>
      </trkpt>
      <trkpt lat="41.72821" lon="8.99713">
        <ele>406</ele>
        <time>2008-05-28T10:16:40+02:00</time>
      </trkpt>
      <trkpt lat="41.72828" lon="8.99724">
        <ele>406</ele>
        <time>2008-05-28T10:16:47+02:00</time>
      </trkpt>
      <trkpt lat="41.72835" lon="8.99735">
        <ele>423</ele>
        <time>2008-05-28T10:16:53+02:00</time>
      </trkpt>
      <trkpt lat="41.72836" lon="8.99737">
        <ele>423</ele>
        <time>2008-05-28T10:16:54+02:00</time>
      </trkpt>
      <trkpt lat="41.72848" lon="8.99751">
        <ele>419</ele>
        <time>2008-05-28T10:17:02+02:00</time>
      </trkpt>
      <trkpt lat="41.72854" lon="8.99764">
        <ele>423</ele>
        <time>2008-05-28T10:17:08+02:00</time>
      </trkpt>
      <trkpt lat="41.72862" lon="8.99781">
        <ele>426</ele>
        <time>2008-05-28T10:17:16+02:00</time>
      </trkpt>
      <trkpt lat="41.72867" lon="8.99797">
        <ele>427</ele>
        <time>2008-05-28T10:17:23+02:00</time>
      </trkpt>
      <trkpt lat="41.72872" lon="8.99811">
        <ele>427</ele>
        <time>2008-05-28T10:17:30+02:00</time>
      </trkpt>
      <trkpt lat="41.72878" lon="8.99822">
        <ele>428</ele>
        <time>2008-05-28T10:17:36+02:00</time>
      </trkpt>
      <trkpt lat="41.72881" lon="8.99834">
        <ele>425</ele>
        <time>2008-05-28T10:17:41+02:00</time>
      </trkpt>
      <trkpt lat="41.72885" lon="8.99846">
        <ele>426</ele>
        <time>2008-05-28T10:17:46+02:00</time>
      </trkpt>
      <trkpt lat="41.72892" lon="8.99866">
        <ele>425</ele>
        <time>2008-05-28T10:17:55+02:00</time>
      </trkpt>
      <trkpt lat="41.72899" lon="8.99882">
        <ele>425</ele>
        <time>2008-05-28T10:18:03+02:00</time>
      </trkpt>
      <trkpt lat="41.72907" lon="8.99896">
        <ele>425</ele>
        <time>2008-05-28T10:18:10+02:00</time>
      </trkpt>
      <trkpt lat="41.72918" lon="8.99913">
        <ele>429</ele>
        <time>2008-05-28T10:18:19+02:00</time>
      </trkpt>
      <trkpt lat="41.72922" lon="8.99922">
        <ele>429</ele>
        <time>2008-05-28T10:18:24+02:00</time>
      </trkpt>
      <trkpt lat="41.72933" lon="8.99931">
        <ele>434</ele>
        <time>2008-05-28T10:18:31+02:00</time>
      </trkpt>
      <trkpt lat="41.72944" lon="8.99947">
        <ele>438</ele>
        <time>2008-05-28T10:18:39+02:00</time>
      </trkpt>
      <trkpt lat="41.72955" lon="8.9996">
        <ele>440</ele>
        <time>2008-05-28T10:18:46+02:00</time>
      </trkpt>
      <trkpt lat="41.72965" lon="8.99977">
        <ele>440</ele>
        <time>2008-05-28T10:18:55+02:00</time>
      </trkpt>
      <trkpt lat="41.72969" lon="8.99995">
        <ele>441</ele>
        <time>2008-05-28T10:19:03+02:00</time>
      </trkpt>
      <trkpt lat="41.72971" lon="9.00014">
        <ele>435</ele>
        <time>2008-05-28T10:19:11+02:00</time>
      </trkpt>
      <trkpt lat="41.72978" lon="9.00033">
        <ele>434</ele>
        <time>2008-05-28T10:19:20+02:00</time>
      </trkpt>
      <trkpt lat="41.72983" lon="9.00042">
        <ele>433</ele>
        <time>2008-05-28T10:19:25+02:00</time>
      </trkpt>
      <trkpt lat="41.72991" lon="9.00052">
        <ele>433</ele>
        <time>2008-05-28T10:19:31+02:00</time>
      </trkpt>
      <trkpt lat="41.73004" lon="9.00065">
        <ele>444</ele>
        <time>2008-05-28T10:19:39+02:00</time>
      </trkpt>
      <trkpt lat="41.73016" lon="9.00077">
        <ele>444</ele>
        <time>2008-05-28T10:19:46+02:00</time>
      </trkpt>
      <trkpt lat="41.7303" lon="9.00088">
        <ele>440</ele>
        <time>2008-05-28T10:19:52+02:00</time>
      </trkpt>
      <trkpt lat="41.73048" lon="9.001">
        <ele>443</ele>
        <time>2008-05-28T10:19:59+02:00</time>
      </trkpt>
      <trkpt lat="41.73068" lon="9.00113">
        <ele>445</ele>
        <time>2008-05-28T10:20:06+02:00</time>
      </trkpt>
      <trkpt lat="41.7309" lon="9.00125">
        <ele>454</ele>
        <time>2008-05-28T10:20:13+02:00</time>
      </trkpt>
      <trkpt lat="41.73111" lon="9.00134">
        <ele>454</ele>
        <time>2008-05-28T10:20:20+02:00</time>
      </trkpt>
      <trkpt lat="41.73165" lon="9.00139">
        <ele>457</ele>
        <time>2008-05-28T10:20:39+02:00</time>
      </trkpt>
      <trkpt lat="41.73171" lon="9.00143">
        <ele>467</ele>
        <time>2008-05-28T10:20:42+02:00</time>
      </trkpt>
      <trkpt lat="41.73165" lon="9.00178">
        <ele>456</ele>
        <time>2008-05-28T10:20:53+02:00</time>
      </trkpt>
      <trkpt lat="41.73164" lon="9.0018">
        <ele>457</ele>
        <time>2008-05-28T10:20:54+02:00</time>
      </trkpt>
      <trkpt lat="41.73149" lon="9.00197">
        <ele>457</ele>
        <time>2008-05-28T10:21:03+02:00</time>
      </trkpt>
      <trkpt lat="41.7313" lon="9.00211">
        <ele>458</ele>
        <time>2008-05-28T10:21:13+02:00</time>
      </trkpt>
      <trkpt lat="41.73115" lon="9.00223">
        <ele>458</ele>
        <time>2008-05-28T10:21:22+02:00</time>
      </trkpt>
      <trkpt lat="41.73099" lon="9.00232">
        <ele>459</ele>
        <time>2008-05-28T10:21:32+02:00</time>
      </trkpt>
      <trkpt lat="41.73083" lon="9.00233">
        <ele>455</ele>
        <time>2008-05-28T10:21:40+02:00</time>
      </trkpt>
      <trkpt lat="41.73072" lon="9.00233">
        <ele>454</ele>
        <time>2008-05-28T10:21:46+02:00</time>
      </trkpt>
      <trkpt lat="41.73062" lon="9.00239">
        <ele>453</ele>
        <time>2008-05-28T10:21:53+02:00</time>
      </trkpt>
      <trkpt lat="41.73048" lon="9.00249">
        <ele>452</ele>
        <time>2008-05-28T10:22:02+02:00</time>
      </trkpt>
      <trkpt lat="41.73034" lon="9.00253">
        <ele>468</ele>
        <time>2008-05-28T10:22:10+02:00</time>
      </trkpt>
      <trkpt lat="41.73023" lon="9.00251">
        <ele>466</ele>
        <time>2008-05-28T10:22:17+02:00</time>
      </trkpt>
      <trkpt lat="41.73018" lon="9.00248">
        <ele>453</ele>
        <time>2008-05-28T10:22:20+02:00</time>
      </trkpt>
      <trkpt lat="41.73006" lon="9.00246">
        <ele>454</ele>
        <time>2008-05-28T10:22:27+02:00</time>
      </trkpt>
      <trkpt lat="41.73005" lon="9.00246">
        <ele>455</ele>
        <time>2008-05-28T10:22:28+02:00</time>
      </trkpt>
      <trkpt lat="41.72999" lon="9.00248">
        <ele>456</ele>
        <time>2008-05-28T10:22:31+02:00</time>
      </trkpt>
      <trkpt lat="41.72983" lon="9.00253">
        <ele>462</ele>
        <time>2008-05-28T10:22:38+02:00</time>
      </trkpt>
      <trkpt lat="41.72965" lon="9.00257">
        <ele>464</ele>
        <time>2008-05-28T10:22:48+02:00</time>
      </trkpt>
      <trkpt lat="41.72953" lon="9.00259">
        <ele>464</ele>
        <time>2008-05-28T10:22:55+02:00</time>
      </trkpt>
      <trkpt lat="41.72943" lon="9.00263">
        <ele>464</ele>
        <time>2008-05-28T10:23:01+02:00</time>
      </trkpt>
      <trkpt lat="41.72926" lon="9.00269">
        <ele>463</ele>
        <time>2008-05-28T10:23:11+02:00</time>
      </trkpt>
      <trkpt lat="41.72915" lon="9.00268">
        <ele>459</ele>
        <time>2008-05-28T10:23:17+02:00</time>
      </trkpt>
      <trkpt lat="41.72905" lon="9.00266">
        <ele>458</ele>
        <time>2008-05-28T10:23:23+02:00</time>
      </trkpt>
      <trkpt lat="41.72894" lon="9.0026">
        <ele>458</ele>
        <time>2008-05-28T10:23:29+02:00</time>
      </trkpt>
      <trkpt lat="41.72886" lon="9.00257">
        <ele>457</ele>
        <time>2008-05-28T10:23:34+02:00</time>
      </trkpt>
      <trkpt lat="41.72872" lon="9.00253">
        <ele>456</ele>
        <time>2008-05-28T10:23:43+02:00</time>
      </trkpt>
      <trkpt lat="41.72867" lon="9.00255">
        <ele>456</ele>
        <time>2008-05-28T10:23:47+02:00</time>
      </trkpt>
      <trkpt lat="41.72868" lon="9.00268">
        <ele>456</ele>
        <time>2008-05-28T10:23:54+02:00</time>
      </trkpt>
      <trkpt lat="41.7287" lon="9.00278">
        <ele>457</ele>
        <time>2008-05-28T10:24:01+02:00</time>
      </trkpt>
      <trkpt lat="41.7287" lon="9.0028">
        <ele>457</ele>
        <time>2008-05-28T10:24:03+02:00</time>
      </trkpt>
      <trkpt lat="41.72872" lon="9.00293">
        <ele>458</ele>
        <time>2008-05-28T10:24:11+02:00</time>
      </trkpt>
      <trkpt lat="41.72873" lon="9.00301">
        <ele>458</ele>
        <time>2008-05-28T10:24:17+02:00</time>
      </trkpt>
      <trkpt lat="41.72873" lon="9.00303">
        <ele>458</ele>
        <time>2008-05-28T10:24:18+02:00</time>
      </trkpt>
      <trkpt lat="41.72872" lon="9.00307">
        <ele>458</ele>
        <time>2008-05-28T10:24:24+02:00</time>
      </trkpt>
      <trkpt lat="41.72871" lon="9.00314">
        <ele>458</ele>
        <time>2008-05-28T10:24:31+02:00</time>
      </trkpt>
      <trkpt lat="41.72873" lon="9.00318">
        <ele>459</ele>
        <time>2008-05-28T10:24:37+02:00</time>
      </trkpt>
      <trkpt lat="41.72873" lon="9.00322">
        <ele>459</ele>
        <time>2008-05-28T10:24:43+02:00</time>
      </trkpt>
      <trkpt lat="41.72878" lon="9.00329">
        <ele>460</ele>
        <time>2008-05-28T10:24:50+02:00</time>
      </trkpt>
      <trkpt lat="41.7288" lon="9.00331">
        <ele>460</ele>
        <time>2008-05-28T10:24:53+02:00</time>
      </trkpt>
      <trkpt lat="41.72889" lon="9.0033">
        <ele>462</ele>
        <time>2008-05-28T10:24:58+02:00</time>
      </trkpt>
      <trkpt lat="41.72899" lon="9.00328">
        <ele>464</ele>
        <time>2008-05-28T10:25:04+02:00</time>
      </trkpt>
      <trkpt lat="41.729" lon="9.00329">
        <ele>465</ele>
        <time>2008-05-28T10:25:11+02:00</time>
      </trkpt>
      <trkpt lat="41.729" lon="9.00329">
        <ele>465</ele>
        <time>2008-05-28T10:25:25+02:00</time>
      </trkpt>
      <trkpt lat="41.729" lon="9.00329">
        <ele>465</ele>
        <time>2008-05-28T10:25:34+02:00</time>
      </trkpt>
      <trkpt lat="41.729" lon="9.00329">
        <ele>465</ele>
        <time>2008-05-28T10:25:37+02:00</time>
      </trkpt>
      <trkpt lat="41.729" lon="9.00329">
        <ele>465</ele>
        <time>2008-05-28T10:25:38+02:00</time>
      </trkpt>
      <trkpt lat="41.72902" lon="9.00328">
        <ele>465</ele>
        <time>2008-05-28T10:25:40+02:00</time>
      </trkpt>
      <trkpt lat="41.72919" lon="9.00319">
        <ele>470</ele>
        <time>2008-05-28T10:25:47+02:00</time>
      </trkpt>
      <trkpt lat="41.72922" lon="9.00317">
        <ele>470</ele>
        <time>2008-05-28T10:25:48+02:00</time>
      </trkpt>
      <trkpt lat="41.72946" lon="9.0032">
        <ele>470</ele>
        <time>2008-05-28T10:25:55+02:00</time>
      </trkpt>
      <trkpt lat="41.72969" lon="9.00327">
        <ele>473</ele>
        <time>2008-05-28T10:26:03+02:00</time>
      </trkpt>
      <trkpt lat="41.72987" lon="9.00327">
        <ele>477</ele>
        <time>2008-05-28T10:26:10+02:00</time>
      </trkpt>
      <trkpt lat="41.73" lon="9.00324">
        <ele>479</ele>
        <time>2008-05-28T10:26:16+02:00</time>
      </trkpt>
      <trkpt lat="41.73012" lon="9.00322">
        <ele>479</ele>
        <time>2008-05-28T10:26:22+02:00</time>
      </trkpt>
      <trkpt lat="41.73031" lon="9.00321">
        <ele>478</ele>
        <time>2008-05-28T10:26:31+02:00</time>
      </trkpt>
      <trkpt lat="41.73042" lon="9.00321">
        <ele>479</ele>
        <time>2008-05-28T10:26:36+02:00</time>
      </trkpt>
      <trkpt lat="41.7306" lon="9.00323">
        <ele>481</ele>
        <time>2008-05-28T10:26:44+02:00</time>
      </trkpt>
      <trkpt lat="41.73075" lon="9.00324">
        <ele>485</ele>
        <time>2008-05-28T10:26:51+02:00</time>
      </trkpt>
      <trkpt lat="41.7309" lon="9.00332">
        <ele>490</ele>
        <time>2008-05-28T10:26:59+02:00</time>
      </trkpt>
      <trkpt lat="41.73104" lon="9.00338">
        <ele>499</ele>
        <time>2008-05-28T10:27:06+02:00</time>
      </trkpt>
      <trkpt lat="41.73121" lon="9.00354">
        <ele>502</ele>
        <time>2008-05-28T10:27:15+02:00</time>
      </trkpt>
      <trkpt lat="41.73134" lon="9.00372">
        <ele>504</ele>
        <time>2008-05-28T10:27:22+02:00</time>
      </trkpt>
      <trkpt lat="41.7315" lon="9.00385">
        <ele>505</ele>
        <time>2008-05-28T10:27:29+02:00</time>
      </trkpt>
      <trkpt lat="41.73167" lon="9.00393">
        <ele>511</ele>
        <time>2008-05-28T10:27:36+02:00</time>
      </trkpt>
      <trkpt lat="41.73168" lon="9.00406">
        <ele>511</ele>
        <time>2008-05-28T10:27:41+02:00</time>
      </trkpt>
      <trkpt lat="41.73163" lon="9.00408">
        <ele>509</ele>
        <time>2008-05-28T10:27:43+02:00</time>
      </trkpt>
      <trkpt lat="41.73144" lon="9.00399">
        <ele>507</ele>
        <time>2008-05-28T10:27:51+02:00</time>
      </trkpt>
      <trkpt lat="41.73128" lon="9.00388">
        <ele>506</ele>
        <time>2008-05-28T10:27:58+02:00</time>
      </trkpt>
      <trkpt lat="41.7311" lon="9.00368">
        <ele>504</ele>
        <time>2008-05-28T10:28:07+02:00</time>
      </trkpt>
      <trkpt lat="41.73098" lon="9.00362">
        <ele>503</ele>
        <time>2008-05-28T10:28:11+02:00</time>
      </trkpt>
      <trkpt lat="41.7308" lon="9.00358">
        <ele>498</ele>
        <time>2008-05-28T10:28:18+02:00</time>
      </trkpt>
      <trkpt lat="41.73065" lon="9.00356">
        <ele>497</ele>
        <time>2008-05-28T10:28:24+02:00</time>
      </trkpt>
      <trkpt lat="41.73047" lon="9.00358">
        <ele>496</ele>
        <time>2008-05-28T10:28:32+02:00</time>
      </trkpt>
      <trkpt lat="41.73034" lon="9.00363">
        <ele>495</ele>
        <time>2008-05-28T10:28:39+02:00</time>
      </trkpt>
      <trkpt lat="41.73028" lon="9.00374">
        <ele>496</ele>
        <time>2008-05-28T10:28:44+02:00</time>
      </trkpt>
      <trkpt lat="41.73029" lon="9.00393">
        <ele>497</ele>
        <time>2008-05-28T10:28:51+02:00</time>
      </trkpt>
      <trkpt lat="41.73028" lon="9.00408">
        <ele>498</ele>
        <time>2008-05-28T10:28:57+02:00</time>
      </trkpt>
      <trkpt lat="41.73029" lon="9.00416">
        <ele>498</ele>
        <time>2008-05-28T10:29:00+02:00</time>
      </trkpt>
      <trkpt lat="41.7303" lon="9.00429">
        <ele>505</ele>
        <time>2008-05-28T10:29:05+02:00</time>
      </trkpt>
      <trkpt lat="41.73038" lon="9.00449">
        <ele>507</ele>
        <time>2008-05-28T10:29:13+02:00</time>
      </trkpt>
      <trkpt lat="41.73045" lon="9.00464">
        <ele>509</ele>
        <time>2008-05-28T10:29:20+02:00</time>
      </trkpt>
      <trkpt lat="41.73054" lon="9.00479">
        <ele>512</ele>
        <time>2008-05-28T10:29:27+02:00</time>
      </trkpt>
      <trkpt lat="41.73062" lon="9.00493">
        <ele>515</ele>
        <time>2008-05-28T10:29:33+02:00</time>
      </trkpt>
      <trkpt lat="41.73076" lon="9.00517">
        <ele>520</ele>
        <time>2008-05-28T10:29:42+02:00</time>
      </trkpt>
      <trkpt lat="41.73087" lon="9.00541">
        <ele>528</ele>
        <time>2008-05-28T10:29:50+02:00</time>
      </trkpt>
      <trkpt lat="41.73092" lon="9.0056">
        <ele>528</ele>
        <time>2008-05-28T10:29:56+02:00</time>
      </trkpt>
      <trkpt lat="41.73097" lon="9.00586">
        <ele>526</ele>
        <time>2008-05-28T10:30:04+02:00</time>
      </trkpt>
      <trkpt lat="41.731" lon="9.00646">
        <ele>524</ele>
        <time>2008-05-28T10:30:47+02:00</time>
      </trkpt>
      <trkpt lat="41.73099" lon="9.00647">
        <ele>523</ele>
        <time>2008-05-28T10:30:48+02:00</time>
      </trkpt>
      <trkpt lat="41.73089" lon="9.00657">
        <ele>522</ele>
        <time>2008-05-28T10:31:03+02:00</time>
      </trkpt>
      <trkpt lat="41.73087" lon="9.00664">
        <ele>522</ele>
        <time>2008-05-28T10:31:09+02:00</time>
      </trkpt>
      <trkpt lat="41.73086" lon="9.00666">
        <ele>521</ele>
        <time>2008-05-28T10:31:11+02:00</time>
      </trkpt>
      <trkpt lat="41.73081" lon="9.00669">
        <ele>519</ele>
        <time>2008-05-28T10:31:17+02:00</time>
      </trkpt>
      <trkpt lat="41.73075" lon="9.0067">
        <ele>517</ele>
        <time>2008-05-28T10:31:24+02:00</time>
      </trkpt>
      <trkpt lat="41.73071" lon="9.00672">
        <ele>515</ele>
        <time>2008-05-28T10:31:29+02:00</time>
      </trkpt>
      <trkpt lat="41.73067" lon="9.00673">
        <ele>514</ele>
        <time>2008-05-28T10:31:34+02:00</time>
      </trkpt>
      <trkpt lat="41.73066" lon="9.00674">
        <ele>514</ele>
        <time>2008-05-28T10:31:39+02:00</time>
      </trkpt>
      <trkpt lat="41.73066" lon="9.00673">
        <ele>514</ele>
        <time>2008-05-28T10:31:55+02:00</time>
      </trkpt>
      <trkpt lat="41.73065" lon="9.00668">
        <ele>514</ele>
        <time>2008-05-28T10:32:27+02:00</time>
      </trkpt>
      <trkpt lat="41.73064" lon="9.00663">
        <ele>517</ele>
        <time>2008-05-28T10:32:33+02:00</time>
      </trkpt>
      <trkpt lat="41.73064" lon="9.00661">
        <ele>517</ele>
        <time>2008-05-28T10:32:40+02:00</time>
      </trkpt>
      <trkpt lat="41.73062" lon="9.00659">
        <ele>516</ele>
        <time>2008-05-28T10:33:00+02:00</time>
      </trkpt>
      <trkpt lat="41.73057" lon="9.00657">
        <ele>515</ele>
        <time>2008-05-28T10:33:05+02:00</time>
      </trkpt>
      <trkpt lat="41.73053" lon="9.00654">
        <ele>515</ele>
        <time>2008-05-28T10:33:11+02:00</time>
      </trkpt>
      <trkpt lat="41.73053" lon="9.00656">
        <ele>515</ele>
        <time>2008-05-28T10:33:25+02:00</time>
      </trkpt>
      <trkpt lat="41.73054" lon="9.00655">
        <ele>515</ele>
        <time>2008-05-28T10:33:35+02:00</time>
      </trkpt>
      <trkpt lat="41.73053" lon="9.00653">
        <ele>515</ele>
        <time>2008-05-28T10:33:40+02:00</time>
      </trkpt>
      <trkpt lat="41.73053" lon="9.00651">
        <ele>515</ele>
        <time>2008-05-28T10:33:46+02:00</time>
      </trkpt>
      <trkpt lat="41.73053" lon="9.00651">
        <ele>515</ele>
        <time>2008-05-28T10:33:55+02:00</time>
      </trkpt>
      <trkpt lat="41.73052" lon="9.00651">
        <ele>515</ele>
        <time>2008-05-28T10:34:21+02:00</time>
      </trkpt>
      <trkpt lat="41.73052" lon="9.00652">
        <ele>514</ele>
        <time>2008-05-28T10:34:38+02:00</time>
      </trkpt>
      <trkpt lat="41.73051" lon="9.00651">
        <ele>514</ele>
        <time>2008-05-28T10:34:50+02:00</time>
      </trkpt>
      <trkpt lat="41.73051" lon="9.0065">
        <ele>514</ele>
        <time>2008-05-28T10:35:04+02:00</time>
      </trkpt>
      <trkpt lat="41.73051" lon="9.0065">
        <ele>514</ele>
        <time>2008-05-28T10:35:10+02:00</time>
      </trkpt>
      <trkpt lat="41.73052" lon="9.00651">
        <ele>514</ele>
        <time>2008-05-28T10:35:19+02:00</time>
      </trkpt>
      <trkpt lat="41.73051" lon="9.00651">
        <ele>514</ele>
        <time>2008-05-28T10:35:33+02:00</time>
      </trkpt>
      <trkpt lat="41.73052" lon="9.00652">
        <ele>514</ele>
        <time>2008-05-28T10:35:40+02:00</time>
      </trkpt>
      <trkpt lat="41.73052" lon="9.00654">
        <ele>515</ele>
        <time>2008-05-28T10:35:45+02:00</time>
      </trkpt>
      <trkpt lat="41.7305" lon="9.00652">
        <ele>514</ele>
        <time>2008-05-28T10:35:50+02:00</time>
      </trkpt>
      <trkpt lat="41.73047" lon="9.00655">
        <ele>514</ele>
        <time>2008-05-28T10:35:55+02:00</time>
      </trkpt>
      <trkpt lat="41.73046" lon="9.00656">
        <ele>514</ele>
        <time>2008-05-28T10:36:02+02:00</time>
      </trkpt>
      <trkpt lat="41.73046" lon="9.00658">
        <ele>513</ele>
        <time>2008-05-28T10:36:17+02:00</time>
      </trkpt>
      <trkpt lat="41.73046" lon="9.00657">
        <ele>514</ele>
        <time>2008-05-28T10:36:37+02:00</time>
      </trkpt>
      <trkpt lat="41.73046" lon="9.00657">
        <ele>514</ele>
        <time>2008-05-28T10:36:45+02:00</time>
      </trkpt>
      <trkpt lat="41.73046" lon="9.00655">
        <ele>514</ele>
        <time>2008-05-28T10:37:05+02:00</time>
      </trkpt>
      <trkpt lat="41.73046" lon="9.00655">
        <ele>514</ele>
        <time>2008-05-28T10:37:40+02:00</time>
      </trkpt>
      <trkpt lat="41.73047" lon="9.00654">
        <ele>514</ele>
        <time>2008-05-28T10:37:59+02:00</time>
      </trkpt>
      <trkpt lat="41.73047" lon="9.00654">
        <ele>514</ele>
        <time>2008-05-28T10:38:11+02:00</time>
      </trkpt>
      <trkpt lat="41.73047" lon="9.00654">
        <ele>514</ele>
        <time>2008-05-28T10:38:23+02:00</time>
      </trkpt>
      <trkpt lat="41.73046" lon="9.00654">
        <ele>514</ele>
        <time>2008-05-28T10:38:35+02:00</time>
      </trkpt>
      <trkpt lat="41.73045" lon="9.00656">
        <ele>513</ele>
        <time>2008-05-28T10:38:59+02:00</time>
      </trkpt>
      <trkpt lat="41.73045" lon="9.00655">
        <ele>513</ele>
        <time>2008-05-28T10:39:19+02:00</time>
      </trkpt>
      <trkpt lat="41.73045" lon="9.00655">
        <ele>513</ele>
        <time>2008-05-28T10:39:31+02:00</time>
      </trkpt>
      <trkpt lat="41.73106" lon="9.00635">
        <ele>524</ele>
        <time>2008-05-28T10:48:40+02:00</time>
      </trkpt>
      <trkpt lat="41.73106" lon="9.00635">
        <ele>524</ele>
        <time>2008-05-28T10:48:41+02:00</time>
      </trkpt>
      <trkpt lat="41.73112" lon="9.00636">
        <ele>524</ele>
        <time>2008-05-28T10:52:09+02:00</time>
      </trkpt>
      <trkpt lat="41.73112" lon="9.00636">
        <ele>524</ele>
        <time>2008-05-28T10:52:14+02:00</time>
      </trkpt>
      <trkpt lat="41.73116" lon="9.0063">
        <ele>525</ele>
        <time>2008-05-28T10:52:29+02:00</time>
      </trkpt>
      <trkpt lat="41.73117" lon="9.00629">
        <ele>525</ele>
        <time>2008-05-28T10:52:30+02:00</time>
      </trkpt>
      <trkpt lat="41.73124" lon="9.00636">
        <ele>524</ele>
        <time>2008-05-28T10:52:34+02:00</time>
      </trkpt>
      <trkpt lat="41.73146" lon="9.00642">
        <ele>524</ele>
        <time>2008-05-28T10:52:40+02:00</time>
      </trkpt>
      <trkpt lat="41.73171" lon="9.0064">
        <ele>526</ele>
        <time>2008-05-28T10:52:44+02:00</time>
      </trkpt>
      <trkpt lat="41.73194" lon="9.00652">
        <ele>526</ele>
        <time>2008-05-28T10:52:48+02:00</time>
      </trkpt>
      <trkpt lat="41.73202" lon="9.00662">
        <ele>526</ele>
        <time>2008-05-28T10:52:50+02:00</time>
      </trkpt>
      <trkpt lat="41.73217" lon="9.00682">
        <ele>518</ele>
        <time>2008-05-28T10:52:55+02:00</time>
      </trkpt>
      <trkpt lat="41.7323" lon="9.0069">
        <ele>518</ele>
        <time>2008-05-28T10:52:59+02:00</time>
      </trkpt>
      <trkpt lat="41.73244" lon="9.00691">
        <ele>519</ele>
        <time>2008-05-28T10:53:03+02:00</time>
      </trkpt>
      <trkpt lat="41.73274" lon="9.00681">
        <ele>526</ele>
        <time>2008-05-28T10:53:11+02:00</time>
      </trkpt>
      <trkpt lat="41.73295" lon="9.00681">
        <ele>528</ele>
        <time>2008-05-28T10:53:18+02:00</time>
      </trkpt>
      <trkpt lat="41.73312" lon="9.00685">
        <ele>530</ele>
        <time>2008-05-28T10:53:25+02:00</time>
      </trkpt>
      <trkpt lat="41.73328" lon="9.00695">
        <ele>530</ele>
        <time>2008-05-28T10:53:33+02:00</time>
      </trkpt>
      <trkpt lat="41.73339" lon="9.00706">
        <ele>539</ele>
        <time>2008-05-28T10:53:39+02:00</time>
      </trkpt>
      <trkpt lat="41.73353" lon="9.00718">
        <ele>538</ele>
        <time>2008-05-28T10:53:47+02:00</time>
      </trkpt>
      <trkpt lat="41.73369" lon="9.0073">
        <ele>539</ele>
        <time>2008-05-28T10:53:55+02:00</time>
      </trkpt>
      <trkpt lat="41.73391" lon="9.00744">
        <ele>541</ele>
        <time>2008-05-28T10:54:03+02:00</time>
      </trkpt>
      <trkpt lat="41.73398" lon="9.00756">
        <ele>539</ele>
        <time>2008-05-28T10:54:07+02:00</time>
      </trkpt>
      <trkpt lat="41.73406" lon="9.00783">
        <ele>538</ele>
        <time>2008-05-28T10:54:16+02:00</time>
      </trkpt>
      <trkpt lat="41.73416" lon="9.00811">
        <ele>538</ele>
        <time>2008-05-28T10:54:26+02:00</time>
      </trkpt>
      <trkpt lat="41.73421" lon="9.00829">
        <ele>542</ele>
        <time>2008-05-28T10:54:32+02:00</time>
      </trkpt>
      <trkpt lat="41.73427" lon="9.00845">
        <ele>543</ele>
        <time>2008-05-28T10:54:37+02:00</time>
      </trkpt>
      <trkpt lat="41.73437" lon="9.00864">
        <ele>545</ele>
        <time>2008-05-28T10:54:44+02:00</time>
      </trkpt>
      <trkpt lat="41.73455" lon="9.00885">
        <ele>546</ele>
        <time>2008-05-28T10:54:54+02:00</time>
      </trkpt>
      <trkpt lat="41.73469" lon="9.00896">
        <ele>545</ele>
        <time>2008-05-28T10:55:01+02:00</time>
      </trkpt>
      <trkpt lat="41.73481" lon="9.00907">
        <ele>544</ele>
        <time>2008-05-28T10:55:07+02:00</time>
      </trkpt>
      <trkpt lat="41.73497" lon="9.00918">
        <ele>543</ele>
        <time>2008-05-28T10:55:14+02:00</time>
      </trkpt>
      <trkpt lat="41.73511" lon="9.00929">
        <ele>546</ele>
        <time>2008-05-28T10:55:21+02:00</time>
      </trkpt>
      <trkpt lat="41.73526" lon="9.00939">
        <ele>548</ele>
        <time>2008-05-28T10:55:28+02:00</time>
      </trkpt>
      <trkpt lat="41.73536" lon="9.0095">
        <ele>549</ele>
        <time>2008-05-28T10:55:34+02:00</time>
      </trkpt>
      <trkpt lat="41.73548" lon="9.0096">
        <ele>550</ele>
        <time>2008-05-28T10:55:41+02:00</time>
      </trkpt>
      <trkpt lat="41.73556" lon="9.00971">
        <ele>550</ele>
        <time>2008-05-28T10:55:47+02:00</time>
      </trkpt>
      <trkpt lat="41.73571" lon="9.00985">
        <ele>550</ele>
        <time>2008-05-28T10:55:56+02:00</time>
      </trkpt>
      <trkpt lat="41.73577" lon="9.00991">
        <ele>550</ele>
        <time>2008-05-28T10:56:00+02:00</time>
      </trkpt>
      <trkpt lat="41.73585" lon="9.00997">
        <ele>551</ele>
        <time>2008-05-28T10:56:04+02:00</time>
      </trkpt>
      <trkpt lat="41.73596" lon="9.01009">
        <ele>552</ele>
        <time>2008-05-28T10:56:11+02:00</time>
      </trkpt>
      <trkpt lat="41.73606" lon="9.01021">
        <ele>554</ele>
        <time>2008-05-28T10:56:18+02:00</time>
      </trkpt>
      <trkpt lat="41.73614" lon="9.01032">
        <ele>555</ele>
        <time>2008-05-28T10:56:24+02:00</time>
      </trkpt>
      <trkpt lat="41.73621" lon="9.01045">
        <ele>555</ele>
        <time>2008-05-28T10:56:31+02:00</time>
      </trkpt>
      <trkpt lat="41.73631" lon="9.01054">
        <ele>555</ele>
        <time>2008-05-28T10:56:37+02:00</time>
      </trkpt>
      <trkpt lat="41.73638" lon="9.01063">
        <ele>555</ele>
        <time>2008-05-28T10:56:44+02:00</time>
      </trkpt>
      <trkpt lat="41.73647" lon="9.01064">
        <ele>555</ele>
        <time>2008-05-28T10:56:49+02:00</time>
      </trkpt>
      <trkpt lat="41.73659" lon="9.01062">
        <ele>555</ele>
        <time>2008-05-28T10:56:55+02:00</time>
      </trkpt>
      <trkpt lat="41.73671" lon="9.0106">
        <ele>560</ele>
        <time>2008-05-28T10:57:02+02:00</time>
      </trkpt>
      <trkpt lat="41.73686" lon="9.01059">
        <ele>562</ele>
        <time>2008-05-28T10:57:10+02:00</time>
      </trkpt>
      <trkpt lat="41.73701" lon="9.01057">
        <ele>563</ele>
        <time>2008-05-28T10:57:18+02:00</time>
      </trkpt>
      <trkpt lat="41.73712" lon="9.01058">
        <ele>564</ele>
        <time>2008-05-28T10:57:24+02:00</time>
      </trkpt>
      <trkpt lat="41.73728" lon="9.01063">
        <ele>565</ele>
        <time>2008-05-28T10:57:32+02:00</time>
      </trkpt>
      <trkpt lat="41.73748" lon="9.01077">
        <ele>562</ele>
        <time>2008-05-28T10:57:42+02:00</time>
      </trkpt>
      <trkpt lat="41.73758" lon="9.01086">
        <ele>563</ele>
        <time>2008-05-28T10:57:47+02:00</time>
      </trkpt>
      <trkpt lat="41.73769" lon="9.01101">
        <ele>565</ele>
        <time>2008-05-28T10:57:54+02:00</time>
      </trkpt>
      <trkpt lat="41.73777" lon="9.01118">
        <ele>566</ele>
        <time>2008-05-28T10:58:01+02:00</time>
      </trkpt>
      <trkpt lat="41.7379" lon="9.0114">
        <ele>565</ele>
        <time>2008-05-28T10:58:10+02:00</time>
      </trkpt>
      <trkpt lat="41.73806" lon="9.01159">
        <ele>566</ele>
        <time>2008-05-28T10:58:19+02:00</time>
      </trkpt>
      <trkpt lat="41.73823" lon="9.01172">
        <ele>562</ele>
        <time>2008-05-28T10:58:27+02:00</time>
      </trkpt>
      <trkpt lat="41.73838" lon="9.01182">
        <ele>567</ele>
        <time>2008-05-28T10:58:35+02:00</time>
      </trkpt>
      <trkpt lat="41.73852" lon="9.01188">
        <ele>567</ele>
        <time>2008-05-28T10:58:43+02:00</time>
      </trkpt>
      <trkpt lat="41.73871" lon="9.01193">
        <ele>568</ele>
        <time>2008-05-28T10:58:53+02:00</time>
      </trkpt>
      <trkpt lat="41.73885" lon="9.01195">
        <ele>570</ele>
        <time>2008-05-28T10:59:00+02:00</time>
      </trkpt>
      <trkpt lat="41.73902" lon="9.012">
        <ele>571</ele>
        <time>2008-05-28T10:59:09+02:00</time>
      </trkpt>
      <trkpt lat="41.73916" lon="9.01204">
        <ele>571</ele>
        <time>2008-05-28T10:59:17+02:00</time>
      </trkpt>
      <trkpt lat="41.73933" lon="9.01211">
        <ele>583</ele>
        <time>2008-05-28T10:59:25+02:00</time>
      </trkpt>
      <trkpt lat="41.73948" lon="9.01223">
        <ele>583</ele>
        <time>2008-05-28T10:59:33+02:00</time>
      </trkpt>
      <trkpt lat="41.73962" lon="9.01241">
        <ele>584</ele>
        <time>2008-05-28T10:59:42+02:00</time>
      </trkpt>
      <trkpt lat="41.73976" lon="9.01265">
        <ele>577</ele>
        <time>2008-05-28T10:59:52+02:00</time>
      </trkpt>
      <trkpt lat="41.73987" lon="9.01286">
        <ele>575</ele>
        <time>2008-05-28T11:00:01+02:00</time>
      </trkpt>
      <trkpt lat="41.73998" lon="9.01305">
        <ele>575</ele>
        <time>2008-05-28T11:00:09+02:00</time>
      </trkpt>
      <trkpt lat="41.74009" lon="9.0133">
        <ele>583</ele>
        <time>2008-05-28T11:00:19+02:00</time>
      </trkpt>
      <trkpt lat="41.74018" lon="9.01342">
        <ele>580</ele>
        <time>2008-05-28T11:00:25+02:00</time>
      </trkpt>
      <trkpt lat="41.74033" lon="9.01349">
        <ele>583</ele>
        <time>2008-05-28T11:00:32+02:00</time>
      </trkpt>
      <trkpt lat="41.74047" lon="9.01354">
        <ele>585</ele>
        <time>2008-05-28T11:00:38+02:00</time>
      </trkpt>
      <trkpt lat="41.74064" lon="9.01365">
        <ele>586</ele>
        <time>2008-05-28T11:00:47+02:00</time>
      </trkpt>
      <trkpt lat="41.74083" lon="9.01375">
        <ele>586</ele>
        <time>2008-05-28T11:00:56+02:00</time>
      </trkpt>
      <trkpt lat="41.74097" lon="9.01385">
        <ele>594</ele>
        <time>2008-05-28T11:01:03+02:00</time>
      </trkpt>
      <trkpt lat="41.74111" lon="9.01395">
        <ele>594</ele>
        <time>2008-05-28T11:01:10+02:00</time>
      </trkpt>
      <trkpt lat="41.74123" lon="9.01405">
        <ele>594</ele>
        <time>2008-05-28T11:01:16+02:00</time>
      </trkpt>
      <trkpt lat="41.74139" lon="9.01419">
        <ele>586</ele>
        <time>2008-05-28T11:01:24+02:00</time>
      </trkpt>
      <trkpt lat="41.74149" lon="9.01432">
        <ele>587</ele>
        <time>2008-05-28T11:01:29+02:00</time>
      </trkpt>
      <trkpt lat="41.74163" lon="9.0144">
        <ele>587</ele>
        <time>2008-05-28T11:01:35+02:00</time>
      </trkpt>
      <trkpt lat="41.74175" lon="9.01436">
        <ele>595</ele>
        <time>2008-05-28T11:01:40+02:00</time>
      </trkpt>
      <trkpt lat="41.74192" lon="9.01418">
        <ele>596</ele>
        <time>2008-05-28T11:01:49+02:00</time>
      </trkpt>
      <trkpt lat="41.74203" lon="9.01407">
        <ele>607</ele>
        <time>2008-05-28T11:01:55+02:00</time>
      </trkpt>
      <trkpt lat="41.74214" lon="9.01412">
        <ele>608</ele>
        <time>2008-05-28T11:02:00+02:00</time>
      </trkpt>
      <trkpt lat="41.74221" lon="9.01431">
        <ele>599</ele>
        <time>2008-05-28T11:02:07+02:00</time>
      </trkpt>
      <trkpt lat="41.74228" lon="9.01447">
        <ele>599</ele>
        <time>2008-05-28T11:02:14+02:00</time>
      </trkpt>
      <trkpt lat="41.74233" lon="9.01461">
        <ele>598</ele>
        <time>2008-05-28T11:02:20+02:00</time>
      </trkpt>
      <trkpt lat="41.74239" lon="9.01476">
        <ele>598</ele>
        <time>2008-05-28T11:02:27+02:00</time>
      </trkpt>
      <trkpt lat="41.74255" lon="9.01485">
        <ele>604</ele>
        <time>2008-05-28T11:02:35+02:00</time>
      </trkpt>
      <trkpt lat="41.74272" lon="9.0149">
        <ele>606</ele>
        <time>2008-05-28T11:02:44+02:00</time>
      </trkpt>
      <trkpt lat="41.74286" lon="9.01495">
        <ele>609</ele>
        <time>2008-05-28T11:02:51+02:00</time>
      </trkpt>
      <trkpt lat="41.743" lon="9.01503">
        <ele>605</ele>
        <time>2008-05-28T11:02:58+02:00</time>
      </trkpt>
      <trkpt lat="41.74315" lon="9.01514">
        <ele>607</ele>
        <time>2008-05-28T11:03:05+02:00</time>
      </trkpt>
      <trkpt lat="41.74321" lon="9.01527">
        <ele>606</ele>
        <time>2008-05-28T11:03:10+02:00</time>
      </trkpt>
      <trkpt lat="41.74322" lon="9.01547">
        <ele>606</ele>
        <time>2008-05-28T11:03:16+02:00</time>
      </trkpt>
      <trkpt lat="41.74322" lon="9.01568">
        <ele>607</ele>
        <time>2008-05-28T11:03:22+02:00</time>
      </trkpt>
      <trkpt lat="41.7432" lon="9.01592">
        <ele>605</ele>
        <time>2008-05-28T11:03:29+02:00</time>
      </trkpt>
      <trkpt lat="41.7432" lon="9.01614">
        <ele>602</ele>
        <time>2008-05-28T11:03:35+02:00</time>
      </trkpt>
      <trkpt lat="41.74327" lon="9.01629">
        <ele>601</ele>
        <time>2008-05-28T11:03:41+02:00</time>
      </trkpt>
      <trkpt lat="41.74343" lon="9.01635">
        <ele>610</ele>
        <time>2008-05-28T11:03:48+02:00</time>
      </trkpt>
      <trkpt lat="41.74364" lon="9.01642">
        <ele>611</ele>
        <time>2008-05-28T11:03:57+02:00</time>
      </trkpt>
      <trkpt lat="41.74382" lon="9.01652">
        <ele>613</ele>
        <time>2008-05-28T11:04:05+02:00</time>
      </trkpt>
      <trkpt lat="41.74399" lon="9.01665">
        <ele>614</ele>
        <time>2008-05-28T11:04:14+02:00</time>
      </trkpt>
      <trkpt lat="41.74413" lon="9.01672">
        <ele>613</ele>
        <time>2008-05-28T11:04:21+02:00</time>
      </trkpt>
      <trkpt lat="41.74421" lon="9.01673">
        <ele>617</ele>
        <time>2008-05-28T11:04:25+02:00</time>
      </trkpt>
      <trkpt lat="41.7444" lon="9.0167">
        <ele>620</ele>
        <time>2008-05-28T11:04:33+02:00</time>
      </trkpt>
      <trkpt lat="41.74446" lon="9.01667">
        <ele>621</ele>
        <time>2008-05-28T11:04:36+02:00</time>
      </trkpt>
      <trkpt lat="41.74459" lon="9.01676">
        <ele>623</ele>
        <time>2008-05-28T11:04:42+02:00</time>
      </trkpt>
      <trkpt lat="41.7446" lon="9.01696">
        <ele>622</ele>
        <time>2008-05-28T11:04:48+02:00</time>
      </trkpt>
      <trkpt lat="41.7446" lon="9.01714">
        <ele>621</ele>
        <time>2008-05-28T11:04:54+02:00</time>
      </trkpt>
      <trkpt lat="41.74467" lon="9.0174">
        <ele>622</ele>
        <time>2008-05-28T11:05:03+02:00</time>
      </trkpt>
      <trkpt lat="41.74476" lon="9.01765">
        <ele>616</ele>
        <time>2008-05-28T11:05:12+02:00</time>
      </trkpt>
      <trkpt lat="41.74488" lon="9.01783">
        <ele>615</ele>
        <time>2008-05-28T11:05:20+02:00</time>
      </trkpt>
      <trkpt lat="41.74501" lon="9.01796">
        <ele>629</ele>
        <time>2008-05-28T11:05:27+02:00</time>
      </trkpt>
      <trkpt lat="41.74519" lon="9.0181">
        <ele>629</ele>
        <time>2008-05-28T11:05:36+02:00</time>
      </trkpt>
      <trkpt lat="41.74533" lon="9.01822">
        <ele>630</ele>
        <time>2008-05-28T11:05:43+02:00</time>
      </trkpt>
      <trkpt lat="41.74552" lon="9.01839">
        <ele>624</ele>
        <time>2008-05-28T11:05:53+02:00</time>
      </trkpt>
      <trkpt lat="41.74562" lon="9.01849">
        <ele>626</ele>
        <time>2008-05-28T11:05:59+02:00</time>
      </trkpt>
      <trkpt lat="41.74578" lon="9.01862">
        <ele>626</ele>
        <time>2008-05-28T11:06:07+02:00</time>
      </trkpt>
      <trkpt lat="41.74592" lon="9.01876">
        <ele>638</ele>
        <time>2008-05-28T11:06:15+02:00</time>
      </trkpt>
      <trkpt lat="41.74605" lon="9.0189">
        <ele>636</ele>
        <time>2008-05-28T11:06:23+02:00</time>
      </trkpt>
      <trkpt lat="41.74619" lon="9.01903">
        <ele>637</ele>
        <time>2008-05-28T11:06:31+02:00</time>
      </trkpt>
      <trkpt lat="41.74632" lon="9.01915">
        <ele>639</ele>
        <time>2008-05-28T11:06:38+02:00</time>
      </trkpt>
      <trkpt lat="41.74649" lon="9.0193">
        <ele>632</ele>
        <time>2008-05-28T11:06:46+02:00</time>
      </trkpt>
      <trkpt lat="41.74659" lon="9.01952">
        <ele>629</ele>
        <time>2008-05-28T11:06:54+02:00</time>
      </trkpt>
      <trkpt lat="41.7467" lon="9.01972">
        <ele>636</ele>
        <time>2008-05-28T11:07:03+02:00</time>
      </trkpt>
      <trkpt lat="41.7468" lon="9.01979">
        <ele>636</ele>
        <time>2008-05-28T11:07:08+02:00</time>
      </trkpt>
      <trkpt lat="41.74689" lon="9.01971">
        <ele>638</ele>
        <time>2008-05-28T11:07:13+02:00</time>
      </trkpt>
      <trkpt lat="41.74698" lon="9.01945">
        <ele>641</ele>
        <time>2008-05-28T11:07:22+02:00</time>
      </trkpt>
      <trkpt lat="41.74706" lon="9.01926">
        <ele>642</ele>
        <time>2008-05-28T11:07:29+02:00</time>
      </trkpt>
      <trkpt lat="41.74717" lon="9.01902">
        <ele>652</ele>
        <time>2008-05-28T11:07:38+02:00</time>
      </trkpt>
      <trkpt lat="41.74729" lon="9.01894">
        <ele>653</ele>
        <time>2008-05-28T11:07:44+02:00</time>
      </trkpt>
      <trkpt lat="41.7474" lon="9.01889">
        <ele>653</ele>
        <time>2008-05-28T11:07:49+02:00</time>
      </trkpt>
      <trkpt lat="41.74758" lon="9.01889">
        <ele>654</ele>
        <time>2008-05-28T11:07:57+02:00</time>
      </trkpt>
      <trkpt lat="41.74771" lon="9.01885">
        <ele>655</ele>
        <time>2008-05-28T11:08:03+02:00</time>
      </trkpt>
      <trkpt lat="41.74785" lon="9.0187">
        <ele>656</ele>
        <time>2008-05-28T11:08:10+02:00</time>
      </trkpt>
      <trkpt lat="41.74799" lon="9.01848">
        <ele>657</ele>
        <time>2008-05-28T11:08:18+02:00</time>
      </trkpt>
      <trkpt lat="41.74813" lon="9.01838">
        <ele>657</ele>
        <time>2008-05-28T11:08:25+02:00</time>
      </trkpt>
      <trkpt lat="41.74835" lon="9.01842">
        <ele>660</ele>
        <time>2008-05-28T11:08:35+02:00</time>
      </trkpt>
      <trkpt lat="41.74851" lon="9.01848">
        <ele>661</ele>
        <time>2008-05-28T11:08:42+02:00</time>
      </trkpt>
      <trkpt lat="41.74867" lon="9.0185">
        <ele>663</ele>
        <time>2008-05-28T11:08:47+02:00</time>
      </trkpt>
      <trkpt lat="41.74872" lon="9.01854">
        <ele>663</ele>
        <time>2008-05-28T11:08:49+02:00</time>
      </trkpt>
      <trkpt lat="41.74873" lon="9.01872">
        <ele>663</ele>
        <time>2008-05-28T11:08:54+02:00</time>
      </trkpt>
      <trkpt lat="41.74867" lon="9.0188">
        <ele>663</ele>
        <time>2008-05-28T11:08:57+02:00</time>
      </trkpt>
      <trkpt lat="41.74856" lon="9.01898">
        <ele>662</ele>
        <time>2008-05-28T11:09:04+02:00</time>
      </trkpt>
      <trkpt lat="41.74845" lon="9.01922">
        <ele>658</ele>
        <time>2008-05-28T11:09:13+02:00</time>
      </trkpt>
      <trkpt lat="41.74836" lon="9.01938">
        <ele>658</ele>
        <time>2008-05-28T11:09:19+02:00</time>
      </trkpt>
      <trkpt lat="41.74828" lon="9.01962">
        <ele>651</ele>
        <time>2008-05-28T11:09:27+02:00</time>
      </trkpt>
      <trkpt lat="41.74826" lon="9.01981">
        <ele>651</ele>
        <time>2008-05-28T11:09:33+02:00</time>
      </trkpt>
      <trkpt lat="41.7483" lon="9.02007">
        <ele>649</ele>
        <time>2008-05-28T11:09:41+02:00</time>
      </trkpt>
      <trkpt lat="41.74839" lon="9.02016">
        <ele>651</ele>
        <time>2008-05-28T11:09:46+02:00</time>
      </trkpt>
      <trkpt lat="41.7485" lon="9.02013">
        <ele>651</ele>
        <time>2008-05-28T11:09:51+02:00</time>
      </trkpt>
      <trkpt lat="41.7486" lon="9.01997">
        <ele>658</ele>
        <time>2008-05-28T11:09:57+02:00</time>
      </trkpt>
      <trkpt lat="41.74866" lon="9.0198">
        <ele>659</ele>
        <time>2008-05-28T11:10:03+02:00</time>
      </trkpt>
      <trkpt lat="41.74875" lon="9.01955">
        <ele>661</ele>
        <time>2008-05-28T11:10:11+02:00</time>
      </trkpt>
      <trkpt lat="41.74885" lon="9.01936">
        <ele>662</ele>
        <time>2008-05-28T11:10:18+02:00</time>
      </trkpt>
      <trkpt lat="41.74895" lon="9.01911">
        <ele>666</ele>
        <time>2008-05-28T11:10:26+02:00</time>
      </trkpt>
      <trkpt lat="41.74904" lon="9.01882">
        <ele>666</ele>
        <time>2008-05-28T11:10:35+02:00</time>
      </trkpt>
      <trkpt lat="41.74919" lon="9.0186">
        <ele>674</ele>
        <time>2008-05-28T11:10:43+02:00</time>
      </trkpt>
      <trkpt lat="41.74926" lon="9.01834">
        <ele>672</ele>
        <time>2008-05-28T11:10:50+02:00</time>
      </trkpt>
      <trkpt lat="41.74925" lon="9.018">
        <ele>675</ele>
        <time>2008-05-28T11:10:58+02:00</time>
      </trkpt>
      <trkpt lat="41.74928" lon="9.01776">
        <ele>675</ele>
        <time>2008-05-28T11:11:04+02:00</time>
      </trkpt>
      <trkpt lat="41.74937" lon="9.0175">
        <ele>675</ele>
        <time>2008-05-28T11:11:11+02:00</time>
      </trkpt>
      <trkpt lat="41.7495" lon="9.01721">
        <ele>678</ele>
        <time>2008-05-28T11:11:20+02:00</time>
      </trkpt>
      <trkpt lat="41.74965" lon="9.01712">
        <ele>679</ele>
        <time>2008-05-28T11:11:26+02:00</time>
      </trkpt>
      <trkpt lat="41.74982" lon="9.01718">
        <ele>680</ele>
        <time>2008-05-28T11:11:32+02:00</time>
      </trkpt>
      <trkpt lat="41.74994" lon="9.01718">
        <ele>680</ele>
        <time>2008-05-28T11:11:36+02:00</time>
      </trkpt>
      <trkpt lat="41.75007" lon="9.01704">
        <ele>687</ele>
        <time>2008-05-28T11:11:42+02:00</time>
      </trkpt>
      <trkpt lat="41.75021" lon="9.01698">
        <ele>688</ele>
        <time>2008-05-28T11:11:47+02:00</time>
      </trkpt>
      <trkpt lat="41.75035" lon="9.01692">
        <ele>689</ele>
        <time>2008-05-28T11:11:52+02:00</time>
      </trkpt>
      <trkpt lat="41.75036" lon="9.01675">
        <ele>688</ele>
        <time>2008-05-28T11:11:57+02:00</time>
      </trkpt>
      <trkpt lat="41.75031" lon="9.01649">
        <ele>690</ele>
        <time>2008-05-28T11:12:04+02:00</time>
      </trkpt>
      <trkpt lat="41.7503" lon="9.01624">
        <ele>691</ele>
        <time>2008-05-28T11:12:11+02:00</time>
      </trkpt>
      <trkpt lat="41.75021" lon="9.01606">
        <ele>691</ele>
        <time>2008-05-28T11:12:17+02:00</time>
      </trkpt>
      <trkpt lat="41.7501" lon="9.01596">
        <ele>690</ele>
        <time>2008-05-28T11:12:22+02:00</time>
      </trkpt>
      <trkpt lat="41.74994" lon="9.01576">
        <ele>690</ele>
        <time>2008-05-28T11:12:29+02:00</time>
      </trkpt>
      <trkpt lat="41.74989" lon="9.0155">
        <ele>693</ele>
        <time>2008-05-28T11:12:36+02:00</time>
      </trkpt>
      <trkpt lat="41.74987" lon="9.01531">
        <ele>695</ele>
        <time>2008-05-28T11:12:41+02:00</time>
      </trkpt>
      <trkpt lat="41.74978" lon="9.01518">
        <ele>696</ele>
        <time>2008-05-28T11:12:46+02:00</time>
      </trkpt>
      <trkpt lat="41.74957" lon="9.01513">
        <ele>695</ele>
        <time>2008-05-28T11:12:53+02:00</time>
      </trkpt>
      <trkpt lat="41.74931" lon="9.01506">
        <ele>695</ele>
        <time>2008-05-28T11:13:02+02:00</time>
      </trkpt>
      <trkpt lat="41.74908" lon="9.01512">
        <ele>693</ele>
        <time>2008-05-28T11:13:09+02:00</time>
      </trkpt>
      <trkpt lat="41.74892" lon="9.01507">
        <ele>692</ele>
        <time>2008-05-28T11:13:14+02:00</time>
      </trkpt>
      <trkpt lat="41.74884" lon="9.01488">
        <ele>698</ele>
        <time>2008-05-28T11:13:19+02:00</time>
      </trkpt>
      <trkpt lat="41.74888" lon="9.0147">
        <ele>699</ele>
        <time>2008-05-28T11:13:24+02:00</time>
      </trkpt>
      <trkpt lat="41.74898" lon="9.01462">
        <ele>700</ele>
        <time>2008-05-28T11:13:29+02:00</time>
      </trkpt>
      <trkpt lat="41.74904" lon="9.01459">
        <ele>701</ele>
        <time>2008-05-28T11:13:34+02:00</time>
      </trkpt>
      <trkpt lat="41.74905" lon="9.01457">
        <ele>701</ele>
        <time>2008-05-28T11:13:40+02:00</time>
      </trkpt>
      <trkpt lat="41.74903" lon="9.01457">
        <ele>701</ele>
        <time>2008-05-28T11:14:01+02:00</time>
      </trkpt>
      <trkpt lat="41.74904" lon="9.01457">
        <ele>701</ele>
        <time>2008-05-28T11:14:23+02:00</time>
      </trkpt>
      <trkpt lat="41.74903" lon="9.01457">
        <ele>701</ele>
        <time>2008-05-28T11:14:50+02:00</time>
      </trkpt>
      <trkpt lat="41.74901" lon="9.01452">
        <ele>701</ele>
        <time>2008-05-28T11:15:02+02:00</time>
      </trkpt>
      <trkpt lat="41.74903" lon="9.01454">
        <ele>701</ele>
        <time>2008-05-28T11:15:11+02:00</time>
      </trkpt>
      <trkpt lat="41.74909" lon="9.01458">
        <ele>701</ele>
        <time>2008-05-28T11:15:17+02:00</time>
      </trkpt>
      <trkpt lat="41.74915" lon="9.01463">
        <ele>700</ele>
        <time>2008-05-28T11:15:21+02:00</time>
      </trkpt>
      <trkpt lat="41.74929" lon="9.01477">
        <ele>703</ele>
        <time>2008-05-28T11:15:29+02:00</time>
      </trkpt>
      <trkpt lat="41.74931" lon="9.01479">
        <ele>703</ele>
        <time>2008-05-28T11:15:30+02:00</time>
      </trkpt>
      <trkpt lat="41.74946" lon="9.01484">
        <ele>704</ele>
        <time>2008-05-28T11:15:36+02:00</time>
      </trkpt>
      <trkpt lat="41.74965" lon="9.01483">
        <ele>705</ele>
        <time>2008-05-28T11:15:43+02:00</time>
      </trkpt>
      <trkpt lat="41.74973" lon="9.01482">
        <ele>706</ele>
        <time>2008-05-28T11:15:47+02:00</time>
      </trkpt>
      <trkpt lat="41.74977" lon="9.01481">
        <ele>706</ele>
        <time>2008-05-28T11:15:55+02:00</time>
      </trkpt>
      <trkpt lat="41.74979" lon="9.01482">
        <ele>706</ele>
        <time>2008-05-28T11:16:01+02:00</time>
      </trkpt>
      <trkpt lat="41.74991" lon="9.01483">
        <ele>705</ele>
        <time>2008-05-28T11:16:07+02:00</time>
      </trkpt>
      <trkpt lat="41.75003" lon="9.01491">
        <ele>709</ele>
        <time>2008-05-28T11:16:12+02:00</time>
      </trkpt>
      <trkpt lat="41.75011" lon="9.0151">
        <ele>704</ele>
        <time>2008-05-28T11:16:18+02:00</time>
      </trkpt>
      <trkpt lat="41.75018" lon="9.01536">
        <ele>703</ele>
        <time>2008-05-28T11:16:25+02:00</time>
      </trkpt>
      <trkpt lat="41.7503" lon="9.0155">
        <ele>702</ele>
        <time>2008-05-28T11:16:30+02:00</time>
      </trkpt>
      <trkpt lat="41.75048" lon="9.01557">
        <ele>703</ele>
        <time>2008-05-28T11:16:37+02:00</time>
      </trkpt>
      <trkpt lat="41.75063" lon="9.01563">
        <ele>704</ele>
        <time>2008-05-28T11:16:43+02:00</time>
      </trkpt>
      <trkpt lat="41.75087" lon="9.0157">
        <ele>708</ele>
        <time>2008-05-28T11:16:53+02:00</time>
      </trkpt>
      <trkpt lat="41.75104" lon="9.01569">
        <ele>712</ele>
        <time>2008-05-28T11:17:00+02:00</time>
      </trkpt>
      <trkpt lat="41.75124" lon="9.01559">
        <ele>715</ele>
        <time>2008-05-28T11:17:09+02:00</time>
      </trkpt>
      <trkpt lat="41.75138" lon="9.01549">
        <ele>717</ele>
        <time>2008-05-28T11:17:16+02:00</time>
      </trkpt>
      <trkpt lat="41.75154" lon="9.01543">
        <ele>719</ele>
        <time>2008-05-28T11:17:23+02:00</time>
      </trkpt>
      <trkpt lat="41.75168" lon="9.01548">
        <ele>727</ele>
        <time>2008-05-28T11:17:30+02:00</time>
      </trkpt>
      <trkpt lat="41.75173" lon="9.01561">
        <ele>725</ele>
        <time>2008-05-28T11:17:35+02:00</time>
      </trkpt>
      <trkpt lat="41.75177" lon="9.01582">
        <ele>719</ele>
        <time>2008-05-28T11:17:43+02:00</time>
      </trkpt>
      <trkpt lat="41.75188" lon="9.01593">
        <ele>718</ele>
        <time>2008-05-28T11:17:50+02:00</time>
      </trkpt>
      <trkpt lat="41.75196" lon="9.01598">
        <ele>719</ele>
        <time>2008-05-28T11:17:54+02:00</time>
      </trkpt>
      <trkpt lat="41.75208" lon="9.0161">
        <ele>721</ele>
        <time>2008-05-28T11:18:01+02:00</time>
      </trkpt>
      <trkpt lat="41.75222" lon="9.01619">
        <ele>722</ele>
        <time>2008-05-28T11:18:09+02:00</time>
      </trkpt>
      <trkpt lat="41.7524" lon="9.01627">
        <ele>723</ele>
        <time>2008-05-28T11:18:17+02:00</time>
      </trkpt>
      <trkpt lat="41.75248" lon="9.01642">
        <ele>723</ele>
        <time>2008-05-28T11:18:24+02:00</time>
      </trkpt>
      <trkpt lat="41.75259" lon="9.01656">
        <ele>731</ele>
        <time>2008-05-28T11:18:33+02:00</time>
      </trkpt>
      <trkpt lat="41.7527" lon="9.0166">
        <ele>734</ele>
        <time>2008-05-28T11:18:39+02:00</time>
      </trkpt>
      <trkpt lat="41.75283" lon="9.01663">
        <ele>737</ele>
        <time>2008-05-28T11:18:45+02:00</time>
      </trkpt>
      <trkpt lat="41.75292" lon="9.01672">
        <ele>731</ele>
        <time>2008-05-28T11:18:51+02:00</time>
      </trkpt>
      <trkpt lat="41.75302" lon="9.0169">
        <ele>731</ele>
        <time>2008-05-28T11:18:59+02:00</time>
      </trkpt>
      <trkpt lat="41.75309" lon="9.01712">
        <ele>730</ele>
        <time>2008-05-28T11:19:08+02:00</time>
      </trkpt>
      <trkpt lat="41.75317" lon="9.01721">
        <ele>730</ele>
        <time>2008-05-28T11:19:14+02:00</time>
      </trkpt>
      <trkpt lat="41.75329" lon="9.01727">
        <ele>730</ele>
        <time>2008-05-28T11:19:20+02:00</time>
      </trkpt>
      <trkpt lat="41.75341" lon="9.01733">
        <ele>739</ele>
        <time>2008-05-28T11:19:26+02:00</time>
      </trkpt>
      <trkpt lat="41.75361" lon="9.01745">
        <ele>743</ele>
        <time>2008-05-28T11:19:36+02:00</time>
      </trkpt>
      <trkpt lat="41.75377" lon="9.01758">
        <ele>735</ele>
        <time>2008-05-28T11:19:45+02:00</time>
      </trkpt>
      <trkpt lat="41.75393" lon="9.01769">
        <ele>738</ele>
        <time>2008-05-28T11:19:54+02:00</time>
      </trkpt>
      <trkpt lat="41.75406" lon="9.0178">
        <ele>738</ele>
        <time>2008-05-28T11:20:02+02:00</time>
      </trkpt>
      <trkpt lat="41.75423" lon="9.01791">
        <ele>749</ele>
        <time>2008-05-28T11:20:11+02:00</time>
      </trkpt>
      <trkpt lat="41.75441" lon="9.01798">
        <ele>749</ele>
        <time>2008-05-28T11:20:20+02:00</time>
      </trkpt>
      <trkpt lat="41.75457" lon="9.018">
        <ele>751</ele>
        <time>2008-05-28T11:20:28+02:00</time>
      </trkpt>
      <trkpt lat="41.75472" lon="9.01807">
        <ele>752</ele>
        <time>2008-05-28T11:20:37+02:00</time>
      </trkpt>
      <trkpt lat="41.75485" lon="9.01816">
        <ele>752</ele>
        <time>2008-05-28T11:20:44+02:00</time>
      </trkpt>
      <trkpt lat="41.75501" lon="9.01826">
        <ele>756</ele>
        <time>2008-05-28T11:20:51+02:00</time>
      </trkpt>
      <trkpt lat="41.75515" lon="9.01844">
        <ele>758</ele>
        <time>2008-05-28T11:20:58+02:00</time>
      </trkpt>
      <trkpt lat="41.75519" lon="9.01854">
        <ele>761</ele>
        <time>2008-05-28T11:21:03+02:00</time>
      </trkpt>
      <trkpt lat="41.75516" lon="9.01866">
        <ele>762</ele>
        <time>2008-05-28T11:21:09+02:00</time>
      </trkpt>
      <trkpt lat="41.75508" lon="9.01881">
        <ele>762</ele>
        <time>2008-05-28T11:21:15+02:00</time>
      </trkpt>
      <trkpt lat="41.75491" lon="9.01892">
        <ele>751</ele>
        <time>2008-05-28T11:21:23+02:00</time>
      </trkpt>
      <trkpt lat="41.75476" lon="9.01901">
        <ele>750</ele>
        <time>2008-05-28T11:21:30+02:00</time>
      </trkpt>
      <trkpt lat="41.7546" lon="9.01912">
        <ele>748</ele>
        <time>2008-05-28T11:21:38+02:00</time>
      </trkpt>
      <trkpt lat="41.75451" lon="9.01926">
        <ele>757</ele>
        <time>2008-05-28T11:21:44+02:00</time>
      </trkpt>
      <trkpt lat="41.75443" lon="9.01939">
        <ele>757</ele>
        <time>2008-05-28T11:21:49+02:00</time>
      </trkpt>
      <trkpt lat="41.75428" lon="9.01952">
        <ele>758</ele>
        <time>2008-05-28T11:21:57+02:00</time>
      </trkpt>
      <trkpt lat="41.75413" lon="9.01958">
        <ele>748</ele>
        <time>2008-05-28T11:22:04+02:00</time>
      </trkpt>
      <trkpt lat="41.75394" lon="9.01964">
        <ele>747</ele>
        <time>2008-05-28T11:22:13+02:00</time>
      </trkpt>
      <trkpt lat="41.75379" lon="9.01981">
        <ele>748</ele>
        <time>2008-05-28T11:22:21+02:00</time>
      </trkpt>
      <trkpt lat="41.75362" lon="9.02">
        <ele>747</ele>
        <time>2008-05-28T11:22:30+02:00</time>
      </trkpt>
      <trkpt lat="41.75354" lon="9.02014">
        <ele>753</ele>
        <time>2008-05-28T11:22:36+02:00</time>
      </trkpt>
      <trkpt lat="41.75356" lon="9.02032">
        <ele>755</ele>
        <time>2008-05-28T11:22:42+02:00</time>
      </trkpt>
      <trkpt lat="41.75367" lon="9.02052">
        <ele>756</ele>
        <time>2008-05-28T11:22:50+02:00</time>
      </trkpt>
      <trkpt lat="41.75381" lon="9.02068">
        <ele>759</ele>
        <time>2008-05-28T11:22:58+02:00</time>
      </trkpt>
      <trkpt lat="41.75393" lon="9.02086">
        <ele>765</ele>
        <time>2008-05-28T11:23:06+02:00</time>
      </trkpt>
      <trkpt lat="41.75395" lon="9.02109">
        <ele>765</ele>
        <time>2008-05-28T11:23:14+02:00</time>
      </trkpt>
      <trkpt lat="41.75392" lon="9.02131">
        <ele>765</ele>
        <time>2008-05-28T11:23:21+02:00</time>
      </trkpt>
      <trkpt lat="41.75387" lon="9.02153">
        <ele>766</ele>
        <time>2008-05-28T11:23:29+02:00</time>
      </trkpt>
      <trkpt lat="41.75382" lon="9.0218">
        <ele>770</ele>
        <time>2008-05-28T11:23:38+02:00</time>
      </trkpt>
      <trkpt lat="41.75378" lon="9.02201">
        <ele>769</ele>
        <time>2008-05-28T11:23:45+02:00</time>
      </trkpt>
      <trkpt lat="41.7537" lon="9.02229">
        <ele>769</ele>
        <time>2008-05-28T11:23:55+02:00</time>
      </trkpt>
      <trkpt lat="41.75369" lon="9.02247">
        <ele>769</ele>
        <time>2008-05-28T11:24:01+02:00</time>
      </trkpt>
      <trkpt lat="41.75371" lon="9.02268">
        <ele>768</ele>
        <time>2008-05-28T11:24:08+02:00</time>
      </trkpt>
      <trkpt lat="41.75376" lon="9.02288">
        <ele>767</ele>
        <time>2008-05-28T11:24:15+02:00</time>
      </trkpt>
      <trkpt lat="41.75385" lon="9.02299">
        <ele>767</ele>
        <time>2008-05-28T11:24:21+02:00</time>
      </trkpt>
      <trkpt lat="41.75395" lon="9.02307">
        <ele>767</ele>
        <time>2008-05-28T11:24:27+02:00</time>
      </trkpt>
      <trkpt lat="41.75409" lon="9.02313">
        <ele>768</ele>
        <time>2008-05-28T11:24:34+02:00</time>
      </trkpt>
      <trkpt lat="41.75421" lon="9.02317">
        <ele>776</ele>
        <time>2008-05-28T11:24:40+02:00</time>
      </trkpt>
      <trkpt lat="41.75438" lon="9.02316">
        <ele>780</ele>
        <time>2008-05-28T11:24:47+02:00</time>
      </trkpt>
      <trkpt lat="41.75452" lon="9.02316">
        <ele>782</ele>
        <time>2008-05-28T11:24:53+02:00</time>
      </trkpt>
      <trkpt lat="41.75472" lon="9.02321">
        <ele>783</ele>
        <time>2008-05-28T11:25:02+02:00</time>
      </trkpt>
      <trkpt lat="41.75488" lon="9.02327">
        <ele>782</ele>
        <time>2008-05-28T11:25:09+02:00</time>
      </trkpt>
      <trkpt lat="41.75506" lon="9.02334">
        <ele>774</ele>
        <time>2008-05-28T11:25:17+02:00</time>
      </trkpt>
      <trkpt lat="41.75521" lon="9.02329">
        <ele>786</ele>
        <time>2008-05-28T11:25:24+02:00</time>
      </trkpt>
      <trkpt lat="41.75535" lon="9.02317">
        <ele>789</ele>
        <time>2008-05-28T11:25:31+02:00</time>
      </trkpt>
      <trkpt lat="41.7555" lon="9.02301">
        <ele>792</ele>
        <time>2008-05-28T11:25:40+02:00</time>
      </trkpt>
      <trkpt lat="41.7556" lon="9.02291">
        <ele>794</ele>
        <time>2008-05-28T11:25:48+02:00</time>
      </trkpt>
      <trkpt lat="41.75576" lon="9.02285">
        <ele>796</ele>
        <time>2008-05-28T11:25:55+02:00</time>
      </trkpt>
      <trkpt lat="41.75594" lon="9.02282">
        <ele>794</ele>
        <time>2008-05-28T11:26:03+02:00</time>
      </trkpt>
      <trkpt lat="41.75612" lon="9.0228">
        <ele>792</ele>
        <time>2008-05-28T11:26:11+02:00</time>
      </trkpt>
      <trkpt lat="41.75631" lon="9.02274">
        <ele>792</ele>
        <time>2008-05-28T11:26:19+02:00</time>
      </trkpt>
      <trkpt lat="41.75651" lon="9.02264">
        <ele>795</ele>
        <time>2008-05-28T11:26:28+02:00</time>
      </trkpt>
      <trkpt lat="41.75667" lon="9.02255">
        <ele>802</ele>
        <time>2008-05-28T11:26:36+02:00</time>
      </trkpt>
      <trkpt lat="41.75679" lon="9.02251">
        <ele>794</ele>
        <time>2008-05-28T11:26:43+02:00</time>
      </trkpt>
      <trkpt lat="41.75698" lon="9.02244">
        <ele>809</ele>
        <time>2008-05-28T11:26:52+02:00</time>
      </trkpt>
      <trkpt lat="41.75716" lon="9.02235">
        <ele>808</ele>
        <time>2008-05-28T11:27:00+02:00</time>
      </trkpt>
      <trkpt lat="41.75729" lon="9.02222">
        <ele>809</ele>
        <time>2008-05-28T11:27:07+02:00</time>
      </trkpt>
      <trkpt lat="41.75741" lon="9.02205">
        <ele>813</ele>
        <time>2008-05-28T11:27:15+02:00</time>
      </trkpt>
      <trkpt lat="41.75755" lon="9.02194">
        <ele>813</ele>
        <time>2008-05-28T11:27:22+02:00</time>
      </trkpt>
      <trkpt lat="41.75773" lon="9.0219">
        <ele>813</ele>
        <time>2008-05-28T11:27:30+02:00</time>
      </trkpt>
      <trkpt lat="41.75787" lon="9.02195">
        <ele>812</ele>
        <time>2008-05-28T11:27:37+02:00</time>
      </trkpt>
      <trkpt lat="41.75802" lon="9.022">
        <ele>811</ele>
        <time>2008-05-28T11:27:45+02:00</time>
      </trkpt>
      <trkpt lat="41.75817" lon="9.02202">
        <ele>811</ele>
        <time>2008-05-28T11:27:52+02:00</time>
      </trkpt>
      <trkpt lat="41.7583" lon="9.02198">
        <ele>813</ele>
        <time>2008-05-28T11:27:58+02:00</time>
      </trkpt>
      <trkpt lat="41.75847" lon="9.02192">
        <ele>819</ele>
        <time>2008-05-28T11:28:06+02:00</time>
      </trkpt>
      <trkpt lat="41.7586" lon="9.02191">
        <ele>819</ele>
        <time>2008-05-28T11:28:12+02:00</time>
      </trkpt>
      <trkpt lat="41.75876" lon="9.02194">
        <ele>819</ele>
        <time>2008-05-28T11:28:19+02:00</time>
      </trkpt>
      <trkpt lat="41.75889" lon="9.02198">
        <ele>819</ele>
        <time>2008-05-28T11:28:25+02:00</time>
      </trkpt>
      <trkpt lat="41.75908" lon="9.02202">
        <ele>820</ele>
        <time>2008-05-28T11:28:33+02:00</time>
      </trkpt>
      <trkpt lat="41.75931" lon="9.02214">
        <ele>827</ele>
        <time>2008-05-28T11:28:44+02:00</time>
      </trkpt>
      <trkpt lat="41.75948" lon="9.02224">
        <ele>826</ele>
        <time>2008-05-28T11:28:52+02:00</time>
      </trkpt>
      <trkpt lat="41.75965" lon="9.02233">
        <ele>827</ele>
        <time>2008-05-28T11:29:00+02:00</time>
      </trkpt>
      <trkpt lat="41.75986" lon="9.02247">
        <ele>825</ele>
        <time>2008-05-28T11:29:10+02:00</time>
      </trkpt>
      <trkpt lat="41.76002" lon="9.02254">
        <ele>820</ele>
        <time>2008-05-28T11:29:18+02:00</time>
      </trkpt>
      <trkpt lat="41.76015" lon="9.02261">
        <ele>818</ele>
        <time>2008-05-28T11:29:24+02:00</time>
      </trkpt>
      <trkpt lat="41.76031" lon="9.02272">
        <ele>816</ele>
        <time>2008-05-28T11:29:32+02:00</time>
      </trkpt>
      <trkpt lat="41.76046" lon="9.02283">
        <ele>815</ele>
        <time>2008-05-28T11:29:40+02:00</time>
      </trkpt>
      <trkpt lat="41.76067" lon="9.02287">
        <ele>816</ele>
        <time>2008-05-28T11:29:49+02:00</time>
      </trkpt>
      <trkpt lat="41.76086" lon="9.02282">
        <ele>817</ele>
        <time>2008-05-28T11:29:58+02:00</time>
      </trkpt>
      <trkpt lat="41.761" lon="9.02272">
        <ele>818</ele>
        <time>2008-05-28T11:30:05+02:00</time>
      </trkpt>
      <trkpt lat="41.76116" lon="9.02264">
        <ele>816</ele>
        <time>2008-05-28T11:30:13+02:00</time>
      </trkpt>
      <trkpt lat="41.76126" lon="9.02249">
        <ele>830</ele>
        <time>2008-05-28T11:30:20+02:00</time>
      </trkpt>
      <trkpt lat="41.7613" lon="9.02232">
        <ele>831</ele>
        <time>2008-05-28T11:30:26+02:00</time>
      </trkpt>
      <trkpt lat="41.76131" lon="9.02212">
        <ele>833</ele>
        <time>2008-05-28T11:30:32+02:00</time>
      </trkpt>
      <trkpt lat="41.76136" lon="9.02193">
        <ele>835</ele>
        <time>2008-05-28T11:30:39+02:00</time>
      </trkpt>
      <trkpt lat="41.76143" lon="9.0217">
        <ele>835</ele>
        <time>2008-05-28T11:30:47+02:00</time>
      </trkpt>
      <trkpt lat="41.76147" lon="9.02153">
        <ele>850</ele>
        <time>2008-05-28T11:30:53+02:00</time>
      </trkpt>
      <trkpt lat="41.76153" lon="9.02137">
        <ele>853</ele>
        <time>2008-05-28T11:30:59+02:00</time>
      </trkpt>
      <trkpt lat="41.76162" lon="9.02118">
        <ele>857</ele>
        <time>2008-05-28T11:31:06+02:00</time>
      </trkpt>
      <trkpt lat="41.76171" lon="9.02104">
        <ele>847</ele>
        <time>2008-05-28T11:31:12+02:00</time>
      </trkpt>
      <trkpt lat="41.76186" lon="9.02096">
        <ele>846</ele>
        <time>2008-05-28T11:31:19+02:00</time>
      </trkpt>
      <trkpt lat="41.76199" lon="9.02098">
        <ele>842</ele>
        <time>2008-05-28T11:31:25+02:00</time>
      </trkpt>
      <trkpt lat="41.7621" lon="9.02096">
        <ele>840</ele>
        <time>2008-05-28T11:31:30+02:00</time>
      </trkpt>
      <trkpt lat="41.76225" lon="9.02085">
        <ele>839</ele>
        <time>2008-05-28T11:31:37+02:00</time>
      </trkpt>
      <trkpt lat="41.76239" lon="9.02074">
        <ele>851</ele>
        <time>2008-05-28T11:31:44+02:00</time>
      </trkpt>
      <trkpt lat="41.76251" lon="9.02062">
        <ele>845</ele>
        <time>2008-05-28T11:31:51+02:00</time>
      </trkpt>
      <trkpt lat="41.76259" lon="9.02048">
        <ele>848</ele>
        <time>2008-05-28T11:31:57+02:00</time>
      </trkpt>
      <trkpt lat="41.76266" lon="9.02028">
        <ele>852</ele>
        <time>2008-05-28T11:32:04+02:00</time>
      </trkpt>
      <trkpt lat="41.76278" lon="9.02014">
        <ele>853</ele>
        <time>2008-05-28T11:32:11+02:00</time>
      </trkpt>
      <trkpt lat="41.76294" lon="9.02005">
        <ele>851</ele>
        <time>2008-05-28T11:32:19+02:00</time>
      </trkpt>
      <trkpt lat="41.76307" lon="9.01994">
        <ele>862</ele>
        <time>2008-05-28T11:32:26+02:00</time>
      </trkpt>
      <trkpt lat="41.76322" lon="9.01981">
        <ele>861</ele>
        <time>2008-05-28T11:32:33+02:00</time>
      </trkpt>
      <trkpt lat="41.76336" lon="9.01967">
        <ele>853</ele>
        <time>2008-05-28T11:32:41+02:00</time>
      </trkpt>
      <trkpt lat="41.76343" lon="9.01961">
        <ele>854</ele>
        <time>2008-05-28T11:32:45+02:00</time>
      </trkpt>
      <trkpt lat="41.76352" lon="9.01947">
        <ele>856</ele>
        <time>2008-05-28T11:32:52+02:00</time>
      </trkpt>
      <trkpt lat="41.76357" lon="9.01931">
        <ele>857</ele>
        <time>2008-05-28T11:32:59+02:00</time>
      </trkpt>
      <trkpt lat="41.76357" lon="9.01915">
        <ele>869</ele>
        <time>2008-05-28T11:33:05+02:00</time>
      </trkpt>
      <trkpt lat="41.76355" lon="9.01901">
        <ele>870</ele>
        <time>2008-05-28T11:33:11+02:00</time>
      </trkpt>
      <trkpt lat="41.76354" lon="9.01882">
        <ele>872</ele>
        <time>2008-05-28T11:33:18+02:00</time>
      </trkpt>
      <trkpt lat="41.76357" lon="9.01867">
        <ele>874</ele>
        <time>2008-05-28T11:33:23+02:00</time>
      </trkpt>
      <trkpt lat="41.76365" lon="9.01857">
        <ele>874</ele>
        <time>2008-05-28T11:33:28+02:00</time>
      </trkpt>
      <trkpt lat="41.76377" lon="9.01854">
        <ele>873</ele>
        <time>2008-05-28T11:33:34+02:00</time>
      </trkpt>
      <trkpt lat="41.76387" lon="9.01853">
        <ele>873</ele>
        <time>2008-05-28T11:33:39+02:00</time>
      </trkpt>
      <trkpt lat="41.76396" lon="9.0185">
        <ele>873</ele>
        <time>2008-05-28T11:33:44+02:00</time>
      </trkpt>
      <trkpt lat="41.76409" lon="9.01849">
        <ele>873</ele>
        <time>2008-05-28T11:33:50+02:00</time>
      </trkpt>
      <trkpt lat="41.76426" lon="9.01849">
        <ele>872</ele>
        <time>2008-05-28T11:33:58+02:00</time>
      </trkpt>
      <trkpt lat="41.76441" lon="9.01854">
        <ele>871</ele>
        <time>2008-05-28T11:34:05+02:00</time>
      </trkpt>
      <trkpt lat="41.76451" lon="9.01859">
        <ele>870</ele>
        <time>2008-05-28T11:34:11+02:00</time>
      </trkpt>
      <trkpt lat="41.76463" lon="9.01862">
        <ele>870</ele>
        <time>2008-05-28T11:34:17+02:00</time>
      </trkpt>
      <trkpt lat="41.76476" lon="9.01865">
        <ele>870</ele>
        <time>2008-05-28T11:34:24+02:00</time>
      </trkpt>
      <trkpt lat="41.76488" lon="9.01866">
        <ele>871</ele>
        <time>2008-05-28T11:34:31+02:00</time>
      </trkpt>
      <trkpt lat="41.76499" lon="9.01865">
        <ele>872</ele>
        <time>2008-05-28T11:34:36+02:00</time>
      </trkpt>
      <trkpt lat="41.76514" lon="9.01861">
        <ele>875</ele>
        <time>2008-05-28T11:34:44+02:00</time>
      </trkpt>
      <trkpt lat="41.76523" lon="9.01857">
        <ele>875</ele>
        <time>2008-05-28T11:34:49+02:00</time>
      </trkpt>
      <trkpt lat="41.76533" lon="9.01847">
        <ele>876</ele>
        <time>2008-05-28T11:34:56+02:00</time>
      </trkpt>
      <trkpt lat="41.76543" lon="9.01836">
        <ele>876</ele>
        <time>2008-05-28T11:35:03+02:00</time>
      </trkpt>
      <trkpt lat="41.76556" lon="9.0182">
        <ele>889</ele>
        <time>2008-05-28T11:35:12+02:00</time>
      </trkpt>
      <trkpt lat="41.76566" lon="9.01809">
        <ele>890</ele>
        <time>2008-05-28T11:35:19+02:00</time>
      </trkpt>
      <trkpt lat="41.76571" lon="9.01796">
        <ele>892</ele>
        <time>2008-05-28T11:35:25+02:00</time>
      </trkpt>
      <trkpt lat="41.76575" lon="9.01793">
        <ele>892</ele>
        <time>2008-05-28T11:35:27+02:00</time>
      </trkpt>
      <trkpt lat="41.76587" lon="9.01786">
        <ele>893</ele>
        <time>2008-05-28T11:35:35+02:00</time>
      </trkpt>
      <trkpt lat="41.76598" lon="9.01782">
        <ele>894</ele>
        <time>2008-05-28T11:35:41+02:00</time>
      </trkpt>
      <trkpt lat="41.76632" lon="9.0175">
        <ele>897</ele>
        <time>2008-05-28T11:36:03+02:00</time>
      </trkpt>
      <trkpt lat="41.76638" lon="9.01733">
        <ele>910</ele>
        <time>2008-05-28T11:36:10+02:00</time>
      </trkpt>
      <trkpt lat="41.76656" lon="9.01724">
        <ele>911</ele>
        <time>2008-05-28T11:36:21+02:00</time>
      </trkpt>
      <trkpt lat="41.76658" lon="9.01723">
        <ele>911</ele>
        <time>2008-05-28T11:36:26+02:00</time>
      </trkpt>
      <trkpt lat="41.76657" lon="9.01719">
        <ele>912</ele>
        <time>2008-05-28T11:36:32+02:00</time>
      </trkpt>
      <trkpt lat="41.76657" lon="9.01717">
        <ele>912</ele>
        <time>2008-05-28T11:36:38+02:00</time>
      </trkpt>
      <trkpt lat="41.76658" lon="9.0172">
        <ele>912</ele>
        <time>2008-05-28T11:36:44+02:00</time>
      </trkpt>
      <trkpt lat="41.76656" lon="9.01723">
        <ele>911</ele>
        <time>2008-05-28T11:37:01+02:00</time>
      </trkpt>
      <trkpt lat="41.76658" lon="9.01725">
        <ele>911</ele>
        <time>2008-05-28T11:37:06+02:00</time>
      </trkpt>
      <trkpt lat="41.76659" lon="9.01723">
        <ele>911</ele>
        <time>2008-05-28T11:37:10+02:00</time>
      </trkpt>
      <trkpt lat="41.76659" lon="9.01726">
        <ele>910</ele>
        <time>2008-05-28T11:37:19+02:00</time>
      </trkpt>
      <trkpt lat="41.76659" lon="9.0173">
        <ele>910</ele>
        <time>2008-05-28T11:38:07+02:00</time>
      </trkpt>
      <trkpt lat="41.76662" lon="9.01728">
        <ele>910</ele>
        <time>2008-05-28T11:38:43+02:00</time>
      </trkpt>
      <trkpt lat="41.76658" lon="9.01734">
        <ele>909</ele>
        <time>2008-05-28T11:39:19+02:00</time>
      </trkpt>
      <trkpt lat="41.76657" lon="9.01733">
        <ele>909</ele>
        <time>2008-05-28T11:39:27+02:00</time>
      </trkpt>
      <trkpt lat="41.76657" lon="9.01736">
        <ele>909</ele>
        <time>2008-05-28T11:39:33+02:00</time>
      </trkpt>
      <trkpt lat="41.76663" lon="9.01743">
        <ele>906</ele>
        <time>2008-05-28T11:39:39+02:00</time>
      </trkpt>
      <trkpt lat="41.76671" lon="9.01755">
        <ele>905</ele>
        <time>2008-05-28T11:39:46+02:00</time>
      </trkpt>
      <trkpt lat="41.76678" lon="9.01771">
        <ele>907</ele>
        <time>2008-05-28T11:39:53+02:00</time>
      </trkpt>
      <trkpt lat="41.76683" lon="9.01787">
        <ele>906</ele>
        <time>2008-05-28T11:40:00+02:00</time>
      </trkpt>
      <trkpt lat="41.76684" lon="9.01796">
        <ele>905</ele>
        <time>2008-05-28T11:40:04+02:00</time>
      </trkpt>
      <trkpt lat="41.76685" lon="9.01808">
        <ele>903</ele>
        <time>2008-05-28T11:40:09+02:00</time>
      </trkpt>
      <trkpt lat="41.76693" lon="9.01823">
        <ele>902</ele>
        <time>2008-05-28T11:40:16+02:00</time>
      </trkpt>
      <trkpt lat="41.76701" lon="9.01832">
        <ele>904</ele>
        <time>2008-05-28T11:40:21+02:00</time>
      </trkpt>
      <trkpt lat="41.7671" lon="9.01841">
        <ele>897</ele>
        <time>2008-05-28T11:40:26+02:00</time>
      </trkpt>
      <trkpt lat="41.76722" lon="9.01853">
        <ele>899</ele>
        <time>2008-05-28T11:40:33+02:00</time>
      </trkpt>
      <trkpt lat="41.76735" lon="9.01862">
        <ele>900</ele>
        <time>2008-05-28T11:40:40+02:00</time>
      </trkpt>
      <trkpt lat="41.76748" lon="9.01869">
        <ele>900</ele>
        <time>2008-05-28T11:40:48+02:00</time>
      </trkpt>
      <trkpt lat="41.76765" lon="9.01869">
        <ele>912</ele>
        <time>2008-05-28T11:40:56+02:00</time>
      </trkpt>
      <trkpt lat="41.76772" lon="9.01879">
        <ele>912</ele>
        <time>2008-05-28T11:41:01+02:00</time>
      </trkpt>
      <trkpt lat="41.76776" lon="9.01899">
        <ele>910</ele>
        <time>2008-05-28T11:41:08+02:00</time>
      </trkpt>
      <trkpt lat="41.76777" lon="9.01923">
        <ele>903</ele>
        <time>2008-05-28T11:41:16+02:00</time>
      </trkpt>
      <trkpt lat="41.76771" lon="9.01947">
        <ele>902</ele>
        <time>2008-05-28T11:41:24+02:00</time>
      </trkpt>
      <trkpt lat="41.76765" lon="9.01965">
        <ele>901</ele>
        <time>2008-05-28T11:41:31+02:00</time>
      </trkpt>
      <trkpt lat="41.76769" lon="9.01978">
        <ele>901</ele>
        <time>2008-05-28T11:41:37+02:00</time>
      </trkpt>
      <trkpt lat="41.76781" lon="9.0198">
        <ele>902</ele>
        <time>2008-05-28T11:41:43+02:00</time>
      </trkpt>
      <trkpt lat="41.76796" lon="9.01976">
        <ele>903</ele>
        <time>2008-05-28T11:41:50+02:00</time>
      </trkpt>
      <trkpt lat="41.76814" lon="9.01968">
        <ele>904</ele>
        <time>2008-05-28T11:41:59+02:00</time>
      </trkpt>
      <trkpt lat="41.76831" lon="9.01959">
        <ele>906</ele>
        <time>2008-05-28T11:42:07+02:00</time>
      </trkpt>
      <trkpt lat="41.76844" lon="9.01955">
        <ele>914</ele>
        <time>2008-05-28T11:42:14+02:00</time>
      </trkpt>
      <trkpt lat="41.76859" lon="9.01954">
        <ele>915</ele>
        <time>2008-05-28T11:42:21+02:00</time>
      </trkpt>
      <trkpt lat="41.76876" lon="9.01959">
        <ele>915</ele>
        <time>2008-05-28T11:42:29+02:00</time>
      </trkpt>
      <trkpt lat="41.76886" lon="9.01966">
        <ele>915</ele>
        <time>2008-05-28T11:42:35+02:00</time>
      </trkpt>
      <trkpt lat="41.769" lon="9.01976">
        <ele>915</ele>
        <time>2008-05-28T11:42:43+02:00</time>
      </trkpt>
      <trkpt lat="41.76908" lon="9.01988">
        <ele>915</ele>
        <time>2008-05-28T11:42:50+02:00</time>
      </trkpt>
      <trkpt lat="41.76926" lon="9.02004">
        <ele>916</ele>
        <time>2008-05-28T11:43:00+02:00</time>
      </trkpt>
      <trkpt lat="41.76938" lon="9.02015">
        <ele>916</ele>
        <time>2008-05-28T11:43:07+02:00</time>
      </trkpt>
      <trkpt lat="41.76954" lon="9.02022">
        <ele>917</ele>
        <time>2008-05-28T11:43:15+02:00</time>
      </trkpt>
      <trkpt lat="41.76969" lon="9.02027">
        <ele>918</ele>
        <time>2008-05-28T11:43:22+02:00</time>
      </trkpt>
      <trkpt lat="41.76977" lon="9.0203">
        <ele>919</ele>
        <time>2008-05-28T11:43:26+02:00</time>
      </trkpt>
      <trkpt lat="41.76994" lon="9.02032">
        <ele>920</ele>
        <time>2008-05-28T11:43:34+02:00</time>
      </trkpt>
      <trkpt lat="41.7701" lon="9.02038">
        <ele>930</ele>
        <time>2008-05-28T11:43:42+02:00</time>
      </trkpt>
      <trkpt lat="41.77022" lon="9.02048">
        <ele>931</ele>
        <time>2008-05-28T11:43:49+02:00</time>
      </trkpt>
      <trkpt lat="41.77032" lon="9.02061">
        <ele>931</ele>
        <time>2008-05-28T11:43:56+02:00</time>
      </trkpt>
      <trkpt lat="41.77042" lon="9.02077">
        <ele>932</ele>
        <time>2008-05-28T11:44:04+02:00</time>
      </trkpt>
      <trkpt lat="41.7705" lon="9.02095">
        <ele>931</ele>
        <time>2008-05-28T11:44:12+02:00</time>
      </trkpt>
      <trkpt lat="41.77056" lon="9.02112">
        <ele>932</ele>
        <time>2008-05-28T11:44:19+02:00</time>
      </trkpt>
      <trkpt lat="41.77055" lon="9.02132">
        <ele>932</ele>
        <time>2008-05-28T11:44:27+02:00</time>
      </trkpt>
      <trkpt lat="41.77052" lon="9.02152">
        <ele>932</ele>
        <time>2008-05-28T11:44:35+02:00</time>
      </trkpt>
      <trkpt lat="41.77048" lon="9.02175">
        <ele>935</ele>
        <time>2008-05-28T11:44:44+02:00</time>
      </trkpt>
      <trkpt lat="41.77039" lon="9.02195">
        <ele>934</ele>
        <time>2008-05-28T11:44:53+02:00</time>
      </trkpt>
      <trkpt lat="41.77031" lon="9.0221">
        <ele>935</ele>
        <time>2008-05-28T11:45:00+02:00</time>
      </trkpt>
      <trkpt lat="41.77024" lon="9.02224">
        <ele>934</ele>
        <time>2008-05-28T11:45:06+02:00</time>
      </trkpt>
      <trkpt lat="41.7702" lon="9.0224">
        <ele>934</ele>
        <time>2008-05-28T11:45:12+02:00</time>
      </trkpt>
      <trkpt lat="41.77017" lon="9.02258">
        <ele>941</ele>
        <time>2008-05-28T11:45:18+02:00</time>
      </trkpt>
      <trkpt lat="41.7701" lon="9.0228">
        <ele>945</ele>
        <time>2008-05-28T11:45:26+02:00</time>
      </trkpt>
      <trkpt lat="41.76999" lon="9.02298">
        <ele>934</ele>
        <time>2008-05-28T11:45:34+02:00</time>
      </trkpt>
      <trkpt lat="41.76989" lon="9.02315">
        <ele>937</ele>
        <time>2008-05-28T11:45:41+02:00</time>
      </trkpt>
      <trkpt lat="41.76981" lon="9.02343">
        <ele>946</ele>
        <time>2008-05-28T11:45:51+02:00</time>
      </trkpt>
      <trkpt lat="41.76976" lon="9.02354">
        <ele>946</ele>
        <time>2008-05-28T11:45:56+02:00</time>
      </trkpt>
      <trkpt lat="41.76962" lon="9.02371">
        <ele>946</ele>
        <time>2008-05-28T11:46:04+02:00</time>
      </trkpt>
      <trkpt lat="41.76946" lon="9.02389">
        <ele>946</ele>
        <time>2008-05-28T11:46:13+02:00</time>
      </trkpt>
      <trkpt lat="41.76929" lon="9.02403">
        <ele>945</ele>
        <time>2008-05-28T11:46:22+02:00</time>
      </trkpt>
      <trkpt lat="41.76914" lon="9.0241">
        <ele>941</ele>
        <time>2008-05-28T11:46:30+02:00</time>
      </trkpt>
      <trkpt lat="41.76903" lon="9.02413">
        <ele>938</ele>
        <time>2008-05-28T11:46:36+02:00</time>
      </trkpt>
      <trkpt lat="41.76891" lon="9.02416">
        <ele>934</ele>
        <time>2008-05-28T11:46:43+02:00</time>
      </trkpt>
      <trkpt lat="41.76884" lon="9.02417">
        <ele>942</ele>
        <time>2008-05-28T11:46:47+02:00</time>
      </trkpt>
      <trkpt lat="41.76878" lon="9.02421">
        <ele>941</ele>
        <time>2008-05-28T11:46:52+02:00</time>
      </trkpt>
      <trkpt lat="41.76877" lon="9.02431">
        <ele>942</ele>
        <time>2008-05-28T11:46:58+02:00</time>
      </trkpt>
      <trkpt lat="41.76884" lon="9.02439">
        <ele>943</ele>
        <time>2008-05-28T11:47:04+02:00</time>
      </trkpt>
      <trkpt lat="41.76886" lon="9.02439">
        <ele>943</ele>
        <time>2008-05-28T11:47:05+02:00</time>
      </trkpt>
      <trkpt lat="41.76904" lon="9.02437">
        <ele>945</ele>
        <time>2008-05-28T11:47:14+02:00</time>
      </trkpt>
      <trkpt lat="41.76919" lon="9.02432">
        <ele>954</ele>
        <time>2008-05-28T11:47:22+02:00</time>
      </trkpt>
      <trkpt lat="41.76934" lon="9.02429">
        <ele>957</ele>
        <time>2008-05-28T11:47:30+02:00</time>
      </trkpt>
      <trkpt lat="41.76949" lon="9.02426">
        <ele>960</ele>
        <time>2008-05-28T11:47:37+02:00</time>
      </trkpt>
      <trkpt lat="41.76969" lon="9.02417">
        <ele>951</ele>
        <time>2008-05-28T11:47:47+02:00</time>
      </trkpt>
      <trkpt lat="41.76979" lon="9.02412">
        <ele>954</ele>
        <time>2008-05-28T11:47:52+02:00</time>
      </trkpt>
      <trkpt lat="41.76993" lon="9.02405">
        <ele>956</ele>
        <time>2008-05-28T11:47:59+02:00</time>
      </trkpt>
      <trkpt lat="41.77005" lon="9.02398">
        <ele>966</ele>
        <time>2008-05-28T11:48:06+02:00</time>
      </trkpt>
      <trkpt lat="41.77014" lon="9.02387">
        <ele>967</ele>
        <time>2008-05-28T11:48:12+02:00</time>
      </trkpt>
      <trkpt lat="41.77024" lon="9.02367">
        <ele>966</ele>
        <time>2008-05-28T11:48:21+02:00</time>
      </trkpt>
      <trkpt lat="41.77036" lon="9.02342">
        <ele>965</ele>
        <time>2008-05-28T11:48:32+02:00</time>
      </trkpt>
      <trkpt lat="41.77047" lon="9.02328">
        <ele>956</ele>
        <time>2008-05-28T11:48:39+02:00</time>
      </trkpt>
      <trkpt lat="41.77061" lon="9.02318">
        <ele>959</ele>
        <time>2008-05-28T11:48:46+02:00</time>
      </trkpt>
      <trkpt lat="41.77076" lon="9.02306">
        <ele>959</ele>
        <time>2008-05-28T11:48:54+02:00</time>
      </trkpt>
      <trkpt lat="41.77098" lon="9.02291">
        <ele>970</ele>
        <time>2008-05-28T11:49:05+02:00</time>
      </trkpt>
      <trkpt lat="41.77112" lon="9.02283">
        <ele>970</ele>
        <time>2008-05-28T11:49:12+02:00</time>
      </trkpt>
      <trkpt lat="41.77123" lon="9.02277">
        <ele>971</ele>
        <time>2008-05-28T11:49:18+02:00</time>
      </trkpt>
      <trkpt lat="41.77139" lon="9.02269">
        <ele>971</ele>
        <time>2008-05-28T11:49:26+02:00</time>
      </trkpt>
      <trkpt lat="41.77152" lon="9.02264">
        <ele>971</ele>
        <time>2008-05-28T11:49:33+02:00</time>
      </trkpt>
      <trkpt lat="41.77169" lon="9.02257">
        <ele>975</ele>
        <time>2008-05-28T11:49:42+02:00</time>
      </trkpt>
      <trkpt lat="41.77181" lon="9.02254">
        <ele>978</ele>
        <time>2008-05-28T11:49:48+02:00</time>
      </trkpt>
      <trkpt lat="41.77195" lon="9.02247">
        <ele>972</ele>
        <time>2008-05-28T11:49:56+02:00</time>
      </trkpt>
      <trkpt lat="41.7721" lon="9.0224">
        <ele>973</ele>
        <time>2008-05-28T11:50:04+02:00</time>
      </trkpt>
      <trkpt lat="41.77221" lon="9.02237">
        <ele>975</ele>
        <time>2008-05-28T11:50:10+02:00</time>
      </trkpt>
      <trkpt lat="41.77233" lon="9.02232">
        <ele>976</ele>
        <time>2008-05-28T11:50:16+02:00</time>
      </trkpt>
      <trkpt lat="41.77248" lon="9.02229">
        <ele>977</ele>
        <time>2008-05-28T11:50:24+02:00</time>
      </trkpt>
      <trkpt lat="41.77259" lon="9.02226">
        <ele>985</ele>
        <time>2008-05-28T11:50:30+02:00</time>
      </trkpt>
      <trkpt lat="41.77269" lon="9.02222">
        <ele>986</ele>
        <time>2008-05-28T11:50:35+02:00</time>
      </trkpt>
      <trkpt lat="41.77285" lon="9.02215">
        <ele>986</ele>
        <time>2008-05-28T11:50:43+02:00</time>
      </trkpt>
      <trkpt lat="41.77304" lon="9.02208">
        <ele>988</ele>
        <time>2008-05-28T11:50:52+02:00</time>
      </trkpt>
      <trkpt lat="41.77319" lon="9.02202">
        <ele>988</ele>
        <time>2008-05-28T11:50:59+02:00</time>
      </trkpt>
      <trkpt lat="41.77322" lon="9.02188">
        <ele>988</ele>
        <time>2008-05-28T11:51:04+02:00</time>
      </trkpt>
      <trkpt lat="41.77315" lon="9.02171">
        <ele>988</ele>
        <time>2008-05-28T11:51:10+02:00</time>
      </trkpt>
      <trkpt lat="41.77306" lon="9.02153">
        <ele>983</ele>
        <time>2008-05-28T11:51:17+02:00</time>
      </trkpt>
      <trkpt lat="41.773" lon="9.02136">
        <ele>981</ele>
        <time>2008-05-28T11:51:23+02:00</time>
      </trkpt>
      <trkpt lat="41.77306" lon="9.02122">
        <ele>981</ele>
        <time>2008-05-28T11:51:28+02:00</time>
      </trkpt>
      <trkpt lat="41.77319" lon="9.02119">
        <ele>983</ele>
        <time>2008-05-28T11:51:34+02:00</time>
      </trkpt>
      <trkpt lat="41.77333" lon="9.02118">
        <ele>983</ele>
        <time>2008-05-28T11:51:40+02:00</time>
      </trkpt>
      <trkpt lat="41.77343" lon="9.02116">
        <ele>990</ele>
        <time>2008-05-28T11:51:45+02:00</time>
      </trkpt>
      <trkpt lat="41.77359" lon="9.02108">
        <ele>990</ele>
        <time>2008-05-28T11:51:50+02:00</time>
      </trkpt>
      <trkpt lat="41.77379" lon="9.02102">
        <ele>991</ele>
        <time>2008-05-28T11:51:55+02:00</time>
      </trkpt>
      <trkpt lat="41.77392" lon="9.02103">
        <ele>992</ele>
        <time>2008-05-28T11:52:01+02:00</time>
      </trkpt>
      <trkpt lat="41.77397" lon="9.02109">
        <ele>992</ele>
        <time>2008-05-28T11:52:05+02:00</time>
      </trkpt>
      <trkpt lat="41.77398" lon="9.0212">
        <ele>991</ele>
        <time>2008-05-28T11:52:10+02:00</time>
      </trkpt>
      <trkpt lat="41.77399" lon="9.02124">
        <ele>991</ele>
        <time>2008-05-28T11:52:12+02:00</time>
      </trkpt>
      <trkpt lat="41.77401" lon="9.02144">
        <ele>990</ele>
        <time>2008-05-28T11:52:19+02:00</time>
      </trkpt>
      <trkpt lat="41.77397" lon="9.02165">
        <ele>990</ele>
        <time>2008-05-28T11:52:26+02:00</time>
      </trkpt>
      <trkpt lat="41.77389" lon="9.02178">
        <ele>992</ele>
        <time>2008-05-28T11:52:31+02:00</time>
      </trkpt>
      <trkpt lat="41.77381" lon="9.02192">
        <ele>993</ele>
        <time>2008-05-28T11:52:36+02:00</time>
      </trkpt>
      <trkpt lat="41.77375" lon="9.02204">
        <ele>994</ele>
        <time>2008-05-28T11:52:42+02:00</time>
      </trkpt>
      <trkpt lat="41.77374" lon="9.02206">
        <ele>994</ele>
        <time>2008-05-28T11:52:43+02:00</time>
      </trkpt>
      <trkpt lat="41.77375" lon="9.02206">
        <ele>994</ele>
        <time>2008-05-28T11:52:49+02:00</time>
      </trkpt>
      <trkpt lat="41.77375" lon="9.02206">
        <ele>994</ele>
        <time>2008-05-28T11:52:51+02:00</time>
      </trkpt>
      <trkpt lat="41.77374" lon="9.0222">
        <ele>994</ele>
        <time>2008-05-28T14:08:17+02:00</time>
      </trkpt>
      <trkpt lat="41.77375" lon="9.02219">
        <ele>994</ele>
        <time>2008-05-28T14:08:39+02:00</time>
      </trkpt>
      <trkpt lat="41.77375" lon="9.0222">
        <ele>994</ele>
        <time>2008-05-28T14:08:51+02:00</time>
      </trkpt>
      <trkpt lat="41.77374" lon="9.02223">
        <ele>994</ele>
        <time>2008-05-28T14:08:53+02:00</time>
      </trkpt>
      <trkpt lat="41.77371" lon="9.02228">
        <ele>995</ele>
        <time>2008-05-28T14:08:57+02:00</time>
      </trkpt>
      <trkpt lat="41.77362" lon="9.02237">
        <ele>995</ele>
        <time>2008-05-28T14:09:04+02:00</time>
      </trkpt>
      <trkpt lat="41.7735" lon="9.02251">
        <ele>1003</ele>
        <time>2008-05-28T14:09:11+02:00</time>
      </trkpt>
      <trkpt lat="41.77337" lon="9.02258">
        <ele>1001</ele>
        <time>2008-05-28T14:09:18+02:00</time>
      </trkpt>
      <trkpt lat="41.77322" lon="9.02264">
        <ele>1001</ele>
        <time>2008-05-28T14:09:26+02:00</time>
      </trkpt>
      <trkpt lat="41.7731" lon="9.02271">
        <ele>1002</ele>
        <time>2008-05-28T14:09:32+02:00</time>
      </trkpt>
      <trkpt lat="41.77296" lon="9.02282">
        <ele>1003</ele>
        <time>2008-05-28T14:09:39+02:00</time>
      </trkpt>
      <trkpt lat="41.7728" lon="9.02291">
        <ele>1003</ele>
        <time>2008-05-28T14:09:47+02:00</time>
      </trkpt>
      <trkpt lat="41.7726" lon="9.02303">
        <ele>1004</ele>
        <time>2008-05-28T14:09:57+02:00</time>
      </trkpt>
      <trkpt lat="41.77246" lon="9.0231">
        <ele>998</ele>
        <time>2008-05-28T14:10:04+02:00</time>
      </trkpt>
      <trkpt lat="41.77228" lon="9.02322">
        <ele>998</ele>
        <time>2008-05-28T14:10:12+02:00</time>
      </trkpt>
      <trkpt lat="41.77213" lon="9.02332">
        <ele>996</ele>
        <time>2008-05-28T14:10:19+02:00</time>
      </trkpt>
      <trkpt lat="41.77203" lon="9.02336">
        <ele>1012</ele>
        <time>2008-05-28T14:10:25+02:00</time>
      </trkpt>
      <trkpt lat="41.77188" lon="9.02348">
        <ele>1010</ele>
        <time>2008-05-28T14:10:32+02:00</time>
      </trkpt>
      <trkpt lat="41.77177" lon="9.02357">
        <ele>1010</ele>
        <time>2008-05-28T14:10:38+02:00</time>
      </trkpt>
      <trkpt lat="41.77159" lon="9.02374">
        <ele>1001</ele>
        <time>2008-05-28T14:10:47+02:00</time>
      </trkpt>
      <trkpt lat="41.77145" lon="9.02388">
        <ele>1003</ele>
        <time>2008-05-28T14:10:54+02:00</time>
      </trkpt>
      <trkpt lat="41.77128" lon="9.02403">
        <ele>1001</ele>
        <time>2008-05-28T14:11:03+02:00</time>
      </trkpt>
      <trkpt lat="41.77114" lon="9.02416">
        <ele>999</ele>
        <time>2008-05-28T14:11:10+02:00</time>
      </trkpt>
      <trkpt lat="41.77099" lon="9.02439">
        <ele>1014</ele>
        <time>2008-05-28T14:11:20+02:00</time>
      </trkpt>
      <trkpt lat="41.77087" lon="9.02463">
        <ele>1018</ele>
        <time>2008-05-28T14:11:29+02:00</time>
      </trkpt>
      <trkpt lat="41.77077" lon="9.02487">
        <ele>1007</ele>
        <time>2008-05-28T14:11:38+02:00</time>
      </trkpt>
      <trkpt lat="41.77066" lon="9.02509">
        <ele>1018</ele>
        <time>2008-05-28T14:11:47+02:00</time>
      </trkpt>
      <trkpt lat="41.77059" lon="9.02524">
        <ele>1018</ele>
        <time>2008-05-28T14:11:53+02:00</time>
      </trkpt>
      <trkpt lat="41.77045" lon="9.02541">
        <ele>1019</ele>
        <time>2008-05-28T14:12:01+02:00</time>
      </trkpt>
      <trkpt lat="41.77029" lon="9.02553">
        <ele>1018</ele>
        <time>2008-05-28T14:12:09+02:00</time>
      </trkpt>
      <trkpt lat="41.77017" lon="9.02569">
        <ele>1018</ele>
        <time>2008-05-28T14:12:15+02:00</time>
      </trkpt>
      <trkpt lat="41.76997" lon="9.0259">
        <ele>1016</ele>
        <time>2008-05-28T14:12:25+02:00</time>
      </trkpt>
      <trkpt lat="41.7698" lon="9.02606">
        <ele>1016</ele>
        <time>2008-05-28T14:12:34+02:00</time>
      </trkpt>
      <trkpt lat="41.76967" lon="9.02627">
        <ele>1017</ele>
        <time>2008-05-28T14:12:43+02:00</time>
      </trkpt>
      <trkpt lat="41.76963" lon="9.02651">
        <ele>1020</ele>
        <time>2008-05-28T14:12:51+02:00</time>
      </trkpt>
      <trkpt lat="41.76956" lon="9.02676">
        <ele>1037</ele>
        <time>2008-05-28T14:12:59+02:00</time>
      </trkpt>
      <trkpt lat="41.76944" lon="9.02701">
        <ele>1038</ele>
        <time>2008-05-28T14:13:09+02:00</time>
      </trkpt>
      <trkpt lat="41.76931" lon="9.02712">
        <ele>1039</ele>
        <time>2008-05-28T14:13:16+02:00</time>
      </trkpt>
      <trkpt lat="41.76914" lon="9.02713">
        <ele>1029</ele>
        <time>2008-05-28T14:13:23+02:00</time>
      </trkpt>
      <trkpt lat="41.76901" lon="9.02715">
        <ele>1029</ele>
        <time>2008-05-28T14:13:29+02:00</time>
      </trkpt>
      <trkpt lat="41.76883" lon="9.02712">
        <ele>1028</ele>
        <time>2008-05-28T14:13:36+02:00</time>
      </trkpt>
      <trkpt lat="41.76861" lon="9.02706">
        <ele>1026</ele>
        <time>2008-05-28T14:13:45+02:00</time>
      </trkpt>
      <trkpt lat="41.76846" lon="9.02707">
        <ele>1026</ele>
        <time>2008-05-28T14:13:52+02:00</time>
      </trkpt>
      <trkpt lat="41.76844" lon="9.02707">
        <ele>1026</ele>
        <time>2008-05-28T14:13:53+02:00</time>
      </trkpt>
      <trkpt lat="41.76831" lon="9.02708">
        <ele>1023</ele>
        <time>2008-05-28T14:13:59+02:00</time>
      </trkpt>
      <trkpt lat="41.76807" lon="9.02713">
        <ele>1023</ele>
        <time>2008-05-28T14:14:09+02:00</time>
      </trkpt>
      <trkpt lat="41.76781" lon="9.02719">
        <ele>1023</ele>
        <time>2008-05-28T14:14:20+02:00</time>
      </trkpt>
      <trkpt lat="41.7676" lon="9.02727">
        <ele>1026</ele>
        <time>2008-05-28T14:14:29+02:00</time>
      </trkpt>
      <trkpt lat="41.76741" lon="9.02739">
        <ele>1025</ele>
        <time>2008-05-28T14:14:38+02:00</time>
      </trkpt>
      <trkpt lat="41.76721" lon="9.02754">
        <ele>1037</ele>
        <time>2008-05-28T14:14:48+02:00</time>
      </trkpt>
      <trkpt lat="41.76699" lon="9.02763">
        <ele>1036</ele>
        <time>2008-05-28T14:14:57+02:00</time>
      </trkpt>
      <trkpt lat="41.76678" lon="9.02772">
        <ele>1035</ele>
        <time>2008-05-28T14:15:06+02:00</time>
      </trkpt>
      <trkpt lat="41.76659" lon="9.02775">
        <ele>1031</ele>
        <time>2008-05-28T14:15:13+02:00</time>
      </trkpt>
      <trkpt lat="41.76633" lon="9.02774">
        <ele>1031</ele>
        <time>2008-05-28T14:15:23+02:00</time>
      </trkpt>
      <trkpt lat="41.76602" lon="9.0277">
        <ele>1029</ele>
        <time>2008-05-28T14:15:34+02:00</time>
      </trkpt>
      <trkpt lat="41.76587" lon="9.02778">
        <ele>1029</ele>
        <time>2008-05-28T14:15:40+02:00</time>
      </trkpt>
      <trkpt lat="41.76569" lon="9.02795">
        <ele>1022</ele>
        <time>2008-05-28T14:15:49+02:00</time>
      </trkpt>
      <trkpt lat="41.76558" lon="9.02819">
        <ele>1025</ele>
        <time>2008-05-28T14:15:57+02:00</time>
      </trkpt>
      <trkpt lat="41.76556" lon="9.02854">
        <ele>1028</ele>
        <time>2008-05-28T14:16:07+02:00</time>
      </trkpt>
      <trkpt lat="41.76562" lon="9.02873">
        <ele>1028</ele>
        <time>2008-05-28T14:16:13+02:00</time>
      </trkpt>
      <trkpt lat="41.76572" lon="9.02898">
        <ele>1031</ele>
        <time>2008-05-28T14:16:21+02:00</time>
      </trkpt>
      <trkpt lat="41.7658" lon="9.02926">
        <ele>1032</ele>
        <time>2008-05-28T14:16:29+02:00</time>
      </trkpt>
      <trkpt lat="41.76583" lon="9.02949">
        <ele>1024</ele>
        <time>2008-05-28T14:16:35+02:00</time>
      </trkpt>
      <trkpt lat="41.76591" lon="9.02971">
        <ele>1042</ele>
        <time>2008-05-28T14:16:40+02:00</time>
      </trkpt>
      <trkpt lat="41.76607" lon="9.02999">
        <ele>1042</ele>
        <time>2008-05-28T14:16:45+02:00</time>
      </trkpt>
      <trkpt lat="41.76612" lon="9.03036">
        <ele>1045</ele>
        <time>2008-05-28T14:16:49+02:00</time>
      </trkpt>
      <trkpt lat="41.76608" lon="9.03045">
        <ele>1045</ele>
        <time>2008-05-28T14:16:50+02:00</time>
      </trkpt>
      <trkpt lat="41.76594" lon="9.03092">
        <ele>1039</ele>
        <time>2008-05-28T14:16:55+02:00</time>
      </trkpt>
      <trkpt lat="41.76601" lon="9.03137">
        <ele>1044</ele>
        <time>2008-05-28T14:16:59+02:00</time>
      </trkpt>
      <trkpt lat="41.76615" lon="9.03182">
        <ele>1046</ele>
        <time>2008-05-28T14:17:03+02:00</time>
      </trkpt>
      <trkpt lat="41.76618" lon="9.03244">
        <ele>1047</ele>
        <time>2008-05-28T14:17:08+02:00</time>
      </trkpt>
      <trkpt lat="41.76611" lon="9.03307">
        <ele>1051</ele>
        <time>2008-05-28T14:17:13+02:00</time>
      </trkpt>
      <trkpt lat="41.76589" lon="9.0335">
        <ele>1051</ele>
        <time>2008-05-28T14:17:17+02:00</time>
      </trkpt>
      <trkpt lat="41.76564" lon="9.0335">
        <ele>1050</ele>
        <time>2008-05-28T14:17:19+02:00</time>
      </trkpt>
      <trkpt lat="41.76547" lon="9.03336">
        <ele>1050</ele>
        <time>2008-05-28T14:17:21+02:00</time>
      </trkpt>
      <trkpt lat="41.76536" lon="9.03318">
        <ele>1041</ele>
        <time>2008-05-28T14:17:23+02:00</time>
      </trkpt>
      <trkpt lat="41.7651" lon="9.0329">
        <ele>1039</ele>
        <time>2008-05-28T14:17:27+02:00</time>
      </trkpt>
      <trkpt lat="41.76461" lon="9.03256">
        <ele>1043</ele>
        <time>2008-05-28T14:17:34+02:00</time>
      </trkpt>
      <trkpt lat="41.76423" lon="9.03225">
        <ele>1029</ele>
        <time>2008-05-28T14:17:40+02:00</time>
      </trkpt>
      <trkpt lat="41.7638" lon="9.03205">
        <ele>1029</ele>
        <time>2008-05-28T14:17:46+02:00</time>
      </trkpt>
      <trkpt lat="41.76352" lon="9.03212">
        <ele>1030</ele>
        <time>2008-05-28T14:17:50+02:00</time>
      </trkpt>
      <trkpt lat="41.76333" lon="9.03226">
        <ele>1037</ele>
        <time>2008-05-28T14:17:53+02:00</time>
      </trkpt>
      <trkpt lat="41.76306" lon="9.03232">
        <ele>1037</ele>
        <time>2008-05-28T14:17:57+02:00</time>
      </trkpt>
      <trkpt lat="41.7629" lon="9.03221">
        <ele>1036</ele>
        <time>2008-05-28T14:18:00+02:00</time>
      </trkpt>
      <trkpt lat="41.76281" lon="9.03198">
        <ele>1034</ele>
        <time>2008-05-28T14:18:04+02:00</time>
      </trkpt>
      <trkpt lat="41.76265" lon="9.03179">
        <ele>1034</ele>
        <time>2008-05-28T14:18:09+02:00</time>
      </trkpt>
      <trkpt lat="41.76225" lon="9.03154">
        <ele>1029</ele>
        <time>2008-05-28T14:18:19+02:00</time>
      </trkpt>
      <trkpt lat="41.7619" lon="9.03142">
        <ele>1030</ele>
        <time>2008-05-28T14:18:27+02:00</time>
      </trkpt>
      <trkpt lat="41.76161" lon="9.03136">
        <ele>1034</ele>
        <time>2008-05-28T14:18:34+02:00</time>
      </trkpt>
      <trkpt lat="41.76132" lon="9.03141">
        <ele>1033</ele>
        <time>2008-05-28T14:18:41+02:00</time>
      </trkpt>
      <trkpt lat="41.76115" lon="9.03147">
        <ele>1033</ele>
        <time>2008-05-28T14:18:46+02:00</time>
      </trkpt>
      <trkpt lat="41.76103" lon="9.03157">
        <ele>1034</ele>
        <time>2008-05-28T14:18:50+02:00</time>
      </trkpt>
      <trkpt lat="41.76093" lon="9.03172">
        <ele>1036</ele>
        <time>2008-05-28T14:18:55+02:00</time>
      </trkpt>
      <trkpt lat="41.76094" lon="9.03173">
        <ele>1036</ele>
        <time>2008-05-28T14:19:05+02:00</time>
      </trkpt>
      <trkpt lat="41.76094" lon="9.03174">
        <ele>1036</ele>
        <time>2008-05-28T14:19:10+02:00</time>
      </trkpt>
      <trkpt lat="41.76097" lon="9.03192">
        <ele>1036</ele>
        <time>2008-05-28T14:19:15+02:00</time>
      </trkpt>
      <trkpt lat="41.7611" lon="9.03223">
        <ele>1035</ele>
        <time>2008-05-28T14:19:20+02:00</time>
      </trkpt>
      <trkpt lat="41.76134" lon="9.03271">
        <ele>1028</ele>
        <time>2008-05-28T14:19:26+02:00</time>
      </trkpt>
      <trkpt lat="41.76164" lon="9.03309">
        <ele>1026</ele>
        <time>2008-05-28T14:19:31+02:00</time>
      </trkpt>
      <trkpt lat="41.76184" lon="9.03345">
        <ele>1029</ele>
        <time>2008-05-28T14:19:35+02:00</time>
      </trkpt>
      <trkpt lat="41.76187" lon="9.03373">
        <ele>1028</ele>
        <time>2008-05-28T14:19:38+02:00</time>
      </trkpt>
      <trkpt lat="41.76191" lon="9.03435">
        <ele>1017</ele>
        <time>2008-05-28T14:19:44+02:00</time>
      </trkpt>
      <trkpt lat="41.76208" lon="9.03487">
        <ele>1018</ele>
        <time>2008-05-28T14:19:49+02:00</time>
      </trkpt>
      <trkpt lat="41.76232" lon="9.03544">
        <ele>1006</ele>
        <time>2008-05-28T14:19:55+02:00</time>
      </trkpt>
      <trkpt lat="41.76269" lon="9.03597">
        <ele>1014</ele>
        <time>2008-05-28T14:20:02+02:00</time>
      </trkpt>
      <trkpt lat="41.7628" lon="9.03613">
        <ele>1016</ele>
        <time>2008-05-28T14:20:04+02:00</time>
      </trkpt>
      <trkpt lat="41.76296" lon="9.03663">
        <ele>1015</ele>
        <time>2008-05-28T14:20:09+02:00</time>
      </trkpt>
      <trkpt lat="41.76289" lon="9.03684">
        <ele>1003</ele>
        <time>2008-05-28T14:20:11+02:00</time>
      </trkpt>
      <trkpt lat="41.76283" lon="9.03716">
        <ele>1000</ele>
        <time>2008-05-28T14:20:14+02:00</time>
      </trkpt>
      <trkpt lat="41.7629" lon="9.03736">
        <ele>1001</ele>
        <time>2008-05-28T14:20:16+02:00</time>
      </trkpt>
      <trkpt lat="41.76312" lon="9.03801">
        <ele>992</ele>
        <time>2008-05-28T14:20:23+02:00</time>
      </trkpt>
      <trkpt lat="41.76332" lon="9.03826">
        <ele>994</ele>
        <time>2008-05-28T14:20:27+02:00</time>
      </trkpt>
      <trkpt lat="41.76348" lon="9.03826">
        <ele>1002</ele>
        <time>2008-05-28T14:20:29+02:00</time>
      </trkpt>
      <trkpt lat="41.76366" lon="9.03823">
        <ele>1006</ele>
        <time>2008-05-28T14:20:31+02:00</time>
      </trkpt>
      <trkpt lat="41.76404" lon="9.03824">
        <ele>1006</ele>
        <time>2008-05-28T14:20:35+02:00</time>
      </trkpt>
      <trkpt lat="41.76438" lon="9.03844">
        <ele>1001</ele>
        <time>2008-05-28T14:20:39+02:00</time>
      </trkpt>
      <trkpt lat="41.76473" lon="9.03887">
        <ele>1001</ele>
        <time>2008-05-28T14:20:44+02:00</time>
      </trkpt>
      <trkpt lat="41.76487" lon="9.03936">
        <ele>997</ele>
        <time>2008-05-28T14:20:48+02:00</time>
      </trkpt>
      <trkpt lat="41.76482" lon="9.03959">
        <ele>995</ele>
        <time>2008-05-28T14:20:50+02:00</time>
      </trkpt>
      <trkpt lat="41.76478" lon="9.03968">
        <ele>994</ele>
        <time>2008-05-28T14:20:51+02:00</time>
      </trkpt>
      <trkpt lat="41.76463" lon="9.03996">
        <ele>991</ele>
        <time>2008-05-28T14:20:53+02:00</time>
      </trkpt>
      <trkpt lat="41.76454" lon="9.04051">
        <ele>985</ele>
        <time>2008-05-28T14:20:57+02:00</time>
      </trkpt>
      <trkpt lat="41.76456" lon="9.04064">
        <ele>985</ele>
        <time>2008-05-28T14:20:58+02:00</time>
      </trkpt>
      <trkpt lat="41.7646" lon="9.04085">
        <ele>980</ele>
        <time>2008-05-28T14:21:00+02:00</time>
      </trkpt>
      <trkpt lat="41.76474" lon="9.04115">
        <ele>980</ele>
        <time>2008-05-28T14:21:04+02:00</time>
      </trkpt>
      <trkpt lat="41.76478" lon="9.04119">
        <ele>980</ele>
        <time>2008-05-28T14:21:05+02:00</time>
      </trkpt>
      <trkpt lat="41.76505" lon="9.04147">
        <ele>979</ele>
        <time>2008-05-28T14:21:11+02:00</time>
      </trkpt>
      <trkpt lat="41.7651" lon="9.04152">
        <ele>978</ele>
        <time>2008-05-28T14:21:12+02:00</time>
      </trkpt>
      <trkpt lat="41.76542" lon="9.04167">
        <ele>981</ele>
        <time>2008-05-28T14:21:17+02:00</time>
      </trkpt>
      <trkpt lat="41.7655" lon="9.04169">
        <ele>958</ele>
        <time>2008-05-28T14:21:18+02:00</time>
      </trkpt>
      <trkpt lat="41.7658" lon="9.04162">
        <ele>974</ele>
        <time>2008-05-28T14:21:22+02:00</time>
      </trkpt>
      <trkpt lat="41.76608" lon="9.04163">
        <ele>987</ele>
        <time>2008-05-28T14:21:26+02:00</time>
      </trkpt>
      <trkpt lat="41.76612" lon="9.04165">
        <ele>988</ele>
        <time>2008-05-28T14:21:28+02:00</time>
      </trkpt>
      <trkpt lat="41.76611" lon="9.04164">
        <ele>988</ele>
        <time>2008-05-28T14:21:35+02:00</time>
      </trkpt>
      <trkpt lat="41.76611" lon="9.04163">
        <ele>988</ele>
        <time>2008-05-28T14:21:46+02:00</time>
      </trkpt>
      <trkpt lat="41.76612" lon="9.04162">
        <ele>988</ele>
        <time>2008-05-28T14:22:12+02:00</time>
      </trkpt>
      <trkpt lat="41.76612" lon="9.04162">
        <ele>988</ele>
        <time>2008-05-28T14:22:22+02:00</time>
      </trkpt>
      <trkpt lat="41.76612" lon="9.0416">
        <ele>989</ele>
        <time>2008-05-28T14:22:30+02:00</time>
      </trkpt>
      <trkpt lat="41.76615" lon="9.04161">
        <ele>990</ele>
        <time>2008-05-28T14:22:34+02:00</time>
      </trkpt>
      <trkpt lat="41.76635" lon="9.04162">
        <ele>991</ele>
        <time>2008-05-28T14:22:40+02:00</time>
      </trkpt>
      <trkpt lat="41.76647" lon="9.04173">
        <ele>965</ele>
        <time>2008-05-28T14:22:43+02:00</time>
      </trkpt>
      <trkpt lat="41.76656" lon="9.04184">
        <ele>964</ele>
        <time>2008-05-28T14:22:45+02:00</time>
      </trkpt>
      <trkpt lat="41.76679" lon="9.04198">
        <ele>971</ele>
        <time>2008-05-28T14:22:49+02:00</time>
      </trkpt>
      <trkpt lat="41.76702" lon="9.04203">
        <ele>972</ele>
        <time>2008-05-28T14:22:52+02:00</time>
      </trkpt>
      <trkpt lat="41.7672" lon="9.04224">
        <ele>970</ele>
        <time>2008-05-28T14:22:55+02:00</time>
      </trkpt>
      <trkpt lat="41.76737" lon="9.04264">
        <ele>950</ele>
        <time>2008-05-28T14:22:59+02:00</time>
      </trkpt>
      <trkpt lat="41.76762" lon="9.04291">
        <ele>957</ele>
        <time>2008-05-28T14:23:03+02:00</time>
      </trkpt>
      <trkpt lat="41.76785" lon="9.04298">
        <ele>958</ele>
        <time>2008-05-28T14:23:06+02:00</time>
      </trkpt>
      <trkpt lat="41.7679" lon="9.04301">
        <ele>958</ele>
        <time>2008-05-28T14:23:07+02:00</time>
      </trkpt>
      <trkpt lat="41.76799" lon="9.04307">
        <ele>958</ele>
        <time>2008-05-28T14:23:13+02:00</time>
      </trkpt>
      <trkpt lat="41.76817" lon="9.04323">
        <ele>955</ele>
        <time>2008-05-28T14:23:18+02:00</time>
      </trkpt>
      <trkpt lat="41.76833" lon="9.04337">
        <ele>946</ele>
        <time>2008-05-28T14:23:21+02:00</time>
      </trkpt>
      <trkpt lat="41.76862" lon="9.04344">
        <ele>944</ele>
        <time>2008-05-28T14:23:25+02:00</time>
      </trkpt>
      <trkpt lat="41.7688" lon="9.04339">
        <ele>947</ele>
        <time>2008-05-28T14:23:27+02:00</time>
      </trkpt>
      <trkpt lat="41.76899" lon="9.04334">
        <ele>955</ele>
        <time>2008-05-28T14:23:29+02:00</time>
      </trkpt>
      <trkpt lat="41.76929" lon="9.0434">
        <ele>965</ele>
        <time>2008-05-28T14:23:32+02:00</time>
      </trkpt>
      <trkpt lat="41.76952" lon="9.04368">
        <ele>958</ele>
        <time>2008-05-28T14:23:35+02:00</time>
      </trkpt>
      <trkpt lat="41.7697" lon="9.04383">
        <ele>956</ele>
        <time>2008-05-28T14:23:37+02:00</time>
      </trkpt>
      <trkpt lat="41.77034" lon="9.04443">
        <ele>938</ele>
        <time>2008-05-28T14:23:44+02:00</time>
      </trkpt>
      <trkpt lat="41.77076" lon="9.04473">
        <ele>935</ele>
        <time>2008-05-28T14:23:48+02:00</time>
      </trkpt>
      <trkpt lat="41.77087" lon="9.04478">
        <ele>940</ele>
        <time>2008-05-28T14:23:49+02:00</time>
      </trkpt>
      <trkpt lat="41.7713" lon="9.04488">
        <ele>945</ele>
        <time>2008-05-28T14:23:53+02:00</time>
      </trkpt>
      <trkpt lat="41.77158" lon="9.04511">
        <ele>937</ele>
        <time>2008-05-28T14:23:57+02:00</time>
      </trkpt>
      <trkpt lat="41.77159" lon="9.0453">
        <ele>937</ele>
        <time>2008-05-28T14:23:59+02:00</time>
      </trkpt>
      <trkpt lat="41.77149" lon="9.04547">
        <ele>938</ele>
        <time>2008-05-28T14:24:01+02:00</time>
      </trkpt>
      <trkpt lat="41.77142" lon="9.04552">
        <ele>938</ele>
        <time>2008-05-28T14:24:02+02:00</time>
      </trkpt>
      <trkpt lat="41.77103" lon="9.04575">
        <ele>933</ele>
        <time>2008-05-28T14:24:07+02:00</time>
      </trkpt>
      <trkpt lat="41.77068" lon="9.04581">
        <ele>926</ele>
        <time>2008-05-28T14:24:11+02:00</time>
      </trkpt>
      <trkpt lat="41.77021" lon="9.04572">
        <ele>924</ele>
        <time>2008-05-28T14:24:16+02:00</time>
      </trkpt>
      <trkpt lat="41.76956" lon="9.04562">
        <ele>914</ele>
        <time>2008-05-28T14:24:23+02:00</time>
      </trkpt>
      <trkpt lat="41.76948" lon="9.04561">
        <ele>913</ele>
        <time>2008-05-28T14:24:24+02:00</time>
      </trkpt>
      <trkpt lat="41.76918" lon="9.04579">
        <ele>913</ele>
        <time>2008-05-28T14:24:28+02:00</time>
      </trkpt>
      <trkpt lat="41.76892" lon="9.04613">
        <ele>914</ele>
        <time>2008-05-28T14:24:32+02:00</time>
      </trkpt>
      <trkpt lat="41.76861" lon="9.0464">
        <ele>914</ele>
        <time>2008-05-28T14:24:36+02:00</time>
      </trkpt>
      <trkpt lat="41.76853" lon="9.04645">
        <ele>914</ele>
        <time>2008-05-28T14:24:37+02:00</time>
      </trkpt>
      <trkpt lat="41.76816" lon="9.04654">
        <ele>904</ele>
        <time>2008-05-28T14:24:41+02:00</time>
      </trkpt>
      <trkpt lat="41.76777" lon="9.04658">
        <ele>898</ele>
        <time>2008-05-28T14:24:45+02:00</time>
      </trkpt>
      <trkpt lat="41.76759" lon="9.04655">
        <ele>897</ele>
        <time>2008-05-28T14:24:47+02:00</time>
      </trkpt>
      <trkpt lat="41.76737" lon="9.04665">
        <ele>889</ele>
        <time>2008-05-28T14:24:50+02:00</time>
      </trkpt>
      <trkpt lat="41.76734" lon="9.04687">
        <ele>887</ele>
        <time>2008-05-28T14:24:52+02:00</time>
      </trkpt>
      <trkpt lat="41.76726" lon="9.04745">
        <ele>887</ele>
        <time>2008-05-28T14:24:57+02:00</time>
      </trkpt>
      <trkpt lat="41.76723" lon="9.0478">
        <ele>878</ele>
        <time>2008-05-28T14:25:00+02:00</time>
      </trkpt>
      <trkpt lat="41.76734" lon="9.04801">
        <ele>878</ele>
        <time>2008-05-28T14:25:02+02:00</time>
      </trkpt>
      <trkpt lat="41.76741" lon="9.04811">
        <ele>881</ele>
        <time>2008-05-28T14:25:03+02:00</time>
      </trkpt>
      <trkpt lat="41.76763" lon="9.04867">
        <ele>908</ele>
        <time>2008-05-28T14:25:08+02:00</time>
      </trkpt>
      <trkpt lat="41.76761" lon="9.04908">
        <ele>900</ele>
        <time>2008-05-28T14:25:11+02:00</time>
      </trkpt>
      <trkpt lat="41.76748" lon="9.04944">
        <ele>886</ele>
        <time>2008-05-28T14:25:14+02:00</time>
      </trkpt>
      <trkpt lat="41.7673" lon="9.04954">
        <ele>886</ele>
        <time>2008-05-28T14:25:16+02:00</time>
      </trkpt>
      <trkpt lat="41.7671" lon="9.04958">
        <ele>884</ele>
        <time>2008-05-28T14:25:18+02:00</time>
      </trkpt>
      <trkpt lat="41.7669" lon="9.04961">
        <ele>881</ele>
        <time>2008-05-28T14:25:20+02:00</time>
      </trkpt>
      <trkpt lat="41.76671" lon="9.0496">
        <ele>880</ele>
        <time>2008-05-28T14:25:22+02:00</time>
      </trkpt>
      <trkpt lat="41.76638" lon="9.04973">
        <ele>861</ele>
        <time>2008-05-28T14:25:26+02:00</time>
      </trkpt>
      <trkpt lat="41.76626" lon="9.04999">
        <ele>861</ele>
        <time>2008-05-28T14:25:28+02:00</time>
      </trkpt>
      <trkpt lat="41.7662" lon="9.05045">
        <ele>864</ele>
        <time>2008-05-28T14:25:31+02:00</time>
      </trkpt>
      <trkpt lat="41.76635" lon="9.05085">
        <ele>856</ele>
        <time>2008-05-28T14:25:34+02:00</time>
      </trkpt>
      <trkpt lat="41.76664" lon="9.05105">
        <ele>859</ele>
        <time>2008-05-28T14:25:37+02:00</time>
      </trkpt>
      <trkpt lat="41.76719" lon="9.05148">
        <ele>868</ele>
        <time>2008-05-28T14:25:43+02:00</time>
      </trkpt>
      <trkpt lat="41.76733" lon="9.05166">
        <ele>868</ele>
        <time>2008-05-28T14:25:45+02:00</time>
      </trkpt>
      <trkpt lat="41.76767" lon="9.05193">
        <ele>858</ele>
        <time>2008-05-28T14:25:49+02:00</time>
      </trkpt>
      <trkpt lat="41.76793" lon="9.0523">
        <ele>851</ele>
        <time>2008-05-28T14:25:53+02:00</time>
      </trkpt>
      <trkpt lat="41.76814" lon="9.05245">
        <ele>848</ele>
        <time>2008-05-28T14:25:56+02:00</time>
      </trkpt>
      <trkpt lat="41.76825" lon="9.05238">
        <ele>848</ele>
        <time>2008-05-28T14:25:57+02:00</time>
      </trkpt>
      <trkpt lat="41.76871" lon="9.05223">
        <ele>860</ele>
        <time>2008-05-28T14:26:02+02:00</time>
      </trkpt>
      <trkpt lat="41.76909" lon="9.05227">
        <ele>857</ele>
        <time>2008-05-28T14:26:06+02:00</time>
      </trkpt>
      <trkpt lat="41.76981" lon="9.05261">
        <ele>849</ele>
        <time>2008-05-28T14:26:14+02:00</time>
      </trkpt>
      <trkpt lat="41.77024" lon="9.05287">
        <ele>852</ele>
        <time>2008-05-28T14:26:19+02:00</time>
      </trkpt>
      <trkpt lat="41.77037" lon="9.05334">
        <ele>855</ele>
        <time>2008-05-28T14:26:26+02:00</time>
      </trkpt>
      <trkpt lat="41.77037" lon="9.05343">
        <ele>856</ele>
        <time>2008-05-28T14:26:30+02:00</time>
      </trkpt>
      <trkpt lat="41.77039" lon="9.05342">
        <ele>856</ele>
        <time>2008-05-28T14:26:48+02:00</time>
      </trkpt>
      <trkpt lat="41.77036" lon="9.05343">
        <ele>856</ele>
        <time>2008-05-28T14:27:01+02:00</time>
      </trkpt>
      <trkpt lat="41.77035" lon="9.05344">
        <ele>855</ele>
        <time>2008-05-28T14:27:11+02:00</time>
      </trkpt>
      <trkpt lat="41.77034" lon="9.05344">
        <ele>855</ele>
        <time>2008-05-28T14:27:17+02:00</time>
      </trkpt>
      <trkpt lat="41.77038" lon="9.05344">
        <ele>856</ele>
        <time>2008-05-28T14:27:28+02:00</time>
      </trkpt>
      <trkpt lat="41.77039" lon="9.05342">
        <ele>856</ele>
        <time>2008-05-28T14:27:34+02:00</time>
      </trkpt>
      <trkpt lat="41.77041" lon="9.05339">
        <ele>856</ele>
        <time>2008-05-28T14:28:14+02:00</time>
      </trkpt>
      <trkpt lat="41.77041" lon="9.0534">
        <ele>856</ele>
        <time>2008-05-28T14:28:52+02:00</time>
      </trkpt>
      <trkpt lat="41.77038" lon="9.0534">
        <ele>856</ele>
        <time>2008-05-28T14:29:22+02:00</time>
      </trkpt>
      <trkpt lat="41.77036" lon="9.05342">
        <ele>855</ele>
        <time>2008-05-28T14:29:30+02:00</time>
      </trkpt>
      <trkpt lat="41.77032" lon="9.05346">
        <ele>855</ele>
        <time>2008-05-28T14:29:41+02:00</time>
      </trkpt>
      <trkpt lat="41.77037" lon="9.05343">
        <ele>856</ele>
        <time>2008-05-28T14:30:01+02:00</time>
      </trkpt>
      <trkpt lat="41.77038" lon="9.05342">
        <ele>856</ele>
        <time>2008-05-28T14:30:07+02:00</time>
      </trkpt>
      <trkpt lat="41.7704" lon="9.0534">
        <ele>856</ele>
        <time>2008-05-28T14:30:14+02:00</time>
      </trkpt>
      <trkpt lat="41.77043" lon="9.05338">
        <ele>856</ele>
        <time>2008-05-28T14:30:27+02:00</time>
      </trkpt>
      <trkpt lat="41.77041" lon="9.0534">
        <ele>856</ele>
        <time>2008-05-28T14:30:39+02:00</time>
      </trkpt>
      <trkpt lat="41.77038" lon="9.05344">
        <ele>856</ele>
        <time>2008-05-28T14:30:49+02:00</time>
      </trkpt>
      <trkpt lat="41.77033" lon="9.05348">
        <ele>856</ele>
        <time>2008-05-28T14:31:00+02:00</time>
      </trkpt>
      <trkpt lat="41.77029" lon="9.05352">
        <ele>856</ele>
        <time>2008-05-28T14:31:08+02:00</time>
      </trkpt>
      <trkpt lat="41.77028" lon="9.05353">
        <ele>856</ele>
        <time>2008-05-28T14:31:17+02:00</time>
      </trkpt>
      <trkpt lat="41.77034" lon="9.05348">
        <ele>856</ele>
        <time>2008-05-28T14:31:29+02:00</time>
      </trkpt>
      <trkpt lat="41.77039" lon="9.05345">
        <ele>856</ele>
        <time>2008-05-28T14:31:37+02:00</time>
      </trkpt>
      <trkpt lat="41.77048" lon="9.0534">
        <ele>856</ele>
        <time>2008-05-28T14:32:01+02:00</time>
      </trkpt>
      <trkpt lat="41.77045" lon="9.05343">
        <ele>856</ele>
        <time>2008-05-28T14:32:12+02:00</time>
      </trkpt>
      <trkpt lat="41.77043" lon="9.05348">
        <ele>857</ele>
        <time>2008-05-28T14:32:47+02:00</time>
      </trkpt>
      <trkpt lat="41.77048" lon="9.05348">
        <ele>857</ele>
        <time>2008-05-28T14:32:50+02:00</time>
      </trkpt>
      <trkpt lat="41.77056" lon="9.05342">
        <ele>857</ele>
        <time>2008-05-28T14:32:57+02:00</time>
      </trkpt>
      <trkpt lat="41.77061" lon="9.05338">
        <ele>857</ele>
        <time>2008-05-28T14:33:01+02:00</time>
      </trkpt>
      <trkpt lat="41.77069" lon="9.05333">
        <ele>853</ele>
        <time>2008-05-28T14:33:07+02:00</time>
      </trkpt>
      <trkpt lat="41.77077" lon="9.05328">
        <ele>853</ele>
        <time>2008-05-28T14:33:14+02:00</time>
      </trkpt>
      <trkpt lat="41.77086" lon="9.05324">
        <ele>856</ele>
        <time>2008-05-28T14:33:21+02:00</time>
      </trkpt>
      <trkpt lat="41.77097" lon="9.0532">
        <ele>858</ele>
        <time>2008-05-28T14:33:28+02:00</time>
      </trkpt>
      <trkpt lat="41.77102" lon="9.05316">
        <ele>859</ele>
        <time>2008-05-28T14:33:31+02:00</time>
      </trkpt>
      <trkpt lat="41.77101" lon="9.05304">
        <ele>859</ele>
        <time>2008-05-28T14:33:37+02:00</time>
      </trkpt>
      <trkpt lat="41.77096" lon="9.05299">
        <ele>859</ele>
        <time>2008-05-28T14:33:41+02:00</time>
      </trkpt>
      <trkpt lat="41.77087" lon="9.05285">
        <ele>859</ele>
        <time>2008-05-28T14:33:49+02:00</time>
      </trkpt>
      <trkpt lat="41.77088" lon="9.05269">
        <ele>858</ele>
        <time>2008-05-28T14:33:57+02:00</time>
      </trkpt>
      <trkpt lat="41.77092" lon="9.05259">
        <ele>858</ele>
        <time>2008-05-28T14:34:03+02:00</time>
      </trkpt>
      <trkpt lat="41.77093" lon="9.05258">
        <ele>858</ele>
        <time>2008-05-28T14:34:08+02:00</time>
      </trkpt>
      <trkpt lat="41.77093" lon="9.05258">
        <ele>858</ele>
        <time>2008-05-28T14:34:17+02:00</time>
      </trkpt>
      <trkpt lat="41.77095" lon="9.05257">
        <ele>858</ele>
        <time>2008-05-28T14:34:23+02:00</time>
      </trkpt>
      <trkpt lat="41.77097" lon="9.05255">
        <ele>858</ele>
        <time>2008-05-28T14:34:28+02:00</time>
      </trkpt>
      <trkpt lat="41.77096" lon="9.05256">
        <ele>858</ele>
        <time>2008-05-28T14:34:37+02:00</time>
      </trkpt>
      <trkpt lat="41.77099" lon="9.05254">
        <ele>858</ele>
        <time>2008-05-28T14:34:47+02:00</time>
      </trkpt>
      <trkpt lat="41.77103" lon="9.0525">
        <ele>861</ele>
        <time>2008-05-28T14:34:52+02:00</time>
      </trkpt>
      <trkpt lat="41.77111" lon="9.05239">
        <ele>863</ele>
        <time>2008-05-28T14:34:59+02:00</time>
      </trkpt>
      <trkpt lat="41.77119" lon="9.05229">
        <ele>865</ele>
        <time>2008-05-28T14:35:05+02:00</time>
      </trkpt>
      <trkpt lat="41.77133" lon="9.05178">
        <ele>868</ele>
        <time>2008-05-28T14:35:30+02:00</time>
      </trkpt>
      <trkpt lat="41.77133" lon="9.05176">
        <ele>868</ele>
        <time>2008-05-28T14:35:31+02:00</time>
      </trkpt>
      <trkpt lat="41.77128" lon="9.05148">
        <ele>875</ele>
        <time>2008-05-28T14:35:45+02:00</time>
      </trkpt>
      <trkpt lat="41.77128" lon="9.05131">
        <ele>876</ele>
        <time>2008-05-28T14:35:52+02:00</time>
      </trkpt>
      <trkpt lat="41.77134" lon="9.05131">
        <ele>876</ele>
        <time>2008-05-28T14:35:57+02:00</time>
      </trkpt>
      <trkpt lat="41.77139" lon="9.0514">
        <ele>876</ele>
        <time>2008-05-28T14:36:01+02:00</time>
      </trkpt>
      <trkpt lat="41.7714" lon="9.05144">
        <ele>876</ele>
        <time>2008-05-28T14:36:03+02:00</time>
      </trkpt>
      <trkpt lat="41.77142" lon="9.05167">
        <ele>870</ele>
        <time>2008-05-28T14:36:10+02:00</time>
      </trkpt>
      <trkpt lat="41.77146" lon="9.05194">
        <ele>869</ele>
        <time>2008-05-28T14:36:18+02:00</time>
      </trkpt>
      <trkpt lat="41.77152" lon="9.0521">
        <ele>868</ele>
        <time>2008-05-28T14:36:25+02:00</time>
      </trkpt>
      <trkpt lat="41.77154" lon="9.05224">
        <ele>868</ele>
        <time>2008-05-28T14:36:31+02:00</time>
      </trkpt>
      <trkpt lat="41.77154" lon="9.05231">
        <ele>868</ele>
        <time>2008-05-28T14:36:34+02:00</time>
      </trkpt>
      <trkpt lat="41.77156" lon="9.05248">
        <ele>869</ele>
        <time>2008-05-28T14:36:41+02:00</time>
      </trkpt>
      <trkpt lat="41.77158" lon="9.0526">
        <ele>867</ele>
        <time>2008-05-28T14:36:47+02:00</time>
      </trkpt>
      <trkpt lat="41.77158" lon="9.05265">
        <ele>866</ele>
        <time>2008-05-28T14:36:49+02:00</time>
      </trkpt>
      <trkpt lat="41.77165" lon="9.05275">
        <ele>865</ele>
        <time>2008-05-28T14:36:56+02:00</time>
      </trkpt>
      <trkpt lat="41.77174" lon="9.05278">
        <ele>877</ele>
        <time>2008-05-28T14:37:02+02:00</time>
      </trkpt>
      <trkpt lat="41.77186" lon="9.05281">
        <ele>878</ele>
        <time>2008-05-28T14:37:09+02:00</time>
      </trkpt>
      <trkpt lat="41.77197" lon="9.05287">
        <ele>879</ele>
        <time>2008-05-28T14:37:15+02:00</time>
      </trkpt>
      <trkpt lat="41.77207" lon="9.05298">
        <ele>880</ele>
        <time>2008-05-28T14:37:22+02:00</time>
      </trkpt>
      <trkpt lat="41.77217" lon="9.05314">
        <ele>881</ele>
        <time>2008-05-28T14:37:30+02:00</time>
      </trkpt>
      <trkpt lat="41.77228" lon="9.05335">
        <ele>883</ele>
        <time>2008-05-28T14:37:40+02:00</time>
      </trkpt>
      <trkpt lat="41.77235" lon="9.05359">
        <ele>883</ele>
        <time>2008-05-28T14:37:49+02:00</time>
      </trkpt>
      <trkpt lat="41.77242" lon="9.05381">
        <ele>884</ele>
        <time>2008-05-28T14:37:58+02:00</time>
      </trkpt>
      <trkpt lat="41.77247" lon="9.05388">
        <ele>884</ele>
        <time>2008-05-28T14:38:02+02:00</time>
      </trkpt>
      <trkpt lat="41.77253" lon="9.05383">
        <ele>899</ele>
        <time>2008-05-28T14:38:07+02:00</time>
      </trkpt>
      <trkpt lat="41.77252" lon="9.05375">
        <ele>899</ele>
        <time>2008-05-28T14:38:10+02:00</time>
      </trkpt>
      <trkpt lat="41.77246" lon="9.05352">
        <ele>885</ele>
        <time>2008-05-28T14:38:17+02:00</time>
      </trkpt>
      <trkpt lat="41.77229" lon="9.05265">
        <ele>887</ele>
        <time>2008-05-28T14:38:43+02:00</time>
      </trkpt>
      <trkpt lat="41.77222" lon="9.0525">
        <ele>893</ele>
        <time>2008-05-28T14:38:49+02:00</time>
      </trkpt>
      <trkpt lat="41.77209" lon="9.05226">
        <ele>890</ele>
        <time>2008-05-28T14:39:02+02:00</time>
      </trkpt>
      <trkpt lat="41.77211" lon="9.0522">
        <ele>891</ele>
        <time>2008-05-28T14:39:05+02:00</time>
      </trkpt>
      <trkpt lat="41.77218" lon="9.05222">
        <ele>893</ele>
        <time>2008-05-28T14:39:10+02:00</time>
      </trkpt>
      <trkpt lat="41.77221" lon="9.05226">
        <ele>893</ele>
        <time>2008-05-28T14:39:12+02:00</time>
      </trkpt>
      <trkpt lat="41.77232" lon="9.0524">
        <ele>895</ele>
        <time>2008-05-28T14:39:21+02:00</time>
      </trkpt>
      <trkpt lat="41.77245" lon="9.05254">
        <ele>896</ele>
        <time>2008-05-28T14:39:30+02:00</time>
      </trkpt>
      <trkpt lat="41.77257" lon="9.05269">
        <ele>907</ele>
        <time>2008-05-28T14:39:39+02:00</time>
      </trkpt>
      <trkpt lat="41.77268" lon="9.05288">
        <ele>910</ele>
        <time>2008-05-28T14:39:49+02:00</time>
      </trkpt>
      <trkpt lat="41.77277" lon="9.05308">
        <ele>910</ele>
        <time>2008-05-28T14:39:57+02:00</time>
      </trkpt>
      <trkpt lat="41.77284" lon="9.0533">
        <ele>910</ele>
        <time>2008-05-28T14:40:06+02:00</time>
      </trkpt>
      <trkpt lat="41.7729" lon="9.0535">
        <ele>906</ele>
        <time>2008-05-28T14:40:14+02:00</time>
      </trkpt>
      <trkpt lat="41.77299" lon="9.05374">
        <ele>908</ele>
        <time>2008-05-28T14:40:23+02:00</time>
      </trkpt>
      <trkpt lat="41.77305" lon="9.05392">
        <ele>909</ele>
        <time>2008-05-28T14:40:29+02:00</time>
      </trkpt>
      <trkpt lat="41.77312" lon="9.05411">
        <ele>911</ele>
        <time>2008-05-28T14:40:36+02:00</time>
      </trkpt>
      <trkpt lat="41.7732" lon="9.0544">
        <ele>912</ele>
        <time>2008-05-28T14:40:46+02:00</time>
      </trkpt>
      <trkpt lat="41.77317" lon="9.05458">
        <ele>911</ele>
        <time>2008-05-28T14:40:53+02:00</time>
      </trkpt>
      <trkpt lat="41.77314" lon="9.05469">
        <ele>911</ele>
        <time>2008-05-28T14:40:57+02:00</time>
      </trkpt>
      <trkpt lat="41.77306" lon="9.05481">
        <ele>911</ele>
        <time>2008-05-28T14:41:03+02:00</time>
      </trkpt>
      <trkpt lat="41.77305" lon="9.05483">
        <ele>911</ele>
        <time>2008-05-28T14:41:04+02:00</time>
      </trkpt>
      <trkpt lat="41.77304" lon="9.05507">
        <ele>918</ele>
        <time>2008-05-28T14:41:13+02:00</time>
      </trkpt>
      <trkpt lat="41.7731" lon="9.05525">
        <ele>919</ele>
        <time>2008-05-28T14:41:19+02:00</time>
      </trkpt>
      <trkpt lat="41.77305" lon="9.05536">
        <ele>919</ele>
        <time>2008-05-28T14:41:23+02:00</time>
      </trkpt>
      <trkpt lat="41.77291" lon="9.05539">
        <ele>918</ele>
        <time>2008-05-28T14:41:29+02:00</time>
      </trkpt>
      <trkpt lat="41.77274" lon="9.05535">
        <ele>917</ele>
        <time>2008-05-28T14:41:37+02:00</time>
      </trkpt>
      <trkpt lat="41.7726" lon="9.05536">
        <ele>916</ele>
        <time>2008-05-28T14:41:44+02:00</time>
      </trkpt>
      <trkpt lat="41.77246" lon="9.05533">
        <ele>914</ele>
        <time>2008-05-28T14:41:50+02:00</time>
      </trkpt>
      <trkpt lat="41.77231" lon="9.05516">
        <ele>912</ele>
        <time>2008-05-28T14:41:58+02:00</time>
      </trkpt>
      <trkpt lat="41.77209" lon="9.05506">
        <ele>913</ele>
        <time>2008-05-28T14:42:08+02:00</time>
      </trkpt>
      <trkpt lat="41.77187" lon="9.05498">
        <ele>904</ele>
        <time>2008-05-28T14:42:17+02:00</time>
      </trkpt>
      <trkpt lat="41.7717" lon="9.05499">
        <ele>909</ele>
        <time>2008-05-28T14:42:24+02:00</time>
      </trkpt>
      <trkpt lat="41.77154" lon="9.05507">
        <ele>911</ele>
        <time>2008-05-28T14:42:30+02:00</time>
      </trkpt>
      <trkpt lat="41.77142" lon="9.05521">
        <ele>911</ele>
        <time>2008-05-28T14:42:35+02:00</time>
      </trkpt>
      <trkpt lat="41.77125" lon="9.05536">
        <ele>911</ele>
        <time>2008-05-28T14:42:42+02:00</time>
      </trkpt>
      <trkpt lat="41.7712" lon="9.05555">
        <ele>911</ele>
        <time>2008-05-28T14:42:47+02:00</time>
      </trkpt>
      <trkpt lat="41.77125" lon="9.05574">
        <ele>912</ele>
        <time>2008-05-28T14:42:52+02:00</time>
      </trkpt>
      <trkpt lat="41.77135" lon="9.05586">
        <ele>912</ele>
        <time>2008-05-28T14:42:57+02:00</time>
      </trkpt>
      <trkpt lat="41.77149" lon="9.05586">
        <ele>915</ele>
        <time>2008-05-28T14:43:02+02:00</time>
      </trkpt>
      <trkpt lat="41.77168" lon="9.05577">
        <ele>920</ele>
        <time>2008-05-28T14:43:07+02:00</time>
      </trkpt>
      <trkpt lat="41.77188" lon="9.05575">
        <ele>918</ele>
        <time>2008-05-28T14:43:13+02:00</time>
      </trkpt>
      <trkpt lat="41.77209" lon="9.05586">
        <ele>922</ele>
        <time>2008-05-28T14:43:19+02:00</time>
      </trkpt>
      <trkpt lat="41.77221" lon="9.05607">
        <ele>923</ele>
        <time>2008-05-28T14:43:24+02:00</time>
      </trkpt>
      <trkpt lat="41.77229" lon="9.05627">
        <ele>923</ele>
        <time>2008-05-28T14:43:30+02:00</time>
      </trkpt>
      <trkpt lat="41.77236" lon="9.05641">
        <ele>924</ele>
        <time>2008-05-28T14:43:36+02:00</time>
      </trkpt>
      <trkpt lat="41.77246" lon="9.0564">
        <ele>925</ele>
        <time>2008-05-28T14:43:41+02:00</time>
      </trkpt>
      <trkpt lat="41.77255" lon="9.05633">
        <ele>930</ele>
        <time>2008-05-28T14:43:47+02:00</time>
      </trkpt>
      <trkpt lat="41.77263" lon="9.05625">
        <ele>930</ele>
        <time>2008-05-28T14:43:53+02:00</time>
      </trkpt>
      <trkpt lat="41.77278" lon="9.0562">
        <ele>930</ele>
        <time>2008-05-28T14:44:01+02:00</time>
      </trkpt>
      <trkpt lat="41.77291" lon="9.05614">
        <ele>930</ele>
        <time>2008-05-28T14:44:08+02:00</time>
      </trkpt>
      <trkpt lat="41.77304" lon="9.05616">
        <ele>931</ele>
        <time>2008-05-28T14:44:15+02:00</time>
      </trkpt>
      <trkpt lat="41.77317" lon="9.05629">
        <ele>932</ele>
        <time>2008-05-28T14:44:23+02:00</time>
      </trkpt>
      <trkpt lat="41.77327" lon="9.05645">
        <ele>935</ele>
        <time>2008-05-28T14:44:31+02:00</time>
      </trkpt>
      <trkpt lat="41.77336" lon="9.05654">
        <ele>941</ele>
        <time>2008-05-28T14:44:37+02:00</time>
      </trkpt>
      <trkpt lat="41.77352" lon="9.05664">
        <ele>942</ele>
        <time>2008-05-28T14:44:46+02:00</time>
      </trkpt>
      <trkpt lat="41.77365" lon="9.05677">
        <ele>948</ele>
        <time>2008-05-28T14:44:54+02:00</time>
      </trkpt>
      <trkpt lat="41.77378" lon="9.05685">
        <ele>949</ele>
        <time>2008-05-28T14:45:01+02:00</time>
      </trkpt>
      <trkpt lat="41.77427" lon="9.05701">
        <ele>958</ele>
        <time>2008-05-28T14:45:22+02:00</time>
      </trkpt>
      <trkpt lat="41.77444" lon="9.05705">
        <ele>959</ele>
        <time>2008-05-28T14:45:31+02:00</time>
      </trkpt>
      <trkpt lat="41.77455" lon="9.05735">
        <ele>961</ele>
        <time>2008-05-28T14:45:43+02:00</time>
      </trkpt>
      <trkpt lat="41.77453" lon="9.05741">
        <ele>961</ele>
        <time>2008-05-28T14:45:45+02:00</time>
      </trkpt>
      <trkpt lat="41.77441" lon="9.05741">
        <ele>960</ele>
        <time>2008-05-28T14:45:49+02:00</time>
      </trkpt>
      <trkpt lat="41.7744" lon="9.05738">
        <ele>960</ele>
        <time>2008-05-28T14:45:50+02:00</time>
      </trkpt>
      <trkpt lat="41.77426" lon="9.05719">
        <ele>959</ele>
        <time>2008-05-28T14:45:57+02:00</time>
      </trkpt>
      <trkpt lat="41.77411" lon="9.05718">
        <ele>952</ele>
        <time>2008-05-28T14:46:02+02:00</time>
      </trkpt>
      <trkpt lat="41.77397" lon="9.05722">
        <ele>952</ele>
        <time>2008-05-28T14:46:06+02:00</time>
      </trkpt>
      <trkpt lat="41.77378" lon="9.05722">
        <ele>951</ele>
        <time>2008-05-28T14:46:12+02:00</time>
      </trkpt>
      <trkpt lat="41.77362" lon="9.05721">
        <ele>951</ele>
        <time>2008-05-28T14:46:19+02:00</time>
      </trkpt>
      <trkpt lat="41.77352" lon="9.05721">
        <ele>951</ele>
        <time>2008-05-28T14:46:24+02:00</time>
      </trkpt>
      <trkpt lat="41.77352" lon="9.0573">
        <ele>951</ele>
        <time>2008-05-28T14:46:29+02:00</time>
      </trkpt>
      <trkpt lat="41.77364" lon="9.05733">
        <ele>952</ele>
        <time>2008-05-28T14:46:35+02:00</time>
      </trkpt>
      <trkpt lat="41.77381" lon="9.0574">
        <ele>952</ele>
        <time>2008-05-28T14:46:42+02:00</time>
      </trkpt>
      <trkpt lat="41.77396" lon="9.05749">
        <ele>954</ele>
        <time>2008-05-28T14:46:49+02:00</time>
      </trkpt>
      <trkpt lat="41.77409" lon="9.05764">
        <ele>958</ele>
        <time>2008-05-28T14:46:56+02:00</time>
      </trkpt>
      <trkpt lat="41.77414" lon="9.05781">
        <ele>959</ele>
        <time>2008-05-28T14:47:01+02:00</time>
      </trkpt>
      <trkpt lat="41.77428" lon="9.05791">
        <ele>965</ele>
        <time>2008-05-28T14:47:08+02:00</time>
      </trkpt>
      <trkpt lat="41.77436" lon="9.05804">
        <ele>967</ele>
        <time>2008-05-28T14:47:13+02:00</time>
      </trkpt>
      <trkpt lat="41.77448" lon="9.05811">
        <ele>967</ele>
        <time>2008-05-28T14:47:18+02:00</time>
      </trkpt>
      <trkpt lat="41.77459" lon="9.05812">
        <ele>967</ele>
        <time>2008-05-28T14:47:23+02:00</time>
      </trkpt>
      <trkpt lat="41.7748" lon="9.0582">
        <ele>968</ele>
        <time>2008-05-28T14:47:31+02:00</time>
      </trkpt>
      <trkpt lat="41.77491" lon="9.05814">
        <ele>968</ele>
        <time>2008-05-28T14:47:36+02:00</time>
      </trkpt>
      <trkpt lat="41.77496" lon="9.05797">
        <ele>967</ele>
        <time>2008-05-28T14:47:41+02:00</time>
      </trkpt>
      <trkpt lat="41.77504" lon="9.05781">
        <ele>970</ele>
        <time>2008-05-28T14:47:47+02:00</time>
      </trkpt>
      <trkpt lat="41.77513" lon="9.05773">
        <ele>970</ele>
        <time>2008-05-28T14:47:53+02:00</time>
      </trkpt>
      <trkpt lat="41.77514" lon="9.05773">
        <ele>970</ele>
        <time>2008-05-28T14:47:58+02:00</time>
      </trkpt>
      <trkpt lat="41.77517" lon="9.05776">
        <ele>970</ele>
        <time>2008-05-28T14:48:04+02:00</time>
      </trkpt>
      <trkpt lat="41.77516" lon="9.05781">
        <ele>970</ele>
        <time>2008-05-28T14:48:12+02:00</time>
      </trkpt>
      <trkpt lat="41.77516" lon="9.05782">
        <ele>970</ele>
        <time>2008-05-28T14:48:39+02:00</time>
      </trkpt>
      <trkpt lat="41.77516" lon="9.05782">
        <ele>970</ele>
        <time>2008-05-28T14:49:00+02:00</time>
      </trkpt>
      <trkpt lat="41.77517" lon="9.05779">
        <ele>970</ele>
        <time>2008-05-28T14:49:05+02:00</time>
      </trkpt>
      <trkpt lat="41.77517" lon="9.0578">
        <ele>970</ele>
        <time>2008-05-28T14:49:06+02:00</time>
      </trkpt>
      <trkpt lat="41.77517" lon="9.0578">
        <ele>970</ele>
        <time>2008-05-28T14:49:09+02:00</time>
      </trkpt>
      <trkpt lat="41.77515" lon="9.05772">
        <ele>970</ele>
        <time>2008-05-28T14:49:21+02:00</time>
      </trkpt>
      <trkpt lat="41.77515" lon="9.05769">
        <ele>970</ele>
        <time>2008-05-28T14:49:28+02:00</time>
      </trkpt>
      <trkpt lat="41.77515" lon="9.05769">
        <ele>970</ele>
        <time>2008-05-28T14:49:38+02:00</time>
      </trkpt>
      <trkpt lat="41.77514" lon="9.0577">
        <ele>970</ele>
        <time>2008-05-28T14:49:45+02:00</time>
      </trkpt>
      <trkpt lat="41.77516" lon="9.05771">
        <ele>970</ele>
        <time>2008-05-28T14:50:03+02:00</time>
      </trkpt>
      <trkpt lat="41.77513" lon="9.05771">
        <ele>970</ele>
        <time>2008-05-28T14:50:16+02:00</time>
      </trkpt>
      <trkpt lat="41.77512" lon="9.0577">
        <ele>970</ele>
        <time>2008-05-28T14:50:22+02:00</time>
      </trkpt>
      <trkpt lat="41.77512" lon="9.0577">
        <ele>970</ele>
        <time>2008-05-28T14:50:29+02:00</time>
      </trkpt>
      <trkpt lat="41.77512" lon="9.0577">
        <ele>970</ele>
        <time>2008-05-28T14:50:44+02:00</time>
      </trkpt>
      <trkpt lat="41.77514" lon="9.05769">
        <ele>970</ele>
        <time>2008-05-28T14:50:50+02:00</time>
      </trkpt>
      <trkpt lat="41.77514" lon="9.05769">
        <ele>970</ele>
        <time>2008-05-28T14:50:57+02:00</time>
      </trkpt>
      <trkpt lat="41.77513" lon="9.05771">
        <ele>970</ele>
        <time>2008-05-28T14:51:18+02:00</time>
      </trkpt>
      <trkpt lat="41.77513" lon="9.05771">
        <ele>970</ele>
        <time>2008-05-28T14:51:25+02:00</time>
      </trkpt>
      <trkpt lat="41.77513" lon="9.05772">
        <ele>970</ele>
        <time>2008-05-28T14:51:47+02:00</time>
      </trkpt>
      <trkpt lat="41.77515" lon="9.05771">
        <ele>970</ele>
        <time>2008-05-28T14:51:58+02:00</time>
      </trkpt>
      <trkpt lat="41.77515" lon="9.05769">
        <ele>970</ele>
        <time>2008-05-28T14:52:16+02:00</time>
      </trkpt>
      <trkpt lat="41.77515" lon="9.05769">
        <ele>970</ele>
        <time>2008-05-28T14:52:34+02:00</time>
      </trkpt>
      <trkpt lat="41.77516" lon="9.05767">
        <ele>970</ele>
        <time>2008-05-28T14:53:09+02:00</time>
      </trkpt>
      <trkpt lat="41.77517" lon="9.0577">
        <ele>970</ele>
        <time>2008-05-28T14:53:13+02:00</time>
      </trkpt>
      <trkpt lat="41.77514" lon="9.05775">
        <ele>970</ele>
        <time>2008-05-28T14:53:18+02:00</time>
      </trkpt>
      <trkpt lat="41.77515" lon="9.05776">
        <ele>970</ele>
        <time>2008-05-28T14:53:22+02:00</time>
      </trkpt>
      <trkpt lat="41.77514" lon="9.05772">
        <ele>970</ele>
        <time>2008-05-28T14:53:40+02:00</time>
      </trkpt>
      <trkpt lat="41.77514" lon="9.05772">
        <ele>970</ele>
        <time>2008-05-28T14:53:48+02:00</time>
      </trkpt>
      <trkpt lat="41.77516" lon="9.05772">
        <ele>970</ele>
        <time>2008-05-28T14:53:59+02:00</time>
      </trkpt>
      <trkpt lat="41.77517" lon="9.05771">
        <ele>970</ele>
        <time>2008-05-28T14:54:05+02:00</time>
      </trkpt>
      <trkpt lat="41.77513" lon="9.0577">
        <ele>970</ele>
        <time>2008-05-28T14:54:19+02:00</time>
      </trkpt>
      <trkpt lat="41.77513" lon="9.05773">
        <ele>970</ele>
        <time>2008-05-28T14:54:29+02:00</time>
      </trkpt>
      <trkpt lat="41.77513" lon="9.05773">
        <ele>970</ele>
        <time>2008-05-28T14:54:44+02:00</time>
      </trkpt>
      <trkpt lat="41.77515" lon="9.05774">
        <ele>970</ele>
        <time>2008-05-28T14:54:57+02:00</time>
      </trkpt>
      <trkpt lat="41.77513" lon="9.05772">
        <ele>970</ele>
        <time>2008-05-28T14:55:21+02:00</time>
      </trkpt>
      <trkpt lat="41.77514" lon="9.05772">
        <ele>970</ele>
        <time>2008-05-28T14:55:28+02:00</time>
      </trkpt>
      <trkpt lat="41.77514" lon="9.05771">
        <ele>970</ele>
        <time>2008-05-28T14:55:43+02:00</time>
      </trkpt>
      <trkpt lat="41.77515" lon="9.05772">
        <ele>970</ele>
        <time>2008-05-28T14:55:56+02:00</time>
      </trkpt>
      <trkpt lat="41.77516" lon="9.05772">
        <ele>970</ele>
        <time>2008-05-28T14:56:01+02:00</time>
      </trkpt>
      <trkpt lat="41.77516" lon="9.05773">
        <ele>970</ele>
        <time>2008-05-28T14:56:11+02:00</time>
      </trkpt>
      <trkpt lat="41.77518" lon="9.05772">
        <ele>970</ele>
        <time>2008-05-28T14:56:19+02:00</time>
      </trkpt>
      <trkpt lat="41.77517" lon="9.05773">
        <ele>970</ele>
        <time>2008-05-28T14:56:34+02:00</time>
      </trkpt>
      <trkpt lat="41.77517" lon="9.05773">
        <ele>970</ele>
        <time>2008-05-28T14:56:43+02:00</time>
      </trkpt>
      <trkpt lat="41.77518" lon="9.05772">
        <ele>970</ele>
        <time>2008-05-28T14:58:06+02:00</time>
      </trkpt>
      <trkpt lat="41.77518" lon="9.05771">
        <ele>970</ele>
        <time>2008-05-28T14:58:29+02:00</time>
      </trkpt>
      <trkpt lat="41.77521" lon="9.05771">
        <ele>970</ele>
        <time>2008-05-28T14:58:35+02:00</time>
      </trkpt>
      <trkpt lat="41.77531" lon="9.05774">
        <ele>971</ele>
        <time>2008-05-28T14:58:41+02:00</time>
      </trkpt>
      <trkpt lat="41.77548" lon="9.05783">
        <ele>972</ele>
        <time>2008-05-28T14:58:47+02:00</time>
      </trkpt>
      <trkpt lat="41.7757" lon="9.05793">
        <ele>971</ele>
        <time>2008-05-28T14:58:54+02:00</time>
      </trkpt>
      <trkpt lat="41.77596" lon="9.05803">
        <ele>972</ele>
        <time>2008-05-28T14:59:01+02:00</time>
      </trkpt>
      <trkpt lat="41.77622" lon="9.05813">
        <ele>972</ele>
        <time>2008-05-28T14:59:07+02:00</time>
      </trkpt>
      <trkpt lat="41.77652" lon="9.05825">
        <ele>968</ele>
        <time>2008-05-28T14:59:12+02:00</time>
      </trkpt>
      <trkpt lat="41.77664" lon="9.05829">
        <ele>964</ele>
        <time>2008-05-28T14:59:14+02:00</time>
      </trkpt>
      <trkpt lat="41.7769" lon="9.05849">
        <ele>952</ele>
        <time>2008-05-28T14:59:19+02:00</time>
      </trkpt>
      <trkpt lat="41.77707" lon="9.05854">
        <ele>951</ele>
        <time>2008-05-28T14:59:22+02:00</time>
      </trkpt>
      <trkpt lat="41.77736" lon="9.0587">
        <ele>949</ele>
        <time>2008-05-28T14:59:27+02:00</time>
      </trkpt>
      <trkpt lat="41.7774" lon="9.05874">
        <ele>948</ele>
        <time>2008-05-28T14:59:28+02:00</time>
      </trkpt>
      <trkpt lat="41.7776" lon="9.05878">
        <ele>952</ele>
        <time>2008-05-28T14:59:33+02:00</time>
      </trkpt>
      <trkpt lat="41.77766" lon="9.05869">
        <ele>955</ele>
        <time>2008-05-28T14:59:35+02:00</time>
      </trkpt>
      <trkpt lat="41.77785" lon="9.05853">
        <ele>958</ele>
        <time>2008-05-28T14:59:40+02:00</time>
      </trkpt>
      <trkpt lat="41.778" lon="9.05862">
        <ele>958</ele>
        <time>2008-05-28T14:59:43+02:00</time>
      </trkpt>
      <trkpt lat="41.77834" lon="9.05891">
        <ele>960</ele>
        <time>2008-05-28T14:59:50+02:00</time>
      </trkpt>
      <trkpt lat="41.77843" lon="9.05901">
        <ele>957</ele>
        <time>2008-05-28T14:59:52+02:00</time>
      </trkpt>
      <trkpt lat="41.77856" lon="9.0592">
        <ele>943</ele>
        <time>2008-05-28T14:59:55+02:00</time>
      </trkpt>
      <trkpt lat="41.77882" lon="9.05943">
        <ele>945</ele>
        <time>2008-05-28T15:00:00+02:00</time>
      </trkpt>
      <trkpt lat="41.77893" lon="9.0595">
        <ele>946</ele>
        <time>2008-05-28T15:00:02+02:00</time>
      </trkpt>
      <trkpt lat="41.77906" lon="9.05954">
        <ele>947</ele>
        <time>2008-05-28T15:00:04+02:00</time>
      </trkpt>
      <trkpt lat="41.77918" lon="9.05967">
        <ele>965</ele>
        <time>2008-05-28T15:00:08+02:00</time>
      </trkpt>
      <trkpt lat="41.77918" lon="9.05973">
        <ele>964</ele>
        <time>2008-05-28T15:00:09+02:00</time>
      </trkpt>
      <trkpt lat="41.77919" lon="9.06011">
        <ele>951</ele>
        <time>2008-05-28T15:00:15+02:00</time>
      </trkpt>
      <trkpt lat="41.7792" lon="9.06057">
        <ele>950</ele>
        <time>2008-05-28T15:00:21+02:00</time>
      </trkpt>
      <trkpt lat="41.77926" lon="9.06096">
        <ele>938</ele>
        <time>2008-05-28T15:00:26+02:00</time>
      </trkpt>
      <trkpt lat="41.77938" lon="9.06135">
        <ele>938</ele>
        <time>2008-05-28T15:00:31+02:00</time>
      </trkpt>
      <trkpt lat="41.77957" lon="9.06184">
        <ele>925</ele>
        <time>2008-05-28T15:00:37+02:00</time>
      </trkpt>
      <trkpt lat="41.77968" lon="9.06217">
        <ele>923</ele>
        <time>2008-05-28T15:00:41+02:00</time>
      </trkpt>
      <trkpt lat="41.7797" lon="9.0624">
        <ele>921</ele>
        <time>2008-05-28T15:00:44+02:00</time>
      </trkpt>
      <trkpt lat="41.77981" lon="9.06264">
        <ele>908</ele>
        <time>2008-05-28T15:00:48+02:00</time>
      </trkpt>
      <trkpt lat="41.77986" lon="9.06269">
        <ele>908</ele>
        <time>2008-05-28T15:00:49+02:00</time>
      </trkpt>
      <trkpt lat="41.78039" lon="9.06295">
        <ele>916</ele>
        <time>2008-05-28T15:00:58+02:00</time>
      </trkpt>
      <trkpt lat="41.78049" lon="9.063">
        <ele>916</ele>
        <time>2008-05-28T15:01:00+02:00</time>
      </trkpt>
      <trkpt lat="41.78075" lon="9.063">
        <ele>918</ele>
        <time>2008-05-28T15:01:05+02:00</time>
      </trkpt>
      <trkpt lat="41.78091" lon="9.06306">
        <ele>927</ele>
        <time>2008-05-28T15:01:08+02:00</time>
      </trkpt>
      <trkpt lat="41.781" lon="9.06315">
        <ele>925</ele>
        <time>2008-05-28T15:01:10+02:00</time>
      </trkpt>
      <trkpt lat="41.7812" lon="9.06336">
        <ele>911</ele>
        <time>2008-05-28T15:01:14+02:00</time>
      </trkpt>
      <trkpt lat="41.78132" lon="9.06352">
        <ele>912</ele>
        <time>2008-05-28T15:01:17+02:00</time>
      </trkpt>
      <trkpt lat="41.78154" lon="9.06367">
        <ele>913</ele>
        <time>2008-05-28T15:01:21+02:00</time>
      </trkpt>
      <trkpt lat="41.78166" lon="9.06371">
        <ele>913</ele>
        <time>2008-05-28T15:01:23+02:00</time>
      </trkpt>
      <trkpt lat="41.78179" lon="9.06382">
        <ele>927</ele>
        <time>2008-05-28T15:01:28+02:00</time>
      </trkpt>
      <trkpt lat="41.78171" lon="9.06393">
        <ele>924</ele>
        <time>2008-05-28T15:01:31+02:00</time>
      </trkpt>
      <trkpt lat="41.78159" lon="9.06404">
        <ele>910</ele>
        <time>2008-05-28T15:01:34+02:00</time>
      </trkpt>
      <trkpt lat="41.7814" lon="9.06422">
        <ele>901</ele>
        <time>2008-05-28T15:01:38+02:00</time>
      </trkpt>
      <trkpt lat="41.78117" lon="9.06441">
        <ele>896</ele>
        <time>2008-05-28T15:01:43+02:00</time>
      </trkpt>
      <trkpt lat="41.78113" lon="9.06468">
        <ele>894</ele>
        <time>2008-05-28T15:01:47+02:00</time>
      </trkpt>
      <trkpt lat="41.78119" lon="9.06485">
        <ele>894</ele>
        <time>2008-05-28T15:01:50+02:00</time>
      </trkpt>
      <trkpt lat="41.78132" lon="9.06497">
        <ele>897</ele>
        <time>2008-05-28T15:01:53+02:00</time>
      </trkpt>
      <trkpt lat="41.78151" lon="9.06529">
        <ele>889</ele>
        <time>2008-05-28T15:01:58+02:00</time>
      </trkpt>
      <trkpt lat="41.78155" lon="9.06546">
        <ele>887</ele>
        <time>2008-05-28T15:02:00+02:00</time>
      </trkpt>
      <trkpt lat="41.78172" lon="9.06574">
        <ele>892</ele>
        <time>2008-05-28T15:02:04+02:00</time>
      </trkpt>
      <trkpt lat="41.78195" lon="9.06583">
        <ele>898</ele>
        <time>2008-05-28T15:02:08+02:00</time>
      </trkpt>
      <trkpt lat="41.78206" lon="9.06581">
        <ele>901</ele>
        <time>2008-05-28T15:02:10+02:00</time>
      </trkpt>
      <trkpt lat="41.78235" lon="9.06588">
        <ele>891</ele>
        <time>2008-05-28T15:02:15+02:00</time>
      </trkpt>
      <trkpt lat="41.78239" lon="9.06594">
        <ele>891</ele>
        <time>2008-05-28T15:02:16+02:00</time>
      </trkpt>
      <trkpt lat="41.78248" lon="9.06605">
        <ele>888</ele>
        <time>2008-05-28T15:02:18+02:00</time>
      </trkpt>
      <trkpt lat="41.7832" lon="9.06668">
        <ele>886</ele>
        <time>2008-05-28T15:02:32+02:00</time>
      </trkpt>
      <trkpt lat="41.78369" lon="9.06711">
        <ele>893</ele>
        <time>2008-05-28T15:02:41+02:00</time>
      </trkpt>
      <trkpt lat="41.78398" lon="9.06748">
        <ele>893</ele>
        <time>2008-05-28T15:02:50+02:00</time>
      </trkpt>
      <trkpt lat="41.7839" lon="9.06746">
        <ele>892</ele>
        <time>2008-05-28T15:02:54+02:00</time>
      </trkpt>
      <trkpt lat="41.78376" lon="9.06724">
        <ele>892</ele>
        <time>2008-05-28T15:02:58+02:00</time>
      </trkpt>
      <trkpt lat="41.78362" lon="9.06713">
        <ele>891</ele>
        <time>2008-05-28T15:03:01+02:00</time>
      </trkpt>
      <trkpt lat="41.78329" lon="9.06691">
        <ele>880</ele>
        <time>2008-05-28T15:03:07+02:00</time>
      </trkpt>
      <trkpt lat="41.78304" lon="9.06678">
        <ele>878</ele>
        <time>2008-05-28T15:03:11+02:00</time>
      </trkpt>
      <trkpt lat="41.78283" lon="9.06675">
        <ele>874</ele>
        <time>2008-05-28T15:03:14+02:00</time>
      </trkpt>
      <trkpt lat="41.7826" lon="9.06659">
        <ele>883</ele>
        <time>2008-05-28T15:03:18+02:00</time>
      </trkpt>
      <trkpt lat="41.78254" lon="9.06652">
        <ele>885</ele>
        <time>2008-05-28T15:03:19+02:00</time>
      </trkpt>
      <trkpt lat="41.78243" lon="9.06639">
        <ele>879</ele>
        <time>2008-05-28T15:03:21+02:00</time>
      </trkpt>
      <trkpt lat="41.7821" lon="9.0662">
        <ele>880</ele>
        <time>2008-05-28T15:03:26+02:00</time>
      </trkpt>
      <trkpt lat="41.78202" lon="9.06621">
        <ele>879</ele>
        <time>2008-05-28T15:03:27+02:00</time>
      </trkpt>
      <trkpt lat="41.78151" lon="9.06624">
        <ele>866</ele>
        <time>2008-05-28T15:03:34+02:00</time>
      </trkpt>
      <trkpt lat="41.78138" lon="9.06623">
        <ele>865</ele>
        <time>2008-05-28T15:03:36+02:00</time>
      </trkpt>
      <trkpt lat="41.78117" lon="9.06602">
        <ele>865</ele>
        <time>2008-05-28T15:03:40+02:00</time>
      </trkpt>
      <trkpt lat="41.78101" lon="9.06581">
        <ele>873</ele>
        <time>2008-05-28T15:03:43+02:00</time>
      </trkpt>
      <trkpt lat="41.78068" lon="9.06539">
        <ele>865</ele>
        <time>2008-05-28T15:03:49+02:00</time>
      </trkpt>
      <trkpt lat="41.78055" lon="9.06515">
        <ele>867</ele>
        <time>2008-05-28T15:03:52+02:00</time>
      </trkpt>
      <trkpt lat="41.78033" lon="9.06502">
        <ele>863</ele>
        <time>2008-05-28T15:03:56+02:00</time>
      </trkpt>
      <trkpt lat="41.78002" lon="9.06492">
        <ele>862</ele>
        <time>2008-05-28T15:04:01+02:00</time>
      </trkpt>
      <trkpt lat="41.77993" lon="9.06473">
        <ele>854</ele>
        <time>2008-05-28T15:04:05+02:00</time>
      </trkpt>
      <trkpt lat="41.78" lon="9.06451">
        <ele>868</ele>
        <time>2008-05-28T15:04:09+02:00</time>
      </trkpt>
      <trkpt lat="41.7801" lon="9.06436">
        <ele>868</ele>
        <time>2008-05-28T15:04:12+02:00</time>
      </trkpt>
      <trkpt lat="41.78013" lon="9.06418">
        <ele>867</ele>
        <time>2008-05-28T15:04:16+02:00</time>
      </trkpt>
      <trkpt lat="41.78" lon="9.06409">
        <ele>865</ele>
        <time>2008-05-28T15:04:19+02:00</time>
      </trkpt>
      <trkpt lat="41.77989" lon="9.06404">
        <ele>866</ele>
        <time>2008-05-28T15:04:21+02:00</time>
      </trkpt>
      <trkpt lat="41.77944" lon="9.06395">
        <ele>863</ele>
        <time>2008-05-28T15:04:28+02:00</time>
      </trkpt>
      <trkpt lat="41.77916" lon="9.06406">
        <ele>848</ele>
        <time>2008-05-28T15:04:32+02:00</time>
      </trkpt>
      <trkpt lat="41.7789" lon="9.06418">
        <ele>839</ele>
        <time>2008-05-28T15:04:36+02:00</time>
      </trkpt>
      <trkpt lat="41.77877" lon="9.06412">
        <ele>847</ele>
        <time>2008-05-28T15:04:40+02:00</time>
      </trkpt>
      <trkpt lat="41.77867" lon="9.06393">
        <ele>848</ele>
        <time>2008-05-28T15:04:43+02:00</time>
      </trkpt>
      <trkpt lat="41.77851" lon="9.0638">
        <ele>848</ele>
        <time>2008-05-28T15:04:46+02:00</time>
      </trkpt>
      <trkpt lat="41.77846" lon="9.06375">
        <ele>848</ele>
        <time>2008-05-28T15:04:47+02:00</time>
      </trkpt>
      <trkpt lat="41.77802" lon="9.06307">
        <ele>849</ele>
        <time>2008-05-28T15:04:55+02:00</time>
      </trkpt>
      <trkpt lat="41.77785" lon="9.06277">
        <ele>849</ele>
        <time>2008-05-28T15:04:59+02:00</time>
      </trkpt>
      <trkpt lat="41.77773" lon="9.06267">
        <ele>848</ele>
        <time>2008-05-28T15:05:03+02:00</time>
      </trkpt>
      <trkpt lat="41.77769" lon="9.06279">
        <ele>848</ele>
        <time>2008-05-28T15:05:06+02:00</time>
      </trkpt>
      <trkpt lat="41.77761" lon="9.0631">
        <ele>846</ele>
        <time>2008-05-28T15:05:09+02:00</time>
      </trkpt>
      <trkpt lat="41.77762" lon="9.0635">
        <ele>844</ele>
        <time>2008-05-28T15:05:13+02:00</time>
      </trkpt>
      <trkpt lat="41.77767" lon="9.06383">
        <ele>844</ele>
        <time>2008-05-28T15:05:16+02:00</time>
      </trkpt>
      <trkpt lat="41.77775" lon="9.06435">
        <ele>839</ele>
        <time>2008-05-28T15:05:21+02:00</time>
      </trkpt>
      <trkpt lat="41.77774" lon="9.06497">
        <ele>837</ele>
        <time>2008-05-28T15:05:27+02:00</time>
      </trkpt>
      <trkpt lat="41.77775" lon="9.06518">
        <ele>828</ele>
        <time>2008-05-28T15:05:29+02:00</time>
      </trkpt>
      <trkpt lat="41.77761" lon="9.06564">
        <ele>822</ele>
        <time>2008-05-28T15:05:34+02:00</time>
      </trkpt>
      <trkpt lat="41.77735" lon="9.06589">
        <ele>813</ele>
        <time>2008-05-28T15:05:38+02:00</time>
      </trkpt>
      <trkpt lat="41.7772" lon="9.06592">
        <ele>812</ele>
        <time>2008-05-28T15:05:40+02:00</time>
      </trkpt>
      <trkpt lat="41.77659" lon="9.06612">
        <ele>809</ele>
        <time>2008-05-28T15:05:47+02:00</time>
      </trkpt>
      <trkpt lat="41.77628" lon="9.0661">
        <ele>807</ele>
        <time>2008-05-28T15:05:51+02:00</time>
      </trkpt>
      <trkpt lat="41.77583" lon="9.06587">
        <ele>810</ele>
        <time>2008-05-28T15:05:57+02:00</time>
      </trkpt>
      <trkpt lat="41.7756" lon="9.06578">
        <ele>815</ele>
        <time>2008-05-28T15:06:00+02:00</time>
      </trkpt>
      <trkpt lat="41.77501" lon="9.06572">
        <ele>807</ele>
        <time>2008-05-28T15:06:07+02:00</time>
      </trkpt>
      <trkpt lat="41.77439" lon="9.06571">
        <ele>805</ele>
        <time>2008-05-28T15:06:14+02:00</time>
      </trkpt>
      <trkpt lat="41.77414" lon="9.06571">
        <ele>798</ele>
        <time>2008-05-28T15:06:17+02:00</time>
      </trkpt>
      <trkpt lat="41.77383" lon="9.0658">
        <ele>798</ele>
        <time>2008-05-28T15:06:21+02:00</time>
      </trkpt>
      <trkpt lat="41.77362" lon="9.06593">
        <ele>785</ele>
        <time>2008-05-28T15:06:24+02:00</time>
      </trkpt>
      <trkpt lat="41.77341" lon="9.06592">
        <ele>787</ele>
        <time>2008-05-28T15:06:28+02:00</time>
      </trkpt>
      <trkpt lat="41.77333" lon="9.06579">
        <ele>790</ele>
        <time>2008-05-28T15:06:30+02:00</time>
      </trkpt>
      <trkpt lat="41.7731" lon="9.06548">
        <ele>788</ele>
        <time>2008-05-28T15:06:35+02:00</time>
      </trkpt>
      <trkpt lat="41.77303" lon="9.06546">
        <ele>788</ele>
        <time>2008-05-28T15:06:36+02:00</time>
      </trkpt>
      <trkpt lat="41.7729" lon="9.06542">
        <ele>787</ele>
        <time>2008-05-28T15:06:38+02:00</time>
      </trkpt>
      <trkpt lat="41.77249" lon="9.06513">
        <ele>778</ele>
        <time>2008-05-28T15:06:44+02:00</time>
      </trkpt>
      <trkpt lat="41.77235" lon="9.06499">
        <ele>785</ele>
        <time>2008-05-28T15:06:47+02:00</time>
      </trkpt>
      <trkpt lat="41.77225" lon="9.06487">
        <ele>784</ele>
        <time>2008-05-28T15:06:51+02:00</time>
      </trkpt>
      <trkpt lat="41.77221" lon="9.06479">
        <ele>783</ele>
        <time>2008-05-28T15:06:57+02:00</time>
      </trkpt>
      <trkpt lat="41.77221" lon="9.06481">
        <ele>783</ele>
        <time>2008-05-28T15:07:02+02:00</time>
      </trkpt>
      <trkpt lat="41.77222" lon="9.06485">
        <ele>783</ele>
        <time>2008-05-28T15:07:09+02:00</time>
      </trkpt>
      <trkpt lat="41.77227" lon="9.06489">
        <ele>784</ele>
        <time>2008-05-28T15:07:16+02:00</time>
      </trkpt>
      <trkpt lat="41.77227" lon="9.06491">
        <ele>784</ele>
        <time>2008-05-28T15:07:23+02:00</time>
      </trkpt>
      <trkpt lat="41.77228" lon="9.06491">
        <ele>784</ele>
        <time>2008-05-28T15:07:30+02:00</time>
      </trkpt>
      <trkpt lat="41.77226" lon="9.06488">
        <ele>784</ele>
        <time>2008-05-28T15:07:40+02:00</time>
      </trkpt>
      <trkpt lat="41.77225" lon="9.06487">
        <ele>783</ele>
        <time>2008-05-28T15:07:46+02:00</time>
      </trkpt>
      <trkpt lat="41.77225" lon="9.06488">
        <ele>783</ele>
        <time>2008-05-28T15:07:52+02:00</time>
      </trkpt>
      <trkpt lat="41.77224" lon="9.06486">
        <ele>783</ele>
        <time>2008-05-28T15:08:05+02:00</time>
      </trkpt>
      <trkpt lat="41.77223" lon="9.06486">
        <ele>783</ele>
        <time>2008-05-28T15:08:19+02:00</time>
      </trkpt>
      <trkpt lat="41.77224" lon="9.06486">
        <ele>783</ele>
        <time>2008-05-28T15:08:30+02:00</time>
      </trkpt>
      <trkpt lat="41.77223" lon="9.06484">
        <ele>783</ele>
        <time>2008-05-28T15:08:38+02:00</time>
      </trkpt>
      <trkpt lat="41.77222" lon="9.06484">
        <ele>783</ele>
        <time>2008-05-28T15:08:42+02:00</time>
      </trkpt>
      <trkpt lat="41.77224" lon="9.06482">
        <ele>783</ele>
        <time>2008-05-28T15:08:58+02:00</time>
      </trkpt>
      <trkpt lat="41.77224" lon="9.06484">
        <ele>783</ele>
        <time>2008-05-28T15:09:05+02:00</time>
      </trkpt>
      <trkpt lat="41.77223" lon="9.06485">
        <ele>783</ele>
        <time>2008-05-28T15:09:14+02:00</time>
      </trkpt>
      <trkpt lat="41.77219" lon="9.06482">
        <ele>783</ele>
        <time>2008-05-28T15:09:20+02:00</time>
      </trkpt>
      <trkpt lat="41.77217" lon="9.06477">
        <ele>783</ele>
        <time>2008-05-28T15:09:26+02:00</time>
      </trkpt>
      <trkpt lat="41.77216" lon="9.06475">
        <ele>783</ele>
        <time>2008-05-28T15:09:33+02:00</time>
      </trkpt>
      <trkpt lat="41.77218" lon="9.06478">
        <ele>783</ele>
        <time>2008-05-28T15:09:44+02:00</time>
      </trkpt>
      <trkpt lat="41.77221" lon="9.06479">
        <ele>783</ele>
        <time>2008-05-28T15:09:50+02:00</time>
      </trkpt>
      <trkpt lat="41.7722" lon="9.0648">
        <ele>783</ele>
        <time>2008-05-28T15:10:00+02:00</time>
      </trkpt>
      <trkpt lat="41.77219" lon="9.06483">
        <ele>783</ele>
        <time>2008-05-28T15:10:05+02:00</time>
      </trkpt>
      <trkpt lat="41.77219" lon="9.06484">
        <ele>783</ele>
        <time>2008-05-28T15:10:11+02:00</time>
      </trkpt>
      <trkpt lat="41.77221" lon="9.06488">
        <ele>783</ele>
        <time>2008-05-28T15:10:42+02:00</time>
      </trkpt>
      <trkpt lat="41.77224" lon="9.06488">
        <ele>783</ele>
        <time>2008-05-28T15:10:55+02:00</time>
      </trkpt>
      <trkpt lat="41.77226" lon="9.06489">
        <ele>784</ele>
        <time>2008-05-28T15:11:35+02:00</time>
      </trkpt>
      <trkpt lat="41.77225" lon="9.06488">
        <ele>783</ele>
        <time>2008-05-28T15:12:19+02:00</time>
      </trkpt>
      <trkpt lat="41.77224" lon="9.06488">
        <ele>783</ele>
        <time>2008-05-28T15:12:26+02:00</time>
      </trkpt>
      <trkpt lat="41.77224" lon="9.06487">
        <ele>783</ele>
        <time>2008-05-28T15:12:38+02:00</time>
      </trkpt>
      <trkpt lat="41.77222" lon="9.06486">
        <ele>783</ele>
        <time>2008-05-28T15:12:50+02:00</time>
      </trkpt>
      <trkpt lat="41.77222" lon="9.06486">
        <ele>783</ele>
        <time>2008-05-28T15:12:57+02:00</time>
      </trkpt>
      <trkpt lat="41.77221" lon="9.06487">
        <ele>783</ele>
        <time>2008-05-28T15:13:05+02:00</time>
      </trkpt>
      <trkpt lat="41.77219" lon="9.06483">
        <ele>783</ele>
        <time>2008-05-28T15:13:11+02:00</time>
      </trkpt>
      <trkpt lat="41.77219" lon="9.06482">
        <ele>783</ele>
        <time>2008-05-28T15:13:12+02:00</time>
      </trkpt>
      <trkpt lat="41.77218" lon="9.0648">
        <ele>783</ele>
        <time>2008-05-28T15:13:17+02:00</time>
      </trkpt>
      <trkpt lat="41.77216" lon="9.06486">
        <ele>782</ele>
        <time>2008-05-28T15:13:22+02:00</time>
      </trkpt>
      <trkpt lat="41.77224" lon="9.06505">
        <ele>773</ele>
        <time>2008-05-28T15:13:28+02:00</time>
      </trkpt>
      <trkpt lat="41.77233" lon="9.06527">
        <ele>772</ele>
        <time>2008-05-28T15:13:33+02:00</time>
      </trkpt>
      <trkpt lat="41.77243" lon="9.0655">
        <ele>769</ele>
        <time>2008-05-28T15:13:37+02:00</time>
      </trkpt>
      <trkpt lat="41.77249" lon="9.06577">
        <ele>768</ele>
        <time>2008-05-28T15:13:41+02:00</time>
      </trkpt>
      <trkpt lat="41.77258" lon="9.06597">
        <ele>768</ele>
        <time>2008-05-28T15:13:44+02:00</time>
      </trkpt>
      <trkpt lat="41.77281" lon="9.06613">
        <ele>768</ele>
        <time>2008-05-28T15:13:48+02:00</time>
      </trkpt>
      <trkpt lat="41.77301" lon="9.06623">
        <ele>769</ele>
        <time>2008-05-28T15:13:51+02:00</time>
      </trkpt>
      <trkpt lat="41.77338" lon="9.06652">
        <ele>774</ele>
        <time>2008-05-28T15:13:57+02:00</time>
      </trkpt>
      <trkpt lat="41.77362" lon="9.0668">
        <ele>763</ele>
        <time>2008-05-28T15:14:01+02:00</time>
      </trkpt>
      <trkpt lat="41.77392" lon="9.06683">
        <ele>765</ele>
        <time>2008-05-28T15:14:05+02:00</time>
      </trkpt>
      <trkpt lat="41.77419" lon="9.06684">
        <ele>769</ele>
        <time>2008-05-28T15:14:08+02:00</time>
      </trkpt>
      <trkpt lat="41.77455" lon="9.06689">
        <ele>767</ele>
        <time>2008-05-28T15:14:12+02:00</time>
      </trkpt>
      <trkpt lat="41.77481" lon="9.06697">
        <ele>766</ele>
        <time>2008-05-28T15:14:15+02:00</time>
      </trkpt>
      <trkpt lat="41.77488" lon="9.06704">
        <ele>765</ele>
        <time>2008-05-28T15:14:16+02:00</time>
      </trkpt>
      <trkpt lat="41.77522" lon="9.0672">
        <ele>767</ele>
        <time>2008-05-28T15:14:21+02:00</time>
      </trkpt>
      <trkpt lat="41.77547" lon="9.06711">
        <ele>770</ele>
        <time>2008-05-28T15:14:24+02:00</time>
      </trkpt>
      <trkpt lat="41.77561" lon="9.0672">
        <ele>770</ele>
        <time>2008-05-28T15:14:26+02:00</time>
      </trkpt>
      <trkpt lat="41.77567" lon="9.06743">
        <ele>767</ele>
        <time>2008-05-28T15:14:28+02:00</time>
      </trkpt>
      <trkpt lat="41.77585" lon="9.06769">
        <ele>761</ele>
        <time>2008-05-28T15:14:31+02:00</time>
      </trkpt>
      <trkpt lat="41.77609" lon="9.06779">
        <ele>760</ele>
        <time>2008-05-28T15:14:34+02:00</time>
      </trkpt>
      <trkpt lat="41.77627" lon="9.06802">
        <ele>757</ele>
        <time>2008-05-28T15:14:37+02:00</time>
      </trkpt>
      <trkpt lat="41.77645" lon="9.06827">
        <ele>755</ele>
        <time>2008-05-28T15:14:40+02:00</time>
      </trkpt>
      <trkpt lat="41.77674" lon="9.06834">
        <ele>750</ele>
        <time>2008-05-28T15:14:44+02:00</time>
      </trkpt>
      <trkpt lat="41.77696" lon="9.0682">
        <ele>765</ele>
        <time>2008-05-28T15:14:47+02:00</time>
      </trkpt>
      <trkpt lat="41.77711" lon="9.06825">
        <ele>767</ele>
        <time>2008-05-28T15:14:49+02:00</time>
      </trkpt>
      <trkpt lat="41.77728" lon="9.06847">
        <ele>754</ele>
        <time>2008-05-28T15:14:52+02:00</time>
      </trkpt>
      <trkpt lat="41.77741" lon="9.06876">
        <ele>749</ele>
        <time>2008-05-28T15:14:55+02:00</time>
      </trkpt>
      <trkpt lat="41.77777" lon="9.06928">
        <ele>746</ele>
        <time>2008-05-28T15:15:01+02:00</time>
      </trkpt>
      <trkpt lat="41.77786" lon="9.06949">
        <ele>747</ele>
        <time>2008-05-28T15:15:03+02:00</time>
      </trkpt>
      <trkpt lat="41.77792" lon="9.06996">
        <ele>745</ele>
        <time>2008-05-28T15:15:07+02:00</time>
      </trkpt>
      <trkpt lat="41.77803" lon="9.07055">
        <ele>739</ele>
        <time>2008-05-28T15:15:12+02:00</time>
      </trkpt>
      <trkpt lat="41.77816" lon="9.07089">
        <ele>736</ele>
        <time>2008-05-28T15:15:15+02:00</time>
      </trkpt>
      <trkpt lat="41.77845" lon="9.07126">
        <ele>740</ele>
        <time>2008-05-28T15:15:19+02:00</time>
      </trkpt>
      <trkpt lat="41.77904" lon="9.07172">
        <ele>731</ele>
        <time>2008-05-28T15:15:26+02:00</time>
      </trkpt>
      <trkpt lat="41.7793" lon="9.07188">
        <ele>732</ele>
        <time>2008-05-28T15:15:29+02:00</time>
      </trkpt>
      <trkpt lat="41.77955" lon="9.07201">
        <ele>731</ele>
        <time>2008-05-28T15:15:32+02:00</time>
      </trkpt>
      <trkpt lat="41.77991" lon="9.07216">
        <ele>729</ele>
        <time>2008-05-28T15:15:36+02:00</time>
      </trkpt>
      <trkpt lat="41.78029" lon="9.07231">
        <ele>729</ele>
        <time>2008-05-28T15:15:40+02:00</time>
      </trkpt>
      <trkpt lat="41.78068" lon="9.07234">
        <ele>727</ele>
        <time>2008-05-28T15:15:44+02:00</time>
      </trkpt>
      <trkpt lat="41.78077" lon="9.0724">
        <ele>725</ele>
        <time>2008-05-28T15:15:45+02:00</time>
      </trkpt>
      <trkpt lat="41.78114" lon="9.07251">
        <ele>720</ele>
        <time>2008-05-28T15:15:49+02:00</time>
      </trkpt>
      <trkpt lat="41.78152" lon="9.07274">
        <ele>722</ele>
        <time>2008-05-28T15:15:53+02:00</time>
      </trkpt>
      <trkpt lat="41.78173" lon="9.07304">
        <ele>718</ele>
        <time>2008-05-28T15:15:56+02:00</time>
      </trkpt>
      <trkpt lat="41.78202" lon="9.07321">
        <ele>717</ele>
        <time>2008-05-28T15:15:59+02:00</time>
      </trkpt>
      <trkpt lat="41.78224" lon="9.07317">
        <ele>717</ele>
        <time>2008-05-28T15:16:01+02:00</time>
      </trkpt>
      <trkpt lat="41.78254" lon="9.07298">
        <ele>720</ele>
        <time>2008-05-28T15:16:04+02:00</time>
      </trkpt>
      <trkpt lat="41.78279" lon="9.07273">
        <ele>723</ele>
        <time>2008-05-28T15:16:07+02:00</time>
      </trkpt>
      <trkpt lat="41.78301" lon="9.07265">
        <ele>724</ele>
        <time>2008-05-28T15:16:10+02:00</time>
      </trkpt>
      <trkpt lat="41.78307" lon="9.07282">
        <ele>723</ele>
        <time>2008-05-28T15:16:12+02:00</time>
      </trkpt>
      <trkpt lat="41.7831" lon="9.07293">
        <ele>722</ele>
        <time>2008-05-28T15:16:13+02:00</time>
      </trkpt>
      <trkpt lat="41.78336" lon="9.07363">
        <ele>716</ele>
        <time>2008-05-28T15:16:20+02:00</time>
      </trkpt>
      <trkpt lat="41.7835" lon="9.07394">
        <ele>713</ele>
        <time>2008-05-28T15:16:23+02:00</time>
      </trkpt>
      <trkpt lat="41.78353" lon="9.07441">
        <ele>707</ele>
        <time>2008-05-28T15:16:27+02:00</time>
      </trkpt>
      <trkpt lat="41.78342" lon="9.07458">
        <ele>707</ele>
        <time>2008-05-28T15:16:29+02:00</time>
      </trkpt>
      <trkpt lat="41.78338" lon="9.07463">
        <ele>707</ele>
        <time>2008-05-28T15:16:30+02:00</time>
      </trkpt>
      <trkpt lat="41.7831" lon="9.07486">
        <ele>706</ele>
        <time>2008-05-28T15:16:36+02:00</time>
      </trkpt>
      <trkpt lat="41.78289" lon="9.07492">
        <ele>707</ele>
        <time>2008-05-28T15:16:40+02:00</time>
      </trkpt>
      <trkpt lat="41.78282" lon="9.0749">
        <ele>708</ele>
        <time>2008-05-28T15:16:42+02:00</time>
      </trkpt>
      <trkpt lat="41.7827" lon="9.07486">
        <ele>708</ele>
        <time>2008-05-28T15:16:46+02:00</time>
      </trkpt>
      <trkpt lat="41.78247" lon="9.07484">
        <ele>710</ele>
        <time>2008-05-28T15:16:53+02:00</time>
      </trkpt>
      <trkpt lat="41.78222" lon="9.0749">
        <ele>709</ele>
        <time>2008-05-28T15:17:01+02:00</time>
      </trkpt>
      <trkpt lat="41.78207" lon="9.07499">
        <ele>709</ele>
        <time>2008-05-28T15:17:06+02:00</time>
      </trkpt>
      <trkpt lat="41.78186" lon="9.07511">
        <ele>719</ele>
        <time>2008-05-28T15:17:13+02:00</time>
      </trkpt>
      <trkpt lat="41.78172" lon="9.07517">
        <ele>719</ele>
        <time>2008-05-28T15:17:18+02:00</time>
      </trkpt>
      <trkpt lat="41.78153" lon="9.07517">
        <ele>715</ele>
        <time>2008-05-28T15:17:24+02:00</time>
      </trkpt>
      <trkpt lat="41.78137" lon="9.07518">
        <ele>715</ele>
        <time>2008-05-28T15:17:29+02:00</time>
      </trkpt>
      <trkpt lat="41.78118" lon="9.07523">
        <ele>714</ele>
        <time>2008-05-28T15:17:36+02:00</time>
      </trkpt>
      <trkpt lat="41.78105" lon="9.07531">
        <ele>714</ele>
        <time>2008-05-28T15:17:41+02:00</time>
      </trkpt>
      <trkpt lat="41.78096" lon="9.07547">
        <ele>716</ele>
        <time>2008-05-28T15:17:47+02:00</time>
      </trkpt>
      <trkpt lat="41.78087" lon="9.07577">
        <ele>718</ele>
        <time>2008-05-28T15:17:55+02:00</time>
      </trkpt>
      <trkpt lat="41.78078" lon="9.07607">
        <ele>726</ele>
        <time>2008-05-28T15:18:04+02:00</time>
      </trkpt>
      <trkpt lat="41.78075" lon="9.07612">
        <ele>727</ele>
        <time>2008-05-28T15:18:06+02:00</time>
      </trkpt>
      <trkpt lat="41.78061" lon="9.07621">
        <ele>729</ele>
        <time>2008-05-28T15:18:12+02:00</time>
      </trkpt>
      <trkpt lat="41.7805" lon="9.07618">
        <ele>729</ele>
        <time>2008-05-28T15:18:16+02:00</time>
      </trkpt>
      <trkpt lat="41.78036" lon="9.07607">
        <ele>727</ele>
        <time>2008-05-28T15:18:22+02:00</time>
      </trkpt>
      <trkpt lat="41.7802" lon="9.07597">
        <ele>725</ele>
        <time>2008-05-28T15:18:29+02:00</time>
      </trkpt>
      <trkpt lat="41.78006" lon="9.07592">
        <ele>722</ele>
        <time>2008-05-28T15:18:35+02:00</time>
      </trkpt>
      <trkpt lat="41.77992" lon="9.07588">
        <ele>723</ele>
        <time>2008-05-28T15:18:41+02:00</time>
      </trkpt>
      <trkpt lat="41.77979" lon="9.07587">
        <ele>727</ele>
        <time>2008-05-28T15:18:46+02:00</time>
      </trkpt>
      <trkpt lat="41.77962" lon="9.07587">
        <ele>730</ele>
        <time>2008-05-28T15:18:52+02:00</time>
      </trkpt>
      <trkpt lat="41.77946" lon="9.07589">
        <ele>730</ele>
        <time>2008-05-28T15:18:58+02:00</time>
      </trkpt>
      <trkpt lat="41.77932" lon="9.07587">
        <ele>729</ele>
        <time>2008-05-28T15:19:03+02:00</time>
      </trkpt>
      <trkpt lat="41.77916" lon="9.07581">
        <ele>723</ele>
        <time>2008-05-28T15:19:09+02:00</time>
      </trkpt>
      <trkpt lat="41.77897" lon="9.07586">
        <ele>732</ele>
        <time>2008-05-28T15:19:16+02:00</time>
      </trkpt>
      <trkpt lat="41.7788" lon="9.07599">
        <ele>735</ele>
        <time>2008-05-28T15:19:23+02:00</time>
      </trkpt>
      <trkpt lat="41.7786" lon="9.07606">
        <ele>736</ele>
        <time>2008-05-28T15:19:31+02:00</time>
      </trkpt>
      <trkpt lat="41.77841" lon="9.07603">
        <ele>733</ele>
        <time>2008-05-28T15:19:37+02:00</time>
      </trkpt>
      <trkpt lat="41.77828" lon="9.07598">
        <ele>731</ele>
        <time>2008-05-28T15:19:42+02:00</time>
      </trkpt>
      <trkpt lat="41.77812" lon="9.07589">
        <ele>732</ele>
        <time>2008-05-28T15:19:48+02:00</time>
      </trkpt>
      <trkpt lat="41.77794" lon="9.07589">
        <ele>734</ele>
        <time>2008-05-28T15:19:54+02:00</time>
      </trkpt>
      <trkpt lat="41.77773" lon="9.07594">
        <ele>734</ele>
        <time>2008-05-28T15:20:01+02:00</time>
      </trkpt>
      <trkpt lat="41.77753" lon="9.07603">
        <ele>733</ele>
        <time>2008-05-28T15:20:08+02:00</time>
      </trkpt>
      <trkpt lat="41.77736" lon="9.07616">
        <ele>729</ele>
        <time>2008-05-28T15:20:15+02:00</time>
      </trkpt>
      <trkpt lat="41.77724" lon="9.07639">
        <ele>731</ele>
        <time>2008-05-28T15:20:22+02:00</time>
      </trkpt>
      <trkpt lat="41.7772" lon="9.07661">
        <ele>734</ele>
        <time>2008-05-28T15:20:28+02:00</time>
      </trkpt>
      <trkpt lat="41.77716" lon="9.07692">
        <ele>743</ele>
        <time>2008-05-28T15:20:36+02:00</time>
      </trkpt>
      <trkpt lat="41.77713" lon="9.07719">
        <ele>744</ele>
        <time>2008-05-28T15:20:43+02:00</time>
      </trkpt>
      <trkpt lat="41.77714" lon="9.07755">
        <ele>749</ele>
        <time>2008-05-28T15:20:52+02:00</time>
      </trkpt>
      <trkpt lat="41.77719" lon="9.07783">
        <ele>749</ele>
        <time>2008-05-28T15:20:59+02:00</time>
      </trkpt>
      <trkpt lat="41.77729" lon="9.07809">
        <ele>750</ele>
        <time>2008-05-28T15:21:06+02:00</time>
      </trkpt>
      <trkpt lat="41.77737" lon="9.07831">
        <ele>753</ele>
        <time>2008-05-28T15:21:12+02:00</time>
      </trkpt>
      <trkpt lat="41.77742" lon="9.07853">
        <ele>753</ele>
        <time>2008-05-28T15:21:17+02:00</time>
      </trkpt>
      <trkpt lat="41.77741" lon="9.07877">
        <ele>753</ele>
        <time>2008-05-28T15:21:24+02:00</time>
      </trkpt>
      <trkpt lat="41.77733" lon="9.07894">
        <ele>754</ele>
        <time>2008-05-28T15:21:30+02:00</time>
      </trkpt>
      <trkpt lat="41.77722" lon="9.07917">
        <ele>758</ele>
        <time>2008-05-28T15:21:37+02:00</time>
      </trkpt>
      <trkpt lat="41.77708" lon="9.07949">
        <ele>758</ele>
        <time>2008-05-28T15:21:46+02:00</time>
      </trkpt>
      <trkpt lat="41.77695" lon="9.07972">
        <ele>757</ele>
        <time>2008-05-28T15:21:53+02:00</time>
      </trkpt>
      <trkpt lat="41.77689" lon="9.07987">
        <ele>757</ele>
        <time>2008-05-28T15:21:58+02:00</time>
      </trkpt>
      <trkpt lat="41.77678" lon="9.08005">
        <ele>760</ele>
        <time>2008-05-28T15:22:04+02:00</time>
      </trkpt>
      <trkpt lat="41.77665" lon="9.08027">
        <ele>753</ele>
        <time>2008-05-28T15:22:12+02:00</time>
      </trkpt>
      <trkpt lat="41.77653" lon="9.08054">
        <ele>756</ele>
        <time>2008-05-28T15:22:20+02:00</time>
      </trkpt>
      <trkpt lat="41.77649" lon="9.08087">
        <ele>764</ele>
        <time>2008-05-28T15:22:28+02:00</time>
      </trkpt>
      <trkpt lat="41.77648" lon="9.08119">
        <ele>764</ele>
        <time>2008-05-28T15:22:36+02:00</time>
      </trkpt>
      <trkpt lat="41.77641" lon="9.08151">
        <ele>766</ele>
        <time>2008-05-28T15:22:44+02:00</time>
      </trkpt>
      <trkpt lat="41.77631" lon="9.0818">
        <ele>771</ele>
        <time>2008-05-28T15:22:52+02:00</time>
      </trkpt>
      <trkpt lat="41.77617" lon="9.08214">
        <ele>771</ele>
        <time>2008-05-28T15:23:02+02:00</time>
      </trkpt>
      <trkpt lat="41.77616" lon="9.08237">
        <ele>772</ele>
        <time>2008-05-28T15:23:08+02:00</time>
      </trkpt>
      <trkpt lat="41.77622" lon="9.08263">
        <ele>778</ele>
        <time>2008-05-28T15:23:15+02:00</time>
      </trkpt>
      <trkpt lat="41.7763" lon="9.08285">
        <ele>779</ele>
        <time>2008-05-28T15:23:21+02:00</time>
      </trkpt>
      <trkpt lat="41.77622" lon="9.08297">
        <ele>779</ele>
        <time>2008-05-28T15:23:25+02:00</time>
      </trkpt>
      <trkpt lat="41.77604" lon="9.08306">
        <ele>779</ele>
        <time>2008-05-28T15:23:31+02:00</time>
      </trkpt>
      <trkpt lat="41.77592" lon="9.083">
        <ele>778</ele>
        <time>2008-05-28T15:23:35+02:00</time>
      </trkpt>
      <trkpt lat="41.77574" lon="9.08276">
        <ele>785</ele>
        <time>2008-05-28T15:23:43+02:00</time>
      </trkpt>
      <trkpt lat="41.77549" lon="9.08247">
        <ele>780</ele>
        <time>2008-05-28T15:23:52+02:00</time>
      </trkpt>
      <trkpt lat="41.77533" lon="9.08231">
        <ele>784</ele>
        <time>2008-05-28T15:23:58+02:00</time>
      </trkpt>
      <trkpt lat="41.7752" lon="9.0821">
        <ele>784</ele>
        <time>2008-05-28T15:24:04+02:00</time>
      </trkpt>
      <trkpt lat="41.77516" lon="9.0818">
        <ele>784</ele>
        <time>2008-05-28T15:24:10+02:00</time>
      </trkpt>
      <trkpt lat="41.77513" lon="9.08141">
        <ele>775</ele>
        <time>2008-05-28T15:24:18+02:00</time>
      </trkpt>
      <trkpt lat="41.77516" lon="9.08119">
        <ele>772</ele>
        <time>2008-05-28T15:24:22+02:00</time>
      </trkpt>
      <trkpt lat="41.77508" lon="9.08091">
        <ele>775</ele>
        <time>2008-05-28T15:24:28+02:00</time>
      </trkpt>
      <trkpt lat="41.77492" lon="9.08067">
        <ele>784</ele>
        <time>2008-05-28T15:24:34+02:00</time>
      </trkpt>
      <trkpt lat="41.77471" lon="9.08035">
        <ele>786</ele>
        <time>2008-05-28T15:24:42+02:00</time>
      </trkpt>
      <trkpt lat="41.77452" lon="9.08011">
        <ele>789</ele>
        <time>2008-05-28T15:24:49+02:00</time>
      </trkpt>
      <trkpt lat="41.77427" lon="9.07984">
        <ele>790</ele>
        <time>2008-05-28T15:24:57+02:00</time>
      </trkpt>
      <trkpt lat="41.77414" lon="9.07969">
        <ele>804</ele>
        <time>2008-05-28T15:25:01+02:00</time>
      </trkpt>
      <trkpt lat="41.7741" lon="9.07944">
        <ele>805</ele>
        <time>2008-05-28T15:25:06+02:00</time>
      </trkpt>
      <trkpt lat="41.77416" lon="9.07931">
        <ele>803</ele>
        <time>2008-05-28T15:25:09+02:00</time>
      </trkpt>
      <trkpt lat="41.77438" lon="9.07902">
        <ele>797</ele>
        <time>2008-05-28T15:25:18+02:00</time>
      </trkpt>
      <trkpt lat="41.7746" lon="9.07875">
        <ele>797</ele>
        <time>2008-05-28T15:25:28+02:00</time>
      </trkpt>
      <trkpt lat="41.77477" lon="9.07846">
        <ele>797</ele>
        <time>2008-05-28T15:25:37+02:00</time>
      </trkpt>
      <trkpt lat="41.77482" lon="9.07818">
        <ele>803</ele>
        <time>2008-05-28T15:25:43+02:00</time>
      </trkpt>
      <trkpt lat="41.77482" lon="9.07787">
        <ele>805</ele>
        <time>2008-05-28T15:25:49+02:00</time>
      </trkpt>
      <trkpt lat="41.7748" lon="9.07762">
        <ele>802</ele>
        <time>2008-05-28T15:25:54+02:00</time>
      </trkpt>
      <trkpt lat="41.77479" lon="9.07738">
        <ele>803</ele>
        <time>2008-05-28T15:25:59+02:00</time>
      </trkpt>
      <trkpt lat="41.77465" lon="9.077">
        <ele>808</ele>
        <time>2008-05-28T15:26:05+02:00</time>
      </trkpt>
      <trkpt lat="41.77464" lon="9.07693">
        <ele>809</ele>
        <time>2008-05-28T15:26:06+02:00</time>
      </trkpt>
      <trkpt lat="41.77458" lon="9.07659">
        <ele>804</ele>
        <time>2008-05-28T15:26:12+02:00</time>
      </trkpt>
      <trkpt lat="41.7745" lon="9.07622">
        <ele>804</ele>
        <time>2008-05-28T15:26:19+02:00</time>
      </trkpt>
      <trkpt lat="41.77447" lon="9.07605">
        <ele>804</ele>
        <time>2008-05-28T15:26:22+02:00</time>
      </trkpt>
      <trkpt lat="41.77433" lon="9.07574">
        <ele>797</ele>
        <time>2008-05-28T15:26:28+02:00</time>
      </trkpt>
      <trkpt lat="41.77418" lon="9.07548">
        <ele>790</ele>
        <time>2008-05-28T15:26:34+02:00</time>
      </trkpt>
      <trkpt lat="41.77399" lon="9.07516">
        <ele>809</ele>
        <time>2008-05-28T15:26:42+02:00</time>
      </trkpt>
      <trkpt lat="41.77375" lon="9.0748">
        <ele>795</ele>
        <time>2008-05-28T15:26:52+02:00</time>
      </trkpt>
      <trkpt lat="41.77353" lon="9.07468">
        <ele>798</ele>
        <time>2008-05-28T15:26:59+02:00</time>
      </trkpt>
      <trkpt lat="41.77333" lon="9.0747">
        <ele>810</ele>
        <time>2008-05-28T15:27:05+02:00</time>
      </trkpt>
      <trkpt lat="41.77309" lon="9.07477">
        <ele>810</ele>
        <time>2008-05-28T15:27:12+02:00</time>
      </trkpt>
      <trkpt lat="41.77292" lon="9.07482">
        <ele>810</ele>
        <time>2008-05-28T15:27:18+02:00</time>
      </trkpt>
      <trkpt lat="41.77265" lon="9.07492">
        <ele>812</ele>
        <time>2008-05-28T15:27:27+02:00</time>
      </trkpt>
      <trkpt lat="41.77243" lon="9.07505">
        <ele>817</ele>
        <time>2008-05-28T15:27:35+02:00</time>
      </trkpt>
      <trkpt lat="41.77226" lon="9.0752">
        <ele>816</ele>
        <time>2008-05-28T15:27:41+02:00</time>
      </trkpt>
      <trkpt lat="41.77211" lon="9.07535">
        <ele>815</ele>
        <time>2008-05-28T15:27:47+02:00</time>
      </trkpt>
      <trkpt lat="41.77197" lon="9.07555">
        <ele>815</ele>
        <time>2008-05-28T15:27:54+02:00</time>
      </trkpt>
      <trkpt lat="41.77191" lon="9.07574">
        <ele>816</ele>
        <time>2008-05-28T15:28:00+02:00</time>
      </trkpt>
      <trkpt lat="41.77187" lon="9.07594">
        <ele>823</ele>
        <time>2008-05-28T15:28:06+02:00</time>
      </trkpt>
      <trkpt lat="41.77185" lon="9.07612">
        <ele>825</ele>
        <time>2008-05-28T15:28:12+02:00</time>
      </trkpt>
      <trkpt lat="41.77181" lon="9.07633">
        <ele>827</ele>
        <time>2008-05-28T15:28:18+02:00</time>
      </trkpt>
      <trkpt lat="41.77169" lon="9.07654">
        <ele>825</ele>
        <time>2008-05-28T15:28:26+02:00</time>
      </trkpt>
      <trkpt lat="41.77156" lon="9.07675">
        <ele>819</ele>
        <time>2008-05-28T15:28:33+02:00</time>
      </trkpt>
      <trkpt lat="41.77151" lon="9.07695">
        <ele>817</ele>
        <time>2008-05-28T15:28:39+02:00</time>
      </trkpt>
      <trkpt lat="41.7715" lon="9.07728">
        <ele>818</ele>
        <time>2008-05-28T15:28:47+02:00</time>
      </trkpt>
      <trkpt lat="41.77156" lon="9.07759">
        <ele>823</ele>
        <time>2008-05-28T15:28:54+02:00</time>
      </trkpt>
      <trkpt lat="41.77161" lon="9.07796">
        <ele>820</ele>
        <time>2008-05-28T15:29:02+02:00</time>
      </trkpt>
      <trkpt lat="41.77165" lon="9.07839">
        <ele>826</ele>
        <time>2008-05-28T15:29:11+02:00</time>
      </trkpt>
      <trkpt lat="41.77178" lon="9.07871">
        <ele>832</ele>
        <time>2008-05-28T15:29:19+02:00</time>
      </trkpt>
      <trkpt lat="41.7719" lon="9.07902">
        <ele>832</ele>
        <time>2008-05-28T15:29:26+02:00</time>
      </trkpt>
      <trkpt lat="41.77199" lon="9.07929">
        <ele>832</ele>
        <time>2008-05-28T15:29:32+02:00</time>
      </trkpt>
      <trkpt lat="41.77202" lon="9.07952">
        <ele>832</ele>
        <time>2008-05-28T15:29:37+02:00</time>
      </trkpt>
      <trkpt lat="41.77199" lon="9.07981">
        <ele>833</ele>
        <time>2008-05-28T15:29:44+02:00</time>
      </trkpt>
      <trkpt lat="41.77202" lon="9.07995">
        <ele>833</ele>
        <time>2008-05-28T15:29:49+02:00</time>
      </trkpt>
      <trkpt lat="41.77212" lon="9.08">
        <ele>837</ele>
        <time>2008-05-28T15:29:54+02:00</time>
      </trkpt>
      <trkpt lat="41.77214" lon="9.08001">
        <ele>837</ele>
        <time>2008-05-28T15:29:55+02:00</time>
      </trkpt>
      <trkpt lat="41.77221" lon="9.08007">
        <ele>837</ele>
        <time>2008-05-28T15:30:01+02:00</time>
      </trkpt>
      <trkpt lat="41.77225" lon="9.08003">
        <ele>836</ele>
        <time>2008-05-28T15:30:07+02:00</time>
      </trkpt>
      <trkpt lat="41.77226" lon="9.08004">
        <ele>836</ele>
        <time>2008-05-28T15:30:15+02:00</time>
      </trkpt>
      <trkpt lat="41.77228" lon="9.08001">
        <ele>836</ele>
        <time>2008-05-28T15:30:26+02:00</time>
      </trkpt>
      <trkpt lat="41.77228" lon="9.07999">
        <ele>833</ele>
        <time>2008-05-28T15:30:42+02:00</time>
      </trkpt>
      <trkpt lat="41.77231" lon="9.07998">
        <ele>833</ele>
        <time>2008-05-28T15:30:50+02:00</time>
      </trkpt>
      <trkpt lat="41.77231" lon="9.07997">
        <ele>833</ele>
        <time>2008-05-28T15:31:03+02:00</time>
      </trkpt>
      <trkpt lat="41.77231" lon="9.07995">
        <ele>833</ele>
        <time>2008-05-28T15:31:18+02:00</time>
      </trkpt>
      <trkpt lat="41.77231" lon="9.07996">
        <ele>833</ele>
        <time>2008-05-28T15:31:26+02:00</time>
      </trkpt>
      <trkpt lat="41.77231" lon="9.07997">
        <ele>833</ele>
        <time>2008-05-28T15:31:33+02:00</time>
      </trkpt>
      <trkpt lat="41.77231" lon="9.07997">
        <ele>833</ele>
        <time>2008-05-28T15:31:45+02:00</time>
      </trkpt>
      <trkpt lat="41.77231" lon="9.07996">
        <ele>833</ele>
        <time>2008-05-28T15:32:00+02:00</time>
      </trkpt>
      <trkpt lat="41.77231" lon="9.07995">
        <ele>833</ele>
        <time>2008-05-28T15:32:13+02:00</time>
      </trkpt>
      <trkpt lat="41.7723" lon="9.07993">
        <ele>833</ele>
        <time>2008-05-28T15:32:40+02:00</time>
      </trkpt>
      <trkpt lat="41.7723" lon="9.07994">
        <ele>833</ele>
        <time>2008-05-28T15:32:53+02:00</time>
      </trkpt>
      <trkpt lat="41.77231" lon="9.07993">
        <ele>833</ele>
        <time>2008-05-28T15:33:03+02:00</time>
      </trkpt>
      <trkpt lat="41.7723" lon="9.07993">
        <ele>833</ele>
        <time>2008-05-28T15:33:13+02:00</time>
      </trkpt>
      <trkpt lat="41.77231" lon="9.07996">
        <ele>833</ele>
        <time>2008-05-28T15:33:31+02:00</time>
      </trkpt>
      <trkpt lat="41.77231" lon="9.07996">
        <ele>833</ele>
        <time>2008-05-28T15:33:50+02:00</time>
      </trkpt>
      <trkpt lat="41.77232" lon="9.07996">
        <ele>833</ele>
        <time>2008-05-28T15:34:03+02:00</time>
      </trkpt>
      <trkpt lat="41.77232" lon="9.07996">
        <ele>833</ele>
        <time>2008-05-28T15:34:18+02:00</time>
      </trkpt>
      <trkpt lat="41.7723" lon="9.08004">
        <ele>836</ele>
        <time>2008-05-28T15:34:25+02:00</time>
      </trkpt>
      <trkpt lat="41.77229" lon="9.08005">
        <ele>836</ele>
        <time>2008-05-28T15:34:32+02:00</time>
      </trkpt>
      <trkpt lat="41.77227" lon="9.08005">
        <ele>836</ele>
        <time>2008-05-28T15:34:40+02:00</time>
      </trkpt>
      <trkpt lat="41.77225" lon="9.08">
        <ele>836</ele>
        <time>2008-05-28T15:34:59+02:00</time>
      </trkpt>
      <trkpt lat="41.77226" lon="9.07997">
        <ele>833</ele>
        <time>2008-05-28T15:35:06+02:00</time>
      </trkpt>
      <trkpt lat="41.77227" lon="9.07996">
        <ele>833</ele>
        <time>2008-05-28T15:35:15+02:00</time>
      </trkpt>
      <trkpt lat="41.77232" lon="9.07993">
        <ele>833</ele>
        <time>2008-05-28T15:35:31+02:00</time>
      </trkpt>
      <trkpt lat="41.77228" lon="9.07997">
        <ele>833</ele>
        <time>2008-05-28T15:35:48+02:00</time>
      </trkpt>
      <trkpt lat="41.77228" lon="9.07995">
        <ele>833</ele>
        <time>2008-05-28T15:35:59+02:00</time>
      </trkpt>
      <trkpt lat="41.77229" lon="9.07995">
        <ele>833</ele>
        <time>2008-05-28T15:36:08+02:00</time>
      </trkpt>
      <trkpt lat="41.77229" lon="9.07996">
        <ele>833</ele>
        <time>2008-05-28T15:36:19+02:00</time>
      </trkpt>
      <trkpt lat="41.77228" lon="9.07998">
        <ele>833</ele>
        <time>2008-05-28T15:36:30+02:00</time>
      </trkpt>
      <trkpt lat="41.77228" lon="9.07998">
        <ele>833</ele>
        <time>2008-05-28T15:36:46+02:00</time>
      </trkpt>
      <trkpt lat="41.77229" lon="9.07996">
        <ele>833</ele>
        <time>2008-05-28T15:37:18+02:00</time>
      </trkpt>
      <trkpt lat="41.77228" lon="9.07999">
        <ele>833</ele>
        <time>2008-05-28T15:37:27+02:00</time>
      </trkpt>
      <trkpt lat="41.77228" lon="9.08002">
        <ele>836</ele>
        <time>2008-05-28T15:37:32+02:00</time>
      </trkpt>
      <trkpt lat="41.77229" lon="9.08005">
        <ele>836</ele>
        <time>2008-05-28T15:37:44+02:00</time>
      </trkpt>
      <trkpt lat="41.77228" lon="9.08004">
        <ele>836</ele>
        <time>2008-05-28T15:37:52+02:00</time>
      </trkpt>
      <trkpt lat="41.77228" lon="9.08004">
        <ele>836</ele>
        <time>2008-05-28T15:37:57+02:00</time>
      </trkpt>
      <trkpt lat="41.77228" lon="9.08005">
        <ele>836</ele>
        <time>2008-05-28T15:38:07+02:00</time>
      </trkpt>
      <trkpt lat="41.77228" lon="9.08005">
        <ele>836</ele>
        <time>2008-05-28T15:38:48+02:00</time>
      </trkpt>
      <trkpt lat="41.77228" lon="9.08003">
        <ele>836</ele>
        <time>2008-05-28T15:38:55+02:00</time>
      </trkpt>
      <trkpt lat="41.77229" lon="9.08004">
        <ele>836</ele>
        <time>2008-05-28T15:39:19+02:00</time>
      </trkpt>
      <trkpt lat="41.77229" lon="9.08">
        <ele>836</ele>
        <time>2008-05-28T15:39:33+02:00</time>
      </trkpt>
      <trkpt lat="41.77228" lon="9.08">
        <ele>833</ele>
        <time>2008-05-28T15:39:50+02:00</time>
      </trkpt>
      <trkpt lat="41.77229" lon="9.08">
        <ele>833</ele>
        <time>2008-05-28T15:39:57+02:00</time>
      </trkpt>
      <trkpt lat="41.77228" lon="9.08001">
        <ele>836</ele>
        <time>2008-05-28T15:40:09+02:00</time>
      </trkpt>
      <trkpt lat="41.77229" lon="9.07998">
        <ele>833</ele>
        <time>2008-05-28T15:40:28+02:00</time>
      </trkpt>
      <trkpt lat="41.7723" lon="9.07999">
        <ele>833</ele>
        <time>2008-05-28T15:40:37+02:00</time>
      </trkpt>
      <trkpt lat="41.7723" lon="9.08002">
        <ele>836</ele>
        <time>2008-05-28T15:40:47+02:00</time>
      </trkpt>
      <trkpt lat="41.77229" lon="9.08004">
        <ele>836</ele>
        <time>2008-05-28T15:40:53+02:00</time>
      </trkpt>
      <trkpt lat="41.77229" lon="9.08002">
        <ele>836</ele>
        <time>2008-05-28T15:40:57+02:00</time>
      </trkpt>
      <trkpt lat="41.77221" lon="9.08003">
        <ele>836</ele>
        <time>2008-05-28T15:41:04+02:00</time>
      </trkpt>
      <trkpt lat="41.77213" lon="9.08009">
        <ele>837</ele>
        <time>2008-05-28T15:41:10+02:00</time>
      </trkpt>
      <trkpt lat="41.77199" lon="9.08025">
        <ele>838</ele>
        <time>2008-05-28T15:41:18+02:00</time>
      </trkpt>
      <trkpt lat="41.77197" lon="9.08027">
        <ele>838</ele>
        <time>2008-05-28T15:41:19+02:00</time>
      </trkpt>
      <trkpt lat="41.77195" lon="9.08029">
        <ele>838</ele>
        <time>2008-05-28T15:41:22+02:00</time>
      </trkpt>
      <trkpt lat="41.77185" lon="9.08035">
        <ele>839</ele>
        <time>2008-05-28T15:41:25+02:00</time>
      </trkpt>
      <trkpt lat="41.77171" lon="9.08034">
        <ele>839</ele>
        <time>2008-05-28T15:41:31+02:00</time>
      </trkpt>
      <trkpt lat="41.77154" lon="9.08033">
        <ele>842</ele>
        <time>2008-05-28T15:41:39+02:00</time>
      </trkpt>
      <trkpt lat="41.77138" lon="9.08033">
        <ele>843</ele>
        <time>2008-05-28T15:41:46+02:00</time>
      </trkpt>
      <trkpt lat="41.77122" lon="9.08034">
        <ele>844</ele>
        <time>2008-05-28T15:41:53+02:00</time>
      </trkpt>
      <trkpt lat="41.77104" lon="9.08031">
        <ele>844</ele>
        <time>2008-05-28T15:42:01+02:00</time>
      </trkpt>
      <trkpt lat="41.77093" lon="9.08033">
        <ele>844</ele>
        <time>2008-05-28T15:42:06+02:00</time>
      </trkpt>
      <trkpt lat="41.77094" lon="9.08037">
        <ele>844</ele>
        <time>2008-05-28T15:42:11+02:00</time>
      </trkpt>
      <trkpt lat="41.77097" lon="9.08038">
        <ele>845</ele>
        <time>2008-05-28T15:42:13+02:00</time>
      </trkpt>
      <trkpt lat="41.77113" lon="9.08044">
        <ele>845</ele>
        <time>2008-05-28T15:42:22+02:00</time>
      </trkpt>
      <trkpt lat="41.77123" lon="9.08053">
        <ele>845</ele>
        <time>2008-05-28T15:42:28+02:00</time>
      </trkpt>
      <trkpt lat="41.77136" lon="9.08059">
        <ele>846</ele>
        <time>2008-05-28T15:42:34+02:00</time>
      </trkpt>
      <trkpt lat="41.77149" lon="9.08069">
        <ele>846</ele>
        <time>2008-05-28T15:42:41+02:00</time>
      </trkpt>
      <trkpt lat="41.77163" lon="9.08078">
        <ele>848</ele>
        <time>2008-05-28T15:42:48+02:00</time>
      </trkpt>
      <trkpt lat="41.77176" lon="9.08087">
        <ele>851</ele>
        <time>2008-05-28T15:42:56+02:00</time>
      </trkpt>
      <trkpt lat="41.77178" lon="9.08087">
        <ele>851</ele>
        <time>2008-05-28T15:43:00+02:00</time>
      </trkpt>
      <trkpt lat="41.77181" lon="9.08091">
        <ele>852</ele>
        <time>2008-05-28T15:43:12+02:00</time>
      </trkpt>
      <trkpt lat="41.77182" lon="9.08092">
        <ele>852</ele>
        <time>2008-05-28T15:43:13+02:00</time>
      </trkpt>
      <trkpt lat="41.77187" lon="9.08096">
        <ele>852</ele>
        <time>2008-05-28T15:43:18+02:00</time>
      </trkpt>
      <trkpt lat="41.77188" lon="9.08098">
        <ele>852</ele>
        <time>2008-05-28T15:43:20+02:00</time>
      </trkpt>
      <trkpt lat="41.7719" lon="9.08098">
        <ele>853</ele>
        <time>2008-05-28T15:43:26+02:00</time>
      </trkpt>
      <trkpt lat="41.7719" lon="9.08099">
        <ele>853</ele>
        <time>2008-05-28T15:43:37+02:00</time>
      </trkpt>
      <trkpt lat="41.77191" lon="9.08099">
        <ele>853</ele>
        <time>2008-05-28T15:43:45+02:00</time>
      </trkpt>
      <trkpt lat="41.77198" lon="9.08109">
        <ele>853</ele>
        <time>2008-05-28T15:43:52+02:00</time>
      </trkpt>
      <trkpt lat="41.77206" lon="9.08123">
        <ele>855</ele>
        <time>2008-05-28T15:43:59+02:00</time>
      </trkpt>
      <trkpt lat="41.77215" lon="9.08132">
        <ele>855</ele>
        <time>2008-05-28T15:44:05+02:00</time>
      </trkpt>
      <trkpt lat="41.7722" lon="9.08137">
        <ele>855</ele>
        <time>2008-05-28T15:44:08+02:00</time>
      </trkpt>
      <trkpt lat="41.77226" lon="9.08137">
        <ele>855</ele>
        <time>2008-05-28T15:44:12+02:00</time>
      </trkpt>
      <trkpt lat="41.77227" lon="9.08137">
        <ele>855</ele>
        <time>2008-05-28T15:44:20+02:00</time>
      </trkpt>
      <trkpt lat="41.77227" lon="9.08138">
        <ele>855</ele>
        <time>2008-05-28T15:44:27+02:00</time>
      </trkpt>
      <trkpt lat="41.77223" lon="9.08137">
        <ele>855</ele>
        <time>2008-05-28T15:44:34+02:00</time>
      </trkpt>
      <trkpt lat="41.77223" lon="9.08138">
        <ele>855</ele>
        <time>2008-05-28T15:44:42+02:00</time>
      </trkpt>
      <trkpt lat="41.77225" lon="9.08138">
        <ele>855</ele>
        <time>2008-05-28T15:44:49+02:00</time>
      </trkpt>
      <trkpt lat="41.77225" lon="9.08137">
        <ele>855</ele>
        <time>2008-05-28T15:44:58+02:00</time>
      </trkpt>
      <trkpt lat="41.77226" lon="9.08137">
        <ele>855</ele>
        <time>2008-05-28T15:45:04+02:00</time>
      </trkpt>
      <trkpt lat="41.77227" lon="9.08138">
        <ele>855</ele>
        <time>2008-05-28T15:45:10+02:00</time>
      </trkpt>
      <trkpt lat="41.7723" lon="9.08141">
        <ele>856</ele>
        <time>2008-05-28T15:45:15+02:00</time>
      </trkpt>
      <trkpt lat="41.77233" lon="9.08142">
        <ele>856</ele>
        <time>2008-05-28T15:45:17+02:00</time>
      </trkpt>
      <trkpt lat="41.77249" lon="9.08149">
        <ele>856</ele>
        <time>2008-05-28T15:45:24+02:00</time>
      </trkpt>
      <trkpt lat="41.77262" lon="9.08161">
        <ele>854</ele>
        <time>2008-05-28T15:45:31+02:00</time>
      </trkpt>
      <trkpt lat="41.77274" lon="9.08164">
        <ele>852</ele>
        <time>2008-05-28T15:45:36+02:00</time>
      </trkpt>
      <trkpt lat="41.77291" lon="9.08162">
        <ele>850</ele>
        <time>2008-05-28T15:45:42+02:00</time>
      </trkpt>
      <trkpt lat="41.773" lon="9.0816">
        <ele>850</ele>
        <time>2008-05-28T15:45:45+02:00</time>
      </trkpt>
      <trkpt lat="41.77317" lon="9.08169">
        <ele>857</ele>
        <time>2008-05-28T15:45:50+02:00</time>
      </trkpt>
      <trkpt lat="41.77331" lon="9.08189">
        <ele>858</ele>
        <time>2008-05-28T15:45:57+02:00</time>
      </trkpt>
      <trkpt lat="41.77347" lon="9.08216">
        <ele>851</ele>
        <time>2008-05-28T15:46:05+02:00</time>
      </trkpt>
      <trkpt lat="41.77358" lon="9.08232">
        <ele>851</ele>
        <time>2008-05-28T15:46:11+02:00</time>
      </trkpt>
      <trkpt lat="41.77368" lon="9.08254">
        <ele>854</ele>
        <time>2008-05-28T15:46:18+02:00</time>
      </trkpt>
      <trkpt lat="41.77376" lon="9.08285">
        <ele>854</ele>
        <time>2008-05-28T15:46:24+02:00</time>
      </trkpt>
      <trkpt lat="41.77381" lon="9.0831">
        <ele>853</ele>
        <time>2008-05-28T15:46:28+02:00</time>
      </trkpt>
      <trkpt lat="41.77382" lon="9.08314">
        <ele>853</ele>
        <time>2008-05-28T15:46:29+02:00</time>
      </trkpt>
      <trkpt lat="41.77377" lon="9.08328">
        <ele>854</ele>
        <time>2008-05-28T15:46:34+02:00</time>
      </trkpt>
      <trkpt lat="41.77377" lon="9.08332">
        <ele>854</ele>
        <time>2008-05-28T15:46:35+02:00</time>
      </trkpt>
      <trkpt lat="41.77374" lon="9.08361">
        <ele>857</ele>
        <time>2008-05-28T15:46:43+02:00</time>
      </trkpt>
      <trkpt lat="41.77373" lon="9.08393">
        <ele>858</ele>
        <time>2008-05-28T15:46:52+02:00</time>
      </trkpt>
      <trkpt lat="41.77368" lon="9.08422">
        <ele>859</ele>
        <time>2008-05-28T15:47:00+02:00</time>
      </trkpt>
      <trkpt lat="41.77355" lon="9.08446">
        <ele>859</ele>
        <time>2008-05-28T15:47:06+02:00</time>
      </trkpt>
      <trkpt lat="41.77343" lon="9.08481">
        <ele>861</ele>
        <time>2008-05-28T15:47:13+02:00</time>
      </trkpt>
      <trkpt lat="41.77335" lon="9.08512">
        <ele>862</ele>
        <time>2008-05-28T15:47:19+02:00</time>
      </trkpt>
      <trkpt lat="41.77325" lon="9.08552">
        <ele>870</ele>
        <time>2008-05-28T15:47:27+02:00</time>
      </trkpt>
      <trkpt lat="41.77319" lon="9.08577">
        <ele>868</ele>
        <time>2008-05-28T15:47:31+02:00</time>
      </trkpt>
      <trkpt lat="41.77305" lon="9.08603">
        <ele>870</ele>
        <time>2008-05-28T15:47:38+02:00</time>
      </trkpt>
      <trkpt lat="41.7729" lon="9.08617">
        <ele>871</ele>
        <time>2008-05-28T15:47:45+02:00</time>
      </trkpt>
      <trkpt lat="41.77274" lon="9.08633">
        <ele>872</ele>
        <time>2008-05-28T15:47:54+02:00</time>
      </trkpt>
      <trkpt lat="41.77268" lon="9.08647">
        <ele>873</ele>
        <time>2008-05-28T15:48:00+02:00</time>
      </trkpt>
      <trkpt lat="41.77256" lon="9.08664">
        <ele>875</ele>
        <time>2008-05-28T15:48:10+02:00</time>
      </trkpt>
      <trkpt lat="41.77248" lon="9.08681">
        <ele>878</ele>
        <time>2008-05-28T15:48:18+02:00</time>
      </trkpt>
      <trkpt lat="41.77239" lon="9.08698">
        <ele>880</ele>
        <time>2008-05-28T15:48:27+02:00</time>
      </trkpt>
      <trkpt lat="41.77231" lon="9.08715">
        <ele>882</ele>
        <time>2008-05-28T15:48:36+02:00</time>
      </trkpt>
      <trkpt lat="41.77223" lon="9.08733">
        <ele>882</ele>
        <time>2008-05-28T15:48:43+02:00</time>
      </trkpt>
      <trkpt lat="41.77217" lon="9.08755">
        <ele>885</ele>
        <time>2008-05-28T15:48:49+02:00</time>
      </trkpt>
      <trkpt lat="41.77216" lon="9.08779">
        <ele>885</ele>
        <time>2008-05-28T15:48:55+02:00</time>
      </trkpt>
      <trkpt lat="41.77212" lon="9.08815">
        <ele>885</ele>
        <time>2008-05-28T15:49:02+02:00</time>
      </trkpt>
      <trkpt lat="41.77209" lon="9.08846">
        <ele>890</ele>
        <time>2008-05-28T15:49:09+02:00</time>
      </trkpt>
      <trkpt lat="41.77216" lon="9.08865">
        <ele>890</ele>
        <time>2008-05-28T15:49:14+02:00</time>
      </trkpt>
      <trkpt lat="41.77232" lon="9.08885">
        <ele>890</ele>
        <time>2008-05-28T15:49:21+02:00</time>
      </trkpt>
      <trkpt lat="41.77242" lon="9.08906">
        <ele>890</ele>
        <time>2008-05-28T15:49:29+02:00</time>
      </trkpt>
      <trkpt lat="41.77247" lon="9.08929">
        <ele>894</ele>
        <time>2008-05-28T15:49:38+02:00</time>
      </trkpt>
      <trkpt lat="41.77248" lon="9.08955">
        <ele>898</ele>
        <time>2008-05-28T15:49:46+02:00</time>
      </trkpt>
      <trkpt lat="41.77251" lon="9.08984">
        <ele>885</ele>
        <time>2008-05-28T15:49:55+02:00</time>
      </trkpt>
      <trkpt lat="41.77255" lon="9.09008">
        <ele>888</ele>
        <time>2008-05-28T15:50:02+02:00</time>
      </trkpt>
      <trkpt lat="41.77255" lon="9.09038">
        <ele>884</ele>
        <time>2008-05-28T15:50:09+02:00</time>
      </trkpt>
      <trkpt lat="41.77256" lon="9.09066">
        <ele>888</ele>
        <time>2008-05-28T15:50:16+02:00</time>
      </trkpt>
      <trkpt lat="41.77257" lon="9.09091">
        <ele>893</ele>
        <time>2008-05-28T15:50:24+02:00</time>
      </trkpt>
      <trkpt lat="41.77257" lon="9.09112">
        <ele>890</ele>
        <time>2008-05-28T15:50:32+02:00</time>
      </trkpt>
      <trkpt lat="41.77256" lon="9.0913">
        <ele>891</ele>
        <time>2008-05-28T15:50:38+02:00</time>
      </trkpt>
      <trkpt lat="41.7726" lon="9.09147">
        <ele>894</ele>
        <time>2008-05-28T15:50:44+02:00</time>
      </trkpt>
      <trkpt lat="41.77267" lon="9.09166">
        <ele>895</ele>
        <time>2008-05-28T15:50:51+02:00</time>
      </trkpt>
      <trkpt lat="41.7728" lon="9.09189">
        <ele>898</ele>
        <time>2008-05-28T15:50:58+02:00</time>
      </trkpt>
      <trkpt lat="41.7729" lon="9.0922">
        <ele>899</ele>
        <time>2008-05-28T15:51:05+02:00</time>
      </trkpt>
      <trkpt lat="41.77303" lon="9.09252">
        <ele>907</ele>
        <time>2008-05-28T15:51:13+02:00</time>
      </trkpt>
      <trkpt lat="41.77311" lon="9.09281">
        <ele>909</ele>
        <time>2008-05-28T15:51:20+02:00</time>
      </trkpt>
      <trkpt lat="41.77325" lon="9.09302">
        <ele>910</ele>
        <time>2008-05-28T15:51:26+02:00</time>
      </trkpt>
      <trkpt lat="41.77343" lon="9.09321">
        <ele>898</ele>
        <time>2008-05-28T15:51:32+02:00</time>
      </trkpt>
      <trkpt lat="41.77356" lon="9.09341">
        <ele>905</ele>
        <time>2008-05-28T15:51:37+02:00</time>
      </trkpt>
      <trkpt lat="41.77362" lon="9.09349">
        <ele>904</ele>
        <time>2008-05-28T15:51:39+02:00</time>
      </trkpt>
      <trkpt lat="41.77378" lon="9.09372">
        <ele>904</ele>
        <time>2008-05-28T15:51:45+02:00</time>
      </trkpt>
      <trkpt lat="41.77389" lon="9.0939">
        <ele>905</ele>
        <time>2008-05-28T15:51:50+02:00</time>
      </trkpt>
      <trkpt lat="41.774" lon="9.09407">
        <ele>903</ele>
        <time>2008-05-28T15:51:56+02:00</time>
      </trkpt>
      <trkpt lat="41.77403" lon="9.09423">
        <ele>912</ele>
        <time>2008-05-28T15:52:02+02:00</time>
      </trkpt>
      <trkpt lat="41.77406" lon="9.09438">
        <ele>915</ele>
        <time>2008-05-28T15:52:08+02:00</time>
      </trkpt>
      <trkpt lat="41.77416" lon="9.09456">
        <ele>919</ele>
        <time>2008-05-28T15:52:17+02:00</time>
      </trkpt>
      <trkpt lat="41.77422" lon="9.09471">
        <ele>914</ele>
        <time>2008-05-28T15:52:24+02:00</time>
      </trkpt>
      <trkpt lat="41.77428" lon="9.09487">
        <ele>917</ele>
        <time>2008-05-28T15:52:32+02:00</time>
      </trkpt>
      <trkpt lat="41.77432" lon="9.095">
        <ele>917</ele>
        <time>2008-05-28T15:52:38+02:00</time>
      </trkpt>
      <trkpt lat="41.77438" lon="9.09515">
        <ele>926</ele>
        <time>2008-05-28T15:52:47+02:00</time>
      </trkpt>
      <trkpt lat="41.77446" lon="9.09528">
        <ele>928</ele>
        <time>2008-05-28T15:52:55+02:00</time>
      </trkpt>
      <trkpt lat="41.77453" lon="9.09535">
        <ele>929</ele>
        <time>2008-05-28T15:53:01+02:00</time>
      </trkpt>
      <trkpt lat="41.77461" lon="9.0955">
        <ele>930</ele>
        <time>2008-05-28T15:53:09+02:00</time>
      </trkpt>
      <trkpt lat="41.77469" lon="9.09563">
        <ele>930</ele>
        <time>2008-05-28T15:53:17+02:00</time>
      </trkpt>
      <trkpt lat="41.77478" lon="9.09567">
        <ele>930</ele>
        <time>2008-05-28T15:53:24+02:00</time>
      </trkpt>
      <trkpt lat="41.7749" lon="9.09576">
        <ele>929</ele>
        <time>2008-05-28T15:53:32+02:00</time>
      </trkpt>
      <trkpt lat="41.77496" lon="9.09588">
        <ele>932</ele>
        <time>2008-05-28T15:53:39+02:00</time>
      </trkpt>
      <trkpt lat="41.77502" lon="9.096">
        <ele>933</ele>
        <time>2008-05-28T15:53:46+02:00</time>
      </trkpt>
      <trkpt lat="41.77503" lon="9.09616">
        <ele>934</ele>
        <time>2008-05-28T15:53:54+02:00</time>
      </trkpt>
      <trkpt lat="41.775" lon="9.09632">
        <ele>938</ele>
        <time>2008-05-28T15:53:59+02:00</time>
      </trkpt>
      <trkpt lat="41.77498" lon="9.09657">
        <ele>936</ele>
        <time>2008-05-28T15:54:04+02:00</time>
      </trkpt>
      <trkpt lat="41.77499" lon="9.09676">
        <ele>938</ele>
        <time>2008-05-28T15:54:08+02:00</time>
      </trkpt>
      <trkpt lat="41.77496" lon="9.09695">
        <ele>943</ele>
        <time>2008-05-28T15:54:12+02:00</time>
      </trkpt>
      <trkpt lat="41.77491" lon="9.09713">
        <ele>944</ele>
        <time>2008-05-28T15:54:17+02:00</time>
      </trkpt>
      <trkpt lat="41.7749" lon="9.09733">
        <ele>942</ele>
        <time>2008-05-28T15:54:23+02:00</time>
      </trkpt>
      <trkpt lat="41.7749" lon="9.09756">
        <ele>940</ele>
        <time>2008-05-28T15:54:30+02:00</time>
      </trkpt>
      <trkpt lat="41.77491" lon="9.09773">
        <ele>943</ele>
        <time>2008-05-28T15:54:36+02:00</time>
      </trkpt>
      <trkpt lat="41.77495" lon="9.09787">
        <ele>944</ele>
        <time>2008-05-28T15:54:42+02:00</time>
      </trkpt>
      <trkpt lat="41.77495" lon="9.0979">
        <ele>944</ele>
        <time>2008-05-28T15:54:43+02:00</time>
      </trkpt>
      <trkpt lat="41.77501" lon="9.09813">
        <ele>938</ele>
        <time>2008-05-28T15:54:52+02:00</time>
      </trkpt>
      <trkpt lat="41.77511" lon="9.09831">
        <ele>937</ele>
        <time>2008-05-28T15:54:57+02:00</time>
      </trkpt>
      <trkpt lat="41.77511" lon="9.09844">
        <ele>941</ele>
        <time>2008-05-28T15:55:01+02:00</time>
      </trkpt>
      <trkpt lat="41.77511" lon="9.09848">
        <ele>941</ele>
        <time>2008-05-28T15:55:03+02:00</time>
      </trkpt>
      <trkpt lat="41.77521" lon="9.09866">
        <ele>944</ele>
        <time>2008-05-28T15:55:10+02:00</time>
      </trkpt>
      <trkpt lat="41.7753" lon="9.09884">
        <ele>946</ele>
        <time>2008-05-28T15:55:16+02:00</time>
      </trkpt>
      <trkpt lat="41.77529" lon="9.09909">
        <ele>947</ele>
        <time>2008-05-28T15:55:24+02:00</time>
      </trkpt>
      <trkpt lat="41.77527" lon="9.09914">
        <ele>947</ele>
        <time>2008-05-28T15:55:26+02:00</time>
      </trkpt>
      <trkpt lat="41.7753" lon="9.09926">
        <ele>951</ele>
        <time>2008-05-28T15:55:32+02:00</time>
      </trkpt>
      <trkpt lat="41.77526" lon="9.09944">
        <ele>951</ele>
        <time>2008-05-28T15:55:38+02:00</time>
      </trkpt>
      <trkpt lat="41.77526" lon="9.09949">
        <ele>952</ele>
        <time>2008-05-28T15:55:40+02:00</time>
      </trkpt>
      <trkpt lat="41.77528" lon="9.09966">
        <ele>953</ele>
        <time>2008-05-28T15:55:46+02:00</time>
      </trkpt>
      <trkpt lat="41.77532" lon="9.09977">
        <ele>953</ele>
        <time>2008-05-28T15:55:49+02:00</time>
      </trkpt>
      <trkpt lat="41.77537" lon="9.09992">
        <ele>953</ele>
        <time>2008-05-28T15:55:55+02:00</time>
      </trkpt>
      <trkpt lat="41.77541" lon="9.10006">
        <ele>957</ele>
        <time>2008-05-28T15:56:01+02:00</time>
      </trkpt>
      <trkpt lat="41.77545" lon="9.1002">
        <ele>957</ele>
        <time>2008-05-28T15:56:07+02:00</time>
      </trkpt>
      <trkpt lat="41.77549" lon="9.10032">
        <ele>957</ele>
        <time>2008-05-28T15:56:12+02:00</time>
      </trkpt>
      <trkpt lat="41.77557" lon="9.10046">
        <ele>957</ele>
        <time>2008-05-28T15:56:18+02:00</time>
      </trkpt>
      <trkpt lat="41.77562" lon="9.10058">
        <ele>956</ele>
        <time>2008-05-28T15:56:23+02:00</time>
      </trkpt>
      <trkpt lat="41.77564" lon="9.1007">
        <ele>956</ele>
        <time>2008-05-28T15:56:28+02:00</time>
      </trkpt>
      <trkpt lat="41.77565" lon="9.10076">
        <ele>955</ele>
        <time>2008-05-28T15:56:31+02:00</time>
      </trkpt>
      <trkpt lat="41.77568" lon="9.10084">
        <ele>958</ele>
        <time>2008-05-28T15:56:40+02:00</time>
      </trkpt>
      <trkpt lat="41.77569" lon="9.10091">
        <ele>959</ele>
        <time>2008-05-28T15:56:47+02:00</time>
      </trkpt>
      <trkpt lat="41.77571" lon="9.101">
        <ele>960</ele>
        <time>2008-05-28T15:56:55+02:00</time>
      </trkpt>
      <trkpt lat="41.77571" lon="9.10107">
        <ele>961</ele>
        <time>2008-05-28T15:57:02+02:00</time>
      </trkpt>
      <trkpt lat="41.77572" lon="9.10118">
        <ele>963</ele>
        <time>2008-05-28T15:57:11+02:00</time>
      </trkpt>
      <trkpt lat="41.77572" lon="9.10125">
        <ele>963</ele>
        <time>2008-05-28T15:57:18+02:00</time>
      </trkpt>
      <trkpt lat="41.77574" lon="9.10127">
        <ele>963</ele>
        <time>2008-05-28T15:57:25+02:00</time>
      </trkpt>
      <trkpt lat="41.77577" lon="9.10137">
        <ele>963</ele>
        <time>2008-05-28T15:57:33+02:00</time>
      </trkpt>
      <trkpt lat="41.77577" lon="9.1014">
        <ele>963</ele>
        <time>2008-05-28T15:57:38+02:00</time>
      </trkpt>
      <trkpt lat="41.7758" lon="9.10149">
        <ele>963</ele>
        <time>2008-05-28T15:57:43+02:00</time>
      </trkpt>
      <trkpt lat="41.77582" lon="9.10163">
        <ele>960</ele>
        <time>2008-05-28T15:57:49+02:00</time>
      </trkpt>
      <trkpt lat="41.77587" lon="9.10174">
        <ele>961</ele>
        <time>2008-05-28T15:57:54+02:00</time>
      </trkpt>
      <trkpt lat="41.77587" lon="9.1019">
        <ele>964</ele>
        <time>2008-05-28T15:58:02+02:00</time>
      </trkpt>
      <trkpt lat="41.77589" lon="9.10205">
        <ele>966</ele>
        <time>2008-05-28T15:58:10+02:00</time>
      </trkpt>
      <trkpt lat="41.7759" lon="9.10216">
        <ele>967</ele>
        <time>2008-05-28T15:58:15+02:00</time>
      </trkpt>
      <trkpt lat="41.7759" lon="9.10228">
        <ele>968</ele>
        <time>2008-05-28T15:58:20+02:00</time>
      </trkpt>
      <trkpt lat="41.77591" lon="9.10231">
        <ele>969</ele>
        <time>2008-05-28T15:58:22+02:00</time>
      </trkpt>
      <trkpt lat="41.77592" lon="9.10242">
        <ele>970</ele>
        <time>2008-05-28T15:58:28+02:00</time>
      </trkpt>
      <trkpt lat="41.77593" lon="9.10246">
        <ele>970</ele>
        <time>2008-05-28T15:58:31+02:00</time>
      </trkpt>
      <trkpt lat="41.77594" lon="9.10258">
        <ele>974</ele>
        <time>2008-05-28T15:58:38+02:00</time>
      </trkpt>
      <trkpt lat="41.77596" lon="9.10276">
        <ele>975</ele>
        <time>2008-05-28T15:58:47+02:00</time>
      </trkpt>
      <trkpt lat="41.77598" lon="9.10283">
        <ele>976</ele>
        <time>2008-05-28T15:58:51+02:00</time>
      </trkpt>
      <trkpt lat="41.77604" lon="9.10295">
        <ele>977</ele>
        <time>2008-05-28T15:59:00+02:00</time>
      </trkpt>
      <trkpt lat="41.77612" lon="9.10303">
        <ele>977</ele>
        <time>2008-05-28T15:59:07+02:00</time>
      </trkpt>
      <trkpt lat="41.77619" lon="9.10313">
        <ele>978</ele>
        <time>2008-05-28T15:59:13+02:00</time>
      </trkpt>
      <trkpt lat="41.77623" lon="9.10328">
        <ele>978</ele>
        <time>2008-05-28T15:59:20+02:00</time>
      </trkpt>
      <trkpt lat="41.77625" lon="9.10334">
        <ele>984</ele>
        <time>2008-05-28T15:59:23+02:00</time>
      </trkpt>
      <trkpt lat="41.77625" lon="9.1035">
        <ele>984</ele>
        <time>2008-05-28T15:59:29+02:00</time>
      </trkpt>
      <trkpt lat="41.77624" lon="9.10373">
        <ele>986</ele>
        <time>2008-05-28T15:59:35+02:00</time>
      </trkpt>
      <trkpt lat="41.77624" lon="9.10396">
        <ele>987</ele>
        <time>2008-05-28T15:59:41+02:00</time>
      </trkpt>
      <trkpt lat="41.77628" lon="9.10418">
        <ele>992</ele>
        <time>2008-05-28T15:59:46+02:00</time>
      </trkpt>
      <trkpt lat="41.77633" lon="9.10436">
        <ele>992</ele>
        <time>2008-05-28T15:59:51+02:00</time>
      </trkpt>
      <trkpt lat="41.77636" lon="9.10451">
        <ele>992</ele>
        <time>2008-05-28T15:59:56+02:00</time>
      </trkpt>
      <trkpt lat="41.77641" lon="9.10471">
        <ele>992</ele>
        <time>2008-05-28T16:00:02+02:00</time>
      </trkpt>
      <trkpt lat="41.77642" lon="9.10477">
        <ele>992</ele>
        <time>2008-05-28T16:00:04+02:00</time>
      </trkpt>
      <trkpt lat="41.77639" lon="9.10485">
        <ele>992</ele>
        <time>2008-05-28T16:00:07+02:00</time>
      </trkpt>
      <trkpt lat="41.77642" lon="9.10499">
        <ele>992</ele>
        <time>2008-05-28T16:00:14+02:00</time>
      </trkpt>
      <trkpt lat="41.77643" lon="9.10507">
        <ele>995</ele>
        <time>2008-05-28T16:00:20+02:00</time>
      </trkpt>
      <trkpt lat="41.77644" lon="9.10512">
        <ele>995</ele>
        <time>2008-05-28T16:00:25+02:00</time>
      </trkpt>
      <trkpt lat="41.77646" lon="9.10522">
        <ele>996</ele>
        <time>2008-05-28T16:00:33+02:00</time>
      </trkpt>
      <trkpt lat="41.77647" lon="9.10529">
        <ele>996</ele>
        <time>2008-05-28T16:00:37+02:00</time>
      </trkpt>
      <trkpt lat="41.77647" lon="9.10531">
        <ele>996</ele>
        <time>2008-05-28T16:00:41+02:00</time>
      </trkpt>
      <trkpt lat="41.77648" lon="9.10535">
        <ele>996</ele>
        <time>2008-05-28T16:00:47+02:00</time>
      </trkpt>
      <trkpt lat="41.77651" lon="9.10541">
        <ele>997</ele>
        <time>2008-05-28T16:00:55+02:00</time>
      </trkpt>
      <trkpt lat="41.77652" lon="9.10544">
        <ele>996</ele>
        <time>2008-05-28T16:01:00+02:00</time>
      </trkpt>
      <trkpt lat="41.77653" lon="9.10546">
        <ele>996</ele>
        <time>2008-05-28T16:01:02+02:00</time>
      </trkpt>
      <trkpt lat="41.77659" lon="9.10559">
        <ele>996</ele>
        <time>2008-05-28T16:01:09+02:00</time>
      </trkpt>
      <trkpt lat="41.77659" lon="9.10569">
        <ele>995</ele>
        <time>2008-05-28T16:01:13+02:00</time>
      </trkpt>
      <trkpt lat="41.77661" lon="9.10584">
        <ele>993</ele>
        <time>2008-05-28T16:01:18+02:00</time>
      </trkpt>
      <trkpt lat="41.77663" lon="9.10591">
        <ele>994</ele>
        <time>2008-05-28T16:01:21+02:00</time>
      </trkpt>
      <trkpt lat="41.77669" lon="9.10607">
        <ele>992</ele>
        <time>2008-05-28T16:01:27+02:00</time>
      </trkpt>
      <trkpt lat="41.77678" lon="9.10619">
        <ele>993</ele>
        <time>2008-05-28T16:01:33+02:00</time>
      </trkpt>
      <trkpt lat="41.77688" lon="9.10633">
        <ele>993</ele>
        <time>2008-05-28T16:01:39+02:00</time>
      </trkpt>
      <trkpt lat="41.77691" lon="9.10647">
        <ele>994</ele>
        <time>2008-05-28T16:01:44+02:00</time>
      </trkpt>
      <trkpt lat="41.77697" lon="9.10666">
        <ele>994</ele>
        <time>2008-05-28T16:01:49+02:00</time>
      </trkpt>
      <trkpt lat="41.77707" lon="9.1068">
        <ele>998</ele>
        <time>2008-05-28T16:01:56+02:00</time>
      </trkpt>
      <trkpt lat="41.77714" lon="9.10691">
        <ele>999</ele>
        <time>2008-05-28T16:02:02+02:00</time>
      </trkpt>
      <trkpt lat="41.77716" lon="9.10705">
        <ele>999</ele>
        <time>2008-05-28T16:02:08+02:00</time>
      </trkpt>
      <trkpt lat="41.77715" lon="9.10707">
        <ele>1000</ele>
        <time>2008-05-28T16:02:09+02:00</time>
      </trkpt>
      <trkpt lat="41.77716" lon="9.1072">
        <ele>1000</ele>
        <time>2008-05-28T16:02:15+02:00</time>
      </trkpt>
      <trkpt lat="41.77717" lon="9.10733">
        <ele>1001</ele>
        <time>2008-05-28T16:02:22+02:00</time>
      </trkpt>
      <trkpt lat="41.77716" lon="9.10744">
        <ele>1002</ele>
        <time>2008-05-28T16:02:28+02:00</time>
      </trkpt>
      <trkpt lat="41.7772" lon="9.10756">
        <ele>1007</ele>
        <time>2008-05-28T16:02:35+02:00</time>
      </trkpt>
      <trkpt lat="41.77719" lon="9.10766">
        <ele>1008</ele>
        <time>2008-05-28T16:02:41+02:00</time>
      </trkpt>
      <trkpt lat="41.77719" lon="9.10765">
        <ele>1008</ele>
        <time>2008-05-28T16:02:48+02:00</time>
      </trkpt>
      <trkpt lat="41.77717" lon="9.1077">
        <ele>1008</ele>
        <time>2008-05-28T16:02:58+02:00</time>
      </trkpt>
      <trkpt lat="41.77714" lon="9.10776">
        <ele>1008</ele>
        <time>2008-05-28T16:03:05+02:00</time>
      </trkpt>
      <trkpt lat="41.77713" lon="9.10782">
        <ele>1008</ele>
        <time>2008-05-28T16:03:11+02:00</time>
      </trkpt>
      <trkpt lat="41.77714" lon="9.10787">
        <ele>1008</ele>
        <time>2008-05-28T16:03:16+02:00</time>
      </trkpt>
      <trkpt lat="41.77713" lon="9.10795">
        <ele>1009</ele>
        <time>2008-05-28T16:03:23+02:00</time>
      </trkpt>
      <trkpt lat="41.77713" lon="9.10801">
        <ele>1009</ele>
        <time>2008-05-28T16:03:29+02:00</time>
      </trkpt>
      <trkpt lat="41.77715" lon="9.10808">
        <ele>1010</ele>
        <time>2008-05-28T16:03:35+02:00</time>
      </trkpt>
      <trkpt lat="41.77717" lon="9.10814">
        <ele>1010</ele>
        <time>2008-05-28T16:03:41+02:00</time>
      </trkpt>
      <trkpt lat="41.77719" lon="9.1082">
        <ele>1010</ele>
        <time>2008-05-28T16:03:47+02:00</time>
      </trkpt>
      <trkpt lat="41.77723" lon="9.10824">
        <ele>1011</ele>
        <time>2008-05-28T16:03:54+02:00</time>
      </trkpt>
      <trkpt lat="41.77728" lon="9.10828">
        <ele>1011</ele>
        <time>2008-05-28T16:04:01+02:00</time>
      </trkpt>
      <trkpt lat="41.77734" lon="9.10831">
        <ele>1012</ele>
        <time>2008-05-28T16:04:10+02:00</time>
      </trkpt>
      <trkpt lat="41.77735" lon="9.10835">
        <ele>1012</ele>
        <time>2008-05-28T16:04:16+02:00</time>
      </trkpt>
      <trkpt lat="41.77737" lon="9.1084">
        <ele>1012</ele>
        <time>2008-05-28T16:04:25+02:00</time>
      </trkpt>
      <trkpt lat="41.77739" lon="9.10843">
        <ele>1012</ele>
        <time>2008-05-28T16:04:30+02:00</time>
      </trkpt>
      <trkpt lat="41.77738" lon="9.1084">
        <ele>1013</ele>
        <time>2008-05-28T16:04:35+02:00</time>
      </trkpt>
      <trkpt lat="41.77738" lon="9.10838">
        <ele>1013</ele>
        <time>2008-05-28T16:04:41+02:00</time>
      </trkpt>
      <trkpt lat="41.77738" lon="9.10837">
        <ele>1013</ele>
        <time>2008-05-28T16:05:06+02:00</time>
      </trkpt>
      <trkpt lat="41.77739" lon="9.10837">
        <ele>1013</ele>
        <time>2008-05-28T16:05:41+02:00</time>
      </trkpt>
      <trkpt lat="41.77737" lon="9.10843">
        <ele>1012</ele>
        <time>2008-05-28T16:05:47+02:00</time>
      </trkpt>
      <trkpt lat="41.77736" lon="9.10844">
        <ele>1012</ele>
        <time>2008-05-28T16:05:53+02:00</time>
      </trkpt>
      <trkpt lat="41.77737" lon="9.10843">
        <ele>1012</ele>
        <time>2008-05-28T16:06:11+02:00</time>
      </trkpt>
      <trkpt lat="41.77737" lon="9.10842">
        <ele>1012</ele>
        <time>2008-05-28T16:06:19+02:00</time>
      </trkpt>
      <trkpt lat="41.77736" lon="9.10842">
        <ele>1012</ele>
        <time>2008-05-28T16:06:26+02:00</time>
      </trkpt>
      <trkpt lat="41.77736" lon="9.10842">
        <ele>1012</ele>
        <time>2008-05-28T16:06:31+02:00</time>
      </trkpt>
      <trkpt lat="41.77737" lon="9.10839">
        <ele>1012</ele>
        <time>2008-05-28T16:06:37+02:00</time>
      </trkpt>
      <trkpt lat="41.77736" lon="9.10835">
        <ele>1013</ele>
        <time>2008-05-28T16:06:44+02:00</time>
      </trkpt>
      <trkpt lat="41.77736" lon="9.10836">
        <ele>1012</ele>
        <time>2008-05-28T16:07:09+02:00</time>
      </trkpt>
      <trkpt lat="41.77736" lon="9.10836">
        <ele>1012</ele>
        <time>2008-05-28T16:07:28+02:00</time>
      </trkpt>
      <trkpt lat="41.77737" lon="9.10838">
        <ele>1013</ele>
        <time>2008-05-28T16:07:39+02:00</time>
      </trkpt>
      <trkpt lat="41.77739" lon="9.10842">
        <ele>1012</ele>
        <time>2008-05-28T16:07:45+02:00</time>
      </trkpt>
      <trkpt lat="41.77738" lon="9.10839">
        <ele>1013</ele>
        <time>2008-05-28T16:08:12+02:00</time>
      </trkpt>
      <trkpt lat="41.77737" lon="9.10836">
        <ele>1013</ele>
        <time>2008-05-28T16:08:21+02:00</time>
      </trkpt>
      <trkpt lat="41.77738" lon="9.10835">
        <ele>1013</ele>
        <time>2008-05-28T16:08:27+02:00</time>
      </trkpt>
      <trkpt lat="41.77738" lon="9.10835">
        <ele>1013</ele>
        <time>2008-05-28T16:08:35+02:00</time>
      </trkpt>
      <trkpt lat="41.77738" lon="9.10836">
        <ele>1013</ele>
        <time>2008-05-28T16:08:43+02:00</time>
      </trkpt>
      <trkpt lat="41.77737" lon="9.10837">
        <ele>1013</ele>
        <time>2008-05-28T16:08:52+02:00</time>
      </trkpt>
      <trkpt lat="41.77738" lon="9.10836">
        <ele>1013</ele>
        <time>2008-05-28T16:09:06+02:00</time>
      </trkpt>
      <trkpt lat="41.77738" lon="9.10837">
        <ele>1013</ele>
        <time>2008-05-28T16:09:29+02:00</time>
      </trkpt>
      <trkpt lat="41.77738" lon="9.10837">
        <ele>1013</ele>
        <time>2008-05-28T16:09:49+02:00</time>
      </trkpt>
      <trkpt lat="41.77737" lon="9.10837">
        <ele>1013</ele>
        <time>2008-05-28T16:09:57+02:00</time>
      </trkpt>
      <trkpt lat="41.77737" lon="9.10835">
        <ele>1013</ele>
        <time>2008-05-28T16:10:02+02:00</time>
      </trkpt>
      <trkpt lat="41.77739" lon="9.10836">
        <ele>1013</ele>
        <time>2008-05-28T16:10:15+02:00</time>
      </trkpt>
      <trkpt lat="41.77741" lon="9.10838">
        <ele>1013</ele>
        <time>2008-05-28T16:10:47+02:00</time>
      </trkpt>
      <trkpt lat="41.77741" lon="9.1084">
        <ele>1013</ele>
        <time>2008-05-28T16:10:52+02:00</time>
      </trkpt>
      <trkpt lat="41.77739" lon="9.10844">
        <ele>1012</ele>
        <time>2008-05-28T16:10:58+02:00</time>
      </trkpt>
      <trkpt lat="41.77739" lon="9.10844">
        <ele>1012</ele>
        <time>2008-05-28T16:11:06+02:00</time>
      </trkpt>
      <trkpt lat="41.77737" lon="9.10844">
        <ele>1012</ele>
        <time>2008-05-28T16:11:13+02:00</time>
      </trkpt>
      <trkpt lat="41.77737" lon="9.10842">
        <ele>1012</ele>
        <time>2008-05-28T16:11:21+02:00</time>
      </trkpt>
      <trkpt lat="41.77735" lon="9.1084">
        <ele>1012</ele>
        <time>2008-05-28T16:11:28+02:00</time>
      </trkpt>
      <trkpt lat="41.77737" lon="9.10837">
        <ele>1013</ele>
        <time>2008-05-28T16:11:37+02:00</time>
      </trkpt>
      <trkpt lat="41.77737" lon="9.10835">
        <ele>1013</ele>
        <time>2008-05-28T16:11:50+02:00</time>
      </trkpt>
      <trkpt lat="41.77738" lon="9.10834">
        <ele>1013</ele>
        <time>2008-05-28T16:11:58+02:00</time>
      </trkpt>
      <trkpt lat="41.7774" lon="9.10833">
        <ele>1013</ele>
        <time>2008-05-28T16:12:02+02:00</time>
      </trkpt>
      <trkpt lat="41.77741" lon="9.10834">
        <ele>1013</ele>
        <time>2008-05-28T16:12:15+02:00</time>
      </trkpt>
      <trkpt lat="41.7774" lon="9.10836">
        <ele>1013</ele>
        <time>2008-05-28T16:12:42+02:00</time>
      </trkpt>
      <trkpt lat="41.7774" lon="9.10837">
        <ele>1013</ele>
        <time>2008-05-28T16:12:49+02:00</time>
      </trkpt>
      <trkpt lat="41.77739" lon="9.10837">
        <ele>1013</ele>
        <time>2008-05-28T16:12:56+02:00</time>
      </trkpt>
      <trkpt lat="41.77739" lon="9.10835">
        <ele>1013</ele>
        <time>2008-05-28T16:13:03+02:00</time>
      </trkpt>
      <trkpt lat="41.77738" lon="9.10835">
        <ele>1013</ele>
        <time>2008-05-28T16:13:10+02:00</time>
      </trkpt>
      <trkpt lat="41.77738" lon="9.10834">
        <ele>1013</ele>
        <time>2008-05-28T16:13:19+02:00</time>
      </trkpt>
      <trkpt lat="41.77738" lon="9.10834">
        <ele>1013</ele>
        <time>2008-05-28T16:13:27+02:00</time>
      </trkpt>
      <trkpt lat="41.77737" lon="9.10834">
        <ele>1013</ele>
        <time>2008-05-28T16:13:38+02:00</time>
      </trkpt>
      <trkpt lat="41.77737" lon="9.10834">
        <ele>1013</ele>
        <time>2008-05-28T16:14:38+02:00</time>
      </trkpt>
      <trkpt lat="41.77738" lon="9.10832">
        <ele>1013</ele>
        <time>2008-05-28T16:15:59+02:00</time>
      </trkpt>
      <trkpt lat="41.77738" lon="9.10833">
        <ele>1013</ele>
        <time>2008-05-28T16:16:17+02:00</time>
      </trkpt>
      <trkpt lat="41.77737" lon="9.10835">
        <ele>1013</ele>
        <time>2008-05-28T16:16:33+02:00</time>
      </trkpt>
      <trkpt lat="41.77736" lon="9.10836">
        <ele>1013</ele>
        <time>2008-05-28T16:17:01+02:00</time>
      </trkpt>
      <trkpt lat="41.77735" lon="9.10837">
        <ele>1012</ele>
        <time>2008-05-28T16:17:12+02:00</time>
      </trkpt>
      <trkpt lat="41.77736" lon="9.10837">
        <ele>1012</ele>
        <time>2008-05-28T16:17:30+02:00</time>
      </trkpt>
      <trkpt lat="41.77737" lon="9.10838">
        <ele>1012</ele>
        <time>2008-05-28T16:17:42+02:00</time>
      </trkpt>
      <trkpt lat="41.7774" lon="9.10843">
        <ele>1012</ele>
        <time>2008-05-28T16:17:49+02:00</time>
      </trkpt>
      <trkpt lat="41.7774" lon="9.10844">
        <ele>1012</ele>
        <time>2008-05-28T16:17:55+02:00</time>
      </trkpt>
      <trkpt lat="41.77739" lon="9.10844">
        <ele>1012</ele>
        <time>2008-05-28T16:18:02+02:00</time>
      </trkpt>
      <trkpt lat="41.7774" lon="9.10844">
        <ele>1012</ele>
        <time>2008-05-28T16:18:17+02:00</time>
      </trkpt>
      <trkpt lat="41.7774" lon="9.10844">
        <ele>1012</ele>
        <time>2008-05-28T16:18:35+02:00</time>
      </trkpt>
      <trkpt lat="41.77739" lon="9.10843">
        <ele>1012</ele>
        <time>2008-05-28T16:18:55+02:00</time>
      </trkpt>
      <trkpt lat="41.77738" lon="9.10843">
        <ele>1012</ele>
        <time>2008-05-28T16:19:03+02:00</time>
      </trkpt>
      <trkpt lat="41.77738" lon="9.10843">
        <ele>1012</ele>
        <time>2008-05-28T16:19:13+02:00</time>
      </trkpt>
      <trkpt lat="41.77737" lon="9.10842">
        <ele>1012</ele>
        <time>2008-05-28T16:19:23+02:00</time>
      </trkpt>
      <trkpt lat="41.77737" lon="9.10842">
        <ele>1012</ele>
        <time>2008-05-28T16:19:35+02:00</time>
      </trkpt>
      <trkpt lat="41.77736" lon="9.10841">
        <ele>1012</ele>
        <time>2008-05-28T16:19:59+02:00</time>
      </trkpt>
      <trkpt lat="41.77738" lon="9.10844">
        <ele>1012</ele>
        <time>2008-05-28T16:20:11+02:00</time>
      </trkpt>
      <trkpt lat="41.77737" lon="9.10844">
        <ele>1012</ele>
        <time>2008-05-28T16:20:16+02:00</time>
      </trkpt>
      <trkpt lat="41.77736" lon="9.10844">
        <ele>1012</ele>
        <time>2008-05-28T16:20:26+02:00</time>
      </trkpt>
      <trkpt lat="41.77738" lon="9.10843">
        <ele>1012</ele>
        <time>2008-05-28T16:20:48+02:00</time>
      </trkpt>
      <trkpt lat="41.7774" lon="9.10844">
        <ele>1012</ele>
        <time>2008-05-28T16:21:06+02:00</time>
      </trkpt>
      <trkpt lat="41.77741" lon="9.10844">
        <ele>1012</ele>
        <time>2008-05-28T16:21:25+02:00</time>
      </trkpt>
      <trkpt lat="41.77745" lon="9.10848">
        <ele>1012</ele>
        <time>2008-05-28T16:21:30+02:00</time>
      </trkpt>
      <trkpt lat="41.77748" lon="9.10852">
        <ele>1012</ele>
        <time>2008-05-28T16:21:33+02:00</time>
      </trkpt>
      <trkpt lat="41.77756" lon="9.10864">
        <ele>1017</ele>
        <time>2008-05-28T16:21:40+02:00</time>
      </trkpt>
      <trkpt lat="41.77766" lon="9.10878">
        <ele>1017</ele>
        <time>2008-05-28T16:21:46+02:00</time>
      </trkpt>
      <trkpt lat="41.77776" lon="9.10891">
        <ele>1018</ele>
        <time>2008-05-28T16:21:52+02:00</time>
      </trkpt>
      <trkpt lat="41.77783" lon="9.10899">
        <ele>1018</ele>
        <time>2008-05-28T16:21:57+02:00</time>
      </trkpt>
      <trkpt lat="41.7779" lon="9.10906">
        <ele>1019</ele>
        <time>2008-05-28T16:22:03+02:00</time>
      </trkpt>
      <trkpt lat="41.778" lon="9.10916">
        <ele>1021</ele>
        <time>2008-05-28T16:22:10+02:00</time>
      </trkpt>
      <trkpt lat="41.7781" lon="9.10927">
        <ele>1019</ele>
        <time>2008-05-28T16:22:18+02:00</time>
      </trkpt>
      <trkpt lat="41.77814" lon="9.10932">
        <ele>1019</ele>
        <time>2008-05-28T16:22:22+02:00</time>
      </trkpt>
      <trkpt lat="41.77817" lon="9.10939">
        <ele>1018</ele>
        <time>2008-05-28T16:22:30+02:00</time>
      </trkpt>
      <trkpt lat="41.77818" lon="9.10944">
        <ele>1018</ele>
        <time>2008-05-28T16:22:35+02:00</time>
      </trkpt>
      <trkpt lat="41.77822" lon="9.10951">
        <ele>1017</ele>
        <time>2008-05-28T16:22:40+02:00</time>
      </trkpt>
      <trkpt lat="41.77823" lon="9.10952">
        <ele>1017</ele>
        <time>2008-05-28T16:22:43+02:00</time>
      </trkpt>
      <trkpt lat="41.77825" lon="9.10953">
        <ele>1017</ele>
        <time>2008-05-28T16:22:49+02:00</time>
      </trkpt>
      <trkpt lat="41.77829" lon="9.1096">
        <ele>1017</ele>
        <time>2008-05-28T16:22:54+02:00</time>
      </trkpt>
      <trkpt lat="41.7783" lon="9.10961">
        <ele>1017</ele>
        <time>2008-05-28T16:22:55+02:00</time>
      </trkpt>
      <trkpt lat="41.77838" lon="9.10969">
        <ele>1029</ele>
        <time>2008-05-28T16:23:02+02:00</time>
      </trkpt>
      <trkpt lat="41.7785" lon="9.10978">
        <ele>1028</ele>
        <time>2008-05-28T16:23:09+02:00</time>
      </trkpt>
      <trkpt lat="41.77855" lon="9.10988">
        <ele>1028</ele>
        <time>2008-05-28T16:23:14+02:00</time>
      </trkpt>
      <trkpt lat="41.77861" lon="9.11006">
        <ele>1022</ele>
        <time>2008-05-28T16:23:21+02:00</time>
      </trkpt>
      <trkpt lat="41.7787" lon="9.11017">
        <ele>1023</ele>
        <time>2008-05-28T16:23:27+02:00</time>
      </trkpt>
      <trkpt lat="41.77881" lon="9.11022">
        <ele>1023</ele>
        <time>2008-05-28T16:23:33+02:00</time>
      </trkpt>
      <trkpt lat="41.77886" lon="9.11029">
        <ele>1023</ele>
        <time>2008-05-28T16:23:37+02:00</time>
      </trkpt>
      <trkpt lat="41.77896" lon="9.11042">
        <ele>1023</ele>
        <time>2008-05-28T16:23:44+02:00</time>
      </trkpt>
      <trkpt lat="41.77897" lon="9.11045">
        <ele>1023</ele>
        <time>2008-05-28T16:23:45+02:00</time>
      </trkpt>
      <trkpt lat="41.7791" lon="9.11054">
        <ele>1023</ele>
        <time>2008-05-28T16:23:51+02:00</time>
      </trkpt>
      <trkpt lat="41.77913" lon="9.11056">
        <ele>1022</ele>
        <time>2008-05-28T16:23:52+02:00</time>
      </trkpt>
      <trkpt lat="41.77926" lon="9.11066">
        <ele>1026</ele>
        <time>2008-05-28T16:23:58+02:00</time>
      </trkpt>
      <trkpt lat="41.77937" lon="9.11076">
        <ele>1026</ele>
        <time>2008-05-28T16:24:03+02:00</time>
      </trkpt>
      <trkpt lat="41.77946" lon="9.11077">
        <ele>1027</ele>
        <time>2008-05-28T16:24:07+02:00</time>
      </trkpt>
      <trkpt lat="41.77958" lon="9.11074">
        <ele>1027</ele>
        <time>2008-05-28T16:24:12+02:00</time>
      </trkpt>
      <trkpt lat="41.77961" lon="9.11074">
        <ele>1027</ele>
        <time>2008-05-28T16:24:13+02:00</time>
      </trkpt>
      <trkpt lat="41.77972" lon="9.11076">
        <ele>1027</ele>
        <time>2008-05-28T16:24:18+02:00</time>
      </trkpt>
      <trkpt lat="41.77977" lon="9.1108">
        <ele>1026</ele>
        <time>2008-05-28T16:24:20+02:00</time>
      </trkpt>
      <trkpt lat="41.77985" lon="9.11091">
        <ele>1018</ele>
        <time>2008-05-28T16:24:24+02:00</time>
      </trkpt>
      <trkpt lat="41.77996" lon="9.1111">
        <ele>1016</ele>
        <time>2008-05-28T16:24:30+02:00</time>
      </trkpt>
      <trkpt lat="41.78005" lon="9.11125">
        <ele>1015</ele>
        <time>2008-05-28T16:24:34+02:00</time>
      </trkpt>
      <trkpt lat="41.7802" lon="9.11147">
        <ele>1013</ele>
        <time>2008-05-28T16:24:41+02:00</time>
      </trkpt>
      <trkpt lat="41.78028" lon="9.11155">
        <ele>1013</ele>
        <time>2008-05-28T16:24:47+02:00</time>
      </trkpt>
      <trkpt lat="41.78033" lon="9.11158">
        <ele>1013</ele>
        <time>2008-05-28T16:24:52+02:00</time>
      </trkpt>
      <trkpt lat="41.78035" lon="9.11159">
        <ele>1013</ele>
        <time>2008-05-28T16:24:56+02:00</time>
      </trkpt>
      <trkpt lat="41.7804" lon="9.11161">
        <ele>1013</ele>
        <time>2008-05-28T16:25:02+02:00</time>
      </trkpt>
      <trkpt lat="41.78043" lon="9.11164">
        <ele>1013</ele>
        <time>2008-05-28T16:25:06+02:00</time>
      </trkpt>
      <trkpt lat="41.78052" lon="9.11166">
        <ele>1013</ele>
        <time>2008-05-28T16:25:15+02:00</time>
      </trkpt>
      <trkpt lat="41.78057" lon="9.11167">
        <ele>1002</ele>
        <time>2008-05-28T16:25:19+02:00</time>
      </trkpt>
      <trkpt lat="41.78063" lon="9.11171">
        <ele>1003</ele>
        <time>2008-05-28T16:25:23+02:00</time>
      </trkpt>
      <trkpt lat="41.78074" lon="9.11176">
        <ele>1004</ele>
        <time>2008-05-28T16:25:27+02:00</time>
      </trkpt>
      <trkpt lat="41.78092" lon="9.11186">
        <ele>1006</ele>
        <time>2008-05-28T16:25:33+02:00</time>
      </trkpt>
      <trkpt lat="41.7811" lon="9.11194">
        <ele>1005</ele>
        <time>2008-05-28T16:25:38+02:00</time>
      </trkpt>
      <trkpt lat="41.78124" lon="9.11195">
        <ele>1005</ele>
        <time>2008-05-28T16:25:41+02:00</time>
      </trkpt>
      <trkpt lat="41.78139" lon="9.11209">
        <ele>1005</ele>
        <time>2008-05-28T16:25:46+02:00</time>
      </trkpt>
      <trkpt lat="41.78141" lon="9.11214">
        <ele>1005</ele>
        <time>2008-05-28T16:25:50+02:00</time>
      </trkpt>
      <trkpt lat="41.78143" lon="9.11218">
        <ele>1005</ele>
        <time>2008-05-28T16:25:55+02:00</time>
      </trkpt>
      <trkpt lat="41.78144" lon="9.11224">
        <ele>1004</ele>
        <time>2008-05-28T16:26:02+02:00</time>
      </trkpt>
      <trkpt lat="41.78146" lon="9.11229">
        <ele>1004</ele>
        <time>2008-05-28T16:26:08+02:00</time>
      </trkpt>
      <trkpt lat="41.78146" lon="9.1123">
        <ele>1004</ele>
        <time>2008-05-28T16:26:09+02:00</time>
      </trkpt>
      <trkpt lat="41.78146" lon="9.1123">
        <ele>1004</ele>
        <time>2008-05-28T16:26:12+02:00</time>
      </trkpt>
      <trkpt lat="41.78146" lon="9.11232">
        <ele>1004</ele>
        <time>2008-05-28T16:26:14+02:00</time>
      </trkpt>
      <trkpt lat="41.78145" lon="9.11236">
        <ele>1004</ele>
        <time>2008-05-28T16:26:20+02:00</time>
      </trkpt>
      <trkpt lat="41.78144" lon="9.11244">
        <ele>1004</ele>
        <time>2008-05-28T16:26:30+02:00</time>
      </trkpt>
      <trkpt lat="41.78149" lon="9.11249">
        <ele>1004</ele>
        <time>2008-05-28T16:26:34+02:00</time>
      </trkpt>
      <trkpt lat="41.78159" lon="9.11264">
        <ele>998</ele>
        <time>2008-05-28T16:26:41+02:00</time>
      </trkpt>
      <trkpt lat="41.78171" lon="9.11279">
        <ele>1001</ele>
        <time>2008-05-28T16:26:46+02:00</time>
      </trkpt>
      <trkpt lat="41.78183" lon="9.11292">
        <ele>999</ele>
        <time>2008-05-28T16:26:50+02:00</time>
      </trkpt>
      <trkpt lat="41.78195" lon="9.11301">
        <ele>999</ele>
        <time>2008-05-28T16:26:54+02:00</time>
      </trkpt>
      <trkpt lat="41.78206" lon="9.11308">
        <ele>998</ele>
        <time>2008-05-28T16:26:58+02:00</time>
      </trkpt>
      <trkpt lat="41.78218" lon="9.1131">
        <ele>999</ele>
        <time>2008-05-28T16:27:02+02:00</time>
      </trkpt>
      <trkpt lat="41.78234" lon="9.11314">
        <ele>998</ele>
        <time>2008-05-28T16:27:07+02:00</time>
      </trkpt>
      <trkpt lat="41.78258" lon="9.11317">
        <ele>1002</ele>
        <time>2008-05-28T16:27:12+02:00</time>
      </trkpt>
      <trkpt lat="41.78273" lon="9.1133">
        <ele>1003</ele>
        <time>2008-05-28T16:27:16+02:00</time>
      </trkpt>
      <trkpt lat="41.78278" lon="9.11343">
        <ele>993</ele>
        <time>2008-05-28T16:27:22+02:00</time>
      </trkpt>
      <trkpt lat="41.7828" lon="9.11345">
        <ele>993</ele>
        <time>2008-05-28T16:27:27+02:00</time>
      </trkpt>
      <trkpt lat="41.78281" lon="9.11346">
        <ele>993</ele>
        <time>2008-05-28T16:27:28+02:00</time>
      </trkpt>
      <trkpt lat="41.78283" lon="9.11351">
        <ele>993</ele>
        <time>2008-05-28T16:27:33+02:00</time>
      </trkpt>
      <trkpt lat="41.78289" lon="9.1136">
        <ele>993</ele>
        <time>2008-05-28T16:27:39+02:00</time>
      </trkpt>
      <trkpt lat="41.78296" lon="9.11367">
        <ele>993</ele>
        <time>2008-05-28T16:27:45+02:00</time>
      </trkpt>
      <trkpt lat="41.78302" lon="9.11373">
        <ele>993</ele>
        <time>2008-05-28T16:27:48+02:00</time>
      </trkpt>
      <trkpt lat="41.78317" lon="9.11386">
        <ele>993</ele>
        <time>2008-05-28T16:27:54+02:00</time>
      </trkpt>
      <trkpt lat="41.78327" lon="9.11388">
        <ele>993</ele>
        <time>2008-05-28T16:27:58+02:00</time>
      </trkpt>
      <trkpt lat="41.78339" lon="9.11396">
        <ele>996</ele>
        <time>2008-05-28T16:28:03+02:00</time>
      </trkpt>
      <trkpt lat="41.78349" lon="9.11413">
        <ele>995</ele>
        <time>2008-05-28T16:28:08+02:00</time>
      </trkpt>
      <trkpt lat="41.78357" lon="9.11415">
        <ele>996</ele>
        <time>2008-05-28T16:28:13+02:00</time>
      </trkpt>
      <trkpt lat="41.78358" lon="9.11415">
        <ele>996</ele>
        <time>2008-05-28T16:28:14+02:00</time>
      </trkpt>
      <trkpt lat="41.78361" lon="9.11415">
        <ele>996</ele>
        <time>2008-05-28T16:28:17+02:00</time>
      </trkpt>
      <trkpt lat="41.78362" lon="9.11411">
        <ele>996</ele>
        <time>2008-05-28T16:28:21+02:00</time>
      </trkpt>
      <trkpt lat="41.7836" lon="9.1141">
        <ele>996</ele>
        <time>2008-05-28T16:28:27+02:00</time>
      </trkpt>
      <trkpt lat="41.78357" lon="9.1141">
        <ele>996</ele>
        <time>2008-05-28T16:28:39+02:00</time>
      </trkpt>
      <trkpt lat="41.78357" lon="9.11412">
        <ele>996</ele>
        <time>2008-05-28T16:28:45+02:00</time>
      </trkpt>
      <trkpt lat="41.78357" lon="9.11417">
        <ele>989</ele>
        <time>2008-05-28T16:28:50+02:00</time>
      </trkpt>
      <trkpt lat="41.78356" lon="9.11416">
        <ele>996</ele>
        <time>2008-05-28T16:29:04+02:00</time>
      </trkpt>
      <trkpt lat="41.78355" lon="9.11415">
        <ele>996</ele>
        <time>2008-05-28T16:29:10+02:00</time>
      </trkpt>
      <trkpt lat="41.78356" lon="9.11415">
        <ele>996</ele>
        <time>2008-05-28T16:29:17+02:00</time>
      </trkpt>
      <trkpt lat="41.78355" lon="9.11417">
        <ele>990</ele>
        <time>2008-05-28T16:29:39+02:00</time>
      </trkpt>
      <trkpt lat="41.78354" lon="9.11417">
        <ele>996</ele>
        <time>2008-05-28T16:29:45+02:00</time>
      </trkpt>
      <trkpt lat="41.78354" lon="9.11416">
        <ele>996</ele>
        <time>2008-05-28T16:30:38+02:00</time>
      </trkpt>
      <trkpt lat="41.78354" lon="9.11415">
        <ele>996</ele>
        <time>2008-05-28T16:30:53+02:00</time>
      </trkpt>
      <trkpt lat="41.78355" lon="9.11415">
        <ele>996</ele>
        <time>2008-05-28T16:31:01+02:00</time>
      </trkpt>
      <trkpt lat="41.78355" lon="9.11416">
        <ele>996</ele>
        <time>2008-05-28T16:31:10+02:00</time>
      </trkpt>
      <trkpt lat="41.78356" lon="9.11416">
        <ele>996</ele>
        <time>2008-05-28T16:31:35+02:00</time>
      </trkpt>
      <trkpt lat="41.78355" lon="9.11416">
        <ele>996</ele>
        <time>2008-05-28T16:31:41+02:00</time>
      </trkpt>
      <trkpt lat="41.78355" lon="9.11416">
        <ele>996</ele>
        <time>2008-05-28T16:32:03+02:00</time>
      </trkpt>
      <trkpt lat="41.78354" lon="9.11416">
        <ele>996</ele>
        <time>2008-05-28T16:32:06+02:00</time>
      </trkpt>
      <trkpt lat="41.78355" lon="9.11416">
        <ele>996</ele>
        <time>2008-05-28T16:32:09+02:00</time>
      </trkpt>
      <trkpt lat="41.78354" lon="9.11411">
        <ele>996</ele>
        <time>2008-05-28T16:32:14+02:00</time>
      </trkpt>
      <trkpt lat="41.78356" lon="9.11407">
        <ele>996</ele>
        <time>2008-05-28T16:32:19+02:00</time>
      </trkpt>
      <trkpt lat="41.78359" lon="9.11408">
        <ele>996</ele>
        <time>2008-05-28T16:32:26+02:00</time>
      </trkpt>
      <trkpt lat="41.78359" lon="9.11409">
        <ele>996</ele>
        <time>2008-05-28T16:32:34+02:00</time>
      </trkpt>
      <trkpt lat="41.78358" lon="9.11408">
        <ele>996</ele>
        <time>2008-05-28T16:33:38+02:00</time>
      </trkpt>
      <trkpt lat="41.78359" lon="9.11409">
        <ele>996</ele>
        <time>2008-05-28T16:33:57+02:00</time>
      </trkpt>
      <trkpt lat="41.7836" lon="9.11409">
        <ele>996</ele>
        <time>2008-05-28T16:34:29+02:00</time>
      </trkpt>
      <trkpt lat="41.78362" lon="9.11411">
        <ele>996</ele>
        <time>2008-05-28T16:34:59+02:00</time>
      </trkpt>
      <trkpt lat="41.78367" lon="9.11414">
        <ele>996</ele>
        <time>2008-05-28T16:35:05+02:00</time>
      </trkpt>
      <trkpt lat="41.78371" lon="9.11414">
        <ele>996</ele>
        <time>2008-05-28T16:35:08+02:00</time>
      </trkpt>
      <trkpt lat="41.78378" lon="9.11411">
        <ele>996</ele>
        <time>2008-05-28T16:35:12+02:00</time>
      </trkpt>
      <trkpt lat="41.78389" lon="9.11411">
        <ele>995</ele>
        <time>2008-05-28T16:35:17+02:00</time>
      </trkpt>
      <trkpt lat="41.78396" lon="9.11411">
        <ele>994</ele>
        <time>2008-05-28T16:35:20+02:00</time>
      </trkpt>
      <trkpt lat="41.78407" lon="9.11414">
        <ele>992</ele>
        <time>2008-05-28T16:35:26+02:00</time>
      </trkpt>
      <trkpt lat="41.78411" lon="9.11417">
        <ele>989</ele>
        <time>2008-05-28T16:35:29+02:00</time>
      </trkpt>
      <trkpt lat="41.78419" lon="9.11421">
        <ele>988</ele>
        <time>2008-05-28T16:35:33+02:00</time>
      </trkpt>
      <trkpt lat="41.78429" lon="9.11426">
        <ele>987</ele>
        <time>2008-05-28T16:35:39+02:00</time>
      </trkpt>
      <trkpt lat="41.78434" lon="9.11427">
        <ele>987</ele>
        <time>2008-05-28T16:35:44+02:00</time>
      </trkpt>
      <trkpt lat="41.78438" lon="9.11435">
        <ele>987</ele>
        <time>2008-05-28T16:35:50+02:00</time>
      </trkpt>
      <trkpt lat="41.78447" lon="9.11437">
        <ele>987</ele>
        <time>2008-05-28T16:35:55+02:00</time>
      </trkpt>
      <trkpt lat="41.7845" lon="9.11437">
        <ele>986</ele>
        <time>2008-05-28T16:35:57+02:00</time>
      </trkpt>
      <trkpt lat="41.78452" lon="9.11438">
        <ele>986</ele>
        <time>2008-05-28T16:35:59+02:00</time>
      </trkpt>
      <trkpt lat="41.78461" lon="9.11465">
        <ele>986</ele>
        <time>2008-05-28T16:37:55+02:00</time>
      </trkpt>
      <trkpt lat="41.78462" lon="9.11462">
        <ele>986</ele>
        <time>2008-05-28T16:38:01+02:00</time>
      </trkpt>
      <trkpt lat="41.78466" lon="9.11463">
        <ele>986</ele>
        <time>2008-05-28T16:38:44+02:00</time>
      </trkpt>
      <trkpt lat="41.78466" lon="9.11463">
        <ele>986</ele>
        <time>2008-05-28T16:39:03+02:00</time>
      </trkpt>
      <trkpt lat="41.78467" lon="9.11466">
        <ele>986</ele>
        <time>2008-05-28T16:39:30+02:00</time>
      </trkpt>
      <trkpt lat="41.78487" lon="9.11488">
        <ele>986</ele>
        <time>2008-05-28T16:40:17+02:00</time>
      </trkpt>
      <trkpt lat="41.78495" lon="9.11493">
        <ele>987</ele>
        <time>2008-05-28T16:40:26+02:00</time>
      </trkpt>
      <trkpt lat="41.78494" lon="9.1151">
        <ele>988</ele>
        <time>2008-05-28T16:40:43+02:00</time>
      </trkpt>
      <trkpt lat="41.78492" lon="9.11516">
        <ele>989</ele>
        <time>2008-05-28T16:40:50+02:00</time>
      </trkpt>
      <trkpt lat="41.78485" lon="9.11525">
        <ele>990</ele>
        <time>2008-05-28T16:40:59+02:00</time>
      </trkpt>
      <trkpt lat="41.78486" lon="9.1153">
        <ele>991</ele>
        <time>2008-05-28T16:41:04+02:00</time>
      </trkpt>
      <trkpt lat="41.78487" lon="9.11535">
        <ele>991</ele>
        <time>2008-05-28T16:41:11+02:00</time>
      </trkpt>
      <trkpt lat="41.78485" lon="9.1154">
        <ele>992</ele>
        <time>2008-05-28T16:41:18+02:00</time>
      </trkpt>
      <trkpt lat="41.78483" lon="9.11544">
        <ele>992</ele>
        <time>2008-05-28T16:41:23+02:00</time>
      </trkpt>
      <trkpt lat="41.78482" lon="9.11547">
        <ele>992</ele>
        <time>2008-05-28T16:41:27+02:00</time>
      </trkpt>
      <trkpt lat="41.78485" lon="9.11552">
        <ele>993</ele>
        <time>2008-05-28T16:41:34+02:00</time>
      </trkpt>
      <trkpt lat="41.78482" lon="9.11556">
        <ele>994</ele>
        <time>2008-05-28T16:41:41+02:00</time>
      </trkpt>
      <trkpt lat="41.78478" lon="9.11565">
        <ele>994</ele>
        <time>2008-05-28T16:41:50+02:00</time>
      </trkpt>
      <trkpt lat="41.78474" lon="9.1157">
        <ele>994</ele>
        <time>2008-05-28T16:41:56+02:00</time>
      </trkpt>
      <trkpt lat="41.78475" lon="9.11577">
        <ele>995</ele>
        <time>2008-05-28T16:42:04+02:00</time>
      </trkpt>
      <trkpt lat="41.78474" lon="9.11585">
        <ele>1004</ele>
        <time>2008-05-28T16:42:13+02:00</time>
      </trkpt>
      <trkpt lat="41.78474" lon="9.11593">
        <ele>1004</ele>
        <time>2008-05-28T16:42:20+02:00</time>
      </trkpt>
      <trkpt lat="41.78471" lon="9.11596">
        <ele>1004</ele>
        <time>2008-05-28T16:42:23+02:00</time>
      </trkpt>
      <trkpt lat="41.78467" lon="9.11604">
        <ele>1004</ele>
        <time>2008-05-28T16:42:32+02:00</time>
      </trkpt>
      <trkpt lat="41.78464" lon="9.11609">
        <ele>1004</ele>
        <time>2008-05-28T16:42:39+02:00</time>
      </trkpt>
      <trkpt lat="41.78464" lon="9.11611">
        <ele>1004</ele>
        <time>2008-05-28T16:42:43+02:00</time>
      </trkpt>
      <trkpt lat="41.7846" lon="9.11615">
        <ele>1004</ele>
        <time>2008-05-28T16:42:49+02:00</time>
      </trkpt>
      <trkpt lat="41.78461" lon="9.11622">
        <ele>1005</ele>
        <time>2008-05-28T16:42:55+02:00</time>
      </trkpt>
      <trkpt lat="41.78466" lon="9.11618">
        <ele>1005</ele>
        <time>2008-05-28T16:43:04+02:00</time>
      </trkpt>
      <trkpt lat="41.78467" lon="9.11617">
        <ele>1005</ele>
        <time>2008-05-28T16:43:06+02:00</time>
      </trkpt>
      <trkpt lat="41.78472" lon="9.11616">
        <ele>1006</ele>
        <time>2008-05-28T16:43:13+02:00</time>
      </trkpt>
      <trkpt lat="41.78475" lon="9.11619">
        <ele>1007</ele>
        <time>2008-05-28T16:43:18+02:00</time>
      </trkpt>
      <trkpt lat="41.78485" lon="9.11618">
        <ele>1007</ele>
        <time>2008-05-28T16:43:31+02:00</time>
      </trkpt>
      <trkpt lat="41.78488" lon="9.11617">
        <ele>1008</ele>
        <time>2008-05-28T16:43:36+02:00</time>
      </trkpt>
      <trkpt lat="41.78493" lon="9.11616">
        <ele>1008</ele>
        <time>2008-05-28T16:43:44+02:00</time>
      </trkpt>
      <trkpt lat="41.78498" lon="9.11615">
        <ele>1008</ele>
        <time>2008-05-28T16:43:51+02:00</time>
      </trkpt>
      <trkpt lat="41.78499" lon="9.11624">
        <ele>1009</ele>
        <time>2008-05-28T16:43:57+02:00</time>
      </trkpt>
      <trkpt lat="41.78501" lon="9.11624">
        <ele>1022</ele>
        <time>2008-05-28T16:44:02+02:00</time>
      </trkpt>
      <trkpt lat="41.78503" lon="9.11623">
        <ele>1022</ele>
        <time>2008-05-28T16:44:09+02:00</time>
      </trkpt>
      <trkpt lat="41.78508" lon="9.11625">
        <ele>1023</ele>
        <time>2008-05-28T16:44:18+02:00</time>
      </trkpt>
      <trkpt lat="41.78515" lon="9.11627">
        <ele>1024</ele>
        <time>2008-05-28T16:44:28+02:00</time>
      </trkpt>
      <trkpt lat="41.78519" lon="9.11626">
        <ele>1024</ele>
        <time>2008-05-28T16:44:35+02:00</time>
      </trkpt>
      <trkpt lat="41.78523" lon="9.11626">
        <ele>1024</ele>
        <time>2008-05-28T16:44:39+02:00</time>
      </trkpt>
      <trkpt lat="41.78529" lon="9.11627">
        <ele>1025</ele>
        <time>2008-05-28T16:44:45+02:00</time>
      </trkpt>
      <trkpt lat="41.78534" lon="9.11628">
        <ele>1025</ele>
        <time>2008-05-28T16:44:52+02:00</time>
      </trkpt>
      <trkpt lat="41.78534" lon="9.11634">
        <ele>1026</ele>
        <time>2008-05-28T16:44:57+02:00</time>
      </trkpt>
      <trkpt lat="41.78531" lon="9.11639">
        <ele>1027</ele>
        <time>2008-05-28T16:45:03+02:00</time>
      </trkpt>
      <trkpt lat="41.78528" lon="9.11645">
        <ele>1027</ele>
        <time>2008-05-28T16:45:10+02:00</time>
      </trkpt>
      <trkpt lat="41.78526" lon="9.11649">
        <ele>1028</ele>
        <time>2008-05-28T16:45:15+02:00</time>
      </trkpt>
      <trkpt lat="41.78522" lon="9.11656">
        <ele>1028</ele>
        <time>2008-05-28T16:45:24+02:00</time>
      </trkpt>
      <trkpt lat="41.78518" lon="9.1166">
        <ele>1028</ele>
        <time>2008-05-28T16:45:31+02:00</time>
      </trkpt>
      <trkpt lat="41.78518" lon="9.11663">
        <ele>1029</ele>
        <time>2008-05-28T16:45:35+02:00</time>
      </trkpt>
      <trkpt lat="41.78519" lon="9.11665">
        <ele>1029</ele>
        <time>2008-05-28T16:45:41+02:00</time>
      </trkpt>
      <trkpt lat="41.78516" lon="9.11666">
        <ele>1029</ele>
        <time>2008-05-28T16:45:45+02:00</time>
      </trkpt>
      <trkpt lat="41.78514" lon="9.11672">
        <ele>1039</ele>
        <time>2008-05-28T16:45:52+02:00</time>
      </trkpt>
      <trkpt lat="41.78512" lon="9.11677">
        <ele>1039</ele>
        <time>2008-05-28T16:45:59+02:00</time>
      </trkpt>
      <trkpt lat="41.78513" lon="9.11682">
        <ele>1040</ele>
        <time>2008-05-28T16:46:07+02:00</time>
      </trkpt>
      <trkpt lat="41.78516" lon="9.11687">
        <ele>1042</ele>
        <time>2008-05-28T16:46:17+02:00</time>
      </trkpt>
      <trkpt lat="41.78519" lon="9.11693">
        <ele>1044</ele>
        <time>2008-05-28T16:46:22+02:00</time>
      </trkpt>
      <trkpt lat="41.78519" lon="9.11696">
        <ele>1044</ele>
        <time>2008-05-28T16:46:27+02:00</time>
      </trkpt>
      <trkpt lat="41.78519" lon="9.11692">
        <ele>1044</ele>
        <time>2008-05-28T16:46:33+02:00</time>
      </trkpt>
      <trkpt lat="41.78521" lon="9.11692">
        <ele>1044</ele>
        <time>2008-05-28T16:46:36+02:00</time>
      </trkpt>
      <trkpt lat="41.78525" lon="9.11693">
        <ele>1045</ele>
        <time>2008-05-28T16:46:41+02:00</time>
      </trkpt>
      <trkpt lat="41.78529" lon="9.11704">
        <ele>1047</ele>
        <time>2008-05-28T16:46:52+02:00</time>
      </trkpt>
      <trkpt lat="41.78525" lon="9.11715">
        <ele>1048</ele>
        <time>2008-05-28T16:47:01+02:00</time>
      </trkpt>
      <trkpt lat="41.78525" lon="9.11721">
        <ele>1048</ele>
        <time>2008-05-28T16:47:07+02:00</time>
      </trkpt>
      <trkpt lat="41.78524" lon="9.11727">
        <ele>1049</ele>
        <time>2008-05-28T16:47:13+02:00</time>
      </trkpt>
      <trkpt lat="41.78524" lon="9.1173">
        <ele>1049</ele>
        <time>2008-05-28T16:47:17+02:00</time>
      </trkpt>
      <trkpt lat="41.78524" lon="9.11738">
        <ele>1049</ele>
        <time>2008-05-28T16:47:23+02:00</time>
      </trkpt>
      <trkpt lat="41.78523" lon="9.11741">
        <ele>1049</ele>
        <time>2008-05-28T16:47:27+02:00</time>
      </trkpt>
      <trkpt lat="41.78521" lon="9.11747">
        <ele>1049</ele>
        <time>2008-05-28T16:47:33+02:00</time>
      </trkpt>
      <trkpt lat="41.7852" lon="9.1175">
        <ele>1057</ele>
        <time>2008-05-28T16:47:37+02:00</time>
      </trkpt>
      <trkpt lat="41.78519" lon="9.11758">
        <ele>1057</ele>
        <time>2008-05-28T16:47:45+02:00</time>
      </trkpt>
      <trkpt lat="41.78519" lon="9.11765">
        <ele>1058</ele>
        <time>2008-05-28T16:47:51+02:00</time>
      </trkpt>
      <trkpt lat="41.78517" lon="9.11775">
        <ele>1060</ele>
        <time>2008-05-28T16:47:59+02:00</time>
      </trkpt>
      <trkpt lat="41.78518" lon="9.11781">
        <ele>1061</ele>
        <time>2008-05-28T16:48:07+02:00</time>
      </trkpt>
      <trkpt lat="41.78518" lon="9.11786">
        <ele>1062</ele>
        <time>2008-05-28T16:48:13+02:00</time>
      </trkpt>
      <trkpt lat="41.78517" lon="9.11789">
        <ele>1062</ele>
        <time>2008-05-28T16:48:20+02:00</time>
      </trkpt>
      <trkpt lat="41.78514" lon="9.11792">
        <ele>1062</ele>
        <time>2008-05-28T16:48:26+02:00</time>
      </trkpt>
      <trkpt lat="41.78511" lon="9.11802">
        <ele>1063</ele>
        <time>2008-05-28T16:48:31+02:00</time>
      </trkpt>
      <trkpt lat="41.78509" lon="9.11813">
        <ele>1063</ele>
        <time>2008-05-28T16:48:35+02:00</time>
      </trkpt>
      <trkpt lat="41.78505" lon="9.11828">
        <ele>1061</ele>
        <time>2008-05-28T16:48:41+02:00</time>
      </trkpt>
      <trkpt lat="41.78502" lon="9.11838">
        <ele>1064</ele>
        <time>2008-05-28T16:48:46+02:00</time>
      </trkpt>
      <trkpt lat="41.78499" lon="9.11845">
        <ele>1059</ele>
        <time>2008-05-28T16:48:51+02:00</time>
      </trkpt>
      <trkpt lat="41.78492" lon="9.11857">
        <ele>1060</ele>
        <time>2008-05-28T16:48:57+02:00</time>
      </trkpt>
      <trkpt lat="41.78486" lon="9.11865">
        <ele>1060</ele>
        <time>2008-05-28T16:49:02+02:00</time>
      </trkpt>
      <trkpt lat="41.78486" lon="9.11864">
        <ele>1060</ele>
        <time>2008-05-28T16:49:06+02:00</time>
      </trkpt>
      <trkpt lat="41.78489" lon="9.11861">
        <ele>1060</ele>
        <time>2008-05-28T16:49:17+02:00</time>
      </trkpt>
      <trkpt lat="41.7849" lon="9.1186">
        <ele>1060</ele>
        <time>2008-05-28T16:49:23+02:00</time>
      </trkpt>
      <trkpt lat="41.78487" lon="9.11864">
        <ele>1060</ele>
        <time>2008-05-28T16:49:48+02:00</time>
      </trkpt>
      <trkpt lat="41.78486" lon="9.11862">
        <ele>1060</ele>
        <time>2008-05-28T16:49:59+02:00</time>
      </trkpt>
      <trkpt lat="41.78487" lon="9.1186">
        <ele>1059</ele>
        <time>2008-05-28T16:50:16+02:00</time>
      </trkpt>
      <trkpt lat="41.78483" lon="9.11864">
        <ele>1059</ele>
        <time>2008-05-28T16:50:21+02:00</time>
      </trkpt>
      <trkpt lat="41.78467" lon="9.11873">
        <ele>1059</ele>
        <time>2008-05-28T16:50:26+02:00</time>
      </trkpt>
      <trkpt lat="41.78452" lon="9.11882">
        <ele>1058</ele>
        <time>2008-05-28T16:50:31+02:00</time>
      </trkpt>
      <trkpt lat="41.78443" lon="9.11889">
        <ele>1058</ele>
        <time>2008-05-28T16:50:36+02:00</time>
      </trkpt>
      <trkpt lat="41.78438" lon="9.11893">
        <ele>1058</ele>
        <time>2008-05-28T16:50:39+02:00</time>
      </trkpt>
      <trkpt lat="41.78431" lon="9.11898">
        <ele>1057</ele>
        <time>2008-05-28T16:50:44+02:00</time>
      </trkpt>
      <trkpt lat="41.78428" lon="9.11899">
        <ele>1057</ele>
        <time>2008-05-28T16:50:48+02:00</time>
      </trkpt>
      <trkpt lat="41.78422" lon="9.11898">
        <ele>1057</ele>
        <time>2008-05-28T16:50:52+02:00</time>
      </trkpt>
      <trkpt lat="41.78418" lon="9.11911">
        <ele>1058</ele>
        <time>2008-05-28T16:50:57+02:00</time>
      </trkpt>
      <trkpt lat="41.78417" lon="9.11915">
        <ele>1057</ele>
        <time>2008-05-28T16:50:59+02:00</time>
      </trkpt>
      <trkpt lat="41.78408" lon="9.11923">
        <ele>1060</ele>
        <time>2008-05-28T16:51:05+02:00</time>
      </trkpt>
      <trkpt lat="41.78408" lon="9.11928">
        <ele>1061</ele>
        <time>2008-05-28T16:51:17+02:00</time>
      </trkpt>
      <trkpt lat="41.78406" lon="9.11932">
        <ele>1062</ele>
        <time>2008-05-28T16:51:26+02:00</time>
      </trkpt>
      <trkpt lat="41.784" lon="9.11936">
        <ele>1063</ele>
        <time>2008-05-28T16:51:32+02:00</time>
      </trkpt>
      <trkpt lat="41.78397" lon="9.11938">
        <ele>1063</ele>
        <time>2008-05-28T16:51:37+02:00</time>
      </trkpt>
      <trkpt lat="41.78395" lon="9.11939">
        <ele>1063</ele>
        <time>2008-05-28T16:51:41+02:00</time>
      </trkpt>
      <trkpt lat="41.78392" lon="9.11942">
        <ele>1063</ele>
        <time>2008-05-28T16:51:45+02:00</time>
      </trkpt>
      <trkpt lat="41.78386" lon="9.11942">
        <ele>1063</ele>
        <time>2008-05-28T16:51:52+02:00</time>
      </trkpt>
      <trkpt lat="41.78379" lon="9.11943">
        <ele>1063</ele>
        <time>2008-05-28T16:51:59+02:00</time>
      </trkpt>
      <trkpt lat="41.78376" lon="9.11943">
        <ele>1063</ele>
        <time>2008-05-28T16:52:02+02:00</time>
      </trkpt>
      <trkpt lat="41.78369" lon="9.11939">
        <ele>1063</ele>
        <time>2008-05-28T16:52:10+02:00</time>
      </trkpt>
      <trkpt lat="41.78367" lon="9.11938">
        <ele>1063</ele>
        <time>2008-05-28T16:52:13+02:00</time>
      </trkpt>
      <trkpt lat="41.78355" lon="9.11936">
        <ele>1061</ele>
        <time>2008-05-28T16:52:20+02:00</time>
      </trkpt>
      <trkpt lat="41.78343" lon="9.1193">
        <ele>1059</ele>
        <time>2008-05-28T16:52:25+02:00</time>
      </trkpt>
      <trkpt lat="41.78332" lon="9.11928">
        <ele>1057</ele>
        <time>2008-05-28T16:52:30+02:00</time>
      </trkpt>
      <trkpt lat="41.78326" lon="9.1193">
        <ele>1058</ele>
        <time>2008-05-28T16:52:33+02:00</time>
      </trkpt>
      <trkpt lat="41.78319" lon="9.11925">
        <ele>1058</ele>
        <time>2008-05-28T16:52:38+02:00</time>
      </trkpt>
      <trkpt lat="41.78316" lon="9.11924">
        <ele>1059</ele>
        <time>2008-05-28T16:52:42+02:00</time>
      </trkpt>
      <trkpt lat="41.78315" lon="9.11925">
        <ele>1059</ele>
        <time>2008-05-28T16:52:47+02:00</time>
      </trkpt>
      <trkpt lat="41.78312" lon="9.11923">
        <ele>1059</ele>
        <time>2008-05-28T16:52:52+02:00</time>
      </trkpt>
      <trkpt lat="41.78304" lon="9.11923">
        <ele>1060</ele>
        <time>2008-05-28T16:52:57+02:00</time>
      </trkpt>
      <trkpt lat="41.78294" lon="9.11925">
        <ele>1061</ele>
        <time>2008-05-28T16:53:03+02:00</time>
      </trkpt>
      <trkpt lat="41.78291" lon="9.11924">
        <ele>1061</ele>
        <time>2008-05-28T16:53:10+02:00</time>
      </trkpt>
      <trkpt lat="41.78291" lon="9.11922">
        <ele>1061</ele>
        <time>2008-05-28T16:53:17+02:00</time>
      </trkpt>
      <trkpt lat="41.78288" lon="9.11928">
        <ele>1061</ele>
        <time>2008-05-28T16:53:29+02:00</time>
      </trkpt>
      <trkpt lat="41.78288" lon="9.11932">
        <ele>1061</ele>
        <time>2008-05-28T16:53:34+02:00</time>
      </trkpt>
      <trkpt lat="41.78285" lon="9.11939">
        <ele>1062</ele>
        <time>2008-05-28T16:53:41+02:00</time>
      </trkpt>
      <trkpt lat="41.78285" lon="9.1194">
        <ele>1062</ele>
        <time>2008-05-28T16:53:43+02:00</time>
      </trkpt>
      <trkpt lat="41.78279" lon="9.11949">
        <ele>1063</ele>
        <time>2008-05-28T16:53:52+02:00</time>
      </trkpt>
      <trkpt lat="41.78273" lon="9.11949">
        <ele>1063</ele>
        <time>2008-05-28T16:53:59+02:00</time>
      </trkpt>
      <trkpt lat="41.78274" lon="9.1195">
        <ele>1063</ele>
        <time>2008-05-28T16:54:07+02:00</time>
      </trkpt>
      <trkpt lat="41.78271" lon="9.11953">
        <ele>1063</ele>
        <time>2008-05-28T16:54:14+02:00</time>
      </trkpt>
      <trkpt lat="41.78268" lon="9.11953">
        <ele>1063</ele>
        <time>2008-05-28T16:54:19+02:00</time>
      </trkpt>
      <trkpt lat="41.78266" lon="9.11957">
        <ele>1063</ele>
        <time>2008-05-28T16:55:34+02:00</time>
      </trkpt>
      <trkpt lat="41.78266" lon="9.11954">
        <ele>1063</ele>
        <time>2008-05-28T16:56:15+02:00</time>
      </trkpt>
      <trkpt lat="41.78266" lon="9.11957">
        <ele>1063</ele>
        <time>2008-05-28T16:56:34+02:00</time>
      </trkpt>
      <trkpt lat="41.78264" lon="9.11954">
        <ele>1063</ele>
        <time>2008-05-28T16:59:12+02:00</time>
      </trkpt>
      <trkpt lat="41.78259" lon="9.11958">
        <ele>1063</ele>
        <time>2008-05-28T16:59:19+02:00</time>
      </trkpt>
      <trkpt lat="41.78248" lon="9.11964">
        <ele>1059</ele>
        <time>2008-05-28T16:59:26+02:00</time>
      </trkpt>
      <trkpt lat="41.78238" lon="9.11972">
        <ele>1059</ele>
        <time>2008-05-28T16:59:32+02:00</time>
      </trkpt>
      <trkpt lat="41.78232" lon="9.11986">
        <ele>1059</ele>
        <time>2008-05-28T16:59:38+02:00</time>
      </trkpt>
      <trkpt lat="41.78232" lon="9.12004">
        <ele>1062</ele>
        <time>2008-05-28T16:59:45+02:00</time>
      </trkpt>
      <trkpt lat="41.78235" lon="9.1202">
        <ele>1062</ele>
        <time>2008-05-28T16:59:53+02:00</time>
      </trkpt>
      <trkpt lat="41.7824" lon="9.12031">
        <ele>1062</ele>
        <time>2008-05-28T16:59:59+02:00</time>
      </trkpt>
      <trkpt lat="41.78246" lon="9.12048">
        <ele>1063</ele>
        <time>2008-05-28T17:00:07+02:00</time>
      </trkpt>
      <trkpt lat="41.78247" lon="9.12067">
        <ele>1066</ele>
        <time>2008-05-28T17:00:15+02:00</time>
      </trkpt>
      <trkpt lat="41.78251" lon="9.12085">
        <ele>1073</ele>
        <time>2008-05-28T17:00:23+02:00</time>
      </trkpt>
      <trkpt lat="41.78253" lon="9.12099">
        <ele>1077</ele>
        <time>2008-05-28T17:00:30+02:00</time>
      </trkpt>
      <trkpt lat="41.78254" lon="9.12115">
        <ele>1079</ele>
        <time>2008-05-28T17:00:38+02:00</time>
      </trkpt>
      <trkpt lat="41.78258" lon="9.12134">
        <ele>1081</ele>
        <time>2008-05-28T17:00:46+02:00</time>
      </trkpt>
      <trkpt lat="41.78265" lon="9.1216">
        <ele>1081</ele>
        <time>2008-05-28T17:00:57+02:00</time>
      </trkpt>
      <trkpt lat="41.7827" lon="9.12177">
        <ele>1085</ele>
        <time>2008-05-28T17:01:04+02:00</time>
      </trkpt>
      <trkpt lat="41.7827" lon="9.12189">
        <ele>1086</ele>
        <time>2008-05-28T17:01:09+02:00</time>
      </trkpt>
      <trkpt lat="41.78264" lon="9.12204">
        <ele>1087</ele>
        <time>2008-05-28T17:01:15+02:00</time>
      </trkpt>
      <trkpt lat="41.78254" lon="9.12212">
        <ele>1088</ele>
        <time>2008-05-28T17:01:21+02:00</time>
      </trkpt>
      <trkpt lat="41.78239" lon="9.12217">
        <ele>1080</ele>
        <time>2008-05-28T17:01:29+02:00</time>
      </trkpt>
      <trkpt lat="41.78228" lon="9.12226">
        <ele>1080</ele>
        <time>2008-05-28T17:01:36+02:00</time>
      </trkpt>
      <trkpt lat="41.78222" lon="9.12243">
        <ele>1081</ele>
        <time>2008-05-28T17:01:43+02:00</time>
      </trkpt>
      <trkpt lat="41.78225" lon="9.12262">
        <ele>1085</ele>
        <time>2008-05-28T17:01:50+02:00</time>
      </trkpt>
      <trkpt lat="41.78237" lon="9.12282">
        <ele>1086</ele>
        <time>2008-05-28T17:01:57+02:00</time>
      </trkpt>
      <trkpt lat="41.7825" lon="9.12307">
        <ele>1094</ele>
        <time>2008-05-28T17:02:05+02:00</time>
      </trkpt>
      <trkpt lat="41.78268" lon="9.12334">
        <ele>1094</ele>
        <time>2008-05-28T17:02:15+02:00</time>
      </trkpt>
      <trkpt lat="41.78279" lon="9.12351">
        <ele>1095</ele>
        <time>2008-05-28T17:02:22+02:00</time>
      </trkpt>
      <trkpt lat="41.78291" lon="9.12371">
        <ele>1096</ele>
        <time>2008-05-28T17:02:30+02:00</time>
      </trkpt>
      <trkpt lat="41.783" lon="9.12387">
        <ele>1096</ele>
        <time>2008-05-28T17:02:36+02:00</time>
      </trkpt>
      <trkpt lat="41.78309" lon="9.12406">
        <ele>1097</ele>
        <time>2008-05-28T17:02:42+02:00</time>
      </trkpt>
      <trkpt lat="41.78318" lon="9.12425">
        <ele>1098</ele>
        <time>2008-05-28T17:02:48+02:00</time>
      </trkpt>
      <trkpt lat="41.78324" lon="9.12439">
        <ele>1098</ele>
        <time>2008-05-28T17:02:52+02:00</time>
      </trkpt>
      <trkpt lat="41.78329" lon="9.12452">
        <ele>1097</ele>
        <time>2008-05-28T17:02:55+02:00</time>
      </trkpt>
      <trkpt lat="41.78342" lon="9.12484">
        <ele>1105</ele>
        <time>2008-05-28T17:03:03+02:00</time>
      </trkpt>
      <trkpt lat="41.78353" lon="9.12511">
        <ele>1106</ele>
        <time>2008-05-28T17:03:10+02:00</time>
      </trkpt>
      <trkpt lat="41.78365" lon="9.12542">
        <ele>1108</ele>
        <time>2008-05-28T17:03:18+02:00</time>
      </trkpt>
      <trkpt lat="41.78373" lon="9.12565">
        <ele>1108</ele>
        <time>2008-05-28T17:03:24+02:00</time>
      </trkpt>
      <trkpt lat="41.78379" lon="9.12579">
        <ele>1109</ele>
        <time>2008-05-28T17:03:29+02:00</time>
      </trkpt>
      <trkpt lat="41.78381" lon="9.12588">
        <ele>1108</ele>
        <time>2008-05-28T17:03:34+02:00</time>
      </trkpt>
      <trkpt lat="41.78382" lon="9.12588">
        <ele>1108</ele>
        <time>2008-05-28T17:03:45+02:00</time>
      </trkpt>
      <trkpt lat="41.78383" lon="9.12588">
        <ele>1108</ele>
        <time>2008-05-28T17:03:52+02:00</time>
      </trkpt>
      <trkpt lat="41.78383" lon="9.12588">
        <ele>1108</ele>
        <time>2008-05-28T17:04:11+02:00</time>
      </trkpt>
      <trkpt lat="41.78382" lon="9.12588">
        <ele>1108</ele>
        <time>2008-05-28T17:04:20+02:00</time>
      </trkpt>
      <trkpt lat="41.78381" lon="9.12588">
        <ele>1108</ele>
        <time>2008-05-28T17:04:27+02:00</time>
      </trkpt>
      <trkpt lat="41.78381" lon="9.12587">
        <ele>1108</ele>
        <time>2008-05-28T17:04:38+02:00</time>
      </trkpt>
      <trkpt lat="41.78381" lon="9.12588">
        <ele>1108</ele>
        <time>2008-05-28T17:04:44+02:00</time>
      </trkpt>
      <trkpt lat="41.78381" lon="9.12588">
        <ele>1108</ele>
        <time>2008-05-28T17:04:51+02:00</time>
      </trkpt>
      <trkpt lat="41.78381" lon="9.12587">
        <ele>1108</ele>
        <time>2008-05-28T17:05:04+02:00</time>
      </trkpt>
      <trkpt lat="41.7838" lon="9.12586">
        <ele>1108</ele>
        <time>2008-05-28T17:05:26+02:00</time>
      </trkpt>
      <trkpt lat="41.7838" lon="9.12586">
        <ele>1108</ele>
        <time>2008-05-28T17:05:36+02:00</time>
      </trkpt>
      <trkpt lat="41.7838" lon="9.12586">
        <ele>1108</ele>
        <time>2008-05-28T17:05:42+02:00</time>
      </trkpt>
      <trkpt lat="41.78379" lon="9.12585">
        <ele>1108</ele>
        <time>2008-05-28T17:05:49+02:00</time>
      </trkpt>
      <trkpt lat="41.78379" lon="9.12587">
        <ele>1108</ele>
        <time>2008-05-28T17:06:08+02:00</time>
      </trkpt>
      <trkpt lat="41.78378" lon="9.12587">
        <ele>1108</ele>
        <time>2008-05-28T17:06:20+02:00</time>
      </trkpt>
      <trkpt lat="41.78378" lon="9.1259">
        <ele>1108</ele>
        <time>2008-05-28T17:06:23+02:00</time>
      </trkpt>
      <trkpt lat="41.7838" lon="9.12604">
        <ele>1108</ele>
        <time>2008-05-28T17:06:28+02:00</time>
      </trkpt>
      <trkpt lat="41.7839" lon="9.12626">
        <ele>1108</ele>
        <time>2008-05-28T17:06:34+02:00</time>
      </trkpt>
      <trkpt lat="41.78404" lon="9.12657">
        <ele>1107</ele>
        <time>2008-05-28T17:06:41+02:00</time>
      </trkpt>
      <trkpt lat="41.78413" lon="9.12693">
        <ele>1104</ele>
        <time>2008-05-28T17:06:48+02:00</time>
      </trkpt>
      <trkpt lat="41.78415" lon="9.12711">
        <ele>1103</ele>
        <time>2008-05-28T17:06:51+02:00</time>
      </trkpt>
      <trkpt lat="41.78408" lon="9.12733">
        <ele>1101</ele>
        <time>2008-05-28T17:06:55+02:00</time>
      </trkpt>
      <trkpt lat="41.78397" lon="9.12763">
        <ele>1098</ele>
        <time>2008-05-28T17:07:00+02:00</time>
      </trkpt>
      <trkpt lat="41.78382" lon="9.12785">
        <ele>1098</ele>
        <time>2008-05-28T17:07:04+02:00</time>
      </trkpt>
      <trkpt lat="41.78376" lon="9.12797">
        <ele>1097</ele>
        <time>2008-05-28T17:07:06+02:00</time>
      </trkpt>
      <trkpt lat="41.7837" lon="9.12808">
        <ele>1097</ele>
        <time>2008-05-28T17:07:08+02:00</time>
      </trkpt>
      <trkpt lat="41.78353" lon="9.12825">
        <ele>1096</ele>
        <time>2008-05-28T17:07:12+02:00</time>
      </trkpt>
      <trkpt lat="41.78336" lon="9.12834">
        <ele>1095</ele>
        <time>2008-05-28T17:07:16+02:00</time>
      </trkpt>
      <trkpt lat="41.78317" lon="9.12847">
        <ele>1090</ele>
        <time>2008-05-28T17:07:20+02:00</time>
      </trkpt>
      <trkpt lat="41.783" lon="9.12859">
        <ele>1087</ele>
        <time>2008-05-28T17:07:24+02:00</time>
      </trkpt>
      <trkpt lat="41.78284" lon="9.12871">
        <ele>1086</ele>
        <time>2008-05-28T17:07:44+02:00</time>
      </trkpt>
      <trkpt lat="41.78284" lon="9.1287">
        <ele>1086</ele>
        <time>2008-05-28T17:07:50+02:00</time>
      </trkpt>
      <trkpt lat="41.78285" lon="9.12869">
        <ele>1086</ele>
        <time>2008-05-28T17:08:03+02:00</time>
      </trkpt>
      <trkpt lat="41.78285" lon="9.12868">
        <ele>1086</ele>
        <time>2008-05-28T17:08:30+02:00</time>
      </trkpt>
      <trkpt lat="41.78285" lon="9.12867">
        <ele>1086</ele>
        <time>2008-05-28T17:08:36+02:00</time>
      </trkpt>
      <trkpt lat="41.78286" lon="9.12867">
        <ele>1086</ele>
        <time>2008-05-28T17:08:44+02:00</time>
      </trkpt>
      <trkpt lat="41.78286" lon="9.12867">
        <ele>1086</ele>
        <time>2008-05-28T17:09:03+02:00</time>
      </trkpt>
      <trkpt lat="41.78286" lon="9.12867">
        <ele>1086</ele>
        <time>2008-05-28T17:09:18+02:00</time>
      </trkpt>
      <trkpt lat="41.78285" lon="9.12868">
        <ele>1086</ele>
        <time>2008-05-28T17:09:38+02:00</time>
      </trkpt>
      <trkpt lat="41.78286" lon="9.12871">
        <ele>1086</ele>
        <time>2008-05-28T17:17:00+02:00</time>
      </trkpt>
      <trkpt lat="41.78286" lon="9.12872">
        <ele>1086</ele>
        <time>2008-05-28T17:17:04+02:00</time>
      </trkpt>
      <trkpt lat="41.78305" lon="9.12911">
        <ele>1086</ele>
        <time>2008-05-28T17:17:15+02:00</time>
      </trkpt>
      <trkpt lat="41.78322" lon="9.12937">
        <ele>1083</ele>
        <time>2008-05-28T17:17:21+02:00</time>
      </trkpt>
      <trkpt lat="41.78328" lon="9.12947">
        <ele>1082</ele>
        <time>2008-05-28T17:17:23+02:00</time>
      </trkpt>
      <trkpt lat="41.78341" lon="9.12962">
        <ele>1086</ele>
        <time>2008-05-28T17:17:27+02:00</time>
      </trkpt>
      <trkpt lat="41.7835" lon="9.12974">
        <ele>1085</ele>
        <time>2008-05-28T17:17:32+02:00</time>
      </trkpt>
      <trkpt lat="41.78352" lon="9.12976">
        <ele>1085</ele>
        <time>2008-05-28T17:17:34+02:00</time>
      </trkpt>
      <trkpt lat="41.78355" lon="9.12978">
        <ele>1085</ele>
        <time>2008-05-28T17:17:37+02:00</time>
      </trkpt>
      <trkpt lat="41.78362" lon="9.12983">
        <ele>1085</ele>
        <time>2008-05-28T17:17:43+02:00</time>
      </trkpt>
      <trkpt lat="41.78364" lon="9.12984">
        <ele>1085</ele>
        <time>2008-05-28T17:17:51+02:00</time>
      </trkpt>
      <trkpt lat="41.78364" lon="9.12987">
        <ele>1085</ele>
        <time>2008-05-28T17:18:01+02:00</time>
      </trkpt>
      <trkpt lat="41.78361" lon="9.12988">
        <ele>1085</ele>
        <time>2008-05-28T17:18:04+02:00</time>
      </trkpt>
      <trkpt lat="41.78351" lon="9.12986">
        <ele>1084</ele>
        <time>2008-05-28T17:18:08+02:00</time>
      </trkpt>
      <trkpt lat="41.78332" lon="9.12976">
        <ele>1081</ele>
        <time>2008-05-28T17:18:13+02:00</time>
      </trkpt>
      <trkpt lat="41.78321" lon="9.1297">
        <ele>1080</ele>
        <time>2008-05-28T17:18:17+02:00</time>
      </trkpt>
      <trkpt lat="41.78309" lon="9.12966">
        <ele>1080</ele>
        <time>2008-05-28T17:18:21+02:00</time>
      </trkpt>
      <trkpt lat="41.783" lon="9.12965">
        <ele>1079</ele>
        <time>2008-05-28T17:18:25+02:00</time>
      </trkpt>
      <trkpt lat="41.78263" lon="9.12959">
        <ele>1077</ele>
        <time>2008-05-28T17:18:39+02:00</time>
      </trkpt>
      <trkpt lat="41.78255" lon="9.12956">
        <ele>1077</ele>
        <time>2008-05-28T17:18:44+02:00</time>
      </trkpt>
      <trkpt lat="41.78243" lon="9.12958">
        <ele>1066</ele>
        <time>2008-05-28T17:18:51+02:00</time>
      </trkpt>
      <trkpt lat="41.78233" lon="9.12955">
        <ele>1065</ele>
        <time>2008-05-28T17:18:55+02:00</time>
      </trkpt>
      <trkpt lat="41.78222" lon="9.12948">
        <ele>1065</ele>
        <time>2008-05-28T17:19:01+02:00</time>
      </trkpt>
      <trkpt lat="41.78218" lon="9.12947">
        <ele>1064</ele>
        <time>2008-05-28T17:19:03+02:00</time>
      </trkpt>
      <trkpt lat="41.7821" lon="9.12942">
        <ele>1063</ele>
        <time>2008-05-28T17:19:07+02:00</time>
      </trkpt>
      <trkpt lat="41.78202" lon="9.12943">
        <ele>1062</ele>
        <time>2008-05-28T17:19:11+02:00</time>
      </trkpt>
      <trkpt lat="41.78195" lon="9.12947">
        <ele>1061</ele>
        <time>2008-05-28T17:19:15+02:00</time>
      </trkpt>
      <trkpt lat="41.78184" lon="9.12942">
        <ele>1060</ele>
        <time>2008-05-28T17:19:18+02:00</time>
      </trkpt>
      <trkpt lat="41.78178" lon="9.12941">
        <ele>1060</ele>
        <time>2008-05-28T17:19:20+02:00</time>
      </trkpt>
      <trkpt lat="41.78161" lon="9.12946">
        <ele>1046</ele>
        <time>2008-05-28T17:19:25+02:00</time>
      </trkpt>
      <trkpt lat="41.78153" lon="9.12947">
        <ele>1045</ele>
        <time>2008-05-28T17:19:28+02:00</time>
      </trkpt>
      <trkpt lat="41.78137" lon="9.12944">
        <ele>1043</ele>
        <time>2008-05-28T17:19:33+02:00</time>
      </trkpt>
      <trkpt lat="41.78135" lon="9.12958">
        <ele>1041</ele>
        <time>2008-05-28T17:19:38+02:00</time>
      </trkpt>
      <trkpt lat="41.78128" lon="9.12961">
        <ele>1040</ele>
        <time>2008-05-28T17:19:41+02:00</time>
      </trkpt>
      <trkpt lat="41.78121" lon="9.12961">
        <ele>1039</ele>
        <time>2008-05-28T17:19:44+02:00</time>
      </trkpt>
      <trkpt lat="41.78115" lon="9.12965">
        <ele>1038</ele>
        <time>2008-05-28T17:19:49+02:00</time>
      </trkpt>
      <trkpt lat="41.78114" lon="9.12969">
        <ele>1038</ele>
        <time>2008-05-28T17:19:54+02:00</time>
      </trkpt>
      <trkpt lat="41.78111" lon="9.12975">
        <ele>1037</ele>
        <time>2008-05-28T17:19:59+02:00</time>
      </trkpt>
      <trkpt lat="41.78109" lon="9.12978">
        <ele>1037</ele>
        <time>2008-05-28T17:20:03+02:00</time>
      </trkpt>
      <trkpt lat="41.78105" lon="9.12977">
        <ele>1036</ele>
        <time>2008-05-28T17:20:08+02:00</time>
      </trkpt>
      <trkpt lat="41.78099" lon="9.12977">
        <ele>1035</ele>
        <time>2008-05-28T17:20:13+02:00</time>
      </trkpt>
      <trkpt lat="41.78093" lon="9.12974">
        <ele>1035</ele>
        <time>2008-05-28T17:20:17+02:00</time>
      </trkpt>
      <trkpt lat="41.7809" lon="9.12975">
        <ele>1035</ele>
        <time>2008-05-28T17:20:22+02:00</time>
      </trkpt>
      <trkpt lat="41.78088" lon="9.12973">
        <ele>1035</ele>
        <time>2008-05-28T17:20:28+02:00</time>
      </trkpt>
      <trkpt lat="41.78087" lon="9.12972">
        <ele>1035</ele>
        <time>2008-05-28T17:20:32+02:00</time>
      </trkpt>
      <trkpt lat="41.78078" lon="9.12967">
        <ele>1020</ele>
        <time>2008-05-28T17:20:37+02:00</time>
      </trkpt>
      <trkpt lat="41.78058" lon="9.12958">
        <ele>1017</ele>
        <time>2008-05-28T17:20:54+02:00</time>
      </trkpt>
      <trkpt lat="41.7805" lon="9.12946">
        <ele>1017</ele>
        <time>2008-05-28T17:21:01+02:00</time>
      </trkpt>
      <trkpt lat="41.78034" lon="9.12924">
        <ele>1014</ele>
        <time>2008-05-28T17:21:12+02:00</time>
      </trkpt>
      <trkpt lat="41.78027" lon="9.1292">
        <ele>1012</ele>
        <time>2008-05-28T17:21:15+02:00</time>
      </trkpt>
      <trkpt lat="41.78019" lon="9.12927">
        <ele>1010</ele>
        <time>2008-05-28T17:21:20+02:00</time>
      </trkpt>
      <trkpt lat="41.78014" lon="9.12937">
        <ele>1010</ele>
        <time>2008-05-28T17:21:24+02:00</time>
      </trkpt>
      <trkpt lat="41.78013" lon="9.12952">
        <ele>1011</ele>
        <time>2008-05-28T17:21:28+02:00</time>
      </trkpt>
      <trkpt lat="41.78009" lon="9.1295">
        <ele>1011</ele>
        <time>2008-05-28T17:21:32+02:00</time>
      </trkpt>
      <trkpt lat="41.78001" lon="9.12948">
        <ele>1010</ele>
        <time>2008-05-28T17:21:37+02:00</time>
      </trkpt>
      <trkpt lat="41.77998" lon="9.12939">
        <ele>998</ele>
        <time>2008-05-28T17:21:41+02:00</time>
      </trkpt>
      <trkpt lat="41.77995" lon="9.12931">
        <ele>999</ele>
        <time>2008-05-28T17:21:45+02:00</time>
      </trkpt>
      <trkpt lat="41.77986" lon="9.12924">
        <ele>999</ele>
        <time>2008-05-28T17:21:50+02:00</time>
      </trkpt>
      <trkpt lat="41.77979" lon="9.1292">
        <ele>997</ele>
        <time>2008-05-28T17:21:55+02:00</time>
      </trkpt>
      <trkpt lat="41.77964" lon="9.1292">
        <ele>995</ele>
        <time>2008-05-28T17:22:02+02:00</time>
      </trkpt>
      <trkpt lat="41.77948" lon="9.12916">
        <ele>991</ele>
        <time>2008-05-28T17:22:07+02:00</time>
      </trkpt>
      <trkpt lat="41.77939" lon="9.12909">
        <ele>990</ele>
        <time>2008-05-28T17:22:10+02:00</time>
      </trkpt>
      <trkpt lat="41.77919" lon="9.12905">
        <ele>988</ele>
        <time>2008-05-28T17:22:16+02:00</time>
      </trkpt>
      <trkpt lat="41.77915" lon="9.12903">
        <ele>984</ele>
        <time>2008-05-28T17:22:18+02:00</time>
      </trkpt>
      <trkpt lat="41.77917" lon="9.12886">
        <ele>988</ele>
        <time>2008-05-28T17:22:23+02:00</time>
      </trkpt>
      <trkpt lat="41.77915" lon="9.12876">
        <ele>981</ele>
        <time>2008-05-28T17:22:27+02:00</time>
      </trkpt>
      <trkpt lat="41.77904" lon="9.12871">
        <ele>980</ele>
        <time>2008-05-28T17:22:30+02:00</time>
      </trkpt>
      <trkpt lat="41.77902" lon="9.12869">
        <ele>980</ele>
        <time>2008-05-28T17:22:31+02:00</time>
      </trkpt>
      <trkpt lat="41.77888" lon="9.1285">
        <ele>979</ele>
        <time>2008-05-28T17:22:37+02:00</time>
      </trkpt>
      <trkpt lat="41.77876" lon="9.12834">
        <ele>979</ele>
        <time>2008-05-28T17:22:41+02:00</time>
      </trkpt>
      <trkpt lat="41.77866" lon="9.12812">
        <ele>969</ele>
        <time>2008-05-28T17:22:46+02:00</time>
      </trkpt>
      <trkpt lat="41.77863" lon="9.12806">
        <ele>968</ele>
        <time>2008-05-28T17:22:47+02:00</time>
      </trkpt>
      <trkpt lat="41.7786" lon="9.12797">
        <ele>967</ele>
        <time>2008-05-28T17:22:50+02:00</time>
      </trkpt>
      <trkpt lat="41.77859" lon="9.1279">
        <ele>966</ele>
        <time>2008-05-28T17:22:53+02:00</time>
      </trkpt>
      <trkpt lat="41.77859" lon="9.12785">
        <ele>965</ele>
        <time>2008-05-28T17:22:55+02:00</time>
      </trkpt>
      <trkpt lat="41.77849" lon="9.12781">
        <ele>964</ele>
        <time>2008-05-28T17:23:00+02:00</time>
      </trkpt>
      <trkpt lat="41.77849" lon="9.12781">
        <ele>964</ele>
        <time>2008-05-28T17:23:01+02:00</time>
      </trkpt>
      <trkpt lat="41.77844" lon="9.12771">
        <ele>962</ele>
        <time>2008-05-28T17:23:07+02:00</time>
      </trkpt>
      <trkpt lat="41.7784" lon="9.12766">
        <ele>960</ele>
        <time>2008-05-28T17:23:20+02:00</time>
      </trkpt>
      <trkpt lat="41.77841" lon="9.12766">
        <ele>961</ele>
        <time>2008-05-28T17:23:21+02:00</time>
      </trkpt>
      <trkpt lat="41.77843" lon="9.12765">
        <ele>961</ele>
        <time>2008-05-28T17:23:27+02:00</time>
      </trkpt>
      <trkpt lat="41.77846" lon="9.12763">
        <ele>961</ele>
        <time>2008-05-28T17:23:29+02:00</time>
      </trkpt>
      <trkpt lat="41.77838" lon="9.12736">
        <ele>951</ele>
        <time>2008-05-28T17:23:41+02:00</time>
      </trkpt>
      <trkpt lat="41.77843" lon="9.12736">
        <ele>951</ele>
        <time>2008-05-28T17:23:43+02:00</time>
      </trkpt>
      <trkpt lat="41.77855" lon="9.12737">
        <ele>951</ele>
        <time>2008-05-28T17:23:50+02:00</time>
      </trkpt>
      <trkpt lat="41.77859" lon="9.12735">
        <ele>951</ele>
        <time>2008-05-28T17:23:53+02:00</time>
      </trkpt>
      <trkpt lat="41.77855" lon="9.12721">
        <ele>950</ele>
        <time>2008-05-28T17:23:58+02:00</time>
      </trkpt>
      <trkpt lat="41.77849" lon="9.12716">
        <ele>949</ele>
        <time>2008-05-28T17:24:02+02:00</time>
      </trkpt>
      <trkpt lat="41.7785" lon="9.12722">
        <ele>950</ele>
        <time>2008-05-28T17:24:13+02:00</time>
      </trkpt>
      <trkpt lat="41.7784" lon="9.12727">
        <ele>950</ele>
        <time>2008-05-28T17:25:15+02:00</time>
      </trkpt>
      <trkpt lat="41.77841" lon="9.12725">
        <ele>950</ele>
        <time>2008-05-28T17:25:21+02:00</time>
      </trkpt>
      <trkpt lat="41.77843" lon="9.12724">
        <ele>950</ele>
        <time>2008-05-28T17:25:27+02:00</time>
      </trkpt>
      <trkpt lat="41.77846" lon="9.12726">
        <ele>950</ele>
        <time>2008-05-28T17:25:35+02:00</time>
      </trkpt>
      <trkpt lat="41.77846" lon="9.12729">
        <ele>951</ele>
        <time>2008-05-28T17:25:45+02:00</time>
      </trkpt>
      <trkpt lat="41.7785" lon="9.12722">
        <ele>950</ele>
        <time>2008-05-28T17:25:57+02:00</time>
      </trkpt>
      <trkpt lat="41.77855" lon="9.12722">
        <ele>950</ele>
        <time>2008-05-28T17:26:05+02:00</time>
      </trkpt>
      <trkpt lat="41.7785" lon="9.12717">
        <ele>949</ele>
        <time>2008-05-28T17:26:35+02:00</time>
      </trkpt>
      <trkpt lat="41.7785" lon="9.12724">
        <ele>950</ele>
        <time>2008-05-28T17:27:13+02:00</time>
      </trkpt>
      <trkpt lat="41.77844" lon="9.12728">
        <ele>950</ele>
        <time>2008-05-28T17:27:19+02:00</time>
      </trkpt>
      <trkpt lat="41.77841" lon="9.12729">
        <ele>951</ele>
        <time>2008-05-28T17:27:52+02:00</time>
      </trkpt>
      <trkpt lat="41.77843" lon="9.12728">
        <ele>950</ele>
        <time>2008-05-28T17:27:58+02:00</time>
      </trkpt>
      <trkpt lat="41.77843" lon="9.12727">
        <ele>950</ele>
        <time>2008-05-28T17:28:03+02:00</time>
      </trkpt>
      <trkpt lat="41.7784" lon="9.1273">
        <ele>951</ele>
        <time>2008-05-28T17:28:20+02:00</time>
      </trkpt>
      <trkpt lat="41.7784" lon="9.12725">
        <ele>950</ele>
        <time>2008-05-28T17:28:25+02:00</time>
      </trkpt>
      <trkpt lat="41.77848" lon="9.1272">
        <ele>949</ele>
        <time>2008-05-28T17:28:57+02:00</time>
      </trkpt>
      <trkpt lat="41.77846" lon="9.12724">
        <ele>950</ele>
        <time>2008-05-28T17:29:21+02:00</time>
      </trkpt>
      <trkpt lat="41.77845" lon="9.12723">
        <ele>950</ele>
        <time>2008-05-28T17:30:59+02:00</time>
      </trkpt>
      <trkpt lat="41.77845" lon="9.1272">
        <ele>949</ele>
        <time>2008-05-28T17:31:22+02:00</time>
      </trkpt>
      <trkpt lat="41.77845" lon="9.12718">
        <ele>949</ele>
        <time>2008-05-28T17:31:24+02:00</time>
      </trkpt>
      <trkpt lat="41.77841" lon="9.1271">
        <ele>948</ele>
        <time>2008-05-28T17:31:27+02:00</time>
      </trkpt>
      <trkpt lat="41.77827" lon="9.12694">
        <ele>942</ele>
        <time>2008-05-28T17:31:33+02:00</time>
      </trkpt>
      <trkpt lat="41.77809" lon="9.12672">
        <ele>940</ele>
        <time>2008-05-28T17:31:37+02:00</time>
      </trkpt>
      <trkpt lat="41.778" lon="9.12658">
        <ele>930</ele>
        <time>2008-05-28T17:31:39+02:00</time>
      </trkpt>
      <trkpt lat="41.77791" lon="9.12651">
        <ele>929</ele>
        <time>2008-05-28T17:31:41+02:00</time>
      </trkpt>
      <trkpt lat="41.77765" lon="9.12637">
        <ele>928</ele>
        <time>2008-05-28T17:31:46+02:00</time>
      </trkpt>
      <trkpt lat="41.77747" lon="9.12632">
        <ele>921</ele>
        <time>2008-05-28T17:31:49+02:00</time>
      </trkpt>
      <trkpt lat="41.77727" lon="9.12624">
        <ele>919</ele>
        <time>2008-05-28T17:31:55+02:00</time>
      </trkpt>
      <trkpt lat="41.77715" lon="9.12622">
        <ele>918</ele>
        <time>2008-05-28T17:32:01+02:00</time>
      </trkpt>
      <trkpt lat="41.77701" lon="9.12618">
        <ele>917</ele>
        <time>2008-05-28T17:32:05+02:00</time>
      </trkpt>
      <trkpt lat="41.77684" lon="9.1262">
        <ele>916</ele>
        <time>2008-05-28T17:32:09+02:00</time>
      </trkpt>
      <trkpt lat="41.77662" lon="9.12617">
        <ele>906</ele>
        <time>2008-05-28T17:32:13+02:00</time>
      </trkpt>
      <trkpt lat="41.77653" lon="9.12615">
        <ele>905</ele>
        <time>2008-05-28T17:32:16+02:00</time>
      </trkpt>
      <trkpt lat="41.77641" lon="9.12606">
        <ele>904</ele>
        <time>2008-05-28T17:32:21+02:00</time>
      </trkpt>
      <trkpt lat="41.77639" lon="9.12605">
        <ele>903</ele>
        <time>2008-05-28T17:32:23+02:00</time>
      </trkpt>
      <trkpt lat="41.77622" lon="9.12599">
        <ele>901</ele>
        <time>2008-05-28T17:32:34+02:00</time>
      </trkpt>
      <trkpt lat="41.77608" lon="9.12605">
        <ele>899</ele>
        <time>2008-05-28T17:32:39+02:00</time>
      </trkpt>
      <trkpt lat="41.77604" lon="9.12605">
        <ele>898</ele>
        <time>2008-05-28T17:32:41+02:00</time>
      </trkpt>
      <trkpt lat="41.77604" lon="9.12606">
        <ele>899</ele>
        <time>2008-05-28T17:32:43+02:00</time>
      </trkpt>
      <trkpt lat="41.77603" lon="9.126">
        <ele>897</ele>
        <time>2008-05-28T17:32:48+02:00</time>
      </trkpt>
      <trkpt lat="41.77604" lon="9.12598">
        <ele>897</ele>
        <time>2008-05-28T17:32:55+02:00</time>
      </trkpt>
      <trkpt lat="41.77602" lon="9.12596">
        <ele>896</ele>
        <time>2008-05-28T17:33:00+02:00</time>
      </trkpt>
      <trkpt lat="41.77595" lon="9.12597">
        <ele>895</ele>
        <time>2008-05-28T17:33:05+02:00</time>
      </trkpt>
      <trkpt lat="41.77584" lon="9.12598">
        <ele>893</ele>
        <time>2008-05-28T17:33:11+02:00</time>
      </trkpt>
      <trkpt lat="41.77582" lon="9.12598">
        <ele>884</ele>
        <time>2008-05-28T17:33:12+02:00</time>
      </trkpt>
      <trkpt lat="41.77582" lon="9.12593">
        <ele>884</ele>
        <time>2008-05-28T17:33:18+02:00</time>
      </trkpt>
      <trkpt lat="41.77587" lon="9.12586">
        <ele>888</ele>
        <time>2008-05-28T17:33:22+02:00</time>
      </trkpt>
      <trkpt lat="41.77594" lon="9.12583">
        <ele>886</ele>
        <time>2008-05-28T17:33:26+02:00</time>
      </trkpt>
      <trkpt lat="41.77595" lon="9.12579">
        <ele>886</ele>
        <time>2008-05-28T17:33:29+02:00</time>
      </trkpt>
      <trkpt lat="41.77591" lon="9.12577">
        <ele>886</ele>
        <time>2008-05-28T17:33:36+02:00</time>
      </trkpt>
      <trkpt lat="41.7759" lon="9.12578">
        <ele>885</ele>
        <time>2008-05-28T17:33:41+02:00</time>
      </trkpt>
      <trkpt lat="41.77583" lon="9.12576">
        <ele>880</ele>
        <time>2008-05-28T17:33:57+02:00</time>
      </trkpt>
      <trkpt lat="41.77577" lon="9.12577">
        <ele>879</ele>
        <time>2008-05-28T17:34:03+02:00</time>
      </trkpt>
      <trkpt lat="41.77576" lon="9.12578">
        <ele>879</ele>
        <time>2008-05-28T17:34:04+02:00</time>
      </trkpt>
      <trkpt lat="41.77564" lon="9.12582">
        <ele>875</ele>
        <time>2008-05-28T17:34:09+02:00</time>
      </trkpt>
      <trkpt lat="41.77559" lon="9.12584">
        <ele>882</ele>
        <time>2008-05-28T17:34:11+02:00</time>
      </trkpt>
      <trkpt lat="41.77556" lon="9.12583">
        <ele>873</ele>
        <time>2008-05-28T17:34:14+02:00</time>
      </trkpt>
      <trkpt lat="41.77554" lon="9.12584">
        <ele>881</ele>
        <time>2008-05-28T17:34:20+02:00</time>
      </trkpt>
      <trkpt lat="41.77553" lon="9.12586">
        <ele>881</ele>
        <time>2008-05-28T17:34:27+02:00</time>
      </trkpt>
      <trkpt lat="41.77551" lon="9.1259">
        <ele>881</ele>
        <time>2008-05-28T17:34:39+02:00</time>
      </trkpt>
      <trkpt lat="41.7755" lon="9.12588">
        <ele>880</ele>
        <time>2008-05-28T17:34:47+02:00</time>
      </trkpt>
      <trkpt lat="41.77557" lon="9.12591">
        <ele>882</ele>
        <time>2008-05-28T17:35:12+02:00</time>
      </trkpt>
      <trkpt lat="41.77556" lon="9.12589">
        <ele>881</ele>
        <time>2008-05-28T17:35:24+02:00</time>
      </trkpt>
      <trkpt lat="41.77554" lon="9.12588">
        <ele>881</ele>
        <time>2008-05-28T17:35:39+02:00</time>
      </trkpt>
      <trkpt lat="41.77552" lon="9.12587">
        <ele>881</ele>
        <time>2008-05-28T17:35:50+02:00</time>
      </trkpt>
      <trkpt lat="41.77549" lon="9.12588">
        <ele>880</ele>
        <time>2008-05-28T17:35:54+02:00</time>
      </trkpt>
      <trkpt lat="41.77534" lon="9.12597">
        <ele>878</ele>
        <time>2008-05-28T17:35:59+02:00</time>
      </trkpt>
      <trkpt lat="41.77518" lon="9.12614">
        <ele>877</ele>
        <time>2008-05-28T17:36:03+02:00</time>
      </trkpt>
      <trkpt lat="41.77509" lon="9.12622">
        <ele>877</ele>
        <time>2008-05-28T17:36:07+02:00</time>
      </trkpt>
      <trkpt lat="41.775" lon="9.12625">
        <ele>862</ele>
        <time>2008-05-28T17:36:12+02:00</time>
      </trkpt>
      <trkpt lat="41.77486" lon="9.12633">
        <ele>863</ele>
        <time>2008-05-28T17:36:17+02:00</time>
      </trkpt>
      <trkpt lat="41.77479" lon="9.1264">
        <ele>863</ele>
        <time>2008-05-28T17:36:21+02:00</time>
      </trkpt>
      <trkpt lat="41.77466" lon="9.1264">
        <ele>861</ele>
        <time>2008-05-28T17:36:26+02:00</time>
      </trkpt>
      <trkpt lat="41.77447" lon="9.12642">
        <ele>858</ele>
        <time>2008-05-28T17:36:32+02:00</time>
      </trkpt>
      <trkpt lat="41.77435" lon="9.12645">
        <ele>857</ele>
        <time>2008-05-28T17:36:36+02:00</time>
      </trkpt>
      <trkpt lat="41.77425" lon="9.12652">
        <ele>855</ele>
        <time>2008-05-28T17:36:41+02:00</time>
      </trkpt>
      <trkpt lat="41.77422" lon="9.12652">
        <ele>855</ele>
        <time>2008-05-28T17:36:42+02:00</time>
      </trkpt>
      <trkpt lat="41.77411" lon="9.12659">
        <ele>849</ele>
        <time>2008-05-28T17:36:47+02:00</time>
      </trkpt>
      <trkpt lat="41.77396" lon="9.12675">
        <ele>851</ele>
        <time>2008-05-28T17:36:53+02:00</time>
      </trkpt>
      <trkpt lat="41.77384" lon="9.12683">
        <ele>850</ele>
        <time>2008-05-28T17:36:58+02:00</time>
      </trkpt>
      <trkpt lat="41.77379" lon="9.12685">
        <ele>850</ele>
        <time>2008-05-28T17:37:00+02:00</time>
      </trkpt>
      <trkpt lat="41.77373" lon="9.12691">
        <ele>849</ele>
        <time>2008-05-28T17:37:05+02:00</time>
      </trkpt>
      <trkpt lat="41.77369" lon="9.12692">
        <ele>848</ele>
        <time>2008-05-28T17:37:11+02:00</time>
      </trkpt>
      <trkpt lat="41.77365" lon="9.12692">
        <ele>848</ele>
        <time>2008-05-28T17:37:16+02:00</time>
      </trkpt>
      <trkpt lat="41.77364" lon="9.12692">
        <ele>847</ele>
        <time>2008-05-28T17:37:17+02:00</time>
      </trkpt>
      <trkpt lat="41.77357" lon="9.12693">
        <ele>846</ele>
        <time>2008-05-28T17:37:23+02:00</time>
      </trkpt>
      <trkpt lat="41.77355" lon="9.12694">
        <ele>846</ele>
        <time>2008-05-28T17:37:26+02:00</time>
      </trkpt>
      <trkpt lat="41.77351" lon="9.12696">
        <ele>846</ele>
        <time>2008-05-28T17:37:30+02:00</time>
      </trkpt>
      <trkpt lat="41.7735" lon="9.12704">
        <ele>847</ele>
        <time>2008-05-28T17:37:35+02:00</time>
      </trkpt>
      <trkpt lat="41.77349" lon="9.12709">
        <ele>847</ele>
        <time>2008-05-28T17:37:38+02:00</time>
      </trkpt>
      <trkpt lat="41.77345" lon="9.12716">
        <ele>848</ele>
        <time>2008-05-28T17:37:44+02:00</time>
      </trkpt>
      <trkpt lat="41.77344" lon="9.12717">
        <ele>848</ele>
        <time>2008-05-28T17:37:46+02:00</time>
      </trkpt>
      <trkpt lat="41.77341" lon="9.12722">
        <ele>848</ele>
        <time>2008-05-28T17:37:51+02:00</time>
      </trkpt>
      <trkpt lat="41.77338" lon="9.1273">
        <ele>847</ele>
        <time>2008-05-28T17:37:54+02:00</time>
      </trkpt>
      <trkpt lat="41.77338" lon="9.12741">
        <ele>847</ele>
        <time>2008-05-28T17:37:59+02:00</time>
      </trkpt>
      <trkpt lat="41.77337" lon="9.12743">
        <ele>846</ele>
        <time>2008-05-28T17:38:00+02:00</time>
      </trkpt>
      <trkpt lat="41.77328" lon="9.12757">
        <ele>840</ele>
        <time>2008-05-28T17:38:05+02:00</time>
      </trkpt>
      <trkpt lat="41.77321" lon="9.12766">
        <ele>836</ele>
        <time>2008-05-28T17:38:10+02:00</time>
      </trkpt>
      <trkpt lat="41.77315" lon="9.12777">
        <ele>834</ele>
        <time>2008-05-28T17:38:16+02:00</time>
      </trkpt>
      <trkpt lat="41.77313" lon="9.12778">
        <ele>834</ele>
        <time>2008-05-28T17:38:21+02:00</time>
      </trkpt>
      <trkpt lat="41.77312" lon="9.12779">
        <ele>834</ele>
        <time>2008-05-28T17:38:24+02:00</time>
      </trkpt>
      <trkpt lat="41.77308" lon="9.12785">
        <ele>833</ele>
        <time>2008-05-28T17:38:30+02:00</time>
      </trkpt>
      <trkpt lat="41.77306" lon="9.12789">
        <ele>833</ele>
        <time>2008-05-28T17:38:35+02:00</time>
      </trkpt>
      <trkpt lat="41.77299" lon="9.12803">
        <ele>832</ele>
        <time>2008-05-28T17:38:41+02:00</time>
      </trkpt>
      <trkpt lat="41.77295" lon="9.12812">
        <ele>831</ele>
        <time>2008-05-28T17:38:45+02:00</time>
      </trkpt>
      <trkpt lat="41.77293" lon="9.12822">
        <ele>831</ele>
        <time>2008-05-28T17:38:51+02:00</time>
      </trkpt>
      <trkpt lat="41.77292" lon="9.12826">
        <ele>831</ele>
        <time>2008-05-28T17:38:53+02:00</time>
      </trkpt>
      <trkpt lat="41.77288" lon="9.12842">
        <ele>831</ele>
        <time>2008-05-28T17:38:59+02:00</time>
      </trkpt>
      <trkpt lat="41.77283" lon="9.1286">
        <ele>830</ele>
        <time>2008-05-28T17:39:04+02:00</time>
      </trkpt>
      <trkpt lat="41.77282" lon="9.12863">
        <ele>830</ele>
        <time>2008-05-28T17:39:05+02:00</time>
      </trkpt>
      <trkpt lat="41.77274" lon="9.12871">
        <ele>828</ele>
        <time>2008-05-28T17:39:09+02:00</time>
      </trkpt>
      <trkpt lat="41.77271" lon="9.12878">
        <ele>828</ele>
        <time>2008-05-28T17:39:11+02:00</time>
      </trkpt>
      <trkpt lat="41.77272" lon="9.12892">
        <ele>827</ele>
        <time>2008-05-28T17:39:15+02:00</time>
      </trkpt>
      <trkpt lat="41.77265" lon="9.12916">
        <ele>822</ele>
        <time>2008-05-28T17:39:20+02:00</time>
      </trkpt>
      <trkpt lat="41.77258" lon="9.1294">
        <ele>824</ele>
        <time>2008-05-28T17:39:25+02:00</time>
      </trkpt>
      <trkpt lat="41.77255" lon="9.12946">
        <ele>825</ele>
        <time>2008-05-28T17:39:27+02:00</time>
      </trkpt>
      <trkpt lat="41.77249" lon="9.12958">
        <ele>807</ele>
        <time>2008-05-28T17:39:32+02:00</time>
      </trkpt>
      <trkpt lat="41.77245" lon="9.12975">
        <ele>808</ele>
        <time>2008-05-28T17:39:37+02:00</time>
      </trkpt>
      <trkpt lat="41.77243" lon="9.12984">
        <ele>809</ele>
        <time>2008-05-28T17:39:39+02:00</time>
      </trkpt>
      <trkpt lat="41.77235" lon="9.13009">
        <ele>807</ele>
        <time>2008-05-28T17:39:44+02:00</time>
      </trkpt>
      <trkpt lat="41.77227" lon="9.13023">
        <ele>805</ele>
        <time>2008-05-28T17:39:50+02:00</time>
      </trkpt>
      <trkpt lat="41.77224" lon="9.13033">
        <ele>804</ele>
        <time>2008-05-28T17:39:54+02:00</time>
      </trkpt>
      <trkpt lat="41.77217" lon="9.13055">
        <ele>802</ele>
        <time>2008-05-28T17:39:59+02:00</time>
      </trkpt>
      <trkpt lat="41.77211" lon="9.1307">
        <ele>802</ele>
        <time>2008-05-28T17:40:03+02:00</time>
      </trkpt>
      <trkpt lat="41.77206" lon="9.13082">
        <ele>800</ele>
        <time>2008-05-28T17:40:07+02:00</time>
      </trkpt>
      <trkpt lat="41.772" lon="9.13103">
        <ele>796</ele>
        <time>2008-05-28T17:40:12+02:00</time>
      </trkpt>
      <trkpt lat="41.77198" lon="9.13116">
        <ele>795</ele>
        <time>2008-05-28T17:40:16+02:00</time>
      </trkpt>
      <trkpt lat="41.77191" lon="9.13126">
        <ele>794</ele>
        <time>2008-05-28T17:40:19+02:00</time>
      </trkpt>
      <trkpt lat="41.77186" lon="9.1313">
        <ele>794</ele>
        <time>2008-05-28T17:40:22+02:00</time>
      </trkpt>
      <trkpt lat="41.77174" lon="9.13129">
        <ele>793</ele>
        <time>2008-05-28T17:40:26+02:00</time>
      </trkpt>
      <trkpt lat="41.77169" lon="9.13128">
        <ele>793</ele>
        <time>2008-05-28T17:40:27+02:00</time>
      </trkpt>
      <trkpt lat="41.77151" lon="9.13122">
        <ele>783</ele>
        <time>2008-05-28T17:40:33+02:00</time>
      </trkpt>
      <trkpt lat="41.77135" lon="9.13123">
        <ele>782</ele>
        <time>2008-05-28T17:40:36+02:00</time>
      </trkpt>
      <trkpt lat="41.77098" lon="9.13114">
        <ele>780</ele>
        <time>2008-05-28T17:40:42+02:00</time>
      </trkpt>
      <trkpt lat="41.77089" lon="9.13112">
        <ele>779</ele>
        <time>2008-05-28T17:40:45+02:00</time>
      </trkpt>
      <trkpt lat="41.77081" lon="9.1311">
        <ele>776</ele>
        <time>2008-05-28T17:40:49+02:00</time>
      </trkpt>
      <trkpt lat="41.77079" lon="9.13109">
        <ele>776</ele>
        <time>2008-05-28T17:40:55+02:00</time>
      </trkpt>
      <trkpt lat="41.77078" lon="9.13108">
        <ele>776</ele>
        <time>2008-05-28T17:41:03+02:00</time>
      </trkpt>
      <trkpt lat="41.77079" lon="9.13108">
        <ele>776</ele>
        <time>2008-05-28T17:41:13+02:00</time>
      </trkpt>
      <trkpt lat="41.77079" lon="9.13108">
        <ele>776</ele>
        <time>2008-05-28T17:41:20+02:00</time>
      </trkpt>
      <trkpt lat="41.77081" lon="9.13107">
        <ele>777</ele>
        <time>2008-05-28T17:41:38+02:00</time>
      </trkpt>
      <trkpt lat="41.77079" lon="9.13105">
        <ele>777</ele>
        <time>2008-05-28T17:41:44+02:00</time>
      </trkpt>
      <trkpt lat="41.77078" lon="9.13105">
        <ele>777</ele>
        <time>2008-05-28T17:41:52+02:00</time>
      </trkpt>
      <trkpt lat="41.77076" lon="9.13105">
        <ele>777</ele>
        <time>2008-05-28T17:42:02+02:00</time>
      </trkpt>
      <trkpt lat="41.77077" lon="9.13105">
        <ele>777</ele>
        <time>2008-05-28T17:42:18+02:00</time>
      </trkpt>
      <trkpt lat="41.77081" lon="9.13106">
        <ele>777</ele>
        <time>2008-05-28T17:42:27+02:00</time>
      </trkpt>
      <trkpt lat="41.77081" lon="9.13109">
        <ele>776</ele>
        <time>2008-05-28T17:42:35+02:00</time>
      </trkpt>
      <trkpt lat="41.7708" lon="9.1311">
        <ele>776</ele>
        <time>2008-05-28T17:42:41+02:00</time>
      </trkpt>
      <trkpt lat="41.77079" lon="9.13112">
        <ele>776</ele>
        <time>2008-05-28T17:42:49+02:00</time>
      </trkpt>
      <trkpt lat="41.77075" lon="9.13113">
        <ele>776</ele>
        <time>2008-05-28T17:42:56+02:00</time>
      </trkpt>
      <trkpt lat="41.77073" lon="9.13121">
        <ele>776</ele>
        <time>2008-05-28T17:42:59+02:00</time>
      </trkpt>
      <trkpt lat="41.77076" lon="9.13139">
        <ele>776</ele>
        <time>2008-05-28T17:43:04+02:00</time>
      </trkpt>
      <trkpt lat="41.77076" lon="9.13142">
        <ele>776</ele>
        <time>2008-05-28T17:43:05+02:00</time>
      </trkpt>
      <trkpt lat="41.77069" lon="9.13156">
        <ele>776</ele>
        <time>2008-05-28T17:43:11+02:00</time>
      </trkpt>
      <trkpt lat="41.77065" lon="9.13164">
        <ele>776</ele>
        <time>2008-05-28T17:43:15+02:00</time>
      </trkpt>
      <trkpt lat="41.77055" lon="9.13165">
        <ele>776</ele>
        <time>2008-05-28T17:43:18+02:00</time>
      </trkpt>
      <trkpt lat="41.77049" lon="9.13164">
        <ele>777</ele>
        <time>2008-05-28T17:43:20+02:00</time>
      </trkpt>
      <trkpt lat="41.77033" lon="9.13155">
        <ele>777</ele>
        <time>2008-05-28T17:43:26+02:00</time>
      </trkpt>
      <trkpt lat="41.77007" lon="9.13145">
        <ele>778</ele>
        <time>2008-05-28T17:43:33+02:00</time>
      </trkpt>
      <trkpt lat="41.76983" lon="9.13132">
        <ele>777</ele>
        <time>2008-05-28T17:43:40+02:00</time>
      </trkpt>
      <trkpt lat="41.76963" lon="9.13128">
        <ele>777</ele>
        <time>2008-05-28T17:43:46+02:00</time>
      </trkpt>
      <trkpt lat="41.7695" lon="9.1314">
        <ele>777</ele>
        <time>2008-05-28T17:43:51+02:00</time>
      </trkpt>
      <trkpt lat="41.76937" lon="9.13148">
        <ele>777</ele>
        <time>2008-05-28T17:43:56+02:00</time>
      </trkpt>
      <trkpt lat="41.76927" lon="9.13158">
        <ele>778</ele>
        <time>2008-05-28T17:44:01+02:00</time>
      </trkpt>
      <trkpt lat="41.7692" lon="9.13166">
        <ele>778</ele>
        <time>2008-05-28T17:44:05+02:00</time>
      </trkpt>
      <trkpt lat="41.7691" lon="9.13172">
        <ele>780</ele>
        <time>2008-05-28T17:44:11+02:00</time>
      </trkpt>
      <trkpt lat="41.76901" lon="9.13174">
        <ele>782</ele>
        <time>2008-05-28T17:44:16+02:00</time>
      </trkpt>
      <trkpt lat="41.76889" lon="9.13188">
        <ele>784</ele>
        <time>2008-05-28T17:44:24+02:00</time>
      </trkpt>
      <trkpt lat="41.76881" lon="9.132">
        <ele>785</ele>
        <time>2008-05-28T17:44:31+02:00</time>
      </trkpt>
      <trkpt lat="41.76875" lon="9.13212">
        <ele>786</ele>
        <time>2008-05-28T17:44:37+02:00</time>
      </trkpt>
      <trkpt lat="41.76873" lon="9.13221">
        <ele>787</ele>
        <time>2008-05-28T17:44:41+02:00</time>
      </trkpt>
      <trkpt lat="41.76863" lon="9.13236">
        <ele>788</ele>
        <time>2008-05-28T17:44:49+02:00</time>
      </trkpt>
      <trkpt lat="41.76857" lon="9.13243">
        <ele>789</ele>
        <time>2008-05-28T17:44:56+02:00</time>
      </trkpt>
      <trkpt lat="41.76856" lon="9.13244">
        <ele>789</ele>
        <time>2008-05-28T17:44:57+02:00</time>
      </trkpt>
      <trkpt lat="41.76848" lon="9.13249">
        <ele>790</ele>
        <time>2008-05-28T17:45:03+02:00</time>
      </trkpt>
      <trkpt lat="41.76838" lon="9.13255">
        <ele>793</ele>
        <time>2008-05-28T17:45:09+02:00</time>
      </trkpt>
      <trkpt lat="41.76825" lon="9.13262">
        <ele>793</ele>
        <time>2008-05-28T17:45:16+02:00</time>
      </trkpt>
      <trkpt lat="41.76813" lon="9.1327">
        <ele>794</ele>
        <time>2008-05-28T17:45:23+02:00</time>
      </trkpt>
      <trkpt lat="41.76801" lon="9.13281">
        <ele>794</ele>
        <time>2008-05-28T17:45:30+02:00</time>
      </trkpt>
      <trkpt lat="41.76784" lon="9.133">
        <ele>795</ele>
        <time>2008-05-28T17:45:38+02:00</time>
      </trkpt>
      <trkpt lat="41.76773" lon="9.13314">
        <ele>795</ele>
        <time>2008-05-28T17:45:44+02:00</time>
      </trkpt>
      <trkpt lat="41.76763" lon="9.1333">
        <ele>795</ele>
        <time>2008-05-28T17:45:51+02:00</time>
      </trkpt>
      <trkpt lat="41.76751" lon="9.1334">
        <ele>796</ele>
        <time>2008-05-28T17:45:57+02:00</time>
      </trkpt>
      <trkpt lat="41.76744" lon="9.13344">
        <ele>797</ele>
        <time>2008-05-28T17:46:01+02:00</time>
      </trkpt>
      <trkpt lat="41.7673" lon="9.13358">
        <ele>798</ele>
        <time>2008-05-28T17:46:09+02:00</time>
      </trkpt>
      <trkpt lat="41.76721" lon="9.13372">
        <ele>799</ele>
        <time>2008-05-28T17:46:15+02:00</time>
      </trkpt>
      <trkpt lat="41.76708" lon="9.1339">
        <ele>799</ele>
        <time>2008-05-28T17:46:22+02:00</time>
      </trkpt>
      <trkpt lat="41.76695" lon="9.13411">
        <ele>801</ele>
        <time>2008-05-28T17:46:30+02:00</time>
      </trkpt>
      <trkpt lat="41.76682" lon="9.1343">
        <ele>804</ele>
        <time>2008-05-28T17:46:38+02:00</time>
      </trkpt>
      <trkpt lat="41.76672" lon="9.1344">
        <ele>805</ele>
        <time>2008-05-28T17:46:44+02:00</time>
      </trkpt>
      <trkpt lat="41.76659" lon="9.13447">
        <ele>808</ele>
        <time>2008-05-28T17:46:51+02:00</time>
      </trkpt>
      <trkpt lat="41.76645" lon="9.13455">
        <ele>808</ele>
        <time>2008-05-28T17:46:59+02:00</time>
      </trkpt>
      <trkpt lat="41.76632" lon="9.13461">
        <ele>808</ele>
        <time>2008-05-28T17:47:05+02:00</time>
      </trkpt>
      <trkpt lat="41.76615" lon="9.13468">
        <ele>809</ele>
        <time>2008-05-28T17:47:13+02:00</time>
      </trkpt>
      <trkpt lat="41.76603" lon="9.13477">
        <ele>809</ele>
        <time>2008-05-28T17:47:19+02:00</time>
      </trkpt>
      <trkpt lat="41.76587" lon="9.13487">
        <ele>809</ele>
        <time>2008-05-28T17:47:26+02:00</time>
      </trkpt>
      <trkpt lat="41.7658" lon="9.13494">
        <ele>809</ele>
        <time>2008-05-28T17:47:31+02:00</time>
      </trkpt>
      <trkpt lat="41.7658" lon="9.13494">
        <ele>809</ele>
        <time>2008-05-28T17:47:39+02:00</time>
      </trkpt>
      <trkpt lat="41.7658" lon="9.13496">
        <ele>810</ele>
        <time>2008-05-28T17:47:50+02:00</time>
      </trkpt>
      <trkpt lat="41.7658" lon="9.13496">
        <ele>810</ele>
        <time>2008-05-28T17:48:01+02:00</time>
      </trkpt>
      <trkpt lat="41.7658" lon="9.13495">
        <ele>810</ele>
        <time>2008-05-28T17:48:08+02:00</time>
      </trkpt>
      <trkpt lat="41.7658" lon="9.13496">
        <ele>810</ele>
        <time>2008-05-28T17:48:38+02:00</time>
      </trkpt>
      <trkpt lat="41.76581" lon="9.13497">
        <ele>810</ele>
        <time>2008-05-28T17:49:44+02:00</time>
      </trkpt>
      <trkpt lat="41.76581" lon="9.13498">
        <ele>810</ele>
        <time>2008-05-28T17:49:53+02:00</time>
      </trkpt>
      <trkpt lat="41.7658" lon="9.135">
        <ele>810</ele>
        <time>2008-05-28T17:50:08+02:00</time>
      </trkpt>
      <trkpt lat="41.76572" lon="9.13513">
        <ele>808</ele>
        <time>2008-05-28T17:50:12+02:00</time>
      </trkpt>
      <trkpt lat="41.76559" lon="9.13544">
        <ele>806</ele>
        <time>2008-05-28T17:50:16+02:00</time>
      </trkpt>
      <trkpt lat="41.76556" lon="9.13553">
        <ele>806</ele>
        <time>2008-05-28T17:50:17+02:00</time>
      </trkpt>
      <trkpt lat="41.76553" lon="9.13591">
        <ele>804</ele>
        <time>2008-05-28T17:50:21+02:00</time>
      </trkpt>
      <trkpt lat="41.76555" lon="9.136">
        <ele>804</ele>
        <time>2008-05-28T17:50:22+02:00</time>
      </trkpt>
      <trkpt lat="41.76563" lon="9.13661">
        <ele>804</ele>
        <time>2008-05-28T17:50:29+02:00</time>
      </trkpt>
      <trkpt lat="41.76568" lon="9.13697">
        <ele>800</ele>
        <time>2008-05-28T17:50:34+02:00</time>
      </trkpt>
      <trkpt lat="41.76569" lon="9.13705">
        <ele>800</ele>
        <time>2008-05-28T17:50:35+02:00</time>
      </trkpt>
      <trkpt lat="41.76569" lon="9.13748">
        <ele>800</ele>
        <time>2008-05-28T17:50:41+02:00</time>
      </trkpt>
      <trkpt lat="41.76565" lon="9.13768">
        <ele>797</ele>
        <time>2008-05-28T17:50:45+02:00</time>
      </trkpt>
      <trkpt lat="41.76561" lon="9.13778">
        <ele>796</ele>
        <time>2008-05-28T17:50:48+02:00</time>
      </trkpt>
      <trkpt lat="41.7656" lon="9.13792">
        <ele>796</ele>
        <time>2008-05-28T17:50:54+02:00</time>
      </trkpt>
      <trkpt lat="41.7656" lon="9.13799">
        <ele>796</ele>
        <time>2008-05-28T17:51:00+02:00</time>
      </trkpt>
      <trkpt lat="41.76559" lon="9.13802">
        <ele>796</ele>
        <time>2008-05-28T17:51:07+02:00</time>
      </trkpt>
      <trkpt lat="41.76557" lon="9.13802">
        <ele>796</ele>
        <time>2008-05-28T17:51:22+02:00</time>
      </trkpt>
      <trkpt lat="41.76558" lon="9.13802">
        <ele>796</ele>
        <time>2008-05-28T17:51:32+02:00</time>
      </trkpt>
      <trkpt lat="41.76559" lon="9.13803">
        <ele>796</ele>
        <time>2008-05-28T17:51:47+02:00</time>
      </trkpt>
      <trkpt lat="41.7656" lon="9.13803">
        <ele>796</ele>
        <time>2008-05-28T17:52:00+02:00</time>
      </trkpt>
      <trkpt lat="41.76564" lon="9.13805">
        <ele>796</ele>
        <time>2008-05-28T17:52:16+02:00</time>
      </trkpt>
      <trkpt lat="41.76562" lon="9.13805">
        <ele>796</ele>
        <time>2008-05-28T17:52:29+02:00</time>
      </trkpt>
      <trkpt lat="41.76559" lon="9.13805">
        <ele>796</ele>
        <time>2008-05-28T17:52:39+02:00</time>
      </trkpt>
      <trkpt lat="41.76557" lon="9.13803">
        <ele>796</ele>
        <time>2008-05-28T17:52:50+02:00</time>
      </trkpt>
      <trkpt lat="41.76558" lon="9.13805">
        <ele>796</ele>
        <time>2008-05-28T17:53:05+02:00</time>
      </trkpt>
      <trkpt lat="41.76559" lon="9.13804">
        <ele>796</ele>
        <time>2008-05-28T17:53:20+02:00</time>
      </trkpt>
      <trkpt lat="41.76559" lon="9.13805">
        <ele>796</ele>
        <time>2008-05-28T17:53:35+02:00</time>
      </trkpt>
      <trkpt lat="41.76561" lon="9.13802">
        <ele>796</ele>
        <time>2008-05-28T17:53:45+02:00</time>
      </trkpt>
      <trkpt lat="41.7656" lon="9.13803">
        <ele>796</ele>
        <time>2008-05-28T17:54:03+02:00</time>
      </trkpt>
      <trkpt lat="41.76559" lon="9.13804">
        <ele>796</ele>
        <time>2008-05-28T17:54:14+02:00</time>
      </trkpt>
      <trkpt lat="41.7656" lon="9.13804">
        <ele>796</ele>
        <time>2008-05-28T17:54:27+02:00</time>
      </trkpt>
      <trkpt lat="41.7656" lon="9.13807">
        <ele>796</ele>
        <time>2008-05-28T17:54:37+02:00</time>
      </trkpt>
      <trkpt lat="41.76559" lon="9.13807">
        <ele>796</ele>
        <time>2008-05-28T17:54:45+02:00</time>
      </trkpt>
      <trkpt lat="41.76561" lon="9.13804">
        <ele>796</ele>
        <time>2008-05-28T17:54:52+02:00</time>
      </trkpt>
      <trkpt lat="41.76564" lon="9.13799">
        <ele>796</ele>
        <time>2008-05-28T17:54:59+02:00</time>
      </trkpt>
      <trkpt lat="41.76572" lon="9.13802">
        <ele>796</ele>
        <time>2008-05-28T17:55:04+02:00</time>
      </trkpt>
      <trkpt lat="41.76576" lon="9.13813">
        <ele>797</ele>
        <time>2008-05-28T17:55:08+02:00</time>
      </trkpt>
      <trkpt lat="41.76591" lon="9.13835">
        <ele>802</ele>
        <time>2008-05-28T17:55:16+02:00</time>
      </trkpt>
      <trkpt lat="41.76599" lon="9.13858">
        <ele>805</ele>
        <time>2008-05-28T17:55:23+02:00</time>
      </trkpt>
      <trkpt lat="41.766" lon="9.13882">
        <ele>806</ele>
        <time>2008-05-28T17:55:30+02:00</time>
      </trkpt>
      <trkpt lat="41.76597" lon="9.13898">
        <ele>805</ele>
        <time>2008-05-28T17:55:35+02:00</time>
      </trkpt>
      <trkpt lat="41.76596" lon="9.13919">
        <ele>805</ele>
        <time>2008-05-28T17:55:42+02:00</time>
      </trkpt>
      <trkpt lat="41.76598" lon="9.13944">
        <ele>808</ele>
        <time>2008-05-28T17:55:50+02:00</time>
      </trkpt>
      <trkpt lat="41.76601" lon="9.13964">
        <ele>808</ele>
        <time>2008-05-28T17:55:56+02:00</time>
      </trkpt>
      <trkpt lat="41.76604" lon="9.13987">
        <ele>808</ele>
        <time>2008-05-28T17:56:03+02:00</time>
      </trkpt>
      <trkpt lat="41.76615" lon="9.1401">
        <ele>810</ele>
        <time>2008-05-28T17:56:11+02:00</time>
      </trkpt>
      <trkpt lat="41.76622" lon="9.14029">
        <ele>811</ele>
        <time>2008-05-28T17:56:17+02:00</time>
      </trkpt>
      <trkpt lat="41.76632" lon="9.1405">
        <ele>812</ele>
        <time>2008-05-28T17:56:25+02:00</time>
      </trkpt>
      <trkpt lat="41.76639" lon="9.14073">
        <ele>812</ele>
        <time>2008-05-28T17:56:33+02:00</time>
      </trkpt>
      <trkpt lat="41.76641" lon="9.14094">
        <ele>813</ele>
        <time>2008-05-28T17:56:40+02:00</time>
      </trkpt>
      <trkpt lat="41.76636" lon="9.14118">
        <ele>813</ele>
        <time>2008-05-28T17:56:48+02:00</time>
      </trkpt>
      <trkpt lat="41.7663" lon="9.14143">
        <ele>814</ele>
        <time>2008-05-28T17:56:55+02:00</time>
      </trkpt>
      <trkpt lat="41.76623" lon="9.1417">
        <ele>815</ele>
        <time>2008-05-28T17:57:02+02:00</time>
      </trkpt>
      <trkpt lat="41.76613" lon="9.14203">
        <ele>815</ele>
        <time>2008-05-28T17:57:09+02:00</time>
      </trkpt>
      <trkpt lat="41.76604" lon="9.14235">
        <ele>815</ele>
        <time>2008-05-28T17:57:15+02:00</time>
      </trkpt>
      <trkpt lat="41.76591" lon="9.14277">
        <ele>817</ele>
        <time>2008-05-28T17:57:24+02:00</time>
      </trkpt>
      <trkpt lat="41.76583" lon="9.14306">
        <ele>816</ele>
        <time>2008-05-28T17:57:30+02:00</time>
      </trkpt>
      <trkpt lat="41.76574" lon="9.14345">
        <ele>816</ele>
        <time>2008-05-28T17:57:38+02:00</time>
      </trkpt>
      <trkpt lat="41.76562" lon="9.14388">
        <ele>816</ele>
        <time>2008-05-28T17:57:47+02:00</time>
      </trkpt>
      <trkpt lat="41.76547" lon="9.14427">
        <ele>815</ele>
        <time>2008-05-28T17:57:54+02:00</time>
      </trkpt>
      <trkpt lat="41.76537" lon="9.14461">
        <ele>814</ele>
        <time>2008-05-28T17:57:59+02:00</time>
      </trkpt>
      <trkpt lat="41.76533" lon="9.145">
        <ele>814</ele>
        <time>2008-05-28T17:58:04+02:00</time>
      </trkpt>
      <trkpt lat="41.76534" lon="9.14562">
        <ele>812</ele>
        <time>2008-05-28T17:58:12+02:00</time>
      </trkpt>
      <trkpt lat="41.76534" lon="9.14569">
        <ele>811</ele>
        <time>2008-05-28T17:58:13+02:00</time>
      </trkpt>
      <trkpt lat="41.76535" lon="9.14621">
        <ele>812</ele>
        <time>2008-05-28T17:58:20+02:00</time>
      </trkpt>
      <trkpt lat="41.76533" lon="9.14656">
        <ele>813</ele>
        <time>2008-05-28T17:58:25+02:00</time>
      </trkpt>
      <trkpt lat="41.76521" lon="9.14693">
        <ele>814</ele>
        <time>2008-05-28T17:58:30+02:00</time>
      </trkpt>
      <trkpt lat="41.7649" lon="9.14755">
        <ele>813</ele>
        <time>2008-05-28T17:58:38+02:00</time>
      </trkpt>
      <trkpt lat="41.76487" lon="9.14762">
        <ele>814</ele>
        <time>2008-05-28T17:58:39+02:00</time>
      </trkpt>
      <trkpt lat="41.76471" lon="9.14819">
        <ele>814</ele>
        <time>2008-05-28T17:58:46+02:00</time>
      </trkpt>
      <trkpt lat="41.76468" lon="9.14836">
        <ele>812</ele>
        <time>2008-05-28T17:58:48+02:00</time>
      </trkpt>
      <trkpt lat="41.76449" lon="9.14891">
        <ele>809</ele>
        <time>2008-05-28T17:58:55+02:00</time>
      </trkpt>
      <trkpt lat="41.76441" lon="9.14919">
        <ele>806</ele>
        <time>2008-05-28T17:58:59+02:00</time>
      </trkpt>
      <trkpt lat="41.76437" lon="9.14942">
        <ele>806</ele>
        <time>2008-05-28T17:59:04+02:00</time>
      </trkpt>
      <trkpt lat="41.76436" lon="9.14949">
        <ele>806</ele>
        <time>2008-05-28T17:59:07+02:00</time>
      </trkpt>
      <trkpt lat="41.76437" lon="9.14952">
        <ele>806</ele>
        <time>2008-05-28T17:59:12+02:00</time>
      </trkpt>
      <trkpt lat="41.76437" lon="9.14952">
        <ele>806</ele>
        <time>2008-05-28T17:59:19+02:00</time>
      </trkpt>
      <trkpt lat="41.76439" lon="9.14952">
        <ele>806</ele>
        <time>2008-05-28T17:59:28+02:00</time>
      </trkpt>
      <trkpt lat="41.7644" lon="9.14954">
        <ele>806</ele>
        <time>2008-05-28T17:59:36+02:00</time>
      </trkpt>
      <trkpt lat="41.76436" lon="9.14962">
        <ele>806</ele>
        <time>2008-05-28T17:59:42+02:00</time>
      </trkpt>
      <trkpt lat="41.76428" lon="9.14965">
        <ele>805</ele>
        <time>2008-05-28T17:59:46+02:00</time>
      </trkpt>
      <trkpt lat="41.76419" lon="9.14971">
        <ele>804</ele>
        <time>2008-05-28T17:59:51+02:00</time>
      </trkpt>
      <trkpt lat="41.76411" lon="9.14979">
        <ele>799</ele>
        <time>2008-05-28T17:59:55+02:00</time>
      </trkpt>
      <trkpt lat="41.76405" lon="9.14992">
        <ele>799</ele>
        <time>2008-05-28T18:00:00+02:00</time>
      </trkpt>
      <trkpt lat="41.764" lon="9.15002">
        <ele>798</ele>
        <time>2008-05-28T18:00:04+02:00</time>
      </trkpt>
      <trkpt lat="41.76402" lon="9.15018">
        <ele>798</ele>
        <time>2008-05-28T18:00:08+02:00</time>
      </trkpt>
      <trkpt lat="41.7641" lon="9.15047">
        <ele>797</ele>
        <time>2008-05-28T18:00:14+02:00</time>
      </trkpt>
      <trkpt lat="41.7642" lon="9.15066">
        <ele>801</ele>
        <time>2008-05-28T18:00:18+02:00</time>
      </trkpt>
      <trkpt lat="41.76426" lon="9.15089">
        <ele>799</ele>
        <time>2008-05-28T18:00:23+02:00</time>
      </trkpt>
      <trkpt lat="41.76423" lon="9.15099">
        <ele>800</ele>
        <time>2008-05-28T18:00:26+02:00</time>
      </trkpt>
      <trkpt lat="41.76415" lon="9.15124">
        <ele>794</ele>
        <time>2008-05-28T18:00:32+02:00</time>
      </trkpt>
      <trkpt lat="41.76414" lon="9.15127">
        <ele>794</ele>
        <time>2008-05-28T18:00:33+02:00</time>
      </trkpt>
      <trkpt lat="41.76413" lon="9.15141">
        <ele>793</ele>
        <time>2008-05-28T18:00:39+02:00</time>
      </trkpt>
      <trkpt lat="41.76417" lon="9.15152">
        <ele>798</ele>
        <time>2008-05-28T18:00:44+02:00</time>
      </trkpt>
      <trkpt lat="41.76419" lon="9.15171">
        <ele>795</ele>
        <time>2008-05-28T18:00:49+02:00</time>
      </trkpt>
      <trkpt lat="41.76422" lon="9.15185">
        <ele>797</ele>
        <time>2008-05-28T18:00:53+02:00</time>
      </trkpt>
      <trkpt lat="41.76422" lon="9.15204">
        <ele>798</ele>
        <time>2008-05-28T18:00:58+02:00</time>
      </trkpt>
      <trkpt lat="41.76421" lon="9.15223">
        <ele>797</ele>
        <time>2008-05-28T18:01:03+02:00</time>
      </trkpt>
      <trkpt lat="41.76416" lon="9.1524">
        <ele>792</ele>
        <time>2008-05-28T18:01:08+02:00</time>
      </trkpt>
      <trkpt lat="41.7641" lon="9.15251">
        <ele>791</ele>
        <time>2008-05-28T18:01:11+02:00</time>
      </trkpt>
      <trkpt lat="41.76405" lon="9.1526">
        <ele>790</ele>
        <time>2008-05-28T18:01:15+02:00</time>
      </trkpt>
      <trkpt lat="41.76404" lon="9.1528">
        <ele>789</ele>
        <time>2008-05-28T18:01:21+02:00</time>
      </trkpt>
      <trkpt lat="41.76404" lon="9.15292">
        <ele>788</ele>
        <time>2008-05-28T18:01:24+02:00</time>
      </trkpt>
      <trkpt lat="41.76403" lon="9.15315">
        <ele>788</ele>
        <time>2008-05-28T18:01:31+02:00</time>
      </trkpt>
      <trkpt lat="41.76405" lon="9.15342">
        <ele>786</ele>
        <time>2008-05-28T18:01:38+02:00</time>
      </trkpt>
      <trkpt lat="41.76408" lon="9.15351">
        <ele>785</ele>
        <time>2008-05-28T18:01:41+02:00</time>
      </trkpt>
      <trkpt lat="41.76401" lon="9.15373">
        <ele>783</ele>
        <time>2008-05-28T18:01:47+02:00</time>
      </trkpt>
      <trkpt lat="41.76391" lon="9.15396">
        <ele>782</ele>
        <time>2008-05-28T18:01:52+02:00</time>
      </trkpt>
      <trkpt lat="41.76383" lon="9.15411">
        <ele>781</ele>
        <time>2008-05-28T18:01:57+02:00</time>
      </trkpt>
      <trkpt lat="41.76382" lon="9.15408">
        <ele>781</ele>
        <time>2008-05-28T18:02:05+02:00</time>
      </trkpt>
      <trkpt lat="41.76381" lon="9.15404">
        <ele>781</ele>
        <time>2008-05-28T18:02:13+02:00</time>
      </trkpt>
      <trkpt lat="41.76382" lon="9.15403">
        <ele>781</ele>
        <time>2008-05-28T18:02:25+02:00</time>
      </trkpt>
      <trkpt lat="41.76378" lon="9.15404">
        <ele>781</ele>
        <time>2008-05-28T18:02:47+02:00</time>
      </trkpt>
      <trkpt lat="41.76365" lon="9.15404">
        <ele>780</ele>
        <time>2008-05-28T18:02:52+02:00</time>
      </trkpt>
      <trkpt lat="41.76345" lon="9.15401">
        <ele>779</ele>
        <time>2008-05-28T18:02:56+02:00</time>
      </trkpt>
      <trkpt lat="41.76333" lon="9.154">
        <ele>774</ele>
        <time>2008-05-28T18:02:58+02:00</time>
      </trkpt>
      <trkpt lat="41.76311" lon="9.15419">
        <ele>771</ele>
        <time>2008-05-28T18:03:02+02:00</time>
      </trkpt>
      <trkpt lat="41.76285" lon="9.15441">
        <ele>769</ele>
        <time>2008-05-28T18:03:06+02:00</time>
      </trkpt>
      <trkpt lat="41.76281" lon="9.15445">
        <ele>768</ele>
        <time>2008-05-28T18:03:07+02:00</time>
      </trkpt>
      <trkpt lat="41.76281" lon="9.15469">
        <ele>768</ele>
        <time>2008-05-28T18:03:11+02:00</time>
      </trkpt>
      <trkpt lat="41.76289" lon="9.15498">
        <ele>767</ele>
        <time>2008-05-28T18:03:16+02:00</time>
      </trkpt>
      <trkpt lat="41.76297" lon="9.15506">
        <ele>763</ele>
        <time>2008-05-28T18:03:19+02:00</time>
      </trkpt>
      <trkpt lat="41.76304" lon="9.1552">
        <ele>762</ele>
        <time>2008-05-28T18:03:22+02:00</time>
      </trkpt>
      <trkpt lat="41.76313" lon="9.15538">
        <ele>761</ele>
        <time>2008-05-28T18:03:27+02:00</time>
      </trkpt>
      <trkpt lat="41.76313" lon="9.1554">
        <ele>761</ele>
        <time>2008-05-28T18:03:28+02:00</time>
      </trkpt>
      <trkpt lat="41.76315" lon="9.15546">
        <ele>761</ele>
        <time>2008-05-28T18:03:31+02:00</time>
      </trkpt>
      <trkpt lat="41.76321" lon="9.15561">
        <ele>760</ele>
        <time>2008-05-28T18:03:37+02:00</time>
      </trkpt>
      <trkpt lat="41.76323" lon="9.15564">
        <ele>760</ele>
        <time>2008-05-28T18:03:39+02:00</time>
      </trkpt>
      <trkpt lat="41.76325" lon="9.15576">
        <ele>759</ele>
        <time>2008-05-28T18:03:43+02:00</time>
      </trkpt>
      <trkpt lat="41.76327" lon="9.15584">
        <ele>756</ele>
        <time>2008-05-28T18:03:46+02:00</time>
      </trkpt>
      <trkpt lat="41.76333" lon="9.15596">
        <ele>755</ele>
        <time>2008-05-28T18:03:51+02:00</time>
      </trkpt>
      <trkpt lat="41.76333" lon="9.15601">
        <ele>754</ele>
        <time>2008-05-28T18:03:53+02:00</time>
      </trkpt>
      <trkpt lat="41.76333" lon="9.15617">
        <ele>753</ele>
        <time>2008-05-28T18:03:57+02:00</time>
      </trkpt>
      <trkpt lat="41.76332" lon="9.15625">
        <ele>753</ele>
        <time>2008-05-28T18:04:01+02:00</time>
      </trkpt>
      <trkpt lat="41.76335" lon="9.15644">
        <ele>751</ele>
        <time>2008-05-28T18:04:07+02:00</time>
      </trkpt>
      <trkpt lat="41.76337" lon="9.1567">
        <ele>749</ele>
        <time>2008-05-28T18:04:13+02:00</time>
      </trkpt>
      <trkpt lat="41.76337" lon="9.15673">
        <ele>748</ele>
        <time>2008-05-28T18:04:14+02:00</time>
      </trkpt>
      <trkpt lat="41.7634" lon="9.15686">
        <ele>746</ele>
        <time>2008-05-28T18:04:18+02:00</time>
      </trkpt>
      <trkpt lat="41.76337" lon="9.15711">
        <ele>743</ele>
        <time>2008-05-28T18:04:23+02:00</time>
      </trkpt>
      <trkpt lat="41.76337" lon="9.15726">
        <ele>741</ele>
        <time>2008-05-28T18:04:27+02:00</time>
      </trkpt>
      <trkpt lat="41.76337" lon="9.15731">
        <ele>741</ele>
        <time>2008-05-28T18:04:28+02:00</time>
      </trkpt>
      <trkpt lat="41.76344" lon="9.15752">
        <ele>737</ele>
        <time>2008-05-28T18:04:33+02:00</time>
      </trkpt>
      <trkpt lat="41.76344" lon="9.15768">
        <ele>737</ele>
        <time>2008-05-28T18:04:37+02:00</time>
      </trkpt>
      <trkpt lat="41.76343" lon="9.15771">
        <ele>736</ele>
        <time>2008-05-28T18:04:38+02:00</time>
      </trkpt>
      <trkpt lat="41.76339" lon="9.1579">
        <ele>735</ele>
        <time>2008-05-28T18:04:43+02:00</time>
      </trkpt>
      <trkpt lat="41.76334" lon="9.15802">
        <ele>734</ele>
        <time>2008-05-28T18:04:47+02:00</time>
      </trkpt>
      <trkpt lat="41.76326" lon="9.15819">
        <ele>730</ele>
        <time>2008-05-28T18:04:52+02:00</time>
      </trkpt>
      <trkpt lat="41.76315" lon="9.15835">
        <ele>725</ele>
        <time>2008-05-28T18:04:57+02:00</time>
      </trkpt>
      <trkpt lat="41.76292" lon="9.15857">
        <ele>722</ele>
        <time>2008-05-28T18:05:04+02:00</time>
      </trkpt>
      <trkpt lat="41.76276" lon="9.15867">
        <ele>721</ele>
        <time>2008-05-28T18:05:09+02:00</time>
      </trkpt>
      <trkpt lat="41.76271" lon="9.15874">
        <ele>720</ele>
        <time>2008-05-28T18:05:11+02:00</time>
      </trkpt>
      <trkpt lat="41.76263" lon="9.15883">
        <ele>719</ele>
        <time>2008-05-28T18:05:19+02:00</time>
      </trkpt>
      <trkpt lat="41.76257" lon="9.15887">
        <ele>718</ele>
        <time>2008-05-28T18:05:23+02:00</time>
      </trkpt>
      <trkpt lat="41.76254" lon="9.15899">
        <ele>716</ele>
        <time>2008-05-28T18:05:29+02:00</time>
      </trkpt>
      <trkpt lat="41.76252" lon="9.15908">
        <ele>713</ele>
        <time>2008-05-28T18:05:33+02:00</time>
      </trkpt>
      <trkpt lat="41.76254" lon="9.15922">
        <ele>710</ele>
        <time>2008-05-28T18:05:39+02:00</time>
      </trkpt>
      <trkpt lat="41.76252" lon="9.15935">
        <ele>710</ele>
        <time>2008-05-28T18:05:43+02:00</time>
      </trkpt>
      <trkpt lat="41.76251" lon="9.15947">
        <ele>710</ele>
        <time>2008-05-28T18:05:46+02:00</time>
      </trkpt>
      <trkpt lat="41.76257" lon="9.15959">
        <ele>709</ele>
        <time>2008-05-28T18:05:52+02:00</time>
      </trkpt>
      <trkpt lat="41.76258" lon="9.15962">
        <ele>708</ele>
        <time>2008-05-28T18:05:53+02:00</time>
      </trkpt>
      <trkpt lat="41.7626" lon="9.15982">
        <ele>705</ele>
        <time>2008-05-28T18:05:58+02:00</time>
      </trkpt>
      <trkpt lat="41.76258" lon="9.15998">
        <ele>702</ele>
        <time>2008-05-28T18:06:03+02:00</time>
      </trkpt>
      <trkpt lat="41.76263" lon="9.16011">
        <ele>698</ele>
        <time>2008-05-28T18:06:07+02:00</time>
      </trkpt>
      <trkpt lat="41.76266" lon="9.16032">
        <ele>697</ele>
        <time>2008-05-28T18:06:12+02:00</time>
      </trkpt>
      <trkpt lat="41.76262" lon="9.16051">
        <ele>694</ele>
        <time>2008-05-28T18:06:18+02:00</time>
      </trkpt>
      <trkpt lat="41.76257" lon="9.16059">
        <ele>692</ele>
        <time>2008-05-28T18:06:21+02:00</time>
      </trkpt>
      <trkpt lat="41.76255" lon="9.16074">
        <ele>687</ele>
        <time>2008-05-28T18:06:25+02:00</time>
      </trkpt>
      <trkpt lat="41.76258" lon="9.16102">
        <ele>681</ele>
        <time>2008-05-28T18:06:30+02:00</time>
      </trkpt>
      <trkpt lat="41.76271" lon="9.1611">
        <ele>681</ele>
        <time>2008-05-28T18:06:34+02:00</time>
      </trkpt>
      <trkpt lat="41.76284" lon="9.16118">
        <ele>682</ele>
        <time>2008-05-28T18:06:38+02:00</time>
      </trkpt>
      <trkpt lat="41.76282" lon="9.16134">
        <ele>680</ele>
        <time>2008-05-28T18:06:43+02:00</time>
      </trkpt>
      <trkpt lat="41.76284" lon="9.16147">
        <ele>679</ele>
        <time>2008-05-28T18:06:48+02:00</time>
      </trkpt>
      <trkpt lat="41.76284" lon="9.16149">
        <ele>679</ele>
        <time>2008-05-28T18:06:49+02:00</time>
      </trkpt>
      <trkpt lat="41.76292" lon="9.16163">
        <ele>679</ele>
        <time>2008-05-28T18:06:54+02:00</time>
      </trkpt>
      <trkpt lat="41.76295" lon="9.16168">
        <ele>669</ele>
        <time>2008-05-28T18:06:57+02:00</time>
      </trkpt>
      <trkpt lat="41.76295" lon="9.16177">
        <ele>669</ele>
        <time>2008-05-28T18:07:00+02:00</time>
      </trkpt>
      <trkpt lat="41.76296" lon="9.16184">
        <ele>669</ele>
        <time>2008-05-28T18:07:02+02:00</time>
      </trkpt>
      <trkpt lat="41.76297" lon="9.16204">
        <ele>667</ele>
        <time>2008-05-28T18:07:07+02:00</time>
      </trkpt>
      <trkpt lat="41.76295" lon="9.16229">
        <ele>664</ele>
        <time>2008-05-28T18:07:13+02:00</time>
      </trkpt>
      <trkpt lat="41.76299" lon="9.16247">
        <ele>664</ele>
        <time>2008-05-28T18:07:18+02:00</time>
      </trkpt>
      <trkpt lat="41.76306" lon="9.16261">
        <ele>656</ele>
        <time>2008-05-28T18:07:23+02:00</time>
      </trkpt>
      <trkpt lat="41.7631" lon="9.16281">
        <ele>655</ele>
        <time>2008-05-28T18:07:28+02:00</time>
      </trkpt>
      <trkpt lat="41.76312" lon="9.16284">
        <ele>654</ele>
        <time>2008-05-28T18:07:29+02:00</time>
      </trkpt>
      <trkpt lat="41.76321" lon="9.163">
        <ele>654</ele>
        <time>2008-05-28T18:07:35+02:00</time>
      </trkpt>
      <trkpt lat="41.76323" lon="9.16302">
        <ele>654</ele>
        <time>2008-05-28T18:07:36+02:00</time>
      </trkpt>
      <trkpt lat="41.76333" lon="9.16324">
        <ele>654</ele>
        <time>2008-05-28T18:07:42+02:00</time>
      </trkpt>
      <trkpt lat="41.76337" lon="9.16341">
        <ele>656</ele>
        <time>2008-05-28T18:07:48+02:00</time>
      </trkpt>
      <trkpt lat="41.76337" lon="9.16354">
        <ele>657</ele>
        <time>2008-05-28T18:07:53+02:00</time>
      </trkpt>
      <trkpt lat="41.76341" lon="9.16364">
        <ele>657</ele>
        <time>2008-05-28T18:08:06+02:00</time>
      </trkpt>
      <trkpt lat="41.76343" lon="9.16378">
        <ele>656</ele>
        <time>2008-05-28T18:08:11+02:00</time>
      </trkpt>
      <trkpt lat="41.76346" lon="9.16385">
        <ele>655</ele>
        <time>2008-05-28T18:08:14+02:00</time>
      </trkpt>
      <trkpt lat="41.76351" lon="9.16401">
        <ele>653</ele>
        <time>2008-05-28T18:08:19+02:00</time>
      </trkpt>
      <trkpt lat="41.7636" lon="9.16409">
        <ele>654</ele>
        <time>2008-05-28T18:08:24+02:00</time>
      </trkpt>
      <trkpt lat="41.76363" lon="9.16415">
        <ele>655</ele>
        <time>2008-05-28T18:08:28+02:00</time>
      </trkpt>
      <trkpt lat="41.76363" lon="9.16419">
        <ele>647</ele>
        <time>2008-05-28T18:08:31+02:00</time>
      </trkpt>
      <trkpt lat="41.76362" lon="9.16423">
        <ele>647</ele>
        <time>2008-05-28T18:08:36+02:00</time>
      </trkpt>
      <trkpt lat="41.76362" lon="9.16425">
        <ele>647</ele>
        <time>2008-05-28T18:08:37+02:00</time>
      </trkpt>
      <trkpt lat="41.76359" lon="9.16438">
        <ele>646</ele>
        <time>2008-05-28T18:08:42+02:00</time>
      </trkpt>
      <trkpt lat="41.76359" lon="9.1644">
        <ele>646</ele>
        <time>2008-05-28T18:08:43+02:00</time>
      </trkpt>
      <trkpt lat="41.76361" lon="9.16459">
        <ele>646</ele>
        <time>2008-05-28T18:08:49+02:00</time>
      </trkpt>
      <trkpt lat="41.76362" lon="9.16488">
        <ele>644</ele>
        <time>2008-05-28T18:08:53+02:00</time>
      </trkpt>
      <trkpt lat="41.76364" lon="9.165">
        <ele>638</ele>
        <time>2008-05-28T18:08:55+02:00</time>
      </trkpt>
      <trkpt lat="41.76367" lon="9.16513">
        <ele>638</ele>
        <time>2008-05-28T18:08:57+02:00</time>
      </trkpt>
      <trkpt lat="41.76373" lon="9.16523">
        <ele>639</ele>
        <time>2008-05-28T18:08:59+02:00</time>
      </trkpt>
      <trkpt lat="41.76382" lon="9.16534">
        <ele>639</ele>
        <time>2008-05-28T18:09:03+02:00</time>
      </trkpt>
      <trkpt lat="41.76391" lon="9.16545">
        <ele>638</ele>
        <time>2008-05-28T18:09:08+02:00</time>
      </trkpt>
      <trkpt lat="41.76398" lon="9.16552">
        <ele>638</ele>
        <time>2008-05-28T18:09:12+02:00</time>
      </trkpt>
      <trkpt lat="41.76401" lon="9.16551">
        <ele>638</ele>
        <time>2008-05-28T18:09:17+02:00</time>
      </trkpt>
      <trkpt lat="41.76406" lon="9.16552">
        <ele>638</ele>
        <time>2008-05-28T18:09:23+02:00</time>
      </trkpt>
      <trkpt lat="41.76408" lon="9.16556">
        <ele>638</ele>
        <time>2008-05-28T18:09:28+02:00</time>
      </trkpt>
      <trkpt lat="41.76415" lon="9.16559">
        <ele>638</ele>
        <time>2008-05-28T18:09:34+02:00</time>
      </trkpt>
      <trkpt lat="41.76418" lon="9.1656">
        <ele>642</ele>
        <time>2008-05-28T18:09:39+02:00</time>
      </trkpt>
      <trkpt lat="41.76421" lon="9.16564">
        <ele>641</ele>
        <time>2008-05-28T18:09:44+02:00</time>
      </trkpt>
      <trkpt lat="41.76426" lon="9.16566">
        <ele>641</ele>
        <time>2008-05-28T18:09:50+02:00</time>
      </trkpt>
      <trkpt lat="41.76431" lon="9.16568">
        <ele>641</ele>
        <time>2008-05-28T18:09:57+02:00</time>
      </trkpt>
      <trkpt lat="41.76435" lon="9.16574">
        <ele>641</ele>
        <time>2008-05-28T18:10:04+02:00</time>
      </trkpt>
      <trkpt lat="41.76436" lon="9.16571">
        <ele>642</ele>
        <time>2008-05-28T18:10:09+02:00</time>
      </trkpt>
      <trkpt lat="41.76437" lon="9.16566">
        <ele>642</ele>
        <time>2008-05-28T18:10:14+02:00</time>
      </trkpt>
      <trkpt lat="41.7644" lon="9.16565">
        <ele>643</ele>
        <time>2008-05-28T18:10:22+02:00</time>
      </trkpt>
      <trkpt lat="41.7644" lon="9.16567">
        <ele>643</ele>
        <time>2008-05-28T18:10:30+02:00</time>
      </trkpt>
      <trkpt lat="41.7644" lon="9.1657">
        <ele>643</ele>
        <time>2008-05-28T18:10:39+02:00</time>
      </trkpt>
      <trkpt lat="41.76439" lon="9.16574">
        <ele>642</ele>
        <time>2008-05-28T18:10:45+02:00</time>
      </trkpt>
      <trkpt lat="41.76437" lon="9.16578">
        <ele>641</ele>
        <time>2008-05-28T18:10:51+02:00</time>
      </trkpt>
      <trkpt lat="41.76436" lon="9.16584">
        <ele>639</ele>
        <time>2008-05-28T18:10:58+02:00</time>
      </trkpt>
      <trkpt lat="41.76435" lon="9.16588">
        <ele>639</ele>
        <time>2008-05-28T18:11:04+02:00</time>
      </trkpt>
      <trkpt lat="41.76433" lon="9.16593">
        <ele>639</ele>
        <time>2008-05-28T18:11:09+02:00</time>
      </trkpt>
      <trkpt lat="41.76433" lon="9.16597">
        <ele>639</ele>
        <time>2008-05-28T18:11:15+02:00</time>
      </trkpt>
      <trkpt lat="41.76428" lon="9.16603">
        <ele>639</ele>
        <time>2008-05-28T18:11:22+02:00</time>
      </trkpt>
      <trkpt lat="41.76428" lon="9.16609">
        <ele>640</ele>
        <time>2008-05-28T18:11:27+02:00</time>
      </trkpt>
      <trkpt lat="41.76425" lon="9.16612">
        <ele>640</ele>
        <time>2008-05-28T18:11:31+02:00</time>
      </trkpt>
      <trkpt lat="41.76423" lon="9.16609">
        <ele>640</ele>
        <time>2008-05-28T18:11:38+02:00</time>
      </trkpt>
      <trkpt lat="41.76423" lon="9.16608">
        <ele>640</ele>
        <time>2008-05-28T18:11:45+02:00</time>
      </trkpt>
      <trkpt lat="41.76425" lon="9.16608">
        <ele>640</ele>
        <time>2008-05-28T18:11:51+02:00</time>
      </trkpt>
      <trkpt lat="41.76426" lon="9.16609">
        <ele>640</ele>
        <time>2008-05-28T18:12:01+02:00</time>
      </trkpt>
      <trkpt lat="41.76429" lon="9.16609">
        <ele>640</ele>
        <time>2008-05-28T18:12:06+02:00</time>
      </trkpt>
      <trkpt lat="41.7643" lon="9.16606">
        <ele>640</ele>
        <time>2008-05-28T18:12:11+02:00</time>
      </trkpt>
      <trkpt lat="41.7643" lon="9.16602">
        <ele>639</ele>
        <time>2008-05-28T18:12:15+02:00</time>
      </trkpt>
      <trkpt lat="41.7643" lon="9.16595">
        <ele>639</ele>
        <time>2008-05-28T18:12:21+02:00</time>
      </trkpt>
      <trkpt lat="41.76432" lon="9.16591">
        <ele>639</ele>
        <time>2008-05-28T18:12:27+02:00</time>
      </trkpt>
      <trkpt lat="41.76433" lon="9.16587">
        <ele>639</ele>
        <time>2008-05-28T18:12:32+02:00</time>
      </trkpt>
      <trkpt lat="41.76434" lon="9.16586">
        <ele>639</ele>
        <time>2008-05-28T18:12:38+02:00</time>
      </trkpt>
      <trkpt lat="41.76435" lon="9.16587">
        <ele>639</ele>
        <time>2008-05-28T18:12:45+02:00</time>
      </trkpt>
      <trkpt lat="41.76437" lon="9.16588">
        <ele>639</ele>
        <time>2008-05-28T18:12:53+02:00</time>
      </trkpt>
      <trkpt lat="41.76437" lon="9.16589">
        <ele>639</ele>
        <time>2008-05-28T18:13:02+02:00</time>
      </trkpt>
      <trkpt lat="41.76435" lon="9.16588">
        <ele>639</ele>
        <time>2008-05-28T18:13:11+02:00</time>
      </trkpt>
      <trkpt lat="41.76435" lon="9.16586">
        <ele>639</ele>
        <time>2008-05-28T18:13:24+02:00</time>
      </trkpt>
      <trkpt lat="41.7643" lon="9.16584">
        <ele>638</ele>
        <time>2008-05-28T18:13:37+02:00</time>
      </trkpt>
      <trkpt lat="41.76429" lon="9.16585">
        <ele>638</ele>
        <time>2008-05-28T18:13:48+02:00</time>
      </trkpt>
      <trkpt lat="41.7643" lon="9.16589">
        <ele>638</ele>
        <time>2008-05-28T18:13:54+02:00</time>
      </trkpt>
      <trkpt lat="41.76431" lon="9.16592">
        <ele>639</ele>
        <time>2008-05-28T18:14:03+02:00</time>
      </trkpt>
      <trkpt lat="41.7643" lon="9.16594">
        <ele>639</ele>
        <time>2008-05-28T18:14:10+02:00</time>
      </trkpt>
      <trkpt lat="41.7643" lon="9.16595">
        <ele>639</ele>
        <time>2008-05-28T18:14:17+02:00</time>
      </trkpt>
      <trkpt lat="41.76428" lon="9.16599">
        <ele>639</ele>
        <time>2008-05-28T18:14:28+02:00</time>
      </trkpt>
      <trkpt lat="41.76426" lon="9.16608">
        <ele>640</ele>
        <time>2008-05-28T18:14:35+02:00</time>
      </trkpt>
      <trkpt lat="41.76424" lon="9.16611">
        <ele>640</ele>
        <time>2008-05-28T18:14:40+02:00</time>
      </trkpt>
      <trkpt lat="41.76423" lon="9.16609">
        <ele>640</ele>
        <time>2008-05-28T18:14:46+02:00</time>
      </trkpt>
      <trkpt lat="41.76422" lon="9.16608">
        <ele>640</ele>
        <time>2008-05-28T18:14:51+02:00</time>
      </trkpt>
      <trkpt lat="41.76422" lon="9.16609">
        <ele>640</ele>
        <time>2008-05-28T18:14:58+02:00</time>
      </trkpt>
      <trkpt lat="41.76423" lon="9.16609">
        <ele>640</ele>
        <time>2008-05-28T18:15:07+02:00</time>
      </trkpt>
      <trkpt lat="41.76424" lon="9.16612">
        <ele>640</ele>
        <time>2008-05-28T18:15:17+02:00</time>
      </trkpt>
      <trkpt lat="41.76424" lon="9.16612">
        <ele>640</ele>
        <time>2008-05-28T18:15:31+02:00</time>
      </trkpt>
      <trkpt lat="41.76424" lon="9.1661">
        <ele>640</ele>
        <time>2008-05-28T18:15:38+02:00</time>
      </trkpt>
      <trkpt lat="41.76424" lon="9.1661">
        <ele>640</ele>
        <time>2008-05-28T18:15:45+02:00</time>
      </trkpt>
      <trkpt lat="41.76424" lon="9.16609">
        <ele>640</ele>
        <time>2008-05-28T18:15:55+02:00</time>
      </trkpt>
      <trkpt lat="41.76424" lon="9.16609">
        <ele>640</ele>
        <time>2008-05-28T18:16:03+02:00</time>
      </trkpt>
      <trkpt lat="41.76423" lon="9.16611">
        <ele>640</ele>
        <time>2008-05-28T18:16:11+02:00</time>
      </trkpt>
      <trkpt lat="41.76422" lon="9.16615">
        <ele>640</ele>
        <time>2008-05-28T18:16:24+02:00</time>
      </trkpt>
      <trkpt lat="41.76424" lon="9.16613">
        <ele>640</ele>
        <time>2008-05-28T18:16:43+02:00</time>
      </trkpt>
      <trkpt lat="41.76423" lon="9.16612">
        <ele>640</ele>
        <time>2008-05-28T18:16:51+02:00</time>
      </trkpt>
      <trkpt lat="41.76422" lon="9.16613">
        <ele>640</ele>
        <time>2008-05-28T18:17:02+02:00</time>
      </trkpt>
      <trkpt lat="41.76423" lon="9.16614">
        <ele>640</ele>
        <time>2008-05-28T18:17:14+02:00</time>
      </trkpt>
      <trkpt lat="41.76422" lon="9.16612">
        <ele>640</ele>
        <time>2008-05-28T18:17:30+02:00</time>
      </trkpt>
      <trkpt lat="41.76422" lon="9.16613">
        <ele>640</ele>
        <time>2008-05-28T18:17:37+02:00</time>
      </trkpt>
      <trkpt lat="41.7642" lon="9.1661">
        <ele>640</ele>
        <time>2008-05-28T18:17:51+02:00</time>
      </trkpt>
      <trkpt lat="41.7642" lon="9.1661">
        <ele>640</ele>
        <time>2008-05-28T18:18:02+02:00</time>
      </trkpt>
      <trkpt lat="41.76421" lon="9.1661">
        <ele>640</ele>
        <time>2008-05-28T18:18:09+02:00</time>
      </trkpt>
      <trkpt lat="41.76421" lon="9.16609">
        <ele>640</ele>
        <time>2008-05-28T18:18:16+02:00</time>
      </trkpt>
      <trkpt lat="41.7642" lon="9.16608">
        <ele>640</ele>
        <time>2008-05-28T18:18:29+02:00</time>
      </trkpt>
      <trkpt lat="41.76413" lon="9.16606">
        <ele>638</ele>
        <time>2008-05-28T18:18:37+02:00</time>
      </trkpt>
      <trkpt lat="41.76408" lon="9.16604">
        <ele>638</ele>
        <time>2008-05-28T18:18:43+02:00</time>
      </trkpt>
      <trkpt lat="41.76406" lon="9.16603">
        <ele>638</ele>
        <time>2008-05-28T18:18:45+02:00</time>
      </trkpt>
      <trkpt lat="41.764" lon="9.16603">
        <ele>638</ele>
        <time>2008-05-28T18:18:52+02:00</time>
      </trkpt>
      <trkpt lat="41.76398" lon="9.16597">
        <ele>638</ele>
        <time>2008-05-28T18:18:56+02:00</time>
      </trkpt>
      <trkpt lat="41.76394" lon="9.1659">
        <ele>638</ele>
        <time>2008-05-28T18:19:03+02:00</time>
      </trkpt>
      <trkpt lat="41.76389" lon="9.16596">
        <ele>638</ele>
        <time>2008-05-28T18:19:10+02:00</time>
      </trkpt>
      <trkpt lat="41.76384" lon="9.16599">
        <ele>638</ele>
        <time>2008-05-28T18:19:17+02:00</time>
      </trkpt>
      <trkpt lat="41.76376" lon="9.16604">
        <ele>639</ele>
        <time>2008-05-28T18:19:26+02:00</time>
      </trkpt>
      <trkpt lat="41.76373" lon="9.16609">
        <ele>639</ele>
        <time>2008-05-28T18:19:36+02:00</time>
      </trkpt>
      <trkpt lat="41.76366" lon="9.16606">
        <ele>639</ele>
        <time>2008-05-28T18:19:47+02:00</time>
      </trkpt>
      <trkpt lat="41.76366" lon="9.16606">
        <ele>639</ele>
        <time>2008-05-28T18:19:48+02:00</time>
      </trkpt>
      <trkpt lat="41.76365" lon="9.16609">
        <ele>639</ele>
        <time>2008-05-28T18:19:55+02:00</time>
      </trkpt>
      <trkpt lat="41.76361" lon="9.1661">
        <ele>639</ele>
        <time>2008-05-28T18:19:59+02:00</time>
      </trkpt>
      <trkpt lat="41.76356" lon="9.16613">
        <ele>639</ele>
        <time>2008-05-28T18:20:04+02:00</time>
      </trkpt>
      <trkpt lat="41.76355" lon="9.1662">
        <ele>639</ele>
        <time>2008-05-28T18:20:08+02:00</time>
      </trkpt>
      <trkpt lat="41.76354" lon="9.16622">
        <ele>640</ele>
        <time>2008-05-28T18:20:10+02:00</time>
      </trkpt>
      <trkpt lat="41.76352" lon="9.16626">
        <ele>640</ele>
        <time>2008-05-28T18:20:13+02:00</time>
      </trkpt>
      <trkpt lat="41.76349" lon="9.16627">
        <ele>640</ele>
        <time>2008-05-28T18:20:15+02:00</time>
      </trkpt>
      <trkpt lat="41.76341" lon="9.16629">
        <ele>640</ele>
        <time>2008-05-28T18:20:22+02:00</time>
      </trkpt>
      <trkpt lat="41.76337" lon="9.16631">
        <ele>640</ele>
        <time>2008-05-28T18:20:29+02:00</time>
      </trkpt>
      <trkpt lat="41.76333" lon="9.1663">
        <ele>642</ele>
        <time>2008-05-28T18:20:38+02:00</time>
      </trkpt>
      <trkpt lat="41.76326" lon="9.16635">
        <ele>642</ele>
        <time>2008-05-28T18:20:45+02:00</time>
      </trkpt>
      <trkpt lat="41.76325" lon="9.16641">
        <ele>643</ele>
        <time>2008-05-28T18:21:01+02:00</time>
      </trkpt>
      <trkpt lat="41.76326" lon="9.16649">
        <ele>644</ele>
        <time>2008-05-28T18:21:08+02:00</time>
      </trkpt>
      <trkpt lat="41.76329" lon="9.16655">
        <ele>644</ele>
        <time>2008-05-28T18:21:16+02:00</time>
      </trkpt>
      <trkpt lat="41.76331" lon="9.16664">
        <ele>646</ele>
        <time>2008-05-28T18:21:24+02:00</time>
      </trkpt>
      <trkpt lat="41.76331" lon="9.16671">
        <ele>646</ele>
        <time>2008-05-28T18:21:32+02:00</time>
      </trkpt>
      <trkpt lat="41.76333" lon="9.16677">
        <ele>647</ele>
        <time>2008-05-28T18:21:37+02:00</time>
      </trkpt>
      <trkpt lat="41.76336" lon="9.16685">
        <ele>647</ele>
        <time>2008-05-28T18:21:41+02:00</time>
      </trkpt>
      <trkpt lat="41.76336" lon="9.16703">
        <ele>648</ele>
        <time>2008-05-28T18:21:48+02:00</time>
      </trkpt>
      <trkpt lat="41.76334" lon="9.16709">
        <ele>648</ele>
        <time>2008-05-28T18:21:51+02:00</time>
      </trkpt>
      <trkpt lat="41.7633" lon="9.16721">
        <ele>649</ele>
        <time>2008-05-28T18:21:57+02:00</time>
      </trkpt>
      <trkpt lat="41.76329" lon="9.16736">
        <ele>650</ele>
        <time>2008-05-28T18:22:02+02:00</time>
      </trkpt>
      <trkpt lat="41.76327" lon="9.16763">
        <ele>650</ele>
        <time>2008-05-28T18:22:08+02:00</time>
      </trkpt>
      <trkpt lat="41.76329" lon="9.16768">
        <ele>650</ele>
        <time>2008-05-28T18:22:09+02:00</time>
      </trkpt>
      <trkpt lat="41.7634" lon="9.1678">
        <ele>650</ele>
        <time>2008-05-28T18:22:15+02:00</time>
      </trkpt>
      <trkpt lat="41.76344" lon="9.16785">
        <ele>650</ele>
        <time>2008-05-28T18:22:17+02:00</time>
      </trkpt>
      <trkpt lat="41.76356" lon="9.16798">
        <ele>650</ele>
        <time>2008-05-28T18:22:23+02:00</time>
      </trkpt>
      <trkpt lat="41.76361" lon="9.16822">
        <ele>649</ele>
        <time>2008-05-28T18:22:31+02:00</time>
      </trkpt>
      <trkpt lat="41.76358" lon="9.16845">
        <ele>649</ele>
        <time>2008-05-28T18:22:39+02:00</time>
      </trkpt>
      <trkpt lat="41.76358" lon="9.16846">
        <ele>649</ele>
        <time>2008-05-28T18:22:43+02:00</time>
      </trkpt>
      <trkpt lat="41.76358" lon="9.16848">
        <ele>649</ele>
        <time>2008-05-28T18:22:49+02:00</time>
      </trkpt>
      <trkpt lat="41.76358" lon="9.16847">
        <ele>649</ele>
        <time>2008-05-28T18:22:54+02:00</time>
      </trkpt>
      <trkpt lat="41.7636" lon="9.16847">
        <ele>649</ele>
        <time>2008-05-28T18:23:01+02:00</time>
      </trkpt>
      <trkpt lat="41.76359" lon="9.16848">
        <ele>649</ele>
        <time>2008-05-28T18:23:10+02:00</time>
      </trkpt>
      <trkpt lat="41.7636" lon="9.16847">
        <ele>649</ele>
        <time>2008-05-28T18:23:23+02:00</time>
      </trkpt>
      <trkpt lat="41.7636" lon="9.16847">
        <ele>649</ele>
        <time>2008-05-28T18:23:35+02:00</time>
      </trkpt>
      <trkpt lat="41.76361" lon="9.16848">
        <ele>649</ele>
        <time>2008-05-28T18:23:42+02:00</time>
      </trkpt>
      <trkpt lat="41.76362" lon="9.16849">
        <ele>649</ele>
        <time>2008-05-28T18:23:55+02:00</time>
      </trkpt>
      <trkpt lat="41.76364" lon="9.16851">
        <ele>649</ele>
        <time>2008-05-28T18:24:01+02:00</time>
      </trkpt>
      <trkpt lat="41.76364" lon="9.16851">
        <ele>649</ele>
        <time>2008-05-28T18:24:02+02:00</time>
      </trkpt>
      <trkpt lat="41.76364" lon="9.1685">
        <ele>649</ele>
        <time>2008-05-28T18:24:05+02:00</time>
      </trkpt>
      <trkpt lat="41.76362" lon="9.16852">
        <ele>649</ele>
        <time>2008-05-28T18:24:08+02:00</time>
      </trkpt>
      <trkpt lat="41.76357" lon="9.16861">
        <ele>649</ele>
        <time>2008-05-28T18:24:12+02:00</time>
      </trkpt>
      <trkpt lat="41.76349" lon="9.16884">
        <ele>649</ele>
        <time>2008-05-28T18:24:19+02:00</time>
      </trkpt>
      <trkpt lat="41.76345" lon="9.16908">
        <ele>648</ele>
        <time>2008-05-28T18:24:26+02:00</time>
      </trkpt>
      <trkpt lat="41.76349" lon="9.1692">
        <ele>649</ele>
        <time>2008-05-28T18:24:31+02:00</time>
      </trkpt>
      <trkpt lat="41.76359" lon="9.16936">
        <ele>650</ele>
        <time>2008-05-28T18:24:38+02:00</time>
      </trkpt>
      <trkpt lat="41.7637" lon="9.16959">
        <ele>650</ele>
        <time>2008-05-28T18:24:47+02:00</time>
      </trkpt>
      <trkpt lat="41.76382" lon="9.16982">
        <ele>650</ele>
        <time>2008-05-28T18:24:57+02:00</time>
      </trkpt>
      <trkpt lat="41.76389" lon="9.16995">
        <ele>650</ele>
        <time>2008-05-28T18:25:03+02:00</time>
      </trkpt>
      <trkpt lat="41.76396" lon="9.17017">
        <ele>653</ele>
        <time>2008-05-28T18:25:11+02:00</time>
      </trkpt>
      <trkpt lat="41.76396" lon="9.17034">
        <ele>654</ele>
        <time>2008-05-28T18:25:17+02:00</time>
      </trkpt>
      <trkpt lat="41.76397" lon="9.17036">
        <ele>655</ele>
        <time>2008-05-28T18:25:18+02:00</time>
      </trkpt>
      <trkpt lat="41.764" lon="9.17044">
        <ele>655</ele>
        <time>2008-05-28T18:25:22+02:00</time>
      </trkpt>
      <trkpt lat="41.76411" lon="9.17061">
        <ele>656</ele>
        <time>2008-05-28T18:25:30+02:00</time>
      </trkpt>
      <trkpt lat="41.76412" lon="9.17075">
        <ele>656</ele>
        <time>2008-05-28T18:25:35+02:00</time>
      </trkpt>
      <trkpt lat="41.76404" lon="9.17085">
        <ele>660</ele>
        <time>2008-05-28T18:25:42+02:00</time>
      </trkpt>
      <trkpt lat="41.76402" lon="9.17087">
        <ele>660</ele>
        <time>2008-05-28T18:25:44+02:00</time>
      </trkpt>
      <trkpt lat="41.76393" lon="9.17093">
        <ele>662</ele>
        <time>2008-05-28T18:25:52+02:00</time>
      </trkpt>
      <trkpt lat="41.76385" lon="9.17095">
        <ele>663</ele>
        <time>2008-05-28T18:25:58+02:00</time>
      </trkpt>
      <trkpt lat="41.7638" lon="9.17109">
        <ele>664</ele>
        <time>2008-05-28T18:26:07+02:00</time>
      </trkpt>
      <trkpt lat="41.76375" lon="9.17115">
        <ele>664</ele>
        <time>2008-05-28T18:26:12+02:00</time>
      </trkpt>
      <trkpt lat="41.76374" lon="9.17128">
        <ele>665</ele>
        <time>2008-05-28T18:26:19+02:00</time>
      </trkpt>
      <trkpt lat="41.76376" lon="9.17137">
        <ele>665</ele>
        <time>2008-05-28T18:26:24+02:00</time>
      </trkpt>
      <trkpt lat="41.76376" lon="9.17146">
        <ele>666</ele>
        <time>2008-05-28T18:26:28+02:00</time>
      </trkpt>
      <trkpt lat="41.76369" lon="9.17154">
        <ele>667</ele>
        <time>2008-05-28T18:26:34+02:00</time>
      </trkpt>
      <trkpt lat="41.76362" lon="9.17163">
        <ele>667</ele>
        <time>2008-05-28T18:26:41+02:00</time>
      </trkpt>
      <trkpt lat="41.7636" lon="9.17168">
        <ele>673</ele>
        <time>2008-05-28T18:26:44+02:00</time>
      </trkpt>
      <trkpt lat="41.76357" lon="9.17176">
        <ele>674</ele>
        <time>2008-05-28T18:26:48+02:00</time>
      </trkpt>
      <trkpt lat="41.76358" lon="9.17185">
        <ele>674</ele>
        <time>2008-05-28T18:26:52+02:00</time>
      </trkpt>
      <trkpt lat="41.7636" lon="9.172">
        <ele>675</ele>
        <time>2008-05-28T18:27:00+02:00</time>
      </trkpt>
      <trkpt lat="41.76362" lon="9.17208">
        <ele>676</ele>
        <time>2008-05-28T18:27:04+02:00</time>
      </trkpt>
      <trkpt lat="41.76357" lon="9.1721">
        <ele>676</ele>
        <time>2008-05-28T18:27:09+02:00</time>
      </trkpt>
      <trkpt lat="41.76344" lon="9.17199">
        <ele>675</ele>
        <time>2008-05-28T18:27:16+02:00</time>
      </trkpt>
      <trkpt lat="41.76329" lon="9.17195">
        <ele>675</ele>
        <time>2008-05-28T18:27:21+02:00</time>
      </trkpt>
      <trkpt lat="41.76321" lon="9.17205">
        <ele>676</ele>
        <time>2008-05-28T18:27:25+02:00</time>
      </trkpt>
      <trkpt lat="41.76313" lon="9.17214">
        <ele>677</ele>
        <time>2008-05-28T18:27:29+02:00</time>
      </trkpt>
      <trkpt lat="41.76302" lon="9.17216">
        <ele>677</ele>
        <time>2008-05-28T18:27:33+02:00</time>
      </trkpt>
      <trkpt lat="41.76303" lon="9.17213">
        <ele>677</ele>
        <time>2008-05-28T18:27:40+02:00</time>
      </trkpt>
      <trkpt lat="41.76303" lon="9.17217">
        <ele>677</ele>
        <time>2008-05-28T18:27:48+02:00</time>
      </trkpt>
      <trkpt lat="41.76299" lon="9.17223">
        <ele>678</ele>
        <time>2008-05-28T18:27:54+02:00</time>
      </trkpt>
      <trkpt lat="41.76294" lon="9.17229">
        <ele>678</ele>
        <time>2008-05-28T18:28:01+02:00</time>
      </trkpt>
      <trkpt lat="41.76288" lon="9.17229">
        <ele>678</ele>
        <time>2008-05-28T18:28:05+02:00</time>
      </trkpt>
      <trkpt lat="41.76286" lon="9.17226">
        <ele>678</ele>
        <time>2008-05-28T18:28:11+02:00</time>
      </trkpt>
      <trkpt lat="41.76284" lon="9.17227">
        <ele>678</ele>
        <time>2008-05-28T18:28:16+02:00</time>
      </trkpt>
      <trkpt lat="41.7628" lon="9.17231">
        <ele>678</ele>
        <time>2008-05-28T18:28:30+02:00</time>
      </trkpt>
      <trkpt lat="41.76277" lon="9.17235">
        <ele>678</ele>
        <time>2008-05-28T18:28:52+02:00</time>
      </trkpt>
      <trkpt lat="41.76282" lon="9.17239">
        <ele>678</ele>
        <time>2008-05-28T18:28:57+02:00</time>
      </trkpt>
      <trkpt lat="41.76284" lon="9.17246">
        <ele>678</ele>
        <time>2008-05-28T18:29:03+02:00</time>
      </trkpt>
      <trkpt lat="41.76282" lon="9.17253">
        <ele>682</ele>
        <time>2008-05-28T18:29:07+02:00</time>
      </trkpt>
      <trkpt lat="41.76281" lon="9.17264">
        <ele>683</ele>
        <time>2008-05-28T18:29:12+02:00</time>
      </trkpt>
      <trkpt lat="41.76279" lon="9.17282">
        <ele>683</ele>
        <time>2008-05-28T18:29:16+02:00</time>
      </trkpt>
      <trkpt lat="41.76267" lon="9.17308">
        <ele>685</ele>
        <time>2008-05-28T18:29:20+02:00</time>
      </trkpt>
      <trkpt lat="41.76264" lon="9.17319">
        <ele>686</ele>
        <time>2008-05-28T18:29:22+02:00</time>
      </trkpt>
      <trkpt lat="41.76257" lon="9.17321">
        <ele>686</ele>
        <time>2008-05-28T18:29:26+02:00</time>
      </trkpt>
      <trkpt lat="41.76253" lon="9.17316">
        <ele>686</ele>
        <time>2008-05-28T18:29:31+02:00</time>
      </trkpt>
      <trkpt lat="41.76251" lon="9.17315">
        <ele>686</ele>
        <time>2008-05-28T18:29:32+02:00</time>
      </trkpt>
      <trkpt lat="41.76244" lon="9.17309">
        <ele>687</ele>
        <time>2008-05-28T18:29:38+02:00</time>
      </trkpt>
      <trkpt lat="41.76236" lon="9.17301">
        <ele>686</ele>
        <time>2008-05-28T18:29:45+02:00</time>
      </trkpt>
      <trkpt lat="41.76232" lon="9.17298">
        <ele>686</ele>
        <time>2008-05-28T18:29:48+02:00</time>
      </trkpt>
      <trkpt lat="41.76225" lon="9.17294">
        <ele>686</ele>
        <time>2008-05-28T18:29:54+02:00</time>
      </trkpt>
      <trkpt lat="41.76213" lon="9.17301">
        <ele>687</ele>
        <time>2008-05-28T18:30:01+02:00</time>
      </trkpt>
      <trkpt lat="41.76206" lon="9.17312">
        <ele>687</ele>
        <time>2008-05-28T18:30:06+02:00</time>
      </trkpt>
      <trkpt lat="41.76202" lon="9.17318">
        <ele>688</ele>
        <time>2008-05-28T18:30:10+02:00</time>
      </trkpt>
      <trkpt lat="41.76193" lon="9.17331">
        <ele>688</ele>
        <time>2008-05-28T18:30:18+02:00</time>
      </trkpt>
      <trkpt lat="41.76187" lon="9.17348">
        <ele>693</ele>
        <time>2008-05-28T18:30:27+02:00</time>
      </trkpt>
      <trkpt lat="41.76184" lon="9.17356">
        <ele>693</ele>
        <time>2008-05-28T18:30:31+02:00</time>
      </trkpt>
      <trkpt lat="41.76183" lon="9.17364">
        <ele>693</ele>
        <time>2008-05-28T18:30:35+02:00</time>
      </trkpt>
      <trkpt lat="41.76182" lon="9.17373">
        <ele>694</ele>
        <time>2008-05-28T18:30:39+02:00</time>
      </trkpt>
      <trkpt lat="41.76173" lon="9.17387">
        <ele>695</ele>
        <time>2008-05-28T18:30:48+02:00</time>
      </trkpt>
      <trkpt lat="41.76171" lon="9.17395">
        <ele>695</ele>
        <time>2008-05-28T18:30:52+02:00</time>
      </trkpt>
      <trkpt lat="41.76169" lon="9.17406">
        <ele>696</ele>
        <time>2008-05-28T18:30:57+02:00</time>
      </trkpt>
      <trkpt lat="41.76163" lon="9.17418">
        <ele>699</ele>
        <time>2008-05-28T18:31:02+02:00</time>
      </trkpt>
      <trkpt lat="41.7616" lon="9.17424">
        <ele>700</ele>
        <time>2008-05-28T18:31:07+02:00</time>
      </trkpt>
      <trkpt lat="41.76159" lon="9.17425">
        <ele>700</ele>
        <time>2008-05-28T18:31:08+02:00</time>
      </trkpt>
      <trkpt lat="41.76148" lon="9.17434">
        <ele>702</ele>
        <time>2008-05-28T18:31:15+02:00</time>
      </trkpt>
      <trkpt lat="41.76145" lon="9.17436">
        <ele>703</ele>
        <time>2008-05-28T18:31:17+02:00</time>
      </trkpt>
      <trkpt lat="41.76137" lon="9.1744">
        <ele>703</ele>
        <time>2008-05-28T18:31:21+02:00</time>
      </trkpt>
      <trkpt lat="41.76125" lon="9.17447">
        <ele>704</ele>
        <time>2008-05-28T18:31:28+02:00</time>
      </trkpt>
      <trkpt lat="41.76115" lon="9.17454">
        <ele>705</ele>
        <time>2008-05-28T18:31:34+02:00</time>
      </trkpt>
      <trkpt lat="41.76108" lon="9.17459">
        <ele>706</ele>
        <time>2008-05-28T18:31:39+02:00</time>
      </trkpt>
      <trkpt lat="41.761" lon="9.17466">
        <ele>706</ele>
        <time>2008-05-28T18:31:45+02:00</time>
      </trkpt>
      <trkpt lat="41.7609" lon="9.17473">
        <ele>708</ele>
        <time>2008-05-28T18:31:51+02:00</time>
      </trkpt>
      <trkpt lat="41.76088" lon="9.17481">
        <ele>709</ele>
        <time>2008-05-28T18:31:55+02:00</time>
      </trkpt>
      <trkpt lat="41.76083" lon="9.17493">
        <ele>713</ele>
        <time>2008-05-28T18:32:01+02:00</time>
      </trkpt>
      <trkpt lat="41.76081" lon="9.17495">
        <ele>713</ele>
        <time>2008-05-28T18:32:08+02:00</time>
      </trkpt>
      <trkpt lat="41.76081" lon="9.17499">
        <ele>713</ele>
        <time>2008-05-28T18:32:14+02:00</time>
      </trkpt>
      <trkpt lat="41.76084" lon="9.17507">
        <ele>713</ele>
        <time>2008-05-28T18:32:20+02:00</time>
      </trkpt>
      <trkpt lat="41.76086" lon="9.17514">
        <ele>714</ele>
        <time>2008-05-28T18:32:25+02:00</time>
      </trkpt>
      <trkpt lat="41.76085" lon="9.17525">
        <ele>715</ele>
        <time>2008-05-28T18:32:34+02:00</time>
      </trkpt>
      <trkpt lat="41.76088" lon="9.1753">
        <ele>715</ele>
        <time>2008-05-28T18:32:45+02:00</time>
      </trkpt>
      <trkpt lat="41.76089" lon="9.17533">
        <ele>715</ele>
        <time>2008-05-28T18:32:52+02:00</time>
      </trkpt>
      <trkpt lat="41.76087" lon="9.17533">
        <ele>715</ele>
        <time>2008-05-28T18:33:07+02:00</time>
      </trkpt>
      <trkpt lat="41.76086" lon="9.17532">
        <ele>715</ele>
        <time>2008-05-28T18:33:24+02:00</time>
      </trkpt>
      <trkpt lat="41.76088" lon="9.17534">
        <ele>715</ele>
        <time>2008-05-28T18:33:32+02:00</time>
      </trkpt>
      <trkpt lat="41.7609" lon="9.17534">
        <ele>715</ele>
        <time>2008-05-28T18:33:57+02:00</time>
      </trkpt>
      <trkpt lat="41.76087" lon="9.17536">
        <ele>715</ele>
        <time>2008-05-28T18:34:03+02:00</time>
      </trkpt>
      <trkpt lat="41.76083" lon="9.17533">
        <ele>720</ele>
        <time>2008-05-28T18:34:16+02:00</time>
      </trkpt>
      <trkpt lat="41.76081" lon="9.17531">
        <ele>720</ele>
        <time>2008-05-28T18:34:23+02:00</time>
      </trkpt>
      <trkpt lat="41.76078" lon="9.17529">
        <ele>719</ele>
        <time>2008-05-28T18:34:30+02:00</time>
      </trkpt>
      <trkpt lat="41.76076" lon="9.17525">
        <ele>719</ele>
        <time>2008-05-28T18:34:34+02:00</time>
      </trkpt>
      <trkpt lat="41.76073" lon="9.17521">
        <ele>719</ele>
        <time>2008-05-28T18:34:39+02:00</time>
      </trkpt>
      <trkpt lat="41.7607" lon="9.17525">
        <ele>719</ele>
        <time>2008-05-28T18:34:47+02:00</time>
      </trkpt>
      <trkpt lat="41.76071" lon="9.17524">
        <ele>719</ele>
        <time>2008-05-28T18:35:03+02:00</time>
      </trkpt>
      <trkpt lat="41.76069" lon="9.17522">
        <ele>719</ele>
        <time>2008-05-28T18:35:08+02:00</time>
      </trkpt>
      <trkpt lat="41.76065" lon="9.17517">
        <ele>719</ele>
        <time>2008-05-28T18:35:12+02:00</time>
      </trkpt>
      <trkpt lat="41.76051" lon="9.17514">
        <ele>720</ele>
        <time>2008-05-28T18:35:18+02:00</time>
      </trkpt>
      <trkpt lat="41.76034" lon="9.17504">
        <ele>720</ele>
        <time>2008-05-28T18:35:24+02:00</time>
      </trkpt>
      <trkpt lat="41.76013" lon="9.17489">
        <ele>716</ele>
        <time>2008-05-28T18:35:31+02:00</time>
      </trkpt>
      <trkpt lat="41.75991" lon="9.17484">
        <ele>719</ele>
        <time>2008-05-28T18:35:37+02:00</time>
      </trkpt>
      <trkpt lat="41.75967" lon="9.17481">
        <ele>718</ele>
        <time>2008-05-28T18:35:43+02:00</time>
      </trkpt>
      <trkpt lat="41.7594" lon="9.1748">
        <ele>719</ele>
        <time>2008-05-28T18:35:50+02:00</time>
      </trkpt>
      <trkpt lat="41.75918" lon="9.17478">
        <ele>720</ele>
        <time>2008-05-28T18:35:56+02:00</time>
      </trkpt>
      <trkpt lat="41.75895" lon="9.17477">
        <ele>723</ele>
        <time>2008-05-28T18:36:02+02:00</time>
      </trkpt>
      <trkpt lat="41.75877" lon="9.17479">
        <ele>724</ele>
        <time>2008-05-28T18:36:08+02:00</time>
      </trkpt>
      <trkpt lat="41.75857" lon="9.17492">
        <ele>725</ele>
        <time>2008-05-28T18:36:15+02:00</time>
      </trkpt>
      <trkpt lat="41.75843" lon="9.17515">
        <ele>729</ele>
        <time>2008-05-28T18:36:22+02:00</time>
      </trkpt>
      <trkpt lat="41.75838" lon="9.17539">
        <ele>730</ele>
        <time>2008-05-28T18:36:28+02:00</time>
      </trkpt>
      <trkpt lat="41.75831" lon="9.17566">
        <ele>736</ele>
        <time>2008-05-28T18:36:35+02:00</time>
      </trkpt>
      <trkpt lat="41.75821" lon="9.17583">
        <ele>736</ele>
        <time>2008-05-28T18:36:41+02:00</time>
      </trkpt>
      <trkpt lat="41.75807" lon="9.17589">
        <ele>743</ele>
        <time>2008-05-28T18:36:46+02:00</time>
      </trkpt>
      <trkpt lat="41.75794" lon="9.17586">
        <ele>744</ele>
        <time>2008-05-28T18:36:52+02:00</time>
      </trkpt>
      <trkpt lat="41.75791" lon="9.17583">
        <ele>738</ele>
        <time>2008-05-28T18:36:54+02:00</time>
      </trkpt>
      <trkpt lat="41.75781" lon="9.17574">
        <ele>739</ele>
        <time>2008-05-28T18:37:01+02:00</time>
      </trkpt>
      <trkpt lat="41.75765" lon="9.17559">
        <ele>739</ele>
        <time>2008-05-28T18:37:09+02:00</time>
      </trkpt>
      <trkpt lat="41.75754" lon="9.17549">
        <ele>739</ele>
        <time>2008-05-28T18:37:16+02:00</time>
      </trkpt>
      <trkpt lat="41.75742" lon="9.17538">
        <ele>748</ele>
        <time>2008-05-28T18:37:22+02:00</time>
      </trkpt>
      <trkpt lat="41.75726" lon="9.17525">
        <ele>748</ele>
        <time>2008-05-28T18:37:30+02:00</time>
      </trkpt>
      <trkpt lat="41.75715" lon="9.17509">
        <ele>748</ele>
        <time>2008-05-28T18:37:37+02:00</time>
      </trkpt>
      <trkpt lat="41.75707" lon="9.17493">
        <ele>744</ele>
        <time>2008-05-28T18:37:44+02:00</time>
      </trkpt>
      <trkpt lat="41.75698" lon="9.17473">
        <ele>745</ele>
        <time>2008-05-28T18:37:51+02:00</time>
      </trkpt>
      <trkpt lat="41.75691" lon="9.17453">
        <ele>744</ele>
        <time>2008-05-28T18:37:58+02:00</time>
      </trkpt>
      <trkpt lat="41.7568" lon="9.17435">
        <ele>745</ele>
        <time>2008-05-28T18:38:05+02:00</time>
      </trkpt>
      <trkpt lat="41.75671" lon="9.17421">
        <ele>745</ele>
        <time>2008-05-28T18:38:11+02:00</time>
      </trkpt>
      <trkpt lat="41.75656" lon="9.17403">
        <ele>751</ele>
        <time>2008-05-28T18:38:19+02:00</time>
      </trkpt>
      <trkpt lat="41.75648" lon="9.17387">
        <ele>752</ele>
        <time>2008-05-28T18:38:25+02:00</time>
      </trkpt>
      <trkpt lat="41.75645" lon="9.17369">
        <ele>752</ele>
        <time>2008-05-28T18:38:31+02:00</time>
      </trkpt>
      <trkpt lat="41.75639" lon="9.17355">
        <ele>752</ele>
        <time>2008-05-28T18:38:36+02:00</time>
      </trkpt>
      <trkpt lat="41.75628" lon="9.17336">
        <ele>753</ele>
        <time>2008-05-28T18:38:43+02:00</time>
      </trkpt>
      <trkpt lat="41.75618" lon="9.17327">
        <ele>749</ele>
        <time>2008-05-28T18:38:48+02:00</time>
      </trkpt>
      <trkpt lat="41.75601" lon="9.17315">
        <ele>750</ele>
        <time>2008-05-28T18:38:55+02:00</time>
      </trkpt>
      <trkpt lat="41.75586" lon="9.17304">
        <ele>750</ele>
        <time>2008-05-28T18:39:00+02:00</time>
      </trkpt>
      <trkpt lat="41.75568" lon="9.1729">
        <ele>756</ele>
        <time>2008-05-28T18:39:05+02:00</time>
      </trkpt>
      <trkpt lat="41.75559" lon="9.17287">
        <ele>756</ele>
        <time>2008-05-28T18:39:07+02:00</time>
      </trkpt>
      <trkpt lat="41.7553" lon="9.17278">
        <ele>757</ele>
        <time>2008-05-28T18:39:13+02:00</time>
      </trkpt>
      <trkpt lat="41.75522" lon="9.17276">
        <ele>757</ele>
        <time>2008-05-28T18:39:15+02:00</time>
      </trkpt>
      <trkpt lat="41.75509" lon="9.17269">
        <ele>757</ele>
        <time>2008-05-28T18:39:18+02:00</time>
      </trkpt>
      <trkpt lat="41.75496" lon="9.17258">
        <ele>759</ele>
        <time>2008-05-28T18:39:22+02:00</time>
      </trkpt>
      <trkpt lat="41.75481" lon="9.17232">
        <ele>755</ele>
        <time>2008-05-28T18:39:30+02:00</time>
      </trkpt>
      <trkpt lat="41.75469" lon="9.1721">
        <ele>755</ele>
        <time>2008-05-28T18:39:38+02:00</time>
      </trkpt>
      <trkpt lat="41.75454" lon="9.17195">
        <ele>755</ele>
        <time>2008-05-28T18:39:46+02:00</time>
      </trkpt>
      <trkpt lat="41.7544" lon="9.17193">
        <ele>755</ele>
        <time>2008-05-28T18:39:52+02:00</time>
      </trkpt>
      <trkpt lat="41.75423" lon="9.17202">
        <ele>757</ele>
        <time>2008-05-28T18:39:59+02:00</time>
      </trkpt>
      <trkpt lat="41.7541" lon="9.17216">
        <ele>764</ele>
        <time>2008-05-28T18:40:05+02:00</time>
      </trkpt>
      <trkpt lat="41.75399" lon="9.17226">
        <ele>765</ele>
        <time>2008-05-28T18:40:10+02:00</time>
      </trkpt>
      <trkpt lat="41.75387" lon="9.17232">
        <ele>766</ele>
        <time>2008-05-28T18:40:14+02:00</time>
      </trkpt>
      <trkpt lat="41.75367" lon="9.17236">
        <ele>767</ele>
        <time>2008-05-28T18:40:22+02:00</time>
      </trkpt>
      <trkpt lat="41.75355" lon="9.17237">
        <ele>768</ele>
        <time>2008-05-28T18:40:28+02:00</time>
      </trkpt>
      <trkpt lat="41.75337" lon="9.17227">
        <ele>768</ele>
        <time>2008-05-28T18:40:35+02:00</time>
      </trkpt>
      <trkpt lat="41.75326" lon="9.17219">
        <ele>771</ele>
        <time>2008-05-28T18:40:39+02:00</time>
      </trkpt>
      <trkpt lat="41.75306" lon="9.17203">
        <ele>769</ele>
        <time>2008-05-28T18:40:47+02:00</time>
      </trkpt>
      <trkpt lat="41.75285" lon="9.17188">
        <ele>769</ele>
        <time>2008-05-28T18:40:56+02:00</time>
      </trkpt>
      <trkpt lat="41.75266" lon="9.17185">
        <ele>768</ele>
        <time>2008-05-28T18:41:02+02:00</time>
      </trkpt>
      <trkpt lat="41.7525" lon="9.17187">
        <ele>768</ele>
        <time>2008-05-28T18:41:08+02:00</time>
      </trkpt>
      <trkpt lat="41.75234" lon="9.17195">
        <ele>773</ele>
        <time>2008-05-28T18:41:14+02:00</time>
      </trkpt>
      <trkpt lat="41.75211" lon="9.17204">
        <ele>775</ele>
        <time>2008-05-28T18:41:23+02:00</time>
      </trkpt>
      <trkpt lat="41.75187" lon="9.17204">
        <ele>776</ele>
        <time>2008-05-28T18:41:31+02:00</time>
      </trkpt>
      <trkpt lat="41.7516" lon="9.17199">
        <ele>778</ele>
        <time>2008-05-28T18:41:40+02:00</time>
      </trkpt>
      <trkpt lat="41.7514" lon="9.17194">
        <ele>779</ele>
        <time>2008-05-28T18:41:47+02:00</time>
      </trkpt>
      <trkpt lat="41.75115" lon="9.17188">
        <ele>780</ele>
        <time>2008-05-28T18:41:57+02:00</time>
      </trkpt>
      <trkpt lat="41.75102" lon="9.17178">
        <ele>780</ele>
        <time>2008-05-28T18:42:04+02:00</time>
      </trkpt>
      <trkpt lat="41.75095" lon="9.17173">
        <ele>779</ele>
        <time>2008-05-28T18:42:10+02:00</time>
      </trkpt>
      <trkpt lat="41.75094" lon="9.17173">
        <ele>779</ele>
        <time>2008-05-28T18:42:11+02:00</time>
      </trkpt>
      <trkpt lat="41.7509" lon="9.17168">
        <ele>779</ele>
        <time>2008-05-28T18:42:16+02:00</time>
      </trkpt>
      <trkpt lat="41.75092" lon="9.17164">
        <ele>774</ele>
        <time>2008-05-28T18:42:21+02:00</time>
      </trkpt>
      <trkpt lat="41.7509" lon="9.17164">
        <ele>775</ele>
        <time>2008-05-28T18:42:33+02:00</time>
      </trkpt>
      <trkpt lat="41.75089" lon="9.17165">
        <ele>775</ele>
        <time>2008-05-28T18:42:43+02:00</time>
      </trkpt>
      <trkpt lat="41.75088" lon="9.17167">
        <ele>779</ele>
        <time>2008-05-28T18:43:24+02:00</time>
      </trkpt>
      <trkpt lat="41.75089" lon="9.17164">
        <ele>775</ele>
        <time>2008-05-28T18:43:35+02:00</time>
      </trkpt>
      <trkpt lat="41.75085" lon="9.17161">
        <ele>775</ele>
        <time>2008-05-28T18:43:40+02:00</time>
      </trkpt>
      <trkpt lat="41.75083" lon="9.1716">
        <ele>775</ele>
        <time>2008-05-28T18:43:41+02:00</time>
      </trkpt>
      <trkpt lat="41.75079" lon="9.17154">
        <ele>777</ele>
        <time>2008-05-28T18:43:45+02:00</time>
      </trkpt>
      <trkpt lat="41.75071" lon="9.17143">
        <ele>776</ele>
        <time>2008-05-28T18:43:52+02:00</time>
      </trkpt>
      <trkpt lat="41.75059" lon="9.17131">
        <ele>775</ele>
        <time>2008-05-28T18:43:58+02:00</time>
      </trkpt>
      <trkpt lat="41.75045" lon="9.17115">
        <ele>774</ele>
        <time>2008-05-28T18:44:04+02:00</time>
      </trkpt>
      <trkpt lat="41.75035" lon="9.17105">
        <ele>774</ele>
        <time>2008-05-28T18:44:09+02:00</time>
      </trkpt>
      <trkpt lat="41.75019" lon="9.17093">
        <ele>775</ele>
        <time>2008-05-28T18:44:15+02:00</time>
      </trkpt>
      <trkpt lat="41.75004" lon="9.17074">
        <ele>770</ele>
        <time>2008-05-28T18:44:21+02:00</time>
      </trkpt>
      <trkpt lat="41.7499" lon="9.17046">
        <ele>770</ele>
        <time>2008-05-28T18:44:28+02:00</time>
      </trkpt>
      <trkpt lat="41.74981" lon="9.17021">
        <ele>767</ele>
        <time>2008-05-28T18:44:33+02:00</time>
      </trkpt>
      <trkpt lat="41.74979" lon="9.17016">
        <ele>767</ele>
        <time>2008-05-28T18:44:34+02:00</time>
      </trkpt>
      <trkpt lat="41.74961" lon="9.16995">
        <ele>759</ele>
        <time>2008-05-28T18:44:39+02:00</time>
      </trkpt>
      <trkpt lat="41.74956" lon="9.16991">
        <ele>759</ele>
        <time>2008-05-28T18:44:40+02:00</time>
      </trkpt>
      <trkpt lat="41.74929" lon="9.16974">
        <ele>759</ele>
        <time>2008-05-28T18:44:45+02:00</time>
      </trkpt>
      <trkpt lat="41.74908" lon="9.16976">
        <ele>756</ele>
        <time>2008-05-28T18:44:49+02:00</time>
      </trkpt>
      <trkpt lat="41.74893" lon="9.16991">
        <ele>757</ele>
        <time>2008-05-28T18:44:52+02:00</time>
      </trkpt>
      <trkpt lat="41.74872" lon="9.17008">
        <ele>762</ele>
        <time>2008-05-28T18:44:57+02:00</time>
      </trkpt>
      <trkpt lat="41.74866" lon="9.17012">
        <ele>762</ele>
        <time>2008-05-28T18:44:59+02:00</time>
      </trkpt>
      <trkpt lat="41.74863" lon="9.17015">
        <ele>762</ele>
        <time>2008-05-28T18:45:01+02:00</time>
      </trkpt>
      <trkpt lat="41.74856" lon="9.17014">
        <ele>761</ele>
        <time>2008-05-28T18:45:07+02:00</time>
      </trkpt>
      <trkpt lat="41.74855" lon="9.17018">
        <ele>761</ele>
        <time>2008-05-28T18:45:13+02:00</time>
      </trkpt>
      <trkpt lat="41.74854" lon="9.17021">
        <ele>761</ele>
        <time>2008-05-28T18:45:24+02:00</time>
      </trkpt>
      <trkpt lat="41.74853" lon="9.17022">
        <ele>761</ele>
        <time>2008-05-28T18:45:33+02:00</time>
      </trkpt>
      <trkpt lat="41.74852" lon="9.17022">
        <ele>761</ele>
        <time>2008-05-28T18:45:38+02:00</time>
      </trkpt>
      <trkpt lat="41.74847" lon="9.17025">
        <ele>761</ele>
        <time>2008-05-28T18:46:01+02:00</time>
      </trkpt>
      <trkpt lat="41.74844" lon="9.17026">
        <ele>761</ele>
        <time>2008-05-28T18:46:04+02:00</time>
      </trkpt>
      <trkpt lat="41.74841" lon="9.17032">
        <ele>761</ele>
        <time>2008-05-28T18:46:09+02:00</time>
      </trkpt>
      <trkpt lat="41.74842" lon="9.17034">
        <ele>762</ele>
        <time>2008-05-28T18:46:18+02:00</time>
      </trkpt>
      <trkpt lat="41.7484" lon="9.17036">
        <ele>762</ele>
        <time>2008-05-28T18:46:28+02:00</time>
      </trkpt>
      <trkpt lat="41.74839" lon="9.17037">
        <ele>762</ele>
        <time>2008-05-28T18:46:35+02:00</time>
      </trkpt>
      <trkpt lat="41.74838" lon="9.17038">
        <ele>762</ele>
        <time>2008-05-28T18:46:42+02:00</time>
      </trkpt>
      <trkpt lat="41.74833" lon="9.1704">
        <ele>760</ele>
        <time>2008-05-28T18:46:48+02:00</time>
      </trkpt>
      <trkpt lat="41.74834" lon="9.17043">
        <ele>763</ele>
        <time>2008-05-28T18:46:53+02:00</time>
      </trkpt>
      <trkpt lat="41.74833" lon="9.1704">
        <ele>762</ele>
        <time>2008-05-28T18:47:04+02:00</time>
      </trkpt>
      <trkpt lat="41.74833" lon="9.17038">
        <ele>759</ele>
        <time>2008-05-28T18:47:05+02:00</time>
      </trkpt>
      <trkpt lat="41.74833" lon="9.17034">
        <ele>759</ele>
        <time>2008-05-28T18:47:12+02:00</time>
      </trkpt>
      <trkpt lat="41.74869" lon="9.17016">
        <ele>762</ele>
        <time>2008-05-29T09:51:53+02:00</time>
      </trkpt>
      <trkpt lat="41.7487" lon="9.17015">
        <ele>762</ele>
        <time>2008-05-29T09:51:54+02:00</time>
      </trkpt>
      <trkpt lat="41.74882" lon="9.17009">
        <ele>763</ele>
        <time>2008-05-29T09:52:01+02:00</time>
      </trkpt>
      <trkpt lat="41.74892" lon="9.17003">
        <ele>764</ele>
        <time>2008-05-29T09:52:07+02:00</time>
      </trkpt>
      <trkpt lat="41.74902" lon="9.16992">
        <ele>759</ele>
        <time>2008-05-29T09:52:14+02:00</time>
      </trkpt>
      <trkpt lat="41.74906" lon="9.16987">
        <ele>759</ele>
        <time>2008-05-29T09:52:17+02:00</time>
      </trkpt>
      <trkpt lat="41.74916" lon="9.16977">
        <ele>757</ele>
        <time>2008-05-29T09:52:24+02:00</time>
      </trkpt>
      <trkpt lat="41.74918" lon="9.16977">
        <ele>759</ele>
        <time>2008-05-29T09:52:25+02:00</time>
      </trkpt>
      <trkpt lat="41.74933" lon="9.16977">
        <ele>759</ele>
        <time>2008-05-29T09:52:33+02:00</time>
      </trkpt>
      <trkpt lat="41.74946" lon="9.16985">
        <ele>759</ele>
        <time>2008-05-29T09:52:41+02:00</time>
      </trkpt>
      <trkpt lat="41.74961" lon="9.16994">
        <ele>759</ele>
        <time>2008-05-29T09:52:50+02:00</time>
      </trkpt>
      <trkpt lat="41.74972" lon="9.17005">
        <ele>767</ele>
        <time>2008-05-29T09:52:58+02:00</time>
      </trkpt>
      <trkpt lat="41.74981" lon="9.17019">
        <ele>767</ele>
        <time>2008-05-29T09:53:06+02:00</time>
      </trkpt>
      <trkpt lat="41.74988" lon="9.17039">
        <ele>769</ele>
        <time>2008-05-29T09:53:15+02:00</time>
      </trkpt>
      <trkpt lat="41.74994" lon="9.17054">
        <ele>771</ele>
        <time>2008-05-29T09:53:22+02:00</time>
      </trkpt>
      <trkpt lat="41.75004" lon="9.17073">
        <ele>770</ele>
        <time>2008-05-29T09:53:30+02:00</time>
      </trkpt>
      <trkpt lat="41.75014" lon="9.17089">
        <ele>775</ele>
        <time>2008-05-29T09:53:37+02:00</time>
      </trkpt>
      <trkpt lat="41.75028" lon="9.17101">
        <ele>774</ele>
        <time>2008-05-29T09:53:44+02:00</time>
      </trkpt>
      <trkpt lat="41.7504" lon="9.17112">
        <ele>774</ele>
        <time>2008-05-29T09:53:50+02:00</time>
      </trkpt>
      <trkpt lat="41.7505" lon="9.17122">
        <ele>774</ele>
        <time>2008-05-29T09:53:56+02:00</time>
      </trkpt>
      <trkpt lat="41.7506" lon="9.17129">
        <ele>774</ele>
        <time>2008-05-29T09:54:02+02:00</time>
      </trkpt>
      <trkpt lat="41.75065" lon="9.17134">
        <ele>775</ele>
        <time>2008-05-29T09:54:07+02:00</time>
      </trkpt>
      <trkpt lat="41.75062" lon="9.17132">
        <ele>775</ele>
        <time>2008-05-29T09:54:13+02:00</time>
      </trkpt>
      <trkpt lat="41.75062" lon="9.17131">
        <ele>774</ele>
        <time>2008-05-29T09:54:17+02:00</time>
      </trkpt>
      <trkpt lat="41.75063" lon="9.17127">
        <ele>774</ele>
        <time>2008-05-29T09:54:47+02:00</time>
      </trkpt>
      <trkpt lat="41.75064" lon="9.1713">
        <ele>774</ele>
        <time>2008-05-29T09:55:00+02:00</time>
      </trkpt>
      <trkpt lat="41.75064" lon="9.17133">
        <ele>775</ele>
        <time>2008-05-29T09:55:06+02:00</time>
      </trkpt>
      <trkpt lat="41.75063" lon="9.17131">
        <ele>774</ele>
        <time>2008-05-29T09:55:17+02:00</time>
      </trkpt>
      <trkpt lat="41.75063" lon="9.17132">
        <ele>775</ele>
        <time>2008-05-29T09:55:39+02:00</time>
      </trkpt>
      <trkpt lat="41.75061" lon="9.1713">
        <ele>774</ele>
        <time>2008-05-29T09:56:58+02:00</time>
      </trkpt>
      <trkpt lat="41.7506" lon="9.17128">
        <ele>774</ele>
        <time>2008-05-29T09:57:03+02:00</time>
      </trkpt>
      <trkpt lat="41.75062" lon="9.17126">
        <ele>774</ele>
        <time>2008-05-29T09:57:12+02:00</time>
      </trkpt>
      <trkpt lat="41.75065" lon="9.17135">
        <ele>775</ele>
        <time>2008-05-29T09:58:34+02:00</time>
      </trkpt>
      <trkpt lat="41.75066" lon="9.17139">
        <ele>775</ele>
        <time>2008-05-29T09:58:49+02:00</time>
      </trkpt>
      <trkpt lat="41.75067" lon="9.1714">
        <ele>775</ele>
        <time>2008-05-29T09:58:55+02:00</time>
      </trkpt>
      <trkpt lat="41.75067" lon="9.17141">
        <ele>775</ele>
        <time>2008-05-29T09:59:11+02:00</time>
      </trkpt>
      <trkpt lat="41.75067" lon="9.17141">
        <ele>775</ele>
        <time>2008-05-29T09:59:24+02:00</time>
      </trkpt>
      <trkpt lat="41.75069" lon="9.17139">
        <ele>775</ele>
        <time>2008-05-29T09:59:53+02:00</time>
      </trkpt>
      <trkpt lat="41.75069" lon="9.17139">
        <ele>775</ele>
        <time>2008-05-29T10:00:05+02:00</time>
      </trkpt>
      <trkpt lat="41.75072" lon="9.1714">
        <ele>775</ele>
        <time>2008-05-29T10:00:15+02:00</time>
      </trkpt>
      <trkpt lat="41.75074" lon="9.17143">
        <ele>775</ele>
        <time>2008-05-29T10:00:21+02:00</time>
      </trkpt>
      <trkpt lat="41.7508" lon="9.1715">
        <ele>776</ele>
        <time>2008-05-29T10:00:26+02:00</time>
      </trkpt>
      <trkpt lat="41.75084" lon="9.17164">
        <ele>776</ele>
        <time>2008-05-29T10:00:33+02:00</time>
      </trkpt>
      <trkpt lat="41.75085" lon="9.17168">
        <ele>778</ele>
        <time>2008-05-29T10:00:36+02:00</time>
      </trkpt>
      <trkpt lat="41.75085" lon="9.1717">
        <ele>778</ele>
        <time>2008-05-29T10:00:39+02:00</time>
      </trkpt>
      <trkpt lat="41.75087" lon="9.17174">
        <ele>779</ele>
        <time>2008-05-29T10:00:40+02:00</time>
      </trkpt>
      <trkpt lat="41.75088" lon="9.17177">
        <ele>779</ele>
        <time>2008-05-29T10:00:42+02:00</time>
      </trkpt>
      <trkpt lat="41.75095" lon="9.17183">
        <ele>780</ele>
        <time>2008-05-29T10:00:47+02:00</time>
      </trkpt>
      <trkpt lat="41.75102" lon="9.17192">
        <ele>781</ele>
        <time>2008-05-29T10:00:52+02:00</time>
      </trkpt>
      <trkpt lat="41.75116" lon="9.17206">
        <ele>782</ele>
        <time>2008-05-29T10:01:01+02:00</time>
      </trkpt>
      <trkpt lat="41.7513" lon="9.17215">
        <ele>782</ele>
        <time>2008-05-29T10:01:09+02:00</time>
      </trkpt>
      <trkpt lat="41.75141" lon="9.1722">
        <ele>782</ele>
        <time>2008-05-29T10:01:16+02:00</time>
      </trkpt>
      <trkpt lat="41.75153" lon="9.17223">
        <ele>782</ele>
        <time>2008-05-29T10:01:23+02:00</time>
      </trkpt>
      <trkpt lat="41.75168" lon="9.17231">
        <ele>781</ele>
        <time>2008-05-29T10:01:32+02:00</time>
      </trkpt>
      <trkpt lat="41.75186" lon="9.17237">
        <ele>780</ele>
        <time>2008-05-29T10:01:42+02:00</time>
      </trkpt>
      <trkpt lat="41.75188" lon="9.17237">
        <ele>780</ele>
        <time>2008-05-29T10:01:43+02:00</time>
      </trkpt>
      <trkpt lat="41.75199" lon="9.17244">
        <ele>780</ele>
        <time>2008-05-29T10:01:50+02:00</time>
      </trkpt>
      <trkpt lat="41.75214" lon="9.1725">
        <ele>793</ele>
        <time>2008-05-29T10:01:58+02:00</time>
      </trkpt>
      <trkpt lat="41.75228" lon="9.1726">
        <ele>793</ele>
        <time>2008-05-29T10:02:06+02:00</time>
      </trkpt>
      <trkpt lat="41.75241" lon="9.17272">
        <ele>794</ele>
        <time>2008-05-29T10:02:14+02:00</time>
      </trkpt>
      <trkpt lat="41.75251" lon="9.17281">
        <ele>793</ele>
        <time>2008-05-29T10:02:20+02:00</time>
      </trkpt>
      <trkpt lat="41.75264" lon="9.17292">
        <ele>795</ele>
        <time>2008-05-29T10:02:28+02:00</time>
      </trkpt>
      <trkpt lat="41.75274" lon="9.17298">
        <ele>796</ele>
        <time>2008-05-29T10:02:34+02:00</time>
      </trkpt>
      <trkpt lat="41.75287" lon="9.173">
        <ele>795</ele>
        <time>2008-05-29T10:02:40+02:00</time>
      </trkpt>
      <trkpt lat="41.75299" lon="9.17309">
        <ele>796</ele>
        <time>2008-05-29T10:02:46+02:00</time>
      </trkpt>
      <trkpt lat="41.75319" lon="9.17318">
        <ele>797</ele>
        <time>2008-05-29T10:02:56+02:00</time>
      </trkpt>
      <trkpt lat="41.75333" lon="9.1733">
        <ele>801</ele>
        <time>2008-05-29T10:03:03+02:00</time>
      </trkpt>
      <trkpt lat="41.75352" lon="9.17346">
        <ele>805</ele>
        <time>2008-05-29T10:03:12+02:00</time>
      </trkpt>
      <trkpt lat="41.75366" lon="9.17357">
        <ele>806</ele>
        <time>2008-05-29T10:03:19+02:00</time>
      </trkpt>
      <trkpt lat="41.7538" lon="9.17367">
        <ele>806</ele>
        <time>2008-05-29T10:03:26+02:00</time>
      </trkpt>
      <trkpt lat="41.7539" lon="9.17374">
        <ele>806</ele>
        <time>2008-05-29T10:03:31+02:00</time>
      </trkpt>
      <trkpt lat="41.75404" lon="9.17385">
        <ele>807</ele>
        <time>2008-05-29T10:03:39+02:00</time>
      </trkpt>
      <trkpt lat="41.75414" lon="9.17392">
        <ele>808</ele>
        <time>2008-05-29T10:03:45+02:00</time>
      </trkpt>
      <trkpt lat="41.75423" lon="9.17397">
        <ele>800</ele>
        <time>2008-05-29T10:03:50+02:00</time>
      </trkpt>
      <trkpt lat="41.75434" lon="9.17415">
        <ele>801</ele>
        <time>2008-05-29T10:03:57+02:00</time>
      </trkpt>
      <trkpt lat="41.75443" lon="9.17423">
        <ele>810</ele>
        <time>2008-05-29T10:04:02+02:00</time>
      </trkpt>
      <trkpt lat="41.75454" lon="9.17433">
        <ele>809</ele>
        <time>2008-05-29T10:04:08+02:00</time>
      </trkpt>
      <trkpt lat="41.75464" lon="9.1745">
        <ele>809</ele>
        <time>2008-05-29T10:04:14+02:00</time>
      </trkpt>
      <trkpt lat="41.75473" lon="9.17469">
        <ele>810</ele>
        <time>2008-05-29T10:04:21+02:00</time>
      </trkpt>
      <trkpt lat="41.75481" lon="9.17492">
        <ele>810</ele>
        <time>2008-05-29T10:04:29+02:00</time>
      </trkpt>
      <trkpt lat="41.75487" lon="9.17518">
        <ele>815</ele>
        <time>2008-05-29T10:04:38+02:00</time>
      </trkpt>
      <trkpt lat="41.75487" lon="9.17534">
        <ele>816</ele>
        <time>2008-05-29T10:04:44+02:00</time>
      </trkpt>
      <trkpt lat="41.75485" lon="9.1755">
        <ele>816</ele>
        <time>2008-05-29T10:04:50+02:00</time>
      </trkpt>
      <trkpt lat="41.75475" lon="9.17568">
        <ele>817</ele>
        <time>2008-05-29T10:04:57+02:00</time>
      </trkpt>
      <trkpt lat="41.7546" lon="9.17584">
        <ele>818</ele>
        <time>2008-05-29T10:05:05+02:00</time>
      </trkpt>
      <trkpt lat="41.75445" lon="9.17599">
        <ele>820</ele>
        <time>2008-05-29T10:05:13+02:00</time>
      </trkpt>
      <trkpt lat="41.75431" lon="9.17612">
        <ele>821</ele>
        <time>2008-05-29T10:05:20+02:00</time>
      </trkpt>
      <trkpt lat="41.75416" lon="9.17625">
        <ele>830</ele>
        <time>2008-05-29T10:05:28+02:00</time>
      </trkpt>
      <trkpt lat="41.75401" lon="9.17639">
        <ele>829</ele>
        <time>2008-05-29T10:05:36+02:00</time>
      </trkpt>
      <trkpt lat="41.75389" lon="9.17651">
        <ele>829</ele>
        <time>2008-05-29T10:05:43+02:00</time>
      </trkpt>
      <trkpt lat="41.75375" lon="9.17664">
        <ele>830</ele>
        <time>2008-05-29T10:05:50+02:00</time>
      </trkpt>
      <trkpt lat="41.75364" lon="9.17676">
        <ele>829</ele>
        <time>2008-05-29T10:05:56+02:00</time>
      </trkpt>
      <trkpt lat="41.7535" lon="9.17696">
        <ele>830</ele>
        <time>2008-05-29T10:06:03+02:00</time>
      </trkpt>
      <trkpt lat="41.75363" lon="9.17764">
        <ele>836</ele>
        <time>2008-05-29T10:06:20+02:00</time>
      </trkpt>
      <trkpt lat="41.75379" lon="9.17775">
        <ele>836</ele>
        <time>2008-05-29T10:06:26+02:00</time>
      </trkpt>
      <trkpt lat="41.75421" lon="9.17788">
        <ele>833</ele>
        <time>2008-05-29T10:06:40+02:00</time>
      </trkpt>
      <trkpt lat="41.75441" lon="9.17795">
        <ele>833</ele>
        <time>2008-05-29T10:06:48+02:00</time>
      </trkpt>
      <trkpt lat="41.75461" lon="9.17803">
        <ele>833</ele>
        <time>2008-05-29T10:06:57+02:00</time>
      </trkpt>
      <trkpt lat="41.75474" lon="9.17816">
        <ele>834</ele>
        <time>2008-05-29T10:07:03+02:00</time>
      </trkpt>
      <trkpt lat="41.7549" lon="9.17828">
        <ele>837</ele>
        <time>2008-05-29T10:07:10+02:00</time>
      </trkpt>
      <trkpt lat="41.75505" lon="9.17839">
        <ele>840</ele>
        <time>2008-05-29T10:07:16+02:00</time>
      </trkpt>
      <trkpt lat="41.7552" lon="9.17848">
        <ele>842</ele>
        <time>2008-05-29T10:07:22+02:00</time>
      </trkpt>
      <trkpt lat="41.75541" lon="9.17861">
        <ele>841</ele>
        <time>2008-05-29T10:07:30+02:00</time>
      </trkpt>
      <trkpt lat="41.75555" lon="9.17873">
        <ele>841</ele>
        <time>2008-05-29T10:07:36+02:00</time>
      </trkpt>
      <trkpt lat="41.7557" lon="9.17891">
        <ele>842</ele>
        <time>2008-05-29T10:07:42+02:00</time>
      </trkpt>
      <trkpt lat="41.75581" lon="9.17904">
        <ele>843</ele>
        <time>2008-05-29T10:07:47+02:00</time>
      </trkpt>
      <trkpt lat="41.75594" lon="9.17929">
        <ele>842</ele>
        <time>2008-05-29T10:07:55+02:00</time>
      </trkpt>
      <trkpt lat="41.75605" lon="9.17956">
        <ele>843</ele>
        <time>2008-05-29T10:08:03+02:00</time>
      </trkpt>
      <trkpt lat="41.75614" lon="9.17979">
        <ele>845</ele>
        <time>2008-05-29T10:08:10+02:00</time>
      </trkpt>
      <trkpt lat="41.75625" lon="9.18">
        <ele>853</ele>
        <time>2008-05-29T10:08:17+02:00</time>
      </trkpt>
      <trkpt lat="41.75636" lon="9.18021">
        <ele>852</ele>
        <time>2008-05-29T10:08:24+02:00</time>
      </trkpt>
      <trkpt lat="41.75646" lon="9.18034">
        <ele>852</ele>
        <time>2008-05-29T10:08:29+02:00</time>
      </trkpt>
      <trkpt lat="41.75659" lon="9.18054">
        <ele>853</ele>
        <time>2008-05-29T10:08:36+02:00</time>
      </trkpt>
      <trkpt lat="41.75674" lon="9.18075">
        <ele>849</ele>
        <time>2008-05-29T10:08:44+02:00</time>
      </trkpt>
      <trkpt lat="41.75684" lon="9.18091">
        <ele>851</ele>
        <time>2008-05-29T10:08:50+02:00</time>
      </trkpt>
      <trkpt lat="41.75701" lon="9.18121">
        <ele>849</ele>
        <time>2008-05-29T10:08:59+02:00</time>
      </trkpt>
      <trkpt lat="41.75717" lon="9.18146">
        <ele>849</ele>
        <time>2008-05-29T10:09:06+02:00</time>
      </trkpt>
      <trkpt lat="41.75732" lon="9.18162">
        <ele>848</ele>
        <time>2008-05-29T10:09:11+02:00</time>
      </trkpt>
      <trkpt lat="41.75752" lon="9.18184">
        <ele>846</ele>
        <time>2008-05-29T10:09:16+02:00</time>
      </trkpt>
      <trkpt lat="41.75788" lon="9.1822">
        <ele>845</ele>
        <time>2008-05-29T10:09:23+02:00</time>
      </trkpt>
      <trkpt lat="41.75818" lon="9.18262">
        <ele>842</ele>
        <time>2008-05-29T10:09:29+02:00</time>
      </trkpt>
      <trkpt lat="41.75843" lon="9.18298">
        <ele>844</ele>
        <time>2008-05-29T10:09:34+02:00</time>
      </trkpt>
      <trkpt lat="41.75882" lon="9.18329">
        <ele>844</ele>
        <time>2008-05-29T10:09:40+02:00</time>
      </trkpt>
      <trkpt lat="41.75919" lon="9.18351">
        <ele>839</ele>
        <time>2008-05-29T10:09:45+02:00</time>
      </trkpt>
      <trkpt lat="41.75943" lon="9.18383">
        <ele>836</ele>
        <time>2008-05-29T10:09:49+02:00</time>
      </trkpt>
      <trkpt lat="41.75946" lon="9.18417">
        <ele>831</ele>
        <time>2008-05-29T10:09:52+02:00</time>
      </trkpt>
      <trkpt lat="41.75934" lon="9.1845">
        <ele>830</ele>
        <time>2008-05-29T10:09:55+02:00</time>
      </trkpt>
      <trkpt lat="41.75924" lon="9.1847">
        <ele>830</ele>
        <time>2008-05-29T10:09:57+02:00</time>
      </trkpt>
      <trkpt lat="41.75889" lon="9.18534">
        <ele>829</ele>
        <time>2008-05-29T10:10:04+02:00</time>
      </trkpt>
      <trkpt lat="41.75885" lon="9.18544">
        <ele>828</ele>
        <time>2008-05-29T10:10:05+02:00</time>
      </trkpt>
      <trkpt lat="41.7588" lon="9.18585">
        <ele>828</ele>
        <time>2008-05-29T10:10:09+02:00</time>
      </trkpt>
      <trkpt lat="41.75891" lon="9.18644">
        <ele>829</ele>
        <time>2008-05-29T10:10:16+02:00</time>
      </trkpt>
      <trkpt lat="41.75903" lon="9.18675">
        <ele>831</ele>
        <time>2008-05-29T10:10:21+02:00</time>
      </trkpt>
      <trkpt lat="41.7591" lon="9.18688">
        <ele>831</ele>
        <time>2008-05-29T10:10:24+02:00</time>
      </trkpt>
      <trkpt lat="41.75916" lon="9.18698">
        <ele>832</ele>
        <time>2008-05-29T10:10:27+02:00</time>
      </trkpt>
      <trkpt lat="41.75936" lon="9.18726">
        <ele>835</ele>
        <time>2008-05-29T10:10:36+02:00</time>
      </trkpt>
      <trkpt lat="41.75954" lon="9.18755">
        <ele>839</ele>
        <time>2008-05-29T10:10:46+02:00</time>
      </trkpt>
      <trkpt lat="41.75971" lon="9.18788">
        <ele>840</ele>
        <time>2008-05-29T10:10:57+02:00</time>
      </trkpt>
      <trkpt lat="41.7598" lon="9.18807">
        <ele>840</ele>
        <time>2008-05-29T10:11:04+02:00</time>
      </trkpt>
      <trkpt lat="41.75996" lon="9.18825">
        <ele>841</ele>
        <time>2008-05-29T10:11:12+02:00</time>
      </trkpt>
      <trkpt lat="41.7601" lon="9.18834">
        <ele>844</ele>
        <time>2008-05-29T10:11:18+02:00</time>
      </trkpt>
      <trkpt lat="41.76029" lon="9.18839">
        <ele>846</ele>
        <time>2008-05-29T10:11:26+02:00</time>
      </trkpt>
      <trkpt lat="41.76049" lon="9.1884">
        <ele>847</ele>
        <time>2008-05-29T10:11:34+02:00</time>
      </trkpt>
      <trkpt lat="41.7607" lon="9.18842">
        <ele>848</ele>
        <time>2008-05-29T10:11:42+02:00</time>
      </trkpt>
      <trkpt lat="41.76085" lon="9.18844">
        <ele>850</ele>
        <time>2008-05-29T10:11:48+02:00</time>
      </trkpt>
      <trkpt lat="41.761" lon="9.18844">
        <ele>851</ele>
        <time>2008-05-29T10:11:53+02:00</time>
      </trkpt>
      <trkpt lat="41.76116" lon="9.18839">
        <ele>852</ele>
        <time>2008-05-29T10:12:00+02:00</time>
      </trkpt>
      <trkpt lat="41.76129" lon="9.18852">
        <ele>853</ele>
        <time>2008-05-29T10:12:07+02:00</time>
      </trkpt>
      <trkpt lat="41.76145" lon="9.1886">
        <ele>853</ele>
        <time>2008-05-29T10:12:14+02:00</time>
      </trkpt>
      <trkpt lat="41.76195" lon="9.18883">
        <ele>857</ele>
        <time>2008-05-29T10:12:35+02:00</time>
      </trkpt>
      <trkpt lat="41.76213" lon="9.18894">
        <ele>858</ele>
        <time>2008-05-29T10:12:43+02:00</time>
      </trkpt>
      <trkpt lat="41.7623" lon="9.18904">
        <ele>859</ele>
        <time>2008-05-29T10:12:51+02:00</time>
      </trkpt>
      <trkpt lat="41.76243" lon="9.18928">
        <ele>866</ele>
        <time>2008-05-29T10:13:00+02:00</time>
      </trkpt>
      <trkpt lat="41.76258" lon="9.18942">
        <ele>867</ele>
        <time>2008-05-29T10:13:08+02:00</time>
      </trkpt>
      <trkpt lat="41.76278" lon="9.18954">
        <ele>869</ele>
        <time>2008-05-29T10:13:16+02:00</time>
      </trkpt>
      <trkpt lat="41.76296" lon="9.18959">
        <ele>869</ele>
        <time>2008-05-29T10:13:23+02:00</time>
      </trkpt>
      <trkpt lat="41.76314" lon="9.1897">
        <ele>871</ele>
        <time>2008-05-29T10:13:31+02:00</time>
      </trkpt>
      <trkpt lat="41.76329" lon="9.18979">
        <ele>872</ele>
        <time>2008-05-29T10:13:37+02:00</time>
      </trkpt>
      <trkpt lat="41.76346" lon="9.18988">
        <ele>873</ele>
        <time>2008-05-29T10:13:44+02:00</time>
      </trkpt>
      <trkpt lat="41.76363" lon="9.18995">
        <ele>871</ele>
        <time>2008-05-29T10:13:51+02:00</time>
      </trkpt>
      <trkpt lat="41.76382" lon="9.19">
        <ele>870</ele>
        <time>2008-05-29T10:13:58+02:00</time>
      </trkpt>
      <trkpt lat="41.76401" lon="9.19006">
        <ele>878</ele>
        <time>2008-05-29T10:14:05+02:00</time>
      </trkpt>
      <trkpt lat="41.7642" lon="9.19017">
        <ele>877</ele>
        <time>2008-05-29T10:14:13+02:00</time>
      </trkpt>
      <trkpt lat="41.7644" lon="9.19021">
        <ele>878</ele>
        <time>2008-05-29T10:14:21+02:00</time>
      </trkpt>
      <trkpt lat="41.76457" lon="9.19023">
        <ele>879</ele>
        <time>2008-05-29T10:14:28+02:00</time>
      </trkpt>
      <trkpt lat="41.76478" lon="9.19024">
        <ele>878</ele>
        <time>2008-05-29T10:14:36+02:00</time>
      </trkpt>
      <trkpt lat="41.76496" lon="9.19036">
        <ele>879</ele>
        <time>2008-05-29T10:14:44+02:00</time>
      </trkpt>
      <trkpt lat="41.7651" lon="9.19053">
        <ele>877</ele>
        <time>2008-05-29T10:14:51+02:00</time>
      </trkpt>
      <trkpt lat="41.76522" lon="9.19081">
        <ele>879</ele>
        <time>2008-05-29T10:15:00+02:00</time>
      </trkpt>
      <trkpt lat="41.76525" lon="9.19111">
        <ele>883</ele>
        <time>2008-05-29T10:15:09+02:00</time>
      </trkpt>
      <trkpt lat="41.76526" lon="9.19139">
        <ele>885</ele>
        <time>2008-05-29T10:15:17+02:00</time>
      </trkpt>
      <trkpt lat="41.76527" lon="9.19163">
        <ele>886</ele>
        <time>2008-05-29T10:15:24+02:00</time>
      </trkpt>
      <trkpt lat="41.76528" lon="9.19191">
        <ele>886</ele>
        <time>2008-05-29T10:15:32+02:00</time>
      </trkpt>
      <trkpt lat="41.76529" lon="9.19219">
        <ele>886</ele>
        <time>2008-05-29T10:15:40+02:00</time>
      </trkpt>
      <trkpt lat="41.76525" lon="9.19237">
        <ele>887</ele>
        <time>2008-05-29T10:15:46+02:00</time>
      </trkpt>
      <trkpt lat="41.76513" lon="9.19254">
        <ele>889</ele>
        <time>2008-05-29T10:15:53+02:00</time>
      </trkpt>
      <trkpt lat="41.76495" lon="9.19277">
        <ele>896</ele>
        <time>2008-05-29T10:16:02+02:00</time>
      </trkpt>
      <trkpt lat="41.76481" lon="9.19298">
        <ele>896</ele>
        <time>2008-05-29T10:16:10+02:00</time>
      </trkpt>
      <trkpt lat="41.76467" lon="9.19322">
        <ele>896</ele>
        <time>2008-05-29T10:16:18+02:00</time>
      </trkpt>
      <trkpt lat="41.76455" lon="9.19349">
        <ele>895</ele>
        <time>2008-05-29T10:16:27+02:00</time>
      </trkpt>
      <trkpt lat="41.76446" lon="9.19376">
        <ele>896</ele>
        <time>2008-05-29T10:16:35+02:00</time>
      </trkpt>
      <trkpt lat="41.76442" lon="9.194">
        <ele>897</ele>
        <time>2008-05-29T10:16:43+02:00</time>
      </trkpt>
      <trkpt lat="41.76441" lon="9.19415">
        <ele>898</ele>
        <time>2008-05-29T10:16:48+02:00</time>
      </trkpt>
      <trkpt lat="41.76443" lon="9.19438">
        <ele>901</ele>
        <time>2008-05-29T10:16:55+02:00</time>
      </trkpt>
      <trkpt lat="41.76447" lon="9.19461">
        <ele>902</ele>
        <time>2008-05-29T10:17:02+02:00</time>
      </trkpt>
      <trkpt lat="41.76455" lon="9.1949">
        <ele>903</ele>
        <time>2008-05-29T10:17:11+02:00</time>
      </trkpt>
      <trkpt lat="41.76465" lon="9.19517">
        <ele>910</ele>
        <time>2008-05-29T10:17:19+02:00</time>
      </trkpt>
      <trkpt lat="41.76473" lon="9.19545">
        <ele>912</ele>
        <time>2008-05-29T10:17:27+02:00</time>
      </trkpt>
      <trkpt lat="41.76488" lon="9.19573">
        <ele>911</ele>
        <time>2008-05-29T10:17:36+02:00</time>
      </trkpt>
      <trkpt lat="41.76501" lon="9.19597">
        <ele>907</ele>
        <time>2008-05-29T10:17:44+02:00</time>
      </trkpt>
      <trkpt lat="41.76513" lon="9.19618">
        <ele>906</ele>
        <time>2008-05-29T10:17:51+02:00</time>
      </trkpt>
      <trkpt lat="41.76523" lon="9.19645">
        <ele>908</ele>
        <time>2008-05-29T10:17:59+02:00</time>
      </trkpt>
      <trkpt lat="41.76525" lon="9.19675">
        <ele>916</ele>
        <time>2008-05-29T10:18:07+02:00</time>
      </trkpt>
      <trkpt lat="41.76529" lon="9.19704">
        <ele>915</ele>
        <time>2008-05-29T10:18:15+02:00</time>
      </trkpt>
      <trkpt lat="41.76537" lon="9.1973">
        <ele>914</ele>
        <time>2008-05-29T10:18:22+02:00</time>
      </trkpt>
      <trkpt lat="41.76547" lon="9.19758">
        <ele>917</ele>
        <time>2008-05-29T10:18:30+02:00</time>
      </trkpt>
      <trkpt lat="41.76555" lon="9.19786">
        <ele>917</ele>
        <time>2008-05-29T10:18:38+02:00</time>
      </trkpt>
      <trkpt lat="41.76561" lon="9.19819">
        <ele>918</ele>
        <time>2008-05-29T10:18:47+02:00</time>
      </trkpt>
      <trkpt lat="41.76562" lon="9.19849">
        <ele>921</ele>
        <time>2008-05-29T10:18:55+02:00</time>
      </trkpt>
      <trkpt lat="41.76561" lon="9.1987">
        <ele>923</ele>
        <time>2008-05-29T10:19:01+02:00</time>
      </trkpt>
      <trkpt lat="41.76557" lon="9.19898">
        <ele>924</ele>
        <time>2008-05-29T10:19:09+02:00</time>
      </trkpt>
      <trkpt lat="41.76553" lon="9.19915">
        <ele>924</ele>
        <time>2008-05-29T10:19:14+02:00</time>
      </trkpt>
      <trkpt lat="41.76551" lon="9.19935">
        <ele>926</ele>
        <time>2008-05-29T10:19:19+02:00</time>
      </trkpt>
      <trkpt lat="41.76545" lon="9.19958">
        <ele>927</ele>
        <time>2008-05-29T10:19:25+02:00</time>
      </trkpt>
      <trkpt lat="41.76542" lon="9.19976">
        <ele>927</ele>
        <time>2008-05-29T10:19:29+02:00</time>
      </trkpt>
      <trkpt lat="41.7653" lon="9.20008">
        <ele>928</ele>
        <time>2008-05-29T10:19:35+02:00</time>
      </trkpt>
      <trkpt lat="41.76521" lon="9.20032">
        <ele>927</ele>
        <time>2008-05-29T10:19:41+02:00</time>
      </trkpt>
      <trkpt lat="41.76524" lon="9.20052">
        <ele>928</ele>
        <time>2008-05-29T10:19:45+02:00</time>
      </trkpt>
      <trkpt lat="41.76527" lon="9.20084">
        <ele>926</ele>
        <time>2008-05-29T10:19:51+02:00</time>
      </trkpt>
      <trkpt lat="41.76529" lon="9.20097">
        <ele>926</ele>
        <time>2008-05-29T10:19:54+02:00</time>
      </trkpt>
      <trkpt lat="41.76544" lon="9.20127">
        <ele>927</ele>
        <time>2008-05-29T10:20:01+02:00</time>
      </trkpt>
      <trkpt lat="41.76552" lon="9.20151">
        <ele>927</ele>
        <time>2008-05-29T10:20:06+02:00</time>
      </trkpt>
      <trkpt lat="41.76555" lon="9.20156">
        <ele>928</ele>
        <time>2008-05-29T10:20:07+02:00</time>
      </trkpt>
      <trkpt lat="41.76564" lon="9.2017">
        <ele>925</ele>
        <time>2008-05-29T10:20:10+02:00</time>
      </trkpt>
      <trkpt lat="41.7657" lon="9.20195">
        <ele>923</ele>
        <time>2008-05-29T10:20:14+02:00</time>
      </trkpt>
      <trkpt lat="41.7658" lon="9.20217">
        <ele>922</ele>
        <time>2008-05-29T10:20:19+02:00</time>
      </trkpt>
      <trkpt lat="41.76592" lon="9.20232">
        <ele>930</ele>
        <time>2008-05-29T10:20:23+02:00</time>
      </trkpt>
      <trkpt lat="41.76611" lon="9.20251">
        <ele>925</ele>
        <time>2008-05-29T10:20:29+02:00</time>
      </trkpt>
      <trkpt lat="41.76632" lon="9.20246">
        <ele>933</ele>
        <time>2008-05-29T10:20:33+02:00</time>
      </trkpt>
      <trkpt lat="41.76651" lon="9.20247">
        <ele>934</ele>
        <time>2008-05-29T10:20:37+02:00</time>
      </trkpt>
      <trkpt lat="41.76667" lon="9.20246">
        <ele>935</ele>
        <time>2008-05-29T10:20:39+02:00</time>
      </trkpt>
      <trkpt lat="41.76686" lon="9.20258">
        <ele>932</ele>
        <time>2008-05-29T10:20:44+02:00</time>
      </trkpt>
      <trkpt lat="41.76692" lon="9.20279">
        <ele>931</ele>
        <time>2008-05-29T10:20:48+02:00</time>
      </trkpt>
      <trkpt lat="41.767" lon="9.20295">
        <ele>930</ele>
        <time>2008-05-29T10:20:53+02:00</time>
      </trkpt>
      <trkpt lat="41.76726" lon="9.20317">
        <ele>930</ele>
        <time>2008-05-29T10:21:00+02:00</time>
      </trkpt>
      <trkpt lat="41.76751" lon="9.20328">
        <ele>929</ele>
        <time>2008-05-29T10:21:07+02:00</time>
      </trkpt>
      <trkpt lat="41.76755" lon="9.20329">
        <ele>929</ele>
        <time>2008-05-29T10:21:08+02:00</time>
      </trkpt>
      <trkpt lat="41.76774" lon="9.20349">
        <ele>931</ele>
        <time>2008-05-29T10:21:14+02:00</time>
      </trkpt>
      <trkpt lat="41.76785" lon="9.20374">
        <ele>932</ele>
        <time>2008-05-29T10:21:21+02:00</time>
      </trkpt>
      <trkpt lat="41.76792" lon="9.20397">
        <ele>933</ele>
        <time>2008-05-29T10:21:28+02:00</time>
      </trkpt>
      <trkpt lat="41.76793" lon="9.20416">
        <ele>933</ele>
        <time>2008-05-29T10:21:34+02:00</time>
      </trkpt>
      <trkpt lat="41.76786" lon="9.20434">
        <ele>942</ele>
        <time>2008-05-29T10:21:40+02:00</time>
      </trkpt>
      <trkpt lat="41.76782" lon="9.20443">
        <ele>943</ele>
        <time>2008-05-29T10:21:43+02:00</time>
      </trkpt>
      <trkpt lat="41.76775" lon="9.20454">
        <ele>943</ele>
        <time>2008-05-29T10:21:48+02:00</time>
      </trkpt>
      <trkpt lat="41.76764" lon="9.20466">
        <ele>945</ele>
        <time>2008-05-29T10:21:54+02:00</time>
      </trkpt>
      <trkpt lat="41.76749" lon="9.20487">
        <ele>945</ele>
        <time>2008-05-29T10:22:02+02:00</time>
      </trkpt>
      <trkpt lat="41.76737" lon="9.20505">
        <ele>953</ele>
        <time>2008-05-29T10:22:08+02:00</time>
      </trkpt>
      <trkpt lat="41.76726" lon="9.20519">
        <ele>955</ele>
        <time>2008-05-29T10:22:13+02:00</time>
      </trkpt>
      <trkpt lat="41.76709" lon="9.20536">
        <ele>957</ele>
        <time>2008-05-29T10:22:20+02:00</time>
      </trkpt>
      <trkpt lat="41.76689" lon="9.20548">
        <ele>958</ele>
        <time>2008-05-29T10:22:28+02:00</time>
      </trkpt>
      <trkpt lat="41.76676" lon="9.20549">
        <ele>959</ele>
        <time>2008-05-29T10:22:34+02:00</time>
      </trkpt>
      <trkpt lat="41.76664" lon="9.20545">
        <ele>955</ele>
        <time>2008-05-29T10:22:40+02:00</time>
      </trkpt>
      <trkpt lat="41.7665" lon="9.2054">
        <ele>953</ele>
        <time>2008-05-29T10:22:46+02:00</time>
      </trkpt>
      <trkpt lat="41.76628" lon="9.20539">
        <ele>953</ele>
        <time>2008-05-29T10:22:55+02:00</time>
      </trkpt>
      <trkpt lat="41.76606" lon="9.20549">
        <ele>953</ele>
        <time>2008-05-29T10:23:04+02:00</time>
      </trkpt>
      <trkpt lat="41.76593" lon="9.20562">
        <ele>955</ele>
        <time>2008-05-29T10:23:11+02:00</time>
      </trkpt>
      <trkpt lat="41.76585" lon="9.20577">
        <ele>958</ele>
        <time>2008-05-29T10:23:17+02:00</time>
      </trkpt>
      <trkpt lat="41.76575" lon="9.20596">
        <ele>961</ele>
        <time>2008-05-29T10:23:25+02:00</time>
      </trkpt>
      <trkpt lat="41.76566" lon="9.2062">
        <ele>963</ele>
        <time>2008-05-29T10:23:34+02:00</time>
      </trkpt>
      <trkpt lat="41.76558" lon="9.20641">
        <ele>966</ele>
        <time>2008-05-29T10:23:42+02:00</time>
      </trkpt>
      <trkpt lat="41.76544" lon="9.20664">
        <ele>966</ele>
        <time>2008-05-29T10:23:51+02:00</time>
      </trkpt>
      <trkpt lat="41.76528" lon="9.20676">
        <ele>974</ele>
        <time>2008-05-29T10:23:59+02:00</time>
      </trkpt>
      <trkpt lat="41.76509" lon="9.20684">
        <ele>972</ele>
        <time>2008-05-29T10:24:08+02:00</time>
      </trkpt>
      <trkpt lat="41.76496" lon="9.20692">
        <ele>967</ele>
        <time>2008-05-29T10:24:14+02:00</time>
      </trkpt>
      <trkpt lat="41.76483" lon="9.20698">
        <ele>967</ele>
        <time>2008-05-29T10:24:20+02:00</time>
      </trkpt>
      <trkpt lat="41.76467" lon="9.20708">
        <ele>967</ele>
        <time>2008-05-29T10:24:28+02:00</time>
      </trkpt>
      <trkpt lat="41.76453" lon="9.20722">
        <ele>967</ele>
        <time>2008-05-29T10:24:36+02:00</time>
      </trkpt>
      <trkpt lat="41.76453" lon="9.20737">
        <ele>968</ele>
        <time>2008-05-29T10:24:42+02:00</time>
      </trkpt>
      <trkpt lat="41.76463" lon="9.20746">
        <ele>970</ele>
        <time>2008-05-29T10:24:47+02:00</time>
      </trkpt>
      <trkpt lat="41.76476" lon="9.20746">
        <ele>973</ele>
        <time>2008-05-29T10:24:52+02:00</time>
      </trkpt>
      <trkpt lat="41.76488" lon="9.20738">
        <ele>975</ele>
        <time>2008-05-29T10:24:57+02:00</time>
      </trkpt>
      <trkpt lat="41.76512" lon="9.20722">
        <ele>979</ele>
        <time>2008-05-29T10:25:06+02:00</time>
      </trkpt>
      <trkpt lat="41.76529" lon="9.20716">
        <ele>979</ele>
        <time>2008-05-29T10:25:11+02:00</time>
      </trkpt>
      <trkpt lat="41.76552" lon="9.20713">
        <ele>980</ele>
        <time>2008-05-29T10:25:18+02:00</time>
      </trkpt>
      <trkpt lat="41.76568" lon="9.20706">
        <ele>981</ele>
        <time>2008-05-29T10:25:24+02:00</time>
      </trkpt>
      <trkpt lat="41.76613" lon="9.20677">
        <ele>984</ele>
        <time>2008-05-29T10:25:44+02:00</time>
      </trkpt>
      <trkpt lat="41.76627" lon="9.20674">
        <ele>985</ele>
        <time>2008-05-29T10:25:49+02:00</time>
      </trkpt>
      <trkpt lat="41.76655" lon="9.20682">
        <ele>986</ele>
        <time>2008-05-29T10:26:00+02:00</time>
      </trkpt>
      <trkpt lat="41.76668" lon="9.20689">
        <ele>989</ele>
        <time>2008-05-29T10:26:06+02:00</time>
      </trkpt>
      <trkpt lat="41.76684" lon="9.20694">
        <ele>991</ele>
        <time>2008-05-29T10:26:13+02:00</time>
      </trkpt>
      <trkpt lat="41.76698" lon="9.20708">
        <ele>992</ele>
        <time>2008-05-29T10:26:20+02:00</time>
      </trkpt>
      <trkpt lat="41.76712" lon="9.20719">
        <ele>994</ele>
        <time>2008-05-29T10:26:27+02:00</time>
      </trkpt>
      <trkpt lat="41.76723" lon="9.20729">
        <ele>995</ele>
        <time>2008-05-29T10:26:33+02:00</time>
      </trkpt>
      <trkpt lat="41.76737" lon="9.2073">
        <ele>996</ele>
        <time>2008-05-29T10:26:38+02:00</time>
      </trkpt>
      <trkpt lat="41.76752" lon="9.20732">
        <ele>998</ele>
        <time>2008-05-29T10:26:43+02:00</time>
      </trkpt>
      <trkpt lat="41.76764" lon="9.20738">
        <ele>998</ele>
        <time>2008-05-29T10:26:48+02:00</time>
      </trkpt>
      <trkpt lat="41.76782" lon="9.20742">
        <ele>998</ele>
        <time>2008-05-29T10:26:56+02:00</time>
      </trkpt>
      <trkpt lat="41.768" lon="9.20745">
        <ele>998</ele>
        <time>2008-05-29T10:27:04+02:00</time>
      </trkpt>
      <trkpt lat="41.76818" lon="9.20745">
        <ele>999</ele>
        <time>2008-05-29T10:27:12+02:00</time>
      </trkpt>
      <trkpt lat="41.76835" lon="9.20755">
        <ele>1004</ele>
        <time>2008-05-29T10:27:20+02:00</time>
      </trkpt>
      <trkpt lat="41.76849" lon="9.20774">
        <ele>1008</ele>
        <time>2008-05-29T10:27:29+02:00</time>
      </trkpt>
      <trkpt lat="41.76864" lon="9.20781">
        <ele>1009</ele>
        <time>2008-05-29T10:27:36+02:00</time>
      </trkpt>
      <trkpt lat="41.7688" lon="9.20785">
        <ele>1009</ele>
        <time>2008-05-29T10:27:43+02:00</time>
      </trkpt>
      <trkpt lat="41.76894" lon="9.20791">
        <ele>1009</ele>
        <time>2008-05-29T10:27:50+02:00</time>
      </trkpt>
      <trkpt lat="41.76904" lon="9.20807">
        <ele>1012</ele>
        <time>2008-05-29T10:27:57+02:00</time>
      </trkpt>
      <trkpt lat="41.76915" lon="9.2082">
        <ele>1015</ele>
        <time>2008-05-29T10:28:03+02:00</time>
      </trkpt>
      <trkpt lat="41.76932" lon="9.20831">
        <ele>1008</ele>
        <time>2008-05-29T10:28:11+02:00</time>
      </trkpt>
      <trkpt lat="41.76944" lon="9.20847">
        <ele>1021</ele>
        <time>2008-05-29T10:28:18+02:00</time>
      </trkpt>
      <trkpt lat="41.76959" lon="9.20862">
        <ele>1021</ele>
        <time>2008-05-29T10:28:26+02:00</time>
      </trkpt>
      <trkpt lat="41.76971" lon="9.20879">
        <ele>1023</ele>
        <time>2008-05-29T10:28:33+02:00</time>
      </trkpt>
      <trkpt lat="41.76983" lon="9.20893">
        <ele>1025</ele>
        <time>2008-05-29T10:28:40+02:00</time>
      </trkpt>
      <trkpt lat="41.77001" lon="9.20911">
        <ele>1024</ele>
        <time>2008-05-29T10:28:49+02:00</time>
      </trkpt>
      <trkpt lat="41.77015" lon="9.20922">
        <ele>1033</ele>
        <time>2008-05-29T10:28:56+02:00</time>
      </trkpt>
      <trkpt lat="41.77028" lon="9.2093">
        <ele>1033</ele>
        <time>2008-05-29T10:29:02+02:00</time>
      </trkpt>
      <trkpt lat="41.77041" lon="9.20942">
        <ele>1033</ele>
        <time>2008-05-29T10:29:09+02:00</time>
      </trkpt>
      <trkpt lat="41.77061" lon="9.20957">
        <ele>1034</ele>
        <time>2008-05-29T10:29:18+02:00</time>
      </trkpt>
      <trkpt lat="41.77076" lon="9.20972">
        <ele>1036</ele>
        <time>2008-05-29T10:29:26+02:00</time>
      </trkpt>
      <trkpt lat="41.77092" lon="9.20982">
        <ele>1026</ele>
        <time>2008-05-29T10:29:33+02:00</time>
      </trkpt>
      <trkpt lat="41.77107" lon="9.20992">
        <ele>1025</ele>
        <time>2008-05-29T10:29:40+02:00</time>
      </trkpt>
      <trkpt lat="41.77126" lon="9.21001">
        <ele>1045</ele>
        <time>2008-05-29T10:29:49+02:00</time>
      </trkpt>
      <trkpt lat="41.77144" lon="9.21006">
        <ele>1040</ele>
        <time>2008-05-29T10:29:57+02:00</time>
      </trkpt>
      <trkpt lat="41.77154" lon="9.21011">
        <ele>1037</ele>
        <time>2008-05-29T10:30:01+02:00</time>
      </trkpt>
      <trkpt lat="41.77169" lon="9.21021">
        <ele>1027</ele>
        <time>2008-05-29T10:30:08+02:00</time>
      </trkpt>
      <trkpt lat="41.77184" lon="9.21035">
        <ele>1030</ele>
        <time>2008-05-29T10:30:16+02:00</time>
      </trkpt>
      <trkpt lat="41.77192" lon="9.21042">
        <ele>1031</ele>
        <time>2008-05-29T10:30:20+02:00</time>
      </trkpt>
      <trkpt lat="41.77209" lon="9.21061">
        <ele>1033</ele>
        <time>2008-05-29T10:30:29+02:00</time>
      </trkpt>
      <trkpt lat="41.77222" lon="9.21078">
        <ele>1032</ele>
        <time>2008-05-29T10:30:37+02:00</time>
      </trkpt>
      <trkpt lat="41.77237" lon="9.21089">
        <ele>1047</ele>
        <time>2008-05-29T10:30:44+02:00</time>
      </trkpt>
      <trkpt lat="41.77253" lon="9.21106">
        <ele>1043</ele>
        <time>2008-05-29T10:30:53+02:00</time>
      </trkpt>
      <trkpt lat="41.77272" lon="9.2112">
        <ele>1048</ele>
        <time>2008-05-29T10:31:02+02:00</time>
      </trkpt>
      <trkpt lat="41.7729" lon="9.2113">
        <ele>1050</ele>
        <time>2008-05-29T10:31:10+02:00</time>
      </trkpt>
      <trkpt lat="41.77304" lon="9.21138">
        <ele>1051</ele>
        <time>2008-05-29T10:31:17+02:00</time>
      </trkpt>
      <trkpt lat="41.7732" lon="9.21141">
        <ele>1052</ele>
        <time>2008-05-29T10:31:24+02:00</time>
      </trkpt>
      <trkpt lat="41.77342" lon="9.21151">
        <ele>1046</ele>
        <time>2008-05-29T10:31:33+02:00</time>
      </trkpt>
      <trkpt lat="41.77353" lon="9.21161">
        <ele>1044</ele>
        <time>2008-05-29T10:31:38+02:00</time>
      </trkpt>
      <trkpt lat="41.77364" lon="9.21182">
        <ele>1056</ele>
        <time>2008-05-29T10:31:46+02:00</time>
      </trkpt>
      <trkpt lat="41.77374" lon="9.21204">
        <ele>1056</ele>
        <time>2008-05-29T10:31:54+02:00</time>
      </trkpt>
      <trkpt lat="41.77384" lon="9.21226">
        <ele>1056</ele>
        <time>2008-05-29T10:32:02+02:00</time>
      </trkpt>
      <trkpt lat="41.77391" lon="9.2125">
        <ele>1068</ele>
        <time>2008-05-29T10:32:10+02:00</time>
      </trkpt>
      <trkpt lat="41.77392" lon="9.21277">
        <ele>1072</ele>
        <time>2008-05-29T10:32:18+02:00</time>
      </trkpt>
      <trkpt lat="41.77392" lon="9.21309">
        <ele>1077</ele>
        <time>2008-05-29T10:32:28+02:00</time>
      </trkpt>
      <trkpt lat="41.77401" lon="9.2133">
        <ele>1073</ele>
        <time>2008-05-29T10:32:35+02:00</time>
      </trkpt>
      <trkpt lat="41.77413" lon="9.21356">
        <ele>1084</ele>
        <time>2008-05-29T10:32:44+02:00</time>
      </trkpt>
      <trkpt lat="41.77422" lon="9.21376">
        <ele>1065</ele>
        <time>2008-05-29T10:32:51+02:00</time>
      </trkpt>
      <trkpt lat="41.77432" lon="9.21396">
        <ele>1068</ele>
        <time>2008-05-29T10:32:59+02:00</time>
      </trkpt>
      <trkpt lat="41.77435" lon="9.21415">
        <ele>1071</ele>
        <time>2008-05-29T10:33:06+02:00</time>
      </trkpt>
      <trkpt lat="41.77432" lon="9.21434">
        <ele>1083</ele>
        <time>2008-05-29T10:33:12+02:00</time>
      </trkpt>
      <trkpt lat="41.77439" lon="9.21458">
        <ele>1087</ele>
        <time>2008-05-29T10:33:21+02:00</time>
      </trkpt>
      <trkpt lat="41.77453" lon="9.21467">
        <ele>1087</ele>
        <time>2008-05-29T10:33:28+02:00</time>
      </trkpt>
      <trkpt lat="41.77462" lon="9.21464">
        <ele>1086</ele>
        <time>2008-05-29T10:33:32+02:00</time>
      </trkpt>
      <trkpt lat="41.77483" lon="9.21452">
        <ele>1083</ele>
        <time>2008-05-29T10:33:41+02:00</time>
      </trkpt>
      <trkpt lat="41.77506" lon="9.21444">
        <ele>1074</ele>
        <time>2008-05-29T10:33:50+02:00</time>
      </trkpt>
      <trkpt lat="41.77522" lon="9.21448">
        <ele>1074</ele>
        <time>2008-05-29T10:33:56+02:00</time>
      </trkpt>
      <trkpt lat="41.77542" lon="9.21462">
        <ele>1076</ele>
        <time>2008-05-29T10:34:05+02:00</time>
      </trkpt>
      <trkpt lat="41.7755" lon="9.21477">
        <ele>1078</ele>
        <time>2008-05-29T10:34:11+02:00</time>
      </trkpt>
      <trkpt lat="41.77561" lon="9.21501">
        <ele>1094</ele>
        <time>2008-05-29T10:34:20+02:00</time>
      </trkpt>
      <trkpt lat="41.77569" lon="9.21514">
        <ele>1094</ele>
        <time>2008-05-29T10:34:25+02:00</time>
      </trkpt>
      <trkpt lat="41.77577" lon="9.21534">
        <ele>1099</ele>
        <time>2008-05-29T10:34:32+02:00</time>
      </trkpt>
      <trkpt lat="41.77584" lon="9.21546">
        <ele>1089</ele>
        <time>2008-05-29T10:34:37+02:00</time>
      </trkpt>
      <trkpt lat="41.77597" lon="9.21563">
        <ele>1092</ele>
        <time>2008-05-29T10:34:45+02:00</time>
      </trkpt>
      <trkpt lat="41.77619" lon="9.21578">
        <ele>1088</ele>
        <time>2008-05-29T10:34:56+02:00</time>
      </trkpt>
      <trkpt lat="41.77637" lon="9.21593">
        <ele>1101</ele>
        <time>2008-05-29T10:35:05+02:00</time>
      </trkpt>
      <trkpt lat="41.77651" lon="9.21612">
        <ele>1102</ele>
        <time>2008-05-29T10:35:14+02:00</time>
      </trkpt>
      <trkpt lat="41.77658" lon="9.21627">
        <ele>1105</ele>
        <time>2008-05-29T10:35:20+02:00</time>
      </trkpt>
      <trkpt lat="41.7766" lon="9.21646">
        <ele>1109</ele>
        <time>2008-05-29T10:35:27+02:00</time>
      </trkpt>
      <trkpt lat="41.77671" lon="9.2166">
        <ele>1105</ele>
        <time>2008-05-29T10:35:33+02:00</time>
      </trkpt>
      <trkpt lat="41.77686" lon="9.2166">
        <ele>1099</ele>
        <time>2008-05-29T10:35:39+02:00</time>
      </trkpt>
      <trkpt lat="41.77707" lon="9.21662">
        <ele>1093</ele>
        <time>2008-05-29T10:35:48+02:00</time>
      </trkpt>
      <trkpt lat="41.77719" lon="9.21669">
        <ele>1112</ele>
        <time>2008-05-29T10:35:53+02:00</time>
      </trkpt>
      <trkpt lat="41.77733" lon="9.21683">
        <ele>1110</ele>
        <time>2008-05-29T10:36:01+02:00</time>
      </trkpt>
      <trkpt lat="41.77747" lon="9.21697">
        <ele>1113</ele>
        <time>2008-05-29T10:36:09+02:00</time>
      </trkpt>
      <trkpt lat="41.77767" lon="9.21712">
        <ele>1104</ele>
        <time>2008-05-29T10:36:19+02:00</time>
      </trkpt>
      <trkpt lat="41.77785" lon="9.21729">
        <ele>1105</ele>
        <time>2008-05-29T10:36:28+02:00</time>
      </trkpt>
      <trkpt lat="41.77793" lon="9.21745">
        <ele>1105</ele>
        <time>2008-05-29T10:36:34+02:00</time>
      </trkpt>
      <trkpt lat="41.77801" lon="9.21761">
        <ele>1123</ele>
        <time>2008-05-29T10:36:40+02:00</time>
      </trkpt>
      <trkpt lat="41.77813" lon="9.21776">
        <ele>1123</ele>
        <time>2008-05-29T10:36:47+02:00</time>
      </trkpt>
      <trkpt lat="41.7783" lon="9.21786">
        <ele>1124</ele>
        <time>2008-05-29T10:36:55+02:00</time>
      </trkpt>
      <trkpt lat="41.77847" lon="9.21797">
        <ele>1113</ele>
        <time>2008-05-29T10:37:03+02:00</time>
      </trkpt>
      <trkpt lat="41.77867" lon="9.21815">
        <ele>1115</ele>
        <time>2008-05-29T10:37:13+02:00</time>
      </trkpt>
      <trkpt lat="41.77881" lon="9.21835">
        <ele>1134</ele>
        <time>2008-05-29T10:37:22+02:00</time>
      </trkpt>
      <trkpt lat="41.77892" lon="9.21855">
        <ele>1134</ele>
        <time>2008-05-29T10:37:30+02:00</time>
      </trkpt>
      <trkpt lat="41.77903" lon="9.21879">
        <ele>1138</ele>
        <time>2008-05-29T10:37:39+02:00</time>
      </trkpt>
      <trkpt lat="41.77919" lon="9.21908">
        <ele>1134</ele>
        <time>2008-05-29T10:37:50+02:00</time>
      </trkpt>
      <trkpt lat="41.77931" lon="9.21921">
        <ele>1146</ele>
        <time>2008-05-29T10:37:56+02:00</time>
      </trkpt>
      <trkpt lat="41.77947" lon="9.21931">
        <ele>1148</ele>
        <time>2008-05-29T10:38:03+02:00</time>
      </trkpt>
      <trkpt lat="41.77967" lon="9.21936">
        <ele>1147</ele>
        <time>2008-05-29T10:38:11+02:00</time>
      </trkpt>
      <trkpt lat="41.77986" lon="9.21939">
        <ele>1144</ele>
        <time>2008-05-29T10:38:18+02:00</time>
      </trkpt>
      <trkpt lat="41.78007" lon="9.21945">
        <ele>1143</ele>
        <time>2008-05-29T10:38:26+02:00</time>
      </trkpt>
      <trkpt lat="41.78027" lon="9.21947">
        <ele>1145</ele>
        <time>2008-05-29T10:38:34+02:00</time>
      </trkpt>
      <trkpt lat="41.78048" lon="9.21947">
        <ele>1146</ele>
        <time>2008-05-29T10:38:42+02:00</time>
      </trkpt>
      <trkpt lat="41.7807" lon="9.21947">
        <ele>1146</ele>
        <time>2008-05-29T10:38:50+02:00</time>
      </trkpt>
      <trkpt lat="41.7809" lon="9.21944">
        <ele>1147</ele>
        <time>2008-05-29T10:38:57+02:00</time>
      </trkpt>
      <trkpt lat="41.7811" lon="9.21935">
        <ele>1146</ele>
        <time>2008-05-29T10:39:04+02:00</time>
      </trkpt>
      <trkpt lat="41.78123" lon="9.21918">
        <ele>1146</ele>
        <time>2008-05-29T10:39:10+02:00</time>
      </trkpt>
      <trkpt lat="41.78137" lon="9.21911">
        <ele>1124</ele>
        <time>2008-05-29T10:39:15+02:00</time>
      </trkpt>
      <trkpt lat="41.78153" lon="9.21916">
        <ele>1130</ele>
        <time>2008-05-29T10:39:20+02:00</time>
      </trkpt>
      <trkpt lat="41.78177" lon="9.21928">
        <ele>1147</ele>
        <time>2008-05-29T10:39:27+02:00</time>
      </trkpt>
      <trkpt lat="41.782" lon="9.2194">
        <ele>1151</ele>
        <time>2008-05-29T10:39:33+02:00</time>
      </trkpt>
      <trkpt lat="41.78211" lon="9.2194">
        <ele>1152</ele>
        <time>2008-05-29T10:39:36+02:00</time>
      </trkpt>
      <trkpt lat="41.78222" lon="9.21932">
        <ele>1150</ele>
        <time>2008-05-29T10:39:39+02:00</time>
      </trkpt>
      <trkpt lat="41.7824" lon="9.21917">
        <ele>1145</ele>
        <time>2008-05-29T10:39:45+02:00</time>
      </trkpt>
      <trkpt lat="41.78265" lon="9.21915">
        <ele>1128</ele>
        <time>2008-05-29T10:39:51+02:00</time>
      </trkpt>
      <trkpt lat="41.78286" lon="9.21919">
        <ele>1153</ele>
        <time>2008-05-29T10:39:55+02:00</time>
      </trkpt>
      <trkpt lat="41.78305" lon="9.21923">
        <ele>1153</ele>
        <time>2008-05-29T10:39:58+02:00</time>
      </trkpt>
      <trkpt lat="41.78343" lon="9.21919">
        <ele>1150</ele>
        <time>2008-05-29T10:40:04+02:00</time>
      </trkpt>
      <trkpt lat="41.78376" lon="9.21914">
        <ele>1126</ele>
        <time>2008-05-29T10:40:10+02:00</time>
      </trkpt>
      <trkpt lat="41.78403" lon="9.2191">
        <ele>1134</ele>
        <time>2008-05-29T10:40:17+02:00</time>
      </trkpt>
      <trkpt lat="41.78434" lon="9.21912">
        <ele>1133</ele>
        <time>2008-05-29T10:40:26+02:00</time>
      </trkpt>
      <trkpt lat="41.78462" lon="9.21922">
        <ele>1159</ele>
        <time>2008-05-29T10:40:35+02:00</time>
      </trkpt>
      <trkpt lat="41.78485" lon="9.21936">
        <ele>1157</ele>
        <time>2008-05-29T10:40:43+02:00</time>
      </trkpt>
      <trkpt lat="41.78512" lon="9.21948">
        <ele>1155</ele>
        <time>2008-05-29T10:40:52+02:00</time>
      </trkpt>
      <trkpt lat="41.7853" lon="9.21964">
        <ele>1160</ele>
        <time>2008-05-29T10:40:59+02:00</time>
      </trkpt>
      <trkpt lat="41.78546" lon="9.21974">
        <ele>1161</ele>
        <time>2008-05-29T10:41:05+02:00</time>
      </trkpt>
      <trkpt lat="41.7857" lon="9.21979">
        <ele>1162</ele>
        <time>2008-05-29T10:41:13+02:00</time>
      </trkpt>
      <trkpt lat="41.78592" lon="9.2198">
        <ele>1155</ele>
        <time>2008-05-29T10:41:20+02:00</time>
      </trkpt>
      <trkpt lat="41.78613" lon="9.21989">
        <ele>1153</ele>
        <time>2008-05-29T10:41:27+02:00</time>
      </trkpt>
      <trkpt lat="41.78638" lon="9.21998">
        <ele>1152</ele>
        <time>2008-05-29T10:41:35+02:00</time>
      </trkpt>
      <trkpt lat="41.78655" lon="9.22005">
        <ele>1169</ele>
        <time>2008-05-29T10:41:41+02:00</time>
      </trkpt>
      <trkpt lat="41.78673" lon="9.22015">
        <ele>1166</ele>
        <time>2008-05-29T10:41:47+02:00</time>
      </trkpt>
      <trkpt lat="41.7869" lon="9.22023">
        <ele>1170</ele>
        <time>2008-05-29T10:41:53+02:00</time>
      </trkpt>
      <trkpt lat="41.78711" lon="9.22032">
        <ele>1171</ele>
        <time>2008-05-29T10:42:01+02:00</time>
      </trkpt>
      <trkpt lat="41.78736" lon="9.22045">
        <ele>1173</ele>
        <time>2008-05-29T10:42:11+02:00</time>
      </trkpt>
      <trkpt lat="41.78756" lon="9.22057">
        <ele>1169</ele>
        <time>2008-05-29T10:42:19+02:00</time>
      </trkpt>
      <trkpt lat="41.78776" lon="9.22077">
        <ele>1170</ele>
        <time>2008-05-29T10:42:28+02:00</time>
      </trkpt>
      <trkpt lat="41.78789" lon="9.22088">
        <ele>1187</ele>
        <time>2008-05-29T10:42:34+02:00</time>
      </trkpt>
      <trkpt lat="41.78801" lon="9.22102">
        <ele>1187</ele>
        <time>2008-05-29T10:42:41+02:00</time>
      </trkpt>
      <trkpt lat="41.7882" lon="9.22115">
        <ele>1186</ele>
        <time>2008-05-29T10:42:49+02:00</time>
      </trkpt>
      <trkpt lat="41.78843" lon="9.22126">
        <ele>1177</ele>
        <time>2008-05-29T10:42:58+02:00</time>
      </trkpt>
      <trkpt lat="41.78862" lon="9.22135">
        <ele>1177</ele>
        <time>2008-05-29T10:43:06+02:00</time>
      </trkpt>
      <trkpt lat="41.78879" lon="9.22147">
        <ele>1177</ele>
        <time>2008-05-29T10:43:14+02:00</time>
      </trkpt>
      <trkpt lat="41.78898" lon="9.22159">
        <ele>1179</ele>
        <time>2008-05-29T10:43:22+02:00</time>
      </trkpt>
      <trkpt lat="41.78925" lon="9.22175">
        <ele>1188</ele>
        <time>2008-05-29T10:43:33+02:00</time>
      </trkpt>
      <trkpt lat="41.78944" lon="9.22178">
        <ele>1191</ele>
        <time>2008-05-29T10:43:40+02:00</time>
      </trkpt>
      <trkpt lat="41.7896" lon="9.22182">
        <ele>1190</ele>
        <time>2008-05-29T10:43:46+02:00</time>
      </trkpt>
      <trkpt lat="41.78983" lon="9.22186">
        <ele>1188</ele>
        <time>2008-05-29T10:43:54+02:00</time>
      </trkpt>
      <trkpt lat="41.7901" lon="9.22197">
        <ele>1187</ele>
        <time>2008-05-29T10:44:03+02:00</time>
      </trkpt>
      <trkpt lat="41.79045" lon="9.22204">
        <ele>1190</ele>
        <time>2008-05-29T10:44:13+02:00</time>
      </trkpt>
      <trkpt lat="41.79079" lon="9.22207">
        <ele>1190</ele>
        <time>2008-05-29T10:44:22+02:00</time>
      </trkpt>
      <trkpt lat="41.79099" lon="9.222">
        <ele>1191</ele>
        <time>2008-05-29T10:44:27+02:00</time>
      </trkpt>
      <trkpt lat="41.79118" lon="9.22187">
        <ele>1189</ele>
        <time>2008-05-29T10:44:32+02:00</time>
      </trkpt>
      <trkpt lat="41.7913" lon="9.22182">
        <ele>1189</ele>
        <time>2008-05-29T10:44:35+02:00</time>
      </trkpt>
      <trkpt lat="41.79143" lon="9.22178">
        <ele>1188</ele>
        <time>2008-05-29T10:44:38+02:00</time>
      </trkpt>
      <trkpt lat="41.79179" lon="9.22187">
        <ele>1190</ele>
        <time>2008-05-29T10:44:47+02:00</time>
      </trkpt>
      <trkpt lat="41.79224" lon="9.22199">
        <ele>1192</ele>
        <time>2008-05-29T10:44:58+02:00</time>
      </trkpt>
      <trkpt lat="41.79261" lon="9.22215">
        <ele>1190</ele>
        <time>2008-05-29T10:45:07+02:00</time>
      </trkpt>
      <trkpt lat="41.79291" lon="9.22238">
        <ele>1192</ele>
        <time>2008-05-29T10:45:15+02:00</time>
      </trkpt>
      <trkpt lat="41.7932" lon="9.22249">
        <ele>1194</ele>
        <time>2008-05-29T10:45:22+02:00</time>
      </trkpt>
      <trkpt lat="41.79352" lon="9.22253">
        <ele>1207</ele>
        <time>2008-05-29T10:45:30+02:00</time>
      </trkpt>
      <trkpt lat="41.79375" lon="9.2225">
        <ele>1190</ele>
        <time>2008-05-29T10:45:37+02:00</time>
      </trkpt>
      <trkpt lat="41.79409" lon="9.22243">
        <ele>1195</ele>
        <time>2008-05-29T10:45:47+02:00</time>
      </trkpt>
      <trkpt lat="41.79432" lon="9.22243">
        <ele>1193</ele>
        <time>2008-05-29T10:45:54+02:00</time>
      </trkpt>
      <trkpt lat="41.79453" lon="9.22244">
        <ele>1191</ele>
        <time>2008-05-29T10:46:01+02:00</time>
      </trkpt>
      <trkpt lat="41.79476" lon="9.22247">
        <ele>1192</ele>
        <time>2008-05-29T10:46:09+02:00</time>
      </trkpt>
      <trkpt lat="41.79502" lon="9.22256">
        <ele>1201</ele>
        <time>2008-05-29T10:46:18+02:00</time>
      </trkpt>
      <trkpt lat="41.79523" lon="9.22269">
        <ele>1204</ele>
        <time>2008-05-29T10:46:26+02:00</time>
      </trkpt>
      <trkpt lat="41.79532" lon="9.22285">
        <ele>1206</ele>
        <time>2008-05-29T10:46:32+02:00</time>
      </trkpt>
      <trkpt lat="41.79543" lon="9.22307">
        <ele>1208</ele>
        <time>2008-05-29T10:46:40+02:00</time>
      </trkpt>
      <trkpt lat="41.79555" lon="9.22332">
        <ele>1209</ele>
        <time>2008-05-29T10:46:49+02:00</time>
      </trkpt>
      <trkpt lat="41.79564" lon="9.22355">
        <ele>1216</ele>
        <time>2008-05-29T10:46:57+02:00</time>
      </trkpt>
      <trkpt lat="41.79571" lon="9.2238">
        <ele>1217</ele>
        <time>2008-05-29T10:47:05+02:00</time>
      </trkpt>
      <trkpt lat="41.79574" lon="9.22403">
        <ele>1217</ele>
        <time>2008-05-29T10:47:12+02:00</time>
      </trkpt>
      <trkpt lat="41.79578" lon="9.22425">
        <ele>1218</ele>
        <time>2008-05-29T10:47:19+02:00</time>
      </trkpt>
      <trkpt lat="41.7958" lon="9.22448">
        <ele>1222</ele>
        <time>2008-05-29T10:47:26+02:00</time>
      </trkpt>
      <trkpt lat="41.79582" lon="9.22459">
        <ele>1223</ele>
        <time>2008-05-29T10:47:31+02:00</time>
      </trkpt>
      <trkpt lat="41.79583" lon="9.22471">
        <ele>1219</ele>
        <time>2008-05-29T10:47:36+02:00</time>
      </trkpt>
      <trkpt lat="41.79579" lon="9.22485">
        <ele>1223</ele>
        <time>2008-05-29T10:49:11+02:00</time>
      </trkpt>
      <trkpt lat="41.79581" lon="9.22484">
        <ele>1223</ele>
        <time>2008-05-29T10:49:20+02:00</time>
      </trkpt>
      <trkpt lat="41.79586" lon="9.22475">
        <ele>1219</ele>
        <time>2008-05-29T10:49:33+02:00</time>
      </trkpt>
      <trkpt lat="41.79585" lon="9.22474">
        <ele>1219</ele>
        <time>2008-05-29T10:49:38+02:00</time>
      </trkpt>
      <trkpt lat="41.79585" lon="9.22475">
        <ele>1219</ele>
        <time>2008-05-29T10:49:48+02:00</time>
      </trkpt>
      <trkpt lat="41.79585" lon="9.22471">
        <ele>1219</ele>
        <time>2008-05-29T10:50:11+02:00</time>
      </trkpt>
      <trkpt lat="41.79584" lon="9.22464">
        <ele>1219</ele>
        <time>2008-05-29T10:50:21+02:00</time>
      </trkpt>
      <trkpt lat="41.79584" lon="9.22469">
        <ele>1219</ele>
        <time>2008-05-29T10:50:41+02:00</time>
      </trkpt>
      <trkpt lat="41.79584" lon="9.22469">
        <ele>1219</ele>
        <time>2008-05-29T10:50:48+02:00</time>
      </trkpt>
      <trkpt lat="41.79584" lon="9.22471">
        <ele>1219</ele>
        <time>2008-05-29T10:51:00+02:00</time>
      </trkpt>
      <trkpt lat="41.79583" lon="9.22473">
        <ele>1223</ele>
        <time>2008-05-29T10:51:06+02:00</time>
      </trkpt>
      <trkpt lat="41.79583" lon="9.22475">
        <ele>1223</ele>
        <time>2008-05-29T10:51:14+02:00</time>
      </trkpt>
      <trkpt lat="41.79584" lon="9.22483">
        <ele>1220</ele>
        <time>2008-05-29T10:52:20+02:00</time>
      </trkpt>
      <trkpt lat="41.79582" lon="9.22483">
        <ele>1223</ele>
        <time>2008-05-29T10:52:31+02:00</time>
      </trkpt>
      <trkpt lat="41.79583" lon="9.22487">
        <ele>1223</ele>
        <time>2008-05-29T10:52:47+02:00</time>
      </trkpt>
      <trkpt lat="41.79582" lon="9.22488">
        <ele>1223</ele>
        <time>2008-05-29T10:52:51+02:00</time>
      </trkpt>
      <trkpt lat="41.79582" lon="9.22489">
        <ele>1223</ele>
        <time>2008-05-29T10:52:57+02:00</time>
      </trkpt>
      <trkpt lat="41.79583" lon="9.22485">
        <ele>1223</ele>
        <time>2008-05-29T10:53:07+02:00</time>
      </trkpt>
      <trkpt lat="41.79583" lon="9.22483">
        <ele>1223</ele>
        <time>2008-05-29T10:53:19+02:00</time>
      </trkpt>
      <trkpt lat="41.79582" lon="9.22488">
        <ele>1223</ele>
        <time>2008-05-29T10:53:25+02:00</time>
      </trkpt>
      <trkpt lat="41.7958" lon="9.22489">
        <ele>1223</ele>
        <time>2008-05-29T10:53:31+02:00</time>
      </trkpt>
      <trkpt lat="41.79578" lon="9.22489">
        <ele>1223</ele>
        <time>2008-05-29T10:53:48+02:00</time>
      </trkpt>
      <trkpt lat="41.79577" lon="9.22486">
        <ele>1223</ele>
        <time>2008-05-29T10:54:01+02:00</time>
      </trkpt>
      <trkpt lat="41.79577" lon="9.22485">
        <ele>1223</ele>
        <time>2008-05-29T10:54:09+02:00</time>
      </trkpt>
      <trkpt lat="41.79583" lon="9.22485">
        <ele>1223</ele>
        <time>2008-05-29T10:54:45+02:00</time>
      </trkpt>
      <trkpt lat="41.79584" lon="9.22484">
        <ele>1220</ele>
        <time>2008-05-29T10:54:54+02:00</time>
      </trkpt>
      <trkpt lat="41.79583" lon="9.22484">
        <ele>1220</ele>
        <time>2008-05-29T10:55:00+02:00</time>
      </trkpt>
      <trkpt lat="41.79584" lon="9.22485">
        <ele>1220</ele>
        <time>2008-05-29T10:55:09+02:00</time>
      </trkpt>
      <trkpt lat="41.79586" lon="9.22483">
        <ele>1220</ele>
        <time>2008-05-29T10:55:18+02:00</time>
      </trkpt>
      <trkpt lat="41.79588" lon="9.22482">
        <ele>1219</ele>
        <time>2008-05-29T10:55:29+02:00</time>
      </trkpt>
      <trkpt lat="41.79592" lon="9.22483">
        <ele>1219</ele>
        <time>2008-05-29T10:55:35+02:00</time>
      </trkpt>
      <trkpt lat="41.79591" lon="9.22486">
        <ele>1220</ele>
        <time>2008-05-29T10:55:43+02:00</time>
      </trkpt>
      <trkpt lat="41.79592" lon="9.22487">
        <ele>1220</ele>
        <time>2008-05-29T10:55:49+02:00</time>
      </trkpt>
      <trkpt lat="41.79591" lon="9.22487">
        <ele>1220</ele>
        <time>2008-05-29T10:55:55+02:00</time>
      </trkpt>
      <trkpt lat="41.7959" lon="9.22486">
        <ele>1220</ele>
        <time>2008-05-29T10:56:01+02:00</time>
      </trkpt>
      <trkpt lat="41.79587" lon="9.22486">
        <ele>1220</ele>
        <time>2008-05-29T10:56:15+02:00</time>
      </trkpt>
      <trkpt lat="41.79582" lon="9.22487">
        <ele>1223</ele>
        <time>2008-05-29T10:56:21+02:00</time>
      </trkpt>
      <trkpt lat="41.79584" lon="9.22486">
        <ele>1220</ele>
        <time>2008-05-29T10:56:26+02:00</time>
      </trkpt>
      <trkpt lat="41.79589" lon="9.22485">
        <ele>1220</ele>
        <time>2008-05-29T10:56:31+02:00</time>
      </trkpt>
      <trkpt lat="41.7959" lon="9.22485">
        <ele>1220</ele>
        <time>2008-05-29T10:56:37+02:00</time>
      </trkpt>
      <trkpt lat="41.79589" lon="9.22485">
        <ele>1220</ele>
        <time>2008-05-29T10:56:54+02:00</time>
      </trkpt>
      <trkpt lat="41.79588" lon="9.22485">
        <ele>1220</ele>
        <time>2008-05-29T10:56:59+02:00</time>
      </trkpt>
      <trkpt lat="41.79588" lon="9.22484">
        <ele>1220</ele>
        <time>2008-05-29T10:57:06+02:00</time>
      </trkpt>
      <trkpt lat="41.79589" lon="9.22482">
        <ele>1219</ele>
        <time>2008-05-29T10:57:12+02:00</time>
      </trkpt>
      <trkpt lat="41.7959" lon="9.22481">
        <ele>1219</ele>
        <time>2008-05-29T10:57:21+02:00</time>
      </trkpt>
      <trkpt lat="41.7959" lon="9.22481">
        <ele>1219</ele>
        <time>2008-05-29T10:57:30+02:00</time>
      </trkpt>
      <trkpt lat="41.79591" lon="9.22485">
        <ele>1220</ele>
        <time>2008-05-29T10:57:36+02:00</time>
      </trkpt>
      <trkpt lat="41.7959" lon="9.22484">
        <ele>1220</ele>
        <time>2008-05-29T10:57:43+02:00</time>
      </trkpt>
      <trkpt lat="41.7959" lon="9.22483">
        <ele>1219</ele>
        <time>2008-05-29T10:57:52+02:00</time>
      </trkpt>
      <trkpt lat="41.79592" lon="9.22489">
        <ele>1220</ele>
        <time>2008-05-29T10:57:59+02:00</time>
      </trkpt>
      <trkpt lat="41.79592" lon="9.22489">
        <ele>1220</ele>
        <time>2008-05-29T10:58:06+02:00</time>
      </trkpt>
      <trkpt lat="41.79591" lon="9.22489">
        <ele>1220</ele>
        <time>2008-05-29T10:58:25+02:00</time>
      </trkpt>
      <trkpt lat="41.79589" lon="9.22489">
        <ele>1220</ele>
        <time>2008-05-29T10:58:28+02:00</time>
      </trkpt>
      <trkpt lat="41.79581" lon="9.22486">
        <ele>1223</ele>
        <time>2008-05-29T10:58:35+02:00</time>
      </trkpt>
      <trkpt lat="41.79582" lon="9.22486">
        <ele>1223</ele>
        <time>2008-05-29T10:58:43+02:00</time>
      </trkpt>
      <trkpt lat="41.79582" lon="9.22485">
        <ele>1223</ele>
        <time>2008-05-29T10:59:11+02:00</time>
      </trkpt>
      <trkpt lat="41.7958" lon="9.22487">
        <ele>1223</ele>
        <time>2008-05-29T10:59:20+02:00</time>
      </trkpt>
      <trkpt lat="41.7958" lon="9.22487">
        <ele>1223</ele>
        <time>2008-05-29T10:59:26+02:00</time>
      </trkpt>
      <trkpt lat="41.79581" lon="9.22487">
        <ele>1223</ele>
        <time>2008-05-29T10:59:44+02:00</time>
      </trkpt>
      <trkpt lat="41.79582" lon="9.22486">
        <ele>1223</ele>
        <time>2008-05-29T10:59:56+02:00</time>
      </trkpt>
      <trkpt lat="41.79582" lon="9.22487">
        <ele>1223</ele>
        <time>2008-05-29T11:00:07+02:00</time>
      </trkpt>
      <trkpt lat="41.79587" lon="9.22484">
        <ele>1220</ele>
        <time>2008-05-29T11:00:14+02:00</time>
      </trkpt>
      <trkpt lat="41.79593" lon="9.22482">
        <ele>1219</ele>
        <time>2008-05-29T11:00:20+02:00</time>
      </trkpt>
      <trkpt lat="41.79594" lon="9.22477">
        <ele>1219</ele>
        <time>2008-05-29T11:00:24+02:00</time>
      </trkpt>
      <trkpt lat="41.79596" lon="9.22469">
        <ele>1219</ele>
        <time>2008-05-29T11:00:30+02:00</time>
      </trkpt>
      <trkpt lat="41.79598" lon="9.22465">
        <ele>1219</ele>
        <time>2008-05-29T11:00:38+02:00</time>
      </trkpt>
      <trkpt lat="41.79601" lon="9.22456">
        <ele>1218</ele>
        <time>2008-05-29T11:00:47+02:00</time>
      </trkpt>
      <trkpt lat="41.79605" lon="9.22449">
        <ele>1218</ele>
        <time>2008-05-29T11:00:56+02:00</time>
      </trkpt>
      <trkpt lat="41.79611" lon="9.22446">
        <ele>1218</ele>
        <time>2008-05-29T11:01:03+02:00</time>
      </trkpt>
      <trkpt lat="41.79616" lon="9.22447">
        <ele>1218</ele>
        <time>2008-05-29T11:01:10+02:00</time>
      </trkpt>
      <trkpt lat="41.79623" lon="9.22447">
        <ele>1218</ele>
        <time>2008-05-29T11:01:17+02:00</time>
      </trkpt>
      <trkpt lat="41.79626" lon="9.22446">
        <ele>1218</ele>
        <time>2008-05-29T11:01:23+02:00</time>
      </trkpt>
      <trkpt lat="41.79628" lon="9.22444">
        <ele>1218</ele>
        <time>2008-05-29T11:01:36+02:00</time>
      </trkpt>
      <trkpt lat="41.79626" lon="9.22442">
        <ele>1218</ele>
        <time>2008-05-29T11:01:42+02:00</time>
      </trkpt>
      <trkpt lat="41.79625" lon="9.22445">
        <ele>1218</ele>
        <time>2008-05-29T11:01:51+02:00</time>
      </trkpt>
      <trkpt lat="41.79625" lon="9.22443">
        <ele>1218</ele>
        <time>2008-05-29T11:01:56+02:00</time>
      </trkpt>
      <trkpt lat="41.79626" lon="9.22439">
        <ele>1218</ele>
        <time>2008-05-29T11:02:06+02:00</time>
      </trkpt>
      <trkpt lat="41.79626" lon="9.22437">
        <ele>1218</ele>
        <time>2008-05-29T11:02:18+02:00</time>
      </trkpt>
      <trkpt lat="41.79627" lon="9.22437">
        <ele>1218</ele>
        <time>2008-05-29T11:02:23+02:00</time>
      </trkpt>
      <trkpt lat="41.79626" lon="9.22436">
        <ele>1218</ele>
        <time>2008-05-29T11:02:29+02:00</time>
      </trkpt>
      <trkpt lat="41.79628" lon="9.22439">
        <ele>1218</ele>
        <time>2008-05-29T11:02:43+02:00</time>
      </trkpt>
      <trkpt lat="41.79629" lon="9.22443">
        <ele>1219</ele>
        <time>2008-05-29T11:03:03+02:00</time>
      </trkpt>
      <trkpt lat="41.79629" lon="9.22445">
        <ele>1219</ele>
        <time>2008-05-29T11:03:10+02:00</time>
      </trkpt>
      <trkpt lat="41.79628" lon="9.22448">
        <ele>1218</ele>
        <time>2008-05-29T11:03:16+02:00</time>
      </trkpt>
      <trkpt lat="41.7963" lon="9.22444">
        <ele>1219</ele>
        <time>2008-05-29T11:03:29+02:00</time>
      </trkpt>
      <trkpt lat="41.79629" lon="9.22445">
        <ele>1218</ele>
        <time>2008-05-29T11:04:39+02:00</time>
      </trkpt>
      <trkpt lat="41.79631" lon="9.22442">
        <ele>1219</ele>
        <time>2008-05-29T11:05:02+02:00</time>
      </trkpt>
      <trkpt lat="41.79629" lon="9.22443">
        <ele>1219</ele>
        <time>2008-05-29T11:05:33+02:00</time>
      </trkpt>
      <trkpt lat="41.79632" lon="9.2244">
        <ele>1219</ele>
        <time>2008-05-29T11:05:38+02:00</time>
      </trkpt>
      <trkpt lat="41.79638" lon="9.22439">
        <ele>1219</ele>
        <time>2008-05-29T11:05:44+02:00</time>
      </trkpt>
      <trkpt lat="41.79646" lon="9.22441">
        <ele>1219</ele>
        <time>2008-05-29T11:05:51+02:00</time>
      </trkpt>
      <trkpt lat="41.79653" lon="9.22448">
        <ele>1219</ele>
        <time>2008-05-29T11:05:57+02:00</time>
      </trkpt>
      <trkpt lat="41.79657" lon="9.22452">
        <ele>1219</ele>
        <time>2008-05-29T11:06:02+02:00</time>
      </trkpt>
      <trkpt lat="41.79662" lon="9.22454">
        <ele>1219</ele>
        <time>2008-05-29T11:06:09+02:00</time>
      </trkpt>
      <trkpt lat="41.7967" lon="9.22458">
        <ele>1214</ele>
        <time>2008-05-29T11:06:16+02:00</time>
      </trkpt>
      <trkpt lat="41.79678" lon="9.2246">
        <ele>1214</ele>
        <time>2008-05-29T11:06:24+02:00</time>
      </trkpt>
      <trkpt lat="41.79681" lon="9.22459">
        <ele>1214</ele>
        <time>2008-05-29T11:06:29+02:00</time>
      </trkpt>
      <trkpt lat="41.79681" lon="9.22453">
        <ele>1214</ele>
        <time>2008-05-29T11:06:36+02:00</time>
      </trkpt>
      <trkpt lat="41.79681" lon="9.22447">
        <ele>1214</ele>
        <time>2008-05-29T11:06:41+02:00</time>
      </trkpt>
      <trkpt lat="41.79681" lon="9.22437">
        <ele>1215</ele>
        <time>2008-05-29T11:06:49+02:00</time>
      </trkpt>
      <trkpt lat="41.79685" lon="9.22432">
        <ele>1215</ele>
        <time>2008-05-29T11:06:55+02:00</time>
      </trkpt>
      <trkpt lat="41.79687" lon="9.22426">
        <ele>1216</ele>
        <time>2008-05-29T11:07:01+02:00</time>
      </trkpt>
      <trkpt lat="41.79689" lon="9.22422">
        <ele>1215</ele>
        <time>2008-05-29T11:07:06+02:00</time>
      </trkpt>
      <trkpt lat="41.79691" lon="9.22416">
        <ele>1219</ele>
        <time>2008-05-29T11:07:12+02:00</time>
      </trkpt>
      <trkpt lat="41.79695" lon="9.22407">
        <ele>1218</ele>
        <time>2008-05-29T11:07:19+02:00</time>
      </trkpt>
      <trkpt lat="41.79702" lon="9.224">
        <ele>1218</ele>
        <time>2008-05-29T11:07:26+02:00</time>
      </trkpt>
      <trkpt lat="41.79702" lon="9.22399">
        <ele>1218</ele>
        <time>2008-05-29T11:07:27+02:00</time>
      </trkpt>
      <trkpt lat="41.79704" lon="9.22397">
        <ele>1218</ele>
        <time>2008-05-29T11:07:29+02:00</time>
      </trkpt>
      <trkpt lat="41.79707" lon="9.22393">
        <ele>1218</ele>
        <time>2008-05-29T11:07:36+02:00</time>
      </trkpt>
      <trkpt lat="41.79712" lon="9.22387">
        <ele>1218</ele>
        <time>2008-05-29T11:07:42+02:00</time>
      </trkpt>
      <trkpt lat="41.79721" lon="9.22383">
        <ele>1218</ele>
        <time>2008-05-29T11:07:51+02:00</time>
      </trkpt>
      <trkpt lat="41.79723" lon="9.22381">
        <ele>1218</ele>
        <time>2008-05-29T11:07:54+02:00</time>
      </trkpt>
      <trkpt lat="41.79726" lon="9.2238">
        <ele>1218</ele>
        <time>2008-05-29T11:07:57+02:00</time>
      </trkpt>
      <trkpt lat="41.79732" lon="9.22387">
        <ele>1217</ele>
        <time>2008-05-29T11:08:06+02:00</time>
      </trkpt>
      <trkpt lat="41.79736" lon="9.22393">
        <ele>1217</ele>
        <time>2008-05-29T11:08:15+02:00</time>
      </trkpt>
      <trkpt lat="41.79736" lon="9.224">
        <ele>1216</ele>
        <time>2008-05-29T11:08:21+02:00</time>
      </trkpt>
      <trkpt lat="41.79736" lon="9.22406">
        <ele>1215</ele>
        <time>2008-05-29T11:08:27+02:00</time>
      </trkpt>
      <trkpt lat="41.79736" lon="9.22406">
        <ele>1215</ele>
        <time>2008-05-29T11:08:37+02:00</time>
      </trkpt>
      <trkpt lat="41.79735" lon="9.22407">
        <ele>1215</ele>
        <time>2008-05-29T11:08:46+02:00</time>
      </trkpt>
      <trkpt lat="41.79734" lon="9.22407">
        <ele>1215</ele>
        <time>2008-05-29T11:08:58+02:00</time>
      </trkpt>
      <trkpt lat="41.79736" lon="9.22411">
        <ele>1215</ele>
        <time>2008-05-29T11:09:07+02:00</time>
      </trkpt>
      <trkpt lat="41.7974" lon="9.22415">
        <ele>1214</ele>
        <time>2008-05-29T11:09:14+02:00</time>
      </trkpt>
      <trkpt lat="41.79742" lon="9.22415">
        <ele>1213</ele>
        <time>2008-05-29T11:09:25+02:00</time>
      </trkpt>
      <trkpt lat="41.79745" lon="9.2242">
        <ele>1211</ele>
        <time>2008-05-29T11:09:31+02:00</time>
      </trkpt>
      <trkpt lat="41.79746" lon="9.22422">
        <ele>1211</ele>
        <time>2008-05-29T11:09:36+02:00</time>
      </trkpt>
      <trkpt lat="41.79746" lon="9.22423">
        <ele>1211</ele>
        <time>2008-05-29T11:09:45+02:00</time>
      </trkpt>
      <trkpt lat="41.79745" lon="9.22423">
        <ele>1211</ele>
        <time>2008-05-29T11:10:01+02:00</time>
      </trkpt>
      <trkpt lat="41.79743" lon="9.22421">
        <ele>1211</ele>
        <time>2008-05-29T11:10:17+02:00</time>
      </trkpt>
      <trkpt lat="41.79744" lon="9.22418">
        <ele>1211</ele>
        <time>2008-05-29T11:10:22+02:00</time>
      </trkpt>
      <trkpt lat="41.7974" lon="9.22416">
        <ele>1214</ele>
        <time>2008-05-29T11:10:28+02:00</time>
      </trkpt>
      <trkpt lat="41.79738" lon="9.22413">
        <ele>1214</ele>
        <time>2008-05-29T11:10:32+02:00</time>
      </trkpt>
      <trkpt lat="41.79736" lon="9.22408">
        <ele>1215</ele>
        <time>2008-05-29T11:10:37+02:00</time>
      </trkpt>
      <trkpt lat="41.79737" lon="9.22402">
        <ele>1216</ele>
        <time>2008-05-29T11:10:42+02:00</time>
      </trkpt>
      <trkpt lat="41.79736" lon="9.22395">
        <ele>1216</ele>
        <time>2008-05-29T11:10:48+02:00</time>
      </trkpt>
      <trkpt lat="41.79735" lon="9.22393">
        <ele>1217</ele>
        <time>2008-05-29T11:10:54+02:00</time>
      </trkpt>
      <trkpt lat="41.79736" lon="9.22388">
        <ele>1217</ele>
        <time>2008-05-29T11:10:59+02:00</time>
      </trkpt>
      <trkpt lat="41.79736" lon="9.22383">
        <ele>1218</ele>
        <time>2008-05-29T11:11:02+02:00</time>
      </trkpt>
      <trkpt lat="41.79735" lon="9.22369">
        <ele>1219</ele>
        <time>2008-05-29T11:11:11+02:00</time>
      </trkpt>
      <trkpt lat="41.79735" lon="9.22356">
        <ele>1220</ele>
        <time>2008-05-29T11:11:19+02:00</time>
      </trkpt>
      <trkpt lat="41.79737" lon="9.22344">
        <ele>1222</ele>
        <time>2008-05-29T11:11:27+02:00</time>
      </trkpt>
      <trkpt lat="41.79742" lon="9.22332">
        <ele>1224</ele>
        <time>2008-05-29T11:11:35+02:00</time>
      </trkpt>
      <trkpt lat="41.79745" lon="9.2232">
        <ele>1223</ele>
        <time>2008-05-29T11:11:42+02:00</time>
      </trkpt>
      <trkpt lat="41.7975" lon="9.22314">
        <ele>1229</ele>
        <time>2008-05-29T11:11:48+02:00</time>
      </trkpt>
      <trkpt lat="41.79751" lon="9.2231">
        <ele>1229</ele>
        <time>2008-05-29T11:11:51+02:00</time>
      </trkpt>
      <trkpt lat="41.79753" lon="9.22305">
        <ele>1230</ele>
        <time>2008-05-29T11:11:55+02:00</time>
      </trkpt>
      <trkpt lat="41.79755" lon="9.22299">
        <ele>1230</ele>
        <time>2008-05-29T11:12:01+02:00</time>
      </trkpt>
      <trkpt lat="41.79755" lon="9.22296">
        <ele>1230</ele>
        <time>2008-05-29T11:12:03+02:00</time>
      </trkpt>
      <trkpt lat="41.79757" lon="9.22284">
        <ele>1231</ele>
        <time>2008-05-29T11:12:10+02:00</time>
      </trkpt>
      <trkpt lat="41.79761" lon="9.22276">
        <ele>1232</ele>
        <time>2008-05-29T11:12:17+02:00</time>
      </trkpt>
      <trkpt lat="41.7976" lon="9.22275">
        <ele>1232</ele>
        <time>2008-05-29T11:12:18+02:00</time>
      </trkpt>
      <trkpt lat="41.79762" lon="9.22262">
        <ele>1232</ele>
        <time>2008-05-29T11:12:27+02:00</time>
      </trkpt>
      <trkpt lat="41.79763" lon="9.22256">
        <ele>1232</ele>
        <time>2008-05-29T11:12:31+02:00</time>
      </trkpt>
      <trkpt lat="41.79763" lon="9.22247">
        <ele>1237</ele>
        <time>2008-05-29T11:12:38+02:00</time>
      </trkpt>
      <trkpt lat="41.79762" lon="9.22239">
        <ele>1238</ele>
        <time>2008-05-29T11:12:44+02:00</time>
      </trkpt>
      <trkpt lat="41.79762" lon="9.22237">
        <ele>1238</ele>
        <time>2008-05-29T11:12:45+02:00</time>
      </trkpt>
      <trkpt lat="41.7976" lon="9.2223">
        <ele>1239</ele>
        <time>2008-05-29T11:12:49+02:00</time>
      </trkpt>
      <trkpt lat="41.79761" lon="9.22219">
        <ele>1240</ele>
        <time>2008-05-29T11:12:56+02:00</time>
      </trkpt>
      <trkpt lat="41.79761" lon="9.22217">
        <ele>1241</ele>
        <time>2008-05-29T11:12:58+02:00</time>
      </trkpt>
      <trkpt lat="41.7976" lon="9.2221">
        <ele>1241</ele>
        <time>2008-05-29T11:13:04+02:00</time>
      </trkpt>
      <trkpt lat="41.79759" lon="9.22205">
        <ele>1240</ele>
        <time>2008-05-29T11:13:10+02:00</time>
      </trkpt>
      <trkpt lat="41.79758" lon="9.22201">
        <ele>1240</ele>
        <time>2008-05-29T11:13:16+02:00</time>
      </trkpt>
      <trkpt lat="41.79757" lon="9.22198">
        <ele>1240</ele>
        <time>2008-05-29T11:13:22+02:00</time>
      </trkpt>
      <trkpt lat="41.79757" lon="9.22194">
        <ele>1239</ele>
        <time>2008-05-29T11:13:26+02:00</time>
      </trkpt>
      <trkpt lat="41.79755" lon="9.22191">
        <ele>1238</ele>
        <time>2008-05-29T11:13:31+02:00</time>
      </trkpt>
      <trkpt lat="41.79754" lon="9.22187">
        <ele>1237</ele>
        <time>2008-05-29T11:13:40+02:00</time>
      </trkpt>
      <trkpt lat="41.79754" lon="9.22186">
        <ele>1237</ele>
        <time>2008-05-29T11:13:49+02:00</time>
      </trkpt>
      <trkpt lat="41.79754" lon="9.2218">
        <ele>1234</ele>
        <time>2008-05-29T11:13:54+02:00</time>
      </trkpt>
      <trkpt lat="41.79756" lon="9.22181">
        <ele>1235</ele>
        <time>2008-05-29T11:13:59+02:00</time>
      </trkpt>
      <trkpt lat="41.79758" lon="9.22186">
        <ele>1237</ele>
        <time>2008-05-29T11:14:05+02:00</time>
      </trkpt>
      <trkpt lat="41.79761" lon="9.22187">
        <ele>1238</ele>
        <time>2008-05-29T11:14:11+02:00</time>
      </trkpt>
      <trkpt lat="41.79763" lon="9.2219">
        <ele>1239</ele>
        <time>2008-05-29T11:14:15+02:00</time>
      </trkpt>
      <trkpt lat="41.79766" lon="9.22187">
        <ele>1240</ele>
        <time>2008-05-29T11:14:24+02:00</time>
      </trkpt>
      <trkpt lat="41.79769" lon="9.22183">
        <ele>1240</ele>
        <time>2008-05-29T11:14:29+02:00</time>
      </trkpt>
      <trkpt lat="41.79771" lon="9.2218">
        <ele>1241</ele>
        <time>2008-05-29T11:14:36+02:00</time>
      </trkpt>
      <trkpt lat="41.79774" lon="9.22173">
        <ele>1241</ele>
        <time>2008-05-29T11:14:42+02:00</time>
      </trkpt>
      <trkpt lat="41.79774" lon="9.22172">
        <ele>1241</ele>
        <time>2008-05-29T11:14:48+02:00</time>
      </trkpt>
      <trkpt lat="41.79776" lon="9.22168">
        <ele>1242</ele>
        <time>2008-05-29T11:14:54+02:00</time>
      </trkpt>
      <trkpt lat="41.79778" lon="9.22161">
        <ele>1248</ele>
        <time>2008-05-29T11:15:00+02:00</time>
      </trkpt>
      <trkpt lat="41.79779" lon="9.22154">
        <ele>1250</ele>
        <time>2008-05-29T11:15:07+02:00</time>
      </trkpt>
      <trkpt lat="41.79782" lon="9.2215">
        <ele>1251</ele>
        <time>2008-05-29T11:15:13+02:00</time>
      </trkpt>
      <trkpt lat="41.79782" lon="9.22145">
        <ele>1252</ele>
        <time>2008-05-29T11:15:20+02:00</time>
      </trkpt>
      <trkpt lat="41.79782" lon="9.22142">
        <ele>1252</ele>
        <time>2008-05-29T11:15:26+02:00</time>
      </trkpt>
      <trkpt lat="41.79783" lon="9.22142">
        <ele>1253</ele>
        <time>2008-05-29T11:15:34+02:00</time>
      </trkpt>
      <trkpt lat="41.79785" lon="9.22139">
        <ele>1254</ele>
        <time>2008-05-29T11:15:39+02:00</time>
      </trkpt>
      <trkpt lat="41.79789" lon="9.22136">
        <ele>1256</ele>
        <time>2008-05-29T11:15:44+02:00</time>
      </trkpt>
      <trkpt lat="41.79792" lon="9.2213">
        <ele>1257</ele>
        <time>2008-05-29T11:15:51+02:00</time>
      </trkpt>
      <trkpt lat="41.79796" lon="9.22123">
        <ele>1259</ele>
        <time>2008-05-29T11:15:59+02:00</time>
      </trkpt>
      <trkpt lat="41.79797" lon="9.22121">
        <ele>1259</ele>
        <time>2008-05-29T11:16:05+02:00</time>
      </trkpt>
      <trkpt lat="41.79796" lon="9.22117">
        <ele>1259</ele>
        <time>2008-05-29T11:16:10+02:00</time>
      </trkpt>
      <trkpt lat="41.79795" lon="9.22115">
        <ele>1259</ele>
        <time>2008-05-29T11:16:15+02:00</time>
      </trkpt>
      <trkpt lat="41.79795" lon="9.22115">
        <ele>1259</ele>
        <time>2008-05-29T11:16:24+02:00</time>
      </trkpt>
      <trkpt lat="41.79794" lon="9.22114">
        <ele>1259</ele>
        <time>2008-05-29T11:16:31+02:00</time>
      </trkpt>
      <trkpt lat="41.79793" lon="9.22114">
        <ele>1258</ele>
        <time>2008-05-29T11:16:40+02:00</time>
      </trkpt>
      <trkpt lat="41.79793" lon="9.22114">
        <ele>1258</ele>
        <time>2008-05-29T11:16:48+02:00</time>
      </trkpt>
      <trkpt lat="41.79793" lon="9.22113">
        <ele>1258</ele>
        <time>2008-05-29T11:16:56+02:00</time>
      </trkpt>
      <trkpt lat="41.79793" lon="9.22114">
        <ele>1258</ele>
        <time>2008-05-29T11:17:05+02:00</time>
      </trkpt>
      <trkpt lat="41.79793" lon="9.22114">
        <ele>1258</ele>
        <time>2008-05-29T11:17:13+02:00</time>
      </trkpt>
      <trkpt lat="41.79793" lon="9.22114">
        <ele>1258</ele>
        <time>2008-05-29T11:17:23+02:00</time>
      </trkpt>
      <trkpt lat="41.79793" lon="9.22114">
        <ele>1258</ele>
        <time>2008-05-29T11:17:29+02:00</time>
      </trkpt>
      <trkpt lat="41.79792" lon="9.22114">
        <ele>1258</ele>
        <time>2008-05-29T11:17:56+02:00</time>
      </trkpt>
      <trkpt lat="41.79791" lon="9.22114">
        <ele>1257</ele>
        <time>2008-05-29T11:18:12+02:00</time>
      </trkpt>
      <trkpt lat="41.79791" lon="9.22114">
        <ele>1257</ele>
        <time>2008-05-29T11:18:20+02:00</time>
      </trkpt>
      <trkpt lat="41.79791" lon="9.22115">
        <ele>1257</ele>
        <time>2008-05-29T11:18:29+02:00</time>
      </trkpt>
      <trkpt lat="41.79791" lon="9.22115">
        <ele>1257</ele>
        <time>2008-05-29T11:18:35+02:00</time>
      </trkpt>
      <trkpt lat="41.79792" lon="9.22116">
        <ele>1258</ele>
        <time>2008-05-29T11:18:48+02:00</time>
      </trkpt>
      <trkpt lat="41.79793" lon="9.22116">
        <ele>1258</ele>
        <time>2008-05-29T11:19:02+02:00</time>
      </trkpt>
      <trkpt lat="41.79792" lon="9.22118">
        <ele>1257</ele>
        <time>2008-05-29T11:19:30+02:00</time>
      </trkpt>
      <trkpt lat="41.79792" lon="9.22118">
        <ele>1257</ele>
        <time>2008-05-29T11:19:45+02:00</time>
      </trkpt>
      <trkpt lat="41.79792" lon="9.22117">
        <ele>1258</ele>
        <time>2008-05-29T11:19:55+02:00</time>
      </trkpt>
      <trkpt lat="41.79792" lon="9.22117">
        <ele>1258</ele>
        <time>2008-05-29T11:20:04+02:00</time>
      </trkpt>
      <trkpt lat="41.79792" lon="9.22116">
        <ele>1258</ele>
        <time>2008-05-29T11:20:09+02:00</time>
      </trkpt>
      <trkpt lat="41.79791" lon="9.22116">
        <ele>1257</ele>
        <time>2008-05-29T11:20:17+02:00</time>
      </trkpt>
      <trkpt lat="41.79791" lon="9.22115">
        <ele>1257</ele>
        <time>2008-05-29T11:20:19+02:00</time>
      </trkpt>
      <trkpt lat="41.79794" lon="9.22116">
        <ele>1258</ele>
        <time>2008-05-29T11:20:26+02:00</time>
      </trkpt>
      <trkpt lat="41.79794" lon="9.22122">
        <ele>1258</ele>
        <time>2008-05-29T11:20:33+02:00</time>
      </trkpt>
      <trkpt lat="41.79791" lon="9.22123">
        <ele>1257</ele>
        <time>2008-05-29T11:20:38+02:00</time>
      </trkpt>
      <trkpt lat="41.79823" lon="9.21858">
        <ele>1292</ele>
        <time>2008-05-29T11:52:48+02:00</time>
      </trkpt>
      <trkpt lat="41.7982" lon="9.21857">
        <ele>1292</ele>
        <time>2008-05-29T11:52:55+02:00</time>
      </trkpt>
      <trkpt lat="41.79816" lon="9.21864">
        <ele>1290</ele>
        <time>2008-05-29T11:53:07+02:00</time>
      </trkpt>
      <trkpt lat="41.79813" lon="9.21867">
        <ele>1290</ele>
        <time>2008-05-29T11:53:15+02:00</time>
      </trkpt>
      <trkpt lat="41.79811" lon="9.21868">
        <ele>1289</ele>
        <time>2008-05-29T11:53:20+02:00</time>
      </trkpt>
      <trkpt lat="41.79807" lon="9.2187">
        <ele>1288</ele>
        <time>2008-05-29T11:53:25+02:00</time>
      </trkpt>
      <trkpt lat="41.79804" lon="9.21873">
        <ele>1287</ele>
        <time>2008-05-29T11:53:30+02:00</time>
      </trkpt>
      <trkpt lat="41.79802" lon="9.21881">
        <ele>1287</ele>
        <time>2008-05-29T11:53:37+02:00</time>
      </trkpt>
      <trkpt lat="41.79801" lon="9.21887">
        <ele>1287</ele>
        <time>2008-05-29T11:53:43+02:00</time>
      </trkpt>
      <trkpt lat="41.79799" lon="9.21893">
        <ele>1287</ele>
        <time>2008-05-29T11:53:49+02:00</time>
      </trkpt>
      <trkpt lat="41.798" lon="9.21898">
        <ele>1288</ele>
        <time>2008-05-29T11:53:54+02:00</time>
      </trkpt>
      <trkpt lat="41.798" lon="9.21904">
        <ele>1289</ele>
        <time>2008-05-29T11:54:00+02:00</time>
      </trkpt>
      <trkpt lat="41.79799" lon="9.21908">
        <ele>1289</ele>
        <time>2008-05-29T11:54:06+02:00</time>
      </trkpt>
      <trkpt lat="41.79798" lon="9.21912">
        <ele>1288</ele>
        <time>2008-05-29T11:54:12+02:00</time>
      </trkpt>
      <trkpt lat="41.79798" lon="9.21921">
        <ele>1288</ele>
        <time>2008-05-29T11:54:18+02:00</time>
      </trkpt>
      <trkpt lat="41.79796" lon="9.21927">
        <ele>1287</ele>
        <time>2008-05-29T11:54:24+02:00</time>
      </trkpt>
      <trkpt lat="41.79797" lon="9.21933">
        <ele>1287</ele>
        <time>2008-05-29T11:54:30+02:00</time>
      </trkpt>
      <trkpt lat="41.79795" lon="9.21938">
        <ele>1286</ele>
        <time>2008-05-29T11:54:36+02:00</time>
      </trkpt>
      <trkpt lat="41.79794" lon="9.21944">
        <ele>1285</ele>
        <time>2008-05-29T11:54:42+02:00</time>
      </trkpt>
      <trkpt lat="41.79794" lon="9.21949">
        <ele>1284</ele>
        <time>2008-05-29T11:54:47+02:00</time>
      </trkpt>
      <trkpt lat="41.79794" lon="9.21954">
        <ele>1284</ele>
        <time>2008-05-29T11:54:54+02:00</time>
      </trkpt>
      <trkpt lat="41.79794" lon="9.2196">
        <ele>1284</ele>
        <time>2008-05-29T11:55:03+02:00</time>
      </trkpt>
      <trkpt lat="41.79795" lon="9.21962">
        <ele>1284</ele>
        <time>2008-05-29T11:55:11+02:00</time>
      </trkpt>
      <trkpt lat="41.79798" lon="9.21965">
        <ele>1285</ele>
        <time>2008-05-29T11:55:15+02:00</time>
      </trkpt>
      <trkpt lat="41.79799" lon="9.21968">
        <ele>1285</ele>
        <time>2008-05-29T11:55:20+02:00</time>
      </trkpt>
      <trkpt lat="41.79796" lon="9.2197">
        <ele>1284</ele>
        <time>2008-05-29T11:55:25+02:00</time>
      </trkpt>
      <trkpt lat="41.79794" lon="9.21972">
        <ele>1283</ele>
        <time>2008-05-29T11:55:31+02:00</time>
      </trkpt>
      <trkpt lat="41.79792" lon="9.21976">
        <ele>1282</ele>
        <time>2008-05-29T11:55:37+02:00</time>
      </trkpt>
      <trkpt lat="41.7979" lon="9.21977">
        <ele>1281</ele>
        <time>2008-05-29T11:55:42+02:00</time>
      </trkpt>
      <trkpt lat="41.79786" lon="9.21979">
        <ele>1279</ele>
        <time>2008-05-29T11:55:49+02:00</time>
      </trkpt>
      <trkpt lat="41.79785" lon="9.21982">
        <ele>1278</ele>
        <time>2008-05-29T11:55:56+02:00</time>
      </trkpt>
      <trkpt lat="41.79782" lon="9.2198">
        <ele>1277</ele>
        <time>2008-05-29T11:56:01+02:00</time>
      </trkpt>
      <trkpt lat="41.79778" lon="9.21977">
        <ele>1276</ele>
        <time>2008-05-29T11:56:07+02:00</time>
      </trkpt>
      <trkpt lat="41.79776" lon="9.21976">
        <ele>1275</ele>
        <time>2008-05-29T11:56:12+02:00</time>
      </trkpt>
      <trkpt lat="41.79773" lon="9.21975">
        <ele>1274</ele>
        <time>2008-05-29T11:56:17+02:00</time>
      </trkpt>
      <trkpt lat="41.79772" lon="9.21979">
        <ele>1272</ele>
        <time>2008-05-29T11:56:22+02:00</time>
      </trkpt>
      <trkpt lat="41.79772" lon="9.21981">
        <ele>1272</ele>
        <time>2008-05-29T11:56:27+02:00</time>
      </trkpt>
      <trkpt lat="41.79769" lon="9.21985">
        <ele>1269</ele>
        <time>2008-05-29T11:56:35+02:00</time>
      </trkpt>
      <trkpt lat="41.79765" lon="9.21983">
        <ele>1267</ele>
        <time>2008-05-29T11:56:41+02:00</time>
      </trkpt>
      <trkpt lat="41.79763" lon="9.21987">
        <ele>1265</ele>
        <time>2008-05-29T11:56:47+02:00</time>
      </trkpt>
      <trkpt lat="41.79762" lon="9.2199">
        <ele>1263</ele>
        <time>2008-05-29T11:56:54+02:00</time>
      </trkpt>
      <trkpt lat="41.79762" lon="9.21993">
        <ele>1262</ele>
        <time>2008-05-29T11:56:59+02:00</time>
      </trkpt>
      <trkpt lat="41.79762" lon="9.21997">
        <ele>1260</ele>
        <time>2008-05-29T11:57:05+02:00</time>
      </trkpt>
      <trkpt lat="41.79761" lon="9.21997">
        <ele>1259</ele>
        <time>2008-05-29T11:57:11+02:00</time>
      </trkpt>
      <trkpt lat="41.7976" lon="9.21999">
        <ele>1257</ele>
        <time>2008-05-29T11:57:16+02:00</time>
      </trkpt>
      <trkpt lat="41.79756" lon="9.22">
        <ele>1254</ele>
        <time>2008-05-29T11:57:23+02:00</time>
      </trkpt>
      <trkpt lat="41.79756" lon="9.22004">
        <ele>1251</ele>
        <time>2008-05-29T11:57:31+02:00</time>
      </trkpt>
      <trkpt lat="41.79754" lon="9.22006">
        <ele>1251</ele>
        <time>2008-05-29T11:57:36+02:00</time>
      </trkpt>
      <trkpt lat="41.79751" lon="9.22007">
        <ele>1251</ele>
        <time>2008-05-29T11:57:43+02:00</time>
      </trkpt>
      <trkpt lat="41.7975" lon="9.2201">
        <ele>1235</ele>
        <time>2008-05-29T11:57:48+02:00</time>
      </trkpt>
      <trkpt lat="41.7975" lon="9.22013">
        <ele>1233</ele>
        <time>2008-05-29T11:57:52+02:00</time>
      </trkpt>
      <trkpt lat="41.79748" lon="9.22015">
        <ele>1232</ele>
        <time>2008-05-29T11:57:57+02:00</time>
      </trkpt>
      <trkpt lat="41.79743" lon="9.22017">
        <ele>1229</ele>
        <time>2008-05-29T11:58:05+02:00</time>
      </trkpt>
      <trkpt lat="41.79743" lon="9.22021">
        <ele>1227</ele>
        <time>2008-05-29T11:58:12+02:00</time>
      </trkpt>
      <trkpt lat="41.79743" lon="9.22024">
        <ele>1226</ele>
        <time>2008-05-29T11:58:17+02:00</time>
      </trkpt>
      <trkpt lat="41.79746" lon="9.22027">
        <ele>1226</ele>
        <time>2008-05-29T11:58:22+02:00</time>
      </trkpt>
      <trkpt lat="41.79747" lon="9.22028">
        <ele>1225</ele>
        <time>2008-05-29T11:58:28+02:00</time>
      </trkpt>
      <trkpt lat="41.79746" lon="9.2203">
        <ele>1225</ele>
        <time>2008-05-29T11:58:32+02:00</time>
      </trkpt>
      <trkpt lat="41.79748" lon="9.22035">
        <ele>1224</ele>
        <time>2008-05-29T11:58:38+02:00</time>
      </trkpt>
      <trkpt lat="41.79748" lon="9.22041">
        <ele>1223</ele>
        <time>2008-05-29T11:58:44+02:00</time>
      </trkpt>
      <trkpt lat="41.7975" lon="9.22045">
        <ele>1223</ele>
        <time>2008-05-29T11:58:49+02:00</time>
      </trkpt>
      <trkpt lat="41.7975" lon="9.22048">
        <ele>1222</ele>
        <time>2008-05-29T11:58:54+02:00</time>
      </trkpt>
      <trkpt lat="41.79749" lon="9.22051">
        <ele>1222</ele>
        <time>2008-05-29T11:58:58+02:00</time>
      </trkpt>
      <trkpt lat="41.79751" lon="9.22055">
        <ele>1255</ele>
        <time>2008-05-29T11:59:02+02:00</time>
      </trkpt>
      <trkpt lat="41.79751" lon="9.22063">
        <ele>1251</ele>
        <time>2008-05-29T11:59:08+02:00</time>
      </trkpt>
      <trkpt lat="41.79751" lon="9.22064">
        <ele>1250</ele>
        <time>2008-05-29T11:59:09+02:00</time>
      </trkpt>
      <trkpt lat="41.79752" lon="9.22069">
        <ele>1248</ele>
        <time>2008-05-29T11:59:16+02:00</time>
      </trkpt>
      <trkpt lat="41.79752" lon="9.22073">
        <ele>1244</ele>
        <time>2008-05-29T11:59:22+02:00</time>
      </trkpt>
      <trkpt lat="41.79751" lon="9.22078">
        <ele>1240</ele>
        <time>2008-05-29T11:59:27+02:00</time>
      </trkpt>
      <trkpt lat="41.79749" lon="9.22085">
        <ele>1230</ele>
        <time>2008-05-29T11:59:34+02:00</time>
      </trkpt>
      <trkpt lat="41.79748" lon="9.2209">
        <ele>1226</ele>
        <time>2008-05-29T11:59:39+02:00</time>
      </trkpt>
      <trkpt lat="41.79747" lon="9.22096">
        <ele>1222</ele>
        <time>2008-05-29T11:59:44+02:00</time>
      </trkpt>
      <trkpt lat="41.79748" lon="9.22102">
        <ele>1219</ele>
        <time>2008-05-29T11:59:51+02:00</time>
      </trkpt>
      <trkpt lat="41.79747" lon="9.22105">
        <ele>1218</ele>
        <time>2008-05-29T11:59:56+02:00</time>
      </trkpt>
      <trkpt lat="41.79745" lon="9.22108">
        <ele>1217</ele>
        <time>2008-05-29T12:00:01+02:00</time>
      </trkpt>
      <trkpt lat="41.79742" lon="9.22109">
        <ele>1216</ele>
        <time>2008-05-29T12:00:08+02:00</time>
      </trkpt>
      <trkpt lat="41.79742" lon="9.22112">
        <ele>1216</ele>
        <time>2008-05-29T12:00:13+02:00</time>
      </trkpt>
      <trkpt lat="41.79742" lon="9.22118">
        <ele>1215</ele>
        <time>2008-05-29T12:00:19+02:00</time>
      </trkpt>
      <trkpt lat="41.7974" lon="9.22122">
        <ele>1214</ele>
        <time>2008-05-29T12:00:24+02:00</time>
      </trkpt>
      <trkpt lat="41.7974" lon="9.22127">
        <ele>1214</ele>
        <time>2008-05-29T12:00:30+02:00</time>
      </trkpt>
      <trkpt lat="41.79739" lon="9.22134">
        <ele>1214</ele>
        <time>2008-05-29T12:00:37+02:00</time>
      </trkpt>
      <trkpt lat="41.79736" lon="9.22137">
        <ele>1213</ele>
        <time>2008-05-29T12:00:43+02:00</time>
      </trkpt>
      <trkpt lat="41.79733" lon="9.22138">
        <ele>1213</ele>
        <time>2008-05-29T12:00:49+02:00</time>
      </trkpt>
      <trkpt lat="41.79733" lon="9.22143">
        <ele>1213</ele>
        <time>2008-05-29T12:00:54+02:00</time>
      </trkpt>
      <trkpt lat="41.79731" lon="9.22146">
        <ele>1213</ele>
        <time>2008-05-29T12:00:59+02:00</time>
      </trkpt>
      <trkpt lat="41.7973" lon="9.22151">
        <ele>1213</ele>
        <time>2008-05-29T12:01:04+02:00</time>
      </trkpt>
      <trkpt lat="41.79729" lon="9.22157">
        <ele>1214</ele>
        <time>2008-05-29T12:01:09+02:00</time>
      </trkpt>
      <trkpt lat="41.79727" lon="9.22163">
        <ele>1213</ele>
        <time>2008-05-29T12:01:14+02:00</time>
      </trkpt>
      <trkpt lat="41.79726" lon="9.22168">
        <ele>1215</ele>
        <time>2008-05-29T12:01:18+02:00</time>
      </trkpt>
      <trkpt lat="41.79724" lon="9.22173">
        <ele>1215</ele>
        <time>2008-05-29T12:01:24+02:00</time>
      </trkpt>
      <trkpt lat="41.79721" lon="9.22175">
        <ele>1214</ele>
        <time>2008-05-29T12:01:30+02:00</time>
      </trkpt>
      <trkpt lat="41.79718" lon="9.2218">
        <ele>1213</ele>
        <time>2008-05-29T12:01:37+02:00</time>
      </trkpt>
      <trkpt lat="41.79715" lon="9.22185">
        <ele>1212</ele>
        <time>2008-05-29T12:01:43+02:00</time>
      </trkpt>
      <trkpt lat="41.79712" lon="9.22188">
        <ele>1212</ele>
        <time>2008-05-29T12:01:49+02:00</time>
      </trkpt>
      <trkpt lat="41.79708" lon="9.22195">
        <ele>1211</ele>
        <time>2008-05-29T12:01:56+02:00</time>
      </trkpt>
      <trkpt lat="41.79701" lon="9.2221">
        <ele>1211</ele>
        <time>2008-05-29T12:02:02+02:00</time>
      </trkpt>
      <trkpt lat="41.797" lon="9.22216">
        <ele>1211</ele>
        <time>2008-05-29T12:02:10+02:00</time>
      </trkpt>
      <trkpt lat="41.79698" lon="9.22223">
        <ele>1211</ele>
        <time>2008-05-29T12:02:16+02:00</time>
      </trkpt>
      <trkpt lat="41.79696" lon="9.2223">
        <ele>1211</ele>
        <time>2008-05-29T12:02:23+02:00</time>
      </trkpt>
      <trkpt lat="41.79696" lon="9.22237">
        <ele>1211</ele>
        <time>2008-05-29T12:02:30+02:00</time>
      </trkpt>
      <trkpt lat="41.79696" lon="9.22246">
        <ele>1211</ele>
        <time>2008-05-29T12:02:37+02:00</time>
      </trkpt>
      <trkpt lat="41.79695" lon="9.22254">
        <ele>1215</ele>
        <time>2008-05-29T12:02:43+02:00</time>
      </trkpt>
      <trkpt lat="41.79691" lon="9.22262">
        <ele>1215</ele>
        <time>2008-05-29T12:02:48+02:00</time>
      </trkpt>
      <trkpt lat="41.7969" lon="9.22266">
        <ele>1215</ele>
        <time>2008-05-29T12:02:54+02:00</time>
      </trkpt>
      <trkpt lat="41.79687" lon="9.22274">
        <ele>1215</ele>
        <time>2008-05-29T12:03:00+02:00</time>
      </trkpt>
      <trkpt lat="41.79686" lon="9.22278">
        <ele>1215</ele>
        <time>2008-05-29T12:03:02+02:00</time>
      </trkpt>
      <trkpt lat="41.79684" lon="9.22286">
        <ele>1216</ele>
        <time>2008-05-29T12:03:09+02:00</time>
      </trkpt>
      <trkpt lat="41.79687" lon="9.22292">
        <ele>1217</ele>
        <time>2008-05-29T12:03:16+02:00</time>
      </trkpt>
      <trkpt lat="41.79692" lon="9.22297">
        <ele>1218</ele>
        <time>2008-05-29T12:03:23+02:00</time>
      </trkpt>
      <trkpt lat="41.79696" lon="9.22303">
        <ele>1218</ele>
        <time>2008-05-29T12:03:28+02:00</time>
      </trkpt>
      <trkpt lat="41.79691" lon="9.22313">
        <ele>1218</ele>
        <time>2008-05-29T12:03:34+02:00</time>
      </trkpt>
      <trkpt lat="41.7969" lon="9.22316">
        <ele>1218</ele>
        <time>2008-05-29T12:03:36+02:00</time>
      </trkpt>
      <trkpt lat="41.79687" lon="9.22323">
        <ele>1218</ele>
        <time>2008-05-29T12:03:42+02:00</time>
      </trkpt>
      <trkpt lat="41.79687" lon="9.22324">
        <ele>1218</ele>
        <time>2008-05-29T12:03:44+02:00</time>
      </trkpt>
      <trkpt lat="41.79678" lon="9.22336">
        <ele>1217</ele>
        <time>2008-05-29T12:03:52+02:00</time>
      </trkpt>
      <trkpt lat="41.79674" lon="9.22343">
        <ele>1217</ele>
        <time>2008-05-29T12:03:58+02:00</time>
      </trkpt>
      <trkpt lat="41.79673" lon="9.22345">
        <ele>1217</ele>
        <time>2008-05-29T12:04:01+02:00</time>
      </trkpt>
      <trkpt lat="41.79672" lon="9.22352">
        <ele>1218</ele>
        <time>2008-05-29T12:04:09+02:00</time>
      </trkpt>
      <trkpt lat="41.79676" lon="9.22355">
        <ele>1218</ele>
        <time>2008-05-29T12:04:15+02:00</time>
      </trkpt>
      <trkpt lat="41.79679" lon="9.22359">
        <ele>1218</ele>
        <time>2008-05-29T12:04:20+02:00</time>
      </trkpt>
      <trkpt lat="41.79681" lon="9.22359">
        <ele>1218</ele>
        <time>2008-05-29T12:04:21+02:00</time>
      </trkpt>
      <trkpt lat="41.79684" lon="9.22364">
        <ele>1218</ele>
        <time>2008-05-29T12:04:25+02:00</time>
      </trkpt>
      <trkpt lat="41.79686" lon="9.22372">
        <ele>1218</ele>
        <time>2008-05-29T12:04:30+02:00</time>
      </trkpt>
      <trkpt lat="41.79689" lon="9.22377">
        <ele>1219</ele>
        <time>2008-05-29T12:04:34+02:00</time>
      </trkpt>
      <trkpt lat="41.7969" lon="9.22384">
        <ele>1219</ele>
        <time>2008-05-29T12:04:38+02:00</time>
      </trkpt>
      <trkpt lat="41.79692" lon="9.22391">
        <ele>1219</ele>
        <time>2008-05-29T12:04:45+02:00</time>
      </trkpt>
      <trkpt lat="41.79691" lon="9.22397">
        <ele>1219</ele>
        <time>2008-05-29T12:04:51+02:00</time>
      </trkpt>
      <trkpt lat="41.79692" lon="9.22404">
        <ele>1219</ele>
        <time>2008-05-29T12:04:58+02:00</time>
      </trkpt>
      <trkpt lat="41.79693" lon="9.22413">
        <ele>1219</ele>
        <time>2008-05-29T12:05:05+02:00</time>
      </trkpt>
      <trkpt lat="41.79692" lon="9.22419">
        <ele>1215</ele>
        <time>2008-05-29T12:05:12+02:00</time>
      </trkpt>
      <trkpt lat="41.79688" lon="9.22422">
        <ele>1216</ele>
        <time>2008-05-29T12:05:16+02:00</time>
      </trkpt>
      <trkpt lat="41.79685" lon="9.22429">
        <ele>1216</ele>
        <time>2008-05-29T12:05:19+02:00</time>
      </trkpt>
      <trkpt lat="41.79683" lon="9.22433">
        <ele>1216</ele>
        <time>2008-05-29T12:05:22+02:00</time>
      </trkpt>
      <trkpt lat="41.79678" lon="9.2244">
        <ele>1215</ele>
        <time>2008-05-29T12:05:28+02:00</time>
      </trkpt>
      <trkpt lat="41.79671" lon="9.22448">
        <ele>1215</ele>
        <time>2008-05-29T12:05:34+02:00</time>
      </trkpt>
      <trkpt lat="41.79668" lon="9.22452">
        <ele>1215</ele>
        <time>2008-05-29T12:05:38+02:00</time>
      </trkpt>
      <trkpt lat="41.79663" lon="9.22451">
        <ele>1219</ele>
        <time>2008-05-29T12:05:41+02:00</time>
      </trkpt>
      <trkpt lat="41.79656" lon="9.22456">
        <ele>1219</ele>
        <time>2008-05-29T12:05:47+02:00</time>
      </trkpt>
      <trkpt lat="41.79654" lon="9.22457">
        <ele>1219</ele>
        <time>2008-05-29T12:05:49+02:00</time>
      </trkpt>
      <trkpt lat="41.79644" lon="9.22457">
        <ele>1219</ele>
        <time>2008-05-29T12:05:57+02:00</time>
      </trkpt>
      <trkpt lat="41.79637" lon="9.22456">
        <ele>1219</ele>
        <time>2008-05-29T12:06:03+02:00</time>
      </trkpt>
      <trkpt lat="41.79632" lon="9.22455">
        <ele>1219</ele>
        <time>2008-05-29T12:06:07+02:00</time>
      </trkpt>
      <trkpt lat="41.79632" lon="9.22453">
        <ele>1219</ele>
        <time>2008-05-29T12:06:09+02:00</time>
      </trkpt>
      <trkpt lat="41.79636" lon="9.22446">
        <ele>1219</ele>
        <time>2008-05-29T12:06:16+02:00</time>
      </trkpt>
      <trkpt lat="41.79632" lon="9.22439">
        <ele>1219</ele>
        <time>2008-05-29T12:06:47+02:00</time>
      </trkpt>
      <trkpt lat="41.79629" lon="9.22441">
        <ele>1218</ele>
        <time>2008-05-29T12:06:54+02:00</time>
      </trkpt>
      <trkpt lat="41.79626" lon="9.22442">
        <ele>1218</ele>
        <time>2008-05-29T12:07:00+02:00</time>
      </trkpt>
      <trkpt lat="41.79625" lon="9.22443">
        <ele>1218</ele>
        <time>2008-05-29T12:07:02+02:00</time>
      </trkpt>
      <trkpt lat="41.79624" lon="9.22442">
        <ele>1218</ele>
        <time>2008-05-29T12:07:07+02:00</time>
      </trkpt>
      <trkpt lat="41.79629" lon="9.22442">
        <ele>1218</ele>
        <time>2008-05-29T12:07:15+02:00</time>
      </trkpt>
      <trkpt lat="41.79631" lon="9.22439">
        <ele>1219</ele>
        <time>2008-05-29T12:07:23+02:00</time>
      </trkpt>
      <trkpt lat="41.79631" lon="9.22446">
        <ele>1219</ele>
        <time>2008-05-29T12:07:36+02:00</time>
      </trkpt>
      <trkpt lat="41.79632" lon="9.22445">
        <ele>1219</ele>
        <time>2008-05-29T12:07:49+02:00</time>
      </trkpt>
      <trkpt lat="41.79632" lon="9.22443">
        <ele>1219</ele>
        <time>2008-05-29T12:08:00+02:00</time>
      </trkpt>
      <trkpt lat="41.7963" lon="9.22444">
        <ele>1219</ele>
        <time>2008-05-29T12:08:03+02:00</time>
      </trkpt>
      <trkpt lat="41.79626" lon="9.22448">
        <ele>1218</ele>
        <time>2008-05-29T12:08:11+02:00</time>
      </trkpt>
      <trkpt lat="41.79627" lon="9.22447">
        <ele>1218</ele>
        <time>2008-05-29T12:08:17+02:00</time>
      </trkpt>
      <trkpt lat="41.79627" lon="9.22446">
        <ele>1218</ele>
        <time>2008-05-29T12:08:26+02:00</time>
      </trkpt>
      <trkpt lat="41.79625" lon="9.22448">
        <ele>1218</ele>
        <time>2008-05-29T12:08:38+02:00</time>
      </trkpt>
      <trkpt lat="41.79625" lon="9.22449">
        <ele>1218</ele>
        <time>2008-05-29T12:08:43+02:00</time>
      </trkpt>
      <trkpt lat="41.79625" lon="9.22451">
        <ele>1218</ele>
        <time>2008-05-29T12:08:52+02:00</time>
      </trkpt>
      <trkpt lat="41.79625" lon="9.22452">
        <ele>1218</ele>
        <time>2008-05-29T12:09:03+02:00</time>
      </trkpt>
      <trkpt lat="41.79625" lon="9.22452">
        <ele>1218</ele>
        <time>2008-05-29T12:09:13+02:00</time>
      </trkpt>
      <trkpt lat="41.79623" lon="9.22454">
        <ele>1218</ele>
        <time>2008-05-29T12:09:20+02:00</time>
      </trkpt>
      <trkpt lat="41.79624" lon="9.22454">
        <ele>1218</ele>
        <time>2008-05-29T12:09:29+02:00</time>
      </trkpt>
      <trkpt lat="41.79623" lon="9.22453">
        <ele>1218</ele>
        <time>2008-05-29T12:09:42+02:00</time>
      </trkpt>
      <trkpt lat="41.79625" lon="9.22453">
        <ele>1218</ele>
        <time>2008-05-29T12:09:50+02:00</time>
      </trkpt>
      <trkpt lat="41.79626" lon="9.22452">
        <ele>1218</ele>
        <time>2008-05-29T12:09:59+02:00</time>
      </trkpt>
      <trkpt lat="41.79624" lon="9.22452">
        <ele>1218</ele>
        <time>2008-05-29T12:10:10+02:00</time>
      </trkpt>
      <trkpt lat="41.79624" lon="9.2245">
        <ele>1218</ele>
        <time>2008-05-29T12:10:19+02:00</time>
      </trkpt>
      <trkpt lat="41.79624" lon="9.2245">
        <ele>1218</ele>
        <time>2008-05-29T12:10:29+02:00</time>
      </trkpt>
      <trkpt lat="41.79624" lon="9.2245">
        <ele>1218</ele>
        <time>2008-05-29T12:10:48+02:00</time>
      </trkpt>
      <trkpt lat="41.79624" lon="9.2245">
        <ele>1218</ele>
        <time>2008-05-29T12:10:56+02:00</time>
      </trkpt>
      <trkpt lat="41.79624" lon="9.2245">
        <ele>1218</ele>
        <time>2008-05-29T12:11:04+02:00</time>
      </trkpt>
      <trkpt lat="41.79624" lon="9.2245">
        <ele>1218</ele>
        <time>2008-05-29T12:11:15+02:00</time>
      </trkpt>
      <trkpt lat="41.79625" lon="9.2245">
        <ele>1218</ele>
        <time>2008-05-29T12:11:21+02:00</time>
      </trkpt>
      <trkpt lat="41.79624" lon="9.22451">
        <ele>1218</ele>
        <time>2008-05-29T12:11:30+02:00</time>
      </trkpt>
      <trkpt lat="41.79623" lon="9.22453">
        <ele>1218</ele>
        <time>2008-05-29T12:11:40+02:00</time>
      </trkpt>
      <trkpt lat="41.79622" lon="9.22453">
        <ele>1218</ele>
        <time>2008-05-29T12:11:45+02:00</time>
      </trkpt>
      <trkpt lat="41.7962" lon="9.22452">
        <ele>1218</ele>
        <time>2008-05-29T12:11:51+02:00</time>
      </trkpt>
      <trkpt lat="41.79616" lon="9.22451">
        <ele>1218</ele>
        <time>2008-05-29T12:11:55+02:00</time>
      </trkpt>
      <trkpt lat="41.79612" lon="9.2245">
        <ele>1218</ele>
        <time>2008-05-29T12:11:58+02:00</time>
      </trkpt>
      <trkpt lat="41.79604" lon="9.2245">
        <ele>1218</ele>
        <time>2008-05-29T12:12:05+02:00</time>
      </trkpt>
      <trkpt lat="41.79596" lon="9.22449">
        <ele>1218</ele>
        <time>2008-05-29T12:12:12+02:00</time>
      </trkpt>
      <trkpt lat="41.79589" lon="9.22441">
        <ele>1217</ele>
        <time>2008-05-29T12:12:19+02:00</time>
      </trkpt>
      <trkpt lat="41.79584" lon="9.22439">
        <ele>1217</ele>
        <time>2008-05-29T12:12:25+02:00</time>
      </trkpt>
      <trkpt lat="41.79582" lon="9.2244">
        <ele>1221</ele>
        <time>2008-05-29T12:12:32+02:00</time>
      </trkpt>
      <trkpt lat="41.79582" lon="9.22441">
        <ele>1221</ele>
        <time>2008-05-29T12:12:44+02:00</time>
      </trkpt>
      <trkpt lat="41.79583" lon="9.22442">
        <ele>1221</ele>
        <time>2008-05-29T12:12:58+02:00</time>
      </trkpt>
      <trkpt lat="41.79582" lon="9.22443">
        <ele>1222</ele>
        <time>2008-05-29T12:13:01+02:00</time>
      </trkpt>
      <trkpt lat="41.79582" lon="9.22446">
        <ele>1222</ele>
        <time>2008-05-29T12:13:03+02:00</time>
      </trkpt>
      <trkpt lat="41.79584" lon="9.22456">
        <ele>1218</ele>
        <time>2008-05-29T12:13:08+02:00</time>
      </trkpt>
      <trkpt lat="41.79587" lon="9.22482">
        <ele>1219</ele>
        <time>2008-05-29T12:13:17+02:00</time>
      </trkpt>
      <trkpt lat="41.79587" lon="9.22507">
        <ele>1220</ele>
        <time>2008-05-29T12:13:25+02:00</time>
      </trkpt>
      <trkpt lat="41.79589" lon="9.22538">
        <ele>1218</ele>
        <time>2008-05-29T12:13:32+02:00</time>
      </trkpt>
      <trkpt lat="41.7959" lon="9.22552">
        <ele>1218</ele>
        <time>2008-05-29T12:13:37+02:00</time>
      </trkpt>
      <trkpt lat="41.79589" lon="9.22556">
        <ele>1218</ele>
        <time>2008-05-29T12:13:40+02:00</time>
      </trkpt>
      <trkpt lat="41.7959" lon="9.22559">
        <ele>1218</ele>
        <time>2008-05-29T12:13:43+02:00</time>
      </trkpt>
      <trkpt lat="41.79594" lon="9.22563">
        <ele>1218</ele>
        <time>2008-05-29T12:13:50+02:00</time>
      </trkpt>
      <trkpt lat="41.79598" lon="9.2256">
        <ele>1218</ele>
        <time>2008-05-29T12:14:07+02:00</time>
      </trkpt>
      <trkpt lat="41.79601" lon="9.22558">
        <ele>1217</ele>
        <time>2008-05-29T12:14:19+02:00</time>
      </trkpt>
      <trkpt lat="41.79602" lon="9.22557">
        <ele>1217</ele>
        <time>2008-05-29T12:14:24+02:00</time>
      </trkpt>
      <trkpt lat="41.79602" lon="9.22562">
        <ele>1218</ele>
        <time>2008-05-29T12:14:29+02:00</time>
      </trkpt>
      <trkpt lat="41.79601" lon="9.22565">
        <ele>1218</ele>
        <time>2008-05-29T12:14:31+02:00</time>
      </trkpt>
      <trkpt lat="41.79594" lon="9.22589">
        <ele>1216</ele>
        <time>2008-05-29T12:14:38+02:00</time>
      </trkpt>
      <trkpt lat="41.79592" lon="9.22602">
        <ele>1213</ele>
        <time>2008-05-29T12:14:43+02:00</time>
      </trkpt>
      <trkpt lat="41.79592" lon="9.22603">
        <ele>1213</ele>
        <time>2008-05-29T12:14:45+02:00</time>
      </trkpt>
      <trkpt lat="41.79591" lon="9.22591">
        <ele>1216</ele>
        <time>2008-05-29T12:14:51+02:00</time>
      </trkpt>
      <trkpt lat="41.79591" lon="9.2258">
        <ele>1219</ele>
        <time>2008-05-29T12:14:56+02:00</time>
      </trkpt>
      <trkpt lat="41.79592" lon="9.22563">
        <ele>1218</ele>
        <time>2008-05-29T12:15:03+02:00</time>
      </trkpt>
      <trkpt lat="41.79591" lon="9.22546">
        <ele>1218</ele>
        <time>2008-05-29T12:15:10+02:00</time>
      </trkpt>
      <trkpt lat="41.79591" lon="9.2253">
        <ele>1218</ele>
        <time>2008-05-29T12:15:16+02:00</time>
      </trkpt>
      <trkpt lat="41.79589" lon="9.2251">
        <ele>1219</ele>
        <time>2008-05-29T12:15:23+02:00</time>
      </trkpt>
      <trkpt lat="41.79589" lon="9.22492">
        <ele>1220</ele>
        <time>2008-05-29T12:15:30+02:00</time>
      </trkpt>
      <trkpt lat="41.79587" lon="9.22471">
        <ele>1219</ele>
        <time>2008-05-29T12:15:37+02:00</time>
      </trkpt>
      <trkpt lat="41.79583" lon="9.22445">
        <ele>1222</ele>
        <time>2008-05-29T12:15:45+02:00</time>
      </trkpt>
      <trkpt lat="41.79584" lon="9.22438">
        <ele>1217</ele>
        <time>2008-05-29T12:15:49+02:00</time>
      </trkpt>
      <trkpt lat="41.79584" lon="9.22438">
        <ele>1217</ele>
        <time>2008-05-29T12:15:57+02:00</time>
      </trkpt>
      <trkpt lat="41.79583" lon="9.22436">
        <ele>1220</ele>
        <time>2008-05-29T12:15:59+02:00</time>
      </trkpt>
      <trkpt lat="41.79581" lon="9.22421">
        <ele>1217</ele>
        <time>2008-05-29T12:16:04+02:00</time>
      </trkpt>
      <trkpt lat="41.79577" lon="9.22393">
        <ele>1217</ele>
        <time>2008-05-29T12:16:10+02:00</time>
      </trkpt>
      <trkpt lat="41.79571" lon="9.22361">
        <ele>1216</ele>
        <time>2008-05-29T12:16:15+02:00</time>
      </trkpt>
      <trkpt lat="41.79555" lon="9.22321">
        <ele>1208</ele>
        <time>2008-05-29T12:16:20+02:00</time>
      </trkpt>
      <trkpt lat="41.79531" lon="9.22275">
        <ele>1205</ele>
        <time>2008-05-29T12:16:25+02:00</time>
      </trkpt>
      <trkpt lat="41.79499" lon="9.22248">
        <ele>1199</ele>
        <time>2008-05-29T12:16:29+02:00</time>
      </trkpt>
      <trkpt lat="41.7946" lon="9.22236">
        <ele>1190</ele>
        <time>2008-05-29T12:16:33+02:00</time>
      </trkpt>
      <trkpt lat="41.79391" lon="9.22236">
        <ele>1189</ele>
        <time>2008-05-29T12:16:40+02:00</time>
      </trkpt>
      <trkpt lat="41.79352" lon="9.22243">
        <ele>1191</ele>
        <time>2008-05-29T12:16:44+02:00</time>
      </trkpt>
      <trkpt lat="41.79294" lon="9.22232">
        <ele>1191</ele>
        <time>2008-05-29T12:16:50+02:00</time>
      </trkpt>
      <trkpt lat="41.79262" lon="9.22211">
        <ele>1189</ele>
        <time>2008-05-29T12:16:54+02:00</time>
      </trkpt>
      <trkpt lat="41.79218" lon="9.2219">
        <ele>1190</ele>
        <time>2008-05-29T12:17:00+02:00</time>
      </trkpt>
      <trkpt lat="41.79154" lon="9.22173">
        <ele>1186</ele>
        <time>2008-05-29T12:17:09+02:00</time>
      </trkpt>
      <trkpt lat="41.79148" lon="9.22171">
        <ele>1187</ele>
        <time>2008-05-29T12:17:10+02:00</time>
      </trkpt>
      <trkpt lat="41.79121" lon="9.22176">
        <ele>1188</ele>
        <time>2008-05-29T12:17:14+02:00</time>
      </trkpt>
      <trkpt lat="41.7909" lon="9.22196">
        <ele>1189</ele>
        <time>2008-05-29T12:17:19+02:00</time>
      </trkpt>
      <trkpt lat="41.7906" lon="9.22202">
        <ele>1189</ele>
        <time>2008-05-29T12:17:24+02:00</time>
      </trkpt>
      <trkpt lat="41.79054" lon="9.22201">
        <ele>1189</ele>
        <time>2008-05-29T12:17:25+02:00</time>
      </trkpt>
      <trkpt lat="41.79013" lon="9.22193">
        <ele>1186</ele>
        <time>2008-05-29T12:17:32+02:00</time>
      </trkpt>
      <trkpt lat="41.79001" lon="9.22191">
        <ele>1185</ele>
        <time>2008-05-29T12:17:34+02:00</time>
      </trkpt>
      <trkpt lat="41.7899" lon="9.22186">
        <ele>1187</ele>
        <time>2008-05-29T12:17:36+02:00</time>
      </trkpt>
      <trkpt lat="41.78943" lon="9.22178">
        <ele>1191</ele>
        <time>2008-05-29T12:17:43+02:00</time>
      </trkpt>
      <trkpt lat="41.78912" lon="9.22169">
        <ele>1188</ele>
        <time>2008-05-29T12:17:47+02:00</time>
      </trkpt>
      <trkpt lat="41.78875" lon="9.22148">
        <ele>1178</ele>
        <time>2008-05-29T12:17:52+02:00</time>
      </trkpt>
      <trkpt lat="41.78823" lon="9.22124">
        <ele>1189</ele>
        <time>2008-05-29T12:17:58+02:00</time>
      </trkpt>
      <trkpt lat="41.78776" lon="9.22077">
        <ele>1170</ele>
        <time>2008-05-29T12:18:04+02:00</time>
      </trkpt>
      <trkpt lat="41.78731" lon="9.2204">
        <ele>1172</ele>
        <time>2008-05-29T12:18:09+02:00</time>
      </trkpt>
      <trkpt lat="41.78673" lon="9.2201">
        <ele>1165</ele>
        <time>2008-05-29T12:18:15+02:00</time>
      </trkpt>
      <trkpt lat="41.78612" lon="9.21984">
        <ele>1152</ele>
        <time>2008-05-29T12:18:21+02:00</time>
      </trkpt>
      <trkpt lat="41.78602" lon="9.21978">
        <ele>1153</ele>
        <time>2008-05-29T12:18:22+02:00</time>
      </trkpt>
      <trkpt lat="41.7856" lon="9.21967">
        <ele>1158</ele>
        <time>2008-05-29T12:18:26+02:00</time>
      </trkpt>
      <trkpt lat="41.78521" lon="9.21948">
        <ele>1155</ele>
        <time>2008-05-29T12:18:30+02:00</time>
      </trkpt>
      <trkpt lat="41.78474" lon="9.21922">
        <ele>1156</ele>
        <time>2008-05-29T12:18:35+02:00</time>
      </trkpt>
      <trkpt lat="41.78455" lon="9.21912">
        <ele>1128</ele>
        <time>2008-05-29T12:18:37+02:00</time>
      </trkpt>
      <trkpt lat="41.78407" lon="9.21905">
        <ele>1133</ele>
        <time>2008-05-29T12:18:42+02:00</time>
      </trkpt>
      <trkpt lat="41.78361" lon="9.21911">
        <ele>1127</ele>
        <time>2008-05-29T12:18:47+02:00</time>
      </trkpt>
      <trkpt lat="41.78342" lon="9.21915">
        <ele>1134</ele>
        <time>2008-05-29T12:18:49+02:00</time>
      </trkpt>
      <trkpt lat="41.78325" lon="9.21921">
        <ele>1148</ele>
        <time>2008-05-29T12:18:51+02:00</time>
      </trkpt>
      <trkpt lat="41.78293" lon="9.2192">
        <ele>1153</ele>
        <time>2008-05-29T12:18:55+02:00</time>
      </trkpt>
      <trkpt lat="41.78275" lon="9.21917">
        <ele>1151</ele>
        <time>2008-05-29T12:18:58+02:00</time>
      </trkpt>
      <trkpt lat="41.78266" lon="9.21914">
        <ele>1128</ele>
        <time>2008-05-29T12:19:00+02:00</time>
      </trkpt>
      <trkpt lat="41.78253" lon="9.21913">
        <ele>1135</ele>
        <time>2008-05-29T12:19:04+02:00</time>
      </trkpt>
      <trkpt lat="41.78242" lon="9.21912">
        <ele>1133</ele>
        <time>2008-05-29T12:19:08+02:00</time>
      </trkpt>
      <trkpt lat="41.7823" lon="9.21911">
        <ele>1127</ele>
        <time>2008-05-29T12:19:14+02:00</time>
      </trkpt>
      <trkpt lat="41.78222" lon="9.21915">
        <ele>1126</ele>
        <time>2008-05-29T12:19:19+02:00</time>
      </trkpt>
      <trkpt lat="41.78217" lon="9.21929">
        <ele>1150</ele>
        <time>2008-05-29T12:19:24+02:00</time>
      </trkpt>
      <trkpt lat="41.78204" lon="9.21941">
        <ele>1152</ele>
        <time>2008-05-29T12:19:28+02:00</time>
      </trkpt>
      <trkpt lat="41.78192" lon="9.21938">
        <ele>1151</ele>
        <time>2008-05-29T12:19:31+02:00</time>
      </trkpt>
      <trkpt lat="41.78176" lon="9.21926">
        <ele>1146</ele>
        <time>2008-05-29T12:19:36+02:00</time>
      </trkpt>
      <trkpt lat="41.78158" lon="9.21916">
        <ele>1133</ele>
        <time>2008-05-29T12:19:41+02:00</time>
      </trkpt>
      <trkpt lat="41.78146" lon="9.21909">
        <ele>1126</ele>
        <time>2008-05-29T12:19:44+02:00</time>
      </trkpt>
      <trkpt lat="41.78122" lon="9.21913">
        <ele>1122</ele>
        <time>2008-05-29T12:19:49+02:00</time>
      </trkpt>
      <trkpt lat="41.78117" lon="9.21918">
        <ele>1145</ele>
        <time>2008-05-29T12:19:50+02:00</time>
      </trkpt>
      <trkpt lat="41.78108" lon="9.21929">
        <ele>1145</ele>
        <time>2008-05-29T12:19:52+02:00</time>
      </trkpt>
      <trkpt lat="41.78083" lon="9.21942">
        <ele>1143</ele>
        <time>2008-05-29T12:19:56+02:00</time>
      </trkpt>
      <trkpt lat="41.78075" lon="9.21942">
        <ele>1144</ele>
        <time>2008-05-29T12:19:57+02:00</time>
      </trkpt>
      <trkpt lat="41.78027" lon="9.21943">
        <ele>1144</ele>
        <time>2008-05-29T12:20:03+02:00</time>
      </trkpt>
      <trkpt lat="41.78009" lon="9.21944">
        <ele>1143</ele>
        <time>2008-05-29T12:20:05+02:00</time>
      </trkpt>
      <trkpt lat="41.77961" lon="9.21934">
        <ele>1147</ele>
        <time>2008-05-29T12:20:10+02:00</time>
      </trkpt>
      <trkpt lat="41.77942" lon="9.21931">
        <ele>1148</ele>
        <time>2008-05-29T12:20:12+02:00</time>
      </trkpt>
      <trkpt lat="41.77908" lon="9.21902">
        <ele>1141</ele>
        <time>2008-05-29T12:20:16+02:00</time>
      </trkpt>
      <trkpt lat="41.77897" lon="9.21876">
        <ele>1138</ele>
        <time>2008-05-29T12:20:18+02:00</time>
      </trkpt>
      <trkpt lat="41.77877" lon="9.21825">
        <ele>1114</ele>
        <time>2008-05-29T12:20:22+02:00</time>
      </trkpt>
      <trkpt lat="41.77849" lon="9.21796">
        <ele>1113</ele>
        <time>2008-05-29T12:20:25+02:00</time>
      </trkpt>
      <trkpt lat="41.77818" lon="9.21773">
        <ele>1121</ele>
        <time>2008-05-29T12:20:28+02:00</time>
      </trkpt>
      <trkpt lat="41.77784" lon="9.21727">
        <ele>1105</ele>
        <time>2008-05-29T12:20:32+02:00</time>
      </trkpt>
      <trkpt lat="41.77744" lon="9.21688">
        <ele>1110</ele>
        <time>2008-05-29T12:20:36+02:00</time>
      </trkpt>
      <trkpt lat="41.77723" lon="9.21667">
        <ele>1110</ele>
        <time>2008-05-29T12:20:38+02:00</time>
      </trkpt>
      <trkpt lat="41.77678" lon="9.21651">
        <ele>1099</ele>
        <time>2008-05-29T12:20:42+02:00</time>
      </trkpt>
      <trkpt lat="41.77655" lon="9.21629">
        <ele>1106</ele>
        <time>2008-05-29T12:20:45+02:00</time>
      </trkpt>
      <trkpt lat="41.77648" lon="9.21603">
        <ele>1100</ele>
        <time>2008-05-29T12:20:47+02:00</time>
      </trkpt>
      <trkpt lat="41.77622" lon="9.21574">
        <ele>1087</ele>
        <time>2008-05-29T12:20:50+02:00</time>
      </trkpt>
      <trkpt lat="41.77602" lon="9.21559">
        <ele>1090</ele>
        <time>2008-05-29T12:20:52+02:00</time>
      </trkpt>
      <trkpt lat="41.77568" lon="9.21516">
        <ele>1095</ele>
        <time>2008-05-29T12:20:56+02:00</time>
      </trkpt>
      <trkpt lat="41.77561" lon="9.21502">
        <ele>1094</ele>
        <time>2008-05-29T12:20:57+02:00</time>
      </trkpt>
      <trkpt lat="41.7755" lon="9.21474">
        <ele>1077</ele>
        <time>2008-05-29T12:20:59+02:00</time>
      </trkpt>
      <trkpt lat="41.77513" lon="9.21434">
        <ele>1071</ele>
        <time>2008-05-29T12:21:03+02:00</time>
      </trkpt>
      <trkpt lat="41.77491" lon="9.21433">
        <ele>1076</ele>
        <time>2008-05-29T12:21:05+02:00</time>
      </trkpt>
      <trkpt lat="41.77473" lon="9.21443">
        <ele>1082</ele>
        <time>2008-05-29T12:21:07+02:00</time>
      </trkpt>
      <trkpt lat="41.77458" lon="9.21453">
        <ele>1085</ele>
        <time>2008-05-29T12:21:09+02:00</time>
      </trkpt>
      <trkpt lat="41.77432" lon="9.21451">
        <ele>1086</ele>
        <time>2008-05-29T12:21:13+02:00</time>
      </trkpt>
      <trkpt lat="41.77427" lon="9.21428">
        <ele>1083</ele>
        <time>2008-05-29T12:21:15+02:00</time>
      </trkpt>
      <trkpt lat="41.77424" lon="9.21391">
        <ele>1068</ele>
        <time>2008-05-29T12:21:18+02:00</time>
      </trkpt>
      <trkpt lat="41.77412" lon="9.21356">
        <ele>1084</ele>
        <time>2008-05-29T12:21:21+02:00</time>
      </trkpt>
      <trkpt lat="41.774" lon="9.21321">
        <ele>1074</ele>
        <time>2008-05-29T12:21:24+02:00</time>
      </trkpt>
      <trkpt lat="41.77393" lon="9.21254">
        <ele>1067</ele>
        <time>2008-05-29T12:21:29+02:00</time>
      </trkpt>
      <trkpt lat="41.77372" lon="9.2119">
        <ele>1055</ele>
        <time>2008-05-29T12:21:34+02:00</time>
      </trkpt>
      <trkpt lat="41.77355" lon="9.21157">
        <ele>1042</ele>
        <time>2008-05-29T12:21:37+02:00</time>
      </trkpt>
      <trkpt lat="41.77323" lon="9.21132">
        <ele>1050</ele>
        <time>2008-05-29T12:21:41+02:00</time>
      </trkpt>
      <trkpt lat="41.77285" lon="9.21125">
        <ele>1049</ele>
        <time>2008-05-29T12:21:45+02:00</time>
      </trkpt>
      <trkpt lat="41.77254" lon="9.21106">
        <ele>1043</ele>
        <time>2008-05-29T12:21:49+02:00</time>
      </trkpt>
      <trkpt lat="41.77205" lon="9.21055">
        <ele>1032</ele>
        <time>2008-05-29T12:21:55+02:00</time>
      </trkpt>
      <trkpt lat="41.77171" lon="9.21017">
        <ele>1026</ele>
        <time>2008-05-29T12:21:59+02:00</time>
      </trkpt>
      <trkpt lat="41.77127" lon="9.20997">
        <ele>1020</ele>
        <time>2008-05-29T12:22:03+02:00</time>
      </trkpt>
      <trkpt lat="41.77071" lon="9.20968">
        <ele>1035</ele>
        <time>2008-05-29T12:22:08+02:00</time>
      </trkpt>
      <trkpt lat="41.77008" lon="9.20919">
        <ele>1032</ele>
        <time>2008-05-29T12:22:14+02:00</time>
      </trkpt>
      <trkpt lat="41.76961" lon="9.20871">
        <ele>1023</ele>
        <time>2008-05-29T12:22:19+02:00</time>
      </trkpt>
      <trkpt lat="41.76909" lon="9.20811">
        <ele>1013</ele>
        <time>2008-05-29T12:22:25+02:00</time>
      </trkpt>
      <trkpt lat="41.76899" lon="9.208">
        <ele>1011</ele>
        <time>2008-05-29T12:22:26+02:00</time>
      </trkpt>
      <trkpt lat="41.76859" lon="9.20775">
        <ele>1008</ele>
        <time>2008-05-29T12:22:30+02:00</time>
      </trkpt>
      <trkpt lat="41.76851" lon="9.20771">
        <ele>1007</ele>
        <time>2008-05-29T12:22:31+02:00</time>
      </trkpt>
      <trkpt lat="41.7683" lon="9.2075">
        <ele>1003</ele>
        <time>2008-05-29T12:22:36+02:00</time>
      </trkpt>
      <trkpt lat="41.76825" lon="9.20745">
        <ele>1000</ele>
        <time>2008-05-29T12:22:38+02:00</time>
      </trkpt>
      <trkpt lat="41.7682" lon="9.2074">
        <ele>999</ele>
        <time>2008-05-29T12:22:45+02:00</time>
      </trkpt>
      <trkpt lat="41.76821" lon="9.20741">
        <ele>1000</ele>
        <time>2008-05-29T12:22:54+02:00</time>
      </trkpt>
      <trkpt lat="41.76816" lon="9.2074">
        <ele>999</ele>
        <time>2008-05-29T12:23:10+02:00</time>
      </trkpt>
      <trkpt lat="41.76808" lon="9.20741">
        <ele>999</ele>
        <time>2008-05-29T12:23:14+02:00</time>
      </trkpt>
      <trkpt lat="41.76785" lon="9.2074">
        <ele>998</ele>
        <time>2008-05-29T12:23:19+02:00</time>
      </trkpt>
      <trkpt lat="41.76755" lon="9.20736">
        <ele>999</ele>
        <time>2008-05-29T12:23:24+02:00</time>
      </trkpt>
      <trkpt lat="41.76749" lon="9.20735">
        <ele>997</ele>
        <time>2008-05-29T12:23:25+02:00</time>
      </trkpt>
      <trkpt lat="41.76631" lon="9.20672">
        <ele>985</ele>
        <time>2008-05-29T12:23:40+02:00</time>
      </trkpt>
      <trkpt lat="41.76594" lon="9.20674">
        <ele>981</ele>
        <time>2008-05-29T12:23:44+02:00</time>
      </trkpt>
      <trkpt lat="41.76518" lon="9.20713">
        <ele>978</ele>
        <time>2008-05-29T12:23:51+02:00</time>
      </trkpt>
      <trkpt lat="41.76498" lon="9.20722">
        <ele>972</ele>
        <time>2008-05-29T12:23:53+02:00</time>
      </trkpt>
      <trkpt lat="41.76474" lon="9.2074">
        <ele>972</ele>
        <time>2008-05-29T12:23:56+02:00</time>
      </trkpt>
      <trkpt lat="41.76452" lon="9.20739">
        <ele>968</ele>
        <time>2008-05-29T12:24:00+02:00</time>
      </trkpt>
      <trkpt lat="41.76449" lon="9.20723">
        <ele>967</ele>
        <time>2008-05-29T12:24:02+02:00</time>
      </trkpt>
      <trkpt lat="41.76455" lon="9.20707">
        <ele>966</ele>
        <time>2008-05-29T12:24:04+02:00</time>
      </trkpt>
      <trkpt lat="41.76475" lon="9.20693">
        <ele>966</ele>
        <time>2008-05-29T12:24:07+02:00</time>
      </trkpt>
      <trkpt lat="41.76484" lon="9.2069">
        <ele>967</ele>
        <time>2008-05-29T12:24:08+02:00</time>
      </trkpt>
      <trkpt lat="41.76521" lon="9.20677">
        <ele>973</ele>
        <time>2008-05-29T12:24:12+02:00</time>
      </trkpt>
      <trkpt lat="41.76556" lon="9.20649">
        <ele>966</ele>
        <time>2008-05-29T12:24:16+02:00</time>
      </trkpt>
      <trkpt lat="41.76572" lon="9.20615">
        <ele>963</ele>
        <time>2008-05-29T12:24:19+02:00</time>
      </trkpt>
      <trkpt lat="41.76592" lon="9.20565">
        <ele>956</ele>
        <time>2008-05-29T12:24:23+02:00</time>
      </trkpt>
      <trkpt lat="41.76627" lon="9.20533">
        <ele>952</ele>
        <time>2008-05-29T12:24:27+02:00</time>
      </trkpt>
      <trkpt lat="41.76662" lon="9.2054">
        <ele>954</ele>
        <time>2008-05-29T12:24:30+02:00</time>
      </trkpt>
      <trkpt lat="41.76694" lon="9.20541">
        <ele>957</ele>
        <time>2008-05-29T12:24:33+02:00</time>
      </trkpt>
      <trkpt lat="41.76736" lon="9.20511">
        <ele>954</ele>
        <time>2008-05-29T12:24:37+02:00</time>
      </trkpt>
      <trkpt lat="41.76745" lon="9.20499">
        <ele>948</ele>
        <time>2008-05-29T12:24:38+02:00</time>
      </trkpt>
      <trkpt lat="41.76785" lon="9.20445">
        <ele>943</ele>
        <time>2008-05-29T12:24:43+02:00</time>
      </trkpt>
      <trkpt lat="41.76796" lon="9.2039">
        <ele>932</ele>
        <time>2008-05-29T12:24:47+02:00</time>
      </trkpt>
      <trkpt lat="41.76782" lon="9.20348">
        <ele>931</ele>
        <time>2008-05-29T12:24:50+02:00</time>
      </trkpt>
      <trkpt lat="41.76754" lon="9.20322">
        <ele>930</ele>
        <time>2008-05-29T12:24:53+02:00</time>
      </trkpt>
      <trkpt lat="41.76734" lon="9.20316">
        <ele>930</ele>
        <time>2008-05-29T12:24:55+02:00</time>
      </trkpt>
      <trkpt lat="41.76714" lon="9.20316">
        <ele>930</ele>
        <time>2008-05-29T12:24:57+02:00</time>
      </trkpt>
      <trkpt lat="41.7669" lon="9.20307">
        <ele>929</ele>
        <time>2008-05-29T12:25:00+02:00</time>
      </trkpt>
      <trkpt lat="41.7667" lon="9.20274">
        <ele>932</ele>
        <time>2008-05-29T12:25:04+02:00</time>
      </trkpt>
      <trkpt lat="41.76654" lon="9.20255">
        <ele>930</ele>
        <time>2008-05-29T12:25:07+02:00</time>
      </trkpt>
      <trkpt lat="41.76639" lon="9.20248">
        <ele>933</ele>
        <time>2008-05-29T12:25:09+02:00</time>
      </trkpt>
      <trkpt lat="41.76609" lon="9.20235">
        <ele>931</ele>
        <time>2008-05-29T12:25:13+02:00</time>
      </trkpt>
      <trkpt lat="41.7658" lon="9.2021">
        <ele>923</ele>
        <time>2008-05-29T12:25:18+02:00</time>
      </trkpt>
      <trkpt lat="41.76564" lon="9.20173">
        <ele>925</ele>
        <time>2008-05-29T12:25:22+02:00</time>
      </trkpt>
      <trkpt lat="41.76559" lon="9.20164">
        <ele>928</ele>
        <time>2008-05-29T12:25:23+02:00</time>
      </trkpt>
      <trkpt lat="41.76537" lon="9.20121">
        <ele>927</ele>
        <time>2008-05-29T12:25:28+02:00</time>
      </trkpt>
      <trkpt lat="41.76529" lon="9.20092">
        <ele>926</ele>
        <time>2008-05-29T12:25:31+02:00</time>
      </trkpt>
      <trkpt lat="41.76525" lon="9.20046">
        <ele>928</ele>
        <time>2008-05-29T12:25:36+02:00</time>
      </trkpt>
      <trkpt lat="41.76537" lon="9.20004">
        <ele>928</ele>
        <time>2008-05-29T12:25:40+02:00</time>
      </trkpt>
      <trkpt lat="41.76545" lon="9.19986">
        <ele>927</ele>
        <time>2008-05-29T12:25:42+02:00</time>
      </trkpt>
      <trkpt lat="41.76555" lon="9.1993">
        <ele>926</ele>
        <time>2008-05-29T12:25:48+02:00</time>
      </trkpt>
      <trkpt lat="41.76563" lon="9.19891">
        <ele>924</ele>
        <time>2008-05-29T12:25:52+02:00</time>
      </trkpt>
      <trkpt lat="41.76566" lon="9.19831">
        <ele>918</ele>
        <time>2008-05-29T12:25:58+02:00</time>
      </trkpt>
      <trkpt lat="41.7656" lon="9.19775">
        <ele>916</ele>
        <time>2008-05-29T12:26:03+02:00</time>
      </trkpt>
      <trkpt lat="41.76535" lon="9.19706">
        <ele>914</ele>
        <time>2008-05-29T12:26:09+02:00</time>
      </trkpt>
      <trkpt lat="41.76524" lon="9.19639">
        <ele>907</ele>
        <time>2008-05-29T12:26:14+02:00</time>
      </trkpt>
      <trkpt lat="41.76515" lon="9.19614">
        <ele>905</ele>
        <time>2008-05-29T12:26:16+02:00</time>
      </trkpt>
      <trkpt lat="41.76469" lon="9.19521">
        <ele>910</ele>
        <time>2008-05-29T12:26:24+02:00</time>
      </trkpt>
      <trkpt lat="41.76447" lon="9.19457">
        <ele>902</ele>
        <time>2008-05-29T12:26:29+02:00</time>
      </trkpt>
      <trkpt lat="41.76444" lon="9.19399">
        <ele>897</ele>
        <time>2008-05-29T12:26:33+02:00</time>
      </trkpt>
      <trkpt lat="41.76456" lon="9.19353">
        <ele>895</ele>
        <time>2008-05-29T12:26:36+02:00</time>
      </trkpt>
      <trkpt lat="41.76469" lon="9.19325">
        <ele>895</ele>
        <time>2008-05-29T12:26:38+02:00</time>
      </trkpt>
      <trkpt lat="41.76508" lon="9.19265">
        <ele>888</ele>
        <time>2008-05-29T12:26:43+02:00</time>
      </trkpt>
      <trkpt lat="41.76517" lon="9.19255">
        <ele>887</ele>
        <time>2008-05-29T12:26:44+02:00</time>
      </trkpt>
      <trkpt lat="41.76537" lon="9.19202">
        <ele>885</ele>
        <time>2008-05-29T12:26:48+02:00</time>
      </trkpt>
      <trkpt lat="41.76535" lon="9.19186">
        <ele>885</ele>
        <time>2008-05-29T12:26:49+02:00</time>
      </trkpt>
      <trkpt lat="41.76528" lon="9.19092">
        <ele>882</ele>
        <time>2008-05-29T12:26:55+02:00</time>
      </trkpt>
      <trkpt lat="41.76508" lon="9.19038">
        <ele>875</ele>
        <time>2008-05-29T12:26:59+02:00</time>
      </trkpt>
      <trkpt lat="41.76474" lon="9.19017">
        <ele>878</ele>
        <time>2008-05-29T12:27:02+02:00</time>
      </trkpt>
      <trkpt lat="41.7645" lon="9.19015">
        <ele>878</ele>
        <time>2008-05-29T12:27:04+02:00</time>
      </trkpt>
      <trkpt lat="41.7638" lon="9.19004">
        <ele>880</ele>
        <time>2008-05-29T12:27:10+02:00</time>
      </trkpt>
      <trkpt lat="41.76326" lon="9.18992">
        <ele>875</ele>
        <time>2008-05-29T12:27:15+02:00</time>
      </trkpt>
      <trkpt lat="41.76282" lon="9.18968">
        <ele>870</ele>
        <time>2008-05-29T12:27:19+02:00</time>
      </trkpt>
      <trkpt lat="41.76253" lon="9.18946">
        <ele>868</ele>
        <time>2008-05-29T12:27:22+02:00</time>
      </trkpt>
      <trkpt lat="41.76193" lon="9.18883">
        <ele>857</ele>
        <time>2008-05-29T12:27:29+02:00</time>
      </trkpt>
      <trkpt lat="41.7614" lon="9.18859">
        <ele>853</ele>
        <time>2008-05-29T12:27:34+02:00</time>
      </trkpt>
      <trkpt lat="41.76075" lon="9.18837">
        <ele>847</ele>
        <time>2008-05-29T12:27:40+02:00</time>
      </trkpt>
      <trkpt lat="41.76019" lon="9.18833">
        <ele>841</ele>
        <time>2008-05-29T12:27:45+02:00</time>
      </trkpt>
      <trkpt lat="41.7598" lon="9.18803">
        <ele>840</ele>
        <time>2008-05-29T12:27:49+02:00</time>
      </trkpt>
      <trkpt lat="41.75966" lon="9.18776">
        <ele>839</ele>
        <time>2008-05-29T12:27:51+02:00</time>
      </trkpt>
      <trkpt lat="41.75917" lon="9.18688">
        <ele>831</ele>
        <time>2008-05-29T12:27:58+02:00</time>
      </trkpt>
      <trkpt lat="41.75896" lon="9.18651">
        <ele>829</ele>
        <time>2008-05-29T12:28:01+02:00</time>
      </trkpt>
      <trkpt lat="41.7588" lon="9.1858">
        <ele>828</ele>
        <time>2008-05-29T12:28:06+02:00</time>
      </trkpt>
      <trkpt lat="41.75883" lon="9.1854">
        <ele>829</ele>
        <time>2008-05-29T12:28:09+02:00</time>
      </trkpt>
      <trkpt lat="41.75896" lon="9.18507">
        <ele>829</ele>
        <time>2008-05-29T12:28:12+02:00</time>
      </trkpt>
      <trkpt lat="41.75935" lon="9.18438">
        <ele>830</ele>
        <time>2008-05-29T12:28:20+02:00</time>
      </trkpt>
      <trkpt lat="41.75939" lon="9.1843">
        <ele>831</ele>
        <time>2008-05-29T12:28:21+02:00</time>
      </trkpt>
      <trkpt lat="41.75946" lon="9.18386">
        <ele>835</ele>
        <time>2008-05-29T12:28:26+02:00</time>
      </trkpt>
      <trkpt lat="41.75939" lon="9.18364">
        <ele>837</ele>
        <time>2008-05-29T12:28:29+02:00</time>
      </trkpt>
      <trkpt lat="41.75924" lon="9.18342">
        <ele>840</ele>
        <time>2008-05-29T12:28:33+02:00</time>
      </trkpt>
      <trkpt lat="41.75914" lon="9.18335">
        <ele>841</ele>
        <time>2008-05-29T12:28:35+02:00</time>
      </trkpt>
      <trkpt lat="41.7588" lon="9.18314">
        <ele>845</ele>
        <time>2008-05-29T12:28:43+02:00</time>
      </trkpt>
      <trkpt lat="41.75851" lon="9.18294">
        <ele>845</ele>
        <time>2008-05-29T12:28:51+02:00</time>
      </trkpt>
      <trkpt lat="41.75827" lon="9.18264">
        <ele>843</ele>
        <time>2008-05-29T12:29:00+02:00</time>
      </trkpt>
      <trkpt lat="41.75805" lon="9.18231">
        <ele>845</ele>
        <time>2008-05-29T12:29:09+02:00</time>
      </trkpt>
      <trkpt lat="41.75783" lon="9.18206">
        <ele>845</ele>
        <time>2008-05-29T12:29:17+02:00</time>
      </trkpt>
      <trkpt lat="41.75759" lon="9.18184">
        <ele>846</ele>
        <time>2008-05-29T12:29:25+02:00</time>
      </trkpt>
      <trkpt lat="41.75739" lon="9.18165">
        <ele>848</ele>
        <time>2008-05-29T12:29:32+02:00</time>
      </trkpt>
      <trkpt lat="41.7572" lon="9.18145">
        <ele>849</ele>
        <time>2008-05-29T12:29:39+02:00</time>
      </trkpt>
      <trkpt lat="41.75699" lon="9.18113">
        <ele>849</ele>
        <time>2008-05-29T12:29:47+02:00</time>
      </trkpt>
      <trkpt lat="41.7569" lon="9.18098">
        <ele>850</ele>
        <time>2008-05-29T12:29:50+02:00</time>
      </trkpt>
      <trkpt lat="41.75667" lon="9.18064">
        <ele>846</ele>
        <time>2008-05-29T12:29:56+02:00</time>
      </trkpt>
      <trkpt lat="41.75649" lon="9.18033">
        <ele>852</ele>
        <time>2008-05-29T12:30:00+02:00</time>
      </trkpt>
      <trkpt lat="41.75622" lon="9.17983">
        <ele>844</ele>
        <time>2008-05-29T12:30:06+02:00</time>
      </trkpt>
      <trkpt lat="41.756" lon="9.17932">
        <ele>842</ele>
        <time>2008-05-29T12:30:11+02:00</time>
      </trkpt>
      <trkpt lat="41.75579" lon="9.17894">
        <ele>842</ele>
        <time>2008-05-29T12:30:15+02:00</time>
      </trkpt>
      <trkpt lat="41.75543" lon="9.1786">
        <ele>841</ele>
        <time>2008-05-29T12:30:20+02:00</time>
      </trkpt>
      <trkpt lat="41.7547" lon="9.17817">
        <ele>834</ele>
        <time>2008-05-29T12:30:28+02:00</time>
      </trkpt>
      <trkpt lat="41.75405" lon="9.17781">
        <ele>836</ele>
        <time>2008-05-29T12:30:35+02:00</time>
      </trkpt>
      <trkpt lat="41.75375" lon="9.17768">
        <ele>836</ele>
        <time>2008-05-29T12:30:38+02:00</time>
      </trkpt>
      <trkpt lat="41.75349" lon="9.17725">
        <ele>831</ele>
        <time>2008-05-29T12:30:42+02:00</time>
      </trkpt>
      <trkpt lat="41.75349" lon="9.17701">
        <ele>830</ele>
        <time>2008-05-29T12:30:44+02:00</time>
      </trkpt>
      <trkpt lat="41.75358" lon="9.1768">
        <ele>829</ele>
        <time>2008-05-29T12:30:46+02:00</time>
      </trkpt>
      <trkpt lat="41.75371" lon="9.17665">
        <ele>831</ele>
        <time>2008-05-29T12:30:48+02:00</time>
      </trkpt>
      <trkpt lat="41.75424" lon="9.17618">
        <ele>821</ele>
        <time>2008-05-29T12:30:55+02:00</time>
      </trkpt>
      <trkpt lat="41.75472" lon="9.17579">
        <ele>817</ele>
        <time>2008-05-29T12:31:01+02:00</time>
      </trkpt>
      <trkpt lat="41.75496" lon="9.17541">
        <ele>815</ele>
        <time>2008-05-29T12:31:05+02:00</time>
      </trkpt>
      <trkpt lat="41.75498" lon="9.17505">
        <ele>810</ele>
        <time>2008-05-29T12:31:08+02:00</time>
      </trkpt>
      <trkpt lat="41.75487" lon="9.1748">
        <ele>809</ele>
        <time>2008-05-29T12:31:10+02:00</time>
      </trkpt>
      <trkpt lat="41.75467" lon="9.17445">
        <ele>808</ele>
        <time>2008-05-29T12:31:13+02:00</time>
      </trkpt>
      <trkpt lat="41.75449" lon="9.17425">
        <ele>809</ele>
        <time>2008-05-29T12:31:15+02:00</time>
      </trkpt>
      <trkpt lat="41.75393" lon="9.17371">
        <ele>806</ele>
        <time>2008-05-29T12:31:21+02:00</time>
      </trkpt>
      <trkpt lat="41.75343" lon="9.17336">
        <ele>804</ele>
        <time>2008-05-29T12:31:26+02:00</time>
      </trkpt>
      <trkpt lat="41.75293" lon="9.17303">
        <ele>795</ele>
        <time>2008-05-29T12:31:31+02:00</time>
      </trkpt>
      <trkpt lat="41.75244" lon="9.17272">
        <ele>793</ele>
        <time>2008-05-29T12:31:36+02:00</time>
      </trkpt>
      <trkpt lat="41.75216" lon="9.17248">
        <ele>779</ele>
        <time>2008-05-29T12:31:39+02:00</time>
      </trkpt>
      <trkpt lat="41.75174" lon="9.17229">
        <ele>780</ele>
        <time>2008-05-29T12:31:43+02:00</time>
      </trkpt>
      <trkpt lat="41.75127" lon="9.1721">
        <ele>782</ele>
        <time>2008-05-29T12:31:48+02:00</time>
      </trkpt>
      <trkpt lat="41.75111" lon="9.172">
        <ele>781</ele>
        <time>2008-05-29T12:31:50+02:00</time>
      </trkpt>
      <trkpt lat="41.75093" lon="9.17184">
        <ele>780</ele>
        <time>2008-05-29T12:31:54+02:00</time>
      </trkpt>
      <trkpt lat="41.7509" lon="9.17177">
        <ele>779</ele>
        <time>2008-05-29T12:31:56+02:00</time>
      </trkpt>
      <trkpt lat="41.7509" lon="9.17173">
        <ele>779</ele>
        <time>2008-05-29T12:32:03+02:00</time>
      </trkpt>
      <trkpt lat="41.7509" lon="9.17174">
        <ele>779</ele>
        <time>2008-05-29T12:32:12+02:00</time>
      </trkpt>
      <trkpt lat="41.75091" lon="9.17172">
        <ele>779</ele>
        <time>2008-05-29T12:33:15+02:00</time>
      </trkpt>
      <trkpt lat="41.75081" lon="9.17157">
        <ele>777</ele>
        <time>2008-05-29T12:33:21+02:00</time>
      </trkpt>
      <trkpt lat="41.75062" lon="9.17133">
        <ele>775</ele>
        <time>2008-05-29T12:33:28+02:00</time>
      </trkpt>
      <trkpt lat="41.75042" lon="9.17113">
        <ele>774</ele>
        <time>2008-05-29T12:33:33+02:00</time>
      </trkpt>
      <trkpt lat="41.75015" lon="9.17089">
        <ele>775</ele>
        <time>2008-05-29T12:33:39+02:00</time>
      </trkpt>
      <trkpt lat="41.74997" lon="9.17058">
        <ele>771</ele>
        <time>2008-05-29T12:33:44+02:00</time>
      </trkpt>
      <trkpt lat="41.74981" lon="9.17017">
        <ele>767</ele>
        <time>2008-05-29T12:33:49+02:00</time>
      </trkpt>
      <trkpt lat="41.74956" lon="9.16988">
        <ele>759</ele>
        <time>2008-05-29T12:33:53+02:00</time>
      </trkpt>
      <trkpt lat="41.74931" lon="9.16971">
        <ele>758</ele>
        <time>2008-05-29T12:33:56+02:00</time>
      </trkpt>
      <trkpt lat="41.74907" lon="9.1697">
        <ele>755</ele>
        <time>2008-05-29T12:33:59+02:00</time>
      </trkpt>
      <trkpt lat="41.749" lon="9.16975">
        <ele>756</ele>
        <time>2008-05-29T12:34:00+02:00</time>
      </trkpt>
      <trkpt lat="41.7487" lon="9.17005">
        <ele>762</ele>
        <time>2008-05-29T12:34:05+02:00</time>
      </trkpt>
      <trkpt lat="41.74856" lon="9.17015">
        <ele>761</ele>
        <time>2008-05-29T12:34:08+02:00</time>
      </trkpt>
      <trkpt lat="41.74853" lon="9.17017">
        <ele>760</ele>
        <time>2008-05-29T12:34:09+02:00</time>
      </trkpt>
      <trkpt lat="41.74848" lon="9.17025">
        <ele>761</ele>
        <time>2008-05-29T12:34:14+02:00</time>
      </trkpt>
      <trkpt lat="41.74846" lon="9.17026">
        <ele>761</ele>
        <time>2008-05-29T12:34:15+02:00</time>
      </trkpt>
      <trkpt lat="41.74841" lon="9.1703">
        <ele>761</ele>
        <time>2008-05-29T12:34:18+02:00</time>
      </trkpt>
      <trkpt lat="41.74839" lon="9.17033">
        <ele>762</ele>
        <time>2008-05-29T12:34:23+02:00</time>
      </trkpt>
      <trkpt lat="41.74837" lon="9.17033">
        <ele>761</ele>
        <time>2008-05-29T12:34:29+02:00</time>
      </trkpt>
      <trkpt lat="41.74838" lon="9.17033">
        <ele>761</ele>
        <time>2008-05-29T12:34:52+02:00</time>
      </trkpt>
      <trkpt lat="41.74838" lon="9.17033">
        <ele>761</ele>
        <time>2008-05-29T12:35:04+02:00</time>
      </trkpt>
      <trkpt lat="41.74833" lon="9.17035">
        <ele>762</ele>
        <time>2008-05-29T12:35:10+02:00</time>
      </trkpt>
      <trkpt lat="41.74831" lon="9.17039">
        <ele>759</ele>
        <time>2008-05-29T12:35:16+02:00</time>
      </trkpt>
      <trkpt lat="41.74834" lon="9.17035">
        <ele>762</ele>
        <time>2008-05-29T12:35:26+02:00</time>
      </trkpt>
      <trkpt lat="41.74838" lon="9.17032">
        <ele>761</ele>
        <time>2008-05-29T12:35:31+02:00</time>
      </trkpt>
      <trkpt lat="41.74843" lon="9.17028">
        <ele>761</ele>
        <time>2008-05-29T12:35:36+02:00</time>
      </trkpt>
      <trkpt lat="41.74851" lon="9.17024">
        <ele>761</ele>
        <time>2008-05-29T12:35:46+02:00</time>
      </trkpt>
      <trkpt lat="41.74856" lon="9.17023">
        <ele>761</ele>
        <time>2008-05-29T12:35:53+02:00</time>
      </trkpt>
      <trkpt lat="41.74853" lon="9.17019">
        <ele>761</ele>
        <time>2008-05-29T12:36:03+02:00</time>
      </trkpt>
      <trkpt lat="41.74852" lon="9.17019">
        <ele>761</ele>
        <time>2008-05-29T12:36:15+02:00</time>
      </trkpt>
      <trkpt lat="41.74853" lon="9.17017">
        <ele>760</ele>
        <time>2008-05-29T12:36:25+02:00</time>
      </trkpt>
      <trkpt lat="41.74853" lon="9.17016">
        <ele>760</ele>
        <time>2008-05-29T12:36:34+02:00</time>
      </trkpt>
      <trkpt lat="41.74854" lon="9.17018">
        <ele>761</ele>
        <time>2008-05-29T12:36:40+02:00</time>
      </trkpt>
      <trkpt lat="41.74855" lon="9.17017">
        <ele>761</ele>
        <time>2008-05-29T12:36:45+02:00</time>
      </trkpt>
      <trkpt lat="41.74855" lon="9.17017">
        <ele>761</ele>
        <time>2008-05-29T12:36:58+02:00</time>
      </trkpt>
      <trkpt lat="41.74854" lon="9.17016">
        <ele>760</ele>
        <time>2008-05-29T12:37:05+02:00</time>
      </trkpt>
      <trkpt lat="41.74855" lon="9.17017">
        <ele>761</ele>
        <time>2008-05-29T12:37:13+02:00</time>
      </trkpt>
      <trkpt lat="41.74855" lon="9.17019">
        <ele>761</ele>
        <time>2008-05-29T12:37:27+02:00</time>
      </trkpt>
      <trkpt lat="41.74855" lon="9.1702">
        <ele>761</ele>
        <time>2008-05-29T12:37:35+02:00</time>
      </trkpt>
      <trkpt lat="41.74855" lon="9.1702">
        <ele>761</ele>
        <time>2008-05-29T12:37:43+02:00</time>
      </trkpt>
      <trkpt lat="41.74857" lon="9.1702">
        <ele>761</ele>
        <time>2008-05-29T12:38:11+02:00</time>
      </trkpt>
      <trkpt lat="41.74858" lon="9.1702">
        <ele>761</ele>
        <time>2008-05-29T12:38:36+02:00</time>
      </trkpt>
      <trkpt lat="41.74858" lon="9.1702">
        <ele>761</ele>
        <time>2008-05-29T12:39:07+02:00</time>
      </trkpt>
      <trkpt lat="41.74859" lon="9.17022">
        <ele>762</ele>
        <time>2008-05-29T12:39:20+02:00</time>
      </trkpt>
      <trkpt lat="41.7486" lon="9.17025">
        <ele>762</ele>
        <time>2008-05-29T12:39:30+02:00</time>
      </trkpt>
      <trkpt lat="41.74861" lon="9.17027">
        <ele>762</ele>
        <time>2008-05-29T12:40:01+02:00</time>
      </trkpt>
      <trkpt lat="41.74861" lon="9.17029">
        <ele>763</ele>
        <time>2008-05-29T12:40:10+02:00</time>
      </trkpt>
      <trkpt lat="41.7486" lon="9.17026">
        <ele>762</ele>
        <time>2008-05-29T12:40:19+02:00</time>
      </trkpt>
      <trkpt lat="41.74858" lon="9.17026">
        <ele>762</ele>
        <time>2008-05-29T12:40:33+02:00</time>
      </trkpt>
      <trkpt lat="41.74857" lon="9.17027">
        <ele>762</ele>
        <time>2008-05-29T12:40:43+02:00</time>
      </trkpt>
      <trkpt lat="41.74856" lon="9.17023">
        <ele>761</ele>
        <time>2008-05-29T12:40:49+02:00</time>
      </trkpt>
      <trkpt lat="41.74856" lon="9.17023">
        <ele>762</ele>
        <time>2008-05-29T12:40:56+02:00</time>
      </trkpt>
      <trkpt lat="41.74857" lon="9.17022">
        <ele>762</ele>
        <time>2008-05-29T12:41:07+02:00</time>
      </trkpt>
      <trkpt lat="41.74858" lon="9.17023">
        <ele>762</ele>
        <time>2008-05-29T12:41:15+02:00</time>
      </trkpt>
      <trkpt lat="41.74857" lon="9.17021">
        <ele>761</ele>
        <time>2008-05-29T12:41:27+02:00</time>
      </trkpt>
      <trkpt lat="41.74857" lon="9.17018">
        <ele>761</ele>
        <time>2008-05-29T12:41:39+02:00</time>
      </trkpt>
      <trkpt lat="41.74862" lon="9.17023">
        <ele>762</ele>
        <time>2008-05-29T12:42:08+02:00</time>
      </trkpt>
      <trkpt lat="41.74864" lon="9.17024">
        <ele>762</ele>
        <time>2008-05-29T12:42:18+02:00</time>
      </trkpt>
      <trkpt lat="41.74863" lon="9.17021">
        <ele>762</ele>
        <time>2008-05-29T12:42:28+02:00</time>
      </trkpt>
      <trkpt lat="41.74862" lon="9.1702">
        <ele>762</ele>
        <time>2008-05-29T12:42:47+02:00</time>
      </trkpt>
      <trkpt lat="41.74857" lon="9.1702">
        <ele>761</ele>
        <time>2008-05-29T12:43:16+02:00</time>
      </trkpt>
      <trkpt lat="41.74856" lon="9.17019">
        <ele>761</ele>
        <time>2008-05-29T12:43:26+02:00</time>
      </trkpt>
      <trkpt lat="41.74855" lon="9.17017">
        <ele>761</ele>
        <time>2008-05-29T12:43:52+02:00</time>
      </trkpt>
      <trkpt lat="41.74857" lon="9.17024">
        <ele>762</ele>
        <time>2008-05-29T12:45:00+02:00</time>
      </trkpt>
      <trkpt lat="41.74857" lon="9.17022">
        <ele>762</ele>
        <time>2008-05-29T12:45:14+02:00</time>
      </trkpt>
      <trkpt lat="41.74856" lon="9.17018">
        <ele>761</ele>
        <time>2008-05-29T12:45:35+02:00</time>
      </trkpt>
      <trkpt lat="41.74856" lon="9.17016">
        <ele>761</ele>
        <time>2008-05-29T12:45:44+02:00</time>
      </trkpt>
      <trkpt lat="41.74856" lon="9.17015">
        <ele>760</ele>
        <time>2008-05-29T12:45:55+02:00</time>
      </trkpt>
      <trkpt lat="41.74856" lon="9.17018">
        <ele>761</ele>
        <time>2008-05-29T12:46:06+02:00</time>
      </trkpt>
      <trkpt lat="41.74854" lon="9.17016">
        <ele>760</ele>
        <time>2008-05-29T12:46:29+02:00</time>
      </trkpt>
      <trkpt lat="41.74853" lon="9.17019">
        <ele>761</ele>
        <time>2008-05-29T12:46:33+02:00</time>
      </trkpt>
      <trkpt lat="41.74855" lon="9.17017">
        <ele>761</ele>
        <time>2008-05-29T12:46:43+02:00</time>
      </trkpt>
      <trkpt lat="41.74856" lon="9.17021">
        <ele>761</ele>
        <time>2008-05-29T12:47:08+02:00</time>
      </trkpt>
      <trkpt lat="41.74857" lon="9.1702">
        <ele>761</ele>
        <time>2008-05-29T12:47:21+02:00</time>
      </trkpt>
      <trkpt lat="41.74856" lon="9.1702">
        <ele>761</ele>
        <time>2008-05-29T12:47:26+02:00</time>
      </trkpt>
      <trkpt lat="41.74857" lon="9.1702">
        <ele>761</ele>
        <time>2008-05-29T12:47:33+02:00</time>
      </trkpt>
      <trkpt lat="41.74861" lon="9.17013">
        <ele>761</ele>
        <time>2008-05-30T10:01:41+02:00</time>
      </trkpt>
      <trkpt lat="41.74863" lon="9.17013">
        <ele>761</ele>
        <time>2008-05-30T10:01:48+02:00</time>
      </trkpt>
      <trkpt lat="41.74863" lon="9.17012">
        <ele>761</ele>
        <time>2008-05-30T10:01:51+02:00</time>
      </trkpt>
      <trkpt lat="41.74871" lon="9.17">
        <ele>762</ele>
        <time>2008-05-30T10:01:58+02:00</time>
      </trkpt>
      <trkpt lat="41.74875" lon="9.17">
        <ele>754</ele>
        <time>2008-05-30T10:02:01+02:00</time>
      </trkpt>
      <trkpt lat="41.74885" lon="9.17002">
        <ele>763</ele>
        <time>2008-05-30T10:02:07+02:00</time>
      </trkpt>
      <trkpt lat="41.74887" lon="9.17">
        <ele>764</ele>
        <time>2008-05-30T10:02:09+02:00</time>
      </trkpt>
      <trkpt lat="41.74897" lon="9.16991">
        <ele>757</ele>
        <time>2008-05-30T10:02:16+02:00</time>
      </trkpt>
      <trkpt lat="41.74905" lon="9.16982">
        <ele>757</ele>
        <time>2008-05-30T10:02:22+02:00</time>
      </trkpt>
      <trkpt lat="41.74918" lon="9.16971">
        <ele>758</ele>
        <time>2008-05-30T10:02:30+02:00</time>
      </trkpt>
      <trkpt lat="41.7493" lon="9.16974">
        <ele>759</ele>
        <time>2008-05-30T10:02:37+02:00</time>
      </trkpt>
      <trkpt lat="41.74942" lon="9.16982">
        <ele>759</ele>
        <time>2008-05-30T10:02:46+02:00</time>
      </trkpt>
      <trkpt lat="41.74951" lon="9.16985">
        <ele>759</ele>
        <time>2008-05-30T10:02:52+02:00</time>
      </trkpt>
      <trkpt lat="41.7496" lon="9.16992">
        <ele>759</ele>
        <time>2008-05-30T10:02:58+02:00</time>
      </trkpt>
      <trkpt lat="41.7497" lon="9.17003">
        <ele>767</ele>
        <time>2008-05-30T10:03:05+02:00</time>
      </trkpt>
      <trkpt lat="41.74978" lon="9.17016">
        <ele>767</ele>
        <time>2008-05-30T10:03:12+02:00</time>
      </trkpt>
      <trkpt lat="41.74983" lon="9.17031">
        <ele>768</ele>
        <time>2008-05-30T10:03:19+02:00</time>
      </trkpt>
      <trkpt lat="41.74991" lon="9.17051">
        <ele>770</ele>
        <time>2008-05-30T10:03:28+02:00</time>
      </trkpt>
      <trkpt lat="41.74999" lon="9.17067">
        <ele>772</ele>
        <time>2008-05-30T10:03:35+02:00</time>
      </trkpt>
      <trkpt lat="41.7501" lon="9.17085">
        <ele>775</ele>
        <time>2008-05-30T10:03:43+02:00</time>
      </trkpt>
      <trkpt lat="41.75023" lon="9.17101">
        <ele>775</ele>
        <time>2008-05-30T10:03:51+02:00</time>
      </trkpt>
      <trkpt lat="41.75041" lon="9.17114">
        <ele>774</ele>
        <time>2008-05-30T10:03:59+02:00</time>
      </trkpt>
      <trkpt lat="41.75054" lon="9.17124">
        <ele>774</ele>
        <time>2008-05-30T10:04:05+02:00</time>
      </trkpt>
      <trkpt lat="41.75068" lon="9.17136">
        <ele>775</ele>
        <time>2008-05-30T10:04:11+02:00</time>
      </trkpt>
      <trkpt lat="41.75079" lon="9.17152">
        <ele>776</ele>
        <time>2008-05-30T10:04:17+02:00</time>
      </trkpt>
      <trkpt lat="41.75082" lon="9.17157">
        <ele>777</ele>
        <time>2008-05-30T10:04:19+02:00</time>
      </trkpt>
      <trkpt lat="41.7508" lon="9.17166">
        <ele>778</ele>
        <time>2008-05-30T10:04:23+02:00</time>
      </trkpt>
      <trkpt lat="41.75076" lon="9.17164">
        <ele>777</ele>
        <time>2008-05-30T10:04:25+02:00</time>
      </trkpt>
      <trkpt lat="41.7507" lon="9.17158">
        <ele>777</ele>
        <time>2008-05-30T10:04:29+02:00</time>
      </trkpt>
      <trkpt lat="41.75069" lon="9.17158">
        <ele>777</ele>
        <time>2008-05-30T10:04:37+02:00</time>
      </trkpt>
      <trkpt lat="41.75067" lon="9.17157">
        <ele>777</ele>
        <time>2008-05-30T10:04:45+02:00</time>
      </trkpt>
      <trkpt lat="41.75061" lon="9.17152">
        <ele>776</ele>
        <time>2008-05-30T10:04:49+02:00</time>
      </trkpt>
      <trkpt lat="41.75046" lon="9.17144">
        <ele>777</ele>
        <time>2008-05-30T10:04:56+02:00</time>
      </trkpt>
      <trkpt lat="41.75031" lon="9.17138">
        <ele>777</ele>
        <time>2008-05-30T10:05:02+02:00</time>
      </trkpt>
      <trkpt lat="41.75018" lon="9.17132">
        <ele>778</ele>
        <time>2008-05-30T10:05:08+02:00</time>
      </trkpt>
      <trkpt lat="41.75002" lon="9.17124">
        <ele>777</ele>
        <time>2008-05-30T10:05:15+02:00</time>
      </trkpt>
      <trkpt lat="41.74982" lon="9.17119">
        <ele>781</ele>
        <time>2008-05-30T10:05:23+02:00</time>
      </trkpt>
      <trkpt lat="41.7496" lon="9.17113">
        <ele>781</ele>
        <time>2008-05-30T10:05:31+02:00</time>
      </trkpt>
      <trkpt lat="41.74939" lon="9.17115">
        <ele>781</ele>
        <time>2008-05-30T10:05:38+02:00</time>
      </trkpt>
      <trkpt lat="41.74921" lon="9.17124">
        <ele>782</ele>
        <time>2008-05-30T10:05:44+02:00</time>
      </trkpt>
      <trkpt lat="41.74904" lon="9.17147">
        <ele>782</ele>
        <time>2008-05-30T10:05:52+02:00</time>
      </trkpt>
      <trkpt lat="41.74893" lon="9.17169">
        <ele>792</ele>
        <time>2008-05-30T10:05:58+02:00</time>
      </trkpt>
      <trkpt lat="41.74877" lon="9.1718">
        <ele>794</ele>
        <time>2008-05-30T10:06:04+02:00</time>
      </trkpt>
      <trkpt lat="41.74861" lon="9.17182">
        <ele>793</ele>
        <time>2008-05-30T10:06:10+02:00</time>
      </trkpt>
      <trkpt lat="41.74833" lon="9.17179">
        <ele>790</ele>
        <time>2008-05-30T10:06:20+02:00</time>
      </trkpt>
      <trkpt lat="41.74805" lon="9.17177">
        <ele>793</ele>
        <time>2008-05-30T10:06:30+02:00</time>
      </trkpt>
      <trkpt lat="41.74792" lon="9.17175">
        <ele>794</ele>
        <time>2008-05-30T10:06:35+02:00</time>
      </trkpt>
      <trkpt lat="41.7477" lon="9.17168">
        <ele>793</ele>
        <time>2008-05-30T10:06:43+02:00</time>
      </trkpt>
      <trkpt lat="41.74751" lon="9.17152">
        <ele>784</ele>
        <time>2008-05-30T10:06:51+02:00</time>
      </trkpt>
      <trkpt lat="41.7473" lon="9.17135">
        <ele>785</ele>
        <time>2008-05-30T10:06:59+02:00</time>
      </trkpt>
      <trkpt lat="41.7471" lon="9.17128">
        <ele>785</ele>
        <time>2008-05-30T10:07:06+02:00</time>
      </trkpt>
      <trkpt lat="41.74689" lon="9.17128">
        <ele>786</ele>
        <time>2008-05-30T10:07:13+02:00</time>
      </trkpt>
      <trkpt lat="41.7466" lon="9.17123">
        <ele>788</ele>
        <time>2008-05-30T10:07:23+02:00</time>
      </trkpt>
      <trkpt lat="41.7463" lon="9.17125">
        <ele>788</ele>
        <time>2008-05-30T10:07:33+02:00</time>
      </trkpt>
      <trkpt lat="41.74614" lon="9.17135">
        <ele>789</ele>
        <time>2008-05-30T10:07:39+02:00</time>
      </trkpt>
      <trkpt lat="41.74606" lon="9.17151">
        <ele>790</ele>
        <time>2008-05-30T10:07:44+02:00</time>
      </trkpt>
      <trkpt lat="41.74602" lon="9.17176">
        <ele>798</ele>
        <time>2008-05-30T10:07:50+02:00</time>
      </trkpt>
      <trkpt lat="41.74595" lon="9.17203">
        <ele>802</ele>
        <time>2008-05-30T10:07:56+02:00</time>
      </trkpt>
      <trkpt lat="41.74583" lon="9.17219">
        <ele>799</ele>
        <time>2008-05-30T10:08:01+02:00</time>
      </trkpt>
      <trkpt lat="41.74565" lon="9.17233">
        <ele>800</ele>
        <time>2008-05-30T10:08:08+02:00</time>
      </trkpt>
      <trkpt lat="41.74544" lon="9.17243">
        <ele>798</ele>
        <time>2008-05-30T10:08:15+02:00</time>
      </trkpt>
      <trkpt lat="41.74523" lon="9.17246">
        <ele>797</ele>
        <time>2008-05-30T10:08:22+02:00</time>
      </trkpt>
      <trkpt lat="41.74505" lon="9.17255">
        <ele>801</ele>
        <time>2008-05-30T10:08:28+02:00</time>
      </trkpt>
      <trkpt lat="41.74486" lon="9.17273">
        <ele>793</ele>
        <time>2008-05-30T10:08:35+02:00</time>
      </trkpt>
      <trkpt lat="41.74475" lon="9.17297">
        <ele>792</ele>
        <time>2008-05-30T10:08:42+02:00</time>
      </trkpt>
      <trkpt lat="41.74471" lon="9.17322">
        <ele>792</ele>
        <time>2008-05-30T10:08:48+02:00</time>
      </trkpt>
      <trkpt lat="41.7447" lon="9.17352">
        <ele>789</ele>
        <time>2008-05-30T10:08:55+02:00</time>
      </trkpt>
      <trkpt lat="41.7448" lon="9.17377">
        <ele>789</ele>
        <time>2008-05-30T10:09:02+02:00</time>
      </trkpt>
      <trkpt lat="41.74493" lon="9.17398">
        <ele>794</ele>
        <time>2008-05-30T10:09:08+02:00</time>
      </trkpt>
      <trkpt lat="41.74509" lon="9.17423">
        <ele>809</ele>
        <time>2008-05-30T10:09:15+02:00</time>
      </trkpt>
      <trkpt lat="41.7452" lon="9.17447">
        <ele>815</ele>
        <time>2008-05-30T10:09:20+02:00</time>
      </trkpt>
      <trkpt lat="41.74524" lon="9.17466">
        <ele>815</ele>
        <time>2008-05-30T10:09:24+02:00</time>
      </trkpt>
      <trkpt lat="41.74526" lon="9.17484">
        <ele>814</ele>
        <time>2008-05-30T10:09:29+02:00</time>
      </trkpt>
      <trkpt lat="41.7453" lon="9.17508">
        <ele>809</ele>
        <time>2008-05-30T10:09:34+02:00</time>
      </trkpt>
      <trkpt lat="41.74532" lon="9.17538">
        <ele>809</ele>
        <time>2008-05-30T10:09:40+02:00</time>
      </trkpt>
      <trkpt lat="41.74536" lon="9.17568">
        <ele>808</ele>
        <time>2008-05-30T10:09:45+02:00</time>
      </trkpt>
      <trkpt lat="41.74541" lon="9.17584">
        <ele>801</ele>
        <time>2008-05-30T10:09:48+02:00</time>
      </trkpt>
      <trkpt lat="41.74555" lon="9.17604">
        <ele>803</ele>
        <time>2008-05-30T10:09:53+02:00</time>
      </trkpt>
      <trkpt lat="41.74561" lon="9.17612">
        <ele>803</ele>
        <time>2008-05-30T10:09:55+02:00</time>
      </trkpt>
      <trkpt lat="41.74566" lon="9.17618">
        <ele>803</ele>
        <time>2008-05-30T10:09:57+02:00</time>
      </trkpt>
      <trkpt lat="41.74588" lon="9.17636">
        <ele>816</ele>
        <time>2008-05-30T10:10:02+02:00</time>
      </trkpt>
      <trkpt lat="41.74601" lon="9.1765">
        <ele>815</ele>
        <time>2008-05-30T10:10:05+02:00</time>
      </trkpt>
      <trkpt lat="41.74616" lon="9.17671">
        <ele>810</ele>
        <time>2008-05-30T10:10:09+02:00</time>
      </trkpt>
      <trkpt lat="41.74628" lon="9.17696">
        <ele>812</ele>
        <time>2008-05-30T10:10:12+02:00</time>
      </trkpt>
      <trkpt lat="41.74625" lon="9.17729">
        <ele>810</ele>
        <time>2008-05-30T10:10:16+02:00</time>
      </trkpt>
      <trkpt lat="41.74628" lon="9.1775">
        <ele>810</ele>
        <time>2008-05-30T10:10:20+02:00</time>
      </trkpt>
      <trkpt lat="41.74628" lon="9.17765">
        <ele>802</ele>
        <time>2008-05-30T10:10:22+02:00</time>
      </trkpt>
      <trkpt lat="41.74628" lon="9.17793">
        <ele>801</ele>
        <time>2008-05-30T10:10:26+02:00</time>
      </trkpt>
      <trkpt lat="41.7464" lon="9.17828">
        <ele>802</ele>
        <time>2008-05-30T10:10:32+02:00</time>
      </trkpt>
      <trkpt lat="41.74651" lon="9.17856">
        <ele>794</ele>
        <time>2008-05-30T10:10:37+02:00</time>
      </trkpt>
      <trkpt lat="41.74671" lon="9.17888">
        <ele>807</ele>
        <time>2008-05-30T10:10:44+02:00</time>
      </trkpt>
      <trkpt lat="41.74691" lon="9.17911">
        <ele>806</ele>
        <time>2008-05-30T10:10:50+02:00</time>
      </trkpt>
      <trkpt lat="41.74705" lon="9.1793">
        <ele>796</ele>
        <time>2008-05-30T10:10:55+02:00</time>
      </trkpt>
      <trkpt lat="41.74734" lon="9.17956">
        <ele>798</ele>
        <time>2008-05-30T10:11:03+02:00</time>
      </trkpt>
      <trkpt lat="41.74754" lon="9.17975">
        <ele>810</ele>
        <time>2008-05-30T10:11:09+02:00</time>
      </trkpt>
      <trkpt lat="41.74757" lon="9.17978">
        <ele>809</ele>
        <time>2008-05-30T10:11:10+02:00</time>
      </trkpt>
      <trkpt lat="41.7477" lon="9.18001">
        <ele>798</ele>
        <time>2008-05-30T10:11:17+02:00</time>
      </trkpt>
      <trkpt lat="41.7478" lon="9.18015">
        <ele>798</ele>
        <time>2008-05-30T10:11:24+02:00</time>
      </trkpt>
      <trkpt lat="41.74783" lon="9.18029">
        <ele>797</ele>
        <time>2008-05-30T10:11:29+02:00</time>
      </trkpt>
      <trkpt lat="41.74784" lon="9.18024">
        <ele>798</ele>
        <time>2008-05-30T10:11:35+02:00</time>
      </trkpt>
      <trkpt lat="41.74784" lon="9.18024">
        <ele>798</ele>
        <time>2008-05-30T10:11:36+02:00</time>
      </trkpt>
      <trkpt lat="41.74783" lon="9.18021">
        <ele>798</ele>
        <time>2008-05-30T10:11:46+02:00</time>
      </trkpt>
      <trkpt lat="41.7478" lon="9.18026">
        <ele>797</ele>
        <time>2008-05-30T10:11:58+02:00</time>
      </trkpt>
      <trkpt lat="41.74782" lon="9.18026">
        <ele>798</ele>
        <time>2008-05-30T10:12:03+02:00</time>
      </trkpt>
      <trkpt lat="41.74782" lon="9.18027">
        <ele>797</ele>
        <time>2008-05-30T10:12:08+02:00</time>
      </trkpt>
      <trkpt lat="41.74781" lon="9.18029">
        <ele>797</ele>
        <time>2008-05-30T10:13:01+02:00</time>
      </trkpt>
      <trkpt lat="41.74785" lon="9.18028">
        <ele>798</ele>
        <time>2008-05-30T10:13:18+02:00</time>
      </trkpt>
      <trkpt lat="41.74792" lon="9.1804">
        <ele>797</ele>
        <time>2008-05-30T10:13:24+02:00</time>
      </trkpt>
      <trkpt lat="41.74809" lon="9.18059">
        <ele>797</ele>
        <time>2008-05-30T10:13:30+02:00</time>
      </trkpt>
      <trkpt lat="41.74829" lon="9.18078">
        <ele>796</ele>
        <time>2008-05-30T10:13:35+02:00</time>
      </trkpt>
      <trkpt lat="41.74857" lon="9.18097">
        <ele>793</ele>
        <time>2008-05-30T10:13:41+02:00</time>
      </trkpt>
      <trkpt lat="41.7489" lon="9.18116">
        <ele>793</ele>
        <time>2008-05-30T10:13:47+02:00</time>
      </trkpt>
      <trkpt lat="41.7493" lon="9.18135">
        <ele>801</ele>
        <time>2008-05-30T10:13:54+02:00</time>
      </trkpt>
      <trkpt lat="41.74954" lon="9.18144">
        <ele>802</ele>
        <time>2008-05-30T10:13:58+02:00</time>
      </trkpt>
      <trkpt lat="41.74972" lon="9.18158">
        <ele>802</ele>
        <time>2008-05-30T10:14:01+02:00</time>
      </trkpt>
      <trkpt lat="41.74996" lon="9.18191">
        <ele>791</ele>
        <time>2008-05-30T10:14:06+02:00</time>
      </trkpt>
      <trkpt lat="41.75024" lon="9.18227">
        <ele>799</ele>
        <time>2008-05-30T10:14:11+02:00</time>
      </trkpt>
      <trkpt lat="41.75048" lon="9.1827">
        <ele>789</ele>
        <time>2008-05-30T10:14:16+02:00</time>
      </trkpt>
      <trkpt lat="41.75083" lon="9.18311">
        <ele>795</ele>
        <time>2008-05-30T10:14:22+02:00</time>
      </trkpt>
      <trkpt lat="41.7509" lon="9.18316">
        <ele>794</ele>
        <time>2008-05-30T10:14:23+02:00</time>
      </trkpt>
      <trkpt lat="41.75111" lon="9.18329">
        <ele>795</ele>
        <time>2008-05-30T10:14:26+02:00</time>
      </trkpt>
      <trkpt lat="41.75148" lon="9.18337">
        <ele>790</ele>
        <time>2008-05-30T10:14:31+02:00</time>
      </trkpt>
      <trkpt lat="41.75174" lon="9.18352">
        <ele>796</ele>
        <time>2008-05-30T10:14:35+02:00</time>
      </trkpt>
      <trkpt lat="41.75179" lon="9.18358">
        <ele>796</ele>
        <time>2008-05-30T10:14:36+02:00</time>
      </trkpt>
      <trkpt lat="41.752" lon="9.18395">
        <ele>795</ele>
        <time>2008-05-30T10:14:41+02:00</time>
      </trkpt>
      <trkpt lat="41.75208" lon="9.18439">
        <ele>795</ele>
        <time>2008-05-30T10:14:46+02:00</time>
      </trkpt>
      <trkpt lat="41.75197" lon="9.18461">
        <ele>795</ele>
        <time>2008-05-30T10:14:49+02:00</time>
      </trkpt>
      <trkpt lat="41.75179" lon="9.18465">
        <ele>794</ele>
        <time>2008-05-30T10:14:52+02:00</time>
      </trkpt>
      <trkpt lat="41.75166" lon="9.18465">
        <ele>786</ele>
        <time>2008-05-30T10:14:54+02:00</time>
      </trkpt>
      <trkpt lat="41.75154" lon="9.18467">
        <ele>786</ele>
        <time>2008-05-30T10:14:56+02:00</time>
      </trkpt>
      <trkpt lat="41.75134" lon="9.18474">
        <ele>784</ele>
        <time>2008-05-30T10:14:59+02:00</time>
      </trkpt>
      <trkpt lat="41.75112" lon="9.18497">
        <ele>782</ele>
        <time>2008-05-30T10:15:03+02:00</time>
      </trkpt>
      <trkpt lat="41.75109" lon="9.18506">
        <ele>783</ele>
        <time>2008-05-30T10:15:04+02:00</time>
      </trkpt>
      <trkpt lat="41.75099" lon="9.18566">
        <ele>781</ele>
        <time>2008-05-30T10:15:10+02:00</time>
      </trkpt>
      <trkpt lat="41.75102" lon="9.1862">
        <ele>783</ele>
        <time>2008-05-30T10:15:15+02:00</time>
      </trkpt>
      <trkpt lat="41.75101" lon="9.18688">
        <ele>781</ele>
        <time>2008-05-30T10:15:22+02:00</time>
      </trkpt>
      <trkpt lat="41.75095" lon="9.18715">
        <ele>782</ele>
        <time>2008-05-30T10:15:25+02:00</time>
      </trkpt>
      <trkpt lat="41.75093" lon="9.18743">
        <ele>777</ele>
        <time>2008-05-30T10:15:28+02:00</time>
      </trkpt>
      <trkpt lat="41.75102" lon="9.18811">
        <ele>781</ele>
        <time>2008-05-30T10:15:35+02:00</time>
      </trkpt>
      <trkpt lat="41.75103" lon="9.18821">
        <ele>780</ele>
        <time>2008-05-30T10:15:36+02:00</time>
      </trkpt>
      <trkpt lat="41.751" lon="9.18882">
        <ele>781</ele>
        <time>2008-05-30T10:15:42+02:00</time>
      </trkpt>
      <trkpt lat="41.751" lon="9.18893">
        <ele>780</ele>
        <time>2008-05-30T10:15:43+02:00</time>
      </trkpt>
      <trkpt lat="41.7511" lon="9.18934">
        <ele>779</ele>
        <time>2008-05-30T10:15:47+02:00</time>
      </trkpt>
      <trkpt lat="41.75121" lon="9.18951">
        <ele>780</ele>
        <time>2008-05-30T10:15:49+02:00</time>
      </trkpt>
      <trkpt lat="41.75166" lon="9.19008">
        <ele>783</ele>
        <time>2008-05-30T10:15:56+02:00</time>
      </trkpt>
      <trkpt lat="41.752" lon="9.19058">
        <ele>790</ele>
        <time>2008-05-30T10:16:02+02:00</time>
      </trkpt>
      <trkpt lat="41.7522" lon="9.19075">
        <ele>792</ele>
        <time>2008-05-30T10:16:05+02:00</time>
      </trkpt>
      <trkpt lat="41.75238" lon="9.19108">
        <ele>791</ele>
        <time>2008-05-30T10:16:09+02:00</time>
      </trkpt>
      <trkpt lat="41.75232" lon="9.19139">
        <ele>789</ele>
        <time>2008-05-30T10:16:12+02:00</time>
      </trkpt>
      <trkpt lat="41.75216" lon="9.19184">
        <ele>788</ele>
        <time>2008-05-30T10:16:17+02:00</time>
      </trkpt>
      <trkpt lat="41.75207" lon="9.19221">
        <ele>788</ele>
        <time>2008-05-30T10:16:21+02:00</time>
      </trkpt>
      <trkpt lat="41.75216" lon="9.19267">
        <ele>787</ele>
        <time>2008-05-30T10:16:25+02:00</time>
      </trkpt>
      <trkpt lat="41.75225" lon="9.19297">
        <ele>787</ele>
        <time>2008-05-30T10:16:28+02:00</time>
      </trkpt>
      <trkpt lat="41.75229" lon="9.19317">
        <ele>787</ele>
        <time>2008-05-30T10:16:30+02:00</time>
      </trkpt>
      <trkpt lat="41.75229" lon="9.1934">
        <ele>786</ele>
        <time>2008-05-30T10:16:32+02:00</time>
      </trkpt>
      <trkpt lat="41.75217" lon="9.19391">
        <ele>785</ele>
        <time>2008-05-30T10:16:37+02:00</time>
      </trkpt>
      <trkpt lat="41.75204" lon="9.19406">
        <ele>784</ele>
        <time>2008-05-30T10:16:39+02:00</time>
      </trkpt>
      <trkpt lat="41.75168" lon="9.19427">
        <ele>784</ele>
        <time>2008-05-30T10:16:44+02:00</time>
      </trkpt>
      <trkpt lat="41.75144" lon="9.19423">
        <ele>785</ele>
        <time>2008-05-30T10:16:47+02:00</time>
      </trkpt>
      <trkpt lat="41.75138" lon="9.19419">
        <ele>785</ele>
        <time>2008-05-30T10:16:48+02:00</time>
      </trkpt>
      <trkpt lat="41.751" lon="9.19392">
        <ele>783</ele>
        <time>2008-05-30T10:16:54+02:00</time>
      </trkpt>
      <trkpt lat="41.75095" lon="9.19389">
        <ele>783</ele>
        <time>2008-05-30T10:16:55+02:00</time>
      </trkpt>
      <trkpt lat="41.75069" lon="9.19396">
        <ele>783</ele>
        <time>2008-05-30T10:16:59+02:00</time>
      </trkpt>
      <trkpt lat="41.75052" lon="9.19412">
        <ele>783</ele>
        <time>2008-05-30T10:17:02+02:00</time>
      </trkpt>
      <trkpt lat="41.75011" lon="9.19459">
        <ele>785</ele>
        <time>2008-05-30T10:17:10+02:00</time>
      </trkpt>
      <trkpt lat="41.74981" lon="9.19495">
        <ele>783</ele>
        <time>2008-05-30T10:17:16+02:00</time>
      </trkpt>
      <trkpt lat="41.74951" lon="9.19529">
        <ele>783</ele>
        <time>2008-05-30T10:17:21+02:00</time>
      </trkpt>
      <trkpt lat="41.74929" lon="9.19553">
        <ele>784</ele>
        <time>2008-05-30T10:17:25+02:00</time>
      </trkpt>
      <trkpt lat="41.74919" lon="9.19564">
        <ele>784</ele>
        <time>2008-05-30T10:17:27+02:00</time>
      </trkpt>
      <trkpt lat="41.74896" lon="9.19587">
        <ele>786</ele>
        <time>2008-05-30T10:17:32+02:00</time>
      </trkpt>
      <trkpt lat="41.74874" lon="9.1962">
        <ele>785</ele>
        <time>2008-05-30T10:17:37+02:00</time>
      </trkpt>
      <trkpt lat="41.7485" lon="9.19656">
        <ele>785</ele>
        <time>2008-05-30T10:17:42+02:00</time>
      </trkpt>
      <trkpt lat="41.7484" lon="9.19671">
        <ele>786</ele>
        <time>2008-05-30T10:17:44+02:00</time>
      </trkpt>
      <trkpt lat="41.74816" lon="9.19689">
        <ele>785</ele>
        <time>2008-05-30T10:17:48+02:00</time>
      </trkpt>
      <trkpt lat="41.74804" lon="9.19689">
        <ele>785</ele>
        <time>2008-05-30T10:17:50+02:00</time>
      </trkpt>
      <trkpt lat="41.74767" lon="9.19693">
        <ele>785</ele>
        <time>2008-05-30T10:17:57+02:00</time>
      </trkpt>
      <trkpt lat="41.74729" lon="9.19697">
        <ele>784</ele>
        <time>2008-05-30T10:18:05+02:00</time>
      </trkpt>
      <trkpt lat="41.74698" lon="9.19701">
        <ele>784</ele>
        <time>2008-05-30T10:18:12+02:00</time>
      </trkpt>
      <trkpt lat="41.74666" lon="9.19715">
        <ele>785</ele>
        <time>2008-05-30T10:18:20+02:00</time>
      </trkpt>
      <trkpt lat="41.74647" lon="9.19726">
        <ele>786</ele>
        <time>2008-05-30T10:18:25+02:00</time>
      </trkpt>
      <trkpt lat="41.74626" lon="9.19746">
        <ele>786</ele>
        <time>2008-05-30T10:18:32+02:00</time>
      </trkpt>
      <trkpt lat="41.74612" lon="9.19765">
        <ele>790</ele>
        <time>2008-05-30T10:18:38+02:00</time>
      </trkpt>
      <trkpt lat="41.74601" lon="9.19783">
        <ele>791</ele>
        <time>2008-05-30T10:18:43+02:00</time>
      </trkpt>
      <trkpt lat="41.74588" lon="9.19798">
        <ele>792</ele>
        <time>2008-05-30T10:18:48+02:00</time>
      </trkpt>
      <trkpt lat="41.74575" lon="9.19814">
        <ele>793</ele>
        <time>2008-05-30T10:18:53+02:00</time>
      </trkpt>
      <trkpt lat="41.74559" lon="9.19831">
        <ele>793</ele>
        <time>2008-05-30T10:18:58+02:00</time>
      </trkpt>
      <trkpt lat="41.74553" lon="9.19838">
        <ele>798</ele>
        <time>2008-05-30T10:19:00+02:00</time>
      </trkpt>
      <trkpt lat="41.74526" lon="9.19866">
        <ele>799</ele>
        <time>2008-05-30T10:19:08+02:00</time>
      </trkpt>
      <trkpt lat="41.74522" lon="9.19868">
        <ele>799</ele>
        <time>2008-05-30T10:19:09+02:00</time>
      </trkpt>
      <trkpt lat="41.74495" lon="9.19874">
        <ele>800</ele>
        <time>2008-05-30T10:19:17+02:00</time>
      </trkpt>
      <trkpt lat="41.74469" lon="9.19878">
        <ele>801</ele>
        <time>2008-05-30T10:19:25+02:00</time>
      </trkpt>
      <trkpt lat="41.74446" lon="9.19881">
        <ele>801</ele>
        <time>2008-05-30T10:19:32+02:00</time>
      </trkpt>
      <trkpt lat="41.74423" lon="9.19884">
        <ele>802</ele>
        <time>2008-05-30T10:19:39+02:00</time>
      </trkpt>
      <trkpt lat="41.74398" lon="9.19891">
        <ele>804</ele>
        <time>2008-05-30T10:19:46+02:00</time>
      </trkpt>
      <trkpt lat="41.74378" lon="9.19902">
        <ele>805</ele>
        <time>2008-05-30T10:19:53+02:00</time>
      </trkpt>
      <trkpt lat="41.74369" lon="9.19911">
        <ele>805</ele>
        <time>2008-05-30T10:19:58+02:00</time>
      </trkpt>
      <trkpt lat="41.74356" lon="9.19926">
        <ele>814</ele>
        <time>2008-05-30T10:20:02+02:00</time>
      </trkpt>
      <trkpt lat="41.74345" lon="9.19932">
        <ele>814</ele>
        <time>2008-05-30T10:20:06+02:00</time>
      </trkpt>
      <trkpt lat="41.74323" lon="9.19928">
        <ele>814</ele>
        <time>2008-05-30T10:20:13+02:00</time>
      </trkpt>
      <trkpt lat="41.74297" lon="9.19915">
        <ele>809</ele>
        <time>2008-05-30T10:20:21+02:00</time>
      </trkpt>
      <trkpt lat="41.74279" lon="9.199">
        <ele>809</ele>
        <time>2008-05-30T10:20:27+02:00</time>
      </trkpt>
      <trkpt lat="41.74261" lon="9.19882">
        <ele>809</ele>
        <time>2008-05-30T10:20:33+02:00</time>
      </trkpt>
      <trkpt lat="41.74246" lon="9.19874">
        <ele>808</ele>
        <time>2008-05-30T10:20:38+02:00</time>
      </trkpt>
      <trkpt lat="41.74225" lon="9.19875">
        <ele>807</ele>
        <time>2008-05-30T10:20:44+02:00</time>
      </trkpt>
      <trkpt lat="41.74203" lon="9.19891">
        <ele>807</ele>
        <time>2008-05-30T10:20:51+02:00</time>
      </trkpt>
      <trkpt lat="41.74191" lon="9.19908">
        <ele>807</ele>
        <time>2008-05-30T10:20:56+02:00</time>
      </trkpt>
      <trkpt lat="41.74184" lon="9.19917">
        <ele>812</ele>
        <time>2008-05-30T10:20:59+02:00</time>
      </trkpt>
      <trkpt lat="41.74176" lon="9.19943">
        <ele>814</ele>
        <time>2008-05-30T10:21:05+02:00</time>
      </trkpt>
      <trkpt lat="41.74166" lon="9.19969">
        <ele>810</ele>
        <time>2008-05-30T10:21:11+02:00</time>
      </trkpt>
      <trkpt lat="41.74153" lon="9.19991">
        <ele>812</ele>
        <time>2008-05-30T10:21:17+02:00</time>
      </trkpt>
      <trkpt lat="41.74144" lon="9.20006">
        <ele>814</ele>
        <time>2008-05-30T10:21:22+02:00</time>
      </trkpt>
      <trkpt lat="41.74132" lon="9.20031">
        <ele>813</ele>
        <time>2008-05-30T10:21:29+02:00</time>
      </trkpt>
      <trkpt lat="41.74125" lon="9.2006">
        <ele>813</ele>
        <time>2008-05-30T10:21:35+02:00</time>
      </trkpt>
      <trkpt lat="41.74127" lon="9.20082">
        <ele>813</ele>
        <time>2008-05-30T10:21:40+02:00</time>
      </trkpt>
      <trkpt lat="41.7413" lon="9.20111">
        <ele>815</ele>
        <time>2008-05-30T10:21:46+02:00</time>
      </trkpt>
      <trkpt lat="41.74138" lon="9.20131">
        <ele>815</ele>
        <time>2008-05-30T10:21:51+02:00</time>
      </trkpt>
      <trkpt lat="41.74153" lon="9.20152">
        <ele>816</ele>
        <time>2008-05-30T10:21:57+02:00</time>
      </trkpt>
      <trkpt lat="41.74167" lon="9.20168">
        <ele>818</ele>
        <time>2008-05-30T10:22:02+02:00</time>
      </trkpt>
      <trkpt lat="41.74183" lon="9.20178">
        <ele>822</ele>
        <time>2008-05-30T10:22:07+02:00</time>
      </trkpt>
      <trkpt lat="41.74189" lon="9.20197">
        <ele>823</ele>
        <time>2008-05-30T10:22:11+02:00</time>
      </trkpt>
      <trkpt lat="41.74194" lon="9.20232">
        <ele>822</ele>
        <time>2008-05-30T10:22:19+02:00</time>
      </trkpt>
      <trkpt lat="41.74197" lon="9.20264">
        <ele>822</ele>
        <time>2008-05-30T10:22:26+02:00</time>
      </trkpt>
      <trkpt lat="41.74199" lon="9.20287">
        <ele>823</ele>
        <time>2008-05-30T10:22:31+02:00</time>
      </trkpt>
      <trkpt lat="41.74205" lon="9.20313">
        <ele>824</ele>
        <time>2008-05-30T10:22:37+02:00</time>
      </trkpt>
      <trkpt lat="41.74219" lon="9.20342">
        <ele>826</ele>
        <time>2008-05-30T10:22:45+02:00</time>
      </trkpt>
      <trkpt lat="41.74237" lon="9.20369">
        <ele>826</ele>
        <time>2008-05-30T10:22:53+02:00</time>
      </trkpt>
      <trkpt lat="41.7425" lon="9.20396">
        <ele>826</ele>
        <time>2008-05-30T10:23:00+02:00</time>
      </trkpt>
      <trkpt lat="41.74251" lon="9.20423">
        <ele>827</ele>
        <time>2008-05-30T10:23:06+02:00</time>
      </trkpt>
      <trkpt lat="41.74241" lon="9.20443">
        <ele>829</ele>
        <time>2008-05-30T10:23:11+02:00</time>
      </trkpt>
      <trkpt lat="41.74225" lon="9.20456">
        <ele>830</ele>
        <time>2008-05-30T10:23:16+02:00</time>
      </trkpt>
      <trkpt lat="41.74202" lon="9.20456">
        <ele>830</ele>
        <time>2008-05-30T10:23:23+02:00</time>
      </trkpt>
      <trkpt lat="41.74177" lon="9.20447">
        <ele>830</ele>
        <time>2008-05-30T10:23:32+02:00</time>
      </trkpt>
      <trkpt lat="41.74153" lon="9.20442">
        <ele>832</ele>
        <time>2008-05-30T10:23:41+02:00</time>
      </trkpt>
      <trkpt lat="41.74131" lon="9.20438">
        <ele>833</ele>
        <time>2008-05-30T10:23:50+02:00</time>
      </trkpt>
      <trkpt lat="41.7411" lon="9.20443">
        <ele>834</ele>
        <time>2008-05-30T10:23:58+02:00</time>
      </trkpt>
      <trkpt lat="41.74092" lon="9.20449">
        <ele>835</ele>
        <time>2008-05-30T10:24:05+02:00</time>
      </trkpt>
      <trkpt lat="41.74071" lon="9.20459">
        <ele>836</ele>
        <time>2008-05-30T10:24:13+02:00</time>
      </trkpt>
      <trkpt lat="41.74059" lon="9.20473">
        <ele>837</ele>
        <time>2008-05-30T10:24:19+02:00</time>
      </trkpt>
      <trkpt lat="41.74053" lon="9.20499">
        <ele>838</ele>
        <time>2008-05-30T10:24:26+02:00</time>
      </trkpt>
      <trkpt lat="41.74048" lon="9.20535">
        <ele>845</ele>
        <time>2008-05-30T10:24:35+02:00</time>
      </trkpt>
      <trkpt lat="41.74042" lon="9.20561">
        <ele>846</ele>
        <time>2008-05-30T10:24:41+02:00</time>
      </trkpt>
      <trkpt lat="41.74034" lon="9.20594">
        <ele>852</ele>
        <time>2008-05-30T10:24:49+02:00</time>
      </trkpt>
      <trkpt lat="41.74034" lon="9.20631">
        <ele>853</ele>
        <time>2008-05-30T10:24:58+02:00</time>
      </trkpt>
      <trkpt lat="41.74034" lon="9.20663">
        <ele>854</ele>
        <time>2008-05-30T10:25:05+02:00</time>
      </trkpt>
      <trkpt lat="41.74023" lon="9.2068">
        <ele>861</ele>
        <time>2008-05-30T10:25:10+02:00</time>
      </trkpt>
      <trkpt lat="41.74008" lon="9.20682">
        <ele>860</ele>
        <time>2008-05-30T10:25:15+02:00</time>
      </trkpt>
      <trkpt lat="41.73996" lon="9.20667">
        <ele>857</ele>
        <time>2008-05-30T10:25:20+02:00</time>
      </trkpt>
      <trkpt lat="41.73981" lon="9.20644">
        <ele>856</ele>
        <time>2008-05-30T10:25:27+02:00</time>
      </trkpt>
      <trkpt lat="41.73968" lon="9.2063">
        <ele>856</ele>
        <time>2008-05-30T10:25:33+02:00</time>
      </trkpt>
      <trkpt lat="41.73959" lon="9.2061">
        <ele>855</ele>
        <time>2008-05-30T10:25:38+02:00</time>
      </trkpt>
      <trkpt lat="41.7395" lon="9.20585">
        <ele>855</ele>
        <time>2008-05-30T10:25:44+02:00</time>
      </trkpt>
      <trkpt lat="41.7393" lon="9.20565">
        <ele>849</ele>
        <time>2008-05-30T10:25:52+02:00</time>
      </trkpt>
      <trkpt lat="41.73914" lon="9.2057">
        <ele>851</ele>
        <time>2008-05-30T10:25:57+02:00</time>
      </trkpt>
      <trkpt lat="41.73899" lon="9.20582">
        <ele>851</ele>
        <time>2008-05-30T10:26:02+02:00</time>
      </trkpt>
      <trkpt lat="41.73873" lon="9.2061">
        <ele>858</ele>
        <time>2008-05-30T10:26:11+02:00</time>
      </trkpt>
      <trkpt lat="41.73864" lon="9.2062">
        <ele>859</ele>
        <time>2008-05-30T10:26:15+02:00</time>
      </trkpt>
      <trkpt lat="41.73845" lon="9.20641">
        <ele>861</ele>
        <time>2008-05-30T10:26:21+02:00</time>
      </trkpt>
      <trkpt lat="41.73825" lon="9.20651">
        <ele>862</ele>
        <time>2008-05-30T10:26:28+02:00</time>
      </trkpt>
      <trkpt lat="41.73795" lon="9.20659">
        <ele>860</ele>
        <time>2008-05-30T10:26:37+02:00</time>
      </trkpt>
      <trkpt lat="41.73769" lon="9.20668">
        <ele>866</ele>
        <time>2008-05-30T10:26:45+02:00</time>
      </trkpt>
      <trkpt lat="41.73743" lon="9.20681">
        <ele>863</ele>
        <time>2008-05-30T10:26:53+02:00</time>
      </trkpt>
      <trkpt lat="41.7373" lon="9.20696">
        <ele>864</ele>
        <time>2008-05-30T10:26:59+02:00</time>
      </trkpt>
      <trkpt lat="41.73718" lon="9.20724">
        <ele>866</ele>
        <time>2008-05-30T10:27:06+02:00</time>
      </trkpt>
      <trkpt lat="41.73703" lon="9.2076">
        <ele>872</ele>
        <time>2008-05-30T10:27:15+02:00</time>
      </trkpt>
      <trkpt lat="41.73686" lon="9.20777">
        <ele>872</ele>
        <time>2008-05-30T10:27:21+02:00</time>
      </trkpt>
      <trkpt lat="41.73666" lon="9.20787">
        <ele>871</ele>
        <time>2008-05-30T10:27:28+02:00</time>
      </trkpt>
      <trkpt lat="41.73646" lon="9.20796">
        <ele>873</ele>
        <time>2008-05-30T10:27:35+02:00</time>
      </trkpt>
      <trkpt lat="41.73622" lon="9.20816">
        <ele>874</ele>
        <time>2008-05-30T10:27:43+02:00</time>
      </trkpt>
      <trkpt lat="41.73603" lon="9.2082">
        <ele>875</ele>
        <time>2008-05-30T10:27:49+02:00</time>
      </trkpt>
      <trkpt lat="41.73591" lon="9.20809">
        <ele>874</ele>
        <time>2008-05-30T10:27:53+02:00</time>
      </trkpt>
      <trkpt lat="41.73588" lon="9.2079">
        <ele>874</ele>
        <time>2008-05-30T10:27:57+02:00</time>
      </trkpt>
      <trkpt lat="41.73595" lon="9.20771">
        <ele>874</ele>
        <time>2008-05-30T10:28:01+02:00</time>
      </trkpt>
      <trkpt lat="41.73611" lon="9.20753">
        <ele>873</ele>
        <time>2008-05-30T10:28:07+02:00</time>
      </trkpt>
      <trkpt lat="41.73626" lon="9.20728">
        <ele>871</ele>
        <time>2008-05-30T10:28:14+02:00</time>
      </trkpt>
      <trkpt lat="41.73635" lon="9.207">
        <ele>870</ele>
        <time>2008-05-30T10:28:21+02:00</time>
      </trkpt>
      <trkpt lat="41.73643" lon="9.20672">
        <ele>869</ele>
        <time>2008-05-30T10:28:27+02:00</time>
      </trkpt>
      <trkpt lat="41.73651" lon="9.20652">
        <ele>871</ele>
        <time>2008-05-30T10:28:32+02:00</time>
      </trkpt>
      <trkpt lat="41.73664" lon="9.20622">
        <ele>873</ele>
        <time>2008-05-30T10:28:39+02:00</time>
      </trkpt>
      <trkpt lat="41.73666" lon="9.20588">
        <ele>872</ele>
        <time>2008-05-30T10:28:46+02:00</time>
      </trkpt>
      <trkpt lat="41.73659" lon="9.20549">
        <ele>878</ele>
        <time>2008-05-30T10:28:54+02:00</time>
      </trkpt>
      <trkpt lat="41.73662" lon="9.20527">
        <ele>879</ele>
        <time>2008-05-30T10:28:59+02:00</time>
      </trkpt>
      <trkpt lat="41.73674" lon="9.20513">
        <ele>872</ele>
        <time>2008-05-30T10:29:04+02:00</time>
      </trkpt>
      <trkpt lat="41.73688" lon="9.20491">
        <ele>873</ele>
        <time>2008-05-30T10:29:11+02:00</time>
      </trkpt>
      <trkpt lat="41.73686" lon="9.20471">
        <ele>872</ele>
        <time>2008-05-30T10:29:16+02:00</time>
      </trkpt>
      <trkpt lat="41.73673" lon="9.20451">
        <ele>872</ele>
        <time>2008-05-30T10:29:22+02:00</time>
      </trkpt>
      <trkpt lat="41.73652" lon="9.20432">
        <ele>879</ele>
        <time>2008-05-30T10:29:29+02:00</time>
      </trkpt>
      <trkpt lat="41.73606" lon="9.20394">
        <ele>881</ele>
        <time>2008-05-30T10:30:17+02:00</time>
      </trkpt>
      <trkpt lat="41.73606" lon="9.20397">
        <ele>881</ele>
        <time>2008-05-30T10:30:29+02:00</time>
      </trkpt>
      <trkpt lat="41.73609" lon="9.20391">
        <ele>881</ele>
        <time>2008-05-30T10:30:47+02:00</time>
      </trkpt>
      <trkpt lat="41.73615" lon="9.20391">
        <ele>881</ele>
        <time>2008-05-30T10:30:54+02:00</time>
      </trkpt>
      <trkpt lat="41.73621" lon="9.20391">
        <ele>881</ele>
        <time>2008-05-30T10:31:01+02:00</time>
      </trkpt>
      <trkpt lat="41.73623" lon="9.20393">
        <ele>880</ele>
        <time>2008-05-30T10:31:07+02:00</time>
      </trkpt>
      <trkpt lat="41.73624" lon="9.20393">
        <ele>880</ele>
        <time>2008-05-30T10:31:12+02:00</time>
      </trkpt>
      <trkpt lat="41.73623" lon="9.20395">
        <ele>880</ele>
        <time>2008-05-30T10:31:27+02:00</time>
      </trkpt>
      <trkpt lat="41.73623" lon="9.20394">
        <ele>880</ele>
        <time>2008-05-30T10:31:32+02:00</time>
      </trkpt>
      <trkpt lat="41.73621" lon="9.20394">
        <ele>880</ele>
        <time>2008-05-30T10:31:38+02:00</time>
      </trkpt>
      <trkpt lat="41.7362" lon="9.20391">
        <ele>881</ele>
        <time>2008-05-30T10:31:44+02:00</time>
      </trkpt>
      <trkpt lat="41.73622" lon="9.20388">
        <ele>881</ele>
        <time>2008-05-30T10:31:54+02:00</time>
      </trkpt>
      <trkpt lat="41.73621" lon="9.20389">
        <ele>881</ele>
        <time>2008-05-30T10:32:00+02:00</time>
      </trkpt>
      <trkpt lat="41.73618" lon="9.20391">
        <ele>881</ele>
        <time>2008-05-30T10:32:11+02:00</time>
      </trkpt>
      <trkpt lat="41.73618" lon="9.20393">
        <ele>881</ele>
        <time>2008-05-30T10:32:20+02:00</time>
      </trkpt>
      <trkpt lat="41.73619" lon="9.20395">
        <ele>881</ele>
        <time>2008-05-30T10:32:32+02:00</time>
      </trkpt>
      <trkpt lat="41.7362" lon="9.20394">
        <ele>881</ele>
        <time>2008-05-30T10:32:40+02:00</time>
      </trkpt>
      <trkpt lat="41.7362" lon="9.20392">
        <ele>881</ele>
        <time>2008-05-30T10:32:48+02:00</time>
      </trkpt>
      <trkpt lat="41.73616" lon="9.20391">
        <ele>881</ele>
        <time>2008-05-30T10:32:54+02:00</time>
      </trkpt>
      <trkpt lat="41.73613" lon="9.20392">
        <ele>881</ele>
        <time>2008-05-30T10:33:01+02:00</time>
      </trkpt>
      <trkpt lat="41.73609" lon="9.20393">
        <ele>881</ele>
        <time>2008-05-30T10:33:08+02:00</time>
      </trkpt>
      <trkpt lat="41.73606" lon="9.20397">
        <ele>881</ele>
        <time>2008-05-30T10:33:12+02:00</time>
      </trkpt>
      <trkpt lat="41.73603" lon="9.20395">
        <ele>881</ele>
        <time>2008-05-30T10:33:18+02:00</time>
      </trkpt>
      <trkpt lat="41.73602" lon="9.20402">
        <ele>881</ele>
        <time>2008-05-30T10:33:33+02:00</time>
      </trkpt>
      <trkpt lat="41.73599" lon="9.20404">
        <ele>881</ele>
        <time>2008-05-30T10:33:39+02:00</time>
      </trkpt>
      <trkpt lat="41.73599" lon="9.20404">
        <ele>881</ele>
        <time>2008-05-30T10:33:46+02:00</time>
      </trkpt>
      <trkpt lat="41.73599" lon="9.20404">
        <ele>881</ele>
        <time>2008-05-30T10:33:49+02:00</time>
      </trkpt>
      <trkpt lat="41.73598" lon="9.20405">
        <ele>881</ele>
        <time>2008-05-30T10:33:50+02:00</time>
      </trkpt>
      <trkpt lat="41.73592" lon="9.20404">
        <ele>881</ele>
        <time>2008-05-30T10:33:55+02:00</time>
      </trkpt>
      <trkpt lat="41.73587" lon="9.20406">
        <ele>881</ele>
        <time>2008-05-30T10:33:57+02:00</time>
      </trkpt>
      <trkpt lat="41.73563" lon="9.20414">
        <ele>880</ele>
        <time>2008-05-30T10:34:04+02:00</time>
      </trkpt>
      <trkpt lat="41.73539" lon="9.20419">
        <ele>881</ele>
        <time>2008-05-30T10:34:10+02:00</time>
      </trkpt>
      <trkpt lat="41.73526" lon="9.20424">
        <ele>881</ele>
        <time>2008-05-30T10:34:14+02:00</time>
      </trkpt>
      <trkpt lat="41.73516" lon="9.20439">
        <ele>881</ele>
        <time>2008-05-30T10:34:18+02:00</time>
      </trkpt>
      <trkpt lat="41.73502" lon="9.20468">
        <ele>882</ele>
        <time>2008-05-30T10:34:23+02:00</time>
      </trkpt>
      <trkpt lat="41.73483" lon="9.20489">
        <ele>881</ele>
        <time>2008-05-30T10:34:27+02:00</time>
      </trkpt>
      <trkpt lat="41.73473" lon="9.20498">
        <ele>880</ele>
        <time>2008-05-30T10:34:29+02:00</time>
      </trkpt>
      <trkpt lat="41.73453" lon="9.20514">
        <ele>885</ele>
        <time>2008-05-30T10:34:33+02:00</time>
      </trkpt>
      <trkpt lat="41.73442" lon="9.20522">
        <ele>885</ele>
        <time>2008-05-30T10:34:35+02:00</time>
      </trkpt>
      <trkpt lat="41.73418" lon="9.20525">
        <ele>885</ele>
        <time>2008-05-30T10:34:39+02:00</time>
      </trkpt>
      <trkpt lat="41.73413" lon="9.20521">
        <ele>888</ele>
        <time>2008-05-30T10:34:40+02:00</time>
      </trkpt>
      <trkpt lat="41.7338" lon="9.20492">
        <ele>881</ele>
        <time>2008-05-30T10:34:47+02:00</time>
      </trkpt>
      <trkpt lat="41.73349" lon="9.20472">
        <ele>883</ele>
        <time>2008-05-30T10:34:53+02:00</time>
      </trkpt>
      <trkpt lat="41.73339" lon="9.20464">
        <ele>882</ele>
        <time>2008-05-30T10:34:55+02:00</time>
      </trkpt>
      <trkpt lat="41.73318" lon="9.20448">
        <ele>884</ele>
        <time>2008-05-30T10:34:59+02:00</time>
      </trkpt>
      <trkpt lat="41.73298" lon="9.20435">
        <ele>883</ele>
        <time>2008-05-30T10:35:03+02:00</time>
      </trkpt>
      <trkpt lat="41.7326" lon="9.20434">
        <ele>882</ele>
        <time>2008-05-30T10:35:10+02:00</time>
      </trkpt>
      <trkpt lat="41.73234" lon="9.20436">
        <ele>886</ele>
        <time>2008-05-30T10:35:15+02:00</time>
      </trkpt>
      <trkpt lat="41.73211" lon="9.20438">
        <ele>889</ele>
        <time>2008-05-30T10:35:19+02:00</time>
      </trkpt>
      <trkpt lat="41.73195" lon="9.20433">
        <ele>888</ele>
        <time>2008-05-30T10:35:22+02:00</time>
      </trkpt>
      <trkpt lat="41.73176" lon="9.20417">
        <ele>882</ele>
        <time>2008-05-30T10:35:26+02:00</time>
      </trkpt>
      <trkpt lat="41.73151" lon="9.2041">
        <ele>875</ele>
        <time>2008-05-30T10:35:31+02:00</time>
      </trkpt>
      <trkpt lat="41.7314" lon="9.2041">
        <ele>875</ele>
        <time>2008-05-30T10:35:33+02:00</time>
      </trkpt>
      <trkpt lat="41.73116" lon="9.20396">
        <ele>877</ele>
        <time>2008-05-30T10:35:38+02:00</time>
      </trkpt>
      <trkpt lat="41.73106" lon="9.20372">
        <ele>873</ele>
        <time>2008-05-30T10:35:42+02:00</time>
      </trkpt>
      <trkpt lat="41.73095" lon="9.20353">
        <ele>869</ele>
        <time>2008-05-30T10:35:46+02:00</time>
      </trkpt>
      <trkpt lat="41.73074" lon="9.20339">
        <ele>870</ele>
        <time>2008-05-30T10:35:51+02:00</time>
      </trkpt>
      <trkpt lat="41.73056" lon="9.20335">
        <ele>874</ele>
        <time>2008-05-30T10:35:55+02:00</time>
      </trkpt>
      <trkpt lat="41.73035" lon="9.2034">
        <ele>876</ele>
        <time>2008-05-30T10:36:00+02:00</time>
      </trkpt>
      <trkpt lat="41.73017" lon="9.20359">
        <ele>878</ele>
        <time>2008-05-30T10:36:05+02:00</time>
      </trkpt>
      <trkpt lat="41.73006" lon="9.20373">
        <ele>881</ele>
        <time>2008-05-30T10:36:08+02:00</time>
      </trkpt>
      <trkpt lat="41.72987" lon="9.20385">
        <ele>882</ele>
        <time>2008-05-30T10:36:12+02:00</time>
      </trkpt>
      <trkpt lat="41.72967" lon="9.20389">
        <ele>882</ele>
        <time>2008-05-30T10:36:16+02:00</time>
      </trkpt>
      <trkpt lat="41.72951" lon="9.20384">
        <ele>882</ele>
        <time>2008-05-30T10:36:19+02:00</time>
      </trkpt>
      <trkpt lat="41.72926" lon="9.20361">
        <ele>876</ele>
        <time>2008-05-30T10:36:25+02:00</time>
      </trkpt>
      <trkpt lat="41.72917" lon="9.20355">
        <ele>874</ele>
        <time>2008-05-30T10:36:27+02:00</time>
      </trkpt>
      <trkpt lat="41.72895" lon="9.20359">
        <ele>873</ele>
        <time>2008-05-30T10:36:32+02:00</time>
      </trkpt>
      <trkpt lat="41.72877" lon="9.20369">
        <ele>875</ele>
        <time>2008-05-30T10:36:36+02:00</time>
      </trkpt>
      <trkpt lat="41.72868" lon="9.20374">
        <ele>876</ele>
        <time>2008-05-30T10:36:38+02:00</time>
      </trkpt>
      <trkpt lat="41.72832" lon="9.20396">
        <ele>879</ele>
        <time>2008-05-30T10:36:46+02:00</time>
      </trkpt>
      <trkpt lat="41.72825" lon="9.20404">
        <ele>880</ele>
        <time>2008-05-30T10:36:48+02:00</time>
      </trkpt>
      <trkpt lat="41.72816" lon="9.2043">
        <ele>891</ele>
        <time>2008-05-30T10:36:53+02:00</time>
      </trkpt>
      <trkpt lat="41.72812" lon="9.20447">
        <ele>894</ele>
        <time>2008-05-30T10:36:56+02:00</time>
      </trkpt>
      <trkpt lat="41.72795" lon="9.20471">
        <ele>897</ele>
        <time>2008-05-30T10:37:01+02:00</time>
      </trkpt>
      <trkpt lat="41.72778" lon="9.20466">
        <ele>897</ele>
        <time>2008-05-30T10:37:05+02:00</time>
      </trkpt>
      <trkpt lat="41.72769" lon="9.2045">
        <ele>895</ele>
        <time>2008-05-30T10:37:08+02:00</time>
      </trkpt>
      <trkpt lat="41.72766" lon="9.20438">
        <ele>894</ele>
        <time>2008-05-30T10:37:10+02:00</time>
      </trkpt>
      <trkpt lat="41.72752" lon="9.20383">
        <ele>879</ele>
        <time>2008-05-30T10:37:19+02:00</time>
      </trkpt>
      <trkpt lat="41.72749" lon="9.20379">
        <ele>890</ele>
        <time>2008-05-30T10:37:20+02:00</time>
      </trkpt>
      <trkpt lat="41.72737" lon="9.20367">
        <ele>889</ele>
        <time>2008-05-30T10:37:24+02:00</time>
      </trkpt>
      <trkpt lat="41.72706" lon="9.20347">
        <ele>891</ele>
        <time>2008-05-30T10:37:32+02:00</time>
      </trkpt>
      <trkpt lat="41.72698" lon="9.2034">
        <ele>892</ele>
        <time>2008-05-30T10:37:34+02:00</time>
      </trkpt>
      <trkpt lat="41.72687" lon="9.20327">
        <ele>880</ele>
        <time>2008-05-30T10:37:37+02:00</time>
      </trkpt>
      <trkpt lat="41.72667" lon="9.20303">
        <ele>877</ele>
        <time>2008-05-30T10:37:43+02:00</time>
      </trkpt>
      <trkpt lat="41.72636" lon="9.20287">
        <ele>884</ele>
        <time>2008-05-30T10:37:51+02:00</time>
      </trkpt>
      <trkpt lat="41.72632" lon="9.20284">
        <ele>884</ele>
        <time>2008-05-30T10:37:52+02:00</time>
      </trkpt>
      <trkpt lat="41.7262" lon="9.20281">
        <ele>884</ele>
        <time>2008-05-30T10:37:55+02:00</time>
      </trkpt>
      <trkpt lat="41.72597" lon="9.20277">
        <ele>884</ele>
        <time>2008-05-30T10:38:00+02:00</time>
      </trkpt>
      <trkpt lat="41.7257" lon="9.20273">
        <ele>889</ele>
        <time>2008-05-30T10:38:06+02:00</time>
      </trkpt>
      <trkpt lat="41.72562" lon="9.20271">
        <ele>890</ele>
        <time>2008-05-30T10:38:08+02:00</time>
      </trkpt>
      <trkpt lat="41.72523" lon="9.20261">
        <ele>891</ele>
        <time>2008-05-30T10:38:16+02:00</time>
      </trkpt>
      <trkpt lat="41.725" lon="9.20256">
        <ele>886</ele>
        <time>2008-05-30T10:38:21+02:00</time>
      </trkpt>
      <trkpt lat="41.72468" lon="9.20248">
        <ele>878</ele>
        <time>2008-05-30T10:38:28+02:00</time>
      </trkpt>
      <trkpt lat="41.72464" lon="9.20247">
        <ele>878</ele>
        <time>2008-05-30T10:38:29+02:00</time>
      </trkpt>
      <trkpt lat="41.72455" lon="9.20246">
        <ele>879</ele>
        <time>2008-05-30T10:38:31+02:00</time>
      </trkpt>
      <trkpt lat="41.72446" lon="9.20244">
        <ele>880</ele>
        <time>2008-05-30T10:38:33+02:00</time>
      </trkpt>
      <trkpt lat="41.72427" lon="9.20243">
        <ele>885</ele>
        <time>2008-05-30T10:38:37+02:00</time>
      </trkpt>
      <trkpt lat="41.72408" lon="9.20239">
        <ele>889</ele>
        <time>2008-05-30T10:38:41+02:00</time>
      </trkpt>
      <trkpt lat="41.72395" lon="9.20232">
        <ele>886</ele>
        <time>2008-05-30T10:38:44+02:00</time>
      </trkpt>
      <trkpt lat="41.72371" lon="9.20226">
        <ele>886</ele>
        <time>2008-05-30T10:38:49+02:00</time>
      </trkpt>
      <trkpt lat="41.72347" lon="9.20215">
        <ele>885</ele>
        <time>2008-05-30T10:38:54+02:00</time>
      </trkpt>
      <trkpt lat="41.72325" lon="9.20195">
        <ele>883</ele>
        <time>2008-05-30T10:39:00+02:00</time>
      </trkpt>
      <trkpt lat="41.72299" lon="9.20193">
        <ele>883</ele>
        <time>2008-05-30T10:39:06+02:00</time>
      </trkpt>
      <trkpt lat="41.72286" lon="9.20199">
        <ele>884</ele>
        <time>2008-05-30T10:39:09+02:00</time>
      </trkpt>
      <trkpt lat="41.72279" lon="9.20206">
        <ele>885</ele>
        <time>2008-05-30T10:39:11+02:00</time>
      </trkpt>
      <trkpt lat="41.72251" lon="9.20233">
        <ele>890</ele>
        <time>2008-05-30T10:39:18+02:00</time>
      </trkpt>
      <trkpt lat="41.72215" lon="9.2025">
        <ele>894</ele>
        <time>2008-05-30T10:39:26+02:00</time>
      </trkpt>
      <trkpt lat="41.72192" lon="9.20258">
        <ele>891</ele>
        <time>2008-05-30T10:39:31+02:00</time>
      </trkpt>
      <trkpt lat="41.72172" lon="9.20277">
        <ele>891</ele>
        <time>2008-05-30T10:39:37+02:00</time>
      </trkpt>
      <trkpt lat="41.72166" lon="9.20297">
        <ele>879</ele>
        <time>2008-05-30T10:39:41+02:00</time>
      </trkpt>
      <trkpt lat="41.72165" lon="9.20303">
        <ele>879</ele>
        <time>2008-05-30T10:39:42+02:00</time>
      </trkpt>
      <trkpt lat="41.72162" lon="9.20335">
        <ele>888</ele>
        <time>2008-05-30T10:39:47+02:00</time>
      </trkpt>
      <trkpt lat="41.72157" lon="9.20359">
        <ele>879</ele>
        <time>2008-05-30T10:39:51+02:00</time>
      </trkpt>
      <trkpt lat="41.72153" lon="9.20388">
        <ele>877</ele>
        <time>2008-05-30T10:39:56+02:00</time>
      </trkpt>
      <trkpt lat="41.7216" lon="9.20422">
        <ele>882</ele>
        <time>2008-05-30T10:40:02+02:00</time>
      </trkpt>
      <trkpt lat="41.72174" lon="9.20442">
        <ele>895</ele>
        <time>2008-05-30T10:40:07+02:00</time>
      </trkpt>
      <trkpt lat="41.72183" lon="9.20448">
        <ele>896</ele>
        <time>2008-05-30T10:40:09+02:00</time>
      </trkpt>
      <trkpt lat="41.7219" lon="9.20456">
        <ele>897</ele>
        <time>2008-05-30T10:40:11+02:00</time>
      </trkpt>
      <trkpt lat="41.72205" lon="9.20484">
        <ele>897</ele>
        <time>2008-05-30T10:40:17+02:00</time>
      </trkpt>
      <trkpt lat="41.72217" lon="9.20517">
        <ele>893</ele>
        <time>2008-05-30T10:40:23+02:00</time>
      </trkpt>
      <trkpt lat="41.72233" lon="9.20551">
        <ele>894</ele>
        <time>2008-05-30T10:40:30+02:00</time>
      </trkpt>
      <trkpt lat="41.72237" lon="9.20569">
        <ele>896</ele>
        <time>2008-05-30T10:40:33+02:00</time>
      </trkpt>
      <trkpt lat="41.72243" lon="9.20601">
        <ele>896</ele>
        <time>2008-05-30T10:40:39+02:00</time>
      </trkpt>
      <trkpt lat="41.72243" lon="9.2062">
        <ele>894</ele>
        <time>2008-05-30T10:40:42+02:00</time>
      </trkpt>
      <trkpt lat="41.72254" lon="9.20654">
        <ele>910</ele>
        <time>2008-05-30T10:40:48+02:00</time>
      </trkpt>
      <trkpt lat="41.72256" lon="9.2066">
        <ele>908</ele>
        <time>2008-05-30T10:40:49+02:00</time>
      </trkpt>
      <trkpt lat="41.72257" lon="9.2069">
        <ele>918</ele>
        <time>2008-05-30T10:40:54+02:00</time>
      </trkpt>
      <trkpt lat="41.72244" lon="9.20709">
        <ele>907</ele>
        <time>2008-05-30T10:40:58+02:00</time>
      </trkpt>
      <trkpt lat="41.72229" lon="9.20706">
        <ele>906</ele>
        <time>2008-05-30T10:41:01+02:00</time>
      </trkpt>
      <trkpt lat="41.72219" lon="9.20705">
        <ele>906</ele>
        <time>2008-05-30T10:41:03+02:00</time>
      </trkpt>
      <trkpt lat="41.72175" lon="9.2071">
        <ele>904</ele>
        <time>2008-05-30T10:41:12+02:00</time>
      </trkpt>
      <trkpt lat="41.72148" lon="9.20705">
        <ele>902</ele>
        <time>2008-05-30T10:41:18+02:00</time>
      </trkpt>
      <trkpt lat="41.72131" lon="9.20702">
        <ele>902</ele>
        <time>2008-05-30T10:41:22+02:00</time>
      </trkpt>
      <trkpt lat="41.72114" lon="9.20705">
        <ele>903</ele>
        <time>2008-05-30T10:41:26+02:00</time>
      </trkpt>
      <trkpt lat="41.72092" lon="9.20709">
        <ele>905</ele>
        <time>2008-05-30T10:41:31+02:00</time>
      </trkpt>
      <trkpt lat="41.72072" lon="9.20702">
        <ele>911</ele>
        <time>2008-05-30T10:41:36+02:00</time>
      </trkpt>
      <trkpt lat="41.72043" lon="9.20683">
        <ele>911</ele>
        <time>2008-05-30T10:41:44+02:00</time>
      </trkpt>
      <trkpt lat="41.72027" lon="9.20675">
        <ele>911</ele>
        <time>2008-05-30T10:41:48+02:00</time>
      </trkpt>
      <trkpt lat="41.72001" lon="9.20672">
        <ele>909</ele>
        <time>2008-05-30T10:41:55+02:00</time>
      </trkpt>
      <trkpt lat="41.7197" lon="9.2067">
        <ele>919</ele>
        <time>2008-05-30T10:42:03+02:00</time>
      </trkpt>
      <trkpt lat="41.7194" lon="9.20671">
        <ele>920</ele>
        <time>2008-05-30T10:42:11+02:00</time>
      </trkpt>
      <trkpt lat="41.71918" lon="9.20672">
        <ele>915</ele>
        <time>2008-05-30T10:42:18+02:00</time>
      </trkpt>
      <trkpt lat="41.71897" lon="9.20666">
        <ele>913</ele>
        <time>2008-05-30T10:42:24+02:00</time>
      </trkpt>
      <trkpt lat="41.71876" lon="9.20649">
        <ele>915</ele>
        <time>2008-05-30T10:42:31+02:00</time>
      </trkpt>
      <trkpt lat="41.7186" lon="9.20622">
        <ele>913</ele>
        <time>2008-05-30T10:42:38+02:00</time>
      </trkpt>
      <trkpt lat="41.71841" lon="9.20601">
        <ele>912</ele>
        <time>2008-05-30T10:42:45+02:00</time>
      </trkpt>
      <trkpt lat="41.71822" lon="9.20579">
        <ele>908</ele>
        <time>2008-05-30T10:42:52+02:00</time>
      </trkpt>
      <trkpt lat="41.71799" lon="9.20569">
        <ele>906</ele>
        <time>2008-05-30T10:42:58+02:00</time>
      </trkpt>
      <trkpt lat="41.71776" lon="9.20567">
        <ele>908</ele>
        <time>2008-05-30T10:43:04+02:00</time>
      </trkpt>
      <trkpt lat="41.71753" lon="9.20569">
        <ele>914</ele>
        <time>2008-05-30T10:43:10+02:00</time>
      </trkpt>
      <trkpt lat="41.71733" lon="9.20573">
        <ele>913</ele>
        <time>2008-05-30T10:43:16+02:00</time>
      </trkpt>
      <trkpt lat="41.71709" lon="9.20577">
        <ele>911</ele>
        <time>2008-05-30T10:43:22+02:00</time>
      </trkpt>
      <trkpt lat="41.71684" lon="9.2058">
        <ele>913</ele>
        <time>2008-05-30T10:43:28+02:00</time>
      </trkpt>
      <trkpt lat="41.71649" lon="9.20584">
        <ele>926</ele>
        <time>2008-05-30T10:43:37+02:00</time>
      </trkpt>
      <trkpt lat="41.71607" lon="9.20588">
        <ele>925</ele>
        <time>2008-05-30T10:43:47+02:00</time>
      </trkpt>
      <trkpt lat="41.71575" lon="9.20591">
        <ele>916</ele>
        <time>2008-05-30T10:43:55+02:00</time>
      </trkpt>
      <trkpt lat="41.71539" lon="9.20599">
        <ele>914</ele>
        <time>2008-05-30T10:44:05+02:00</time>
      </trkpt>
      <trkpt lat="41.71525" lon="9.20617">
        <ele>914</ele>
        <time>2008-05-30T10:44:11+02:00</time>
      </trkpt>
      <trkpt lat="41.7152" lon="9.20647">
        <ele>915</ele>
        <time>2008-05-30T10:44:18+02:00</time>
      </trkpt>
      <trkpt lat="41.71524" lon="9.20683">
        <ele>921</ele>
        <time>2008-05-30T10:44:26+02:00</time>
      </trkpt>
      <trkpt lat="41.71535" lon="9.20705">
        <ele>924</ele>
        <time>2008-05-30T10:44:32+02:00</time>
      </trkpt>
      <trkpt lat="41.71555" lon="9.20725">
        <ele>927</ele>
        <time>2008-05-30T10:44:39+02:00</time>
      </trkpt>
      <trkpt lat="41.71576" lon="9.20738">
        <ele>931</ele>
        <time>2008-05-30T10:44:45+02:00</time>
      </trkpt>
      <trkpt lat="41.7159" lon="9.20752">
        <ele>939</ele>
        <time>2008-05-30T10:44:50+02:00</time>
      </trkpt>
      <trkpt lat="41.71614" lon="9.20779">
        <ele>949</ele>
        <time>2008-05-30T10:44:58+02:00</time>
      </trkpt>
      <trkpt lat="41.71615" lon="9.20799">
        <ele>950</ele>
        <time>2008-05-30T10:45:02+02:00</time>
      </trkpt>
      <trkpt lat="41.71604" lon="9.2082">
        <ele>948</ele>
        <time>2008-05-30T10:45:07+02:00</time>
      </trkpt>
      <trkpt lat="41.71589" lon="9.20826">
        <ele>945</ele>
        <time>2008-05-30T10:45:11+02:00</time>
      </trkpt>
      <trkpt lat="41.71563" lon="9.20829">
        <ele>937</ele>
        <time>2008-05-30T10:45:18+02:00</time>
      </trkpt>
      <trkpt lat="41.71541" lon="9.20835">
        <ele>947</ele>
        <time>2008-05-30T10:45:24+02:00</time>
      </trkpt>
      <trkpt lat="41.71517" lon="9.20851">
        <ele>946</ele>
        <time>2008-05-30T10:45:31+02:00</time>
      </trkpt>
      <trkpt lat="41.71498" lon="9.20858">
        <ele>942</ele>
        <time>2008-05-30T10:45:36+02:00</time>
      </trkpt>
      <trkpt lat="41.71477" lon="9.2086">
        <ele>942</ele>
        <time>2008-05-30T10:45:41+02:00</time>
      </trkpt>
      <trkpt lat="41.71448" lon="9.2086">
        <ele>941</ele>
        <time>2008-05-30T10:45:48+02:00</time>
      </trkpt>
      <trkpt lat="41.71444" lon="9.2086">
        <ele>940</ele>
        <time>2008-05-30T10:45:49+02:00</time>
      </trkpt>
      <trkpt lat="41.71429" lon="9.20865">
        <ele>940</ele>
        <time>2008-05-30T10:45:53+02:00</time>
      </trkpt>
      <trkpt lat="41.7141" lon="9.20883">
        <ele>940</ele>
        <time>2008-05-30T10:45:59+02:00</time>
      </trkpt>
      <trkpt lat="41.71397" lon="9.20901">
        <ele>943</ele>
        <time>2008-05-30T10:46:04+02:00</time>
      </trkpt>
      <trkpt lat="41.71381" lon="9.20921">
        <ele>952</ele>
        <time>2008-05-30T10:46:09+02:00</time>
      </trkpt>
      <trkpt lat="41.71372" lon="9.20932">
        <ele>951</ele>
        <time>2008-05-30T10:46:12+02:00</time>
      </trkpt>
      <trkpt lat="41.71339" lon="9.20957">
        <ele>951</ele>
        <time>2008-05-30T10:46:21+02:00</time>
      </trkpt>
      <trkpt lat="41.71328" lon="9.20965">
        <ele>949</ele>
        <time>2008-05-30T10:46:24+02:00</time>
      </trkpt>
      <trkpt lat="41.71322" lon="9.20971">
        <ele>950</ele>
        <time>2008-05-30T10:46:26+02:00</time>
      </trkpt>
      <trkpt lat="41.71307" lon="9.20983">
        <ele>950</ele>
        <time>2008-05-30T10:46:30+02:00</time>
      </trkpt>
      <trkpt lat="41.71291" lon="9.20994">
        <ele>951</ele>
        <time>2008-05-30T10:46:34+02:00</time>
      </trkpt>
      <trkpt lat="41.71283" lon="9.20999">
        <ele>951</ele>
        <time>2008-05-30T10:46:36+02:00</time>
      </trkpt>
      <trkpt lat="41.71259" lon="9.21002">
        <ele>955</ele>
        <time>2008-05-30T10:46:42+02:00</time>
      </trkpt>
      <trkpt lat="41.71247" lon="9.20998">
        <ele>954</ele>
        <time>2008-05-30T10:46:45+02:00</time>
      </trkpt>
      <trkpt lat="41.71213" lon="9.20981">
        <ele>957</ele>
        <time>2008-05-30T10:46:55+02:00</time>
      </trkpt>
      <trkpt lat="41.71197" lon="9.20968">
        <ele>958</ele>
        <time>2008-05-30T10:47:02+02:00</time>
      </trkpt>
      <trkpt lat="41.71183" lon="9.20955">
        <ele>959</ele>
        <time>2008-05-30T10:47:09+02:00</time>
      </trkpt>
      <trkpt lat="41.71167" lon="9.20945">
        <ele>959</ele>
        <time>2008-05-30T10:47:17+02:00</time>
      </trkpt>
      <trkpt lat="41.71148" lon="9.20942">
        <ele>964</ele>
        <time>2008-05-30T10:47:25+02:00</time>
      </trkpt>
      <trkpt lat="41.71127" lon="9.20941">
        <ele>964</ele>
        <time>2008-05-30T10:47:34+02:00</time>
      </trkpt>
      <trkpt lat="41.7111" lon="9.20944">
        <ele>965</ele>
        <time>2008-05-30T10:47:41+02:00</time>
      </trkpt>
      <trkpt lat="41.71085" lon="9.20955">
        <ele>966</ele>
        <time>2008-05-30T10:47:51+02:00</time>
      </trkpt>
      <trkpt lat="41.71062" lon="9.20964">
        <ele>968</ele>
        <time>2008-05-30T10:48:00+02:00</time>
      </trkpt>
      <trkpt lat="41.71045" lon="9.20971">
        <ele>968</ele>
        <time>2008-05-30T10:48:06+02:00</time>
      </trkpt>
      <trkpt lat="41.71027" lon="9.20978">
        <ele>969</ele>
        <time>2008-05-30T10:48:13+02:00</time>
      </trkpt>
      <trkpt lat="41.71008" lon="9.2098">
        <ele>971</ele>
        <time>2008-05-30T10:48:20+02:00</time>
      </trkpt>
      <trkpt lat="41.70991" lon="9.20975">
        <ele>971</ele>
        <time>2008-05-30T10:48:26+02:00</time>
      </trkpt>
      <trkpt lat="41.70971" lon="9.20974">
        <ele>971</ele>
        <time>2008-05-30T10:48:32+02:00</time>
      </trkpt>
      <trkpt lat="41.70947" lon="9.20967">
        <ele>971</ele>
        <time>2008-05-30T10:48:39+02:00</time>
      </trkpt>
      <trkpt lat="41.70923" lon="9.20959">
        <ele>970</ele>
        <time>2008-05-30T10:48:46+02:00</time>
      </trkpt>
      <trkpt lat="41.70888" lon="9.20956">
        <ele>973</ele>
        <time>2008-05-30T10:48:56+02:00</time>
      </trkpt>
      <trkpt lat="41.70863" lon="9.20959">
        <ele>974</ele>
        <time>2008-05-30T10:49:03+02:00</time>
      </trkpt>
      <trkpt lat="41.70832" lon="9.20969">
        <ele>978</ele>
        <time>2008-05-30T10:49:11+02:00</time>
      </trkpt>
      <trkpt lat="41.70798" lon="9.2098">
        <ele>979</ele>
        <time>2008-05-30T10:49:21+02:00</time>
      </trkpt>
      <trkpt lat="41.70771" lon="9.20994">
        <ele>981</ele>
        <time>2008-05-30T10:49:29+02:00</time>
      </trkpt>
      <trkpt lat="41.70737" lon="9.21013">
        <ele>990</ele>
        <time>2008-05-30T10:49:38+02:00</time>
      </trkpt>
      <trkpt lat="41.70712" lon="9.21024">
        <ele>991</ele>
        <time>2008-05-30T10:49:45+02:00</time>
      </trkpt>
      <trkpt lat="41.70683" lon="9.21034">
        <ele>991</ele>
        <time>2008-05-30T10:49:53+02:00</time>
      </trkpt>
      <trkpt lat="41.7066" lon="9.21046">
        <ele>990</ele>
        <time>2008-05-30T10:50:00+02:00</time>
      </trkpt>
      <trkpt lat="41.70632" lon="9.21063">
        <ele>990</ele>
        <time>2008-05-30T10:50:09+02:00</time>
      </trkpt>
      <trkpt lat="41.70611" lon="9.21073">
        <ele>991</ele>
        <time>2008-05-30T10:50:15+02:00</time>
      </trkpt>
      <trkpt lat="41.70588" lon="9.21084">
        <ele>995</ele>
        <time>2008-05-30T10:50:21+02:00</time>
      </trkpt>
      <trkpt lat="41.70569" lon="9.21095">
        <ele>995</ele>
        <time>2008-05-30T10:50:27+02:00</time>
      </trkpt>
      <trkpt lat="41.7055" lon="9.21107">
        <ele>995</ele>
        <time>2008-05-30T10:50:32+02:00</time>
      </trkpt>
      <trkpt lat="41.70521" lon="9.21132">
        <ele>995</ele>
        <time>2008-05-30T10:51:41+02:00</time>
      </trkpt>
      <trkpt lat="41.7052" lon="9.21131">
        <ele>995</ele>
        <time>2008-05-30T10:51:48+02:00</time>
      </trkpt>
      <trkpt lat="41.70521" lon="9.21133">
        <ele>995</ele>
        <time>2008-05-30T10:52:07+02:00</time>
      </trkpt>
      <trkpt lat="41.7052" lon="9.21135">
        <ele>995</ele>
        <time>2008-05-30T10:52:15+02:00</time>
      </trkpt>
      <trkpt lat="41.7052" lon="9.21141">
        <ele>995</ele>
        <time>2008-05-30T10:52:27+02:00</time>
      </trkpt>
      <trkpt lat="41.70521" lon="9.21139">
        <ele>995</ele>
        <time>2008-05-30T10:52:36+02:00</time>
      </trkpt>
      <trkpt lat="41.70521" lon="9.21134">
        <ele>995</ele>
        <time>2008-05-30T10:52:42+02:00</time>
      </trkpt>
      <trkpt lat="41.70522" lon="9.21132">
        <ele>995</ele>
        <time>2008-05-30T10:52:50+02:00</time>
      </trkpt>
      <trkpt lat="41.70521" lon="9.21133">
        <ele>995</ele>
        <time>2008-05-30T10:52:57+02:00</time>
      </trkpt>
      <trkpt lat="41.70521" lon="9.21131">
        <ele>995</ele>
        <time>2008-05-30T10:53:09+02:00</time>
      </trkpt>
      <trkpt lat="41.7052" lon="9.21129">
        <ele>995</ele>
        <time>2008-05-30T10:53:16+02:00</time>
      </trkpt>
      <trkpt lat="41.70521" lon="9.21129">
        <ele>995</ele>
        <time>2008-05-30T10:53:27+02:00</time>
      </trkpt>
      <trkpt lat="41.70521" lon="9.21128">
        <ele>995</ele>
        <time>2008-05-30T10:53:37+02:00</time>
      </trkpt>
      <trkpt lat="41.70521" lon="9.21125">
        <ele>995</ele>
        <time>2008-05-30T10:53:43+02:00</time>
      </trkpt>
      <trkpt lat="41.70521" lon="9.21128">
        <ele>995</ele>
        <time>2008-05-30T10:53:50+02:00</time>
      </trkpt>
      <trkpt lat="41.70523" lon="9.21124">
        <ele>995</ele>
        <time>2008-05-30T10:54:00+02:00</time>
      </trkpt>
      <trkpt lat="41.70524" lon="9.21121">
        <ele>995</ele>
        <time>2008-05-30T10:54:07+02:00</time>
      </trkpt>
      <trkpt lat="41.70524" lon="9.2112">
        <ele>995</ele>
        <time>2008-05-30T10:54:16+02:00</time>
      </trkpt>
      <trkpt lat="41.70524" lon="9.21119">
        <ele>995</ele>
        <time>2008-05-30T10:54:23+02:00</time>
      </trkpt>
      <trkpt lat="41.70523" lon="9.2112">
        <ele>995</ele>
        <time>2008-05-30T10:54:33+02:00</time>
      </trkpt>
      <trkpt lat="41.70524" lon="9.2112">
        <ele>995</ele>
        <time>2008-05-30T10:54:37+02:00</time>
      </trkpt>
      <trkpt lat="41.70524" lon="9.21118">
        <ele>995</ele>
        <time>2008-05-30T10:54:44+02:00</time>
      </trkpt>
      <trkpt lat="41.70524" lon="9.2112">
        <ele>995</ele>
        <time>2008-05-30T10:54:53+02:00</time>
      </trkpt>
      <trkpt lat="41.70522" lon="9.21121">
        <ele>995</ele>
        <time>2008-05-30T10:55:10+02:00</time>
      </trkpt>
      <trkpt lat="41.70524" lon="9.21125">
        <ele>995</ele>
        <time>2008-05-30T10:55:21+02:00</time>
      </trkpt>
      <trkpt lat="41.70528" lon="9.21127">
        <ele>995</ele>
        <time>2008-05-30T10:55:25+02:00</time>
      </trkpt>
      <trkpt lat="41.70531" lon="9.21126">
        <ele>995</ele>
        <time>2008-05-30T10:55:27+02:00</time>
      </trkpt>
      <trkpt lat="41.70538" lon="9.21122">
        <ele>995</ele>
        <time>2008-05-30T10:55:34+02:00</time>
      </trkpt>
      <trkpt lat="41.70539" lon="9.21121">
        <ele>996</ele>
        <time>2008-05-30T10:55:36+02:00</time>
      </trkpt>
      <trkpt lat="41.70543" lon="9.21121">
        <ele>996</ele>
        <time>2008-05-30T10:55:44+02:00</time>
      </trkpt>
      <trkpt lat="41.70542" lon="9.21119">
        <ele>996</ele>
        <time>2008-05-30T10:55:59+02:00</time>
      </trkpt>
      <trkpt lat="41.70541" lon="9.21119">
        <ele>995</ele>
        <time>2008-05-30T10:56:00+02:00</time>
      </trkpt>
      <trkpt lat="41.70534" lon="9.21123">
        <ele>995</ele>
        <time>2008-05-30T10:56:06+02:00</time>
      </trkpt>
      <trkpt lat="41.70525" lon="9.21131">
        <ele>995</ele>
        <time>2008-05-30T10:56:15+02:00</time>
      </trkpt>
      <trkpt lat="41.70524" lon="9.21133">
        <ele>995</ele>
        <time>2008-05-30T10:56:17+02:00</time>
      </trkpt>
      <trkpt lat="41.70523" lon="9.21134">
        <ele>995</ele>
        <time>2008-05-30T10:56:24+02:00</time>
      </trkpt>
      <trkpt lat="41.70525" lon="9.21134">
        <ele>995</ele>
        <time>2008-05-30T10:56:39+02:00</time>
      </trkpt>
      <trkpt lat="41.70522" lon="9.21134">
        <ele>995</ele>
        <time>2008-05-30T10:56:44+02:00</time>
      </trkpt>
      <trkpt lat="41.70523" lon="9.21133">
        <ele>995</ele>
        <time>2008-05-30T10:56:52+02:00</time>
      </trkpt>
      <trkpt lat="41.70522" lon="9.21135">
        <ele>995</ele>
        <time>2008-05-30T10:57:13+02:00</time>
      </trkpt>
      <trkpt lat="41.70521" lon="9.21133">
        <ele>995</ele>
        <time>2008-05-30T10:57:32+02:00</time>
      </trkpt>
      <trkpt lat="41.70521" lon="9.21133">
        <ele>995</ele>
        <time>2008-05-30T10:57:40+02:00</time>
      </trkpt>
      <trkpt lat="41.70521" lon="9.21133">
        <ele>995</ele>
        <time>2008-05-30T10:57:49+02:00</time>
      </trkpt>
      <trkpt lat="41.7052" lon="9.21131">
        <ele>995</ele>
        <time>2008-05-30T10:57:55+02:00</time>
      </trkpt>
      <trkpt lat="41.7052" lon="9.21131">
        <ele>995</ele>
        <time>2008-05-30T10:57:56+02:00</time>
      </trkpt>
      <trkpt lat="41.7052" lon="9.21132">
        <ele>995</ele>
        <time>2008-05-30T10:58:03+02:00</time>
      </trkpt>
      <trkpt lat="41.7052" lon="9.21131">
        <ele>995</ele>
        <time>2008-05-30T10:58:10+02:00</time>
      </trkpt>
      <trkpt lat="41.70522" lon="9.21133">
        <ele>995</ele>
        <time>2008-05-30T10:58:15+02:00</time>
      </trkpt>
      <trkpt lat="41.70521" lon="9.21134">
        <ele>995</ele>
        <time>2008-05-30T10:58:22+02:00</time>
      </trkpt>
      <trkpt lat="41.70522" lon="9.21135">
        <ele>995</ele>
        <time>2008-05-30T10:58:28+02:00</time>
      </trkpt>
      <trkpt lat="41.70522" lon="9.21136">
        <ele>995</ele>
        <time>2008-05-30T10:58:36+02:00</time>
      </trkpt>
      <trkpt lat="41.70522" lon="9.21137">
        <ele>995</ele>
        <time>2008-05-30T10:58:42+02:00</time>
      </trkpt>
      <trkpt lat="41.70523" lon="9.21133">
        <ele>995</ele>
        <time>2008-05-30T10:58:51+02:00</time>
      </trkpt>
      <trkpt lat="41.70516" lon="9.21127">
        <ele>995</ele>
        <time>2008-05-30T10:58:56+02:00</time>
      </trkpt>
      <trkpt lat="41.705" lon="9.21131">
        <ele>995</ele>
        <time>2008-05-30T10:59:02+02:00</time>
      </trkpt>
      <trkpt lat="41.70482" lon="9.21136">
        <ele>992</ele>
        <time>2008-05-30T10:59:08+02:00</time>
      </trkpt>
      <trkpt lat="41.70467" lon="9.21137">
        <ele>992</ele>
        <time>2008-05-30T10:59:12+02:00</time>
      </trkpt>
      <trkpt lat="41.70444" lon="9.21137">
        <ele>991</ele>
        <time>2008-05-30T10:59:17+02:00</time>
      </trkpt>
      <trkpt lat="41.70433" lon="9.2114">
        <ele>991</ele>
        <time>2008-05-30T10:59:19+02:00</time>
      </trkpt>
      <trkpt lat="41.70404" lon="9.21156">
        <ele>989</ele>
        <time>2008-05-30T10:59:24+02:00</time>
      </trkpt>
      <trkpt lat="41.70388" lon="9.21178">
        <ele>986</ele>
        <time>2008-05-30T10:59:27+02:00</time>
      </trkpt>
      <trkpt lat="41.70376" lon="9.21206">
        <ele>985</ele>
        <time>2008-05-30T10:59:30+02:00</time>
      </trkpt>
      <trkpt lat="41.70349" lon="9.21233">
        <ele>984</ele>
        <time>2008-05-30T10:59:34+02:00</time>
      </trkpt>
      <trkpt lat="41.70325" lon="9.21233">
        <ele>983</ele>
        <time>2008-05-30T10:59:37+02:00</time>
      </trkpt>
      <trkpt lat="41.70309" lon="9.21228">
        <ele>983</ele>
        <time>2008-05-30T10:59:39+02:00</time>
      </trkpt>
      <trkpt lat="41.70285" lon="9.21222">
        <ele>983</ele>
        <time>2008-05-30T10:59:42+02:00</time>
      </trkpt>
      <trkpt lat="41.70225" lon="9.21225">
        <ele>981</ele>
        <time>2008-05-30T10:59:49+02:00</time>
      </trkpt>
      <trkpt lat="41.70173" lon="9.21232">
        <ele>979</ele>
        <time>2008-05-30T10:59:55+02:00</time>
      </trkpt>
      <trkpt lat="41.70147" lon="9.21235">
        <ele>977</ele>
        <time>2008-05-30T10:59:58+02:00</time>
      </trkpt>
      <trkpt lat="41.70101" lon="9.21225">
        <ele>976</ele>
        <time>2008-05-30T11:00:03+02:00</time>
      </trkpt>
      <trkpt lat="41.7007" lon="9.21199">
        <ele>975</ele>
        <time>2008-05-30T11:00:07+02:00</time>
      </trkpt>
      <trkpt lat="41.70056" lon="9.21184">
        <ele>976</ele>
        <time>2008-05-30T11:00:09+02:00</time>
      </trkpt>
      <trkpt lat="41.70022" lon="9.21177">
        <ele>975</ele>
        <time>2008-05-30T11:00:13+02:00</time>
      </trkpt>
      <trkpt lat="41.70014" lon="9.21182">
        <ele>975</ele>
        <time>2008-05-30T11:00:14+02:00</time>
      </trkpt>
      <trkpt lat="41.69997" lon="9.21195">
        <ele>973</ele>
        <time>2008-05-30T11:00:16+02:00</time>
      </trkpt>
      <trkpt lat="41.6997" lon="9.21196">
        <ele>973</ele>
        <time>2008-05-30T11:00:19+02:00</time>
      </trkpt>
      <trkpt lat="41.69962" lon="9.21193">
        <ele>973</ele>
        <time>2008-05-30T11:00:20+02:00</time>
      </trkpt>
      <trkpt lat="41.69929" lon="9.21202">
        <ele>972</ele>
        <time>2008-05-30T11:00:24+02:00</time>
      </trkpt>
      <trkpt lat="41.69914" lon="9.21214">
        <ele>973</ele>
        <time>2008-05-30T11:00:26+02:00</time>
      </trkpt>
      <trkpt lat="41.69883" lon="9.21224">
        <ele>973</ele>
        <time>2008-05-30T11:00:30+02:00</time>
      </trkpt>
      <trkpt lat="41.69867" lon="9.2123">
        <ele>973</ele>
        <time>2008-05-30T11:00:32+02:00</time>
      </trkpt>
      <trkpt lat="41.69845" lon="9.21243">
        <ele>971</ele>
        <time>2008-05-30T11:00:35+02:00</time>
      </trkpt>
      <trkpt lat="41.69813" lon="9.21248">
        <ele>974</ele>
        <time>2008-05-30T11:00:39+02:00</time>
      </trkpt>
      <trkpt lat="41.69797" lon="9.21248">
        <ele>975</ele>
        <time>2008-05-30T11:00:41+02:00</time>
      </trkpt>
      <trkpt lat="41.69751" lon="9.21259">
        <ele>967</ele>
        <time>2008-05-30T11:00:47+02:00</time>
      </trkpt>
      <trkpt lat="41.69707" lon="9.21256">
        <ele>960</ele>
        <time>2008-05-30T11:00:53+02:00</time>
      </trkpt>
      <trkpt lat="41.69669" lon="9.21245">
        <ele>962</ele>
        <time>2008-05-30T11:00:58+02:00</time>
      </trkpt>
      <trkpt lat="41.69635" lon="9.21224">
        <ele>962</ele>
        <time>2008-05-30T11:01:03+02:00</time>
      </trkpt>
      <trkpt lat="41.6961" lon="9.21205">
        <ele>962</ele>
        <time>2008-05-30T11:01:07+02:00</time>
      </trkpt>
      <trkpt lat="41.69559" lon="9.21182">
        <ele>956</ele>
        <time>2008-05-30T11:01:15+02:00</time>
      </trkpt>
      <trkpt lat="41.69521" lon="9.21169">
        <ele>954</ele>
        <time>2008-05-30T11:01:21+02:00</time>
      </trkpt>
      <trkpt lat="41.69509" lon="9.21162">
        <ele>959</ele>
        <time>2008-05-30T11:01:23+02:00</time>
      </trkpt>
      <trkpt lat="41.69476" lon="9.21135">
        <ele>953</ele>
        <time>2008-05-30T11:01:29+02:00</time>
      </trkpt>
      <trkpt lat="41.69458" lon="9.21096">
        <ele>953</ele>
        <time>2008-05-30T11:01:34+02:00</time>
      </trkpt>
      <trkpt lat="41.69454" lon="9.21078">
        <ele>954</ele>
        <time>2008-05-30T11:01:36+02:00</time>
      </trkpt>
      <trkpt lat="41.69445" lon="9.21023">
        <ele>954</ele>
        <time>2008-05-30T11:01:42+02:00</time>
      </trkpt>
      <trkpt lat="41.69429" lon="9.20981">
        <ele>955</ele>
        <time>2008-05-30T11:01:47+02:00</time>
      </trkpt>
      <trkpt lat="41.694" lon="9.20944">
        <ele>948</ele>
        <time>2008-05-30T11:01:53+02:00</time>
      </trkpt>
      <trkpt lat="41.69375" lon="9.20901">
        <ele>950</ele>
        <time>2008-05-30T11:01:59+02:00</time>
      </trkpt>
      <trkpt lat="41.69372" lon="9.20893">
        <ele>950</ele>
        <time>2008-05-30T11:02:00+02:00</time>
      </trkpt>
      <trkpt lat="41.6935" lon="9.20836">
        <ele>947</ele>
        <time>2008-05-30T11:02:07+02:00</time>
      </trkpt>
      <trkpt lat="41.69347" lon="9.20828">
        <ele>950</ele>
        <time>2008-05-30T11:02:08+02:00</time>
      </trkpt>
      <trkpt lat="41.69323" lon="9.20801">
        <ele>945</ele>
        <time>2008-05-30T11:02:13+02:00</time>
      </trkpt>
      <trkpt lat="41.69311" lon="9.20795">
        <ele>945</ele>
        <time>2008-05-30T11:02:15+02:00</time>
      </trkpt>
      <trkpt lat="41.69268" lon="9.20772">
        <ele>943</ele>
        <time>2008-05-30T11:02:22+02:00</time>
      </trkpt>
      <trkpt lat="41.69252" lon="9.20757">
        <ele>941</ele>
        <time>2008-05-30T11:02:25+02:00</time>
      </trkpt>
      <trkpt lat="41.69216" lon="9.20709">
        <ele>941</ele>
        <time>2008-05-30T11:02:33+02:00</time>
      </trkpt>
      <trkpt lat="41.69193" lon="9.20691">
        <ele>940</ele>
        <time>2008-05-30T11:02:37+02:00</time>
      </trkpt>
      <trkpt lat="41.69155" lon="9.20644">
        <ele>938</ele>
        <time>2008-05-30T11:02:44+02:00</time>
      </trkpt>
      <trkpt lat="41.6915" lon="9.20637">
        <ele>938</ele>
        <time>2008-05-30T11:02:45+02:00</time>
      </trkpt>
      <trkpt lat="41.6914" lon="9.20622">
        <ele>938</ele>
        <time>2008-05-30T11:02:47+02:00</time>
      </trkpt>
      <trkpt lat="41.69097" lon="9.20577">
        <ele>940</ele>
        <time>2008-05-30T11:02:54+02:00</time>
      </trkpt>
      <trkpt lat="41.6906" lon="9.20542">
        <ele>935</ele>
        <time>2008-05-30T11:03:00+02:00</time>
      </trkpt>
      <trkpt lat="41.69028" lon="9.20513">
        <ele>933</ele>
        <time>2008-05-30T11:03:05+02:00</time>
      </trkpt>
      <trkpt lat="41.69006" lon="9.20489">
        <ele>935</ele>
        <time>2008-05-30T11:03:09+02:00</time>
      </trkpt>
      <trkpt lat="41.68979" lon="9.20447">
        <ele>931</ele>
        <time>2008-05-30T11:03:15+02:00</time>
      </trkpt>
      <trkpt lat="41.68968" lon="9.20417">
        <ele>933</ele>
        <time>2008-05-30T11:03:19+02:00</time>
      </trkpt>
      <trkpt lat="41.68953" lon="9.20354">
        <ele>933</ele>
        <time>2008-05-30T11:03:27+02:00</time>
      </trkpt>
      <trkpt lat="41.68946" lon="9.20331">
        <ele>936</ele>
        <time>2008-05-30T11:03:30+02:00</time>
      </trkpt>
      <trkpt lat="41.68921" lon="9.20275">
        <ele>937</ele>
        <time>2008-05-30T11:03:38+02:00</time>
      </trkpt>
      <trkpt lat="41.68894" lon="9.20215">
        <ele>932</ele>
        <time>2008-05-30T11:03:46+02:00</time>
      </trkpt>
      <trkpt lat="41.68874" lon="9.2016">
        <ele>933</ele>
        <time>2008-05-30T11:03:54+02:00</time>
      </trkpt>
      <trkpt lat="41.68856" lon="9.20104">
        <ele>932</ele>
        <time>2008-05-30T11:04:03+02:00</time>
      </trkpt>
      <trkpt lat="41.68839" lon="9.20052">
        <ele>933</ele>
        <time>2008-05-30T11:04:11+02:00</time>
      </trkpt>
      <trkpt lat="41.6883" lon="9.20034">
        <ele>928</ele>
        <time>2008-05-30T11:04:14+02:00</time>
      </trkpt>
      <trkpt lat="41.68818" lon="9.20017">
        <ele>929</ele>
        <time>2008-05-30T11:04:17+02:00</time>
      </trkpt>
      <trkpt lat="41.68811" lon="9.20005">
        <ele>929</ele>
        <time>2008-05-30T11:04:19+02:00</time>
      </trkpt>
      <trkpt lat="41.68797" lon="9.19981">
        <ele>929</ele>
        <time>2008-05-30T11:04:23+02:00</time>
      </trkpt>
      <trkpt lat="41.68777" lon="9.19929">
        <ele>929</ele>
        <time>2008-05-30T11:04:32+02:00</time>
      </trkpt>
      <trkpt lat="41.68753" lon="9.19866">
        <ele>930</ele>
        <time>2008-05-30T11:04:42+02:00</time>
      </trkpt>
      <trkpt lat="41.68741" lon="9.19819">
        <ele>927</ele>
        <time>2008-05-30T11:04:49+02:00</time>
      </trkpt>
      <trkpt lat="41.68732" lon="9.19759">
        <ele>928</ele>
        <time>2008-05-30T11:04:58+02:00</time>
      </trkpt>
      <trkpt lat="41.68724" lon="9.19733">
        <ele>929</ele>
        <time>2008-05-30T11:05:02+02:00</time>
      </trkpt>
      <trkpt lat="41.68696" lon="9.19684">
        <ele>929</ele>
        <time>2008-05-30T11:05:11+02:00</time>
      </trkpt>
      <trkpt lat="41.68674" lon="9.19637">
        <ele>929</ele>
        <time>2008-05-30T11:05:19+02:00</time>
      </trkpt>
      <trkpt lat="41.68666" lon="9.19619">
        <ele>929</ele>
        <time>2008-05-30T11:05:22+02:00</time>
      </trkpt>
      <trkpt lat="41.68656" lon="9.19604">
        <ele>929</ele>
        <time>2008-05-30T11:05:25+02:00</time>
      </trkpt>
      <trkpt lat="41.68643" lon="9.19592">
        <ele>929</ele>
        <time>2008-05-30T11:05:28+02:00</time>
      </trkpt>
      <trkpt lat="41.68622" lon="9.1958">
        <ele>930</ele>
        <time>2008-05-30T11:05:33+02:00</time>
      </trkpt>
      <trkpt lat="41.68604" lon="9.19579">
        <ele>930</ele>
        <time>2008-05-30T11:05:37+02:00</time>
      </trkpt>
      <trkpt lat="41.68595" lon="9.19581">
        <ele>930</ele>
        <time>2008-05-30T11:05:39+02:00</time>
      </trkpt>
      <trkpt lat="41.68569" lon="9.19599">
        <ele>932</ele>
        <time>2008-05-30T11:05:46+02:00</time>
      </trkpt>
      <trkpt lat="41.68556" lon="9.19611">
        <ele>933</ele>
        <time>2008-05-30T11:05:51+02:00</time>
      </trkpt>
      <trkpt lat="41.68544" lon="9.19629">
        <ele>934</ele>
        <time>2008-05-30T11:05:55+02:00</time>
      </trkpt>
      <trkpt lat="41.68537" lon="9.19656">
        <ele>935</ele>
        <time>2008-05-30T11:06:00+02:00</time>
      </trkpt>
      <trkpt lat="41.68537" lon="9.19662">
        <ele>935</ele>
        <time>2008-05-30T11:06:01+02:00</time>
      </trkpt>
      <trkpt lat="41.68536" lon="9.19679">
        <ele>936</ele>
        <time>2008-05-30T11:06:04+02:00</time>
      </trkpt>
      <trkpt lat="41.68539" lon="9.19727">
        <ele>936</ele>
        <time>2008-05-30T11:06:13+02:00</time>
      </trkpt>
      <trkpt lat="41.6854" lon="9.19756">
        <ele>935</ele>
        <time>2008-05-30T11:06:18+02:00</time>
      </trkpt>
      <trkpt lat="41.68529" lon="9.19787">
        <ele>935</ele>
        <time>2008-05-30T11:06:24+02:00</time>
      </trkpt>
      <trkpt lat="41.68522" lon="9.19794">
        <ele>935</ele>
        <time>2008-05-30T11:06:26+02:00</time>
      </trkpt>
      <trkpt lat="41.68496" lon="9.19817">
        <ele>940</ele>
        <time>2008-05-30T11:06:33+02:00</time>
      </trkpt>
      <trkpt lat="41.68477" lon="9.19832">
        <ele>941</ele>
        <time>2008-05-30T11:06:38+02:00</time>
      </trkpt>
      <trkpt lat="41.68469" lon="9.19838">
        <ele>938</ele>
        <time>2008-05-30T11:06:40+02:00</time>
      </trkpt>
      <trkpt lat="41.68445" lon="9.19862">
        <ele>940</ele>
        <time>2008-05-30T11:06:46+02:00</time>
      </trkpt>
      <trkpt lat="41.68435" lon="9.19888">
        <ele>940</ele>
        <time>2008-05-30T11:06:50+02:00</time>
      </trkpt>
      <trkpt lat="41.68436" lon="9.19913">
        <ele>940</ele>
        <time>2008-05-30T11:06:54+02:00</time>
      </trkpt>
      <trkpt lat="41.68444" lon="9.19961">
        <ele>937</ele>
        <time>2008-05-30T11:07:02+02:00</time>
      </trkpt>
      <trkpt lat="41.68451" lon="9.19984">
        <ele>937</ele>
        <time>2008-05-30T11:07:06+02:00</time>
      </trkpt>
      <trkpt lat="41.68469" lon="9.20014">
        <ele>934</ele>
        <time>2008-05-30T11:07:12+02:00</time>
      </trkpt>
      <trkpt lat="41.68475" lon="9.20038">
        <ele>934</ele>
        <time>2008-05-30T11:07:16+02:00</time>
      </trkpt>
      <trkpt lat="41.68476" lon="9.20044">
        <ele>934</ele>
        <time>2008-05-30T11:07:17+02:00</time>
      </trkpt>
      <trkpt lat="41.68477" lon="9.20068">
        <ele>934</ele>
        <time>2008-05-30T11:07:21+02:00</time>
      </trkpt>
      <trkpt lat="41.68469" lon="9.20098">
        <ele>930</ele>
        <time>2008-05-30T11:07:26+02:00</time>
      </trkpt>
      <trkpt lat="41.68446" lon="9.2013">
        <ele>929</ele>
        <time>2008-05-30T11:07:33+02:00</time>
      </trkpt>
      <trkpt lat="41.6843" lon="9.20141">
        <ele>929</ele>
        <time>2008-05-30T11:07:37+02:00</time>
      </trkpt>
      <trkpt lat="41.68406" lon="9.2015">
        <ele>933</ele>
        <time>2008-05-30T11:07:44+02:00</time>
      </trkpt>
      <trkpt lat="41.68386" lon="9.2015">
        <ele>935</ele>
        <time>2008-05-30T11:07:51+02:00</time>
      </trkpt>
      <trkpt lat="41.68365" lon="9.20154">
        <ele>937</ele>
        <time>2008-05-30T11:07:58+02:00</time>
      </trkpt>
      <trkpt lat="41.68331" lon="9.20163">
        <ele>936</ele>
        <time>2008-05-30T11:08:07+02:00</time>
      </trkpt>
      <trkpt lat="41.68306" lon="9.20165">
        <ele>940</ele>
        <time>2008-05-30T11:08:13+02:00</time>
      </trkpt>
      <trkpt lat="41.68285" lon="9.20156">
        <ele>942</ele>
        <time>2008-05-30T11:08:17+02:00</time>
      </trkpt>
      <trkpt lat="41.68264" lon="9.20139">
        <ele>943</ele>
        <time>2008-05-30T11:08:21+02:00</time>
      </trkpt>
      <trkpt lat="41.6824" lon="9.2013">
        <ele>946</ele>
        <time>2008-05-30T11:08:25+02:00</time>
      </trkpt>
      <trkpt lat="41.6821" lon="9.20129">
        <ele>947</ele>
        <time>2008-05-30T11:08:30+02:00</time>
      </trkpt>
      <trkpt lat="41.68192" lon="9.20134">
        <ele>947</ele>
        <time>2008-05-30T11:08:33+02:00</time>
      </trkpt>
      <trkpt lat="41.68178" lon="9.20158">
        <ele>945</ele>
        <time>2008-05-30T11:08:37+02:00</time>
      </trkpt>
      <trkpt lat="41.68181" lon="9.20189">
        <ele>939</ele>
        <time>2008-05-30T11:08:41+02:00</time>
      </trkpt>
      <trkpt lat="41.68182" lon="9.20196">
        <ele>939</ele>
        <time>2008-05-30T11:08:42+02:00</time>
      </trkpt>
      <trkpt lat="41.6819" lon="9.20223">
        <ele>937</ele>
        <time>2008-05-30T11:08:46+02:00</time>
      </trkpt>
      <trkpt lat="41.6819" lon="9.20256">
        <ele>933</ele>
        <time>2008-05-30T11:08:51+02:00</time>
      </trkpt>
      <trkpt lat="41.68181" lon="9.20271">
        <ele>933</ele>
        <time>2008-05-30T11:08:54+02:00</time>
      </trkpt>
      <trkpt lat="41.68176" lon="9.20274">
        <ele>933</ele>
        <time>2008-05-30T11:08:55+02:00</time>
      </trkpt>
      <trkpt lat="41.68154" lon="9.20282">
        <ele>937</ele>
        <time>2008-05-30T11:09:00+02:00</time>
      </trkpt>
      <trkpt lat="41.6812" lon="9.20293">
        <ele>938</ele>
        <time>2008-05-30T11:09:07+02:00</time>
      </trkpt>
      <trkpt lat="41.68115" lon="9.20295">
        <ele>938</ele>
        <time>2008-05-30T11:09:08+02:00</time>
      </trkpt>
      <trkpt lat="41.68094" lon="9.20294">
        <ele>938</ele>
        <time>2008-05-30T11:09:12+02:00</time>
      </trkpt>
      <trkpt lat="41.68055" lon="9.20302">
        <ele>939</ele>
        <time>2008-05-30T11:09:19+02:00</time>
      </trkpt>
      <trkpt lat="41.68049" lon="9.20304">
        <ele>939</ele>
        <time>2008-05-30T11:09:20+02:00</time>
      </trkpt>
      <trkpt lat="41.68023" lon="9.20302">
        <ele>939</ele>
        <time>2008-05-30T11:09:24+02:00</time>
      </trkpt>
      <trkpt lat="41.67988" lon="9.20301">
        <ele>941</ele>
        <time>2008-05-30T11:09:29+02:00</time>
      </trkpt>
      <trkpt lat="41.6794" lon="9.20305">
        <ele>942</ele>
        <time>2008-05-30T11:09:36+02:00</time>
      </trkpt>
      <trkpt lat="41.679" lon="9.20299">
        <ele>941</ele>
        <time>2008-05-30T11:09:42+02:00</time>
      </trkpt>
      <trkpt lat="41.67867" lon="9.20279">
        <ele>942</ele>
        <time>2008-05-30T11:09:47+02:00</time>
      </trkpt>
      <trkpt lat="41.67832" lon="9.20248">
        <ele>944</ele>
        <time>2008-05-30T11:09:53+02:00</time>
      </trkpt>
      <trkpt lat="41.67796" lon="9.20217">
        <ele>949</ele>
        <time>2008-05-30T11:09:59+02:00</time>
      </trkpt>
      <trkpt lat="41.6776" lon="9.20191">
        <ele>950</ele>
        <time>2008-05-30T11:10:05+02:00</time>
      </trkpt>
      <trkpt lat="41.67717" lon="9.20164">
        <ele>962</ele>
        <time>2008-05-30T11:10:12+02:00</time>
      </trkpt>
      <trkpt lat="41.67693" lon="9.20151">
        <ele>963</ele>
        <time>2008-05-30T11:10:16+02:00</time>
      </trkpt>
      <trkpt lat="41.67667" lon="9.20155">
        <ele>961</ele>
        <time>2008-05-30T11:10:20+02:00</time>
      </trkpt>
      <trkpt lat="41.67657" lon="9.20174">
        <ele>963</ele>
        <time>2008-05-30T11:10:23+02:00</time>
      </trkpt>
      <trkpt lat="41.67657" lon="9.20199">
        <ele>967</ele>
        <time>2008-05-30T11:10:26+02:00</time>
      </trkpt>
      <trkpt lat="41.67659" lon="9.20207">
        <ele>967</ele>
        <time>2008-05-30T11:10:27+02:00</time>
      </trkpt>
      <trkpt lat="41.67673" lon="9.20267">
        <ele>950</ele>
        <time>2008-05-30T11:10:35+02:00</time>
      </trkpt>
      <trkpt lat="41.67677" lon="9.20282">
        <ele>949</ele>
        <time>2008-05-30T11:10:37+02:00</time>
      </trkpt>
      <trkpt lat="41.67685" lon="9.20321">
        <ele>951</ele>
        <time>2008-05-30T11:10:42+02:00</time>
      </trkpt>
      <trkpt lat="41.67694" lon="9.20375">
        <ele>946</ele>
        <time>2008-05-30T11:10:49+02:00</time>
      </trkpt>
      <trkpt lat="41.67685" lon="9.20413">
        <ele>949</ele>
        <time>2008-05-30T11:10:54+02:00</time>
      </trkpt>
      <trkpt lat="41.6768" lon="9.20419">
        <ele>950</ele>
        <time>2008-05-30T11:10:55+02:00</time>
      </trkpt>
      <trkpt lat="41.67656" lon="9.20466">
        <ele>964</ele>
        <time>2008-05-30T11:11:02+02:00</time>
      </trkpt>
      <trkpt lat="41.67651" lon="9.20483">
        <ele>962</ele>
        <time>2008-05-30T11:11:04+02:00</time>
      </trkpt>
      <trkpt lat="41.67635" lon="9.20526">
        <ele>959</ele>
        <time>2008-05-30T11:11:09+02:00</time>
      </trkpt>
      <trkpt lat="41.67632" lon="9.20574">
        <ele>957</ele>
        <time>2008-05-30T11:11:14+02:00</time>
      </trkpt>
      <trkpt lat="41.67625" lon="9.20611">
        <ele>953</ele>
        <time>2008-05-30T11:11:18+02:00</time>
      </trkpt>
      <trkpt lat="41.67622" lon="9.20619">
        <ele>953</ele>
        <time>2008-05-30T11:11:19+02:00</time>
      </trkpt>
      <trkpt lat="41.67603" lon="9.20664">
        <ele>954</ele>
        <time>2008-05-30T11:11:25+02:00</time>
      </trkpt>
      <trkpt lat="41.67594" lon="9.20687">
        <ele>952</ele>
        <time>2008-05-30T11:11:30+02:00</time>
      </trkpt>
      <trkpt lat="41.6759" lon="9.20691">
        <ele>952</ele>
        <time>2008-05-30T11:11:33+02:00</time>
      </trkpt>
      <trkpt lat="41.67587" lon="9.20694">
        <ele>952</ele>
        <time>2008-05-30T11:11:35+02:00</time>
      </trkpt>
      <trkpt lat="41.67589" lon="9.20703">
        <ele>951</ele>
        <time>2008-05-30T11:11:40+02:00</time>
      </trkpt>
      <trkpt lat="41.67594" lon="9.20707">
        <ele>951</ele>
        <time>2008-05-30T11:11:45+02:00</time>
      </trkpt>
      <trkpt lat="41.67599" lon="9.2071">
        <ele>951</ele>
        <time>2008-05-30T11:11:53+02:00</time>
      </trkpt>
      <trkpt lat="41.67602" lon="9.20709">
        <ele>950</ele>
        <time>2008-05-30T11:12:00+02:00</time>
      </trkpt>
      <trkpt lat="41.67604" lon="9.20704">
        <ele>951</ele>
        <time>2008-05-30T11:12:10+02:00</time>
      </trkpt>
      <trkpt lat="41.67604" lon="9.20703">
        <ele>951</ele>
        <time>2008-05-30T11:12:11+02:00</time>
      </trkpt>
      <trkpt lat="41.67599" lon="9.20696">
        <ele>951</ele>
        <time>2008-05-30T11:12:19+02:00</time>
      </trkpt>
      <trkpt lat="41.67596" lon="9.20693">
        <ele>951</ele>
        <time>2008-05-30T11:12:26+02:00</time>
      </trkpt>
      <trkpt lat="41.67595" lon="9.20694">
        <ele>951</ele>
        <time>2008-05-30T11:12:40+02:00</time>
      </trkpt>
      <trkpt lat="41.67594" lon="9.20693">
        <ele>952</ele>
        <time>2008-05-30T11:12:46+02:00</time>
      </trkpt>
      <trkpt lat="41.67593" lon="9.20691">
        <ele>952</ele>
        <time>2008-05-30T11:12:54+02:00</time>
      </trkpt>
      <trkpt lat="41.67591" lon="9.20689">
        <ele>952</ele>
        <time>2008-05-30T11:13:10+02:00</time>
      </trkpt>
      <trkpt lat="41.67592" lon="9.20688">
        <ele>952</ele>
        <time>2008-05-30T11:13:16+02:00</time>
      </trkpt>
      <trkpt lat="41.67591" lon="9.20687">
        <ele>952</ele>
        <time>2008-05-30T11:13:24+02:00</time>
      </trkpt>
      <trkpt lat="41.6759" lon="9.20686">
        <ele>952</ele>
        <time>2008-05-30T11:13:36+02:00</time>
      </trkpt>
      <trkpt lat="41.67592" lon="9.20689">
        <ele>952</ele>
        <time>2008-05-30T11:13:48+02:00</time>
      </trkpt>
      <trkpt lat="41.67593" lon="9.20692">
        <ele>952</ele>
        <time>2008-05-30T11:13:57+02:00</time>
      </trkpt>
      <trkpt lat="41.67596" lon="9.20693">
        <ele>951</ele>
        <time>2008-05-30T11:14:08+02:00</time>
      </trkpt>
      <trkpt lat="41.67594" lon="9.20694">
        <ele>951</ele>
        <time>2008-05-30T11:14:15+02:00</time>
      </trkpt>
      <trkpt lat="41.67591" lon="9.20692">
        <ele>952</ele>
        <time>2008-05-30T11:14:23+02:00</time>
      </trkpt>
      <trkpt lat="41.6759" lon="9.20691">
        <ele>952</ele>
        <time>2008-05-30T11:14:30+02:00</time>
      </trkpt>
      <trkpt lat="41.6759" lon="9.20691">
        <ele>952</ele>
        <time>2008-05-30T11:14:31+02:00</time>
      </trkpt>
      <trkpt lat="41.6758" lon="9.20688">
        <ele>954</ele>
        <time>2008-05-30T11:14:36+02:00</time>
      </trkpt>
      <trkpt lat="41.67555" lon="9.2069">
        <ele>954</ele>
        <time>2008-05-30T11:14:42+02:00</time>
      </trkpt>
      <trkpt lat="41.6753" lon="9.20694">
        <ele>954</ele>
        <time>2008-05-30T11:14:47+02:00</time>
      </trkpt>
      <trkpt lat="41.67496" lon="9.20686">
        <ele>954</ele>
        <time>2008-05-30T11:14:53+02:00</time>
      </trkpt>
      <trkpt lat="41.67457" lon="9.20668">
        <ele>953</ele>
        <time>2008-05-30T11:14:59+02:00</time>
      </trkpt>
      <trkpt lat="41.67451" lon="9.20665">
        <ele>960</ele>
        <time>2008-05-30T11:15:00+02:00</time>
      </trkpt>
      <trkpt lat="41.67417" lon="9.20661">
        <ele>956</ele>
        <time>2008-05-30T11:15:05+02:00</time>
      </trkpt>
      <trkpt lat="41.67404" lon="9.20665">
        <ele>957</ele>
        <time>2008-05-30T11:15:07+02:00</time>
      </trkpt>
      <trkpt lat="41.67333" lon="9.20698">
        <ele>954</ele>
        <time>2008-05-30T11:15:17+02:00</time>
      </trkpt>
      <trkpt lat="41.67283" lon="9.2072">
        <ele>953</ele>
        <time>2008-05-30T11:15:24+02:00</time>
      </trkpt>
      <trkpt lat="41.67277" lon="9.20725">
        <ele>953</ele>
        <time>2008-05-30T11:15:25+02:00</time>
      </trkpt>
      <trkpt lat="41.67258" lon="9.20756">
        <ele>950</ele>
        <time>2008-05-30T11:15:29+02:00</time>
      </trkpt>
      <trkpt lat="41.67232" lon="9.20799">
        <ele>948</ele>
        <time>2008-05-30T11:15:34+02:00</time>
      </trkpt>
      <trkpt lat="41.67209" lon="9.2081">
        <ele>948</ele>
        <time>2008-05-30T11:15:37+02:00</time>
      </trkpt>
      <trkpt lat="41.67149" lon="9.20818">
        <ele>946</ele>
        <time>2008-05-30T11:15:45+02:00</time>
      </trkpt>
      <trkpt lat="41.67134" lon="9.20818">
        <ele>946</ele>
        <time>2008-05-30T11:15:47+02:00</time>
      </trkpt>
      <trkpt lat="41.67101" lon="9.20798">
        <ele>946</ele>
        <time>2008-05-30T11:15:52+02:00</time>
      </trkpt>
      <trkpt lat="41.67064" lon="9.20762">
        <ele>943</ele>
        <time>2008-05-30T11:15:59+02:00</time>
      </trkpt>
      <trkpt lat="41.67045" lon="9.20737">
        <ele>947</ele>
        <time>2008-05-30T11:16:03+02:00</time>
      </trkpt>
      <trkpt lat="41.67036" lon="9.20704">
        <ele>948</ele>
        <time>2008-05-30T11:16:07+02:00</time>
      </trkpt>
      <trkpt lat="41.67023" lon="9.20676">
        <ele>949</ele>
        <time>2008-05-30T11:16:11+02:00</time>
      </trkpt>
      <trkpt lat="41.66996" lon="9.2066">
        <ele>951</ele>
        <time>2008-05-30T11:16:16+02:00</time>
      </trkpt>
      <trkpt lat="41.6697" lon="9.20653">
        <ele>953</ele>
        <time>2008-05-30T11:16:21+02:00</time>
      </trkpt>
      <trkpt lat="41.66935" lon="9.20645">
        <ele>953</ele>
        <time>2008-05-30T11:16:28+02:00</time>
      </trkpt>
      <trkpt lat="41.66922" lon="9.20644">
        <ele>953</ele>
        <time>2008-05-30T11:16:31+02:00</time>
      </trkpt>
      <trkpt lat="41.669" lon="9.20652">
        <ele>950</ele>
        <time>2008-05-30T11:16:37+02:00</time>
      </trkpt>
      <trkpt lat="41.66888" lon="9.20666">
        <ele>949</ele>
        <time>2008-05-30T11:16:42+02:00</time>
      </trkpt>
      <trkpt lat="41.66885" lon="9.20665">
        <ele>949</ele>
        <time>2008-05-30T11:16:46+02:00</time>
      </trkpt>
      <trkpt lat="41.66885" lon="9.2067">
        <ele>946</ele>
        <time>2008-05-30T11:16:52+02:00</time>
      </trkpt>
      <trkpt lat="41.66883" lon="9.20672">
        <ele>946</ele>
        <time>2008-05-30T11:16:58+02:00</time>
      </trkpt>
      <trkpt lat="41.66882" lon="9.20672">
        <ele>946</ele>
        <time>2008-05-30T11:17:05+02:00</time>
      </trkpt>
      <trkpt lat="41.66882" lon="9.20671">
        <ele>946</ele>
        <time>2008-05-30T11:17:13+02:00</time>
      </trkpt>
      <trkpt lat="41.66885" lon="9.20671">
        <ele>946</ele>
        <time>2008-05-30T11:17:19+02:00</time>
      </trkpt>
      <trkpt lat="41.66883" lon="9.20667">
        <ele>946</ele>
        <time>2008-05-30T11:17:29+02:00</time>
      </trkpt>
      <trkpt lat="41.6688" lon="9.20664">
        <ele>949</ele>
        <time>2008-05-30T11:17:35+02:00</time>
      </trkpt>
      <trkpt lat="41.66877" lon="9.20662">
        <ele>949</ele>
        <time>2008-05-30T11:17:45+02:00</time>
      </trkpt>
      <trkpt lat="41.66877" lon="9.20662">
        <ele>949</ele>
        <time>2008-05-30T11:17:55+02:00</time>
      </trkpt>
      <trkpt lat="41.66876" lon="9.2066">
        <ele>949</ele>
        <time>2008-05-30T11:18:02+02:00</time>
      </trkpt>
      <trkpt lat="41.66879" lon="9.20662">
        <ele>949</ele>
        <time>2008-05-30T11:18:08+02:00</time>
      </trkpt>
      <trkpt lat="41.6688" lon="9.20662">
        <ele>949</ele>
        <time>2008-05-30T11:18:14+02:00</time>
      </trkpt>
      <trkpt lat="41.66879" lon="9.20662">
        <ele>949</ele>
        <time>2008-05-30T11:18:22+02:00</time>
      </trkpt>
      <trkpt lat="41.66875" lon="9.20657">
        <ele>949</ele>
        <time>2008-05-30T11:18:28+02:00</time>
      </trkpt>
      <trkpt lat="41.66872" lon="9.20653">
        <ele>949</ele>
        <time>2008-05-30T11:18:33+02:00</time>
      </trkpt>
      <trkpt lat="41.66872" lon="9.20653">
        <ele>949</ele>
        <time>2008-05-30T11:18:39+02:00</time>
      </trkpt>
      <trkpt lat="41.66872" lon="9.20653">
        <ele>949</ele>
        <time>2008-05-30T11:18:52+02:00</time>
      </trkpt>
      <trkpt lat="41.66873" lon="9.20651">
        <ele>949</ele>
        <time>2008-05-30T11:18:58+02:00</time>
      </trkpt>
      <trkpt lat="41.66874" lon="9.2065">
        <ele>949</ele>
        <time>2008-05-30T11:19:11+02:00</time>
      </trkpt>
      <trkpt lat="41.66873" lon="9.20648">
        <ele>949</ele>
        <time>2008-05-30T11:19:24+02:00</time>
      </trkpt>
      <trkpt lat="41.66871" lon="9.20647">
        <ele>949</ele>
        <time>2008-05-30T11:19:31+02:00</time>
      </trkpt>
      <trkpt lat="41.6687" lon="9.20647">
        <ele>949</ele>
        <time>2008-05-30T11:19:35+02:00</time>
      </trkpt>
      <trkpt lat="41.66871" lon="9.20643">
        <ele>949</ele>
        <time>2008-05-30T11:19:43+02:00</time>
      </trkpt>
      <trkpt lat="41.66873" lon="9.20643">
        <ele>949</ele>
        <time>2008-05-30T11:19:48+02:00</time>
      </trkpt>
      <trkpt lat="41.66873" lon="9.20648">
        <ele>949</ele>
        <time>2008-05-30T11:19:52+02:00</time>
      </trkpt>
      <trkpt lat="41.66874" lon="9.20652">
        <ele>949</ele>
        <time>2008-05-30T11:20:07+02:00</time>
      </trkpt>
      <trkpt lat="41.66877" lon="9.20659">
        <ele>949</ele>
        <time>2008-05-30T11:20:12+02:00</time>
      </trkpt>
      <trkpt lat="41.6688" lon="9.20663">
        <ele>949</ele>
        <time>2008-05-30T11:20:19+02:00</time>
      </trkpt>
      <trkpt lat="41.66885" lon="9.20669">
        <ele>946</ele>
        <time>2008-05-30T11:20:24+02:00</time>
      </trkpt>
      <trkpt lat="41.66883" lon="9.20675">
        <ele>946</ele>
        <time>2008-05-30T11:20:30+02:00</time>
      </trkpt>
      <trkpt lat="41.66883" lon="9.20676">
        <ele>946</ele>
        <time>2008-05-30T11:20:32+02:00</time>
      </trkpt>
      <trkpt lat="41.66876" lon="9.20693">
        <ele>946</ele>
        <time>2008-05-30T11:20:40+02:00</time>
      </trkpt>
      <trkpt lat="41.6687" lon="9.20708">
        <ele>945</ele>
        <time>2008-05-30T11:20:47+02:00</time>
      </trkpt>
      <trkpt lat="41.66865" lon="9.20718">
        <ele>945</ele>
        <time>2008-05-30T11:20:52+02:00</time>
      </trkpt>
      <trkpt lat="41.66865" lon="9.20719">
        <ele>945</ele>
        <time>2008-05-30T11:20:56+02:00</time>
      </trkpt>
      <trkpt lat="41.66865" lon="9.20726">
        <ele>945</ele>
        <time>2008-05-30T11:21:01+02:00</time>
      </trkpt>
      <trkpt lat="41.66865" lon="9.20735">
        <ele>945</ele>
        <time>2008-05-30T11:21:08+02:00</time>
      </trkpt>
      <trkpt lat="41.66864" lon="9.20739">
        <ele>945</ele>
        <time>2008-05-30T11:21:10+02:00</time>
      </trkpt>
      <trkpt lat="41.66858" lon="9.20744">
        <ele>945</ele>
        <time>2008-05-30T11:21:14+02:00</time>
      </trkpt>
      <trkpt lat="41.66847" lon="9.20769">
        <ele>944</ele>
        <time>2008-05-30T11:21:22+02:00</time>
      </trkpt>
      <trkpt lat="41.66834" lon="9.20802">
        <ele>945</ele>
        <time>2008-05-30T11:21:29+02:00</time>
      </trkpt>
      <trkpt lat="41.66824" lon="9.20823">
        <ele>948</ele>
        <time>2008-05-30T11:21:33+02:00</time>
      </trkpt>
      <trkpt lat="41.66812" lon="9.20869">
        <ele>950</ele>
        <time>2008-05-30T11:21:40+02:00</time>
      </trkpt>
      <trkpt lat="41.668" lon="9.20911">
        <ele>951</ele>
        <time>2008-05-30T11:21:46+02:00</time>
      </trkpt>
      <trkpt lat="41.66779" lon="9.20934">
        <ele>957</ele>
        <time>2008-05-30T11:21:51+02:00</time>
      </trkpt>
      <trkpt lat="41.66744" lon="9.20934">
        <ele>961</ele>
        <time>2008-05-30T11:21:57+02:00</time>
      </trkpt>
      <trkpt lat="41.66739" lon="9.2093">
        <ele>961</ele>
        <time>2008-05-30T11:21:58+02:00</time>
      </trkpt>
      <trkpt lat="41.66706" lon="9.20887">
        <ele>956</ele>
        <time>2008-05-30T11:22:06+02:00</time>
      </trkpt>
      <trkpt lat="41.66677" lon="9.20844">
        <ele>954</ele>
        <time>2008-05-30T11:22:14+02:00</time>
      </trkpt>
      <trkpt lat="41.66647" lon="9.20812">
        <ele>954</ele>
        <time>2008-05-30T11:22:21+02:00</time>
      </trkpt>
      <trkpt lat="41.66638" lon="9.20804">
        <ele>954</ele>
        <time>2008-05-30T11:22:23+02:00</time>
      </trkpt>
      <trkpt lat="41.66591" lon="9.2077">
        <ele>955</ele>
        <time>2008-05-30T11:22:33+02:00</time>
      </trkpt>
      <trkpt lat="41.66576" lon="9.20761">
        <ele>961</ele>
        <time>2008-05-30T11:22:36+02:00</time>
      </trkpt>
      <trkpt lat="41.66544" lon="9.20726">
        <ele>959</ele>
        <time>2008-05-30T11:22:44+02:00</time>
      </trkpt>
      <trkpt lat="41.66525" lon="9.20688">
        <ele>959</ele>
        <time>2008-05-30T11:22:50+02:00</time>
      </trkpt>
      <trkpt lat="41.66508" lon="9.20638">
        <ele>957</ele>
        <time>2008-05-30T11:22:57+02:00</time>
      </trkpt>
      <trkpt lat="41.66506" lon="9.20623">
        <ele>957</ele>
        <time>2008-05-30T11:22:59+02:00</time>
      </trkpt>
      <trkpt lat="41.66506" lon="9.20577">
        <ele>958</ele>
        <time>2008-05-30T11:23:05+02:00</time>
      </trkpt>
      <trkpt lat="41.66523" lon="9.20488">
        <ele>956</ele>
        <time>2008-05-30T11:23:17+02:00</time>
      </trkpt>
      <trkpt lat="41.66536" lon="9.20432">
        <ele>954</ele>
        <time>2008-05-30T11:23:25+02:00</time>
      </trkpt>
      <trkpt lat="41.66546" lon="9.20386">
        <ele>955</ele>
        <time>2008-05-30T11:23:32+02:00</time>
      </trkpt>
      <trkpt lat="41.66552" lon="9.20335">
        <ele>953</ele>
        <time>2008-05-30T11:23:40+02:00</time>
      </trkpt>
      <trkpt lat="41.66553" lon="9.20307">
        <ele>955</ele>
        <time>2008-05-30T11:23:44+02:00</time>
      </trkpt>
      <trkpt lat="41.66548" lon="9.20264">
        <ele>956</ele>
        <time>2008-05-30T11:23:51+02:00</time>
      </trkpt>
      <trkpt lat="41.66544" lon="9.20234">
        <ele>956</ele>
        <time>2008-05-30T11:23:56+02:00</time>
      </trkpt>
      <trkpt lat="41.66534" lon="9.20186">
        <ele>958</ele>
        <time>2008-05-30T11:24:04+02:00</time>
      </trkpt>
      <trkpt lat="41.66521" lon="9.20138">
        <ele>957</ele>
        <time>2008-05-30T11:24:12+02:00</time>
      </trkpt>
      <trkpt lat="41.66501" lon="9.20092">
        <ele>959</ele>
        <time>2008-05-30T11:24:20+02:00</time>
      </trkpt>
      <trkpt lat="41.66478" lon="9.20042">
        <ele>962</ele>
        <time>2008-05-30T11:24:29+02:00</time>
      </trkpt>
      <trkpt lat="41.66463" lon="9.20017">
        <ele>961</ele>
        <time>2008-05-30T11:24:34+02:00</time>
      </trkpt>
      <trkpt lat="41.66434" lon="9.19978">
        <ele>955</ele>
        <time>2008-05-30T11:24:42+02:00</time>
      </trkpt>
      <trkpt lat="41.66409" lon="9.19946">
        <ele>961</ele>
        <time>2008-05-30T11:24:48+02:00</time>
      </trkpt>
      <trkpt lat="41.66374" lon="9.19914">
        <ele>952</ele>
        <time>2008-05-30T11:24:55+02:00</time>
      </trkpt>
      <trkpt lat="41.66343" lon="9.19891">
        <ele>954</ele>
        <time>2008-05-30T11:25:01+02:00</time>
      </trkpt>
      <trkpt lat="41.66317" lon="9.1988">
        <ele>957</ele>
        <time>2008-05-30T11:25:05+02:00</time>
      </trkpt>
      <trkpt lat="41.6626" lon="9.1987">
        <ele>958</ele>
        <time>2008-05-30T11:25:13+02:00</time>
      </trkpt>
      <trkpt lat="41.66205" lon="9.1987">
        <ele>961</ele>
        <time>2008-05-30T11:25:21+02:00</time>
      </trkpt>
      <trkpt lat="41.66161" lon="9.19871">
        <ele>962</ele>
        <time>2008-05-30T11:25:28+02:00</time>
      </trkpt>
      <trkpt lat="41.66155" lon="9.1987">
        <ele>962</ele>
        <time>2008-05-30T11:25:29+02:00</time>
      </trkpt>
      <trkpt lat="41.66108" lon="9.19853">
        <ele>962</ele>
        <time>2008-05-30T11:25:37+02:00</time>
      </trkpt>
      <trkpt lat="41.66103" lon="9.19849">
        <ele>961</ele>
        <time>2008-05-30T11:25:38+02:00</time>
      </trkpt>
      <trkpt lat="41.66073" lon="9.1982">
        <ele>959</ele>
        <time>2008-05-30T11:25:45+02:00</time>
      </trkpt>
      <trkpt lat="41.66065" lon="9.19814">
        <ele>959</ele>
        <time>2008-05-30T11:25:47+02:00</time>
      </trkpt>
      <trkpt lat="41.66042" lon="9.19793">
        <ele>958</ele>
        <time>2008-05-30T11:25:52+02:00</time>
      </trkpt>
      <trkpt lat="41.66031" lon="9.19782">
        <ele>958</ele>
        <time>2008-05-30T11:25:54+02:00</time>
      </trkpt>
      <trkpt lat="41.66011" lon="9.19747">
        <ele>956</ele>
        <time>2008-05-30T11:26:00+02:00</time>
      </trkpt>
      <trkpt lat="41.65993" lon="9.19713">
        <ele>958</ele>
        <time>2008-05-30T11:26:06+02:00</time>
      </trkpt>
      <trkpt lat="41.65987" lon="9.19701">
        <ele>958</ele>
        <time>2008-05-30T11:26:08+02:00</time>
      </trkpt>
      <trkpt lat="41.65972" lon="9.1967">
        <ele>958</ele>
        <time>2008-05-30T11:26:13+02:00</time>
      </trkpt>
      <trkpt lat="41.65958" lon="9.19633">
        <ele>957</ele>
        <time>2008-05-30T11:26:19+02:00</time>
      </trkpt>
      <trkpt lat="41.65936" lon="9.19585">
        <ele>958</ele>
        <time>2008-05-30T11:26:27+02:00</time>
      </trkpt>
      <trkpt lat="41.65916" lon="9.19529">
        <ele>962</ele>
        <time>2008-05-30T11:26:35+02:00</time>
      </trkpt>
      <trkpt lat="41.65911" lon="9.19506">
        <ele>962</ele>
        <time>2008-05-30T11:26:38+02:00</time>
      </trkpt>
      <trkpt lat="41.6591" lon="9.19482">
        <ele>962</ele>
        <time>2008-05-30T11:26:41+02:00</time>
      </trkpt>
      <trkpt lat="41.6591" lon="9.19431">
        <ele>962</ele>
        <time>2008-05-30T11:26:48+02:00</time>
      </trkpt>
      <trkpt lat="41.65916" lon="9.19409">
        <ele>962</ele>
        <time>2008-05-30T11:26:51+02:00</time>
      </trkpt>
      <trkpt lat="41.6592" lon="9.19345">
        <ele>959</ele>
        <time>2008-05-30T11:26:59+02:00</time>
      </trkpt>
      <trkpt lat="41.65919" lon="9.19322">
        <ele>959</ele>
        <time>2008-05-30T11:27:02+02:00</time>
      </trkpt>
      <trkpt lat="41.65918" lon="9.19297">
        <ele>958</ele>
        <time>2008-05-30T11:27:06+02:00</time>
      </trkpt>
      <trkpt lat="41.65914" lon="9.19241">
        <ele>963</ele>
        <time>2008-05-30T11:27:13+02:00</time>
      </trkpt>
      <trkpt lat="41.65912" lon="9.19193">
        <ele>964</ele>
        <time>2008-05-30T11:27:19+02:00</time>
      </trkpt>
      <trkpt lat="41.65909" lon="9.19151">
        <ele>962</ele>
        <time>2008-05-30T11:27:25+02:00</time>
      </trkpt>
      <trkpt lat="41.65896" lon="9.19108">
        <ele>960</ele>
        <time>2008-05-30T11:27:31+02:00</time>
      </trkpt>
      <trkpt lat="41.6589" lon="9.19094">
        <ele>960</ele>
        <time>2008-05-30T11:27:33+02:00</time>
      </trkpt>
      <trkpt lat="41.65885" lon="9.19082">
        <ele>957</ele>
        <time>2008-05-30T11:27:35+02:00</time>
      </trkpt>
      <trkpt lat="41.6581" lon="9.18977">
        <ele>957</ele>
        <time>2008-05-30T11:28:17+02:00</time>
      </trkpt>
      <trkpt lat="41.65811" lon="9.18978">
        <ele>957</ele>
        <time>2008-05-30T11:28:21+02:00</time>
      </trkpt>
      <trkpt lat="41.65816" lon="9.1898">
        <ele>957</ele>
        <time>2008-05-30T11:28:34+02:00</time>
      </trkpt>
      <trkpt lat="41.65821" lon="9.18982">
        <ele>957</ele>
        <time>2008-05-30T11:28:38+02:00</time>
      </trkpt>
      <trkpt lat="41.65825" lon="9.18981">
        <ele>957</ele>
        <time>2008-05-30T11:28:45+02:00</time>
      </trkpt>
      <trkpt lat="41.65825" lon="9.18981">
        <ele>957</ele>
        <time>2008-05-30T11:28:52+02:00</time>
      </trkpt>
      <trkpt lat="41.6582" lon="9.18982">
        <ele>957</ele>
        <time>2008-05-30T11:29:04+02:00</time>
      </trkpt>
      <trkpt lat="41.65817" lon="9.18982">
        <ele>957</ele>
        <time>2008-05-30T11:29:06+02:00</time>
      </trkpt>
      <trkpt lat="41.65815" lon="9.18982">
        <ele>957</ele>
        <time>2008-05-30T11:29:12+02:00</time>
      </trkpt>
      <trkpt lat="41.65817" lon="9.1898">
        <ele>957</ele>
        <time>2008-05-30T11:29:22+02:00</time>
      </trkpt>
      <trkpt lat="41.65819" lon="9.18976">
        <ele>957</ele>
        <time>2008-05-30T11:29:31+02:00</time>
      </trkpt>
      <trkpt lat="41.65823" lon="9.18977">
        <ele>957</ele>
        <time>2008-05-30T11:29:44+02:00</time>
      </trkpt>
      <trkpt lat="41.65827" lon="9.18978">
        <ele>957</ele>
        <time>2008-05-30T11:29:47+02:00</time>
      </trkpt>
      <trkpt lat="41.65829" lon="9.18979">
        <ele>957</ele>
        <time>2008-05-30T11:29:50+02:00</time>
      </trkpt>
      <trkpt lat="41.65831" lon="9.18974">
        <ele>957</ele>
        <time>2008-05-30T11:29:54+02:00</time>
      </trkpt>
      <trkpt lat="41.65834" lon="9.18971">
        <ele>957</ele>
        <time>2008-05-30T11:30:05+02:00</time>
      </trkpt>
      <trkpt lat="41.65828" lon="9.18974">
        <ele>957</ele>
        <time>2008-05-30T11:30:13+02:00</time>
      </trkpt>
      <trkpt lat="41.65822" lon="9.18975">
        <ele>957</ele>
        <time>2008-05-30T11:30:19+02:00</time>
      </trkpt>
      <trkpt lat="41.65819" lon="9.18981">
        <ele>957</ele>
        <time>2008-05-30T11:30:21+02:00</time>
      </trkpt>
      <trkpt lat="41.65817" lon="9.18985">
        <ele>957</ele>
        <time>2008-05-30T11:30:24+02:00</time>
      </trkpt>
      <trkpt lat="41.65813" lon="9.18984">
        <ele>957</ele>
        <time>2008-05-30T11:30:30+02:00</time>
      </trkpt>
      <trkpt lat="41.6581" lon="9.18984">
        <ele>957</ele>
        <time>2008-05-30T11:30:42+02:00</time>
      </trkpt>
      <trkpt lat="41.6581" lon="9.18983">
        <ele>957</ele>
        <time>2008-05-30T11:30:49+02:00</time>
      </trkpt>
      <trkpt lat="41.65809" lon="9.18982">
        <ele>957</ele>
        <time>2008-05-30T11:30:53+02:00</time>
      </trkpt>
      <trkpt lat="41.65807" lon="9.18982">
        <ele>957</ele>
        <time>2008-05-30T11:30:55+02:00</time>
      </trkpt>
      <trkpt lat="41.65796" lon="9.18985">
        <ele>957</ele>
        <time>2008-05-30T11:31:00+02:00</time>
      </trkpt>
      <trkpt lat="41.65766" lon="9.18988">
        <ele>956</ele>
        <time>2008-05-30T11:31:06+02:00</time>
      </trkpt>
      <trkpt lat="41.65729" lon="9.18995">
        <ele>955</ele>
        <time>2008-05-30T11:31:12+02:00</time>
      </trkpt>
      <trkpt lat="41.65678" lon="9.19014">
        <ele>955</ele>
        <time>2008-05-30T11:31:19+02:00</time>
      </trkpt>
      <trkpt lat="41.6567" lon="9.19015">
        <ele>955</ele>
        <time>2008-05-30T11:31:20+02:00</time>
      </trkpt>
      <trkpt lat="41.65626" lon="9.19009">
        <ele>953</ele>
        <time>2008-05-30T11:31:25+02:00</time>
      </trkpt>
      <trkpt lat="41.65573" lon="9.18986">
        <ele>949</ele>
        <time>2008-05-30T11:31:31+02:00</time>
      </trkpt>
      <trkpt lat="41.65565" lon="9.18981">
        <ele>949</ele>
        <time>2008-05-30T11:31:32+02:00</time>
      </trkpt>
      <trkpt lat="41.65522" lon="9.18952">
        <ele>948</ele>
        <time>2008-05-30T11:31:37+02:00</time>
      </trkpt>
      <trkpt lat="41.65493" lon="9.18939">
        <ele>946</ele>
        <time>2008-05-30T11:31:40+02:00</time>
      </trkpt>
      <trkpt lat="41.65447" lon="9.18935">
        <ele>944</ele>
        <time>2008-05-30T11:31:45+02:00</time>
      </trkpt>
      <trkpt lat="41.65419" lon="9.1894">
        <ele>942</ele>
        <time>2008-05-30T11:31:48+02:00</time>
      </trkpt>
      <trkpt lat="41.65373" lon="9.18938">
        <ele>937</ele>
        <time>2008-05-30T11:31:53+02:00</time>
      </trkpt>
      <trkpt lat="41.65359" lon="9.18933">
        <ele>935</ele>
        <time>2008-05-30T11:31:55+02:00</time>
      </trkpt>
      <trkpt lat="41.65336" lon="9.1894">
        <ele>934</ele>
        <time>2008-05-30T11:31:59+02:00</time>
      </trkpt>
      <trkpt lat="41.6532" lon="9.18961">
        <ele>930</ele>
        <time>2008-05-30T11:32:02+02:00</time>
      </trkpt>
      <trkpt lat="41.65295" lon="9.18977">
        <ele>929</ele>
        <time>2008-05-30T11:32:05+02:00</time>
      </trkpt>
      <trkpt lat="41.65228" lon="9.19003">
        <ele>922</ele>
        <time>2008-05-30T11:32:12+02:00</time>
      </trkpt>
      <trkpt lat="41.6518" lon="9.19005">
        <ele>915</ele>
        <time>2008-05-30T11:32:17+02:00</time>
      </trkpt>
      <trkpt lat="41.6516" lon="9.19001">
        <ele>910</ele>
        <time>2008-05-30T11:32:20+02:00</time>
      </trkpt>
      <trkpt lat="41.65145" lon="9.18993">
        <ele>908</ele>
        <time>2008-05-30T11:32:24+02:00</time>
      </trkpt>
      <trkpt lat="41.6514" lon="9.18985">
        <ele>907</ele>
        <time>2008-05-30T11:32:29+02:00</time>
      </trkpt>
      <trkpt lat="41.65138" lon="9.18981">
        <ele>907</ele>
        <time>2008-05-30T11:32:36+02:00</time>
      </trkpt>
      <trkpt lat="41.65133" lon="9.1898">
        <ele>907</ele>
        <time>2008-05-30T11:32:39+02:00</time>
      </trkpt>
      <trkpt lat="41.65121" lon="9.1899">
        <ele>906</ele>
        <time>2008-05-30T11:32:45+02:00</time>
      </trkpt>
      <trkpt lat="41.65115" lon="9.18994">
        <ele>905</ele>
        <time>2008-05-30T11:32:47+02:00</time>
      </trkpt>
      <trkpt lat="41.6509" lon="9.19005">
        <ele>903</ele>
        <time>2008-05-30T11:32:52+02:00</time>
      </trkpt>
      <trkpt lat="41.65059" lon="9.19016">
        <ele>892</ele>
        <time>2008-05-30T11:32:57+02:00</time>
      </trkpt>
      <trkpt lat="41.65048" lon="9.19019">
        <ele>889</ele>
        <time>2008-05-30T11:32:59+02:00</time>
      </trkpt>
      <trkpt lat="41.65041" lon="9.19024">
        <ele>888</ele>
        <time>2008-05-30T11:33:01+02:00</time>
      </trkpt>
      <trkpt lat="41.65032" lon="9.19044">
        <ele>886</ele>
        <time>2008-05-30T11:33:06+02:00</time>
      </trkpt>
      <trkpt lat="41.65031" lon="9.19051">
        <ele>886</ele>
        <time>2008-05-30T11:33:11+02:00</time>
      </trkpt>
      <trkpt lat="41.65032" lon="9.19052">
        <ele>886</ele>
        <time>2008-05-30T11:33:17+02:00</time>
      </trkpt>
      <trkpt lat="41.65031" lon="9.19054">
        <ele>886</ele>
        <time>2008-05-30T11:33:21+02:00</time>
      </trkpt>
      <trkpt lat="41.65029" lon="9.19052">
        <ele>885</ele>
        <time>2008-05-30T11:33:27+02:00</time>
      </trkpt>
      <trkpt lat="41.65028" lon="9.1905">
        <ele>885</ele>
        <time>2008-05-30T11:33:32+02:00</time>
      </trkpt>
      <trkpt lat="41.65028" lon="9.19051">
        <ele>885</ele>
        <time>2008-05-30T11:33:43+02:00</time>
      </trkpt>
      <trkpt lat="41.65028" lon="9.19051">
        <ele>885</ele>
        <time>2008-05-30T11:33:52+02:00</time>
      </trkpt>
      <trkpt lat="41.65029" lon="9.19048">
        <ele>886</ele>
        <time>2008-05-30T11:34:08+02:00</time>
      </trkpt>
      <trkpt lat="41.65029" lon="9.19048">
        <ele>886</ele>
        <time>2008-05-30T11:34:25+02:00</time>
      </trkpt>
      <trkpt lat="41.6503" lon="9.19051">
        <ele>886</ele>
        <time>2008-05-30T11:34:36+02:00</time>
      </trkpt>
      <trkpt lat="41.6503" lon="9.19055">
        <ele>885</ele>
        <time>2008-05-30T11:34:43+02:00</time>
      </trkpt>
      <trkpt lat="41.6503" lon="9.19055">
        <ele>885</ele>
        <time>2008-05-30T11:35:01+02:00</time>
      </trkpt>
      <trkpt lat="41.65029" lon="9.19053">
        <ele>885</ele>
        <time>2008-05-30T11:35:18+02:00</time>
      </trkpt>
      <trkpt lat="41.65032" lon="9.19054">
        <ele>886</ele>
        <time>2008-05-30T11:35:25+02:00</time>
      </trkpt>
      <trkpt lat="41.65034" lon="9.19057">
        <ele>886</ele>
        <time>2008-05-30T11:35:29+02:00</time>
      </trkpt>
      <trkpt lat="41.65037" lon="9.19078">
        <ele>886</ele>
        <time>2008-05-30T11:35:34+02:00</time>
      </trkpt>
      <trkpt lat="41.65043" lon="9.19106">
        <ele>882</ele>
        <time>2008-05-30T11:35:39+02:00</time>
      </trkpt>
      <trkpt lat="41.65055" lon="9.19135">
        <ele>882</ele>
        <time>2008-05-30T11:35:43+02:00</time>
      </trkpt>
      <trkpt lat="41.6507" lon="9.1918">
        <ele>876</ele>
        <time>2008-05-30T11:35:48+02:00</time>
      </trkpt>
      <trkpt lat="41.65081" lon="9.19205">
        <ele>871</ele>
        <time>2008-05-30T11:35:51+02:00</time>
      </trkpt>
      <trkpt lat="41.65098" lon="9.19226">
        <ele>885</ele>
        <time>2008-05-30T11:35:54+02:00</time>
      </trkpt>
      <trkpt lat="41.65114" lon="9.19261">
        <ele>878</ele>
        <time>2008-05-30T11:35:58+02:00</time>
      </trkpt>
      <trkpt lat="41.65127" lon="9.19327">
        <ele>877</ele>
        <time>2008-05-30T11:36:05+02:00</time>
      </trkpt>
      <trkpt lat="41.65138" lon="9.19378">
        <ele>870</ele>
        <time>2008-05-30T11:36:10+02:00</time>
      </trkpt>
      <trkpt lat="41.65158" lon="9.19414">
        <ele>871</ele>
        <time>2008-05-30T11:36:15+02:00</time>
      </trkpt>
      <trkpt lat="41.65163" lon="9.19438">
        <ele>864</ele>
        <time>2008-05-30T11:36:19+02:00</time>
      </trkpt>
      <trkpt lat="41.65152" lon="9.19449">
        <ele>862</ele>
        <time>2008-05-30T11:36:22+02:00</time>
      </trkpt>
      <trkpt lat="41.65136" lon="9.19439">
        <ele>861</ele>
        <time>2008-05-30T11:36:25+02:00</time>
      </trkpt>
      <trkpt lat="41.65093" lon="9.194">
        <ele>862</ele>
        <time>2008-05-30T11:36:32+02:00</time>
      </trkpt>
      <trkpt lat="41.65078" lon="9.19388">
        <ele>850</ele>
        <time>2008-05-30T11:36:35+02:00</time>
      </trkpt>
      <trkpt lat="41.65057" lon="9.19393">
        <ele>848</ele>
        <time>2008-05-30T11:36:39+02:00</time>
      </trkpt>
      <trkpt lat="41.65057" lon="9.19415">
        <ele>848</ele>
        <time>2008-05-30T11:36:42+02:00</time>
      </trkpt>
      <trkpt lat="41.65061" lon="9.19422">
        <ele>845</ele>
        <time>2008-05-30T11:36:43+02:00</time>
      </trkpt>
      <trkpt lat="41.65088" lon="9.19456">
        <ele>855</ele>
        <time>2008-05-30T11:36:50+02:00</time>
      </trkpt>
      <trkpt lat="41.65102" lon="9.19476">
        <ele>854</ele>
        <time>2008-05-30T11:36:55+02:00</time>
      </trkpt>
      <trkpt lat="41.65103" lon="9.19478">
        <ele>854</ele>
        <time>2008-05-30T11:37:01+02:00</time>
      </trkpt>
      <trkpt lat="41.65101" lon="9.19479">
        <ele>854</ele>
        <time>2008-05-30T11:37:08+02:00</time>
      </trkpt>
      <trkpt lat="41.65101" lon="9.19474">
        <ele>854</ele>
        <time>2008-05-30T11:37:37+02:00</time>
      </trkpt>
      <trkpt lat="41.65102" lon="9.19475">
        <ele>854</ele>
        <time>2008-05-30T11:37:45+02:00</time>
      </trkpt>
      <trkpt lat="41.65104" lon="9.19478">
        <ele>854</ele>
        <time>2008-05-30T11:37:50+02:00</time>
      </trkpt>
      <trkpt lat="41.65114" lon="9.19491">
        <ele>855</ele>
        <time>2008-05-30T11:37:56+02:00</time>
      </trkpt>
      <trkpt lat="41.65136" lon="9.19509">
        <ele>851</ele>
        <time>2008-05-30T11:38:03+02:00</time>
      </trkpt>
      <trkpt lat="41.65156" lon="9.19529">
        <ele>851</ele>
        <time>2008-05-30T11:38:10+02:00</time>
      </trkpt>
      <trkpt lat="41.65171" lon="9.19541">
        <ele>864</ele>
        <time>2008-05-30T11:38:15+02:00</time>
      </trkpt>
      <trkpt lat="41.65184" lon="9.19558">
        <ele>863</ele>
        <time>2008-05-30T11:38:22+02:00</time>
      </trkpt>
      <trkpt lat="41.65201" lon="9.19577">
        <ele>865</ele>
        <time>2008-05-30T11:38:30+02:00</time>
      </trkpt>
      <trkpt lat="41.65209" lon="9.19593">
        <ele>858</ele>
        <time>2008-05-30T11:38:36+02:00</time>
      </trkpt>
      <trkpt lat="41.65217" lon="9.1961">
        <ele>858</ele>
        <time>2008-05-30T11:38:42+02:00</time>
      </trkpt>
      <trkpt lat="41.65226" lon="9.19633">
        <ele>858</ele>
        <time>2008-05-30T11:38:48+02:00</time>
      </trkpt>
      <trkpt lat="41.65232" lon="9.19657">
        <ele>859</ele>
        <time>2008-05-30T11:38:54+02:00</time>
      </trkpt>
      <trkpt lat="41.65231" lon="9.19679">
        <ele>851</ele>
        <time>2008-05-30T11:38:59+02:00</time>
      </trkpt>
      <trkpt lat="41.65233" lon="9.19703">
        <ele>847</ele>
        <time>2008-05-30T11:39:04+02:00</time>
      </trkpt>
      <trkpt lat="41.65238" lon="9.19722">
        <ele>848</ele>
        <time>2008-05-30T11:39:09+02:00</time>
      </trkpt>
      <trkpt lat="41.65243" lon="9.19741">
        <ele>851</ele>
        <time>2008-05-30T11:39:15+02:00</time>
      </trkpt>
      <trkpt lat="41.65248" lon="9.19755">
        <ele>851</ele>
        <time>2008-05-30T11:39:19+02:00</time>
      </trkpt>
      <trkpt lat="41.6525" lon="9.19759">
        <ele>857</ele>
        <time>2008-05-30T11:39:22+02:00</time>
      </trkpt>
      <trkpt lat="41.65252" lon="9.19765">
        <ele>857</ele>
        <time>2008-05-30T11:39:26+02:00</time>
      </trkpt>
      <trkpt lat="41.65254" lon="9.19771">
        <ele>856</ele>
        <time>2008-05-30T11:39:28+02:00</time>
      </trkpt>
      <trkpt lat="41.65256" lon="9.19774">
        <ele>856</ele>
        <time>2008-05-30T11:39:31+02:00</time>
      </trkpt>
      <trkpt lat="41.65261" lon="9.19777">
        <ele>856</ele>
        <time>2008-05-30T11:39:37+02:00</time>
      </trkpt>
      <trkpt lat="41.65268" lon="9.19784">
        <ele>856</ele>
        <time>2008-05-30T11:39:45+02:00</time>
      </trkpt>
      <trkpt lat="41.65269" lon="9.19784">
        <ele>856</ele>
        <time>2008-05-30T11:39:46+02:00</time>
      </trkpt>
      <trkpt lat="41.65274" lon="9.19791">
        <ele>856</ele>
        <time>2008-05-30T11:39:54+02:00</time>
      </trkpt>
      <trkpt lat="41.65278" lon="9.19796">
        <ele>855</ele>
        <time>2008-05-30T11:39:59+02:00</time>
      </trkpt>
      <trkpt lat="41.65287" lon="9.19803">
        <ele>856</ele>
        <time>2008-05-30T11:40:05+02:00</time>
      </trkpt>
      <trkpt lat="41.6529" lon="9.19804">
        <ele>856</ele>
        <time>2008-05-30T11:40:08+02:00</time>
      </trkpt>
      <trkpt lat="41.65294" lon="9.19807">
        <ele>856</ele>
        <time>2008-05-30T11:40:12+02:00</time>
      </trkpt>
      <trkpt lat="41.65295" lon="9.19813">
        <ele>856</ele>
        <time>2008-05-30T11:40:15+02:00</time>
      </trkpt>
      <trkpt lat="41.65299" lon="9.19818">
        <ele>856</ele>
        <time>2008-05-30T11:40:22+02:00</time>
      </trkpt>
      <trkpt lat="41.65299" lon="9.19825">
        <ele>856</ele>
        <time>2008-05-30T11:40:27+02:00</time>
      </trkpt>
      <trkpt lat="41.65304" lon="9.19826">
        <ele>856</ele>
        <time>2008-05-30T11:40:47+02:00</time>
      </trkpt>
      <trkpt lat="41.65306" lon="9.19834">
        <ele>845</ele>
        <time>2008-05-30T11:40:54+02:00</time>
      </trkpt>
      <trkpt lat="41.6531" lon="9.19839">
        <ele>846</ele>
        <time>2008-05-30T11:40:57+02:00</time>
      </trkpt>
      <trkpt lat="41.65316" lon="9.1986">
        <ele>843</ele>
        <time>2008-05-30T11:41:05+02:00</time>
      </trkpt>
      <trkpt lat="41.65314" lon="9.1987">
        <ele>841</ele>
        <time>2008-05-30T11:41:14+02:00</time>
      </trkpt>
      <trkpt lat="41.65304" lon="9.19873">
        <ele>839</ele>
        <time>2008-05-30T11:41:19+02:00</time>
      </trkpt>
      <trkpt lat="41.65304" lon="9.19885">
        <ele>838</ele>
        <time>2008-05-30T11:41:27+02:00</time>
      </trkpt>
      <trkpt lat="41.65308" lon="9.19894">
        <ele>838</ele>
        <time>2008-05-30T11:41:31+02:00</time>
      </trkpt>
      <trkpt lat="41.6531" lon="9.19909">
        <ele>837</ele>
        <time>2008-05-30T11:41:37+02:00</time>
      </trkpt>
      <trkpt lat="41.65307" lon="9.19913">
        <ele>837</ele>
        <time>2008-05-30T11:41:41+02:00</time>
      </trkpt>
      <trkpt lat="41.65299" lon="9.19917">
        <ele>823</ele>
        <time>2008-05-30T11:41:48+02:00</time>
      </trkpt>
      <trkpt lat="41.65301" lon="9.19913">
        <ele>836</ele>
        <time>2008-05-30T11:41:51+02:00</time>
      </trkpt>
      <trkpt lat="41.65309" lon="9.19903">
        <ele>837</ele>
        <time>2008-05-30T11:42:00+02:00</time>
      </trkpt>
      <trkpt lat="41.6531" lon="9.19905">
        <ele>838</ele>
        <time>2008-05-30T11:42:08+02:00</time>
      </trkpt>
      <trkpt lat="41.65318" lon="9.19906">
        <ele>839</ele>
        <time>2008-05-30T11:42:29+02:00</time>
      </trkpt>
      <trkpt lat="41.65327" lon="9.19909">
        <ele>840</ele>
        <time>2008-05-30T11:42:35+02:00</time>
      </trkpt>
      <trkpt lat="41.65332" lon="9.19904">
        <ele>840</ele>
        <time>2008-05-30T11:42:39+02:00</time>
      </trkpt>
      <trkpt lat="41.6534" lon="9.199">
        <ele>849</ele>
        <time>2008-05-30T11:42:45+02:00</time>
      </trkpt>
      <trkpt lat="41.65352" lon="9.19905">
        <ele>850</ele>
        <time>2008-05-30T11:43:39+02:00</time>
      </trkpt>
      <trkpt lat="41.65357" lon="9.19913">
        <ele>851</ele>
        <time>2008-05-30T11:43:45+02:00</time>
      </trkpt>
      <trkpt lat="41.65355" lon="9.19921">
        <ele>843</ele>
        <time>2008-05-30T11:43:55+02:00</time>
      </trkpt>
      <trkpt lat="41.65355" lon="9.19931">
        <ele>843</ele>
        <time>2008-05-30T11:44:00+02:00</time>
      </trkpt>
      <trkpt lat="41.65355" lon="9.1994">
        <ele>843</ele>
        <time>2008-05-30T11:44:05+02:00</time>
      </trkpt>
      <trkpt lat="41.65359" lon="9.19964">
        <ele>841</ele>
        <time>2008-05-30T11:44:18+02:00</time>
      </trkpt>
      <trkpt lat="41.6536" lon="9.19968">
        <ele>841</ele>
        <time>2008-05-30T11:44:19+02:00</time>
      </trkpt>
      <trkpt lat="41.65377" lon="9.20001">
        <ele>834</ele>
        <time>2008-05-30T11:44:30+02:00</time>
      </trkpt>
      <trkpt lat="41.65383" lon="9.20019">
        <ele>834</ele>
        <time>2008-05-30T11:44:36+02:00</time>
      </trkpt>
      <trkpt lat="41.65384" lon="9.20035">
        <ele>833</ele>
        <time>2008-05-30T11:44:40+02:00</time>
      </trkpt>
      <trkpt lat="41.65307" lon="9.20155">
        <ele>786</ele>
        <time>2008-05-30T11:48:06+02:00</time>
      </trkpt>
      <trkpt lat="41.65304" lon="9.20148">
        <ele>785</ele>
        <time>2008-05-30T11:48:14+02:00</time>
      </trkpt>
      <trkpt lat="41.65298" lon="9.20136">
        <ele>783</ele>
        <time>2008-05-30T11:48:25+02:00</time>
      </trkpt>
      <trkpt lat="41.65296" lon="9.20133">
        <ele>783</ele>
        <time>2008-05-30T11:48:29+02:00</time>
      </trkpt>
      <trkpt lat="41.6529" lon="9.20136">
        <ele>782</ele>
        <time>2008-05-30T11:48:36+02:00</time>
      </trkpt>
      <trkpt lat="41.65289" lon="9.20143">
        <ele>781</ele>
        <time>2008-05-30T11:48:42+02:00</time>
      </trkpt>
      <trkpt lat="41.65288" lon="9.20148">
        <ele>780</ele>
        <time>2008-05-30T11:48:45+02:00</time>
      </trkpt>
      <trkpt lat="41.65284" lon="9.20154">
        <ele>779</ele>
        <time>2008-05-30T11:48:52+02:00</time>
      </trkpt>
      <trkpt lat="41.65282" lon="9.20156">
        <ele>778</ele>
        <time>2008-05-30T11:48:59+02:00</time>
      </trkpt>
      <trkpt lat="41.65279" lon="9.20162">
        <ele>777</ele>
        <time>2008-05-30T11:49:06+02:00</time>
      </trkpt>
      <trkpt lat="41.65279" lon="9.20166">
        <ele>776</ele>
        <time>2008-05-30T11:49:15+02:00</time>
      </trkpt>
      <trkpt lat="41.65274" lon="9.20167">
        <ele>770</ele>
        <time>2008-05-30T11:49:22+02:00</time>
      </trkpt>
      <trkpt lat="41.65268" lon="9.20172">
        <ele>768</ele>
        <time>2008-05-30T11:49:29+02:00</time>
      </trkpt>
      <trkpt lat="41.65268" lon="9.20176">
        <ele>768</ele>
        <time>2008-05-30T11:49:35+02:00</time>
      </trkpt>
      <trkpt lat="41.65267" lon="9.20178">
        <ele>768</ele>
        <time>2008-05-30T11:49:44+02:00</time>
      </trkpt>
      <trkpt lat="41.65266" lon="9.20182">
        <ele>768</ele>
        <time>2008-05-30T11:49:48+02:00</time>
      </trkpt>
      <trkpt lat="41.65269" lon="9.2021">
        <ele>769</ele>
        <time>2008-05-30T11:50:05+02:00</time>
      </trkpt>
      <trkpt lat="41.65268" lon="9.20217">
        <ele>769</ele>
        <time>2008-05-30T11:50:14+02:00</time>
      </trkpt>
      <trkpt lat="41.6527" lon="9.20228">
        <ele>768</ele>
        <time>2008-05-30T11:50:24+02:00</time>
      </trkpt>
      <trkpt lat="41.6527" lon="9.20232">
        <ele>767</ele>
        <time>2008-05-30T11:50:33+02:00</time>
      </trkpt>
      <trkpt lat="41.65268" lon="9.20233">
        <ele>766</ele>
        <time>2008-05-30T11:50:38+02:00</time>
      </trkpt>
      <trkpt lat="41.65254" lon="9.20298">
        <ele>757</ele>
        <time>2008-05-30T11:51:39+02:00</time>
      </trkpt>
      <trkpt lat="41.65256" lon="9.20316">
        <ele>754</ele>
        <time>2008-05-30T11:51:45+02:00</time>
      </trkpt>
      <trkpt lat="41.65259" lon="9.20325">
        <ele>752</ele>
        <time>2008-05-30T11:51:57+02:00</time>
      </trkpt>
      <trkpt lat="41.65258" lon="9.20324">
        <ele>752</ele>
        <time>2008-05-30T11:52:06+02:00</time>
      </trkpt>
      <trkpt lat="41.65259" lon="9.20323">
        <ele>752</ele>
        <time>2008-05-30T11:52:27+02:00</time>
      </trkpt>
      <trkpt lat="41.65174" lon="9.20303">
        <ele>730</ele>
        <time>2008-05-30T11:54:57+02:00</time>
      </trkpt>
      <trkpt lat="41.65174" lon="9.20302">
        <ele>730</ele>
        <time>2008-05-30T11:54:59+02:00</time>
      </trkpt>
      <trkpt lat="41.65169" lon="9.20295">
        <ele>730</ele>
        <time>2008-05-30T11:55:14+02:00</time>
      </trkpt>
      <trkpt lat="41.65167" lon="9.20291">
        <ele>730</ele>
        <time>2008-05-30T11:55:17+02:00</time>
      </trkpt>
      <trkpt lat="41.65166" lon="9.20284">
        <ele>712</ele>
        <time>2008-05-30T11:55:23+02:00</time>
      </trkpt>
      <trkpt lat="41.65164" lon="9.20278">
        <ele>713</ele>
        <time>2008-05-30T11:55:29+02:00</time>
      </trkpt>
      <trkpt lat="41.65162" lon="9.20271">
        <ele>714</ele>
        <time>2008-05-30T11:55:36+02:00</time>
      </trkpt>
      <trkpt lat="41.65155" lon="9.20267">
        <ele>713</ele>
        <time>2008-05-30T11:55:44+02:00</time>
      </trkpt>
      <trkpt lat="41.65154" lon="9.20267">
        <ele>713</ele>
        <time>2008-05-30T11:55:45+02:00</time>
      </trkpt>
      <trkpt lat="41.6515" lon="9.20259">
        <ele>714</ele>
        <time>2008-05-30T11:55:52+02:00</time>
      </trkpt>
      <trkpt lat="41.65148" lon="9.20254">
        <ele>713</ele>
        <time>2008-05-30T11:56:03+02:00</time>
      </trkpt>
      <trkpt lat="41.65145" lon="9.20249">
        <ele>714</ele>
        <time>2008-05-30T11:56:07+02:00</time>
      </trkpt>
      <trkpt lat="41.65146" lon="9.20246">
        <ele>715</ele>
        <time>2008-05-30T11:56:09+02:00</time>
      </trkpt>
      <trkpt lat="41.65138" lon="9.20248">
        <ele>712</ele>
        <time>2008-05-30T11:56:15+02:00</time>
      </trkpt>
      <trkpt lat="41.65135" lon="9.20249">
        <ele>712</ele>
        <time>2008-05-30T11:56:17+02:00</time>
      </trkpt>
      <trkpt lat="41.65133" lon="9.20253">
        <ele>708</ele>
        <time>2008-05-30T11:56:20+02:00</time>
      </trkpt>
      <trkpt lat="41.65131" lon="9.20257">
        <ele>708</ele>
        <time>2008-05-30T11:56:24+02:00</time>
      </trkpt>
      <trkpt lat="41.65129" lon="9.20267">
        <ele>707</ele>
        <time>2008-05-30T11:56:31+02:00</time>
      </trkpt>
      <trkpt lat="41.65129" lon="9.20269">
        <ele>707</ele>
        <time>2008-05-30T11:56:37+02:00</time>
      </trkpt>
      <trkpt lat="41.65129" lon="9.20271">
        <ele>707</ele>
        <time>2008-05-30T11:56:42+02:00</time>
      </trkpt>
      <trkpt lat="41.65126" lon="9.2028">
        <ele>706</ele>
        <time>2008-05-30T11:56:48+02:00</time>
      </trkpt>
      <trkpt lat="41.65124" lon="9.20288">
        <ele>705</ele>
        <time>2008-05-30T11:56:55+02:00</time>
      </trkpt>
      <trkpt lat="41.65124" lon="9.20291">
        <ele>705</ele>
        <time>2008-05-30T11:56:57+02:00</time>
      </trkpt>
      <trkpt lat="41.65122" lon="9.20299">
        <ele>705</ele>
        <time>2008-05-30T11:57:04+02:00</time>
      </trkpt>
      <trkpt lat="41.65121" lon="9.20302">
        <ele>705</ele>
        <time>2008-05-30T11:57:06+02:00</time>
      </trkpt>
      <trkpt lat="41.65117" lon="9.2031">
        <ele>703</ele>
        <time>2008-05-30T11:57:12+02:00</time>
      </trkpt>
      <trkpt lat="41.65116" lon="9.20315">
        <ele>703</ele>
        <time>2008-05-30T11:57:14+02:00</time>
      </trkpt>
      <trkpt lat="41.65112" lon="9.20328">
        <ele>701</ele>
        <time>2008-05-30T11:57:21+02:00</time>
      </trkpt>
      <trkpt lat="41.65111" lon="9.20334">
        <ele>700</ele>
        <time>2008-05-30T11:57:24+02:00</time>
      </trkpt>
      <trkpt lat="41.65108" lon="9.20344">
        <ele>699</ele>
        <time>2008-05-30T11:57:30+02:00</time>
      </trkpt>
      <trkpt lat="41.65109" lon="9.20351">
        <ele>700</ele>
        <time>2008-05-30T11:57:33+02:00</time>
      </trkpt>
      <trkpt lat="41.6511" lon="9.20356">
        <ele>700</ele>
        <time>2008-05-30T11:57:36+02:00</time>
      </trkpt>
      <trkpt lat="41.65106" lon="9.20374">
        <ele>701</ele>
        <time>2008-05-30T11:57:42+02:00</time>
      </trkpt>
      <trkpt lat="41.65105" lon="9.20377">
        <ele>700</ele>
        <time>2008-05-30T11:57:43+02:00</time>
      </trkpt>
      <trkpt lat="41.65102" lon="9.20383">
        <ele>700</ele>
        <time>2008-05-30T11:57:46+02:00</time>
      </trkpt>
      <trkpt lat="41.65096" lon="9.2039">
        <ele>699</ele>
        <time>2008-05-30T11:57:49+02:00</time>
      </trkpt>
      <trkpt lat="41.6509" lon="9.20415">
        <ele>694</ele>
        <time>2008-05-30T11:57:56+02:00</time>
      </trkpt>
      <trkpt lat="41.65087" lon="9.20438">
        <ele>696</ele>
        <time>2008-05-30T11:58:01+02:00</time>
      </trkpt>
      <trkpt lat="41.65081" lon="9.20457">
        <ele>686</ele>
        <time>2008-05-30T11:58:06+02:00</time>
      </trkpt>
      <trkpt lat="41.65076" lon="9.20473">
        <ele>686</ele>
        <time>2008-05-30T11:58:10+02:00</time>
      </trkpt>
      <trkpt lat="41.65067" lon="9.2049">
        <ele>686</ele>
        <time>2008-05-30T11:58:15+02:00</time>
      </trkpt>
      <trkpt lat="41.65056" lon="9.205">
        <ele>682</ele>
        <time>2008-05-30T11:58:20+02:00</time>
      </trkpt>
      <trkpt lat="41.6505" lon="9.20512">
        <ele>681</ele>
        <time>2008-05-30T11:58:23+02:00</time>
      </trkpt>
      <trkpt lat="41.65037" lon="9.20516">
        <ele>679</ele>
        <time>2008-05-30T11:58:27+02:00</time>
      </trkpt>
      <trkpt lat="41.65017" lon="9.20524">
        <ele>678</ele>
        <time>2008-05-30T11:58:34+02:00</time>
      </trkpt>
      <trkpt lat="41.65014" lon="9.20524">
        <ele>677</ele>
        <time>2008-05-30T11:58:35+02:00</time>
      </trkpt>
      <trkpt lat="41.65005" lon="9.20527">
        <ele>677</ele>
        <time>2008-05-30T11:58:39+02:00</time>
      </trkpt>
      <trkpt lat="41.64994" lon="9.20525">
        <ele>669</ele>
        <time>2008-05-30T11:58:44+02:00</time>
      </trkpt>
      <trkpt lat="41.64992" lon="9.20524">
        <ele>669</ele>
        <time>2008-05-30T11:58:45+02:00</time>
      </trkpt>
      <trkpt lat="41.64984" lon="9.20528">
        <ele>667</ele>
        <time>2008-05-30T11:58:49+02:00</time>
      </trkpt>
      <trkpt lat="41.64972" lon="9.2053">
        <ele>666</ele>
        <time>2008-05-30T11:58:55+02:00</time>
      </trkpt>
      <trkpt lat="41.64961" lon="9.2053">
        <ele>665</ele>
        <time>2008-05-30T11:59:02+02:00</time>
      </trkpt>
      <trkpt lat="41.64953" lon="9.20539">
        <ele>664</ele>
        <time>2008-05-30T11:59:07+02:00</time>
      </trkpt>
      <trkpt lat="41.6494" lon="9.20542">
        <ele>663</ele>
        <time>2008-05-30T11:59:11+02:00</time>
      </trkpt>
      <trkpt lat="41.64934" lon="9.20544">
        <ele>662</ele>
        <time>2008-05-30T11:59:13+02:00</time>
      </trkpt>
      <trkpt lat="41.64913" lon="9.20556">
        <ele>652</ele>
        <time>2008-05-30T11:59:20+02:00</time>
      </trkpt>
      <trkpt lat="41.64902" lon="9.20563">
        <ele>652</ele>
        <time>2008-05-30T11:59:25+02:00</time>
      </trkpt>
      <trkpt lat="41.64896" lon="9.20572">
        <ele>651</ele>
        <time>2008-05-30T11:59:30+02:00</time>
      </trkpt>
      <trkpt lat="41.64894" lon="9.20574">
        <ele>651</ele>
        <time>2008-05-30T11:59:32+02:00</time>
      </trkpt>
      <trkpt lat="41.6488" lon="9.20579">
        <ele>649</ele>
        <time>2008-05-30T11:59:48+02:00</time>
      </trkpt>
      <trkpt lat="41.64875" lon="9.20578">
        <ele>648</ele>
        <time>2008-05-30T11:59:55+02:00</time>
      </trkpt>
      <trkpt lat="41.64866" lon="9.20572">
        <ele>647</ele>
        <time>2008-05-30T12:00:09+02:00</time>
      </trkpt>
      <trkpt lat="41.64865" lon="9.20571">
        <ele>647</ele>
        <time>2008-05-30T12:00:10+02:00</time>
      </trkpt>
      <trkpt lat="41.64861" lon="9.20571">
        <ele>646</ele>
        <time>2008-05-30T12:00:13+02:00</time>
      </trkpt>
      <trkpt lat="41.64843" lon="9.2057">
        <ele>643</ele>
        <time>2008-05-30T12:00:20+02:00</time>
      </trkpt>
      <trkpt lat="41.64841" lon="9.20572">
        <ele>642</ele>
        <time>2008-05-30T12:00:21+02:00</time>
      </trkpt>
      <trkpt lat="41.64825" lon="9.20574">
        <ele>636</ele>
        <time>2008-05-30T12:00:27+02:00</time>
      </trkpt>
      <trkpt lat="41.64731" lon="9.2056">
        <ele>618</ele>
        <time>2008-05-30T12:01:10+02:00</time>
      </trkpt>
      <trkpt lat="41.64727" lon="9.2056">
        <ele>617</ele>
        <time>2008-05-30T12:01:16+02:00</time>
      </trkpt>
      <trkpt lat="41.64724" lon="9.20558">
        <ele>617</ele>
        <time>2008-05-30T12:01:26+02:00</time>
      </trkpt>
      <trkpt lat="41.64716" lon="9.20552">
        <ele>616</ele>
        <time>2008-05-30T12:01:32+02:00</time>
      </trkpt>
      <trkpt lat="41.64708" lon="9.20551">
        <ele>615</ele>
        <time>2008-05-30T12:01:37+02:00</time>
      </trkpt>
      <trkpt lat="41.64701" lon="9.20562">
        <ele>614</ele>
        <time>2008-05-30T12:01:43+02:00</time>
      </trkpt>
      <trkpt lat="41.647" lon="9.20563">
        <ele>613</ele>
        <time>2008-05-30T12:01:44+02:00</time>
      </trkpt>
      <trkpt lat="41.64701" lon="9.20578">
        <ele>613</ele>
        <time>2008-05-30T12:01:50+02:00</time>
      </trkpt>
      <trkpt lat="41.64698" lon="9.20598">
        <ele>606</ele>
        <time>2008-05-30T12:01:55+02:00</time>
      </trkpt>
      <trkpt lat="41.64696" lon="9.20622">
        <ele>605</ele>
        <time>2008-05-30T12:01:59+02:00</time>
      </trkpt>
      <trkpt lat="41.64697" lon="9.20638">
        <ele>604</ele>
        <time>2008-05-30T12:02:02+02:00</time>
      </trkpt>
      <trkpt lat="41.64684" lon="9.20662">
        <ele>599</ele>
        <time>2008-05-30T12:02:08+02:00</time>
      </trkpt>
      <trkpt lat="41.64675" lon="9.20666">
        <ele>595</ele>
        <time>2008-05-30T12:02:12+02:00</time>
      </trkpt>
      <trkpt lat="41.6467" lon="9.20666">
        <ele>593</ele>
        <time>2008-05-30T12:02:14+02:00</time>
      </trkpt>
      <trkpt lat="41.64657" lon="9.20661">
        <ele>589</ele>
        <time>2008-05-30T12:02:19+02:00</time>
      </trkpt>
      <trkpt lat="41.64645" lon="9.20658">
        <ele>588</ele>
        <time>2008-05-30T12:02:24+02:00</time>
      </trkpt>
      <trkpt lat="41.64634" lon="9.20658">
        <ele>586</ele>
        <time>2008-05-30T12:02:28+02:00</time>
      </trkpt>
      <trkpt lat="41.64625" lon="9.20664">
        <ele>585</ele>
        <time>2008-05-30T12:02:32+02:00</time>
      </trkpt>
      <trkpt lat="41.64608" lon="9.20669">
        <ele>580</ele>
        <time>2008-05-30T12:02:38+02:00</time>
      </trkpt>
      <trkpt lat="41.646" lon="9.20671">
        <ele>579</ele>
        <time>2008-05-30T12:02:40+02:00</time>
      </trkpt>
      <trkpt lat="41.64575" lon="9.20658">
        <ele>575</ele>
        <time>2008-05-30T12:02:45+02:00</time>
      </trkpt>
      <trkpt lat="41.64562" lon="9.20651">
        <ele>574</ele>
        <time>2008-05-30T12:02:47+02:00</time>
      </trkpt>
      <trkpt lat="41.64525" lon="9.20634">
        <ele>572</ele>
        <time>2008-05-30T12:02:52+02:00</time>
      </trkpt>
      <trkpt lat="41.64498" lon="9.20624">
        <ele>568</ele>
        <time>2008-05-30T12:02:56+02:00</time>
      </trkpt>
      <trkpt lat="41.64486" lon="9.20618">
        <ele>567</ele>
        <time>2008-05-30T12:02:59+02:00</time>
      </trkpt>
      <trkpt lat="41.64478" lon="9.20611">
        <ele>566</ele>
        <time>2008-05-30T12:03:04+02:00</time>
      </trkpt>
      <trkpt lat="41.64466" lon="9.20606">
        <ele>566</ele>
        <time>2008-05-30T12:03:08+02:00</time>
      </trkpt>
      <trkpt lat="41.64459" lon="9.20611">
        <ele>566</ele>
        <time>2008-05-30T12:03:12+02:00</time>
      </trkpt>
      <trkpt lat="41.64453" lon="9.20611">
        <ele>566</ele>
        <time>2008-05-30T12:03:14+02:00</time>
      </trkpt>
      <trkpt lat="41.64435" lon="9.20614">
        <ele>566</ele>
        <time>2008-05-30T12:03:19+02:00</time>
      </trkpt>
      <trkpt lat="41.6442" lon="9.20615">
        <ele>566</ele>
        <time>2008-05-30T12:03:23+02:00</time>
      </trkpt>
      <trkpt lat="41.64416" lon="9.20617">
        <ele>557</ele>
        <time>2008-05-30T12:03:25+02:00</time>
      </trkpt>
      <trkpt lat="41.64403" lon="9.20614">
        <ele>557</ele>
        <time>2008-05-30T12:03:31+02:00</time>
      </trkpt>
      <trkpt lat="41.644" lon="9.20613">
        <ele>557</ele>
        <time>2008-05-30T12:03:35+02:00</time>
      </trkpt>
      <trkpt lat="41.64399" lon="9.20613">
        <ele>556</ele>
        <time>2008-05-30T12:03:36+02:00</time>
      </trkpt>
      <trkpt lat="41.64394" lon="9.20611">
        <ele>556</ele>
        <time>2008-05-30T12:03:39+02:00</time>
      </trkpt>
      <trkpt lat="41.64387" lon="9.20608">
        <ele>555</ele>
        <time>2008-05-30T12:03:45+02:00</time>
      </trkpt>
      <trkpt lat="41.64383" lon="9.20607">
        <ele>555</ele>
        <time>2008-05-30T12:03:49+02:00</time>
      </trkpt>
      <trkpt lat="41.64382" lon="9.20606">
        <ele>555</ele>
        <time>2008-05-30T12:03:50+02:00</time>
      </trkpt>
      <trkpt lat="41.64376" lon="9.20609">
        <ele>554</ele>
        <time>2008-05-30T12:03:58+02:00</time>
      </trkpt>
      <trkpt lat="41.64372" lon="9.20608">
        <ele>553</ele>
        <time>2008-05-30T12:04:03+02:00</time>
      </trkpt>
      <trkpt lat="41.64368" lon="9.20608">
        <ele>553</ele>
        <time>2008-05-30T12:04:08+02:00</time>
      </trkpt>
      <trkpt lat="41.64365" lon="9.20607">
        <ele>552</ele>
        <time>2008-05-30T12:04:10+02:00</time>
      </trkpt>
      <trkpt lat="41.6436" lon="9.20604">
        <ele>552</ele>
        <time>2008-05-30T12:04:15+02:00</time>
      </trkpt>
      <trkpt lat="41.64355" lon="9.20603">
        <ele>551</ele>
        <time>2008-05-30T12:04:19+02:00</time>
      </trkpt>
      <trkpt lat="41.64351" lon="9.20602">
        <ele>551</ele>
        <time>2008-05-30T12:04:25+02:00</time>
      </trkpt>
      <trkpt lat="41.6434" lon="9.20599">
        <ele>550</ele>
        <time>2008-05-30T12:04:31+02:00</time>
      </trkpt>
      <trkpt lat="41.64338" lon="9.20598">
        <ele>550</ele>
        <time>2008-05-30T12:04:33+02:00</time>
      </trkpt>
      <trkpt lat="41.64336" lon="9.206">
        <ele>550</ele>
        <time>2008-05-30T12:04:35+02:00</time>
      </trkpt>
      <trkpt lat="41.64332" lon="9.20601">
        <ele>540</ele>
        <time>2008-05-30T12:04:40+02:00</time>
      </trkpt>
      <trkpt lat="41.64328" lon="9.20605">
        <ele>538</ele>
        <time>2008-05-30T12:04:47+02:00</time>
      </trkpt>
      <trkpt lat="41.64329" lon="9.20607">
        <ele>538</ele>
        <time>2008-05-30T12:05:03+02:00</time>
      </trkpt>
      <trkpt lat="41.64331" lon="9.20606">
        <ele>538</ele>
        <time>2008-05-30T12:05:34+02:00</time>
      </trkpt>
      <trkpt lat="41.64335" lon="9.20603">
        <ele>550</ele>
        <time>2008-05-30T12:05:40+02:00</time>
      </trkpt>
      <trkpt lat="41.64331" lon="9.20601">
        <ele>540</ele>
        <time>2008-05-30T12:07:20+02:00</time>
      </trkpt>
      <trkpt lat="41.64341" lon="9.20602">
        <ele>550</ele>
        <time>2008-05-30T12:08:01+02:00</time>
      </trkpt>
      <trkpt lat="41.64341" lon="9.20601">
        <ele>550</ele>
        <time>2008-05-30T12:08:10+02:00</time>
      </trkpt>
      <trkpt lat="41.6434" lon="9.20604">
        <ele>550</ele>
        <time>2008-05-30T12:08:30+02:00</time>
      </trkpt>
      <trkpt lat="41.64338" lon="9.20603">
        <ele>550</ele>
        <time>2008-05-30T12:08:39+02:00</time>
      </trkpt>
      <trkpt lat="41.64333" lon="9.20604">
        <ele>539</ele>
        <time>2008-05-30T12:08:59+02:00</time>
      </trkpt>
      <trkpt lat="41.6433" lon="9.20603">
        <ele>539</ele>
        <time>2008-05-30T12:09:03+02:00</time>
      </trkpt>
      <trkpt lat="41.6433" lon="9.20603">
        <ele>539</ele>
        <time>2008-05-30T12:09:06+02:00</time>
      </trkpt>
      <trkpt lat="41.64331" lon="9.20604">
        <ele>539</ele>
        <time>2008-05-30T12:09:13+02:00</time>
      </trkpt>
      <trkpt lat="41.64328" lon="9.20605">
        <ele>538</ele>
        <time>2008-05-30T12:09:30+02:00</time>
      </trkpt>
      <trkpt lat="41.64326" lon="9.20605">
        <ele>538</ele>
        <time>2008-05-30T12:09:32+02:00</time>
      </trkpt>
      <trkpt lat="41.64314" lon="9.20598">
        <ele>538</ele>
        <time>2008-05-30T12:09:36+02:00</time>
      </trkpt>
      <trkpt lat="41.643" lon="9.20592">
        <ele>535</ele>
        <time>2008-05-30T12:09:40+02:00</time>
      </trkpt>
      <trkpt lat="41.6429" lon="9.20586">
        <ele>533</ele>
        <time>2008-05-30T12:09:43+02:00</time>
      </trkpt>
      <trkpt lat="41.64278" lon="9.20583">
        <ele>533</ele>
        <time>2008-05-30T12:09:47+02:00</time>
      </trkpt>
      <trkpt lat="41.64271" lon="9.20582">
        <ele>532</ele>
        <time>2008-05-30T12:09:51+02:00</time>
      </trkpt>
      <trkpt lat="41.64256" lon="9.20568">
        <ele>531</ele>
        <time>2008-05-30T12:09:56+02:00</time>
      </trkpt>
      <trkpt lat="41.64241" lon="9.20557">
        <ele>522</ele>
        <time>2008-05-30T12:10:00+02:00</time>
      </trkpt>
      <trkpt lat="41.64222" lon="9.20562">
        <ele>521</ele>
        <time>2008-05-30T12:10:05+02:00</time>
      </trkpt>
      <trkpt lat="41.64171" lon="9.20601">
        <ele>518</ele>
        <time>2008-05-30T12:10:22+02:00</time>
      </trkpt>
      <trkpt lat="41.64163" lon="9.20619">
        <ele>514</ele>
        <time>2008-05-30T12:10:26+02:00</time>
      </trkpt>
      <trkpt lat="41.64142" lon="9.20646">
        <ele>512</ele>
        <time>2008-05-30T12:10:36+02:00</time>
      </trkpt>
      <trkpt lat="41.64131" lon="9.20667">
        <ele>503</ele>
        <time>2008-05-30T12:10:40+02:00</time>
      </trkpt>
      <trkpt lat="41.64128" lon="9.20691">
        <ele>501</ele>
        <time>2008-05-30T12:10:44+02:00</time>
      </trkpt>
      <trkpt lat="41.64124" lon="9.20701">
        <ele>500</ele>
        <time>2008-05-30T12:10:48+02:00</time>
      </trkpt>
      <trkpt lat="41.64123" lon="9.20711">
        <ele>499</ele>
        <time>2008-05-30T12:10:53+02:00</time>
      </trkpt>
      <trkpt lat="41.64121" lon="9.20714">
        <ele>499</ele>
        <time>2008-05-30T12:10:56+02:00</time>
      </trkpt>
      <trkpt lat="41.64115" lon="9.20718">
        <ele>498</ele>
        <time>2008-05-30T12:11:00+02:00</time>
      </trkpt>
      <trkpt lat="41.64105" lon="9.2073">
        <ele>497</ele>
        <time>2008-05-30T12:11:07+02:00</time>
      </trkpt>
      <trkpt lat="41.641" lon="9.20731">
        <ele>497</ele>
        <time>2008-05-30T12:11:09+02:00</time>
      </trkpt>
      <trkpt lat="41.64094" lon="9.20737">
        <ele>497</ele>
        <time>2008-05-30T12:11:13+02:00</time>
      </trkpt>
      <trkpt lat="41.64087" lon="9.20744">
        <ele>495</ele>
        <time>2008-05-30T12:11:17+02:00</time>
      </trkpt>
      <trkpt lat="41.64056" lon="9.20753">
        <ele>485</ele>
        <time>2008-05-30T12:11:47+02:00</time>
      </trkpt>
      <trkpt lat="41.64045" lon="9.20755">
        <ele>483</ele>
        <time>2008-05-30T12:11:52+02:00</time>
      </trkpt>
      <trkpt lat="41.64023" lon="9.20755">
        <ele>482</ele>
        <time>2008-05-30T12:12:02+02:00</time>
      </trkpt>
      <trkpt lat="41.64019" lon="9.20756">
        <ele>482</ele>
        <time>2008-05-30T12:12:04+02:00</time>
      </trkpt>
      <trkpt lat="41.63998" lon="9.20759">
        <ele>479</ele>
        <time>2008-05-30T12:12:11+02:00</time>
      </trkpt>
      <trkpt lat="41.6393" lon="9.20831">
        <ele>460</ele>
        <time>2008-05-30T12:12:48+02:00</time>
      </trkpt>
      <trkpt lat="41.63933" lon="9.20837">
        <ele>453</ele>
        <time>2008-05-30T12:12:50+02:00</time>
      </trkpt>
      <trkpt lat="41.63941" lon="9.20859">
        <ele>452</ele>
        <time>2008-05-30T12:13:00+02:00</time>
      </trkpt>
      <trkpt lat="41.63941" lon="9.20861">
        <ele>452</ele>
        <time>2008-05-30T12:13:01+02:00</time>
      </trkpt>
      <trkpt lat="41.63946" lon="9.20874">
        <ele>451</ele>
        <time>2008-05-30T12:13:07+02:00</time>
      </trkpt>
      <trkpt lat="41.63948" lon="9.20879">
        <ele>450</ele>
        <time>2008-05-30T12:13:09+02:00</time>
      </trkpt>
      <trkpt lat="41.63955" lon="9.20892">
        <ele>450</ele>
        <time>2008-05-30T12:13:15+02:00</time>
      </trkpt>
      <trkpt lat="41.63956" lon="9.20894">
        <ele>450</ele>
        <time>2008-05-30T12:13:16+02:00</time>
      </trkpt>
      <trkpt lat="41.63957" lon="9.209">
        <ele>449</ele>
        <time>2008-05-30T12:13:21+02:00</time>
      </trkpt>
      <trkpt lat="41.63956" lon="9.209">
        <ele>449</ele>
        <time>2008-05-30T12:13:22+02:00</time>
      </trkpt>
      <trkpt lat="41.6395" lon="9.20896">
        <ele>449</ele>
        <time>2008-05-30T12:13:28+02:00</time>
      </trkpt>
      <trkpt lat="41.63939" lon="9.20895">
        <ele>448</ele>
        <time>2008-05-30T12:13:34+02:00</time>
      </trkpt>
      <trkpt lat="41.63929" lon="9.209">
        <ele>446</ele>
        <time>2008-05-30T12:13:40+02:00</time>
      </trkpt>
      <trkpt lat="41.63925" lon="9.20897">
        <ele>446</ele>
        <time>2008-05-30T12:13:45+02:00</time>
      </trkpt>
      <trkpt lat="41.63924" lon="9.20897">
        <ele>446</ele>
        <time>2008-05-30T12:13:48+02:00</time>
      </trkpt>
      <trkpt lat="41.63915" lon="9.20892">
        <ele>439</ele>
        <time>2008-05-30T12:13:52+02:00</time>
      </trkpt>
      <trkpt lat="41.63912" lon="9.20891">
        <ele>439</ele>
        <time>2008-05-30T12:13:54+02:00</time>
      </trkpt>
      <trkpt lat="41.63909" lon="9.20892">
        <ele>439</ele>
        <time>2008-05-30T12:13:56+02:00</time>
      </trkpt>
      <trkpt lat="41.63903" lon="9.20891">
        <ele>439</ele>
        <time>2008-05-30T12:14:00+02:00</time>
      </trkpt>
      <trkpt lat="41.63893" lon="9.20888">
        <ele>439</ele>
        <time>2008-05-30T12:14:07+02:00</time>
      </trkpt>
      <trkpt lat="41.63885" lon="9.20887">
        <ele>438</ele>
        <time>2008-05-30T12:14:12+02:00</time>
      </trkpt>
      <trkpt lat="41.63877" lon="9.20885">
        <ele>438</ele>
        <time>2008-05-30T12:14:18+02:00</time>
      </trkpt>
      <trkpt lat="41.63867" lon="9.20885">
        <ele>437</ele>
        <time>2008-05-30T12:14:24+02:00</time>
      </trkpt>
      <trkpt lat="41.63857" lon="9.20885">
        <ele>436</ele>
        <time>2008-05-30T12:14:30+02:00</time>
      </trkpt>
      <trkpt lat="41.63848" lon="9.20884">
        <ele>435</ele>
        <time>2008-05-30T12:14:35+02:00</time>
      </trkpt>
      <trkpt lat="41.63834" lon="9.20884">
        <ele>434</ele>
        <time>2008-05-30T12:14:41+02:00</time>
      </trkpt>
      <trkpt lat="41.63827" lon="9.20884">
        <ele>426</ele>
        <time>2008-05-30T12:14:44+02:00</time>
      </trkpt>
      <trkpt lat="41.63818" lon="9.20875">
        <ele>426</ele>
        <time>2008-05-30T12:14:49+02:00</time>
      </trkpt>
      <trkpt lat="41.63804" lon="9.20874">
        <ele>425</ele>
        <time>2008-05-30T12:14:54+02:00</time>
      </trkpt>
      <trkpt lat="41.63794" lon="9.2088">
        <ele>424</ele>
        <time>2008-05-30T12:14:58+02:00</time>
      </trkpt>
      <trkpt lat="41.63792" lon="9.20881">
        <ele>424</ele>
        <time>2008-05-30T12:14:59+02:00</time>
      </trkpt>
      <trkpt lat="41.63784" lon="9.20887">
        <ele>423</ele>
        <time>2008-05-30T12:15:04+02:00</time>
      </trkpt>
      <trkpt lat="41.6378" lon="9.20891">
        <ele>423</ele>
        <time>2008-05-30T12:15:06+02:00</time>
      </trkpt>
      <trkpt lat="41.63769" lon="9.20889">
        <ele>422</ele>
        <time>2008-05-30T12:15:11+02:00</time>
      </trkpt>
      <trkpt lat="41.63764" lon="9.20892">
        <ele>421</ele>
        <time>2008-05-30T12:15:14+02:00</time>
      </trkpt>
      <trkpt lat="41.63755" lon="9.20899">
        <ele>420</ele>
        <time>2008-05-30T12:15:19+02:00</time>
      </trkpt>
      <trkpt lat="41.63753" lon="9.20905">
        <ele>419</ele>
        <time>2008-05-30T12:15:21+02:00</time>
      </trkpt>
      <trkpt lat="41.63754" lon="9.20923">
        <ele>415</ele>
        <time>2008-05-30T12:15:27+02:00</time>
      </trkpt>
      <trkpt lat="41.63751" lon="9.20931">
        <ele>414</ele>
        <time>2008-05-30T12:15:31+02:00</time>
      </trkpt>
      <trkpt lat="41.6375" lon="9.20931">
        <ele>414</ele>
        <time>2008-05-30T12:15:32+02:00</time>
      </trkpt>
      <trkpt lat="41.63744" lon="9.20934">
        <ele>410</ele>
        <time>2008-05-30T12:15:35+02:00</time>
      </trkpt>
      <trkpt lat="41.63734" lon="9.20945">
        <ele>408</ele>
        <time>2008-05-30T12:15:41+02:00</time>
      </trkpt>
      <trkpt lat="41.63732" lon="9.20947">
        <ele>408</ele>
        <time>2008-05-30T12:15:42+02:00</time>
      </trkpt>
      <trkpt lat="41.6372" lon="9.20965">
        <ele>406</ele>
        <time>2008-05-30T12:15:48+02:00</time>
      </trkpt>
      <trkpt lat="41.63711" lon="9.20972">
        <ele>405</ele>
        <time>2008-05-30T12:15:52+02:00</time>
      </trkpt>
      <trkpt lat="41.63701" lon="9.20982">
        <ele>404</ele>
        <time>2008-05-30T12:15:58+02:00</time>
      </trkpt>
      <trkpt lat="41.6369" lon="9.20986">
        <ele>402</ele>
        <time>2008-05-30T12:16:03+02:00</time>
      </trkpt>
      <trkpt lat="41.6368" lon="9.20989">
        <ele>401</ele>
        <time>2008-05-30T12:16:09+02:00</time>
      </trkpt>
      <trkpt lat="41.63655" lon="9.20992">
        <ele>396</ele>
        <time>2008-05-30T12:16:23+02:00</time>
      </trkpt>
      <trkpt lat="41.63649" lon="9.20985">
        <ele>396</ele>
        <time>2008-05-30T12:16:28+02:00</time>
      </trkpt>
      <trkpt lat="41.63637" lon="9.20983">
        <ele>395</ele>
        <time>2008-05-30T12:16:34+02:00</time>
      </trkpt>
      <trkpt lat="41.63638" lon="9.2099">
        <ele>395</ele>
        <time>2008-05-30T12:16:38+02:00</time>
      </trkpt>
      <trkpt lat="41.63639" lon="9.20995">
        <ele>395</ele>
        <time>2008-05-30T12:16:42+02:00</time>
      </trkpt>
      <trkpt lat="41.63643" lon="9.21007">
        <ele>387</ele>
        <time>2008-05-30T12:16:48+02:00</time>
      </trkpt>
      <trkpt lat="41.63645" lon="9.21011">
        <ele>387</ele>
        <time>2008-05-30T12:16:50+02:00</time>
      </trkpt>
      <trkpt lat="41.63647" lon="9.21014">
        <ele>387</ele>
        <time>2008-05-30T12:16:55+02:00</time>
      </trkpt>
      <trkpt lat="41.63646" lon="9.21024">
        <ele>386</ele>
        <time>2008-05-30T12:17:05+02:00</time>
      </trkpt>
      <trkpt lat="41.63647" lon="9.21031">
        <ele>385</ele>
        <time>2008-05-30T12:17:13+02:00</time>
      </trkpt>
      <trkpt lat="41.63649" lon="9.21042">
        <ele>384</ele>
        <time>2008-05-30T12:17:18+02:00</time>
      </trkpt>
      <trkpt lat="41.63652" lon="9.21055">
        <ele>383</ele>
        <time>2008-05-30T12:17:24+02:00</time>
      </trkpt>
      <trkpt lat="41.63654" lon="9.21059">
        <ele>382</ele>
        <time>2008-05-30T12:17:26+02:00</time>
      </trkpt>
      <trkpt lat="41.63658" lon="9.21068">
        <ele>382</ele>
        <time>2008-05-30T12:17:31+02:00</time>
      </trkpt>
      <trkpt lat="41.6366" lon="9.21073">
        <ele>382</ele>
        <time>2008-05-30T12:17:34+02:00</time>
      </trkpt>
      <trkpt lat="41.63663" lon="9.21078">
        <ele>382</ele>
        <time>2008-05-30T12:17:39+02:00</time>
      </trkpt>
      <trkpt lat="41.63665" lon="9.21086">
        <ele>380</ele>
        <time>2008-05-30T12:17:48+02:00</time>
      </trkpt>
      <trkpt lat="41.63668" lon="9.211">
        <ele>380</ele>
        <time>2008-05-30T12:17:54+02:00</time>
      </trkpt>
      <trkpt lat="41.63667" lon="9.21111">
        <ele>379</ele>
        <time>2008-05-30T12:17:58+02:00</time>
      </trkpt>
      <trkpt lat="41.63668" lon="9.2112">
        <ele>378</ele>
        <time>2008-05-30T12:18:03+02:00</time>
      </trkpt>
      <trkpt lat="41.63668" lon="9.21122">
        <ele>378</ele>
        <time>2008-05-30T12:18:04+02:00</time>
      </trkpt>
      <trkpt lat="41.63671" lon="9.21128">
        <ele>377</ele>
        <time>2008-05-30T12:18:07+02:00</time>
      </trkpt>
      <trkpt lat="41.63669" lon="9.21135">
        <ele>376</ele>
        <time>2008-05-30T12:18:11+02:00</time>
      </trkpt>
      <trkpt lat="41.63671" lon="9.21141">
        <ele>375</ele>
        <time>2008-05-30T12:18:17+02:00</time>
      </trkpt>
      <trkpt lat="41.63669" lon="9.21142">
        <ele>375</ele>
        <time>2008-05-30T12:18:41+02:00</time>
      </trkpt>
      <trkpt lat="41.63668" lon="9.21146">
        <ele>375</ele>
        <time>2008-05-30T12:18:49+02:00</time>
      </trkpt>
      <trkpt lat="41.63669" lon="9.21144">
        <ele>375</ele>
        <time>2008-05-30T12:18:54+02:00</time>
      </trkpt>
      <trkpt lat="41.63669" lon="9.21143">
        <ele>375</ele>
        <time>2008-05-30T12:19:09+02:00</time>
      </trkpt>
      <trkpt lat="41.63669" lon="9.21142">
        <ele>375</ele>
        <time>2008-05-30T12:19:14+02:00</time>
      </trkpt>
      <trkpt lat="41.63668" lon="9.21154">
        <ele>373</ele>
        <time>2008-05-30T12:19:20+02:00</time>
      </trkpt>
      <trkpt lat="41.63666" lon="9.21158">
        <ele>369</ele>
        <time>2008-05-30T12:19:23+02:00</time>
      </trkpt>
      <trkpt lat="41.63659" lon="9.21158">
        <ele>369</ele>
        <time>2008-05-30T12:19:28+02:00</time>
      </trkpt>
      <trkpt lat="41.63648" lon="9.21162">
        <ele>368</ele>
        <time>2008-05-30T12:19:34+02:00</time>
      </trkpt>
      <trkpt lat="41.63641" lon="9.21162">
        <ele>368</ele>
        <time>2008-05-30T12:19:38+02:00</time>
      </trkpt>
      <trkpt lat="41.63634" lon="9.21167">
        <ele>361</ele>
        <time>2008-05-30T12:19:42+02:00</time>
      </trkpt>
      <trkpt lat="41.63635" lon="9.21172">
        <ele>361</ele>
        <time>2008-05-30T12:19:44+02:00</time>
      </trkpt>
      <trkpt lat="41.63636" lon="9.21178">
        <ele>361</ele>
        <time>2008-05-30T12:19:46+02:00</time>
      </trkpt>
      <trkpt lat="41.63633" lon="9.2119">
        <ele>360</ele>
        <time>2008-05-30T12:19:51+02:00</time>
      </trkpt>
      <trkpt lat="41.63627" lon="9.21197">
        <ele>359</ele>
        <time>2008-05-30T12:19:55+02:00</time>
      </trkpt>
      <trkpt lat="41.63622" lon="9.21196">
        <ele>358</ele>
        <time>2008-05-30T12:19:58+02:00</time>
      </trkpt>
      <trkpt lat="41.63615" lon="9.21199">
        <ele>358</ele>
        <time>2008-05-30T12:20:02+02:00</time>
      </trkpt>
      <trkpt lat="41.63614" lon="9.21206">
        <ele>357</ele>
        <time>2008-05-30T12:20:06+02:00</time>
      </trkpt>
      <trkpt lat="41.63616" lon="9.21212">
        <ele>357</ele>
        <time>2008-05-30T12:20:13+02:00</time>
      </trkpt>
      <trkpt lat="41.63616" lon="9.21212">
        <ele>357</ele>
        <time>2008-05-30T12:20:17+02:00</time>
      </trkpt>
      <trkpt lat="41.63614" lon="9.21217">
        <ele>357</ele>
        <time>2008-05-30T12:20:32+02:00</time>
      </trkpt>
      <trkpt lat="41.63614" lon="9.21221">
        <ele>356</ele>
        <time>2008-05-30T12:20:38+02:00</time>
      </trkpt>
      <trkpt lat="41.63608" lon="9.21227">
        <ele>355</ele>
        <time>2008-05-30T12:20:43+02:00</time>
      </trkpt>
      <trkpt lat="41.63594" lon="9.21232">
        <ele>353</ele>
        <time>2008-05-30T12:20:51+02:00</time>
      </trkpt>
      <trkpt lat="41.63584" lon="9.21243">
        <ele>350</ele>
        <time>2008-05-30T12:20:57+02:00</time>
      </trkpt>
      <trkpt lat="41.63576" lon="9.21254">
        <ele>346</ele>
        <time>2008-05-30T12:21:03+02:00</time>
      </trkpt>
      <trkpt lat="41.63567" lon="9.2126">
        <ele>344</ele>
        <time>2008-05-30T12:21:08+02:00</time>
      </trkpt>
      <trkpt lat="41.63559" lon="9.21273">
        <ele>342</ele>
        <time>2008-05-30T12:21:13+02:00</time>
      </trkpt>
      <trkpt lat="41.63547" lon="9.21277">
        <ele>341</ele>
        <time>2008-05-30T12:21:19+02:00</time>
      </trkpt>
      <trkpt lat="41.63533" lon="9.2128">
        <ele>340</ele>
        <time>2008-05-30T12:21:25+02:00</time>
      </trkpt>
      <trkpt lat="41.63526" lon="9.21277">
        <ele>340</ele>
        <time>2008-05-30T12:21:29+02:00</time>
      </trkpt>
      <trkpt lat="41.63516" lon="9.2128">
        <ele>339</ele>
        <time>2008-05-30T12:21:34+02:00</time>
      </trkpt>
      <trkpt lat="41.63507" lon="9.21289">
        <ele>338</ele>
        <time>2008-05-30T12:21:39+02:00</time>
      </trkpt>
      <trkpt lat="41.63502" lon="9.21297">
        <ele>338</ele>
        <time>2008-05-30T12:21:43+02:00</time>
      </trkpt>
      <trkpt lat="41.63501" lon="9.21305">
        <ele>337</ele>
        <time>2008-05-30T12:21:46+02:00</time>
      </trkpt>
      <trkpt lat="41.63502" lon="9.21322">
        <ele>335</ele>
        <time>2008-05-30T12:21:52+02:00</time>
      </trkpt>
      <trkpt lat="41.63504" lon="9.21332">
        <ele>333</ele>
        <time>2008-05-30T12:21:56+02:00</time>
      </trkpt>
      <trkpt lat="41.63508" lon="9.21348">
        <ele>332</ele>
        <time>2008-05-30T12:22:01+02:00</time>
      </trkpt>
      <trkpt lat="41.63504" lon="9.21358">
        <ele>332</ele>
        <time>2008-05-30T12:22:05+02:00</time>
      </trkpt>
      <trkpt lat="41.63497" lon="9.21363">
        <ele>326</ele>
        <time>2008-05-30T12:22:09+02:00</time>
      </trkpt>
      <trkpt lat="41.6349" lon="9.21369">
        <ele>325</ele>
        <time>2008-05-30T12:22:13+02:00</time>
      </trkpt>
      <trkpt lat="41.63479" lon="9.21378">
        <ele>324</ele>
        <time>2008-05-30T12:22:19+02:00</time>
      </trkpt>
      <trkpt lat="41.63479" lon="9.21377">
        <ele>324</ele>
        <time>2008-05-30T12:22:25+02:00</time>
      </trkpt>
      <trkpt lat="41.6348" lon="9.21378">
        <ele>324</ele>
        <time>2008-05-30T12:22:39+02:00</time>
      </trkpt>
      <trkpt lat="41.63482" lon="9.21381">
        <ele>324</ele>
        <time>2008-05-30T12:22:53+02:00</time>
      </trkpt>
      <trkpt lat="41.63481" lon="9.21383">
        <ele>324</ele>
        <time>2008-05-30T12:23:00+02:00</time>
      </trkpt>
      <trkpt lat="41.63479" lon="9.21384">
        <ele>324</ele>
        <time>2008-05-30T12:23:26+02:00</time>
      </trkpt>
      <trkpt lat="41.6348" lon="9.21383">
        <ele>324</ele>
        <time>2008-05-30T12:23:36+02:00</time>
      </trkpt>
      <trkpt lat="41.6348" lon="9.21383">
        <ele>324</ele>
        <time>2008-05-30T12:23:48+02:00</time>
      </trkpt>
      <trkpt lat="41.6348" lon="9.21383">
        <ele>324</ele>
        <time>2008-05-30T12:23:55+02:00</time>
      </trkpt>
      <trkpt lat="41.6348" lon="9.21382">
        <ele>324</ele>
        <time>2008-05-30T12:24:04+02:00</time>
      </trkpt>
      <trkpt lat="41.63479" lon="9.21381">
        <ele>324</ele>
        <time>2008-05-30T12:24:11+02:00</time>
      </trkpt>
      <trkpt lat="41.63477" lon="9.21378">
        <ele>324</ele>
        <time>2008-05-30T12:24:17+02:00</time>
      </trkpt>
      <trkpt lat="41.63475" lon="9.21377">
        <ele>324</ele>
        <time>2008-05-30T12:24:24+02:00</time>
      </trkpt>
      <trkpt lat="41.63473" lon="9.21376">
        <ele>323</ele>
        <time>2008-05-30T12:24:26+02:00</time>
      </trkpt>
      <trkpt lat="41.63461" lon="9.21377">
        <ele>323</ele>
        <time>2008-05-30T12:24:33+02:00</time>
      </trkpt>
      <trkpt lat="41.63448" lon="9.2137">
        <ele>322</ele>
        <time>2008-05-30T12:24:39+02:00</time>
      </trkpt>
      <trkpt lat="41.63431" lon="9.21361">
        <ele>321</ele>
        <time>2008-05-30T12:24:46+02:00</time>
      </trkpt>
      <trkpt lat="41.63425" lon="9.21356">
        <ele>321</ele>
        <time>2008-05-30T12:24:50+02:00</time>
      </trkpt>
      <trkpt lat="41.63417" lon="9.21353">
        <ele>315</ele>
        <time>2008-05-30T12:24:54+02:00</time>
      </trkpt>
      <trkpt lat="41.63408" lon="9.21349">
        <ele>315</ele>
        <time>2008-05-30T12:24:58+02:00</time>
      </trkpt>
      <trkpt lat="41.63396" lon="9.21344">
        <ele>314</ele>
        <time>2008-05-30T12:25:04+02:00</time>
      </trkpt>
      <trkpt lat="41.63388" lon="9.2134">
        <ele>313</ele>
        <time>2008-05-30T12:25:09+02:00</time>
      </trkpt>
      <trkpt lat="41.63377" lon="9.21335">
        <ele>312</ele>
        <time>2008-05-30T12:25:16+02:00</time>
      </trkpt>
      <trkpt lat="41.63369" lon="9.21332">
        <ele>315</ele>
        <time>2008-05-30T12:25:22+02:00</time>
      </trkpt>
      <trkpt lat="41.6336" lon="9.21328">
        <ele>314</ele>
        <time>2008-05-30T12:25:27+02:00</time>
      </trkpt>
      <trkpt lat="41.63356" lon="9.21326">
        <ele>314</ele>
        <time>2008-05-30T12:25:30+02:00</time>
      </trkpt>
      <trkpt lat="41.63355" lon="9.21324">
        <ele>314</ele>
        <time>2008-05-30T12:25:32+02:00</time>
      </trkpt>
      <trkpt lat="41.63348" lon="9.21314">
        <ele>314</ele>
        <time>2008-05-30T12:25:39+02:00</time>
      </trkpt>
      <trkpt lat="41.63347" lon="9.21311">
        <ele>314</ele>
        <time>2008-05-30T12:25:40+02:00</time>
      </trkpt>
      <trkpt lat="41.63337" lon="9.21306">
        <ele>314</ele>
        <time>2008-05-30T12:25:46+02:00</time>
      </trkpt>
      <trkpt lat="41.63327" lon="9.21305">
        <ele>306</ele>
        <time>2008-05-30T12:25:52+02:00</time>
      </trkpt>
      <trkpt lat="41.63322" lon="9.21301">
        <ele>306</ele>
        <time>2008-05-30T12:25:55+02:00</time>
      </trkpt>
      <trkpt lat="41.63315" lon="9.21294">
        <ele>306</ele>
        <time>2008-05-30T12:26:00+02:00</time>
      </trkpt>
      <trkpt lat="41.63306" lon="9.2129">
        <ele>305</ele>
        <time>2008-05-30T12:26:06+02:00</time>
      </trkpt>
      <trkpt lat="41.633" lon="9.21289">
        <ele>305</ele>
        <time>2008-05-30T12:26:11+02:00</time>
      </trkpt>
      <trkpt lat="41.63298" lon="9.21288">
        <ele>305</ele>
        <time>2008-05-30T12:26:12+02:00</time>
      </trkpt>
      <trkpt lat="41.63291" lon="9.21285">
        <ele>304</ele>
        <time>2008-05-30T12:26:19+02:00</time>
      </trkpt>
      <trkpt lat="41.63287" lon="9.21282">
        <ele>304</ele>
        <time>2008-05-30T12:26:23+02:00</time>
      </trkpt>
      <trkpt lat="41.63284" lon="9.21281">
        <ele>304</ele>
        <time>2008-05-30T12:26:25+02:00</time>
      </trkpt>
      <trkpt lat="41.63278" lon="9.21284">
        <ele>303</ele>
        <time>2008-05-30T12:26:29+02:00</time>
      </trkpt>
      <trkpt lat="41.6327" lon="9.21294">
        <ele>303</ele>
        <time>2008-05-30T12:26:35+02:00</time>
      </trkpt>
      <trkpt lat="41.63259" lon="9.21293">
        <ele>302</ele>
        <time>2008-05-30T12:26:42+02:00</time>
      </trkpt>
      <trkpt lat="41.63252" lon="9.21292">
        <ele>302</ele>
        <time>2008-05-30T12:26:47+02:00</time>
      </trkpt>
      <trkpt lat="41.63243" lon="9.21297">
        <ele>293</ele>
        <time>2008-05-30T12:26:53+02:00</time>
      </trkpt>
      <trkpt lat="41.63237" lon="9.21306">
        <ele>293</ele>
        <time>2008-05-30T12:26:57+02:00</time>
      </trkpt>
      <trkpt lat="41.63236" lon="9.21307">
        <ele>293</ele>
        <time>2008-05-30T12:27:02+02:00</time>
      </trkpt>
      <trkpt lat="41.63237" lon="9.21306">
        <ele>293</ele>
        <time>2008-05-30T12:27:09+02:00</time>
      </trkpt>
      <trkpt lat="41.63236" lon="9.21306">
        <ele>293</ele>
        <time>2008-05-30T12:27:15+02:00</time>
      </trkpt>
      <trkpt lat="41.63236" lon="9.21306">
        <ele>293</ele>
        <time>2008-05-30T12:27:22+02:00</time>
      </trkpt>
      <trkpt lat="41.63236" lon="9.21307">
        <ele>293</ele>
        <time>2008-05-30T12:27:30+02:00</time>
      </trkpt>
      <trkpt lat="41.63235" lon="9.21311">
        <ele>293</ele>
        <time>2008-05-30T12:27:38+02:00</time>
      </trkpt>
      <trkpt lat="41.63236" lon="9.21311">
        <ele>293</ele>
        <time>2008-05-30T12:27:44+02:00</time>
      </trkpt>
      <trkpt lat="41.63236" lon="9.2131">
        <ele>293</ele>
        <time>2008-05-30T12:27:45+02:00</time>
      </trkpt>
      <trkpt lat="41.63237" lon="9.21307">
        <ele>293</ele>
        <time>2008-05-30T12:27:51+02:00</time>
      </trkpt>
      <trkpt lat="41.63236" lon="9.21307">
        <ele>293</ele>
        <time>2008-05-30T12:27:59+02:00</time>
      </trkpt>
      <trkpt lat="41.63237" lon="9.21312">
        <ele>293</ele>
        <time>2008-05-30T12:28:04+02:00</time>
      </trkpt>
      <trkpt lat="41.63232" lon="9.21327">
        <ele>293</ele>
        <time>2008-05-30T12:28:13+02:00</time>
      </trkpt>
      <trkpt lat="41.6323" lon="9.21331">
        <ele>292</ele>
        <time>2008-05-30T12:28:19+02:00</time>
      </trkpt>
      <trkpt lat="41.63228" lon="9.21335">
        <ele>290</ele>
        <time>2008-05-30T12:28:25+02:00</time>
      </trkpt>
      <trkpt lat="41.63227" lon="9.2134">
        <ele>289</ele>
        <time>2008-05-30T12:28:31+02:00</time>
      </trkpt>
      <trkpt lat="41.63225" lon="9.21348">
        <ele>288</ele>
        <time>2008-05-30T12:28:38+02:00</time>
      </trkpt>
      <trkpt lat="41.63224" lon="9.21347">
        <ele>288</ele>
        <time>2008-05-30T12:28:43+02:00</time>
      </trkpt>
      <trkpt lat="41.63226" lon="9.21346">
        <ele>289</ele>
        <time>2008-05-30T12:28:48+02:00</time>
      </trkpt>
      <trkpt lat="41.63226" lon="9.21344">
        <ele>289</ele>
        <time>2008-05-30T12:28:53+02:00</time>
      </trkpt>
      <trkpt lat="41.63227" lon="9.21345">
        <ele>289</ele>
        <time>2008-05-30T12:29:04+02:00</time>
      </trkpt>
      <trkpt lat="41.63228" lon="9.21346">
        <ele>289</ele>
        <time>2008-05-30T12:29:50+02:00</time>
      </trkpt>
      <trkpt lat="41.63226" lon="9.21346">
        <ele>289</ele>
        <time>2008-05-30T12:29:59+02:00</time>
      </trkpt>
      <trkpt lat="41.63225" lon="9.21348">
        <ele>288</ele>
        <time>2008-05-30T12:30:04+02:00</time>
      </trkpt>
      <trkpt lat="41.63224" lon="9.21349">
        <ele>288</ele>
        <time>2008-05-30T12:30:12+02:00</time>
      </trkpt>
      <trkpt lat="41.63223" lon="9.21354">
        <ele>288</ele>
        <time>2008-05-30T12:30:16+02:00</time>
      </trkpt>
      <trkpt lat="41.63222" lon="9.2136">
        <ele>288</ele>
        <time>2008-05-30T12:30:21+02:00</time>
      </trkpt>
      <trkpt lat="41.6322" lon="9.21369">
        <ele>287</ele>
        <time>2008-05-30T12:30:25+02:00</time>
      </trkpt>
      <trkpt lat="41.63217" lon="9.21374">
        <ele>287</ele>
        <time>2008-05-30T12:30:28+02:00</time>
      </trkpt>
      <trkpt lat="41.63213" lon="9.21373">
        <ele>286</ele>
        <time>2008-05-30T12:30:32+02:00</time>
      </trkpt>
      <trkpt lat="41.63209" lon="9.21368">
        <ele>286</ele>
        <time>2008-05-30T12:30:36+02:00</time>
      </trkpt>
      <trkpt lat="41.63205" lon="9.21365">
        <ele>286</ele>
        <time>2008-05-30T12:30:44+02:00</time>
      </trkpt>
      <trkpt lat="41.63201" lon="9.21363">
        <ele>286</ele>
        <time>2008-05-30T12:30:50+02:00</time>
      </trkpt>
      <trkpt lat="41.63195" lon="9.21359">
        <ele>285</ele>
        <time>2008-05-30T12:30:57+02:00</time>
      </trkpt>
      <trkpt lat="41.63192" lon="9.21357">
        <ele>285</ele>
        <time>2008-05-30T12:31:04+02:00</time>
      </trkpt>
      <trkpt lat="41.63192" lon="9.21356">
        <ele>285</ele>
        <time>2008-05-30T12:31:09+02:00</time>
      </trkpt>
      <trkpt lat="41.63192" lon="9.21356">
        <ele>285</ele>
        <time>2008-05-30T12:31:19+02:00</time>
      </trkpt>
      <trkpt lat="41.63191" lon="9.21357">
        <ele>285</ele>
        <time>2008-05-30T12:31:32+02:00</time>
      </trkpt>
      <trkpt lat="41.63192" lon="9.21356">
        <ele>285</ele>
        <time>2008-05-30T12:31:40+02:00</time>
      </trkpt>
      <trkpt lat="41.6319" lon="9.21356">
        <ele>285</ele>
        <time>2008-05-30T12:31:45+02:00</time>
      </trkpt>
      <trkpt lat="41.63189" lon="9.21357">
        <ele>284</ele>
        <time>2008-05-30T12:31:47+02:00</time>
      </trkpt>
      <trkpt lat="41.63184" lon="9.21357">
        <ele>284</ele>
        <time>2008-05-30T12:31:51+02:00</time>
      </trkpt>
      <trkpt lat="41.63179" lon="9.21363">
        <ele>284</ele>
        <time>2008-05-30T12:31:58+02:00</time>
      </trkpt>
      <trkpt lat="41.63176" lon="9.21371">
        <ele>284</ele>
        <time>2008-05-30T12:32:05+02:00</time>
      </trkpt>
      <trkpt lat="41.63174" lon="9.21374">
        <ele>284</ele>
        <time>2008-05-30T12:32:07+02:00</time>
      </trkpt>
      <trkpt lat="41.63168" lon="9.2138">
        <ele>283</ele>
        <time>2008-05-30T12:32:12+02:00</time>
      </trkpt>
      <trkpt lat="41.6316" lon="9.21387">
        <ele>277</ele>
        <time>2008-05-30T12:32:18+02:00</time>
      </trkpt>
      <trkpt lat="41.63153" lon="9.21388">
        <ele>276</ele>
        <time>2008-05-30T12:32:22+02:00</time>
      </trkpt>
      <trkpt lat="41.63147" lon="9.21395">
        <ele>276</ele>
        <time>2008-05-30T12:32:27+02:00</time>
      </trkpt>
      <trkpt lat="41.63142" lon="9.21406">
        <ele>276</ele>
        <time>2008-05-30T12:32:33+02:00</time>
      </trkpt>
      <trkpt lat="41.63132" lon="9.21408">
        <ele>275</ele>
        <time>2008-05-30T12:32:40+02:00</time>
      </trkpt>
      <trkpt lat="41.6313" lon="9.21407">
        <ele>275</ele>
        <time>2008-05-30T12:32:42+02:00</time>
      </trkpt>
      <trkpt lat="41.63126" lon="9.21407">
        <ele>275</ele>
        <time>2008-05-30T12:32:49+02:00</time>
      </trkpt>
      <trkpt lat="41.63122" lon="9.21405">
        <ele>274</ele>
        <time>2008-05-30T12:32:53+02:00</time>
      </trkpt>
      <trkpt lat="41.63117" lon="9.21402">
        <ele>274</ele>
        <time>2008-05-30T12:32:59+02:00</time>
      </trkpt>
      <trkpt lat="41.63116" lon="9.21399">
        <ele>274</ele>
        <time>2008-05-30T12:33:05+02:00</time>
      </trkpt>
      <trkpt lat="41.6311" lon="9.21396">
        <ele>273</ele>
        <time>2008-05-30T12:33:12+02:00</time>
      </trkpt>
      <trkpt lat="41.63108" lon="9.21393">
        <ele>273</ele>
        <time>2008-05-30T12:33:16+02:00</time>
      </trkpt>
      <trkpt lat="41.63107" lon="9.21391">
        <ele>273</ele>
        <time>2008-05-30T12:33:20+02:00</time>
      </trkpt>
      <trkpt lat="41.63106" lon="9.21391">
        <ele>273</ele>
        <time>2008-05-30T12:33:26+02:00</time>
      </trkpt>
      <trkpt lat="41.63104" lon="9.2139">
        <ele>273</ele>
        <time>2008-05-30T12:33:31+02:00</time>
      </trkpt>
      <trkpt lat="41.63103" lon="9.21389">
        <ele>273</ele>
        <time>2008-05-30T12:33:47+02:00</time>
      </trkpt>
      <trkpt lat="41.63103" lon="9.21389">
        <ele>273</ele>
        <time>2008-05-30T12:33:56+02:00</time>
      </trkpt>
      <trkpt lat="41.63104" lon="9.2139">
        <ele>273</ele>
        <time>2008-05-30T12:34:04+02:00</time>
      </trkpt>
      <trkpt lat="41.63104" lon="9.2139">
        <ele>273</ele>
        <time>2008-05-30T12:34:12+02:00</time>
      </trkpt>
      <trkpt lat="41.63101" lon="9.21392">
        <ele>273</ele>
        <time>2008-05-30T12:34:17+02:00</time>
      </trkpt>
      <trkpt lat="41.63096" lon="9.21389">
        <ele>273</ele>
        <time>2008-05-30T12:34:21+02:00</time>
      </trkpt>
      <trkpt lat="41.63083" lon="9.21382">
        <ele>273</ele>
        <time>2008-05-30T12:34:28+02:00</time>
      </trkpt>
      <trkpt lat="41.63074" lon="9.21373">
        <ele>264</ele>
        <time>2008-05-30T12:34:34+02:00</time>
      </trkpt>
      <trkpt lat="41.63069" lon="9.21369">
        <ele>264</ele>
        <time>2008-05-30T12:34:37+02:00</time>
      </trkpt>
      <trkpt lat="41.63056" lon="9.21365">
        <ele>263</ele>
        <time>2008-05-30T12:34:43+02:00</time>
      </trkpt>
      <trkpt lat="41.63048" lon="9.21365">
        <ele>262</ele>
        <time>2008-05-30T12:34:47+02:00</time>
      </trkpt>
      <trkpt lat="41.63041" lon="9.2136">
        <ele>261</ele>
        <time>2008-05-30T12:34:51+02:00</time>
      </trkpt>
      <trkpt lat="41.63038" lon="9.21356">
        <ele>261</ele>
        <time>2008-05-30T12:34:54+02:00</time>
      </trkpt>
      <trkpt lat="41.63028" lon="9.21355">
        <ele>259</ele>
        <time>2008-05-30T12:34:59+02:00</time>
      </trkpt>
      <trkpt lat="41.63022" lon="9.2135">
        <ele>258</ele>
        <time>2008-05-30T12:35:04+02:00</time>
      </trkpt>
      <trkpt lat="41.63015" lon="9.21352">
        <ele>257</ele>
        <time>2008-05-30T12:35:09+02:00</time>
      </trkpt>
      <trkpt lat="41.63015" lon="9.21355">
        <ele>258</ele>
        <time>2008-05-30T12:35:13+02:00</time>
      </trkpt>
      <trkpt lat="41.63015" lon="9.21355">
        <ele>258</ele>
        <time>2008-05-30T12:35:20+02:00</time>
      </trkpt>
      <trkpt lat="41.63015" lon="9.21358">
        <ele>258</ele>
        <time>2008-05-30T12:35:23+02:00</time>
      </trkpt>
      <trkpt lat="41.63007" lon="9.21372">
        <ele>257</ele>
        <time>2008-05-30T12:35:28+02:00</time>
      </trkpt>
      <trkpt lat="41.63" lon="9.21385">
        <ele>257</ele>
        <time>2008-05-30T12:35:33+02:00</time>
      </trkpt>
      <trkpt lat="41.62997" lon="9.21397">
        <ele>247</ele>
        <time>2008-05-30T12:35:37+02:00</time>
      </trkpt>
      <trkpt lat="41.62991" lon="9.2141">
        <ele>247</ele>
        <time>2008-05-30T12:35:42+02:00</time>
      </trkpt>
      <trkpt lat="41.62987" lon="9.2142">
        <ele>247</ele>
        <time>2008-05-30T12:35:47+02:00</time>
      </trkpt>
      <trkpt lat="41.62983" lon="9.21427">
        <ele>246</ele>
        <time>2008-05-30T12:35:54+02:00</time>
      </trkpt>
      <trkpt lat="41.62981" lon="9.21442">
        <ele>244</ele>
        <time>2008-05-30T12:36:00+02:00</time>
      </trkpt>
      <trkpt lat="41.62972" lon="9.21448">
        <ele>243</ele>
        <time>2008-05-30T12:36:05+02:00</time>
      </trkpt>
      <trkpt lat="41.62968" lon="9.2145">
        <ele>243</ele>
        <time>2008-05-30T12:36:12+02:00</time>
      </trkpt>
      <trkpt lat="41.62964" lon="9.21452">
        <ele>243</ele>
        <time>2008-05-30T12:36:17+02:00</time>
      </trkpt>
      <trkpt lat="41.62953" lon="9.21452">
        <ele>242</ele>
        <time>2008-05-30T12:36:22+02:00</time>
      </trkpt>
      <trkpt lat="41.62949" lon="9.21454">
        <ele>241</ele>
        <time>2008-05-30T12:36:26+02:00</time>
      </trkpt>
      <trkpt lat="41.6295" lon="9.21455">
        <ele>241</ele>
        <time>2008-05-30T12:36:33+02:00</time>
      </trkpt>
      <trkpt lat="41.6295" lon="9.21456">
        <ele>241</ele>
        <time>2008-05-30T12:36:39+02:00</time>
      </trkpt>
      <trkpt lat="41.6295" lon="9.21456">
        <ele>241</ele>
        <time>2008-05-30T12:36:46+02:00</time>
      </trkpt>
      <trkpt lat="41.62946" lon="9.21459">
        <ele>241</ele>
        <time>2008-05-30T12:36:53+02:00</time>
      </trkpt>
      <trkpt lat="41.6294" lon="9.21467">
        <ele>240</ele>
        <time>2008-05-30T12:36:58+02:00</time>
      </trkpt>
      <trkpt lat="41.62931" lon="9.21477">
        <ele>239</ele>
        <time>2008-05-30T12:37:04+02:00</time>
      </trkpt>
      <trkpt lat="41.62929" lon="9.21478">
        <ele>239</ele>
        <time>2008-05-30T12:37:05+02:00</time>
      </trkpt>
      <trkpt lat="41.62918" lon="9.21484">
        <ele>238</ele>
        <time>2008-05-30T12:37:12+02:00</time>
      </trkpt>
      <trkpt lat="41.62913" lon="9.21499">
        <ele>235</ele>
        <time>2008-05-30T12:37:18+02:00</time>
      </trkpt>
      <trkpt lat="41.62909" lon="9.21518">
        <ele>234</ele>
        <time>2008-05-30T12:37:25+02:00</time>
      </trkpt>
      <trkpt lat="41.62909" lon="9.21521">
        <ele>233</ele>
        <time>2008-05-30T12:37:26+02:00</time>
      </trkpt>
      <trkpt lat="41.629" lon="9.21541">
        <ele>233</ele>
        <time>2008-05-30T12:37:34+02:00</time>
      </trkpt>
      <trkpt lat="41.62895" lon="9.21557">
        <ele>233</ele>
        <time>2008-05-30T12:37:40+02:00</time>
      </trkpt>
      <trkpt lat="41.62891" lon="9.21574">
        <ele>233</ele>
        <time>2008-05-30T12:37:46+02:00</time>
      </trkpt>
      <trkpt lat="41.62886" lon="9.21587">
        <ele>233</ele>
        <time>2008-05-30T12:37:51+02:00</time>
      </trkpt>
      <trkpt lat="41.62883" lon="9.21595">
        <ele>233</ele>
        <time>2008-05-30T12:37:54+02:00</time>
      </trkpt>
      <trkpt lat="41.62883" lon="9.21599">
        <ele>232</ele>
        <time>2008-05-30T12:37:58+02:00</time>
      </trkpt>
      <trkpt lat="41.62883" lon="9.21599">
        <ele>232</ele>
        <time>2008-05-30T12:38:02+02:00</time>
      </trkpt>
      <trkpt lat="41.62883" lon="9.21595">
        <ele>233</ele>
        <time>2008-05-30T12:38:08+02:00</time>
      </trkpt>
      <trkpt lat="41.62883" lon="9.21594">
        <ele>233</ele>
        <time>2008-05-30T12:38:17+02:00</time>
      </trkpt>
      <trkpt lat="41.62884" lon="9.21594">
        <ele>233</ele>
        <time>2008-05-30T12:38:32+02:00</time>
      </trkpt>
      <trkpt lat="41.62884" lon="9.21594">
        <ele>233</ele>
        <time>2008-05-30T12:38:37+02:00</time>
      </trkpt>
      <trkpt lat="41.62884" lon="9.21593">
        <ele>233</ele>
        <time>2008-05-30T12:38:46+02:00</time>
      </trkpt>
      <trkpt lat="41.62883" lon="9.21592">
        <ele>233</ele>
        <time>2008-05-30T12:38:55+02:00</time>
      </trkpt>
      <trkpt lat="41.62883" lon="9.21592">
        <ele>233</ele>
        <time>2008-05-30T12:39:07+02:00</time>
      </trkpt>
      <trkpt lat="41.62883" lon="9.21598">
        <ele>232</ele>
        <time>2008-05-30T12:39:15+02:00</time>
      </trkpt>
      <trkpt lat="41.62883" lon="9.216">
        <ele>232</ele>
        <time>2008-05-30T12:39:21+02:00</time>
      </trkpt>
      <trkpt lat="41.62882" lon="9.21599">
        <ele>232</ele>
        <time>2008-05-30T12:39:22+02:00</time>
      </trkpt>
      <trkpt lat="41.62881" lon="9.21592">
        <ele>232</ele>
        <time>2008-05-30T12:39:27+02:00</time>
      </trkpt>
      <trkpt lat="41.6288" lon="9.21593">
        <ele>232</ele>
        <time>2008-05-30T12:39:28+02:00</time>
      </trkpt>
      <trkpt lat="41.62869" lon="9.216">
        <ele>232</ele>
        <time>2008-05-30T12:39:35+02:00</time>
      </trkpt>
      <trkpt lat="41.62857" lon="9.21608">
        <ele>231</ele>
        <time>2008-05-30T12:39:41+02:00</time>
      </trkpt>
      <trkpt lat="41.62852" lon="9.21611">
        <ele>231</ele>
        <time>2008-05-30T12:39:44+02:00</time>
      </trkpt>
      <trkpt lat="41.62851" lon="9.21612">
        <ele>231</ele>
        <time>2008-05-30T12:39:47+02:00</time>
      </trkpt>
      <trkpt lat="41.62851" lon="9.21612">
        <ele>231</ele>
        <time>2008-05-30T12:39:48+02:00</time>
      </trkpt>
      <trkpt lat="41.62844" lon="9.21618">
        <ele>231</ele>
        <time>2008-05-30T12:39:52+02:00</time>
      </trkpt>
      <trkpt lat="41.62832" lon="9.21618">
        <ele>228</ele>
        <time>2008-05-30T12:39:57+02:00</time>
      </trkpt>
      <trkpt lat="41.62812" lon="9.2161">
        <ele>228</ele>
        <time>2008-05-30T12:40:06+02:00</time>
      </trkpt>
      <trkpt lat="41.62797" lon="9.21596">
        <ele>228</ele>
        <time>2008-05-30T12:40:14+02:00</time>
      </trkpt>
      <trkpt lat="41.62785" lon="9.2158">
        <ele>228</ele>
        <time>2008-05-30T12:40:21+02:00</time>
      </trkpt>
      <trkpt lat="41.6277" lon="9.21568">
        <ele>228</ele>
        <time>2008-05-30T12:40:28+02:00</time>
      </trkpt>
      <trkpt lat="41.62755" lon="9.2155">
        <ele>228</ele>
        <time>2008-05-30T12:40:34+02:00</time>
      </trkpt>
      <trkpt lat="41.62737" lon="9.21541">
        <ele>227</ele>
        <time>2008-05-30T12:40:40+02:00</time>
      </trkpt>
      <trkpt lat="41.62721" lon="9.21535">
        <ele>227</ele>
        <time>2008-05-30T12:40:46+02:00</time>
      </trkpt>
      <trkpt lat="41.627" lon="9.2153">
        <ele>227</ele>
        <time>2008-05-30T12:40:53+02:00</time>
      </trkpt>
      <trkpt lat="41.62682" lon="9.21518">
        <ele>227</ele>
        <time>2008-05-30T12:40:59+02:00</time>
      </trkpt>
      <trkpt lat="41.62659" lon="9.21498">
        <ele>225</ele>
        <time>2008-05-30T12:41:06+02:00</time>
      </trkpt>
      <trkpt lat="41.62647" lon="9.21485">
        <ele>223</ele>
        <time>2008-05-30T12:41:10+02:00</time>
      </trkpt>
      <trkpt lat="41.62639" lon="9.21476">
        <ele>222</ele>
        <time>2008-05-30T12:41:14+02:00</time>
      </trkpt>
      <trkpt lat="41.62636" lon="9.21473">
        <ele>222</ele>
        <time>2008-05-30T12:41:20+02:00</time>
      </trkpt>
      <trkpt lat="41.62639" lon="9.21477">
        <ele>222</ele>
        <time>2008-05-30T12:41:29+02:00</time>
      </trkpt>
      <trkpt lat="41.6264" lon="9.21478">
        <ele>222</ele>
        <time>2008-05-30T12:41:31+02:00</time>
      </trkpt>
      <trkpt lat="41.62652" lon="9.21491">
        <ele>224</ele>
        <time>2008-05-30T12:41:38+02:00</time>
      </trkpt>
      <trkpt lat="41.62655" lon="9.21495">
        <ele>225</ele>
        <time>2008-05-30T12:41:41+02:00</time>
      </trkpt>
      <trkpt lat="41.62652" lon="9.21493">
        <ele>224</ele>
        <time>2008-05-30T12:41:46+02:00</time>
      </trkpt>
      <trkpt lat="41.62645" lon="9.21482">
        <ele>223</ele>
        <time>2008-05-30T12:41:51+02:00</time>
      </trkpt>
      <trkpt lat="41.62635" lon="9.21473">
        <ele>222</ele>
        <time>2008-05-30T12:41:57+02:00</time>
      </trkpt>
      <trkpt lat="41.62631" lon="9.21467">
        <ele>221</ele>
        <time>2008-05-30T12:42:02+02:00</time>
      </trkpt>
      <trkpt lat="41.62623" lon="9.2146">
        <ele>221</ele>
        <time>2008-05-30T12:42:08+02:00</time>
      </trkpt>
      <trkpt lat="41.62617" lon="9.21457">
        <ele>221</ele>
        <time>2008-05-30T12:42:11+02:00</time>
      </trkpt>
      <trkpt lat="41.6261" lon="9.21446">
        <ele>220</ele>
        <time>2008-05-30T12:42:16+02:00</time>
      </trkpt>
      <trkpt lat="41.62603" lon="9.21437">
        <ele>220</ele>
        <time>2008-05-30T12:42:19+02:00</time>
      </trkpt>
      <trkpt lat="41.6259" lon="9.21429">
        <ele>219</ele>
        <time>2008-05-30T12:42:25+02:00</time>
      </trkpt>
      <trkpt lat="41.62584" lon="9.21424">
        <ele>218</ele>
        <time>2008-05-30T12:42:28+02:00</time>
      </trkpt>
      <trkpt lat="41.62581" lon="9.21419">
        <ele>216</ele>
        <time>2008-05-30T12:42:30+02:00</time>
      </trkpt>
      <trkpt lat="41.62574" lon="9.21415">
        <ele>214</ele>
        <time>2008-05-30T12:42:34+02:00</time>
      </trkpt>
      <trkpt lat="41.62562" lon="9.21414">
        <ele>212</ele>
        <time>2008-05-30T12:42:40+02:00</time>
      </trkpt>
      <trkpt lat="41.62556" lon="9.21411">
        <ele>211</ele>
        <time>2008-05-30T12:42:45+02:00</time>
      </trkpt>
      <trkpt lat="41.6255" lon="9.21409">
        <ele>210</ele>
        <time>2008-05-30T12:42:49+02:00</time>
      </trkpt>
      <trkpt lat="41.6254" lon="9.21412">
        <ele>210</ele>
        <time>2008-05-30T12:42:55+02:00</time>
      </trkpt>
      <trkpt lat="41.62532" lon="9.21412">
        <ele>209</ele>
        <time>2008-05-30T12:42:59+02:00</time>
      </trkpt>
      <trkpt lat="41.62523" lon="9.2142">
        <ele>210</ele>
        <time>2008-05-30T12:43:06+02:00</time>
      </trkpt>
      <trkpt lat="41.62513" lon="9.21426">
        <ele>209</ele>
        <time>2008-05-30T12:43:11+02:00</time>
      </trkpt>
      <trkpt lat="41.62507" lon="9.21431">
        <ele>208</ele>
        <time>2008-05-30T12:43:14+02:00</time>
      </trkpt>
      <trkpt lat="41.62491" lon="9.21428">
        <ele>204</ele>
        <time>2008-05-30T12:43:20+02:00</time>
      </trkpt>
      <trkpt lat="41.62473" lon="9.2142">
        <ele>203</ele>
        <time>2008-05-30T12:43:27+02:00</time>
      </trkpt>
      <trkpt lat="41.62465" lon="9.21416">
        <ele>203</ele>
        <time>2008-05-30T12:43:31+02:00</time>
      </trkpt>
      <trkpt lat="41.62454" lon="9.21413">
        <ele>202</ele>
        <time>2008-05-30T12:43:35+02:00</time>
      </trkpt>
      <trkpt lat="41.62442" lon="9.21407">
        <ele>201</ele>
        <time>2008-05-30T12:43:40+02:00</time>
      </trkpt>
      <trkpt lat="41.62427" lon="9.21403">
        <ele>201</ele>
        <time>2008-05-30T12:43:45+02:00</time>
      </trkpt>
      <trkpt lat="41.6242" lon="9.21402">
        <ele>201</ele>
        <time>2008-05-30T12:43:47+02:00</time>
      </trkpt>
      <trkpt lat="41.62399" lon="9.21396">
        <ele>196</ele>
        <time>2008-05-30T12:43:54+02:00</time>
      </trkpt>
      <trkpt lat="41.62388" lon="9.21395">
        <ele>195</ele>
        <time>2008-05-30T12:43:59+02:00</time>
      </trkpt>
      <trkpt lat="41.62381" lon="9.2139">
        <ele>194</ele>
        <time>2008-05-30T12:44:04+02:00</time>
      </trkpt>
      <trkpt lat="41.62373" lon="9.21388">
        <ele>194</ele>
        <time>2008-05-30T12:44:09+02:00</time>
      </trkpt>
      <trkpt lat="41.62373" lon="9.21387">
        <ele>194</ele>
        <time>2008-05-30T12:44:13+02:00</time>
      </trkpt>
      <trkpt lat="41.62371" lon="9.21385">
        <ele>193</ele>
        <time>2008-05-30T12:44:15+02:00</time>
      </trkpt>
      <trkpt lat="41.6236" lon="9.21385">
        <ele>193</ele>
        <time>2008-05-30T12:44:21+02:00</time>
      </trkpt>
      <trkpt lat="41.62356" lon="9.21385">
        <ele>192</ele>
        <time>2008-05-30T12:44:23+02:00</time>
      </trkpt>
      <trkpt lat="41.62353" lon="9.21384">
        <ele>192</ele>
        <time>2008-05-30T12:44:25+02:00</time>
      </trkpt>
      <trkpt lat="41.62343" lon="9.21381">
        <ele>192</ele>
        <time>2008-05-30T12:44:31+02:00</time>
      </trkpt>
      <trkpt lat="41.62341" lon="9.21384">
        <ele>192</ele>
        <time>2008-05-30T12:44:35+02:00</time>
      </trkpt>
      <trkpt lat="41.62341" lon="9.21383">
        <ele>192</ele>
        <time>2008-05-30T12:44:41+02:00</time>
      </trkpt>
      <trkpt lat="41.62341" lon="9.21385">
        <ele>192</ele>
        <time>2008-05-30T12:45:00+02:00</time>
      </trkpt>
      <trkpt lat="41.62341" lon="9.21386">
        <ele>192</ele>
        <time>2008-05-30T12:45:12+02:00</time>
      </trkpt>
      <trkpt lat="41.62341" lon="9.21386">
        <ele>192</ele>
        <time>2008-05-30T12:45:34+02:00</time>
      </trkpt>
      <trkpt lat="41.62343" lon="9.21386">
        <ele>192</ele>
        <time>2008-05-30T12:46:09+02:00</time>
      </trkpt>
      <trkpt lat="41.62341" lon="9.21387">
        <ele>191</ele>
        <time>2008-05-30T12:46:15+02:00</time>
      </trkpt>
      <trkpt lat="41.62333" lon="9.21384">
        <ele>182</ele>
        <time>2008-05-30T12:46:20+02:00</time>
      </trkpt>
      <trkpt lat="41.6233" lon="9.21381">
        <ele>182</ele>
        <time>2008-05-30T12:46:22+02:00</time>
      </trkpt>
      <trkpt lat="41.62325" lon="9.21373">
        <ele>182</ele>
        <time>2008-05-30T12:46:26+02:00</time>
      </trkpt>
      <trkpt lat="41.62307" lon="9.21363">
        <ele>180</ele>
        <time>2008-05-30T12:46:35+02:00</time>
      </trkpt>
      <trkpt lat="41.62298" lon="9.21353">
        <ele>180</ele>
        <time>2008-05-30T12:46:39+02:00</time>
      </trkpt>
      <trkpt lat="41.6229" lon="9.21344">
        <ele>178</ele>
        <time>2008-05-30T12:46:44+02:00</time>
      </trkpt>
      <trkpt lat="41.62281" lon="9.2134">
        <ele>177</ele>
        <time>2008-05-30T12:46:51+02:00</time>
      </trkpt>
      <trkpt lat="41.62273" lon="9.21328">
        <ele>176</ele>
        <time>2008-05-30T12:46:57+02:00</time>
      </trkpt>
      <trkpt lat="41.62269" lon="9.21319">
        <ele>176</ele>
        <time>2008-05-30T12:47:02+02:00</time>
      </trkpt>
      <trkpt lat="41.62259" lon="9.21313">
        <ele>175</ele>
        <time>2008-05-30T12:47:09+02:00</time>
      </trkpt>
      <trkpt lat="41.6225" lon="9.21313">
        <ele>167</ele>
        <time>2008-05-30T12:47:14+02:00</time>
      </trkpt>
      <trkpt lat="41.62248" lon="9.21312">
        <ele>167</ele>
        <time>2008-05-30T12:47:15+02:00</time>
      </trkpt>
      <trkpt lat="41.62244" lon="9.21312">
        <ele>166</ele>
        <time>2008-05-30T12:47:17+02:00</time>
      </trkpt>
      <trkpt lat="41.62237" lon="9.2131">
        <ele>166</ele>
        <time>2008-05-30T12:47:22+02:00</time>
      </trkpt>
      <trkpt lat="41.62232" lon="9.21319">
        <ele>166</ele>
        <time>2008-05-30T12:47:28+02:00</time>
      </trkpt>
      <trkpt lat="41.62225" lon="9.2132">
        <ele>165</ele>
        <time>2008-05-30T12:47:32+02:00</time>
      </trkpt>
      <trkpt lat="41.62217" lon="9.21319">
        <ele>164</ele>
        <time>2008-05-30T12:47:35+02:00</time>
      </trkpt>
      <trkpt lat="41.62205" lon="9.21316">
        <ele>162</ele>
        <time>2008-05-30T12:47:39+02:00</time>
      </trkpt>
      <trkpt lat="41.62192" lon="9.2132">
        <ele>160</ele>
        <time>2008-05-30T12:47:44+02:00</time>
      </trkpt>
      <trkpt lat="41.62185" lon="9.21332">
        <ele>158</ele>
        <time>2008-05-30T12:47:49+02:00</time>
      </trkpt>
      <trkpt lat="41.62184" lon="9.21343">
        <ele>157</ele>
        <time>2008-05-30T12:47:54+02:00</time>
      </trkpt>
      <trkpt lat="41.62177" lon="9.21357">
        <ele>157</ele>
        <time>2008-05-30T12:47:59+02:00</time>
      </trkpt>
      <trkpt lat="41.62172" lon="9.21371">
        <ele>156</ele>
        <time>2008-05-30T12:48:05+02:00</time>
      </trkpt>
      <trkpt lat="41.62171" lon="9.21384">
        <ele>156</ele>
        <time>2008-05-30T12:48:11+02:00</time>
      </trkpt>
      <trkpt lat="41.62166" lon="9.21397">
        <ele>148</ele>
        <time>2008-05-30T12:48:15+02:00</time>
      </trkpt>
      <trkpt lat="41.62154" lon="9.21413">
        <ele>148</ele>
        <time>2008-05-30T12:48:20+02:00</time>
      </trkpt>
      <trkpt lat="41.62152" lon="9.21417">
        <ele>146</ele>
        <time>2008-05-30T12:48:21+02:00</time>
      </trkpt>
      <trkpt lat="41.62139" lon="9.21424">
        <ele>144</ele>
        <time>2008-05-30T12:48:25+02:00</time>
      </trkpt>
      <trkpt lat="41.62124" lon="9.21429">
        <ele>142</ele>
        <time>2008-05-30T12:48:29+02:00</time>
      </trkpt>
      <trkpt lat="41.62108" lon="9.21429">
        <ele>142</ele>
        <time>2008-05-30T12:48:34+02:00</time>
      </trkpt>
      <trkpt lat="41.62097" lon="9.21434">
        <ele>141</ele>
        <time>2008-05-30T12:48:38+02:00</time>
      </trkpt>
      <trkpt lat="41.62075" lon="9.21437">
        <ele>139</ele>
        <time>2008-05-30T12:48:45+02:00</time>
      </trkpt>
      <trkpt lat="41.62058" lon="9.21441">
        <ele>138</ele>
        <time>2008-05-30T12:48:50+02:00</time>
      </trkpt>
      <trkpt lat="41.62046" lon="9.21454">
        <ele>137</ele>
        <time>2008-05-30T12:48:55+02:00</time>
      </trkpt>
      <trkpt lat="41.62031" lon="9.21462">
        <ele>137</ele>
        <time>2008-05-30T12:48:59+02:00</time>
      </trkpt>
      <trkpt lat="41.62027" lon="9.21463">
        <ele>137</ele>
        <time>2008-05-30T12:49:00+02:00</time>
      </trkpt>
      <trkpt lat="41.62011" lon="9.21463">
        <ele>137</ele>
        <time>2008-05-30T12:49:05+02:00</time>
      </trkpt>
      <trkpt lat="41.61998" lon="9.21467">
        <ele>134</ele>
        <time>2008-05-30T12:49:10+02:00</time>
      </trkpt>
      <trkpt lat="41.61982" lon="9.21466">
        <ele>133</ele>
        <time>2008-05-30T12:49:16+02:00</time>
      </trkpt>
      <trkpt lat="41.61973" lon="9.21471">
        <ele>133</ele>
        <time>2008-05-30T12:49:22+02:00</time>
      </trkpt>
      <trkpt lat="41.61974" lon="9.21471">
        <ele>133</ele>
        <time>2008-05-30T12:49:27+02:00</time>
      </trkpt>
      <trkpt lat="41.61974" lon="9.21471">
        <ele>133</ele>
        <time>2008-05-30T12:49:36+02:00</time>
      </trkpt>
      <trkpt lat="41.61974" lon="9.21471">
        <ele>133</ele>
        <time>2008-05-30T12:49:49+02:00</time>
      </trkpt>
      <trkpt lat="41.61974" lon="9.21468">
        <ele>133</ele>
        <time>2008-05-30T12:50:02+02:00</time>
      </trkpt>
      <trkpt lat="41.61975" lon="9.21469">
        <ele>133</ele>
        <time>2008-05-30T12:50:12+02:00</time>
      </trkpt>
      <trkpt lat="41.61975" lon="9.21471">
        <ele>133</ele>
        <time>2008-05-30T12:50:18+02:00</time>
      </trkpt>
      <trkpt lat="41.61976" lon="9.21474">
        <ele>133</ele>
        <time>2008-05-30T12:50:26+02:00</time>
      </trkpt>
      <trkpt lat="41.61976" lon="9.21474">
        <ele>133</ele>
        <time>2008-05-30T12:50:32+02:00</time>
      </trkpt>
      <trkpt lat="41.61976" lon="9.21474">
        <ele>133</ele>
        <time>2008-05-30T12:51:02+02:00</time>
      </trkpt>
      <trkpt lat="41.61976" lon="9.21474">
        <ele>133</ele>
        <time>2008-05-30T12:51:11+02:00</time>
      </trkpt>
      <trkpt lat="41.61976" lon="9.21473">
        <ele>133</ele>
        <time>2008-05-30T12:51:23+02:00</time>
      </trkpt>
      <trkpt lat="41.61975" lon="9.21472">
        <ele>133</ele>
        <time>2008-05-30T12:51:32+02:00</time>
      </trkpt>
      <trkpt lat="41.61975" lon="9.21472">
        <ele>133</ele>
        <time>2008-05-30T12:51:41+02:00</time>
      </trkpt>
      <trkpt lat="41.61975" lon="9.21472">
        <ele>133</ele>
        <time>2008-05-30T12:51:46+02:00</time>
      </trkpt>
      <trkpt lat="41.61974" lon="9.21474">
        <ele>133</ele>
        <time>2008-05-30T12:51:51+02:00</time>
      </trkpt>
      <trkpt lat="41.61974" lon="9.21474">
        <ele>133</ele>
        <time>2008-05-30T12:51:58+02:00</time>
      </trkpt>
      <trkpt lat="41.61974" lon="9.21472">
        <ele>133</ele>
        <time>2008-05-30T12:52:04+02:00</time>
      </trkpt>
      <trkpt lat="41.61973" lon="9.21474">
        <ele>133</ele>
        <time>2008-05-30T12:52:23+02:00</time>
      </trkpt>
      <trkpt lat="41.61974" lon="9.21474">
        <ele>133</ele>
        <time>2008-05-30T12:52:29+02:00</time>
      </trkpt>
      <trkpt lat="41.61976" lon="9.21474">
        <ele>133</ele>
        <time>2008-05-30T12:52:35+02:00</time>
      </trkpt>
      <trkpt lat="41.61978" lon="9.21474">
        <ele>133</ele>
        <time>2008-05-30T12:52:41+02:00</time>
      </trkpt>
      <trkpt lat="41.61978" lon="9.21474">
        <ele>133</ele>
        <time>2008-05-30T12:52:55+02:00</time>
      </trkpt>
      <trkpt lat="41.61978" lon="9.21473">
        <ele>133</ele>
        <time>2008-05-30T12:53:06+02:00</time>
      </trkpt>
      <trkpt lat="41.61977" lon="9.21473">
        <ele>133</ele>
        <time>2008-05-30T12:53:26+02:00</time>
      </trkpt>
      <trkpt lat="41.61977" lon="9.21474">
        <ele>133</ele>
        <time>2008-05-30T12:53:31+02:00</time>
      </trkpt>
      <trkpt lat="41.61977" lon="9.21474">
        <ele>133</ele>
        <time>2008-05-30T12:53:44+02:00</time>
      </trkpt>
      <trkpt lat="41.61978" lon="9.21475">
        <ele>133</ele>
        <time>2008-05-30T12:53:51+02:00</time>
      </trkpt>
      <trkpt lat="41.61979" lon="9.21477">
        <ele>133</ele>
        <time>2008-05-30T12:54:20+02:00</time>
      </trkpt>
      <trkpt lat="41.61977" lon="9.21475">
        <ele>133</ele>
        <time>2008-05-30T12:54:26+02:00</time>
      </trkpt>
      <trkpt lat="41.61977" lon="9.21473">
        <ele>133</ele>
        <time>2008-05-30T12:54:31+02:00</time>
      </trkpt>
      <trkpt lat="41.61975" lon="9.21474">
        <ele>133</ele>
        <time>2008-05-30T12:54:36+02:00</time>
      </trkpt>
      <trkpt lat="41.61975" lon="9.21475">
        <ele>133</ele>
        <time>2008-05-30T12:54:42+02:00</time>
      </trkpt>
      <trkpt lat="41.61975" lon="9.21474">
        <ele>133</ele>
        <time>2008-05-30T12:54:49+02:00</time>
      </trkpt>
      <trkpt lat="41.61975" lon="9.21473">
        <ele>133</ele>
        <time>2008-05-30T12:54:53+02:00</time>
      </trkpt>
      <trkpt lat="41.61974" lon="9.21473">
        <ele>133</ele>
        <time>2008-05-30T12:54:59+02:00</time>
      </trkpt>
      <trkpt lat="41.61976" lon="9.21474">
        <ele>133</ele>
        <time>2008-05-30T12:55:08+02:00</time>
      </trkpt>
      <trkpt lat="41.61979" lon="9.21477">
        <ele>133</ele>
        <time>2008-05-30T12:55:11+02:00</time>
      </trkpt>
      <trkpt lat="41.61994" lon="9.21491">
        <ele>133</ele>
        <time>2008-05-30T12:55:20+02:00</time>
      </trkpt>
      <trkpt lat="41.62008" lon="9.21507">
        <ele>132</ele>
        <time>2008-05-30T12:55:24+02:00</time>
      </trkpt>
      <trkpt lat="41.62016" lon="9.21518">
        <ele>131</ele>
        <time>2008-05-30T12:55:26+02:00</time>
      </trkpt>
      <trkpt lat="41.62037" lon="9.21544">
        <ele>129</ele>
        <time>2008-05-30T12:55:30+02:00</time>
      </trkpt>
      <trkpt lat="41.62049" lon="9.21579">
        <ele>128</ele>
        <time>2008-05-30T12:55:34+02:00</time>
      </trkpt>
      <trkpt lat="41.62059" lon="9.21642">
        <ele>122</ele>
        <time>2008-05-30T12:55:40+02:00</time>
      </trkpt>
      <trkpt lat="41.6206" lon="9.21652">
        <ele>122</ele>
        <time>2008-05-30T12:55:41+02:00</time>
      </trkpt>
      <trkpt lat="41.62076" lon="9.21705">
        <ele>118</ele>
        <time>2008-05-30T12:55:47+02:00</time>
      </trkpt>
      <trkpt lat="41.62092" lon="9.21749">
        <ele>119</ele>
        <time>2008-05-30T12:55:52+02:00</time>
      </trkpt>
      <trkpt lat="41.62101" lon="9.21767">
        <ele>116</ele>
        <time>2008-05-30T12:55:54+02:00</time>
      </trkpt>
      <trkpt lat="41.62131" lon="9.21803">
        <ele>114</ele>
        <time>2008-05-30T12:55:59+02:00</time>
      </trkpt>
      <trkpt lat="41.62137" lon="9.21807">
        <ele>114</ele>
        <time>2008-05-30T12:56:00+02:00</time>
      </trkpt>
      <trkpt lat="41.62174" lon="9.21815">
        <ele>114</ele>
        <time>2008-05-30T12:56:05+02:00</time>
      </trkpt>
      <trkpt lat="41.62182" lon="9.21815">
        <ele>114</ele>
        <time>2008-05-30T12:56:06+02:00</time>
      </trkpt>
      <trkpt lat="41.62206" lon="9.21829">
        <ele>115</ele>
        <time>2008-05-30T12:56:10+02:00</time>
      </trkpt>
      <trkpt lat="41.62209" lon="9.21838">
        <ele>111</ele>
        <time>2008-05-30T12:56:11+02:00</time>
      </trkpt>
      <trkpt lat="41.62222" lon="9.2187">
        <ele>110</ele>
        <time>2008-05-30T12:56:14+02:00</time>
      </trkpt>
      <trkpt lat="41.62228" lon="9.21919">
        <ele>109</ele>
        <time>2008-05-30T12:56:18+02:00</time>
      </trkpt>
      <trkpt lat="41.62226" lon="9.2193">
        <ele>109</ele>
        <time>2008-05-30T12:56:19+02:00</time>
      </trkpt>
      <trkpt lat="41.62221" lon="9.2197">
        <ele>109</ele>
        <time>2008-05-30T12:56:24+02:00</time>
      </trkpt>
      <trkpt lat="41.6222" lon="9.21997">
        <ele>109</ele>
        <time>2008-05-30T12:56:29+02:00</time>
      </trkpt>
      <trkpt lat="41.62221" lon="9.22005">
        <ele>110</ele>
        <time>2008-05-30T12:56:31+02:00</time>
      </trkpt>
      <trkpt lat="41.62226" lon="9.22024">
        <ele>110</ele>
        <time>2008-05-30T12:56:37+02:00</time>
      </trkpt>
      <trkpt lat="41.62228" lon="9.2204">
        <ele>110</ele>
        <time>2008-05-30T12:56:42+02:00</time>
      </trkpt>
      <trkpt lat="41.62232" lon="9.22064">
        <ele>111</ele>
        <time>2008-05-30T12:56:49+02:00</time>
      </trkpt>
      <trkpt lat="41.62236" lon="9.22084">
        <ele>114</ele>
        <time>2008-05-30T12:56:55+02:00</time>
      </trkpt>
      <trkpt lat="41.62237" lon="9.22103">
        <ele>113</ele>
        <time>2008-05-30T12:57:01+02:00</time>
      </trkpt>
      <trkpt lat="41.6224" lon="9.22124">
        <ele>112</ele>
        <time>2008-05-30T12:57:07+02:00</time>
      </trkpt>
      <trkpt lat="41.62243" lon="9.22148">
        <ele>113</ele>
        <time>2008-05-30T12:57:13+02:00</time>
      </trkpt>
      <trkpt lat="41.6225" lon="9.22176">
        <ele>117</ele>
        <time>2008-05-30T12:57:19+02:00</time>
      </trkpt>
      <trkpt lat="41.62252" lon="9.22203">
        <ele>119</ele>
        <time>2008-05-30T12:57:24+02:00</time>
      </trkpt>
      <trkpt lat="41.6225" lon="9.22208">
        <ele>114</ele>
        <time>2008-05-30T12:57:25+02:00</time>
      </trkpt>
      <trkpt lat="41.62237" lon="9.2222">
        <ele>114</ele>
        <time>2008-05-30T12:57:29+02:00</time>
      </trkpt>
      <trkpt lat="41.62212" lon="9.2223">
        <ele>113</ele>
        <time>2008-05-30T12:57:36+02:00</time>
      </trkpt>
      <trkpt lat="41.62193" lon="9.22236">
        <ele>113</ele>
        <time>2008-05-30T12:57:40+02:00</time>
      </trkpt>
      <trkpt lat="41.62173" lon="9.22239">
        <ele>112</ele>
        <time>2008-05-30T12:57:44+02:00</time>
      </trkpt>
      <trkpt lat="41.62156" lon="9.22238">
        <ele>108</ele>
        <time>2008-05-30T12:57:47+02:00</time>
      </trkpt>
      <trkpt lat="41.6213" lon="9.22226">
        <ele>104</ele>
        <time>2008-05-30T12:57:52+02:00</time>
      </trkpt>
      <trkpt lat="41.62124" lon="9.22224">
        <ele>103</ele>
        <time>2008-05-30T12:57:53+02:00</time>
      </trkpt>
      <trkpt lat="41.621" lon="9.22231">
        <ele>102</ele>
        <time>2008-05-30T12:57:57+02:00</time>
      </trkpt>
      <trkpt lat="41.6208" lon="9.22251">
        <ele>98</ele>
        <time>2008-05-30T12:58:00+02:00</time>
      </trkpt>
      <trkpt lat="41.62067" lon="9.22288">
        <ele>94</ele>
        <time>2008-05-30T12:58:04+02:00</time>
      </trkpt>
      <trkpt lat="41.62059" lon="9.22342">
        <ele>93</ele>
        <time>2008-05-30T12:58:08+02:00</time>
      </trkpt>
      <trkpt lat="41.62044" lon="9.22406">
        <ele>90</ele>
        <time>2008-05-30T12:58:13+02:00</time>
      </trkpt>
      <trkpt lat="41.62029" lon="9.22441">
        <ele>86</ele>
        <time>2008-05-30T12:58:16+02:00</time>
      </trkpt>
      <trkpt lat="41.6199" lon="9.225">
        <ele>79</ele>
        <time>2008-05-30T12:58:22+02:00</time>
      </trkpt>
      <trkpt lat="41.61968" lon="9.22527">
        <ele>77</ele>
        <time>2008-05-30T12:58:25+02:00</time>
      </trkpt>
      <trkpt lat="41.61951" lon="9.22571">
        <ele>76</ele>
        <time>2008-05-30T12:58:29+02:00</time>
      </trkpt>
      <trkpt lat="41.61926" lon="9.22617">
        <ele>75</ele>
        <time>2008-05-30T12:58:34+02:00</time>
      </trkpt>
      <trkpt lat="41.6192" lon="9.22624">
        <ele>75</ele>
        <time>2008-05-30T12:58:35+02:00</time>
      </trkpt>
      <trkpt lat="41.61874" lon="9.22667">
        <ele>77</ele>
        <time>2008-05-30T12:58:42+02:00</time>
      </trkpt>
      <trkpt lat="41.61833" lon="9.22704">
        <ele>78</ele>
        <time>2008-05-30T12:58:48+02:00</time>
      </trkpt>
      <trkpt lat="41.61811" lon="9.22736">
        <ele>75</ele>
        <time>2008-05-30T12:58:52+02:00</time>
      </trkpt>
      <trkpt lat="41.61782" lon="9.22768">
        <ele>71</ele>
        <time>2008-05-30T12:58:56+02:00</time>
      </trkpt>
      <trkpt lat="41.61728" lon="9.22809">
        <ele>71</ele>
        <time>2008-05-30T12:59:03+02:00</time>
      </trkpt>
      <trkpt lat="41.61694" lon="9.22833">
        <ele>71</ele>
        <time>2008-05-30T12:59:08+02:00</time>
      </trkpt>
      <trkpt lat="41.61682" lon="9.22843">
        <ele>69</ele>
        <time>2008-05-30T12:59:10+02:00</time>
      </trkpt>
      <trkpt lat="41.61651" lon="9.22849">
        <ele>70</ele>
        <time>2008-05-30T12:59:15+02:00</time>
      </trkpt>
      <trkpt lat="41.61637" lon="9.22867">
        <ele>70</ele>
        <time>2008-05-30T12:59:18+02:00</time>
      </trkpt>
      <trkpt lat="41.61634" lon="9.22876">
        <ele>70</ele>
        <time>2008-05-30T12:59:19+02:00</time>
      </trkpt>
      <trkpt lat="41.61619" lon="9.22908">
        <ele>69</ele>
        <time>2008-05-30T12:59:23+02:00</time>
      </trkpt>
      <trkpt lat="41.61597" lon="9.22943">
        <ele>68</ele>
        <time>2008-05-30T12:59:28+02:00</time>
      </trkpt>
      <trkpt lat="41.61572" lon="9.22956">
        <ele>70</ele>
        <time>2008-05-30T12:59:32+02:00</time>
      </trkpt>
      <trkpt lat="41.61546" lon="9.22971">
        <ele>70</ele>
        <time>2008-05-30T12:59:37+02:00</time>
      </trkpt>
      <trkpt lat="41.61536" lon="9.22988">
        <ele>70</ele>
        <time>2008-05-30T12:59:40+02:00</time>
      </trkpt>
      <trkpt lat="41.61503" lon="9.23037">
        <ele>69</ele>
        <time>2008-05-30T12:59:48+02:00</time>
      </trkpt>
      <trkpt lat="41.61487" lon="9.23064">
        <ele>69</ele>
        <time>2008-05-30T12:59:52+02:00</time>
      </trkpt>
      <trkpt lat="41.6147" lon="9.23099">
        <ele>67</ele>
        <time>2008-05-30T12:59:57+02:00</time>
      </trkpt>
      <trkpt lat="41.61468" lon="9.23105">
        <ele>67</ele>
        <time>2008-05-30T12:59:58+02:00</time>
      </trkpt>
      <trkpt lat="41.6145" lon="9.23133">
        <ele>67</ele>
        <time>2008-05-30T13:00:03+02:00</time>
      </trkpt>
      <trkpt lat="41.61423" lon="9.23153">
        <ele>66</ele>
        <time>2008-05-30T13:00:09+02:00</time>
      </trkpt>
      <trkpt lat="41.61418" lon="9.23156">
        <ele>66</ele>
        <time>2008-05-30T13:00:10+02:00</time>
      </trkpt>
      <trkpt lat="41.61388" lon="9.23165">
        <ele>66</ele>
        <time>2008-05-30T13:00:16+02:00</time>
      </trkpt>
      <trkpt lat="41.61366" lon="9.23183">
        <ele>65</ele>
        <time>2008-05-30T13:00:21+02:00</time>
      </trkpt>
      <trkpt lat="41.61362" lon="9.23188">
        <ele>64</ele>
        <time>2008-05-30T13:00:22+02:00</time>
      </trkpt>
      <trkpt lat="41.61326" lon="9.23224">
        <ele>63</ele>
        <time>2008-05-30T13:00:30+02:00</time>
      </trkpt>
      <trkpt lat="41.61306" lon="9.23242">
        <ele>62</ele>
        <time>2008-05-30T13:00:35+02:00</time>
      </trkpt>
      <trkpt lat="41.61289" lon="9.2325">
        <ele>62</ele>
        <time>2008-05-30T13:00:40+02:00</time>
      </trkpt>
      <trkpt lat="41.61284" lon="9.23258">
        <ele>62</ele>
        <time>2008-05-30T13:00:43+02:00</time>
      </trkpt>
      <trkpt lat="41.61283" lon="9.23263">
        <ele>62</ele>
        <time>2008-05-30T13:00:46+02:00</time>
      </trkpt>
      <trkpt lat="41.61284" lon="9.23268">
        <ele>62</ele>
        <time>2008-05-30T13:00:52+02:00</time>
      </trkpt>
      <trkpt lat="41.61286" lon="9.23268">
        <ele>62</ele>
        <time>2008-05-30T13:01:12+02:00</time>
      </trkpt>
      <trkpt lat="41.61287" lon="9.23265">
        <ele>62</ele>
        <time>2008-05-30T13:01:40+02:00</time>
      </trkpt>
      <trkpt lat="41.61287" lon="9.23264">
        <ele>62</ele>
        <time>2008-05-30T13:02:00+02:00</time>
      </trkpt>
      <trkpt lat="41.61286" lon="9.23265">
        <ele>62</ele>
        <time>2008-05-30T13:02:07+02:00</time>
      </trkpt>
      <trkpt lat="41.61286" lon="9.23265">
        <ele>62</ele>
        <time>2008-05-30T13:02:15+02:00</time>
      </trkpt>
      <trkpt lat="41.61286" lon="9.23265">
        <ele>62</ele>
        <time>2008-05-30T13:02:27+02:00</time>
      </trkpt>
      <trkpt lat="41.61285" lon="9.23266">
        <ele>62</ele>
        <time>2008-05-30T13:02:35+02:00</time>
      </trkpt>
      <trkpt lat="41.61284" lon="9.23268">
        <ele>62</ele>
        <time>2008-05-30T13:02:53+02:00</time>
      </trkpt>
      <trkpt lat="41.61284" lon="9.23268">
        <ele>62</ele>
        <time>2008-05-30T13:03:01+02:00</time>
      </trkpt>
      <trkpt lat="41.61284" lon="9.23268">
        <ele>62</ele>
        <time>2008-05-30T13:03:13+02:00</time>
      </trkpt>
      <trkpt lat="41.61284" lon="9.23269">
        <ele>62</ele>
        <time>2008-05-30T13:03:24+02:00</time>
      </trkpt>
      <trkpt lat="41.61285" lon="9.2327">
        <ele>62</ele>
        <time>2008-05-30T13:03:36+02:00</time>
      </trkpt>
      <trkpt lat="41.61284" lon="9.2327">
        <ele>62</ele>
        <time>2008-05-30T13:03:56+02:00</time>
      </trkpt>
      <trkpt lat="41.61284" lon="9.23275">
        <ele>62</ele>
        <time>2008-05-30T13:04:02+02:00</time>
      </trkpt>
      <trkpt lat="41.61283" lon="9.23293">
        <ele>62</ele>
        <time>2008-05-30T13:04:07+02:00</time>
      </trkpt>
      <trkpt lat="41.61285" lon="9.23325">
        <ele>62</ele>
        <time>2008-05-30T13:04:13+02:00</time>
      </trkpt>
      <trkpt lat="41.6129" lon="9.23365">
        <ele>63</ele>
        <time>2008-05-30T13:04:20+02:00</time>
      </trkpt>
      <trkpt lat="41.61291" lon="9.23371">
        <ele>63</ele>
        <time>2008-05-30T13:04:21+02:00</time>
      </trkpt>
      <trkpt lat="41.61302" lon="9.2341">
        <ele>63</ele>
        <time>2008-05-30T13:04:27+02:00</time>
      </trkpt>
      <trkpt lat="41.61304" lon="9.2344">
        <ele>66</ele>
        <time>2008-05-30T13:04:31+02:00</time>
      </trkpt>
      <trkpt lat="41.61301" lon="9.23457">
        <ele>67</ele>
        <time>2008-05-30T13:04:34+02:00</time>
      </trkpt>
      <trkpt lat="41.61291" lon="9.23465">
        <ele>68</ele>
        <time>2008-05-30T13:04:38+02:00</time>
      </trkpt>
      <trkpt lat="41.61285" lon="9.23455">
        <ele>68</ele>
        <time>2008-05-30T13:04:41+02:00</time>
      </trkpt>
      <trkpt lat="41.61283" lon="9.2345">
        <ele>67</ele>
        <time>2008-05-30T13:04:42+02:00</time>
      </trkpt>
      <trkpt lat="41.61271" lon="9.23424">
        <ele>67</ele>
        <time>2008-05-30T13:04:48+02:00</time>
      </trkpt>
      <trkpt lat="41.61253" lon="9.23402">
        <ele>65</ele>
        <time>2008-05-30T13:04:54+02:00</time>
      </trkpt>
      <trkpt lat="41.61243" lon="9.23393">
        <ele>64</ele>
        <time>2008-05-30T13:04:57+02:00</time>
      </trkpt>
      <trkpt lat="41.61217" lon="9.23372">
        <ele>63</ele>
        <time>2008-05-30T13:05:04+02:00</time>
      </trkpt>
      <trkpt lat="41.61198" lon="9.23365">
        <ele>63</ele>
        <time>2008-05-30T13:05:08+02:00</time>
      </trkpt>
      <trkpt lat="41.61158" lon="9.2337">
        <ele>63</ele>
        <time>2008-05-30T13:05:13+02:00</time>
      </trkpt>
      <trkpt lat="41.61132" lon="9.23371">
        <ele>63</ele>
        <time>2008-05-30T13:05:16+02:00</time>
      </trkpt>
      <trkpt lat="41.61093" lon="9.23355">
        <ele>62</ele>
        <time>2008-05-30T13:05:21+02:00</time>
      </trkpt>
      <trkpt lat="41.61086" lon="9.23351">
        <ele>62</ele>
        <time>2008-05-30T13:05:22+02:00</time>
      </trkpt>
      <trkpt lat="41.61058" lon="9.23355">
        <ele>61</ele>
        <time>2008-05-30T13:05:26+02:00</time>
      </trkpt>
      <trkpt lat="41.61051" lon="9.23358">
        <ele>61</ele>
        <time>2008-05-30T13:05:27+02:00</time>
      </trkpt>
      <trkpt lat="41.60997" lon="9.23377">
        <ele>59</ele>
        <time>2008-05-30T13:05:34+02:00</time>
      </trkpt>
      <trkpt lat="41.60952" lon="9.23395">
        <ele>58</ele>
        <time>2008-05-30T13:05:40+02:00</time>
      </trkpt>
      <trkpt lat="41.60933" lon="9.23408">
        <ele>57</ele>
        <time>2008-05-30T13:05:43+02:00</time>
      </trkpt>
      <trkpt lat="41.60907" lon="9.23441">
        <ele>57</ele>
        <time>2008-05-30T13:05:48+02:00</time>
      </trkpt>
      <trkpt lat="41.60893" lon="9.2346">
        <ele>57</ele>
        <time>2008-05-30T13:05:51+02:00</time>
      </trkpt>
      <trkpt lat="41.60874" lon="9.23474">
        <ele>57</ele>
        <time>2008-05-30T13:05:54+02:00</time>
      </trkpt>
      <trkpt lat="41.60825" lon="9.23499">
        <ele>55</ele>
        <time>2008-05-30T13:06:01+02:00</time>
      </trkpt>
      <trkpt lat="41.60797" lon="9.23514">
        <ele>54</ele>
        <time>2008-05-30T13:06:05+02:00</time>
      </trkpt>
      <trkpt lat="41.60749" lon="9.23543">
        <ele>53</ele>
        <time>2008-05-30T13:06:12+02:00</time>
      </trkpt>
      <trkpt lat="41.60693" lon="9.2357">
        <ele>52</ele>
        <time>2008-05-30T13:06:20+02:00</time>
      </trkpt>
      <trkpt lat="41.60652" lon="9.23586">
        <ele>52</ele>
        <time>2008-05-30T13:06:26+02:00</time>
      </trkpt>
      <trkpt lat="41.60616" lon="9.23587">
        <ele>51</ele>
        <time>2008-05-30T13:06:31+02:00</time>
      </trkpt>
      <trkpt lat="41.60565" lon="9.23592">
        <ele>50</ele>
        <time>2008-05-30T13:06:38+02:00</time>
      </trkpt>
      <trkpt lat="41.60543" lon="9.23614">
        <ele>50</ele>
        <time>2008-05-30T13:06:42+02:00</time>
      </trkpt>
      <trkpt lat="41.60541" lon="9.23623">
        <ele>50</ele>
        <time>2008-05-30T13:06:43+02:00</time>
      </trkpt>
      <trkpt lat="41.60535" lon="9.23642">
        <ele>50</ele>
        <time>2008-05-30T13:06:45+02:00</time>
      </trkpt>
      <trkpt lat="41.60511" lon="9.23679">
        <ele>50</ele>
        <time>2008-05-30T13:06:50+02:00</time>
      </trkpt>
      <trkpt lat="41.60494" lon="9.23697">
        <ele>50</ele>
        <time>2008-05-30T13:06:53+02:00</time>
      </trkpt>
      <trkpt lat="41.60464" lon="9.23739">
        <ele>50</ele>
        <time>2008-05-30T13:06:59+02:00</time>
      </trkpt>
      <trkpt lat="41.60441" lon="9.23753">
        <ele>53</ele>
        <time>2008-05-30T13:07:03+02:00</time>
      </trkpt>
      <trkpt lat="41.60423" lon="9.23749">
        <ele>52</ele>
        <time>2008-05-30T13:07:06+02:00</time>
      </trkpt>
      <trkpt lat="41.60376" lon="9.23745">
        <ele>51</ele>
        <time>2008-05-30T13:07:13+02:00</time>
      </trkpt>
      <trkpt lat="41.60356" lon="9.23748">
        <ele>51</ele>
        <time>2008-05-30T13:07:16+02:00</time>
      </trkpt>
      <trkpt lat="41.60333" lon="9.2375">
        <ele>53</ele>
        <time>2008-05-30T13:07:19+02:00</time>
      </trkpt>
      <trkpt lat="41.603" lon="9.23737">
        <ele>52</ele>
        <time>2008-05-30T13:07:24+02:00</time>
      </trkpt>
      <trkpt lat="41.60285" lon="9.23725">
        <ele>52</ele>
        <time>2008-05-30T13:07:27+02:00</time>
      </trkpt>
      <trkpt lat="41.60279" lon="9.23732">
        <ele>53</ele>
        <time>2008-05-30T13:07:29+02:00</time>
      </trkpt>
      <trkpt lat="41.60279" lon="9.23738">
        <ele>53</ele>
        <time>2008-05-30T13:07:30+02:00</time>
      </trkpt>
      <trkpt lat="41.60282" lon="9.2375">
        <ele>53</ele>
        <time>2008-05-30T13:07:32+02:00</time>
      </trkpt>
      <trkpt lat="41.60288" lon="9.23795">
        <ele>56</ele>
        <time>2008-05-30T13:07:41+02:00</time>
      </trkpt>
      <trkpt lat="41.60283" lon="9.23813">
        <ele>57</ele>
        <time>2008-05-30T13:07:45+02:00</time>
      </trkpt>
      <trkpt lat="41.60267" lon="9.23827">
        <ele>57</ele>
        <time>2008-05-30T13:07:50+02:00</time>
      </trkpt>
      <trkpt lat="41.60245" lon="9.23848">
        <ele>60</ele>
        <time>2008-05-30T13:07:56+02:00</time>
      </trkpt>
      <trkpt lat="41.60217" lon="9.23873">
        <ele>61</ele>
        <time>2008-05-30T13:08:03+02:00</time>
      </trkpt>
      <trkpt lat="41.60197" lon="9.23906">
        <ele>62</ele>
        <time>2008-05-30T13:08:10+02:00</time>
      </trkpt>
      <trkpt lat="41.60191" lon="9.23913">
        <ele>62</ele>
        <time>2008-05-30T13:08:12+02:00</time>
      </trkpt>
      <trkpt lat="41.60181" lon="9.23923">
        <ele>64</ele>
        <time>2008-05-30T13:08:16+02:00</time>
      </trkpt>
      <trkpt lat="41.60163" lon="9.23936">
        <ele>68</ele>
        <time>2008-05-30T13:08:23+02:00</time>
      </trkpt>
      <trkpt lat="41.6015" lon="9.23946">
        <ele>69</ele>
        <time>2008-05-30T13:08:28+02:00</time>
      </trkpt>
      <trkpt lat="41.60135" lon="9.23956">
        <ele>70</ele>
        <time>2008-05-30T13:08:34+02:00</time>
      </trkpt>
      <trkpt lat="41.60128" lon="9.2397">
        <ele>71</ele>
        <time>2008-05-30T13:08:38+02:00</time>
      </trkpt>
      <trkpt lat="41.60127" lon="9.23999">
        <ele>71</ele>
        <time>2008-05-30T13:08:44+02:00</time>
      </trkpt>
      <trkpt lat="41.6012" lon="9.24025">
        <ele>72</ele>
        <time>2008-05-30T13:08:51+02:00</time>
      </trkpt>
      <trkpt lat="41.60108" lon="9.24043">
        <ele>72</ele>
        <time>2008-05-30T13:08:58+02:00</time>
      </trkpt>
      <trkpt lat="41.60095" lon="9.24066">
        <ele>72</ele>
        <time>2008-05-30T13:09:06+02:00</time>
      </trkpt>
      <trkpt lat="41.60084" lon="9.24086">
        <ele>73</ele>
        <time>2008-05-30T13:09:12+02:00</time>
      </trkpt>
      <trkpt lat="41.60071" lon="9.24117">
        <ele>72</ele>
        <time>2008-05-30T13:09:19+02:00</time>
      </trkpt>
      <trkpt lat="41.60066" lon="9.24147">
        <ele>72</ele>
        <time>2008-05-30T13:09:25+02:00</time>
      </trkpt>
      <trkpt lat="41.60066" lon="9.24166">
        <ele>71</ele>
        <time>2008-05-30T13:09:30+02:00</time>
      </trkpt>
      <trkpt lat="41.60066" lon="9.24168">
        <ele>70</ele>
        <time>2008-05-30T13:09:37+02:00</time>
      </trkpt>
      <trkpt lat="41.60065" lon="9.2417">
        <ele>70</ele>
        <time>2008-05-30T13:09:42+02:00</time>
      </trkpt>
      <trkpt lat="41.60065" lon="9.24172">
        <ele>70</ele>
        <time>2008-05-30T13:09:43+02:00</time>
      </trkpt>
      <trkpt lat="41.60063" lon="9.2419">
        <ele>69</ele>
        <time>2008-05-30T13:09:49+02:00</time>
      </trkpt>
      <trkpt lat="41.60063" lon="9.24211">
        <ele>69</ele>
        <time>2008-05-30T13:09:53+02:00</time>
      </trkpt>
      <trkpt lat="41.60064" lon="9.24239">
        <ele>69</ele>
        <time>2008-05-30T13:09:57+02:00</time>
      </trkpt>
      <trkpt lat="41.60061" lon="9.24262">
        <ele>67</ele>
        <time>2008-05-30T13:10:00+02:00</time>
      </trkpt>
      <trkpt lat="41.60068" lon="9.24299">
        <ele>67</ele>
        <time>2008-05-30T13:10:04+02:00</time>
      </trkpt>
      <trkpt lat="41.60059" lon="9.24335">
        <ele>67</ele>
        <time>2008-05-30T13:10:07+02:00</time>
      </trkpt>
      <trkpt lat="41.60036" lon="9.24365">
        <ele>65</ele>
        <time>2008-05-30T13:10:10+02:00</time>
      </trkpt>
      <trkpt lat="41.59971" lon="9.24435">
        <ele>56</ele>
        <time>2008-05-30T13:10:17+02:00</time>
      </trkpt>
      <trkpt lat="41.59932" lon="9.24481">
        <ele>53</ele>
        <time>2008-05-30T13:10:22+02:00</time>
      </trkpt>
      <trkpt lat="41.59881" lon="9.24525">
        <ele>46</ele>
        <time>2008-05-30T13:10:28+02:00</time>
      </trkpt>
      <trkpt lat="41.59815" lon="9.24569">
        <ele>41</ele>
        <time>2008-05-30T13:10:35+02:00</time>
      </trkpt>
      <trkpt lat="41.59768" lon="9.24592">
        <ele>38</ele>
        <time>2008-05-30T13:10:40+02:00</time>
      </trkpt>
      <trkpt lat="41.5973" lon="9.246">
        <ele>36</ele>
        <time>2008-05-30T13:10:44+02:00</time>
      </trkpt>
      <trkpt lat="41.59703" lon="9.24611">
        <ele>35</ele>
        <time>2008-05-30T13:10:47+02:00</time>
      </trkpt>
      <trkpt lat="41.59677" lon="9.24631">
        <ele>35</ele>
        <time>2008-05-30T13:10:51+02:00</time>
      </trkpt>
      <trkpt lat="41.59668" lon="9.24638">
        <ele>35</ele>
        <time>2008-05-30T13:10:54+02:00</time>
      </trkpt>
      <trkpt lat="41.59664" lon="9.24646">
        <ele>34</ele>
        <time>2008-05-30T13:10:59+02:00</time>
      </trkpt>
      <trkpt lat="41.59665" lon="9.24646">
        <ele>34</ele>
        <time>2008-05-30T13:11:00+02:00</time>
      </trkpt>
      <trkpt lat="41.59667" lon="9.24644">
        <ele>35</ele>
        <time>2008-05-30T13:11:02+02:00</time>
      </trkpt>
      <trkpt lat="41.59665" lon="9.24643">
        <ele>34</ele>
        <time>2008-05-30T13:11:07+02:00</time>
      </trkpt>
      <trkpt lat="41.59658" lon="9.24644">
        <ele>34</ele>
        <time>2008-05-30T13:11:13+02:00</time>
      </trkpt>
      <trkpt lat="41.59658" lon="9.24644">
        <ele>34</ele>
        <time>2008-05-30T13:11:21+02:00</time>
      </trkpt>
      <trkpt lat="41.59658" lon="9.24645">
        <ele>34</ele>
        <time>2008-05-30T13:11:31+02:00</time>
      </trkpt>
      <trkpt lat="41.59658" lon="9.24646">
        <ele>34</ele>
        <time>2008-05-30T13:11:46+02:00</time>
      </trkpt>
      <trkpt lat="41.59658" lon="9.24646">
        <ele>34</ele>
        <time>2008-05-30T13:12:12+02:00</time>
      </trkpt>
      <trkpt lat="41.59658" lon="9.24646">
        <ele>34</ele>
        <time>2008-05-30T13:12:35+02:00</time>
      </trkpt>
      <trkpt lat="41.59648" lon="9.24654">
        <ele>34</ele>
        <time>2008-05-30T13:12:40+02:00</time>
      </trkpt>
      <trkpt lat="41.59628" lon="9.24677">
        <ele>33</ele>
        <time>2008-05-30T13:12:46+02:00</time>
      </trkpt>
      <trkpt lat="41.59612" lon="9.24695">
        <ele>33</ele>
        <time>2008-05-30T13:12:50+02:00</time>
      </trkpt>
      <trkpt lat="41.59583" lon="9.24719">
        <ele>33</ele>
        <time>2008-05-30T13:12:56+02:00</time>
      </trkpt>
      <trkpt lat="41.59559" lon="9.24741">
        <ele>33</ele>
        <time>2008-05-30T13:13:01+02:00</time>
      </trkpt>
      <trkpt lat="41.59544" lon="9.24766">
        <ele>33</ele>
        <time>2008-05-30T13:13:05+02:00</time>
      </trkpt>
      <trkpt lat="41.59524" lon="9.24808">
        <ele>33</ele>
        <time>2008-05-30T13:13:11+02:00</time>
      </trkpt>
      <trkpt lat="41.59505" lon="9.2485">
        <ele>33</ele>
        <time>2008-05-30T13:13:17+02:00</time>
      </trkpt>
      <trkpt lat="41.59497" lon="9.24874">
        <ele>32</ele>
        <time>2008-05-30T13:13:20+02:00</time>
      </trkpt>
      <trkpt lat="41.59479" lon="9.24936">
        <ele>32</ele>
        <time>2008-05-30T13:13:28+02:00</time>
      </trkpt>
      <trkpt lat="41.59472" lon="9.24971">
        <ele>32</ele>
        <time>2008-05-30T13:13:32+02:00</time>
      </trkpt>
      <trkpt lat="41.5947" lon="9.25034">
        <ele>32</ele>
        <time>2008-05-30T13:13:39+02:00</time>
      </trkpt>
      <trkpt lat="41.59475" lon="9.25118">
        <ele>30</ele>
        <time>2008-05-30T13:13:48+02:00</time>
      </trkpt>
      <trkpt lat="41.59484" lon="9.25166">
        <ele>30</ele>
        <time>2008-05-30T13:13:53+02:00</time>
      </trkpt>
      <trkpt lat="41.5949" lon="9.25243">
        <ele>27</ele>
        <time>2008-05-30T13:14:01+02:00</time>
      </trkpt>
      <trkpt lat="41.5949" lon="9.25308">
        <ele>26</ele>
        <time>2008-05-30T13:14:08+02:00</time>
      </trkpt>
      <trkpt lat="41.59481" lon="9.25383">
        <ele>25</ele>
        <time>2008-05-30T13:14:16+02:00</time>
      </trkpt>
      <trkpt lat="41.59458" lon="9.25466">
        <ele>23</ele>
        <time>2008-05-30T13:14:25+02:00</time>
      </trkpt>
      <trkpt lat="41.59455" lon="9.25475">
        <ele>23</ele>
        <time>2008-05-30T13:14:26+02:00</time>
      </trkpt>
      <trkpt lat="41.59448" lon="9.25513">
        <ele>22</ele>
        <time>2008-05-30T13:14:30+02:00</time>
      </trkpt>
      <trkpt lat="41.59452" lon="9.25584">
        <ele>21</ele>
        <time>2008-05-30T13:14:37+02:00</time>
      </trkpt>
      <trkpt lat="41.59461" lon="9.25688">
        <ele>21</ele>
        <time>2008-05-30T13:14:47+02:00</time>
      </trkpt>
      <trkpt lat="41.59464" lon="9.25762">
        <ele>21</ele>
        <time>2008-05-30T13:14:54+02:00</time>
      </trkpt>
      <trkpt lat="41.59464" lon="9.25823">
        <ele>21</ele>
        <time>2008-05-30T13:15:00+02:00</time>
      </trkpt>
      <trkpt lat="41.59465" lon="9.25833">
        <ele>21</ele>
        <time>2008-05-30T13:15:01+02:00</time>
      </trkpt>
      <trkpt lat="41.59484" lon="9.25886">
        <ele>21</ele>
        <time>2008-05-30T13:15:07+02:00</time>
      </trkpt>
      <trkpt lat="41.59507" lon="9.25938">
        <ele>19</ele>
        <time>2008-05-30T13:15:13+02:00</time>
      </trkpt>
      <trkpt lat="41.5954" lon="9.26021">
        <ele>19</ele>
        <time>2008-05-30T13:15:22+02:00</time>
      </trkpt>
      <trkpt lat="41.59571" lon="9.26097">
        <ele>18</ele>
        <time>2008-05-30T13:15:30+02:00</time>
      </trkpt>
      <trkpt lat="41.596" lon="9.26152">
        <ele>17</ele>
        <time>2008-05-30T13:15:36+02:00</time>
      </trkpt>
      <trkpt lat="41.59642" lon="9.26209">
        <ele>16</ele>
        <time>2008-05-30T13:15:43+02:00</time>
      </trkpt>
      <trkpt lat="41.59662" lon="9.26232">
        <ele>16</ele>
        <time>2008-05-30T13:15:46+02:00</time>
      </trkpt>
      <trkpt lat="41.59684" lon="9.26281">
        <ele>16</ele>
        <time>2008-05-30T13:15:51+02:00</time>
      </trkpt>
      <trkpt lat="41.59709" lon="9.26341">
        <ele>15</ele>
        <time>2008-05-30T13:15:57+02:00</time>
      </trkpt>
      <trkpt lat="41.59745" lon="9.26387">
        <ele>15</ele>
        <time>2008-05-30T13:16:03+02:00</time>
      </trkpt>
      <trkpt lat="41.59778" lon="9.2642">
        <ele>14</ele>
        <time>2008-05-30T13:16:08+02:00</time>
      </trkpt>
      <trkpt lat="41.59797" lon="9.26465">
        <ele>13</ele>
        <time>2008-05-30T13:16:13+02:00</time>
      </trkpt>
      <trkpt lat="41.59798" lon="9.26475">
        <ele>13</ele>
        <time>2008-05-30T13:16:14+02:00</time>
      </trkpt>
      <trkpt lat="41.59798" lon="9.26561">
        <ele>13</ele>
        <time>2008-05-30T13:16:22+02:00</time>
      </trkpt>
      <trkpt lat="41.59798" lon="9.26594">
        <ele>13</ele>
        <time>2008-05-30T13:16:25+02:00</time>
      </trkpt>
      <trkpt lat="41.59808" lon="9.26646">
        <ele>13</ele>
        <time>2008-05-30T13:16:30+02:00</time>
      </trkpt>
      <trkpt lat="41.59808" lon="9.26672">
        <ele>14</ele>
        <time>2008-05-30T13:16:33+02:00</time>
      </trkpt>
      <trkpt lat="41.59805" lon="9.2668">
        <ele>13</ele>
        <time>2008-05-30T13:16:34+02:00</time>
      </trkpt>
      <trkpt lat="41.59807" lon="9.26712">
        <ele>13</ele>
        <time>2008-05-30T13:16:38+02:00</time>
      </trkpt>
      <trkpt lat="41.59819" lon="9.26718">
        <ele>13</ele>
        <time>2008-05-30T13:16:40+02:00</time>
      </trkpt>
      <trkpt lat="41.59846" lon="9.26724">
        <ele>13</ele>
        <time>2008-05-30T13:16:44+02:00</time>
      </trkpt>
      <trkpt lat="41.59905" lon="9.26751">
        <ele>12</ele>
        <time>2008-05-30T13:16:52+02:00</time>
      </trkpt>
      <trkpt lat="41.59966" lon="9.26776">
        <ele>12</ele>
        <time>2008-05-30T13:17:00+02:00</time>
      </trkpt>
      <trkpt lat="41.60023" lon="9.26803">
        <ele>11</ele>
        <time>2008-05-30T13:17:08+02:00</time>
      </trkpt>
      <trkpt lat="41.6011" lon="9.26846">
        <ele>9</ele>
        <time>2008-05-30T13:17:20+02:00</time>
      </trkpt>
      <trkpt lat="41.60165" lon="9.26877">
        <ele>9</ele>
        <time>2008-05-30T13:17:28+02:00</time>
      </trkpt>
      <trkpt lat="41.60176" lon="9.26887">
        <ele>9</ele>
        <time>2008-05-30T13:17:30+02:00</time>
      </trkpt>
      <trkpt lat="41.60183" lon="9.26917">
        <ele>9</ele>
        <time>2008-05-30T13:17:34+02:00</time>
      </trkpt>
      <trkpt lat="41.60176" lon="9.26931">
        <ele>9</ele>
        <time>2008-05-30T13:17:36+02:00</time>
      </trkpt>
      <trkpt lat="41.60127" lon="9.26998">
        <ele>12</ele>
        <time>2008-05-30T13:17:46+02:00</time>
      </trkpt>
      <trkpt lat="41.60117" lon="9.27012">
        <ele>12</ele>
        <time>2008-05-30T13:17:48+02:00</time>
      </trkpt>
      <trkpt lat="41.60084" lon="9.27057">
        <ele>12</ele>
        <time>2008-05-30T13:17:55+02:00</time>
      </trkpt>
      <trkpt lat="41.60072" lon="9.27074">
        <ele>13</ele>
        <time>2008-05-30T13:17:58+02:00</time>
      </trkpt>
      <trkpt lat="41.60053" lon="9.271">
        <ele>13</ele>
        <time>2008-05-30T13:18:04+02:00</time>
      </trkpt>
      <trkpt lat="41.60048" lon="9.27108">
        <ele>13</ele>
        <time>2008-05-30T13:18:07+02:00</time>
      </trkpt>
      <trkpt lat="41.60035" lon="9.27127">
        <ele>13</ele>
        <time>2008-05-30T13:18:14+02:00</time>
      </trkpt>
      <trkpt lat="41.60019" lon="9.27149">
        <ele>13</ele>
        <time>2008-05-30T13:18:22+02:00</time>
      </trkpt>
      <trkpt lat="41.60005" lon="9.2717">
        <ele>13</ele>
        <time>2008-05-30T13:18:29+02:00</time>
      </trkpt>
      <trkpt lat="41.59979" lon="9.27207">
        <ele>12</ele>
        <time>2008-05-30T13:18:39+02:00</time>
      </trkpt>
      <trkpt lat="41.59958" lon="9.27233">
        <ele>12</ele>
        <time>2008-05-30T13:18:44+02:00</time>
      </trkpt>
      <trkpt lat="41.59921" lon="9.27286">
        <ele>10</ele>
        <time>2008-05-30T13:18:52+02:00</time>
      </trkpt>
      <trkpt lat="41.59883" lon="9.27341">
        <ele>8</ele>
        <time>2008-05-30T13:19:00+02:00</time>
      </trkpt>
      <trkpt lat="41.59855" lon="9.27382">
        <ele>8</ele>
        <time>2008-05-30T13:19:06+02:00</time>
      </trkpt>
      <trkpt lat="41.59842" lon="9.27402">
        <ele>7</ele>
        <time>2008-05-30T13:19:10+02:00</time>
      </trkpt>
      <trkpt lat="41.59837" lon="9.27409">
        <ele>7</ele>
        <time>2008-05-30T13:19:12+02:00</time>
      </trkpt>
      <trkpt lat="41.5983" lon="9.27412">
        <ele>7</ele>
        <time>2008-05-30T13:19:16+02:00</time>
      </trkpt>
      <trkpt lat="41.59829" lon="9.27412">
        <ele>7</ele>
        <time>2008-05-30T13:19:22+02:00</time>
      </trkpt>
      <trkpt lat="41.59828" lon="9.27409">
        <ele>7</ele>
        <time>2008-05-30T13:19:28+02:00</time>
      </trkpt>
      <trkpt lat="41.59829" lon="9.27407">
        <ele>7</ele>
        <time>2008-05-30T13:19:34+02:00</time>
      </trkpt>
      <trkpt lat="41.59828" lon="9.27406">
        <ele>7</ele>
        <time>2008-05-30T13:19:41+02:00</time>
      </trkpt>
      <trkpt lat="41.59828" lon="9.27405">
        <ele>7</ele>
        <time>2008-05-30T13:19:50+02:00</time>
      </trkpt>
      <trkpt lat="41.59827" lon="9.27404">
        <ele>7</ele>
        <time>2008-05-30T13:20:07+02:00</time>
      </trkpt>
      <trkpt lat="41.59827" lon="9.27403">
        <ele>7</ele>
        <time>2008-05-30T13:20:27+02:00</time>
      </trkpt>
      <trkpt lat="41.59827" lon="9.27404">
        <ele>7</ele>
        <time>2008-05-30T13:20:37+02:00</time>
      </trkpt>
      <trkpt lat="41.59828" lon="9.27402">
        <ele>7</ele>
        <time>2008-05-30T13:20:50+02:00</time>
      </trkpt>
      <trkpt lat="41.59828" lon="9.27403">
        <ele>7</ele>
        <time>2008-05-30T13:21:02+02:00</time>
      </trkpt>
      <trkpt lat="41.59828" lon="9.27403">
        <ele>7</ele>
        <time>2008-05-30T13:21:08+02:00</time>
      </trkpt>
      <trkpt lat="41.59827" lon="9.27404">
        <ele>7</ele>
        <time>2008-05-30T13:21:14+02:00</time>
      </trkpt>
      <trkpt lat="41.59826" lon="9.27405">
        <ele>7</ele>
        <time>2008-05-30T13:21:22+02:00</time>
      </trkpt>
      <trkpt lat="41.59827" lon="9.27405">
        <ele>7</ele>
        <time>2008-05-30T13:21:30+02:00</time>
      </trkpt>
      <trkpt lat="41.59828" lon="9.27405">
        <ele>7</ele>
        <time>2008-05-30T13:21:37+02:00</time>
      </trkpt>
      <trkpt lat="41.59829" lon="9.27406">
        <ele>7</ele>
        <time>2008-05-30T13:21:48+02:00</time>
      </trkpt>
      <trkpt lat="41.59828" lon="9.27406">
        <ele>7</ele>
        <time>2008-05-30T13:21:58+02:00</time>
      </trkpt>
      <trkpt lat="41.59828" lon="9.27406">
        <ele>7</ele>
        <time>2008-05-30T13:22:10+02:00</time>
      </trkpt>
      <trkpt lat="41.59828" lon="9.27406">
        <ele>7</ele>
        <time>2008-05-30T13:22:29+02:00</time>
      </trkpt>
      <trkpt lat="41.59828" lon="9.27406">
        <ele>7</ele>
        <time>2008-05-30T13:22:37+02:00</time>
      </trkpt>
      <trkpt lat="41.59829" lon="9.27406">
        <ele>7</ele>
        <time>2008-05-30T13:22:53+02:00</time>
      </trkpt>
      <trkpt lat="41.59828" lon="9.27406">
        <ele>7</ele>
        <time>2008-05-30T13:23:03+02:00</time>
      </trkpt>
      <trkpt lat="41.59827" lon="9.27406">
        <ele>7</ele>
        <time>2008-05-30T13:23:20+02:00</time>
      </trkpt>
      <trkpt lat="41.59827" lon="9.27407">
        <ele>7</ele>
        <time>2008-05-30T13:23:45+02:00</time>
      </trkpt>
      <trkpt lat="41.59826" lon="9.27408">
        <ele>7</ele>
        <time>2008-05-30T13:24:11+02:00</time>
      </trkpt>
      <trkpt lat="41.59828" lon="9.27408">
        <ele>7</ele>
        <time>2008-05-30T13:24:49+02:00</time>
      </trkpt>
      <trkpt lat="41.5983" lon="9.27406">
        <ele>7</ele>
        <time>2008-05-30T13:25:37+02:00</time>
      </trkpt>
      <trkpt lat="41.59829" lon="9.27406">
        <ele>7</ele>
        <time>2008-05-30T13:25:44+02:00</time>
      </trkpt>
      <trkpt lat="41.59829" lon="9.27406">
        <ele>7</ele>
        <time>2008-05-30T13:25:55+02:00</time>
      </trkpt>
      <trkpt lat="41.59822" lon="9.27426">
        <ele>7</ele>
        <time>2008-05-30T14:14:52+02:00</time>
      </trkpt>
      <trkpt lat="41.59812" lon="9.2744">
        <ele>7</ele>
        <time>2008-05-30T14:14:56+02:00</time>
      </trkpt>
      <trkpt lat="41.59807" lon="9.27446">
        <ele>7</ele>
        <time>2008-05-30T14:14:58+02:00</time>
      </trkpt>
      <trkpt lat="41.5979" lon="9.27469">
        <ele>7</ele>
        <time>2008-05-30T14:15:04+02:00</time>
      </trkpt>
      <trkpt lat="41.59772" lon="9.27495">
        <ele>6</ele>
        <time>2008-05-30T14:15:11+02:00</time>
      </trkpt>
      <trkpt lat="41.5976" lon="9.27508">
        <ele>6</ele>
        <time>2008-05-30T14:15:16+02:00</time>
      </trkpt>
      <trkpt lat="41.59744" lon="9.27512">
        <ele>5</ele>
        <time>2008-05-30T14:15:20+02:00</time>
      </trkpt>
      <trkpt lat="41.59722" lon="9.27508">
        <ele>5</ele>
        <time>2008-05-30T14:15:25+02:00</time>
      </trkpt>
      <trkpt lat="41.5969" lon="9.27501">
        <ele>5</ele>
        <time>2008-05-30T14:15:32+02:00</time>
      </trkpt>
      <trkpt lat="41.59645" lon="9.27489">
        <ele>5</ele>
        <time>2008-05-30T14:15:40+02:00</time>
      </trkpt>
      <trkpt lat="41.59602" lon="9.27476">
        <ele>5</ele>
        <time>2008-05-30T14:15:48+02:00</time>
      </trkpt>
      <trkpt lat="41.59573" lon="9.27465">
        <ele>6</ele>
        <time>2008-05-30T14:15:54+02:00</time>
      </trkpt>
      <trkpt lat="41.59545" lon="9.27451">
        <ele>6</ele>
        <time>2008-05-30T14:16:00+02:00</time>
      </trkpt>
      <trkpt lat="41.59541" lon="9.27447">
        <ele>7</ele>
        <time>2008-05-30T14:16:01+02:00</time>
      </trkpt>
      <trkpt lat="41.59526" lon="9.27451">
        <ele>7</ele>
        <time>2008-05-30T14:16:05+02:00</time>
      </trkpt>
      <trkpt lat="41.59519" lon="9.27472">
        <ele>7</ele>
        <time>2008-05-30T14:16:09+02:00</time>
      </trkpt>
      <trkpt lat="41.59497" lon="9.27533">
        <ele>12</ele>
        <time>2008-05-30T14:16:21+02:00</time>
      </trkpt>
      <trkpt lat="41.59482" lon="9.27573">
        <ele>12</ele>
        <time>2008-05-30T14:16:31+02:00</time>
      </trkpt>
      <trkpt lat="41.59472" lon="9.27601">
        <ele>16</ele>
        <time>2008-05-30T14:16:38+02:00</time>
      </trkpt>
      <trkpt lat="41.5946" lon="9.27635">
        <ele>18</ele>
        <time>2008-05-30T14:16:46+02:00</time>
      </trkpt>
      <trkpt lat="41.59456" lon="9.27666">
        <ele>19</ele>
        <time>2008-05-30T14:16:53+02:00</time>
      </trkpt>
      <trkpt lat="41.59459" lon="9.27702">
        <ele>23</ele>
        <time>2008-05-30T14:17:01+02:00</time>
      </trkpt>
      <trkpt lat="41.59473" lon="9.27743">
        <ele>23</ele>
        <time>2008-05-30T14:17:11+02:00</time>
      </trkpt>
      <trkpt lat="41.59489" lon="9.27788">
        <ele>27</ele>
        <time>2008-05-30T14:17:22+02:00</time>
      </trkpt>
      <trkpt lat="41.59502" lon="9.27825">
        <ele>22</ele>
        <time>2008-05-30T14:17:31+02:00</time>
      </trkpt>
      <trkpt lat="41.59509" lon="9.27843">
        <ele>22</ele>
        <time>2008-05-30T14:17:35+02:00</time>
      </trkpt>
      <trkpt lat="41.59522" lon="9.2789">
        <ele>17</ele>
        <time>2008-05-30T14:17:46+02:00</time>
      </trkpt>
      <trkpt lat="41.59517" lon="9.27911">
        <ele>19</ele>
        <time>2008-05-30T14:17:51+02:00</time>
      </trkpt>
      <trkpt lat="41.59504" lon="9.27915">
        <ele>22</ele>
        <time>2008-05-30T14:17:55+02:00</time>
      </trkpt>
      <trkpt lat="41.59484" lon="9.27904">
        <ele>27</ele>
        <time>2008-05-30T14:18:01+02:00</time>
      </trkpt>
      <trkpt lat="41.59459" lon="9.27889">
        <ele>30</ele>
        <time>2008-05-30T14:18:09+02:00</time>
      </trkpt>
      <trkpt lat="41.5944" lon="9.2789">
        <ele>31</ele>
        <time>2008-05-30T14:18:15+02:00</time>
      </trkpt>
      <trkpt lat="41.59419" lon="9.27902">
        <ele>31</ele>
        <time>2008-05-30T14:18:22+02:00</time>
      </trkpt>
      <trkpt lat="41.59401" lon="9.27908">
        <ele>35</ele>
        <time>2008-05-30T14:18:28+02:00</time>
      </trkpt>
      <trkpt lat="41.59381" lon="9.27904">
        <ele>36</ele>
        <time>2008-05-30T14:18:34+02:00</time>
      </trkpt>
      <trkpt lat="41.59367" lon="9.27897">
        <ele>37</ele>
        <time>2008-05-30T14:18:38+02:00</time>
      </trkpt>
      <trkpt lat="41.59342" lon="9.27885">
        <ele>37</ele>
        <time>2008-05-30T14:18:46+02:00</time>
      </trkpt>
      <trkpt lat="41.59307" lon="9.27871">
        <ele>41</ele>
        <time>2008-05-30T14:18:57+02:00</time>
      </trkpt>
      <trkpt lat="41.59277" lon="9.27859">
        <ele>43</ele>
        <time>2008-05-30T14:19:06+02:00</time>
      </trkpt>
      <trkpt lat="41.59249" lon="9.27845">
        <ele>48</ele>
        <time>2008-05-30T14:19:15+02:00</time>
      </trkpt>
      <trkpt lat="41.59233" lon="9.27833">
        <ele>48</ele>
        <time>2008-05-30T14:19:21+02:00</time>
      </trkpt>
      <trkpt lat="41.59208" lon="9.27828">
        <ele>54</ele>
        <time>2008-05-30T14:19:28+02:00</time>
      </trkpt>
      <trkpt lat="41.59185" lon="9.27819">
        <ele>54</ele>
        <time>2008-05-30T14:19:35+02:00</time>
      </trkpt>
      <trkpt lat="41.59157" lon="9.2781">
        <ele>55</ele>
        <time>2008-05-30T14:19:43+02:00</time>
      </trkpt>
      <trkpt lat="41.59127" lon="9.27799">
        <ele>57</ele>
        <time>2008-05-30T14:19:52+02:00</time>
      </trkpt>
      <trkpt lat="41.59102" lon="9.27793">
        <ele>57</ele>
        <time>2008-05-30T14:19:59+02:00</time>
      </trkpt>
      <trkpt lat="41.59084" lon="9.27782">
        <ele>58</ele>
        <time>2008-05-30T14:20:05+02:00</time>
      </trkpt>
      <trkpt lat="41.59065" lon="9.27778">
        <ele>56</ele>
        <time>2008-05-30T14:20:11+02:00</time>
      </trkpt>
      <trkpt lat="41.59046" lon="9.27771">
        <ele>56</ele>
        <time>2008-05-30T14:20:17+02:00</time>
      </trkpt>
      <trkpt lat="41.59034" lon="9.27769">
        <ele>55</ele>
        <time>2008-05-30T14:20:21+02:00</time>
      </trkpt>
      <trkpt lat="41.59028" lon="9.27765">
        <ele>55</ele>
        <time>2008-05-30T14:20:24+02:00</time>
      </trkpt>
      <trkpt lat="41.59032" lon="9.27744">
        <ele>57</ele>
        <time>2008-05-30T14:20:29+02:00</time>
      </trkpt>
      <trkpt lat="41.59031" lon="9.27716">
        <ele>57</ele>
        <time>2008-05-30T14:20:36+02:00</time>
      </trkpt>
      <trkpt lat="41.59027" lon="9.27699">
        <ele>58</ele>
        <time>2008-05-30T14:20:41+02:00</time>
      </trkpt>
      <trkpt lat="41.59025" lon="9.2767">
        <ele>58</ele>
        <time>2008-05-30T14:20:49+02:00</time>
      </trkpt>
      <trkpt lat="41.59027" lon="9.2765">
        <ele>61</ele>
        <time>2008-05-30T14:20:55+02:00</time>
      </trkpt>
      <trkpt lat="41.59033" lon="9.2763">
        <ele>62</ele>
        <time>2008-05-30T14:21:01+02:00</time>
      </trkpt>
      <trkpt lat="41.5904" lon="9.27602">
        <ele>63</ele>
        <time>2008-05-30T14:21:08+02:00</time>
      </trkpt>
      <trkpt lat="41.59044" lon="9.27577">
        <ele>65</ele>
        <time>2008-05-30T14:21:14+02:00</time>
      </trkpt>
      <trkpt lat="41.59038" lon="9.27555">
        <ele>66</ele>
        <time>2008-05-30T14:21:20+02:00</time>
      </trkpt>
      <trkpt lat="41.59028" lon="9.27535">
        <ele>66</ele>
        <time>2008-05-30T14:21:27+02:00</time>
      </trkpt>
      <trkpt lat="41.5902" lon="9.2752">
        <ele>67</ele>
        <time>2008-05-30T14:21:33+02:00</time>
      </trkpt>
      <trkpt lat="41.59012" lon="9.27502">
        <ele>68</ele>
        <time>2008-05-30T14:21:40+02:00</time>
      </trkpt>
      <trkpt lat="41.59003" lon="9.27482">
        <ele>69</ele>
        <time>2008-05-30T14:21:48+02:00</time>
      </trkpt>
      <trkpt lat="41.59" lon="9.27476">
        <ele>69</ele>
        <time>2008-05-30T14:21:52+02:00</time>
      </trkpt>
      <trkpt lat="41.59" lon="9.27477">
        <ele>68</ele>
        <time>2008-05-30T14:21:58+02:00</time>
      </trkpt>
      <trkpt lat="41.58998" lon="9.27477">
        <ele>68</ele>
        <time>2008-05-30T14:22:00+02:00</time>
      </trkpt>
      <trkpt lat="41.58985" lon="9.27468">
        <ele>68</ele>
        <time>2008-05-30T14:22:05+02:00</time>
      </trkpt>
      <trkpt lat="41.58969" lon="9.27448">
        <ele>68</ele>
        <time>2008-05-30T14:22:09+02:00</time>
      </trkpt>
      <trkpt lat="41.58959" lon="9.27425">
        <ele>68</ele>
        <time>2008-05-30T14:22:13+02:00</time>
      </trkpt>
      <trkpt lat="41.58948" lon="9.27393">
        <ele>69</ele>
        <time>2008-05-30T14:22:19+02:00</time>
      </trkpt>
      <trkpt lat="41.58938" lon="9.27372">
        <ele>69</ele>
        <time>2008-05-30T14:22:24+02:00</time>
      </trkpt>
      <trkpt lat="41.58937" lon="9.27368">
        <ele>69</ele>
        <time>2008-05-30T14:22:29+02:00</time>
      </trkpt>
      <trkpt lat="41.58934" lon="9.27372">
        <ele>69</ele>
        <time>2008-05-30T14:22:37+02:00</time>
      </trkpt>
      <trkpt lat="41.58934" lon="9.27374">
        <ele>69</ele>
        <time>2008-05-30T14:22:46+02:00</time>
      </trkpt>
      <trkpt lat="41.58936" lon="9.27374">
        <ele>69</ele>
        <time>2008-05-30T14:22:57+02:00</time>
      </trkpt>
      <trkpt lat="41.58936" lon="9.27376">
        <ele>69</ele>
        <time>2008-05-30T14:23:10+02:00</time>
      </trkpt>
      <trkpt lat="41.58934" lon="9.27378">
        <ele>69</ele>
        <time>2008-05-30T14:23:21+02:00</time>
      </trkpt>
      <trkpt lat="41.58932" lon="9.27378">
        <ele>69</ele>
        <time>2008-05-30T14:23:24+02:00</time>
      </trkpt>
      <trkpt lat="41.5892" lon="9.2737">
        <ele>69</ele>
        <time>2008-05-30T14:23:29+02:00</time>
      </trkpt>
      <trkpt lat="41.58911" lon="9.27372">
        <ele>65</ele>
        <time>2008-05-30T14:23:31+02:00</time>
      </trkpt>
      <trkpt lat="41.58878" lon="9.27386">
        <ele>63</ele>
        <time>2008-05-30T14:23:36+02:00</time>
      </trkpt>
      <trkpt lat="41.58864" lon="9.27395">
        <ele>62</ele>
        <time>2008-05-30T14:23:38+02:00</time>
      </trkpt>
      <trkpt lat="41.5884" lon="9.27408">
        <ele>60</ele>
        <time>2008-05-30T14:23:42+02:00</time>
      </trkpt>
      <trkpt lat="41.58829" lon="9.27412">
        <ele>58</ele>
        <time>2008-05-30T14:23:44+02:00</time>
      </trkpt>
      <trkpt lat="41.58812" lon="9.27429">
        <ele>55</ele>
        <time>2008-05-30T14:23:48+02:00</time>
      </trkpt>
      <trkpt lat="41.58803" lon="9.2744">
        <ele>54</ele>
        <time>2008-05-30T14:23:50+02:00</time>
      </trkpt>
      <trkpt lat="41.58786" lon="9.27463">
        <ele>53</ele>
        <time>2008-05-30T14:23:54+02:00</time>
      </trkpt>
      <trkpt lat="41.58772" lon="9.27501">
        <ele>49</ele>
        <time>2008-05-30T14:23:59+02:00</time>
      </trkpt>
      <trkpt lat="41.58766" lon="9.27514">
        <ele>49</ele>
        <time>2008-05-30T14:24:01+02:00</time>
      </trkpt>
      <trkpt lat="41.5876" lon="9.27546">
        <ele>48</ele>
        <time>2008-05-30T14:24:06+02:00</time>
      </trkpt>
      <trkpt lat="41.58738" lon="9.27592">
        <ele>42</ele>
        <time>2008-05-30T14:24:12+02:00</time>
      </trkpt>
      <trkpt lat="41.58734" lon="9.27599">
        <ele>41</ele>
        <time>2008-05-30T14:24:13+02:00</time>
      </trkpt>
      <trkpt lat="41.58719" lon="9.27619">
        <ele>40</ele>
        <time>2008-05-30T14:24:18+02:00</time>
      </trkpt>
      <trkpt lat="41.58715" lon="9.27619">
        <ele>40</ele>
        <time>2008-05-30T14:24:19+02:00</time>
      </trkpt>
      <trkpt lat="41.58687" lon="9.27616">
        <ele>39</ele>
        <time>2008-05-30T14:24:25+02:00</time>
      </trkpt>
      <trkpt lat="41.58666" lon="9.27609">
        <ele>37</ele>
        <time>2008-05-30T14:24:29+02:00</time>
      </trkpt>
      <trkpt lat="41.5866" lon="9.27608">
        <ele>37</ele>
        <time>2008-05-30T14:24:30+02:00</time>
      </trkpt>
      <trkpt lat="41.58624" lon="9.27603">
        <ele>36</ele>
        <time>2008-05-30T14:24:36+02:00</time>
      </trkpt>
      <trkpt lat="41.58582" lon="9.27598">
        <ele>33</ele>
        <time>2008-05-30T14:24:43+02:00</time>
      </trkpt>
      <trkpt lat="41.58542" lon="9.27595">
        <ele>31</ele>
        <time>2008-05-30T14:24:49+02:00</time>
      </trkpt>
      <trkpt lat="41.58496" lon="9.27589">
        <ele>27</ele>
        <time>2008-05-30T14:24:56+02:00</time>
      </trkpt>
      <trkpt lat="41.58447" lon="9.27581">
        <ele>26</ele>
        <time>2008-05-30T14:25:03+02:00</time>
      </trkpt>
      <trkpt lat="41.58402" lon="9.27578">
        <ele>24</ele>
        <time>2008-05-30T14:25:09+02:00</time>
      </trkpt>
      <trkpt lat="41.58382" lon="9.27577">
        <ele>24</ele>
        <time>2008-05-30T14:25:12+02:00</time>
      </trkpt>
      <trkpt lat="41.5836" lon="9.27574">
        <ele>23</ele>
        <time>2008-05-30T14:25:16+02:00</time>
      </trkpt>
      <trkpt lat="41.58352" lon="9.27573">
        <ele>23</ele>
        <time>2008-05-30T14:25:18+02:00</time>
      </trkpt>
      <trkpt lat="41.5834" lon="9.27569">
        <ele>22</ele>
        <time>2008-05-30T14:25:22+02:00</time>
      </trkpt>
      <trkpt lat="41.58339" lon="9.27566">
        <ele>23</ele>
        <time>2008-05-30T14:25:27+02:00</time>
      </trkpt>
      <trkpt lat="41.58337" lon="9.27565">
        <ele>23</ele>
        <time>2008-05-30T14:25:45+02:00</time>
      </trkpt>
      <trkpt lat="41.58337" lon="9.27565">
        <ele>23</ele>
        <time>2008-05-30T14:25:50+02:00</time>
      </trkpt>
      <trkpt lat="41.58338" lon="9.27563">
        <ele>23</ele>
        <time>2008-05-30T14:26:06+02:00</time>
      </trkpt>
      <trkpt lat="41.58338" lon="9.27562">
        <ele>23</ele>
        <time>2008-05-30T14:26:27+02:00</time>
      </trkpt>
      <trkpt lat="41.58338" lon="9.27562">
        <ele>23</ele>
        <time>2008-05-30T14:26:39+02:00</time>
      </trkpt>
      <trkpt lat="41.58339" lon="9.27563">
        <ele>23</ele>
        <time>2008-05-30T14:27:07+02:00</time>
      </trkpt>
      <trkpt lat="41.58339" lon="9.27562">
        <ele>23</ele>
        <time>2008-05-30T14:27:19+02:00</time>
      </trkpt>
      <trkpt lat="41.5834" lon="9.27564">
        <ele>23</ele>
        <time>2008-05-30T14:27:48+02:00</time>
      </trkpt>
      <trkpt lat="41.5834" lon="9.27565">
        <ele>23</ele>
        <time>2008-05-30T14:28:06+02:00</time>
      </trkpt>
      <trkpt lat="41.5834" lon="9.27565">
        <ele>23</ele>
        <time>2008-05-30T14:28:21+02:00</time>
      </trkpt>
      <trkpt lat="41.58341" lon="9.27566">
        <ele>23</ele>
        <time>2008-05-30T14:28:59+02:00</time>
      </trkpt>
      <trkpt lat="41.58338" lon="9.27567">
        <ele>23</ele>
        <time>2008-05-30T14:29:31+02:00</time>
      </trkpt>
      <trkpt lat="41.58338" lon="9.27568">
        <ele>22</ele>
        <time>2008-05-30T14:29:54+02:00</time>
      </trkpt>
      <trkpt lat="41.58339" lon="9.27567">
        <ele>23</ele>
        <time>2008-05-30T14:31:42+02:00</time>
      </trkpt>
      <trkpt lat="41.58339" lon="9.27567">
        <ele>23</ele>
        <time>2008-05-30T14:31:49+02:00</time>
      </trkpt>
      <trkpt lat="41.5834" lon="9.27566">
        <ele>23</ele>
        <time>2008-05-30T14:32:13+02:00</time>
      </trkpt>
      <trkpt lat="41.58339" lon="9.27565">
        <ele>23</ele>
        <time>2008-05-30T14:32:38+02:00</time>
      </trkpt>
      <trkpt lat="41.58339" lon="9.27567">
        <ele>23</ele>
        <time>2008-05-30T14:32:53+02:00</time>
      </trkpt>
      <trkpt lat="41.5834" lon="9.27563">
        <ele>23</ele>
        <time>2008-05-30T14:33:32+02:00</time>
      </trkpt>
      <trkpt lat="41.58343" lon="9.27548">
        <ele>24</ele>
        <time>2008-05-30T14:33:41+02:00</time>
      </trkpt>
      <trkpt lat="41.58348" lon="9.2754">
        <ele>25</ele>
        <time>2008-05-30T14:33:48+02:00</time>
      </trkpt>
      <trkpt lat="41.58352" lon="9.27533">
        <ele>25</ele>
        <time>2008-05-30T14:33:54+02:00</time>
      </trkpt>
      <trkpt lat="41.58356" lon="9.27525">
        <ele>26</ele>
        <time>2008-05-30T14:34:01+02:00</time>
      </trkpt>
      <trkpt lat="41.58357" lon="9.27517">
        <ele>26</ele>
        <time>2008-05-30T14:34:07+02:00</time>
      </trkpt>
      <trkpt lat="41.58359" lon="9.27508">
        <ele>26</ele>
        <time>2008-05-30T14:34:15+02:00</time>
      </trkpt>
      <trkpt lat="41.58359" lon="9.27504">
        <ele>26</ele>
        <time>2008-05-30T14:34:20+02:00</time>
      </trkpt>
      <trkpt lat="41.58358" lon="9.27509">
        <ele>26</ele>
        <time>2008-05-30T14:34:25+02:00</time>
      </trkpt>
      <trkpt lat="41.58358" lon="9.27513">
        <ele>26</ele>
        <time>2008-05-30T14:34:30+02:00</time>
      </trkpt>
      <trkpt lat="41.58361" lon="9.2752">
        <ele>26</ele>
        <time>2008-05-30T14:34:38+02:00</time>
      </trkpt>
      <trkpt lat="41.58363" lon="9.2752">
        <ele>26</ele>
        <time>2008-05-30T14:34:45+02:00</time>
      </trkpt>
      <trkpt lat="41.58363" lon="9.27521">
        <ele>26</ele>
        <time>2008-05-30T14:34:54+02:00</time>
      </trkpt>
      <trkpt lat="41.58363" lon="9.27523">
        <ele>26</ele>
        <time>2008-05-30T14:35:01+02:00</time>
      </trkpt>
      <trkpt lat="41.58362" lon="9.27525">
        <ele>26</ele>
        <time>2008-05-30T14:35:11+02:00</time>
      </trkpt>
      <trkpt lat="41.58362" lon="9.27524">
        <ele>26</ele>
        <time>2008-05-30T14:35:18+02:00</time>
      </trkpt>
      <trkpt lat="41.58361" lon="9.27524">
        <ele>26</ele>
        <time>2008-05-30T14:35:26+02:00</time>
      </trkpt>
      <trkpt lat="41.58363" lon="9.27521">
        <ele>26</ele>
        <time>2008-05-30T14:35:32+02:00</time>
      </trkpt>
      <trkpt lat="41.58358" lon="9.27522">
        <ele>26</ele>
        <time>2008-05-30T14:35:36+02:00</time>
      </trkpt>
      <trkpt lat="41.58357" lon="9.27519">
        <ele>26</ele>
        <time>2008-05-30T14:35:42+02:00</time>
      </trkpt>
      <trkpt lat="41.58358" lon="9.27518">
        <ele>26</ele>
        <time>2008-05-30T14:35:50+02:00</time>
      </trkpt>
      <trkpt lat="41.58356" lon="9.2752">
        <ele>26</ele>
        <time>2008-05-30T14:35:53+02:00</time>
      </trkpt>
      <trkpt lat="41.58349" lon="9.27519">
        <ele>26</ele>
        <time>2008-05-30T14:36:00+02:00</time>
      </trkpt>
      <trkpt lat="41.58352" lon="9.27519">
        <ele>26</ele>
        <time>2008-05-30T14:36:04+02:00</time>
      </trkpt>
      <trkpt lat="41.58357" lon="9.27517">
        <ele>26</ele>
        <time>2008-05-30T14:36:10+02:00</time>
      </trkpt>
      <trkpt lat="41.5836" lon="9.27513">
        <ele>26</ele>
        <time>2008-05-30T14:36:18+02:00</time>
      </trkpt>
      <trkpt lat="41.58362" lon="9.2751">
        <ele>26</ele>
        <time>2008-05-30T14:36:23+02:00</time>
      </trkpt>
      <trkpt lat="41.58364" lon="9.27507">
        <ele>26</ele>
        <time>2008-05-30T14:36:29+02:00</time>
      </trkpt>
      <trkpt lat="41.58358" lon="9.27508">
        <ele>26</ele>
        <time>2008-05-30T14:36:35+02:00</time>
      </trkpt>
      <trkpt lat="41.58344" lon="9.27518">
        <ele>26</ele>
        <time>2008-05-30T14:36:54+02:00</time>
      </trkpt>
      <trkpt lat="41.58347" lon="9.27514">
        <ele>26</ele>
        <time>2008-05-30T14:37:00+02:00</time>
      </trkpt>
      <trkpt lat="41.58351" lon="9.27516">
        <ele>26</ele>
        <time>2008-05-30T14:37:20+02:00</time>
      </trkpt>
      <trkpt lat="41.58348" lon="9.27516">
        <ele>26</ele>
        <time>2008-05-30T14:37:25+02:00</time>
      </trkpt>
      <trkpt lat="41.58348" lon="9.27517">
        <ele>26</ele>
        <time>2008-05-30T14:37:32+02:00</time>
      </trkpt>
      <trkpt lat="41.5835" lon="9.27517">
        <ele>26</ele>
        <time>2008-05-30T14:37:49+02:00</time>
      </trkpt>
      <trkpt lat="41.58349" lon="9.27519">
        <ele>26</ele>
        <time>2008-05-30T14:38:01+02:00</time>
      </trkpt>
      <trkpt lat="41.58346" lon="9.27523">
        <ele>26</ele>
        <time>2008-05-30T14:38:23+02:00</time>
      </trkpt>
      <trkpt lat="41.58346" lon="9.27522">
        <ele>26</ele>
        <time>2008-05-30T14:38:29+02:00</time>
      </trkpt>
      <trkpt lat="41.58347" lon="9.27524">
        <ele>26</ele>
        <time>2008-05-30T14:38:34+02:00</time>
      </trkpt>
      <trkpt lat="41.58346" lon="9.27525">
        <ele>26</ele>
        <time>2008-05-30T14:38:41+02:00</time>
      </trkpt>
      <trkpt lat="41.58346" lon="9.27523">
        <ele>26</ele>
        <time>2008-05-30T14:38:47+02:00</time>
      </trkpt>
      <trkpt lat="41.58363" lon="9.27518">
        <ele>26</ele>
        <time>2008-05-30T15:59:18+02:00</time>
      </trkpt>
      <trkpt lat="41.58364" lon="9.27531">
        <ele>25</ele>
        <time>2008-05-30T15:59:23+02:00</time>
      </trkpt>
      <trkpt lat="41.58358" lon="9.2754">
        <ele>25</ele>
        <time>2008-05-30T15:59:25+02:00</time>
      </trkpt>
      <trkpt lat="41.58338" lon="9.27557">
        <ele>23</ele>
        <time>2008-05-30T15:59:30+02:00</time>
      </trkpt>
      <trkpt lat="41.58334" lon="9.27558">
        <ele>23</ele>
        <time>2008-05-30T15:59:31+02:00</time>
      </trkpt>
      <trkpt lat="41.58321" lon="9.27565">
        <ele>21</ele>
        <time>2008-05-30T15:59:36+02:00</time>
      </trkpt>
      <trkpt lat="41.58296" lon="9.27563">
        <ele>21</ele>
        <time>2008-05-30T15:59:45+02:00</time>
      </trkpt>
      <trkpt lat="41.58276" lon="9.27559">
        <ele>20</ele>
        <time>2008-05-30T15:59:51+02:00</time>
      </trkpt>
      <trkpt lat="41.58257" lon="9.27555">
        <ele>20</ele>
        <time>2008-05-30T15:59:56+02:00</time>
      </trkpt>
      <trkpt lat="41.58231" lon="9.27551">
        <ele>17</ele>
        <time>2008-05-30T16:00:02+02:00</time>
      </trkpt>
      <trkpt lat="41.58191" lon="9.27547">
        <ele>16</ele>
        <time>2008-05-30T16:00:12+02:00</time>
      </trkpt>
      <trkpt lat="41.58172" lon="9.27545">
        <ele>15</ele>
        <time>2008-05-30T16:00:16+02:00</time>
      </trkpt>
      <trkpt lat="41.58131" lon="9.27539">
        <ele>12</ele>
        <time>2008-05-30T16:00:24+02:00</time>
      </trkpt>
      <trkpt lat="41.58104" lon="9.27535">
        <ele>11</ele>
        <time>2008-05-30T16:00:29+02:00</time>
      </trkpt>
      <trkpt lat="41.58083" lon="9.27535">
        <ele>9</ele>
        <time>2008-05-30T16:00:33+02:00</time>
      </trkpt>
      <trkpt lat="41.58041" lon="9.27528">
        <ele>9</ele>
        <time>2008-05-30T16:00:40+02:00</time>
      </trkpt>
      <trkpt lat="41.58004" lon="9.27524">
        <ele>8</ele>
        <time>2008-05-30T16:00:46+02:00</time>
      </trkpt>
      <trkpt lat="41.57957" lon="9.27518">
        <ele>6</ele>
        <time>2008-05-30T16:00:53+02:00</time>
      </trkpt>
      <trkpt lat="41.57891" lon="9.27508">
        <ele>6</ele>
        <time>2008-05-30T16:01:02+02:00</time>
      </trkpt>
      <trkpt lat="41.57835" lon="9.27502">
        <ele>6</ele>
        <time>2008-05-30T16:01:10+02:00</time>
      </trkpt>
      <trkpt lat="41.5781" lon="9.27498">
        <ele>6</ele>
        <time>2008-05-30T16:01:14+02:00</time>
      </trkpt>
      <trkpt lat="41.57783" lon="9.27486">
        <ele>5</ele>
        <time>2008-05-30T16:01:19+02:00</time>
      </trkpt>
      <trkpt lat="41.57766" lon="9.27461">
        <ele>5</ele>
        <time>2008-05-30T16:01:24+02:00</time>
      </trkpt>
      <trkpt lat="41.57748" lon="9.27443">
        <ele>4</ele>
        <time>2008-05-30T16:01:29+02:00</time>
      </trkpt>
      <trkpt lat="41.57731" lon="9.27444">
        <ele>3</ele>
        <time>2008-05-30T16:01:33+02:00</time>
      </trkpt>
      <trkpt lat="41.57719" lon="9.27457">
        <ele>4</ele>
        <time>2008-05-30T16:01:37+02:00</time>
      </trkpt>
      <trkpt lat="41.57716" lon="9.27466">
        <ele>4</ele>
        <time>2008-05-30T16:01:39+02:00</time>
      </trkpt>
      <trkpt lat="41.57715" lon="9.27495">
        <ele>4</ele>
        <time>2008-05-30T16:01:45+02:00</time>
      </trkpt>
      <trkpt lat="41.57725" lon="9.27513">
        <ele>5</ele>
        <time>2008-05-30T16:01:49+02:00</time>
      </trkpt>
      <trkpt lat="41.57735" lon="9.2752">
        <ele>5</ele>
        <time>2008-05-30T16:01:52+02:00</time>
      </trkpt>
      <trkpt lat="41.57732" lon="9.27526">
        <ele>5</ele>
        <time>2008-05-30T16:01:56+02:00</time>
      </trkpt>
      <trkpt lat="41.57718" lon="9.27513">
        <ele>5</ele>
        <time>2008-05-30T16:02:02+02:00</time>
      </trkpt>
      <trkpt lat="41.57704" lon="9.27498">
        <ele>4</ele>
        <time>2008-05-30T16:02:07+02:00</time>
      </trkpt>
      <trkpt lat="41.5768" lon="9.27491">
        <ele>4</ele>
        <time>2008-05-30T16:02:13+02:00</time>
      </trkpt>
      <trkpt lat="41.57655" lon="9.2749">
        <ele>4</ele>
        <time>2008-05-30T16:02:19+02:00</time>
      </trkpt>
      <trkpt lat="41.57637" lon="9.27491">
        <ele>4</ele>
        <time>2008-05-30T16:02:23+02:00</time>
      </trkpt>
      <trkpt lat="41.57615" lon="9.27492">
        <ele>4</ele>
        <time>2008-05-30T16:02:28+02:00</time>
      </trkpt>
      <trkpt lat="41.57582" lon="9.27488">
        <ele>5</ele>
        <time>2008-05-30T16:02:36+02:00</time>
      </trkpt>
      <trkpt lat="41.57557" lon="9.27486">
        <ele>5</ele>
        <time>2008-05-30T16:02:41+02:00</time>
      </trkpt>
      <trkpt lat="41.57502" lon="9.27503">
        <ele>6</ele>
        <time>2008-05-30T16:02:52+02:00</time>
      </trkpt>
      <trkpt lat="41.5749" lon="9.27506">
        <ele>6</ele>
        <time>2008-05-30T16:02:59+02:00</time>
      </trkpt>
      <trkpt lat="41.57492" lon="9.27513">
        <ele>6</ele>
        <time>2008-05-30T16:03:19+02:00</time>
      </trkpt>
      <trkpt lat="41.57497" lon="9.27511">
        <ele>6</ele>
        <time>2008-05-30T16:03:25+02:00</time>
      </trkpt>
      <trkpt lat="41.57514" lon="9.27508">
        <ele>6</ele>
        <time>2008-05-30T16:03:32+02:00</time>
      </trkpt>
      <trkpt lat="41.57529" lon="9.27497">
        <ele>5</ele>
        <time>2008-05-30T16:03:37+02:00</time>
      </trkpt>
      <trkpt lat="41.57549" lon="9.27493">
        <ele>5</ele>
        <time>2008-05-30T16:03:42+02:00</time>
      </trkpt>
      <trkpt lat="41.57567" lon="9.27493">
        <ele>5</ele>
        <time>2008-05-30T16:03:47+02:00</time>
      </trkpt>
      <trkpt lat="41.57583" lon="9.27491">
        <ele>5</ele>
        <time>2008-05-30T16:03:52+02:00</time>
      </trkpt>
      <trkpt lat="41.57596" lon="9.27492">
        <ele>5</ele>
        <time>2008-05-30T16:03:57+02:00</time>
      </trkpt>
      <trkpt lat="41.57619" lon="9.27494">
        <ele>4</ele>
        <time>2008-05-30T16:04:03+02:00</time>
      </trkpt>
      <trkpt lat="41.57641" lon="9.27493">
        <ele>4</ele>
        <time>2008-05-30T16:04:08+02:00</time>
      </trkpt>
      <trkpt lat="41.57669" lon="9.27492">
        <ele>4</ele>
        <time>2008-05-30T16:04:15+02:00</time>
      </trkpt>
      <trkpt lat="41.57688" lon="9.27494">
        <ele>4</ele>
        <time>2008-05-30T16:04:21+02:00</time>
      </trkpt>
      <trkpt lat="41.57694" lon="9.27496">
        <ele>4</ele>
        <time>2008-05-30T16:04:24+02:00</time>
      </trkpt>
      <trkpt lat="41.57696" lon="9.27491">
        <ele>4</ele>
        <time>2008-05-30T16:04:28+02:00</time>
      </trkpt>
      <trkpt lat="41.57695" lon="9.27476">
        <ele>4</ele>
        <time>2008-05-30T16:04:35+02:00</time>
      </trkpt>
      <trkpt lat="41.57694" lon="9.27464">
        <ele>3</ele>
        <time>2008-05-30T16:04:41+02:00</time>
      </trkpt>
      <trkpt lat="41.57693" lon="9.27461">
        <ele>3</ele>
        <time>2008-05-30T16:04:42+02:00</time>
      </trkpt>
      <trkpt lat="41.5769" lon="9.2746">
        <ele>3</ele>
        <time>2008-05-30T16:04:47+02:00</time>
      </trkpt>
      <trkpt lat="41.57683" lon="9.27461">
        <ele>3</ele>
        <time>2008-05-30T16:04:52+02:00</time>
      </trkpt>
      <trkpt lat="41.57664" lon="9.27463">
        <ele>3</ele>
        <time>2008-05-30T16:04:58+02:00</time>
      </trkpt>
      <trkpt lat="41.57628" lon="9.27459">
        <ele>3</ele>
        <time>2008-05-30T16:05:07+02:00</time>
      </trkpt>
      <trkpt lat="41.57596" lon="9.27454">
        <ele>3</ele>
        <time>2008-05-30T16:05:15+02:00</time>
      </trkpt>
      <trkpt lat="41.57585" lon="9.27449">
        <ele>3</ele>
        <time>2008-05-30T16:05:18+02:00</time>
      </trkpt>
      <trkpt lat="41.57563" lon="9.27444">
        <ele>4</ele>
        <time>2008-05-30T16:05:24+02:00</time>
      </trkpt>
      <trkpt lat="41.57533" lon="9.27442">
        <ele>4</ele>
        <time>2008-05-30T16:05:33+02:00</time>
      </trkpt>
      <trkpt lat="41.57504" lon="9.27441">
        <ele>3</ele>
        <time>2008-05-30T16:05:41+02:00</time>
      </trkpt>
      <trkpt lat="41.57462" lon="9.27436">
        <ele>4</ele>
        <time>2008-05-30T16:05:52+02:00</time>
      </trkpt>
      <trkpt lat="41.57424" lon="9.27431">
        <ele>4</ele>
        <time>2008-05-30T16:06:01+02:00</time>
      </trkpt>
      <trkpt lat="41.57384" lon="9.27425">
        <ele>4</ele>
        <time>2008-05-30T16:06:10+02:00</time>
      </trkpt>
      <trkpt lat="41.57347" lon="9.27417">
        <ele>4</ele>
        <time>2008-05-30T16:06:18+02:00</time>
      </trkpt>
      <trkpt lat="41.57342" lon="9.27416">
        <ele>4</ele>
        <time>2008-05-30T16:06:19+02:00</time>
      </trkpt>
      <trkpt lat="41.57292" lon="9.27419">
        <ele>3</ele>
        <time>2008-05-30T16:06:28+02:00</time>
      </trkpt>
      <trkpt lat="41.57245" lon="9.27415">
        <ele>1</ele>
        <time>2008-05-30T16:06:36+02:00</time>
      </trkpt>
      <trkpt lat="41.57217" lon="9.2741">
        <ele>2</ele>
        <time>2008-05-30T16:06:41+02:00</time>
      </trkpt>
      <trkpt lat="41.57203" lon="9.274">
        <ele>2</ele>
        <time>2008-05-30T16:06:44+02:00</time>
      </trkpt>
      <trkpt lat="41.57179" lon="9.27396">
        <ele>2</ele>
        <time>2008-05-30T16:06:49+02:00</time>
      </trkpt>
      <trkpt lat="41.5716" lon="9.27413">
        <ele>3</ele>
        <time>2008-05-30T16:06:53+02:00</time>
      </trkpt>
      <trkpt lat="41.57148" lon="9.27414">
        <ele>3</ele>
        <time>2008-05-30T16:06:55+02:00</time>
      </trkpt>
      <trkpt lat="41.57076" lon="9.27403">
        <ele>4</ele>
        <time>2008-05-30T16:07:08+02:00</time>
      </trkpt>
      <trkpt lat="41.57011" lon="9.27397">
        <ele>5</ele>
        <time>2008-05-30T16:07:20+02:00</time>
      </trkpt>
      <trkpt lat="41.56984" lon="9.27395">
        <ele>5</ele>
        <time>2008-05-30T16:07:25+02:00</time>
      </trkpt>
      <trkpt lat="41.56928" lon="9.27386">
        <ele>4</ele>
        <time>2008-05-30T16:07:35+02:00</time>
      </trkpt>
      <trkpt lat="41.56884" lon="9.2738">
        <ele>3</ele>
        <time>2008-05-30T16:07:43+02:00</time>
      </trkpt>
      <trkpt lat="41.56838" lon="9.27375">
        <ele>2</ele>
        <time>2008-05-30T16:07:51+02:00</time>
      </trkpt>
      <trkpt lat="41.56773" lon="9.27367">
        <ele>2</ele>
        <time>2008-05-30T16:08:03+02:00</time>
      </trkpt>
      <trkpt lat="41.56715" lon="9.27359">
        <ele>5</ele>
        <time>2008-05-30T16:08:14+02:00</time>
      </trkpt>
      <trkpt lat="41.56673" lon="9.27354">
        <ele>6</ele>
        <time>2008-05-30T16:08:23+02:00</time>
      </trkpt>
      <trkpt lat="41.56639" lon="9.27349">
        <ele>8</ele>
        <time>2008-05-30T16:08:31+02:00</time>
      </trkpt>
      <trkpt lat="41.56593" lon="9.27343">
        <ele>8</ele>
        <time>2008-05-30T16:08:42+02:00</time>
      </trkpt>
      <trkpt lat="41.56554" lon="9.27339">
        <ele>10</ele>
        <time>2008-05-30T16:08:52+02:00</time>
      </trkpt>
      <trkpt lat="41.56516" lon="9.27335">
        <ele>12</ele>
        <time>2008-05-30T16:09:02+02:00</time>
      </trkpt>
      <trkpt lat="41.56485" lon="9.2733">
        <ele>13</ele>
        <time>2008-05-30T16:09:10+02:00</time>
      </trkpt>
      <trkpt lat="41.56448" lon="9.27326">
        <ele>12</ele>
        <time>2008-05-30T16:09:19+02:00</time>
      </trkpt>
      <trkpt lat="41.56413" lon="9.27321">
        <ele>12</ele>
        <time>2008-05-30T16:09:28+02:00</time>
      </trkpt>
      <trkpt lat="41.56372" lon="9.27316">
        <ele>13</ele>
        <time>2008-05-30T16:09:38+02:00</time>
      </trkpt>
      <trkpt lat="41.56332" lon="9.27311">
        <ele>14</ele>
        <time>2008-05-30T16:09:48+02:00</time>
      </trkpt>
      <trkpt lat="41.56286" lon="9.27305">
        <ele>15</ele>
        <time>2008-05-30T16:10:00+02:00</time>
      </trkpt>
      <trkpt lat="41.56261" lon="9.27304">
        <ele>15</ele>
        <time>2008-05-30T16:10:07+02:00</time>
      </trkpt>
      <trkpt lat="41.56243" lon="9.27315">
        <ele>18</ele>
        <time>2008-05-30T16:10:13+02:00</time>
      </trkpt>
      <trkpt lat="41.56226" lon="9.27344">
        <ele>17</ele>
        <time>2008-05-30T16:10:20+02:00</time>
      </trkpt>
      <trkpt lat="41.56214" lon="9.27367">
        <ele>17</ele>
        <time>2008-05-30T16:10:26+02:00</time>
      </trkpt>
      <trkpt lat="41.56205" lon="9.27389">
        <ele>17</ele>
        <time>2008-05-30T16:10:33+02:00</time>
      </trkpt>
      <trkpt lat="41.5619" lon="9.27419">
        <ele>17</ele>
        <time>2008-05-30T16:10:42+02:00</time>
      </trkpt>
      <trkpt lat="41.56174" lon="9.27441">
        <ele>17</ele>
        <time>2008-05-30T16:10:49+02:00</time>
      </trkpt>
      <trkpt lat="41.56151" lon="9.27465">
        <ele>18</ele>
        <time>2008-05-30T16:10:57+02:00</time>
      </trkpt>
      <trkpt lat="41.56132" lon="9.27485">
        <ele>17</ele>
        <time>2008-05-30T16:11:02+02:00</time>
      </trkpt>
      <trkpt lat="41.56107" lon="9.2753">
        <ele>15</ele>
        <time>2008-05-30T16:11:08+02:00</time>
      </trkpt>
      <trkpt lat="41.5608" lon="9.27587">
        <ele>11</ele>
        <time>2008-05-30T16:11:14+02:00</time>
      </trkpt>
      <trkpt lat="41.56042" lon="9.27647">
        <ele>9</ele>
        <time>2008-05-30T16:11:20+02:00</time>
      </trkpt>
      <trkpt lat="41.56002" lon="9.27712">
        <ele>7</ele>
        <time>2008-05-30T16:11:27+02:00</time>
      </trkpt>
      <trkpt lat="41.55961" lon="9.2778">
        <ele>7</ele>
        <time>2008-05-30T16:11:35+02:00</time>
      </trkpt>
      <trkpt lat="41.55932" lon="9.27822">
        <ele>7</ele>
        <time>2008-05-30T16:11:41+02:00</time>
      </trkpt>
      <trkpt lat="41.55894" lon="9.27874">
        <ele>9</ele>
        <time>2008-05-30T16:11:49+02:00</time>
      </trkpt>
      <trkpt lat="41.55868" lon="9.27913">
        <ele>9</ele>
        <time>2008-05-30T16:11:55+02:00</time>
      </trkpt>
      <trkpt lat="41.55829" lon="9.27969">
        <ele>9</ele>
        <time>2008-05-30T16:12:04+02:00</time>
      </trkpt>
      <trkpt lat="41.55806" lon="9.28006">
        <ele>9</ele>
        <time>2008-05-30T16:12:10+02:00</time>
      </trkpt>
      <trkpt lat="41.55773" lon="9.28067">
        <ele>9</ele>
        <time>2008-05-30T16:12:20+02:00</time>
      </trkpt>
      <trkpt lat="41.55738" lon="9.28119">
        <ele>10</ele>
        <time>2008-05-30T16:12:29+02:00</time>
      </trkpt>
      <trkpt lat="41.55728" lon="9.28136">
        <ele>10</ele>
        <time>2008-05-30T16:12:32+02:00</time>
      </trkpt>
      <trkpt lat="41.55707" lon="9.28159">
        <ele>10</ele>
        <time>2008-05-30T16:12:38+02:00</time>
      </trkpt>
      <trkpt lat="41.55681" lon="9.28178">
        <ele>9</ele>
        <time>2008-05-30T16:12:46+02:00</time>
      </trkpt>
      <trkpt lat="41.55657" lon="9.28195">
        <ele>10</ele>
        <time>2008-05-30T16:12:53+02:00</time>
      </trkpt>
      <trkpt lat="41.55632" lon="9.28222">
        <ele>9</ele>
        <time>2008-05-30T16:13:00+02:00</time>
      </trkpt>
      <trkpt lat="41.55617" lon="9.28244">
        <ele>9</ele>
        <time>2008-05-30T16:13:05+02:00</time>
      </trkpt>
      <trkpt lat="41.55594" lon="9.28269">
        <ele>10</ele>
        <time>2008-05-30T16:13:13+02:00</time>
      </trkpt>
      <trkpt lat="41.55567" lon="9.28283">
        <ele>12</ele>
        <time>2008-05-30T16:13:21+02:00</time>
      </trkpt>
      <trkpt lat="41.55541" lon="9.28293">
        <ele>13</ele>
        <time>2008-05-30T16:13:29+02:00</time>
      </trkpt>
      <trkpt lat="41.55524" lon="9.28299">
        <ele>14</ele>
        <time>2008-05-30T16:13:35+02:00</time>
      </trkpt>
      <trkpt lat="41.5551" lon="9.28306">
        <ele>15</ele>
        <time>2008-05-30T16:13:42+02:00</time>
      </trkpt>
      <trkpt lat="41.55498" lon="9.28315">
        <ele>20</ele>
        <time>2008-05-30T16:13:49+02:00</time>
      </trkpt>
      <trkpt lat="41.55487" lon="9.28331">
        <ele>20</ele>
        <time>2008-05-30T16:13:57+02:00</time>
      </trkpt>
      <trkpt lat="41.55483" lon="9.28349">
        <ele>22</ele>
        <time>2008-05-30T16:14:04+02:00</time>
      </trkpt>
      <trkpt lat="41.55484" lon="9.28374">
        <ele>24</ele>
        <time>2008-05-30T16:14:12+02:00</time>
      </trkpt>
      <trkpt lat="41.55485" lon="9.28404">
        <ele>23</ele>
        <time>2008-05-30T16:14:20+02:00</time>
      </trkpt>
      <trkpt lat="41.55481" lon="9.28425">
        <ele>23</ele>
        <time>2008-05-30T16:14:26+02:00</time>
      </trkpt>
      <trkpt lat="41.55473" lon="9.28448">
        <ele>23</ele>
        <time>2008-05-30T16:14:35+02:00</time>
      </trkpt>
      <trkpt lat="41.55461" lon="9.28469">
        <ele>23</ele>
        <time>2008-05-30T16:14:44+02:00</time>
      </trkpt>
      <trkpt lat="41.55449" lon="9.28478">
        <ele>24</ele>
        <time>2008-05-30T16:14:51+02:00</time>
      </trkpt>
      <trkpt lat="41.55433" lon="9.28482">
        <ele>25</ele>
        <time>2008-05-30T16:14:59+02:00</time>
      </trkpt>
      <trkpt lat="41.55419" lon="9.28482">
        <ele>26</ele>
        <time>2008-05-30T16:15:06+02:00</time>
      </trkpt>
      <trkpt lat="41.55402" lon="9.28478">
        <ele>30</ele>
        <time>2008-05-30T16:15:13+02:00</time>
      </trkpt>
      <trkpt lat="41.55385" lon="9.2847">
        <ele>31</ele>
        <time>2008-05-30T16:15:21+02:00</time>
      </trkpt>
      <trkpt lat="41.55362" lon="9.28453">
        <ele>32</ele>
        <time>2008-05-30T16:15:32+02:00</time>
      </trkpt>
      <trkpt lat="41.55343" lon="9.28443">
        <ele>34</ele>
        <time>2008-05-30T16:15:39+02:00</time>
      </trkpt>
      <trkpt lat="41.55322" lon="9.28433">
        <ele>36</ele>
        <time>2008-05-30T16:15:47+02:00</time>
      </trkpt>
      <trkpt lat="41.55296" lon="9.2842">
        <ele>36</ele>
        <time>2008-05-30T16:15:57+02:00</time>
      </trkpt>
      <trkpt lat="41.55272" lon="9.28408">
        <ele>42</ele>
        <time>2008-05-30T16:16:06+02:00</time>
      </trkpt>
      <trkpt lat="41.55243" lon="9.28401">
        <ele>42</ele>
        <time>2008-05-30T16:16:15+02:00</time>
      </trkpt>
      <trkpt lat="41.55227" lon="9.28401">
        <ele>42</ele>
        <time>2008-05-30T16:16:20+02:00</time>
      </trkpt>
      <trkpt lat="41.55208" lon="9.28399">
        <ele>42</ele>
        <time>2008-05-30T16:16:26+02:00</time>
      </trkpt>
      <trkpt lat="41.55189" lon="9.2839">
        <ele>43</ele>
        <time>2008-05-30T16:16:32+02:00</time>
      </trkpt>
      <trkpt lat="41.55177" lon="9.28374">
        <ele>44</ele>
        <time>2008-05-30T16:16:37+02:00</time>
      </trkpt>
      <trkpt lat="41.55153" lon="9.28356">
        <ele>45</ele>
        <time>2008-05-30T16:16:45+02:00</time>
      </trkpt>
      <trkpt lat="41.55129" lon="9.2835">
        <ele>44</ele>
        <time>2008-05-30T16:16:51+02:00</time>
      </trkpt>
      <trkpt lat="41.55101" lon="9.28349">
        <ele>45</ele>
        <time>2008-05-30T16:16:57+02:00</time>
      </trkpt>
      <trkpt lat="41.55066" lon="9.28345">
        <ele>46</ele>
        <time>2008-05-30T16:17:04+02:00</time>
      </trkpt>
      <trkpt lat="41.55028" lon="9.28346">
        <ele>46</ele>
        <time>2008-05-30T16:17:11+02:00</time>
      </trkpt>
      <trkpt lat="41.54994" lon="9.28347">
        <ele>51</ele>
        <time>2008-05-30T16:17:18+02:00</time>
      </trkpt>
      <trkpt lat="41.54963" lon="9.28354">
        <ele>50</ele>
        <time>2008-05-30T16:17:26+02:00</time>
      </trkpt>
      <trkpt lat="41.54937" lon="9.28368">
        <ele>51</ele>
        <time>2008-05-30T16:17:33+02:00</time>
      </trkpt>
      <trkpt lat="41.54922" lon="9.28377">
        <ele>50</ele>
        <time>2008-05-30T16:17:37+02:00</time>
      </trkpt>
      <trkpt lat="41.54892" lon="9.28396">
        <ele>54</ele>
        <time>2008-05-30T16:17:46+02:00</time>
      </trkpt>
      <trkpt lat="41.54861" lon="9.28409">
        <ele>55</ele>
        <time>2008-05-30T16:17:54+02:00</time>
      </trkpt>
      <trkpt lat="41.54838" lon="9.28416">
        <ele>54</ele>
        <time>2008-05-30T16:18:00+02:00</time>
      </trkpt>
      <trkpt lat="41.5481" lon="9.28429">
        <ele>56</ele>
        <time>2008-05-30T16:18:08+02:00</time>
      </trkpt>
      <trkpt lat="41.54794" lon="9.28447">
        <ele>57</ele>
        <time>2008-05-30T16:18:15+02:00</time>
      </trkpt>
      <trkpt lat="41.5477" lon="9.28469">
        <ele>58</ele>
        <time>2008-05-30T16:18:27+02:00</time>
      </trkpt>
      <trkpt lat="41.54744" lon="9.28478">
        <ele>62</ele>
        <time>2008-05-30T16:18:37+02:00</time>
      </trkpt>
      <trkpt lat="41.54715" lon="9.28487">
        <ele>63</ele>
        <time>2008-05-30T16:18:46+02:00</time>
      </trkpt>
      <trkpt lat="41.54694" lon="9.28493">
        <ele>63</ele>
        <time>2008-05-30T16:18:53+02:00</time>
      </trkpt>
      <trkpt lat="41.54669" lon="9.28501">
        <ele>63</ele>
        <time>2008-05-30T16:19:01+02:00</time>
      </trkpt>
      <trkpt lat="41.54643" lon="9.28513">
        <ele>63</ele>
        <time>2008-05-30T16:19:09+02:00</time>
      </trkpt>
      <trkpt lat="41.54616" lon="9.28525">
        <ele>64</ele>
        <time>2008-05-30T16:19:17+02:00</time>
      </trkpt>
      <trkpt lat="41.54602" lon="9.28522">
        <ele>64</ele>
        <time>2008-05-30T16:19:22+02:00</time>
      </trkpt>
      <trkpt lat="41.5459" lon="9.28508">
        <ele>64</ele>
        <time>2008-05-30T16:19:27+02:00</time>
      </trkpt>
      <trkpt lat="41.54575" lon="9.28491">
        <ele>64</ele>
        <time>2008-05-30T16:19:34+02:00</time>
      </trkpt>
      <trkpt lat="41.5456" lon="9.28482">
        <ele>64</ele>
        <time>2008-05-30T16:19:40+02:00</time>
      </trkpt>
      <trkpt lat="41.54543" lon="9.28483">
        <ele>63</ele>
        <time>2008-05-30T16:19:46+02:00</time>
      </trkpt>
      <trkpt lat="41.54534" lon="9.2847">
        <ele>63</ele>
        <time>2008-05-30T16:19:50+02:00</time>
      </trkpt>
      <trkpt lat="41.54537" lon="9.2845">
        <ele>64</ele>
        <time>2008-05-30T16:19:54+02:00</time>
      </trkpt>
      <trkpt lat="41.54542" lon="9.28438">
        <ele>64</ele>
        <time>2008-05-30T16:19:57+02:00</time>
      </trkpt>
      <trkpt lat="41.5455" lon="9.28407">
        <ele>70</ele>
        <time>2008-05-30T16:20:05+02:00</time>
      </trkpt>
      <trkpt lat="41.54552" lon="9.28385">
        <ele>70</ele>
        <time>2008-05-30T16:20:11+02:00</time>
      </trkpt>
      <trkpt lat="41.54546" lon="9.28368">
        <ele>71</ele>
        <time>2008-05-30T16:20:16+02:00</time>
      </trkpt>
      <trkpt lat="41.5453" lon="9.28357">
        <ele>71</ele>
        <time>2008-05-30T16:20:22+02:00</time>
      </trkpt>
      <trkpt lat="41.54508" lon="9.28341">
        <ele>71</ele>
        <time>2008-05-30T16:20:30+02:00</time>
      </trkpt>
      <trkpt lat="41.54487" lon="9.28321">
        <ele>74</ele>
        <time>2008-05-30T16:20:38+02:00</time>
      </trkpt>
      <trkpt lat="41.54476" lon="9.28304">
        <ele>75</ele>
        <time>2008-05-30T16:20:44+02:00</time>
      </trkpt>
      <trkpt lat="41.54465" lon="9.28288">
        <ele>76</ele>
        <time>2008-05-30T16:20:50+02:00</time>
      </trkpt>
      <trkpt lat="41.54444" lon="9.28272">
        <ele>77</ele>
        <time>2008-05-30T16:20:59+02:00</time>
      </trkpt>
      <trkpt lat="41.54427" lon="9.28262">
        <ele>78</ele>
        <time>2008-05-30T16:21:06+02:00</time>
      </trkpt>
      <trkpt lat="41.54406" lon="9.28244">
        <ele>79</ele>
        <time>2008-05-30T16:21:14+02:00</time>
      </trkpt>
      <trkpt lat="41.54393" lon="9.28224">
        <ele>79</ele>
        <time>2008-05-30T16:21:21+02:00</time>
      </trkpt>
      <trkpt lat="41.54387" lon="9.28199">
        <ele>79</ele>
        <time>2008-05-30T16:21:28+02:00</time>
      </trkpt>
      <trkpt lat="41.54385" lon="9.2819">
        <ele>79</ele>
        <time>2008-05-30T16:21:31+02:00</time>
      </trkpt>
      <trkpt lat="41.54375" lon="9.28175">
        <ele>80</ele>
        <time>2008-05-30T16:21:38+02:00</time>
      </trkpt>
      <trkpt lat="41.5436" lon="9.28152">
        <ele>78</ele>
        <time>2008-05-30T16:21:45+02:00</time>
      </trkpt>
      <trkpt lat="41.54349" lon="9.28138">
        <ele>78</ele>
        <time>2008-05-30T16:21:51+02:00</time>
      </trkpt>
      <trkpt lat="41.54331" lon="9.28132">
        <ele>78</ele>
        <time>2008-05-30T16:21:58+02:00</time>
      </trkpt>
      <trkpt lat="41.54309" lon="9.28132">
        <ele>78</ele>
        <time>2008-05-30T16:22:05+02:00</time>
      </trkpt>
      <trkpt lat="41.54287" lon="9.28132">
        <ele>78</ele>
        <time>2008-05-30T16:22:10+02:00</time>
      </trkpt>
      <trkpt lat="41.54257" lon="9.28133">
        <ele>79</ele>
        <time>2008-05-30T16:22:15+02:00</time>
      </trkpt>
      <trkpt lat="41.5425" lon="9.28133">
        <ele>79</ele>
        <time>2008-05-30T16:22:16+02:00</time>
      </trkpt>
      <trkpt lat="41.54213" lon="9.28132">
        <ele>78</ele>
        <time>2008-05-30T16:22:22+02:00</time>
      </trkpt>
      <trkpt lat="41.54168" lon="9.2813">
        <ele>78</ele>
        <time>2008-05-30T16:22:30+02:00</time>
      </trkpt>
      <trkpt lat="41.54141" lon="9.28121">
        <ele>76</ele>
        <time>2008-05-30T16:22:36+02:00</time>
      </trkpt>
      <trkpt lat="41.54122" lon="9.281">
        <ele>76</ele>
        <time>2008-05-30T16:22:41+02:00</time>
      </trkpt>
      <trkpt lat="41.54103" lon="9.28068">
        <ele>74</ele>
        <time>2008-05-30T16:22:45+02:00</time>
      </trkpt>
      <trkpt lat="41.54089" lon="9.28044">
        <ele>73</ele>
        <time>2008-05-30T16:22:48+02:00</time>
      </trkpt>
      <trkpt lat="41.54065" lon="9.28024">
        <ele>73</ele>
        <time>2008-05-30T16:22:52+02:00</time>
      </trkpt>
      <trkpt lat="41.54052" lon="9.28025">
        <ele>73</ele>
        <time>2008-05-30T16:22:54+02:00</time>
      </trkpt>
      <trkpt lat="41.54007" lon="9.28038">
        <ele>74</ele>
        <time>2008-05-30T16:23:02+02:00</time>
      </trkpt>
      <trkpt lat="41.54" lon="9.2804">
        <ele>74</ele>
        <time>2008-05-30T16:23:03+02:00</time>
      </trkpt>
      <trkpt lat="41.53969" lon="9.28056">
        <ele>76</ele>
        <time>2008-05-30T16:23:08+02:00</time>
      </trkpt>
      <trkpt lat="41.53939" lon="9.28056">
        <ele>76</ele>
        <time>2008-05-30T16:23:13+02:00</time>
      </trkpt>
      <trkpt lat="41.53933" lon="9.28052">
        <ele>76</ele>
        <time>2008-05-30T16:23:14+02:00</time>
      </trkpt>
      <trkpt lat="41.5389" lon="9.28026">
        <ele>76</ele>
        <time>2008-05-30T16:23:23+02:00</time>
      </trkpt>
      <trkpt lat="41.53872" lon="9.28012">
        <ele>76</ele>
        <time>2008-05-30T16:23:28+02:00</time>
      </trkpt>
      <trkpt lat="41.53869" lon="9.2801">
        <ele>76</ele>
        <time>2008-05-30T16:23:29+02:00</time>
      </trkpt>
      <trkpt lat="41.53844" lon="9.27988">
        <ele>74</ele>
        <time>2008-05-30T16:23:37+02:00</time>
      </trkpt>
      <trkpt lat="41.53837" lon="9.27979">
        <ele>73</ele>
        <time>2008-05-30T16:23:39+02:00</time>
      </trkpt>
      <trkpt lat="41.53823" lon="9.27944">
        <ele>69</ele>
        <time>2008-05-30T16:23:44+02:00</time>
      </trkpt>
      <trkpt lat="41.53809" lon="9.27908">
        <ele>66</ele>
        <time>2008-05-30T16:23:48+02:00</time>
      </trkpt>
      <trkpt lat="41.5379" lon="9.27886">
        <ele>64</ele>
        <time>2008-05-30T16:23:52+02:00</time>
      </trkpt>
      <trkpt lat="41.53768" lon="9.27886">
        <ele>63</ele>
        <time>2008-05-30T16:23:56+02:00</time>
      </trkpt>
      <trkpt lat="41.53751" lon="9.27893">
        <ele>63</ele>
        <time>2008-05-30T16:23:59+02:00</time>
      </trkpt>
      <trkpt lat="41.53725" lon="9.2791">
        <ele>57</ele>
        <time>2008-05-30T16:24:05+02:00</time>
      </trkpt>
      <trkpt lat="41.537" lon="9.27928">
        <ele>55</ele>
        <time>2008-05-30T16:24:10+02:00</time>
      </trkpt>
      <trkpt lat="41.53681" lon="9.27943">
        <ele>54</ele>
        <time>2008-05-30T16:24:13+02:00</time>
      </trkpt>
      <trkpt lat="41.53644" lon="9.27959">
        <ele>46</ele>
        <time>2008-05-30T16:24:19+02:00</time>
      </trkpt>
      <trkpt lat="41.53614" lon="9.27954">
        <ele>44</ele>
        <time>2008-05-30T16:24:23+02:00</time>
      </trkpt>
      <trkpt lat="41.53607" lon="9.27949">
        <ele>43</ele>
        <time>2008-05-30T16:24:24+02:00</time>
      </trkpt>
      <trkpt lat="41.53585" lon="9.27931">
        <ele>42</ele>
        <time>2008-05-30T16:24:27+02:00</time>
      </trkpt>
      <trkpt lat="41.53551" lon="9.27925">
        <ele>36</ele>
        <time>2008-05-30T16:24:31+02:00</time>
      </trkpt>
      <trkpt lat="41.5353" lon="9.27943">
        <ele>34</ele>
        <time>2008-05-30T16:24:34+02:00</time>
      </trkpt>
      <trkpt lat="41.53523" lon="9.27961">
        <ele>33</ele>
        <time>2008-05-30T16:24:36+02:00</time>
      </trkpt>
      <trkpt lat="41.53519" lon="9.27978">
        <ele>32</ele>
        <time>2008-05-30T16:24:38+02:00</time>
      </trkpt>
      <trkpt lat="41.53508" lon="9.28015">
        <ele>27</ele>
        <time>2008-05-30T16:24:42+02:00</time>
      </trkpt>
      <trkpt lat="41.53486" lon="9.28036">
        <ele>20</ele>
        <time>2008-05-30T16:24:45+02:00</time>
      </trkpt>
      <trkpt lat="41.53462" lon="9.28035">
        <ele>20</ele>
        <time>2008-05-30T16:24:48+02:00</time>
      </trkpt>
      <trkpt lat="41.53434" lon="9.28015">
        <ele>19</ele>
        <time>2008-05-30T16:24:52+02:00</time>
      </trkpt>
      <trkpt lat="41.53408" lon="9.28008">
        <ele>16</ele>
        <time>2008-05-30T16:24:55+02:00</time>
      </trkpt>
      <trkpt lat="41.5339" lon="9.28012">
        <ele>13</ele>
        <time>2008-05-30T16:24:57+02:00</time>
      </trkpt>
      <trkpt lat="41.5335" lon="9.28029">
        <ele>10</ele>
        <time>2008-05-30T16:25:02+02:00</time>
      </trkpt>
      <trkpt lat="41.5333" lon="9.28039">
        <ele>5</ele>
        <time>2008-05-30T16:25:06+02:00</time>
      </trkpt>
      <trkpt lat="41.53322" lon="9.2803">
        <ele>5</ele>
        <time>2008-05-30T16:25:10+02:00</time>
      </trkpt>
      <trkpt lat="41.53323" lon="9.28025">
        <ele>5</ele>
        <time>2008-05-30T16:25:11+02:00</time>
      </trkpt>
      <trkpt lat="41.53336" lon="9.27976">
        <ele>10</ele>
        <time>2008-05-30T16:25:20+02:00</time>
      </trkpt>
      <trkpt lat="41.5334" lon="9.27967">
        <ele>10</ele>
        <time>2008-05-30T16:25:22+02:00</time>
      </trkpt>
      <trkpt lat="41.53342" lon="9.27954">
        <ele>10</ele>
        <time>2008-05-30T16:25:28+02:00</time>
      </trkpt>
      <trkpt lat="41.53347" lon="9.27938">
        <ele>10</ele>
        <time>2008-05-30T16:25:33+02:00</time>
      </trkpt>
      <trkpt lat="41.53349" lon="9.27922">
        <ele>9</ele>
        <time>2008-05-30T16:25:37+02:00</time>
      </trkpt>
      <trkpt lat="41.53357" lon="9.27887">
        <ele>10</ele>
        <time>2008-05-30T16:25:46+02:00</time>
      </trkpt>
      <trkpt lat="41.53365" lon="9.27856">
        <ele>10</ele>
        <time>2008-05-30T16:25:53+02:00</time>
      </trkpt>
      <trkpt lat="41.53366" lon="9.27827">
        <ele>9</ele>
        <time>2008-05-30T16:25:59+02:00</time>
      </trkpt>
      <trkpt lat="41.53367" lon="9.27797">
        <ele>9</ele>
        <time>2008-05-30T16:26:05+02:00</time>
      </trkpt>
      <trkpt lat="41.53367" lon="9.27775">
        <ele>9</ele>
        <time>2008-05-30T16:26:11+02:00</time>
      </trkpt>
      <trkpt lat="41.53368" lon="9.27756">
        <ele>8</ele>
        <time>2008-05-30T16:26:16+02:00</time>
      </trkpt>
      <trkpt lat="41.53369" lon="9.27738">
        <ele>7</ele>
        <time>2008-05-30T16:26:22+02:00</time>
      </trkpt>
      <trkpt lat="41.5336" lon="9.27732">
        <ele>7</ele>
        <time>2008-05-30T16:26:27+02:00</time>
      </trkpt>
      <trkpt lat="41.53342" lon="9.27728">
        <ele>6</ele>
        <time>2008-05-30T16:26:32+02:00</time>
      </trkpt>
      <trkpt lat="41.53327" lon="9.27713">
        <ele>5</ele>
        <time>2008-05-30T16:26:38+02:00</time>
      </trkpt>
      <trkpt lat="41.53317" lon="9.27684">
        <ele>5</ele>
        <time>2008-05-30T16:26:45+02:00</time>
      </trkpt>
      <trkpt lat="41.5331" lon="9.27674">
        <ele>5</ele>
        <time>2008-05-30T16:26:49+02:00</time>
      </trkpt>
      <trkpt lat="41.53304" lon="9.27657">
        <ele>4</ele>
        <time>2008-05-30T16:26:54+02:00</time>
      </trkpt>
      <trkpt lat="41.53301" lon="9.27636">
        <ele>4</ele>
        <time>2008-05-30T16:27:00+02:00</time>
      </trkpt>
      <trkpt lat="41.53299" lon="9.27631">
        <ele>4</ele>
        <time>2008-05-30T16:27:02+02:00</time>
      </trkpt>
      <trkpt lat="41.53288" lon="9.27628">
        <ele>4</ele>
        <time>2008-05-30T16:27:07+02:00</time>
      </trkpt>
      <trkpt lat="41.53286" lon="9.2763">
        <ele>4</ele>
        <time>2008-05-30T16:27:08+02:00</time>
      </trkpt>
      <trkpt lat="41.53272" lon="9.27636">
        <ele>4</ele>
        <time>2008-05-30T16:27:13+02:00</time>
      </trkpt>
      <trkpt lat="41.53254" lon="9.27638">
        <ele>3</ele>
        <time>2008-05-30T16:27:19+02:00</time>
      </trkpt>
      <trkpt lat="41.53202" lon="9.27636">
        <ele>2</ele>
        <time>2008-05-30T16:28:08+02:00</time>
      </trkpt>
      <trkpt lat="41.532" lon="9.27636">
        <ele>2</ele>
        <time>2008-05-30T16:28:14+02:00</time>
      </trkpt>
      <trkpt lat="41.53199" lon="9.27643">
        <ele>2</ele>
        <time>2008-05-30T16:28:52+02:00</time>
      </trkpt>
      <trkpt lat="41.53198" lon="9.2765">
        <ele>2</ele>
        <time>2008-05-30T16:28:59+02:00</time>
      </trkpt>
      <trkpt lat="41.53204" lon="9.27653">
        <ele>2</ele>
        <time>2008-05-30T16:29:07+02:00</time>
      </trkpt>
      <trkpt lat="41.53204" lon="9.27653">
        <ele>2</ele>
        <time>2008-05-30T16:29:10+02:00</time>
      </trkpt>
      <trkpt lat="41.53203" lon="9.27656">
        <ele>2</ele>
        <time>2008-05-30T18:32:15+02:00</time>
      </trkpt>
      <trkpt lat="41.53203" lon="9.27656">
        <ele>2</ele>
        <time>2008-05-30T18:32:16+02:00</time>
      </trkpt>
      <trkpt lat="41.53209" lon="9.27659">
        <ele>2</ele>
        <time>2008-05-30T18:32:20+02:00</time>
      </trkpt>
      <trkpt lat="41.53214" lon="9.27664">
        <ele>2</ele>
        <time>2008-05-30T18:32:24+02:00</time>
      </trkpt>
      <trkpt lat="41.53221" lon="9.27666">
        <ele>2</ele>
        <time>2008-05-30T18:32:30+02:00</time>
      </trkpt>
      <trkpt lat="41.53227" lon="9.27666">
        <ele>2</ele>
        <time>2008-05-30T18:32:33+02:00</time>
      </trkpt>
      <trkpt lat="41.53235" lon="9.27653">
        <ele>2</ele>
        <time>2008-05-30T18:32:41+02:00</time>
      </trkpt>
      <trkpt lat="41.53246" lon="9.27646">
        <ele>2</ele>
        <time>2008-05-30T18:32:47+02:00</time>
      </trkpt>
      <trkpt lat="41.53261" lon="9.27644">
        <ele>3</ele>
        <time>2008-05-30T18:32:54+02:00</time>
      </trkpt>
      <trkpt lat="41.53279" lon="9.27634">
        <ele>4</ele>
        <time>2008-05-30T18:33:01+02:00</time>
      </trkpt>
      <trkpt lat="41.53288" lon="9.27625">
        <ele>4</ele>
        <time>2008-05-30T18:33:06+02:00</time>
      </trkpt>
      <trkpt lat="41.53298" lon="9.27638">
        <ele>4</ele>
        <time>2008-05-30T18:33:12+02:00</time>
      </trkpt>
      <trkpt lat="41.53302" lon="9.27659">
        <ele>4</ele>
        <time>2008-05-30T18:33:18+02:00</time>
      </trkpt>
      <trkpt lat="41.53308" lon="9.27687">
        <ele>4</ele>
        <time>2008-05-30T18:33:25+02:00</time>
      </trkpt>
      <trkpt lat="41.53315" lon="9.27701">
        <ele>5</ele>
        <time>2008-05-30T18:33:30+02:00</time>
      </trkpt>
      <trkpt lat="41.53327" lon="9.27725">
        <ele>5</ele>
        <time>2008-05-30T18:33:38+02:00</time>
      </trkpt>
      <trkpt lat="41.53336" lon="9.27733">
        <ele>6</ele>
        <time>2008-05-30T18:33:43+02:00</time>
      </trkpt>
      <trkpt lat="41.53351" lon="9.27735">
        <ele>6</ele>
        <time>2008-05-30T18:33:50+02:00</time>
      </trkpt>
      <trkpt lat="41.53359" lon="9.27735">
        <ele>7</ele>
        <time>2008-05-30T18:33:55+02:00</time>
      </trkpt>
      <trkpt lat="41.53362" lon="9.2775">
        <ele>8</ele>
        <time>2008-05-30T18:34:02+02:00</time>
      </trkpt>
      <trkpt lat="41.53361" lon="9.27763">
        <ele>8</ele>
        <time>2008-05-30T18:34:07+02:00</time>
      </trkpt>
      <trkpt lat="41.53363" lon="9.27782">
        <ele>9</ele>
        <time>2008-05-30T18:34:14+02:00</time>
      </trkpt>
      <trkpt lat="41.53362" lon="9.278">
        <ele>9</ele>
        <time>2008-05-30T18:34:21+02:00</time>
      </trkpt>
      <trkpt lat="41.53357" lon="9.27808">
        <ele>9</ele>
        <time>2008-05-30T18:34:26+02:00</time>
      </trkpt>
      <trkpt lat="41.53357" lon="9.2781">
        <ele>8</ele>
        <time>2008-05-30T18:34:29+02:00</time>
      </trkpt>
      <trkpt lat="41.53354" lon="9.27811">
        <ele>8</ele>
        <time>2008-05-30T18:34:45+02:00</time>
      </trkpt>
      <trkpt lat="41.53355" lon="9.27815">
        <ele>8</ele>
        <time>2008-05-30T18:34:59+02:00</time>
      </trkpt>
      <trkpt lat="41.53359" lon="9.27829">
        <ele>9</ele>
        <time>2008-05-30T18:35:06+02:00</time>
      </trkpt>
      <trkpt lat="41.53361" lon="9.27847">
        <ele>10</ele>
        <time>2008-05-30T18:35:13+02:00</time>
      </trkpt>
      <trkpt lat="41.53356" lon="9.2787">
        <ele>10</ele>
        <time>2008-05-30T18:35:19+02:00</time>
      </trkpt>
      <trkpt lat="41.53348" lon="9.27908">
        <ele>8</ele>
        <time>2008-05-30T18:35:27+02:00</time>
      </trkpt>
      <trkpt lat="41.53345" lon="9.27926">
        <ele>8</ele>
        <time>2008-05-30T18:35:32+02:00</time>
      </trkpt>
      <trkpt lat="41.53345" lon="9.27932">
        <ele>9</ele>
        <time>2008-05-30T18:35:36+02:00</time>
      </trkpt>
      <trkpt lat="41.53341" lon="9.27947">
        <ele>10</ele>
        <time>2008-05-30T18:35:42+02:00</time>
      </trkpt>
      <trkpt lat="41.5334" lon="9.27954">
        <ele>10</ele>
        <time>2008-05-30T18:35:44+02:00</time>
      </trkpt>
      <trkpt lat="41.53332" lon="9.27981">
        <ele>6</ele>
        <time>2008-05-30T18:35:52+02:00</time>
      </trkpt>
      <trkpt lat="41.53326" lon="9.28003">
        <ele>6</ele>
        <time>2008-05-30T18:35:58+02:00</time>
      </trkpt>
      <trkpt lat="41.53321" lon="9.28031">
        <ele>5</ele>
        <time>2008-05-30T18:36:05+02:00</time>
      </trkpt>
      <trkpt lat="41.5332" lon="9.28038">
        <ele>5</ele>
        <time>2008-05-30T18:36:07+02:00</time>
      </trkpt>
      <trkpt lat="41.53327" lon="9.28045">
        <ele>5</ele>
        <time>2008-05-30T18:36:11+02:00</time>
      </trkpt>
      <trkpt lat="41.53336" lon="9.28042">
        <ele>9</ele>
        <time>2008-05-30T18:36:17+02:00</time>
      </trkpt>
      <trkpt lat="41.53338" lon="9.28042">
        <ele>9</ele>
        <time>2008-05-30T18:36:19+02:00</time>
      </trkpt>
      <trkpt lat="41.53342" lon="9.28044">
        <ele>9</ele>
        <time>2008-05-30T18:36:27+02:00</time>
      </trkpt>
      <trkpt lat="41.53342" lon="9.28044">
        <ele>9</ele>
        <time>2008-05-30T18:36:41+02:00</time>
      </trkpt>
      <trkpt lat="41.53343" lon="9.28039">
        <ele>10</ele>
        <time>2008-05-30T18:36:52+02:00</time>
      </trkpt>
      <trkpt lat="41.53345" lon="9.28037">
        <ele>10</ele>
        <time>2008-05-30T18:36:53+02:00</time>
      </trkpt>
      <trkpt lat="41.53354" lon="9.28033">
        <ele>10</ele>
        <time>2008-05-30T18:36:59+02:00</time>
      </trkpt>
      <trkpt lat="41.53364" lon="9.28028">
        <ele>11</ele>
        <time>2008-05-30T18:37:06+02:00</time>
      </trkpt>
      <trkpt lat="41.53376" lon="9.28021">
        <ele>12</ele>
        <time>2008-05-30T18:37:14+02:00</time>
      </trkpt>
      <trkpt lat="41.53386" lon="9.28016">
        <ele>13</ele>
        <time>2008-05-30T18:37:21+02:00</time>
      </trkpt>
      <trkpt lat="41.53395" lon="9.28013">
        <ele>14</ele>
        <time>2008-05-30T18:37:27+02:00</time>
      </trkpt>
      <trkpt lat="41.53406" lon="9.28012">
        <ele>15</ele>
        <time>2008-05-30T18:37:34+02:00</time>
      </trkpt>
      <trkpt lat="41.53417" lon="9.28011">
        <ele>19</ele>
        <time>2008-05-30T18:37:41+02:00</time>
      </trkpt>
      <trkpt lat="41.53426" lon="9.28014">
        <ele>19</ele>
        <time>2008-05-30T18:37:47+02:00</time>
      </trkpt>
      <trkpt lat="41.53437" lon="9.28022">
        <ele>19</ele>
        <time>2008-05-30T18:37:56+02:00</time>
      </trkpt>
      <trkpt lat="41.53447" lon="9.28029">
        <ele>19</ele>
        <time>2008-05-30T18:38:04+02:00</time>
      </trkpt>
      <trkpt lat="41.53458" lon="9.28037">
        <ele>19</ele>
        <time>2008-05-30T18:38:12+02:00</time>
      </trkpt>
      <trkpt lat="41.5347" lon="9.28041">
        <ele>19</ele>
        <time>2008-05-30T18:38:20+02:00</time>
      </trkpt>
      <trkpt lat="41.53481" lon="9.28041">
        <ele>20</ele>
        <time>2008-05-30T18:38:27+02:00</time>
      </trkpt>
      <trkpt lat="41.53493" lon="9.28036">
        <ele>21</ele>
        <time>2008-05-30T18:38:35+02:00</time>
      </trkpt>
      <trkpt lat="41.53503" lon="9.28026">
        <ele>27</ele>
        <time>2008-05-30T18:38:43+02:00</time>
      </trkpt>
      <trkpt lat="41.53511" lon="9.28015">
        <ele>27</ele>
        <time>2008-05-30T18:38:51+02:00</time>
      </trkpt>
      <trkpt lat="41.53517" lon="9.28001">
        <ele>28</ele>
        <time>2008-05-30T18:38:59+02:00</time>
      </trkpt>
      <trkpt lat="41.5352" lon="9.27983">
        <ele>32</ele>
        <time>2008-05-30T18:39:07+02:00</time>
      </trkpt>
      <trkpt lat="41.53524" lon="9.27963">
        <ele>33</ele>
        <time>2008-05-30T18:39:16+02:00</time>
      </trkpt>
      <trkpt lat="41.53528" lon="9.2795">
        <ele>34</ele>
        <time>2008-05-30T18:39:22+02:00</time>
      </trkpt>
      <trkpt lat="41.53533" lon="9.27945">
        <ele>34</ele>
        <time>2008-05-30T18:39:26+02:00</time>
      </trkpt>
      <trkpt lat="41.53545" lon="9.27935">
        <ele>35</ele>
        <time>2008-05-30T18:39:35+02:00</time>
      </trkpt>
      <trkpt lat="41.53556" lon="9.27931">
        <ele>36</ele>
        <time>2008-05-30T18:39:42+02:00</time>
      </trkpt>
      <trkpt lat="41.53566" lon="9.27931">
        <ele>37</ele>
        <time>2008-05-30T18:39:49+02:00</time>
      </trkpt>
      <trkpt lat="41.53572" lon="9.27932">
        <ele>37</ele>
        <time>2008-05-30T18:39:53+02:00</time>
      </trkpt>
      <trkpt lat="41.53578" lon="9.27935">
        <ele>37</ele>
        <time>2008-05-30T18:39:57+02:00</time>
      </trkpt>
      <trkpt lat="41.53588" lon="9.27944">
        <ele>43</ele>
        <time>2008-05-30T18:40:06+02:00</time>
      </trkpt>
      <trkpt lat="41.53597" lon="9.2795">
        <ele>43</ele>
        <time>2008-05-30T18:40:13+02:00</time>
      </trkpt>
      <trkpt lat="41.53606" lon="9.27955">
        <ele>43</ele>
        <time>2008-05-30T18:40:21+02:00</time>
      </trkpt>
      <trkpt lat="41.53616" lon="9.27962">
        <ele>44</ele>
        <time>2008-05-30T18:40:29+02:00</time>
      </trkpt>
      <trkpt lat="41.53625" lon="9.27965">
        <ele>44</ele>
        <time>2008-05-30T18:40:36+02:00</time>
      </trkpt>
      <trkpt lat="41.53637" lon="9.27966">
        <ele>45</ele>
        <time>2008-05-30T18:40:44+02:00</time>
      </trkpt>
      <trkpt lat="41.53644" lon="9.27965">
        <ele>46</ele>
        <time>2008-05-30T18:40:49+02:00</time>
      </trkpt>
      <trkpt lat="41.53647" lon="9.27963">
        <ele>46</ele>
        <time>2008-05-30T18:40:55+02:00</time>
      </trkpt>
      <trkpt lat="41.53661" lon="9.27961">
        <ele>46</ele>
        <time>2008-05-30T18:41:04+02:00</time>
      </trkpt>
      <trkpt lat="41.53671" lon="9.27955">
        <ele>53</ele>
        <time>2008-05-30T18:41:11+02:00</time>
      </trkpt>
      <trkpt lat="41.53684" lon="9.27947">
        <ele>54</ele>
        <time>2008-05-30T18:41:20+02:00</time>
      </trkpt>
      <trkpt lat="41.53694" lon="9.27941">
        <ele>54</ele>
        <time>2008-05-30T18:41:27+02:00</time>
      </trkpt>
      <trkpt lat="41.53702" lon="9.27934">
        <ele>55</ele>
        <time>2008-05-30T18:41:34+02:00</time>
      </trkpt>
      <trkpt lat="41.5371" lon="9.27929">
        <ele>56</ele>
        <time>2008-05-30T18:41:40+02:00</time>
      </trkpt>
      <trkpt lat="41.53723" lon="9.2792">
        <ele>57</ele>
        <time>2008-05-30T18:41:50+02:00</time>
      </trkpt>
      <trkpt lat="41.53734" lon="9.27912">
        <ele>58</ele>
        <time>2008-05-30T18:41:58+02:00</time>
      </trkpt>
      <trkpt lat="41.53744" lon="9.27904">
        <ele>59</ele>
        <time>2008-05-30T18:42:05+02:00</time>
      </trkpt>
      <trkpt lat="41.53756" lon="9.27898">
        <ele>63</ele>
        <time>2008-05-30T18:42:13+02:00</time>
      </trkpt>
      <trkpt lat="41.53766" lon="9.27892">
        <ele>63</ele>
        <time>2008-05-30T18:42:21+02:00</time>
      </trkpt>
      <trkpt lat="41.53781" lon="9.2789">
        <ele>63</ele>
        <time>2008-05-30T18:42:31+02:00</time>
      </trkpt>
      <trkpt lat="41.53792" lon="9.27893">
        <ele>64</ele>
        <time>2008-05-30T18:42:39+02:00</time>
      </trkpt>
      <trkpt lat="41.53803" lon="9.27899">
        <ele>65</ele>
        <time>2008-05-30T18:42:47+02:00</time>
      </trkpt>
      <trkpt lat="41.5381" lon="9.27911">
        <ele>66</ele>
        <time>2008-05-30T18:42:55+02:00</time>
      </trkpt>
      <trkpt lat="41.53815" lon="9.27922">
        <ele>69</ele>
        <time>2008-05-30T18:43:02+02:00</time>
      </trkpt>
      <trkpt lat="41.53818" lon="9.27934">
        <ele>69</ele>
        <time>2008-05-30T18:43:09+02:00</time>
      </trkpt>
      <trkpt lat="41.53823" lon="9.27953">
        <ele>69</ele>
        <time>2008-05-30T18:43:19+02:00</time>
      </trkpt>
      <trkpt lat="41.5383" lon="9.2797">
        <ele>70</ele>
        <time>2008-05-30T18:43:29+02:00</time>
      </trkpt>
      <trkpt lat="41.53837" lon="9.27986">
        <ele>74</ele>
        <time>2008-05-30T18:43:38+02:00</time>
      </trkpt>
      <trkpt lat="41.53847" lon="9.27998">
        <ele>74</ele>
        <time>2008-05-30T18:43:45+02:00</time>
      </trkpt>
      <trkpt lat="41.53863" lon="9.28013">
        <ele>76</ele>
        <time>2008-05-30T18:43:53+02:00</time>
      </trkpt>
      <trkpt lat="41.53881" lon="9.28025">
        <ele>76</ele>
        <time>2008-05-30T18:43:59+02:00</time>
      </trkpt>
      <trkpt lat="41.53893" lon="9.28038">
        <ele>77</ele>
        <time>2008-05-30T18:44:04+02:00</time>
      </trkpt>
      <trkpt lat="41.53896" lon="9.28043">
        <ele>77</ele>
        <time>2008-05-30T18:44:10+02:00</time>
      </trkpt>
      <trkpt lat="41.53898" lon="9.28044">
        <ele>77</ele>
        <time>2008-05-30T18:44:19+02:00</time>
      </trkpt>
      <trkpt lat="41.53908" lon="9.28048">
        <ele>77</ele>
        <time>2008-05-30T18:44:23+02:00</time>
      </trkpt>
      <trkpt lat="41.53933" lon="9.28057">
        <ele>77</ele>
        <time>2008-05-30T18:44:29+02:00</time>
      </trkpt>
      <trkpt lat="41.53942" lon="9.28062">
        <ele>77</ele>
        <time>2008-05-30T18:44:31+02:00</time>
      </trkpt>
      <trkpt lat="41.53964" lon="9.28063">
        <ele>76</ele>
        <time>2008-05-30T18:44:36+02:00</time>
      </trkpt>
      <trkpt lat="41.54002" lon="9.28048">
        <ele>74</ele>
        <time>2008-05-30T18:44:44+02:00</time>
      </trkpt>
      <trkpt lat="41.54027" lon="9.2804">
        <ele>74</ele>
        <time>2008-05-30T18:44:51+02:00</time>
      </trkpt>
      <trkpt lat="41.54057" lon="9.28032">
        <ele>74</ele>
        <time>2008-05-30T18:44:59+02:00</time>
      </trkpt>
      <trkpt lat="41.54067" lon="9.28032">
        <ele>73</ele>
        <time>2008-05-30T18:45:01+02:00</time>
      </trkpt>
      <trkpt lat="41.54088" lon="9.2805">
        <ele>73</ele>
        <time>2008-05-30T18:45:05+02:00</time>
      </trkpt>
      <trkpt lat="41.54093" lon="9.28057">
        <ele>73</ele>
        <time>2008-05-30T18:45:06+02:00</time>
      </trkpt>
      <trkpt lat="41.54121" lon="9.28102">
        <ele>76</ele>
        <time>2008-05-30T18:45:13+02:00</time>
      </trkpt>
      <trkpt lat="41.54136" lon="9.28123">
        <ele>76</ele>
        <time>2008-05-30T18:45:18+02:00</time>
      </trkpt>
      <trkpt lat="41.54147" lon="9.2813">
        <ele>76</ele>
        <time>2008-05-30T18:45:21+02:00</time>
      </trkpt>
      <trkpt lat="41.5418" lon="9.28138">
        <ele>78</ele>
        <time>2008-05-30T18:45:28+02:00</time>
      </trkpt>
      <trkpt lat="41.54224" lon="9.2814">
        <ele>79</ele>
        <time>2008-05-30T18:45:37+02:00</time>
      </trkpt>
      <trkpt lat="41.54267" lon="9.2814">
        <ele>79</ele>
        <time>2008-05-30T18:45:46+02:00</time>
      </trkpt>
      <trkpt lat="41.54291" lon="9.28139">
        <ele>79</ele>
        <time>2008-05-30T18:45:53+02:00</time>
      </trkpt>
      <trkpt lat="41.54315" lon="9.28138">
        <ele>79</ele>
        <time>2008-05-30T18:46:01+02:00</time>
      </trkpt>
      <trkpt lat="41.54336" lon="9.28139">
        <ele>78</ele>
        <time>2008-05-30T18:46:07+02:00</time>
      </trkpt>
      <trkpt lat="41.54354" lon="9.28149">
        <ele>78</ele>
        <time>2008-05-30T18:46:11+02:00</time>
      </trkpt>
      <trkpt lat="41.54365" lon="9.28167">
        <ele>80</ele>
        <time>2008-05-30T18:46:15+02:00</time>
      </trkpt>
      <trkpt lat="41.54376" lon="9.28182">
        <ele>79</ele>
        <time>2008-05-30T18:46:20+02:00</time>
      </trkpt>
      <trkpt lat="41.54384" lon="9.28202">
        <ele>79</ele>
        <time>2008-05-30T18:46:26+02:00</time>
      </trkpt>
      <trkpt lat="41.54389" lon="9.28229">
        <ele>79</ele>
        <time>2008-05-30T18:46:32+02:00</time>
      </trkpt>
      <trkpt lat="41.54396" lon="9.28245">
        <ele>79</ele>
        <time>2008-05-30T18:46:38+02:00</time>
      </trkpt>
      <trkpt lat="41.54415" lon="9.28263">
        <ele>77</ele>
        <time>2008-05-30T18:46:44+02:00</time>
      </trkpt>
      <trkpt lat="41.5443" lon="9.28274">
        <ele>77</ele>
        <time>2008-05-30T18:46:48+02:00</time>
      </trkpt>
      <trkpt lat="41.5445" lon="9.28285">
        <ele>76</ele>
        <time>2008-05-30T18:46:52+02:00</time>
      </trkpt>
      <trkpt lat="41.54473" lon="9.2831">
        <ele>75</ele>
        <time>2008-05-30T18:46:56+02:00</time>
      </trkpt>
      <trkpt lat="41.54483" lon="9.28327">
        <ele>73</ele>
        <time>2008-05-30T18:46:58+02:00</time>
      </trkpt>
      <trkpt lat="41.54514" lon="9.28354">
        <ele>71</ele>
        <time>2008-05-30T18:47:02+02:00</time>
      </trkpt>
      <trkpt lat="41.5453" lon="9.28364">
        <ele>71</ele>
        <time>2008-05-30T18:47:04+02:00</time>
      </trkpt>
      <trkpt lat="41.54551" lon="9.28396">
        <ele>70</ele>
        <time>2008-05-30T18:47:08+02:00</time>
      </trkpt>
      <trkpt lat="41.54548" lon="9.28431">
        <ele>65</ele>
        <time>2008-05-30T18:47:11+02:00</time>
      </trkpt>
      <trkpt lat="41.54536" lon="9.28451">
        <ele>64</ele>
        <time>2008-05-30T18:47:13+02:00</time>
      </trkpt>
      <trkpt lat="41.54532" lon="9.28481">
        <ele>63</ele>
        <time>2008-05-30T18:47:16+02:00</time>
      </trkpt>
      <trkpt lat="41.54529" lon="9.28509">
        <ele>61</ele>
        <time>2008-05-30T18:47:19+02:00</time>
      </trkpt>
      <trkpt lat="41.54526" lon="9.28517">
        <ele>61</ele>
        <time>2008-05-30T18:47:20+02:00</time>
      </trkpt>
      <trkpt lat="41.54516" lon="9.28558">
        <ele>61</ele>
        <time>2008-05-30T18:47:25+02:00</time>
      </trkpt>
      <trkpt lat="41.54516" lon="9.28582">
        <ele>60</ele>
        <time>2008-05-30T18:47:28+02:00</time>
      </trkpt>
      <trkpt lat="41.54522" lon="9.28605">
        <ele>61</ele>
        <time>2008-05-30T18:47:32+02:00</time>
      </trkpt>
      <trkpt lat="41.54528" lon="9.28627">
        <ele>62</ele>
        <time>2008-05-30T18:47:36+02:00</time>
      </trkpt>
      <trkpt lat="41.5453" lon="9.28663">
        <ele>62</ele>
        <time>2008-05-30T18:47:41+02:00</time>
      </trkpt>
      <trkpt lat="41.54522" lon="9.28687">
        <ele>59</ele>
        <time>2008-05-30T18:47:44+02:00</time>
      </trkpt>
      <trkpt lat="41.54527" lon="9.28716">
        <ele>58</ele>
        <time>2008-05-30T18:47:47+02:00</time>
      </trkpt>
      <trkpt lat="41.5455" lon="9.28742">
        <ele>58</ele>
        <time>2008-05-30T18:47:50+02:00</time>
      </trkpt>
      <trkpt lat="41.5457" lon="9.28783">
        <ele>54</ele>
        <time>2008-05-30T18:47:54+02:00</time>
      </trkpt>
      <trkpt lat="41.54585" lon="9.28815">
        <ele>56</ele>
        <time>2008-05-30T18:47:57+02:00</time>
      </trkpt>
      <trkpt lat="41.54599" lon="9.2883">
        <ele>56</ele>
        <time>2008-05-30T18:47:59+02:00</time>
      </trkpt>
      <trkpt lat="41.54637" lon="9.28876">
        <ele>56</ele>
        <time>2008-05-30T18:48:05+02:00</time>
      </trkpt>
      <trkpt lat="41.54642" lon="9.28907">
        <ele>57</ele>
        <time>2008-05-30T18:48:09+02:00</time>
      </trkpt>
      <trkpt lat="41.54632" lon="9.28916">
        <ele>55</ele>
        <time>2008-05-30T18:48:11+02:00</time>
      </trkpt>
      <trkpt lat="41.54621" lon="9.28938">
        <ele>53</ele>
        <time>2008-05-30T18:48:14+02:00</time>
      </trkpt>
      <trkpt lat="41.54618" lon="9.28954">
        <ele>53</ele>
        <time>2008-05-30T18:48:16+02:00</time>
      </trkpt>
      <trkpt lat="41.54616" lon="9.28979">
        <ele>53</ele>
        <time>2008-05-30T18:48:19+02:00</time>
      </trkpt>
      <trkpt lat="41.54605" lon="9.29008">
        <ele>54</ele>
        <time>2008-05-30T18:48:23+02:00</time>
      </trkpt>
      <trkpt lat="41.54587" lon="9.29014">
        <ele>53</ele>
        <time>2008-05-30T18:48:26+02:00</time>
      </trkpt>
      <trkpt lat="41.54565" lon="9.29018">
        <ele>51</ele>
        <time>2008-05-30T18:48:30+02:00</time>
      </trkpt>
      <trkpt lat="41.54553" lon="9.29028">
        <ele>52</ele>
        <time>2008-05-30T18:48:33+02:00</time>
      </trkpt>
      <trkpt lat="41.5453" lon="9.2906">
        <ele>53</ele>
        <time>2008-05-30T18:48:42+02:00</time>
      </trkpt>
      <trkpt lat="41.54515" lon="9.29079">
        <ele>54</ele>
        <time>2008-05-30T18:48:48+02:00</time>
      </trkpt>
      <trkpt lat="41.54497" lon="9.29089">
        <ele>57</ele>
        <time>2008-05-30T18:48:54+02:00</time>
      </trkpt>
      <trkpt lat="41.54471" lon="9.29094">
        <ele>60</ele>
        <time>2008-05-30T18:49:02+02:00</time>
      </trkpt>
      <trkpt lat="41.54445" lon="9.29097">
        <ele>61</ele>
        <time>2008-05-30T18:49:09+02:00</time>
      </trkpt>
      <trkpt lat="41.54419" lon="9.29098">
        <ele>60</ele>
        <time>2008-05-30T18:49:16+02:00</time>
      </trkpt>
      <trkpt lat="41.54404" lon="9.29089">
        <ele>60</ele>
        <time>2008-05-30T18:49:20+02:00</time>
      </trkpt>
      <trkpt lat="41.54391" lon="9.29074">
        <ele>56</ele>
        <time>2008-05-30T18:49:25+02:00</time>
      </trkpt>
      <trkpt lat="41.54373" lon="9.29067">
        <ele>56</ele>
        <time>2008-05-30T18:49:31+02:00</time>
      </trkpt>
      <trkpt lat="41.54355" lon="9.29068">
        <ele>57</ele>
        <time>2008-05-30T18:49:37+02:00</time>
      </trkpt>
      <trkpt lat="41.54342" lon="9.29078">
        <ele>59</ele>
        <time>2008-05-30T18:49:44+02:00</time>
      </trkpt>
      <trkpt lat="41.54334" lon="9.29095">
        <ele>62</ele>
        <time>2008-05-30T18:49:50+02:00</time>
      </trkpt>
      <trkpt lat="41.54327" lon="9.29119">
        <ele>60</ele>
        <time>2008-05-30T18:49:56+02:00</time>
      </trkpt>
      <trkpt lat="41.54317" lon="9.29158">
        <ele>61</ele>
        <time>2008-05-30T18:50:03+02:00</time>
      </trkpt>
      <trkpt lat="41.54306" lon="9.29183">
        <ele>61</ele>
        <time>2008-05-30T18:50:07+02:00</time>
      </trkpt>
      <trkpt lat="41.54284" lon="9.29218">
        <ele>60</ele>
        <time>2008-05-30T18:50:14+02:00</time>
      </trkpt>
      <trkpt lat="41.5428" lon="9.29242">
        <ele>59</ele>
        <time>2008-05-30T18:50:19+02:00</time>
      </trkpt>
      <trkpt lat="41.54283" lon="9.29253">
        <ele>59</ele>
        <time>2008-05-30T18:50:21+02:00</time>
      </trkpt>
      <trkpt lat="41.54288" lon="9.29271">
        <ele>59</ele>
        <time>2008-05-30T18:50:24+02:00</time>
      </trkpt>
      <trkpt lat="41.54302" lon="9.29304">
        <ele>60</ele>
        <time>2008-05-30T18:50:30+02:00</time>
      </trkpt>
      <trkpt lat="41.54327" lon="9.29346">
        <ele>60</ele>
        <time>2008-05-30T18:50:38+02:00</time>
      </trkpt>
      <trkpt lat="41.54339" lon="9.29365">
        <ele>65</ele>
        <time>2008-05-30T18:50:41+02:00</time>
      </trkpt>
      <trkpt lat="41.54369" lon="9.29423">
        <ele>56</ele>
        <time>2008-05-30T18:50:49+02:00</time>
      </trkpt>
      <trkpt lat="41.54403" lon="9.29459">
        <ele>56</ele>
        <time>2008-05-30T18:50:55+02:00</time>
      </trkpt>
      <trkpt lat="41.54409" lon="9.29463">
        <ele>55</ele>
        <time>2008-05-30T18:50:56+02:00</time>
      </trkpt>
      <trkpt lat="41.5446" lon="9.29516">
        <ele>57</ele>
        <time>2008-05-30T18:51:06+02:00</time>
      </trkpt>
      <trkpt lat="41.54477" lon="9.29542">
        <ele>57</ele>
        <time>2008-05-30T18:51:10+02:00</time>
      </trkpt>
      <trkpt lat="41.54487" lon="9.2957">
        <ele>57</ele>
        <time>2008-05-30T18:51:15+02:00</time>
      </trkpt>
      <trkpt lat="41.54498" lon="9.29625">
        <ele>51</ele>
        <time>2008-05-30T18:51:24+02:00</time>
      </trkpt>
      <trkpt lat="41.54502" lon="9.29638">
        <ele>56</ele>
        <time>2008-05-30T18:51:26+02:00</time>
      </trkpt>
      <trkpt lat="41.54524" lon="9.29673">
        <ele>51</ele>
        <time>2008-05-30T18:51:32+02:00</time>
      </trkpt>
      <trkpt lat="41.54553" lon="9.29701">
        <ele>52</ele>
        <time>2008-05-30T18:51:37+02:00</time>
      </trkpt>
      <trkpt lat="41.54574" lon="9.2972">
        <ele>51</ele>
        <time>2008-05-30T18:51:40+02:00</time>
      </trkpt>
      <trkpt lat="41.54592" lon="9.29753">
        <ele>50</ele>
        <time>2008-05-30T18:51:44+02:00</time>
      </trkpt>
      <trkpt lat="41.5461" lon="9.29772">
        <ele>49</ele>
        <time>2008-05-30T18:51:48+02:00</time>
      </trkpt>
      <trkpt lat="41.54633" lon="9.29778">
        <ele>48</ele>
        <time>2008-05-30T18:51:52+02:00</time>
      </trkpt>
      <trkpt lat="41.54661" lon="9.2978">
        <ele>48</ele>
        <time>2008-05-30T18:51:56+02:00</time>
      </trkpt>
      <trkpt lat="41.54693" lon="9.29767">
        <ele>42</ele>
        <time>2008-05-30T18:52:00+02:00</time>
      </trkpt>
      <trkpt lat="41.54701" lon="9.2976">
        <ele>41</ele>
        <time>2008-05-30T18:52:01+02:00</time>
      </trkpt>
      <trkpt lat="41.54738" lon="9.29717">
        <ele>49</ele>
        <time>2008-05-30T18:52:06+02:00</time>
      </trkpt>
      <trkpt lat="41.54772" lon="9.29702">
        <ele>49</ele>
        <time>2008-05-30T18:52:10+02:00</time>
      </trkpt>
      <trkpt lat="41.54786" lon="9.29708">
        <ele>48</ele>
        <time>2008-05-30T18:52:12+02:00</time>
      </trkpt>
      <trkpt lat="41.5481" lon="9.2972">
        <ele>47</ele>
        <time>2008-05-30T18:52:16+02:00</time>
      </trkpt>
      <trkpt lat="41.54857" lon="9.29733">
        <ele>50</ele>
        <time>2008-05-30T18:52:23+02:00</time>
      </trkpt>
      <trkpt lat="41.54879" lon="9.2975">
        <ele>43</ele>
        <time>2008-05-30T18:52:27+02:00</time>
      </trkpt>
      <trkpt lat="41.54885" lon="9.29763">
        <ele>43</ele>
        <time>2008-05-30T18:52:29+02:00</time>
      </trkpt>
      <trkpt lat="41.54908" lon="9.29813">
        <ele>40</ele>
        <time>2008-05-30T18:52:37+02:00</time>
      </trkpt>
      <trkpt lat="41.54916" lon="9.29827">
        <ele>39</ele>
        <time>2008-05-30T18:52:39+02:00</time>
      </trkpt>
      <trkpt lat="41.54924" lon="9.29842">
        <ele>39</ele>
        <time>2008-05-30T18:52:41+02:00</time>
      </trkpt>
      <trkpt lat="41.54954" lon="9.29888">
        <ele>37</ele>
        <time>2008-05-30T18:52:47+02:00</time>
      </trkpt>
      <trkpt lat="41.54959" lon="9.29896">
        <ele>37</ele>
        <time>2008-05-30T18:52:48+02:00</time>
      </trkpt>
      <trkpt lat="41.54997" lon="9.29928">
        <ele>34</ele>
        <time>2008-05-30T18:52:54+02:00</time>
      </trkpt>
      <trkpt lat="41.55021" lon="9.29949">
        <ele>36</ele>
        <time>2008-05-30T18:52:59+02:00</time>
      </trkpt>
      <trkpt lat="41.55032" lon="9.29967">
        <ele>35</ele>
        <time>2008-05-30T18:53:04+02:00</time>
      </trkpt>
      <trkpt lat="41.5504" lon="9.29984">
        <ele>35</ele>
        <time>2008-05-30T18:53:11+02:00</time>
      </trkpt>
      <trkpt lat="41.55046" lon="9.30005">
        <ele>31</ele>
        <time>2008-05-30T18:53:18+02:00</time>
      </trkpt>
      <trkpt lat="41.55049" lon="9.30026">
        <ele>31</ele>
        <time>2008-05-30T18:53:24+02:00</time>
      </trkpt>
      <trkpt lat="41.55053" lon="9.30047">
        <ele>31</ele>
        <time>2008-05-30T18:53:31+02:00</time>
      </trkpt>
      <trkpt lat="41.55059" lon="9.30067">
        <ele>30</ele>
        <time>2008-05-30T18:53:36+02:00</time>
      </trkpt>
      <trkpt lat="41.55074" lon="9.30087">
        <ele>29</ele>
        <time>2008-05-30T18:53:41+02:00</time>
      </trkpt>
      <trkpt lat="41.55096" lon="9.30094">
        <ele>27</ele>
        <time>2008-05-30T18:53:45+02:00</time>
      </trkpt>
      <trkpt lat="41.55137" lon="9.30099">
        <ele>25</ele>
        <time>2008-05-30T18:53:50+02:00</time>
      </trkpt>
      <trkpt lat="41.55182" lon="9.30106">
        <ele>23</ele>
        <time>2008-05-30T18:53:55+02:00</time>
      </trkpt>
      <trkpt lat="41.55219" lon="9.30129">
        <ele>22</ele>
        <time>2008-05-30T18:53:59+02:00</time>
      </trkpt>
      <trkpt lat="41.55256" lon="9.30165">
        <ele>23</ele>
        <time>2008-05-30T18:54:04+02:00</time>
      </trkpt>
      <trkpt lat="41.5527" lon="9.30183">
        <ele>29</ele>
        <time>2008-05-30T18:54:07+02:00</time>
      </trkpt>
      <trkpt lat="41.55277" lon="9.30203">
        <ele>32</ele>
        <time>2008-05-30T18:54:11+02:00</time>
      </trkpt>
      <trkpt lat="41.55277" lon="9.30212">
        <ele>32</ele>
        <time>2008-05-30T18:54:13+02:00</time>
      </trkpt>
      <trkpt lat="41.55265" lon="9.30238">
        <ele>33</ele>
        <time>2008-05-30T18:54:23+02:00</time>
      </trkpt>
      <trkpt lat="41.55252" lon="9.30249">
        <ele>32</ele>
        <time>2008-05-30T18:54:31+02:00</time>
      </trkpt>
      <trkpt lat="41.55239" lon="9.30257">
        <ele>34</ele>
        <time>2008-05-30T18:54:39+02:00</time>
      </trkpt>
      <trkpt lat="41.55224" lon="9.30265">
        <ele>35</ele>
        <time>2008-05-30T18:54:47+02:00</time>
      </trkpt>
      <trkpt lat="41.55207" lon="9.30272">
        <ele>34</ele>
        <time>2008-05-30T18:54:56+02:00</time>
      </trkpt>
      <trkpt lat="41.55191" lon="9.30277">
        <ele>34</ele>
        <time>2008-05-30T18:55:04+02:00</time>
      </trkpt>
      <trkpt lat="41.55178" lon="9.30284">
        <ele>33</ele>
        <time>2008-05-30T18:55:11+02:00</time>
      </trkpt>
      <trkpt lat="41.55171" lon="9.30298">
        <ele>35</ele>
        <time>2008-05-30T18:55:16+02:00</time>
      </trkpt>
      <trkpt lat="41.55167" lon="9.30318">
        <ele>35</ele>
        <time>2008-05-30T18:55:20+02:00</time>
      </trkpt>
      <trkpt lat="41.55163" lon="9.30355">
        <ele>32</ele>
        <time>2008-05-30T18:55:25+02:00</time>
      </trkpt>
      <trkpt lat="41.5516" lon="9.30373">
        <ele>32</ele>
        <time>2008-05-30T18:55:27+02:00</time>
      </trkpt>
      <trkpt lat="41.55142" lon="9.30423">
        <ele>35</ele>
        <time>2008-05-30T18:55:33+02:00</time>
      </trkpt>
      <trkpt lat="41.55122" lon="9.30472">
        <ele>33</ele>
        <time>2008-05-30T18:55:38+02:00</time>
      </trkpt>
      <trkpt lat="41.55076" lon="9.30539">
        <ele>25</ele>
        <time>2008-05-30T18:55:45+02:00</time>
      </trkpt>
      <trkpt lat="41.55043" lon="9.30576">
        <ele>24</ele>
        <time>2008-05-30T18:55:50+02:00</time>
      </trkpt>
      <trkpt lat="41.55024" lon="9.30596">
        <ele>24</ele>
        <time>2008-05-30T18:55:53+02:00</time>
      </trkpt>
      <trkpt lat="41.55013" lon="9.30622">
        <ele>24</ele>
        <time>2008-05-30T18:55:57+02:00</time>
      </trkpt>
      <trkpt lat="41.55017" lon="9.3064">
        <ele>23</ele>
        <time>2008-05-30T18:56:00+02:00</time>
      </trkpt>
      <trkpt lat="41.55023" lon="9.30649">
        <ele>23</ele>
        <time>2008-05-30T18:56:02+02:00</time>
      </trkpt>
      <trkpt lat="41.55031" lon="9.3066">
        <ele>24</ele>
        <time>2008-05-30T18:56:05+02:00</time>
      </trkpt>
      <trkpt lat="41.55062" lon="9.30679">
        <ele>24</ele>
        <time>2008-05-30T18:56:14+02:00</time>
      </trkpt>
      <trkpt lat="41.55084" lon="9.30693">
        <ele>28</ele>
        <time>2008-05-30T18:56:20+02:00</time>
      </trkpt>
      <trkpt lat="41.55111" lon="9.30714">
        <ele>27</ele>
        <time>2008-05-30T18:56:29+02:00</time>
      </trkpt>
      <trkpt lat="41.55136" lon="9.30718">
        <ele>28</ele>
        <time>2008-05-30T18:56:36+02:00</time>
      </trkpt>
      <trkpt lat="41.55166" lon="9.30726">
        <ele>27</ele>
        <time>2008-05-30T18:56:43+02:00</time>
      </trkpt>
      <trkpt lat="41.55192" lon="9.30734">
        <ele>29</ele>
        <time>2008-05-30T18:56:47+02:00</time>
      </trkpt>
      <trkpt lat="41.55215" lon="9.30737">
        <ele>29</ele>
        <time>2008-05-30T18:56:50+02:00</time>
      </trkpt>
      <trkpt lat="41.55248" lon="9.30754">
        <ele>24</ele>
        <time>2008-05-30T18:56:54+02:00</time>
      </trkpt>
      <trkpt lat="41.55273" lon="9.30777">
        <ele>27</ele>
        <time>2008-05-30T18:56:58+02:00</time>
      </trkpt>
      <trkpt lat="41.55276" lon="9.308">
        <ele>27</ele>
        <time>2008-05-30T18:57:02+02:00</time>
      </trkpt>
      <trkpt lat="41.55265" lon="9.30822">
        <ele>24</ele>
        <time>2008-05-30T18:57:07+02:00</time>
      </trkpt>
      <trkpt lat="41.5526" lon="9.30856">
        <ele>22</ele>
        <time>2008-05-30T18:57:14+02:00</time>
      </trkpt>
      <trkpt lat="41.55262" lon="9.30869">
        <ele>22</ele>
        <time>2008-05-30T18:57:16+02:00</time>
      </trkpt>
      <trkpt lat="41.55277" lon="9.30907">
        <ele>22</ele>
        <time>2008-05-30T18:57:21+02:00</time>
      </trkpt>
      <trkpt lat="41.55296" lon="9.30949">
        <ele>20</ele>
        <time>2008-05-30T18:57:25+02:00</time>
      </trkpt>
      <trkpt lat="41.55306" lon="9.30971">
        <ele>21</ele>
        <time>2008-05-30T18:57:27+02:00</time>
      </trkpt>
      <trkpt lat="41.55314" lon="9.31013">
        <ele>20</ele>
        <time>2008-05-30T18:57:31+02:00</time>
      </trkpt>
      <trkpt lat="41.55315" lon="9.31024">
        <ele>20</ele>
        <time>2008-05-30T18:57:32+02:00</time>
      </trkpt>
      <trkpt lat="41.55311" lon="9.31093">
        <ele>20</ele>
        <time>2008-05-30T18:57:39+02:00</time>
      </trkpt>
      <trkpt lat="41.55314" lon="9.31124">
        <ele>20</ele>
        <time>2008-05-30T18:57:44+02:00</time>
      </trkpt>
      <trkpt lat="41.55326" lon="9.31161">
        <ele>24</ele>
        <time>2008-05-30T18:57:52+02:00</time>
      </trkpt>
      <trkpt lat="41.55336" lon="9.31192">
        <ele>36</ele>
        <time>2008-05-30T18:57:58+02:00</time>
      </trkpt>
      <trkpt lat="41.55332" lon="9.3122">
        <ele>25</ele>
        <time>2008-05-30T18:58:03+02:00</time>
      </trkpt>
      <trkpt lat="41.55323" lon="9.31228">
        <ele>25</ele>
        <time>2008-05-30T18:58:06+02:00</time>
      </trkpt>
      <trkpt lat="41.55295" lon="9.3124">
        <ele>22</ele>
        <time>2008-05-30T18:58:14+02:00</time>
      </trkpt>
      <trkpt lat="41.55281" lon="9.31255">
        <ele>22</ele>
        <time>2008-05-30T18:58:20+02:00</time>
      </trkpt>
      <trkpt lat="41.55279" lon="9.31273">
        <ele>22</ele>
        <time>2008-05-30T18:58:25+02:00</time>
      </trkpt>
      <trkpt lat="41.55284" lon="9.31292">
        <ele>23</ele>
        <time>2008-05-30T18:58:31+02:00</time>
      </trkpt>
      <trkpt lat="41.55286" lon="9.31298">
        <ele>23</ele>
        <time>2008-05-30T18:58:34+02:00</time>
      </trkpt>
      <trkpt lat="41.55285" lon="9.31301">
        <ele>23</ele>
        <time>2008-05-30T18:58:41+02:00</time>
      </trkpt>
      <trkpt lat="41.55284" lon="9.313">
        <ele>22</ele>
        <time>2008-05-30T18:58:46+02:00</time>
      </trkpt>
      <trkpt lat="41.55283" lon="9.313">
        <ele>22</ele>
        <time>2008-05-30T18:58:57+02:00</time>
      </trkpt>
      <trkpt lat="41.55284" lon="9.31299">
        <ele>22</ele>
        <time>2008-05-30T18:59:10+02:00</time>
      </trkpt>
      <trkpt lat="41.55288" lon="9.31296">
        <ele>23</ele>
        <time>2008-05-30T18:59:33+02:00</time>
      </trkpt>
      <trkpt lat="41.5529" lon="9.31295">
        <ele>23</ele>
        <time>2008-05-30T18:59:41+02:00</time>
      </trkpt>
      <trkpt lat="41.55287" lon="9.31296">
        <ele>23</ele>
        <time>2008-05-30T18:59:47+02:00</time>
      </trkpt>
      <trkpt lat="41.55286" lon="9.31298">
        <ele>23</ele>
        <time>2008-05-30T18:59:53+02:00</time>
      </trkpt>
      <trkpt lat="41.55287" lon="9.31298">
        <ele>23</ele>
        <time>2008-05-30T19:00:11+02:00</time>
      </trkpt>
      <trkpt lat="41.55287" lon="9.31298">
        <ele>23</ele>
        <time>2008-05-30T19:00:21+02:00</time>
      </trkpt>
      <trkpt lat="41.55287" lon="9.31298">
        <ele>23</ele>
        <time>2008-05-30T19:00:29+02:00</time>
      </trkpt>
      <trkpt lat="41.55286" lon="9.31298">
        <ele>23</ele>
        <time>2008-05-30T19:00:39+02:00</time>
      </trkpt>
      <trkpt lat="41.55286" lon="9.31298">
        <ele>23</ele>
        <time>2008-05-30T19:00:51+02:00</time>
      </trkpt>
      <trkpt lat="41.55287" lon="9.31297">
        <ele>23</ele>
        <time>2008-05-30T19:00:58+02:00</time>
      </trkpt>
      <trkpt lat="41.55287" lon="9.31298">
        <ele>23</ele>
        <time>2008-05-30T19:01:05+02:00</time>
      </trkpt>
      <trkpt lat="41.55288" lon="9.31297">
        <ele>23</ele>
        <time>2008-05-30T19:01:18+02:00</time>
      </trkpt>
      <trkpt lat="41.55291" lon="9.31299">
        <ele>23</ele>
        <time>2008-05-30T19:01:20+02:00</time>
      </trkpt>
      <trkpt lat="41.55295" lon="9.31308">
        <ele>24</ele>
        <time>2008-05-30T19:01:25+02:00</time>
      </trkpt>
      <trkpt lat="41.55303" lon="9.31329">
        <ele>25</ele>
        <time>2008-05-30T19:01:33+02:00</time>
      </trkpt>
      <trkpt lat="41.55316" lon="9.31347">
        <ele>23</ele>
        <time>2008-05-30T19:01:40+02:00</time>
      </trkpt>
      <trkpt lat="41.55333" lon="9.31361">
        <ele>22</ele>
        <time>2008-05-30T19:01:47+02:00</time>
      </trkpt>
      <trkpt lat="41.55357" lon="9.31372">
        <ele>27</ele>
        <time>2008-05-30T19:01:53+02:00</time>
      </trkpt>
      <trkpt lat="41.55362" lon="9.31373">
        <ele>27</ele>
        <time>2008-05-30T19:01:54+02:00</time>
      </trkpt>
      <trkpt lat="41.55401" lon="9.3137">
        <ele>28</ele>
        <time>2008-05-30T19:02:00+02:00</time>
      </trkpt>
      <trkpt lat="41.55431" lon="9.31377">
        <ele>32</ele>
        <time>2008-05-30T19:02:04+02:00</time>
      </trkpt>
      <trkpt lat="41.55444" lon="9.31387">
        <ele>32</ele>
        <time>2008-05-30T19:02:06+02:00</time>
      </trkpt>
      <trkpt lat="41.55465" lon="9.31406">
        <ele>31</ele>
        <time>2008-05-30T19:02:10+02:00</time>
      </trkpt>
      <trkpt lat="41.55473" lon="9.31414">
        <ele>31</ele>
        <time>2008-05-30T19:02:12+02:00</time>
      </trkpt>
      <trkpt lat="41.55486" lon="9.31425">
        <ele>25</ele>
        <time>2008-05-30T19:02:15+02:00</time>
      </trkpt>
      <trkpt lat="41.55501" lon="9.31451">
        <ele>24</ele>
        <time>2008-05-30T19:02:19+02:00</time>
      </trkpt>
      <trkpt lat="41.55507" lon="9.31468">
        <ele>23</ele>
        <time>2008-05-30T19:02:21+02:00</time>
      </trkpt>
      <trkpt lat="41.55533" lon="9.31504">
        <ele>15</ele>
        <time>2008-05-30T19:02:26+02:00</time>
      </trkpt>
      <trkpt lat="41.55559" lon="9.31508">
        <ele>15</ele>
        <time>2008-05-30T19:02:29+02:00</time>
      </trkpt>
      <trkpt lat="41.55576" lon="9.315">
        <ele>18</ele>
        <time>2008-05-30T19:02:31+02:00</time>
      </trkpt>
      <trkpt lat="41.55602" lon="9.31482">
        <ele>20</ele>
        <time>2008-05-30T19:02:34+02:00</time>
      </trkpt>
      <trkpt lat="41.55635" lon="9.3147">
        <ele>20</ele>
        <time>2008-05-30T19:02:38+02:00</time>
      </trkpt>
      <trkpt lat="41.55649" lon="9.31465">
        <ele>20</ele>
        <time>2008-05-30T19:02:40+02:00</time>
      </trkpt>
      <trkpt lat="41.55681" lon="9.31447">
        <ele>23</ele>
        <time>2008-05-30T19:02:44+02:00</time>
      </trkpt>
      <trkpt lat="41.55715" lon="9.31447">
        <ele>23</ele>
        <time>2008-05-30T19:02:48+02:00</time>
      </trkpt>
      <trkpt lat="41.55726" lon="9.31468">
        <ele>23</ele>
        <time>2008-05-30T19:02:51+02:00</time>
      </trkpt>
      <trkpt lat="41.55716" lon="9.3149">
        <ele>23</ele>
        <time>2008-05-30T19:02:54+02:00</time>
      </trkpt>
      <trkpt lat="41.55712" lon="9.31496">
        <ele>23</ele>
        <time>2008-05-30T19:02:55+02:00</time>
      </trkpt>
      <trkpt lat="41.55686" lon="9.31525">
        <ele>23</ele>
        <time>2008-05-30T19:03:02+02:00</time>
      </trkpt>
      <trkpt lat="41.55679" lon="9.31532">
        <ele>23</ele>
        <time>2008-05-30T19:03:04+02:00</time>
      </trkpt>
      <trkpt lat="41.55657" lon="9.31562">
        <ele>17</ele>
        <time>2008-05-30T19:03:12+02:00</time>
      </trkpt>
      <trkpt lat="41.55655" lon="9.31578">
        <ele>18</ele>
        <time>2008-05-30T19:03:16+02:00</time>
      </trkpt>
      <trkpt lat="41.55659" lon="9.31604">
        <ele>19</ele>
        <time>2008-05-30T19:03:22+02:00</time>
      </trkpt>
      <trkpt lat="41.55658" lon="9.31626">
        <ele>20</ele>
        <time>2008-05-30T19:03:26+02:00</time>
      </trkpt>
      <trkpt lat="41.55651" lon="9.31648">
        <ele>21</ele>
        <time>2008-05-30T19:03:32+02:00</time>
      </trkpt>
      <trkpt lat="41.55643" lon="9.31672">
        <ele>23</ele>
        <time>2008-05-30T19:03:40+02:00</time>
      </trkpt>
      <trkpt lat="41.5564" lon="9.31691">
        <ele>22</ele>
        <time>2008-05-30T19:03:47+02:00</time>
      </trkpt>
      <trkpt lat="41.55646" lon="9.31708">
        <ele>22</ele>
        <time>2008-05-30T19:03:54+02:00</time>
      </trkpt>
      <trkpt lat="41.55655" lon="9.31727">
        <ele>24</ele>
        <time>2008-05-30T19:04:02+02:00</time>
      </trkpt>
      <trkpt lat="41.55667" lon="9.3175">
        <ele>29</ele>
        <time>2008-05-30T19:04:12+02:00</time>
      </trkpt>
      <trkpt lat="41.55678" lon="9.31768">
        <ele>31</ele>
        <time>2008-05-30T19:04:20+02:00</time>
      </trkpt>
      <trkpt lat="41.55693" lon="9.31786">
        <ele>32</ele>
        <time>2008-05-30T19:04:29+02:00</time>
      </trkpt>
      <trkpt lat="41.55708" lon="9.31798">
        <ele>33</ele>
        <time>2008-05-30T19:04:37+02:00</time>
      </trkpt>
      <trkpt lat="41.55728" lon="9.3181">
        <ele>34</ele>
        <time>2008-05-30T19:04:46+02:00</time>
      </trkpt>
      <trkpt lat="41.55747" lon="9.31822">
        <ele>35</ele>
        <time>2008-05-30T19:04:54+02:00</time>
      </trkpt>
      <trkpt lat="41.55767" lon="9.31829">
        <ele>41</ele>
        <time>2008-05-30T19:05:01+02:00</time>
      </trkpt>
      <trkpt lat="41.55789" lon="9.31835">
        <ele>35</ele>
        <time>2008-05-30T19:05:08+02:00</time>
      </trkpt>
      <trkpt lat="41.55821" lon="9.31845">
        <ele>38</ele>
        <time>2008-05-30T19:05:17+02:00</time>
      </trkpt>
      <trkpt lat="41.55845" lon="9.31861">
        <ele>41</ele>
        <time>2008-05-30T19:05:24+02:00</time>
      </trkpt>
      <trkpt lat="41.55869" lon="9.3187">
        <ele>40</ele>
        <time>2008-05-30T19:05:31+02:00</time>
      </trkpt>
      <trkpt lat="41.5589" lon="9.31866">
        <ele>41</ele>
        <time>2008-05-30T19:05:37+02:00</time>
      </trkpt>
      <trkpt lat="41.55913" lon="9.31857">
        <ele>43</ele>
        <time>2008-05-30T19:05:43+02:00</time>
      </trkpt>
      <trkpt lat="41.55941" lon="9.31858">
        <ele>46</ele>
        <time>2008-05-30T19:05:49+02:00</time>
      </trkpt>
      <trkpt lat="41.55965" lon="9.31866">
        <ele>47</ele>
        <time>2008-05-30T19:05:54+02:00</time>
      </trkpt>
      <trkpt lat="41.55981" lon="9.3188">
        <ele>46</ele>
        <time>2008-05-30T19:05:58+02:00</time>
      </trkpt>
      <trkpt lat="41.5601" lon="9.31919">
        <ele>44</ele>
        <time>2008-05-30T19:06:07+02:00</time>
      </trkpt>
      <trkpt lat="41.56019" lon="9.31949">
        <ele>44</ele>
        <time>2008-05-30T19:06:12+02:00</time>
      </trkpt>
      <trkpt lat="41.56018" lon="9.31956">
        <ele>44</ele>
        <time>2008-05-30T19:06:13+02:00</time>
      </trkpt>
      <trkpt lat="41.56011" lon="9.31986">
        <ele>42</ele>
        <time>2008-05-30T19:06:17+02:00</time>
      </trkpt>
      <trkpt lat="41.56014" lon="9.32016">
        <ele>39</ele>
        <time>2008-05-30T19:06:21+02:00</time>
      </trkpt>
      <trkpt lat="41.56017" lon="9.32023">
        <ele>39</ele>
        <time>2008-05-30T19:06:22+02:00</time>
      </trkpt>
      <trkpt lat="41.56048" lon="9.32079">
        <ele>39</ele>
        <time>2008-05-30T19:06:30+02:00</time>
      </trkpt>
      <trkpt lat="41.56064" lon="9.32099">
        <ele>36</ele>
        <time>2008-05-30T19:06:33+02:00</time>
      </trkpt>
      <trkpt lat="41.56084" lon="9.32104">
        <ele>40</ele>
        <time>2008-05-30T19:06:36+02:00</time>
      </trkpt>
      <trkpt lat="41.56095" lon="9.32092">
        <ele>41</ele>
        <time>2008-05-30T19:06:38+02:00</time>
      </trkpt>
      <trkpt lat="41.56122" lon="9.32067">
        <ele>44</ele>
        <time>2008-05-30T19:06:43+02:00</time>
      </trkpt>
      <trkpt lat="41.56132" lon="9.32078">
        <ele>44</ele>
        <time>2008-05-30T19:06:46+02:00</time>
      </trkpt>
      <trkpt lat="41.56135" lon="9.32093">
        <ele>41</ele>
        <time>2008-05-30T19:06:48+02:00</time>
      </trkpt>
      <trkpt lat="41.56139" lon="9.32116">
        <ele>41</ele>
        <time>2008-05-30T19:06:51+02:00</time>
      </trkpt>
      <trkpt lat="41.56143" lon="9.32141">
        <ele>40</ele>
        <time>2008-05-30T19:06:54+02:00</time>
      </trkpt>
      <trkpt lat="41.56144" lon="9.3216">
        <ele>40</ele>
        <time>2008-05-30T19:06:56+02:00</time>
      </trkpt>
      <trkpt lat="41.56137" lon="9.32211">
        <ele>34</ele>
        <time>2008-05-30T19:07:01+02:00</time>
      </trkpt>
      <trkpt lat="41.56131" lon="9.32267">
        <ele>25</ele>
        <time>2008-05-30T19:07:06+02:00</time>
      </trkpt>
      <trkpt lat="41.56135" lon="9.32291">
        <ele>24</ele>
        <time>2008-05-30T19:07:08+02:00</time>
      </trkpt>
      <trkpt lat="41.56154" lon="9.3232">
        <ele>23</ele>
        <time>2008-05-30T19:07:12+02:00</time>
      </trkpt>
      <trkpt lat="41.5617" lon="9.32313">
        <ele>25</ele>
        <time>2008-05-30T19:07:14+02:00</time>
      </trkpt>
      <trkpt lat="41.56192" lon="9.32292">
        <ele>28</ele>
        <time>2008-05-30T19:07:17+02:00</time>
      </trkpt>
      <trkpt lat="41.56214" lon="9.32276">
        <ele>28</ele>
        <time>2008-05-30T19:07:20+02:00</time>
      </trkpt>
      <trkpt lat="41.56225" lon="9.32283">
        <ele>28</ele>
        <time>2008-05-30T19:07:22+02:00</time>
      </trkpt>
      <trkpt lat="41.56226" lon="9.32291">
        <ele>28</ele>
        <time>2008-05-30T19:07:23+02:00</time>
      </trkpt>
      <trkpt lat="41.56251" lon="9.32346">
        <ele>27</ele>
        <time>2008-05-30T19:07:31+02:00</time>
      </trkpt>
      <trkpt lat="41.56287" lon="9.3241">
        <ele>27</ele>
        <time>2008-05-30T19:07:40+02:00</time>
      </trkpt>
      <trkpt lat="41.56309" lon="9.32441">
        <ele>23</ele>
        <time>2008-05-30T19:07:45+02:00</time>
      </trkpt>
      <trkpt lat="41.56329" lon="9.32462">
        <ele>22</ele>
        <time>2008-05-30T19:07:49+02:00</time>
      </trkpt>
      <trkpt lat="41.56373" lon="9.3249">
        <ele>30</ele>
        <time>2008-05-30T19:07:57+02:00</time>
      </trkpt>
      <trkpt lat="41.56413" lon="9.32518">
        <ele>26</ele>
        <time>2008-05-30T19:08:05+02:00</time>
      </trkpt>
      <trkpt lat="41.56444" lon="9.32541">
        <ele>33</ele>
        <time>2008-05-30T19:08:12+02:00</time>
      </trkpt>
      <trkpt lat="41.56471" lon="9.32569">
        <ele>33</ele>
        <time>2008-05-30T19:08:20+02:00</time>
      </trkpt>
      <trkpt lat="41.5649" lon="9.32598">
        <ele>29</ele>
        <time>2008-05-30T19:08:26+02:00</time>
      </trkpt>
      <trkpt lat="41.56511" lon="9.32641">
        <ele>32</ele>
        <time>2008-05-30T19:08:33+02:00</time>
      </trkpt>
      <trkpt lat="41.56536" lon="9.32675">
        <ele>28</ele>
        <time>2008-05-30T19:08:39+02:00</time>
      </trkpt>
      <trkpt lat="41.56565" lon="9.32717">
        <ele>28</ele>
        <time>2008-05-30T19:08:47+02:00</time>
      </trkpt>
      <trkpt lat="41.5658" lon="9.32736">
        <ele>28</ele>
        <time>2008-05-30T19:08:51+02:00</time>
      </trkpt>
      <trkpt lat="41.56593" lon="9.32768">
        <ele>30</ele>
        <time>2008-05-30T19:08:56+02:00</time>
      </trkpt>
      <trkpt lat="41.56594" lon="9.32776">
        <ele>30</ele>
        <time>2008-05-30T19:08:57+02:00</time>
      </trkpt>
      <trkpt lat="41.56595" lon="9.32823">
        <ele>29</ele>
        <time>2008-05-30T19:09:03+02:00</time>
      </trkpt>
      <trkpt lat="41.56605" lon="9.32855">
        <ele>28</ele>
        <time>2008-05-30T19:09:08+02:00</time>
      </trkpt>
      <trkpt lat="41.56608" lon="9.3286">
        <ele>28</ele>
        <time>2008-05-30T19:09:09+02:00</time>
      </trkpt>
      <trkpt lat="41.56646" lon="9.32908">
        <ele>28</ele>
        <time>2008-05-30T19:09:17+02:00</time>
      </trkpt>
      <trkpt lat="41.56671" lon="9.32944">
        <ele>27</ele>
        <time>2008-05-30T19:09:22+02:00</time>
      </trkpt>
      <trkpt lat="41.56707" lon="9.32992">
        <ele>25</ele>
        <time>2008-05-30T19:09:28+02:00</time>
      </trkpt>
      <trkpt lat="41.56733" lon="9.33021">
        <ele>23</ele>
        <time>2008-05-30T19:09:32+02:00</time>
      </trkpt>
      <trkpt lat="41.5677" lon="9.33041">
        <ele>24</ele>
        <time>2008-05-30T19:09:37+02:00</time>
      </trkpt>
      <trkpt lat="41.56808" lon="9.33053">
        <ele>25</ele>
        <time>2008-05-30T19:09:43+02:00</time>
      </trkpt>
      <trkpt lat="41.56837" lon="9.33059">
        <ele>29</ele>
        <time>2008-05-30T19:09:49+02:00</time>
      </trkpt>
      <trkpt lat="41.56875" lon="9.33064">
        <ele>31</ele>
        <time>2008-05-30T19:09:58+02:00</time>
      </trkpt>
      <trkpt lat="41.56904" lon="9.33071">
        <ele>31</ele>
        <time>2008-05-30T19:10:05+02:00</time>
      </trkpt>
      <trkpt lat="41.56916" lon="9.33075">
        <ele>31</ele>
        <time>2008-05-30T19:10:08+02:00</time>
      </trkpt>
      <trkpt lat="41.56956" lon="9.33082">
        <ele>39</ele>
        <time>2008-05-30T19:10:18+02:00</time>
      </trkpt>
      <trkpt lat="41.56967" lon="9.33095">
        <ele>35</ele>
        <time>2008-05-30T19:10:22+02:00</time>
      </trkpt>
      <trkpt lat="41.56978" lon="9.33126">
        <ele>35</ele>
        <time>2008-05-30T19:10:29+02:00</time>
      </trkpt>
      <trkpt lat="41.56989" lon="9.33164">
        <ele>36</ele>
        <time>2008-05-30T19:10:37+02:00</time>
      </trkpt>
      <trkpt lat="41.56999" lon="9.33176">
        <ele>35</ele>
        <time>2008-05-30T19:10:40+02:00</time>
      </trkpt>
      <trkpt lat="41.57018" lon="9.33192">
        <ele>37</ele>
        <time>2008-05-30T19:10:45+02:00</time>
      </trkpt>
      <trkpt lat="41.57028" lon="9.332">
        <ele>37</ele>
        <time>2008-05-30T19:10:48+02:00</time>
      </trkpt>
      <trkpt lat="41.57049" lon="9.33213">
        <ele>37</ele>
        <time>2008-05-30T19:10:53+02:00</time>
      </trkpt>
      <trkpt lat="41.57077" lon="9.33235">
        <ele>36</ele>
        <time>2008-05-30T19:10:58+02:00</time>
      </trkpt>
      <trkpt lat="41.57107" lon="9.33275">
        <ele>33</ele>
        <time>2008-05-30T19:11:03+02:00</time>
      </trkpt>
      <trkpt lat="41.57143" lon="9.33348">
        <ele>29</ele>
        <time>2008-05-30T19:11:10+02:00</time>
      </trkpt>
      <trkpt lat="41.57155" lon="9.33393">
        <ele>28</ele>
        <time>2008-05-30T19:11:14+02:00</time>
      </trkpt>
      <trkpt lat="41.5717" lon="9.33443">
        <ele>30</ele>
        <time>2008-05-30T19:11:19+02:00</time>
      </trkpt>
      <trkpt lat="41.57188" lon="9.3347">
        <ele>31</ele>
        <time>2008-05-30T19:11:23+02:00</time>
      </trkpt>
      <trkpt lat="41.57205" lon="9.33478">
        <ele>31</ele>
        <time>2008-05-30T19:11:26+02:00</time>
      </trkpt>
      <trkpt lat="41.57259" lon="9.33498">
        <ele>34</ele>
        <time>2008-05-30T19:11:35+02:00</time>
      </trkpt>
      <trkpt lat="41.57298" lon="9.33528">
        <ele>40</ele>
        <time>2008-05-30T19:11:42+02:00</time>
      </trkpt>
      <trkpt lat="41.57333" lon="9.33545">
        <ele>41</ele>
        <time>2008-05-30T19:11:48+02:00</time>
      </trkpt>
      <trkpt lat="41.5737" lon="9.33556">
        <ele>42</ele>
        <time>2008-05-30T19:11:54+02:00</time>
      </trkpt>
      <trkpt lat="41.57409" lon="9.33574">
        <ele>43</ele>
        <time>2008-05-30T19:12:01+02:00</time>
      </trkpt>
      <trkpt lat="41.57455" lon="9.33589">
        <ele>46</ele>
        <time>2008-05-30T19:12:10+02:00</time>
      </trkpt>
      <trkpt lat="41.57473" lon="9.33593">
        <ele>46</ele>
        <time>2008-05-30T19:12:13+02:00</time>
      </trkpt>
      <trkpt lat="41.57494" lon="9.33604">
        <ele>45</ele>
        <time>2008-05-30T19:12:17+02:00</time>
      </trkpt>
      <trkpt lat="41.57528" lon="9.33617">
        <ele>46</ele>
        <time>2008-05-30T19:12:24+02:00</time>
      </trkpt>
      <trkpt lat="41.57535" lon="9.3362">
        <ele>46</ele>
        <time>2008-05-30T19:12:26+02:00</time>
      </trkpt>
      <trkpt lat="41.57564" lon="9.33632">
        <ele>47</ele>
        <time>2008-05-30T19:12:35+02:00</time>
      </trkpt>
      <trkpt lat="41.57596" lon="9.33651">
        <ele>49</ele>
        <time>2008-05-30T19:12:44+02:00</time>
      </trkpt>
      <trkpt lat="41.57627" lon="9.33669">
        <ele>55</ele>
        <time>2008-05-30T19:12:54+02:00</time>
      </trkpt>
      <trkpt lat="41.57656" lon="9.3368">
        <ele>55</ele>
        <time>2008-05-30T19:13:02+02:00</time>
      </trkpt>
      <trkpt lat="41.57686" lon="9.33685">
        <ele>55</ele>
        <time>2008-05-30T19:13:10+02:00</time>
      </trkpt>
      <trkpt lat="41.57708" lon="9.33686">
        <ele>56</ele>
        <time>2008-05-30T19:13:17+02:00</time>
      </trkpt>
      <trkpt lat="41.57712" lon="9.33686">
        <ele>56</ele>
        <time>2008-05-30T19:13:21+02:00</time>
      </trkpt>
      <trkpt lat="41.57717" lon="9.33684">
        <ele>56</ele>
        <time>2008-05-30T19:13:28+02:00</time>
      </trkpt>
      <trkpt lat="41.57734" lon="9.33684">
        <ele>55</ele>
        <time>2008-05-30T19:13:33+02:00</time>
      </trkpt>
      <trkpt lat="41.5776" lon="9.33694">
        <ele>54</ele>
        <time>2008-05-30T19:13:38+02:00</time>
      </trkpt>
      <trkpt lat="41.5779" lon="9.33714">
        <ele>54</ele>
        <time>2008-05-30T19:13:43+02:00</time>
      </trkpt>
      <trkpt lat="41.57831" lon="9.3375">
        <ele>53</ele>
        <time>2008-05-30T19:13:49+02:00</time>
      </trkpt>
      <trkpt lat="41.57874" lon="9.33793">
        <ele>51</ele>
        <time>2008-05-30T19:13:55+02:00</time>
      </trkpt>
      <trkpt lat="41.57911" lon="9.33845">
        <ele>52</ele>
        <time>2008-05-30T19:14:01+02:00</time>
      </trkpt>
      <trkpt lat="41.57948" lon="9.33905">
        <ele>49</ele>
        <time>2008-05-30T19:14:08+02:00</time>
      </trkpt>
      <trkpt lat="41.57976" lon="9.33937">
        <ele>52</ele>
        <time>2008-05-30T19:14:13+02:00</time>
      </trkpt>
      <trkpt lat="41.58003" lon="9.33967">
        <ele>45</ele>
        <time>2008-05-30T19:14:18+02:00</time>
      </trkpt>
      <trkpt lat="41.58021" lon="9.33991">
        <ele>46</ele>
        <time>2008-05-30T19:14:21+02:00</time>
      </trkpt>
      <trkpt lat="41.58043" lon="9.34004">
        <ele>46</ele>
        <time>2008-05-30T19:14:24+02:00</time>
      </trkpt>
      <trkpt lat="41.58061" lon="9.34">
        <ele>43</ele>
        <time>2008-05-30T19:14:26+02:00</time>
      </trkpt>
      <trkpt lat="41.58092" lon="9.3399">
        <ele>37</ele>
        <time>2008-05-30T19:14:29+02:00</time>
      </trkpt>
      <trkpt lat="41.58133" lon="9.33961">
        <ele>35</ele>
        <time>2008-05-30T19:14:33+02:00</time>
      </trkpt>
      <trkpt lat="41.58141" lon="9.33953">
        <ele>35</ele>
        <time>2008-05-30T19:14:34+02:00</time>
      </trkpt>
      <trkpt lat="41.58175" lon="9.33937">
        <ele>33</ele>
        <time>2008-05-30T19:14:38+02:00</time>
      </trkpt>
      <trkpt lat="41.58193" lon="9.33942">
        <ele>32</ele>
        <time>2008-05-30T19:14:40+02:00</time>
      </trkpt>
      <trkpt lat="41.58229" lon="9.33956">
        <ele>31</ele>
        <time>2008-05-30T19:14:44+02:00</time>
      </trkpt>
      <trkpt lat="41.58264" lon="9.3395">
        <ele>29</ele>
        <time>2008-05-30T19:14:48+02:00</time>
      </trkpt>
      <trkpt lat="41.58291" lon="9.3394">
        <ele>29</ele>
        <time>2008-05-30T19:14:51+02:00</time>
      </trkpt>
      <trkpt lat="41.58328" lon="9.33916">
        <ele>31</ele>
        <time>2008-05-30T19:14:56+02:00</time>
      </trkpt>
      <trkpt lat="41.58371" lon="9.33878">
        <ele>34</ele>
        <time>2008-05-30T19:15:03+02:00</time>
      </trkpt>
      <trkpt lat="41.58397" lon="9.33854">
        <ele>34</ele>
        <time>2008-05-30T19:15:08+02:00</time>
      </trkpt>
      <trkpt lat="41.58411" lon="9.33839">
        <ele>35</ele>
        <time>2008-05-30T19:15:11+02:00</time>
      </trkpt>
      <trkpt lat="41.5845" lon="9.33813">
        <ele>37</ele>
        <time>2008-05-30T19:15:18+02:00</time>
      </trkpt>
      <trkpt lat="41.58487" lon="9.33796">
        <ele>38</ele>
        <time>2008-05-30T19:15:24+02:00</time>
      </trkpt>
      <trkpt lat="41.58528" lon="9.33776">
        <ele>35</ele>
        <time>2008-05-30T19:15:31+02:00</time>
      </trkpt>
      <trkpt lat="41.58572" lon="9.3375">
        <ele>35</ele>
        <time>2008-05-30T19:15:39+02:00</time>
      </trkpt>
      <trkpt lat="41.58597" lon="9.33729">
        <ele>39</ele>
        <time>2008-05-30T19:15:45+02:00</time>
      </trkpt>
      <trkpt lat="41.58609" lon="9.33717">
        <ele>41</ele>
        <time>2008-05-30T19:15:48+02:00</time>
      </trkpt>
      <trkpt lat="41.58628" lon="9.3371">
        <ele>41</ele>
        <time>2008-05-30T19:15:52+02:00</time>
      </trkpt>
      <trkpt lat="41.58651" lon="9.3371">
        <ele>41</ele>
        <time>2008-05-30T19:15:57+02:00</time>
      </trkpt>
      <trkpt lat="41.58674" lon="9.33703">
        <ele>39</ele>
        <time>2008-05-30T19:16:03+02:00</time>
      </trkpt>
      <trkpt lat="41.58704" lon="9.33693">
        <ele>39</ele>
        <time>2008-05-30T19:16:11+02:00</time>
      </trkpt>
      <trkpt lat="41.58715" lon="9.33684">
        <ele>38</ele>
        <time>2008-05-30T19:16:14+02:00</time>
      </trkpt>
      <trkpt lat="41.58729" lon="9.33657">
        <ele>41</ele>
        <time>2008-05-30T19:16:19+02:00</time>
      </trkpt>
      <trkpt lat="41.58741" lon="9.33628">
        <ele>42</ele>
        <time>2008-05-30T19:16:23+02:00</time>
      </trkpt>
      <trkpt lat="41.58749" lon="9.33584">
        <ele>39</ele>
        <time>2008-05-30T19:16:28+02:00</time>
      </trkpt>
      <trkpt lat="41.58767" lon="9.33541">
        <ele>38</ele>
        <time>2008-05-30T19:16:33+02:00</time>
      </trkpt>
      <trkpt lat="41.58801" lon="9.33503">
        <ele>37</ele>
        <time>2008-05-30T19:16:39+02:00</time>
      </trkpt>
      <trkpt lat="41.58823" lon="9.33479">
        <ele>39</ele>
        <time>2008-05-30T19:16:43+02:00</time>
      </trkpt>
      <trkpt lat="41.58868" lon="9.33416">
        <ele>39</ele>
        <time>2008-05-30T19:16:51+02:00</time>
      </trkpt>
      <trkpt lat="41.58903" lon="9.33376">
        <ele>38</ele>
        <time>2008-05-30T19:16:57+02:00</time>
      </trkpt>
      <trkpt lat="41.5893" lon="9.33334">
        <ele>36</ele>
        <time>2008-05-30T19:17:03+02:00</time>
      </trkpt>
      <trkpt lat="41.58954" lon="9.33283">
        <ele>37</ele>
        <time>2008-05-30T19:17:10+02:00</time>
      </trkpt>
      <trkpt lat="41.58972" lon="9.33225">
        <ele>39</ele>
        <time>2008-05-30T19:17:18+02:00</time>
      </trkpt>
      <trkpt lat="41.58993" lon="9.33155">
        <ele>41</ele>
        <time>2008-05-30T19:17:27+02:00</time>
      </trkpt>
      <trkpt lat="41.59011" lon="9.33096">
        <ele>38</ele>
        <time>2008-05-30T19:17:35+02:00</time>
      </trkpt>
      <trkpt lat="41.59029" lon="9.33043">
        <ele>40</ele>
        <time>2008-05-30T19:17:42+02:00</time>
      </trkpt>
      <trkpt lat="41.59049" lon="9.33005">
        <ele>40</ele>
        <time>2008-05-30T19:17:48+02:00</time>
      </trkpt>
      <trkpt lat="41.59052" lon="9.32999">
        <ele>44</ele>
        <time>2008-05-30T19:17:49+02:00</time>
      </trkpt>
      <trkpt lat="41.59068" lon="9.3298">
        <ele>44</ele>
        <time>2008-05-30T19:17:53+02:00</time>
      </trkpt>
      <trkpt lat="41.59105" lon="9.32947">
        <ele>44</ele>
        <time>2008-05-30T19:18:02+02:00</time>
      </trkpt>
      <trkpt lat="41.59124" lon="9.32925">
        <ele>44</ele>
        <time>2008-05-30T19:18:09+02:00</time>
      </trkpt>
      <trkpt lat="41.59143" lon="9.32899">
        <ele>46</ele>
        <time>2008-05-30T19:18:16+02:00</time>
      </trkpt>
      <trkpt lat="41.59161" lon="9.32868">
        <ele>46</ele>
        <time>2008-05-30T19:18:23+02:00</time>
      </trkpt>
      <trkpt lat="41.59164" lon="9.32863">
        <ele>46</ele>
        <time>2008-05-30T19:18:24+02:00</time>
      </trkpt>
      <trkpt lat="41.59181" lon="9.32814">
        <ele>43</ele>
        <time>2008-05-30T19:18:32+02:00</time>
      </trkpt>
      <trkpt lat="41.59192" lon="9.32762">
        <ele>43</ele>
        <time>2008-05-30T19:18:39+02:00</time>
      </trkpt>
      <trkpt lat="41.59209" lon="9.32714">
        <ele>44</ele>
        <time>2008-05-30T19:18:45+02:00</time>
      </trkpt>
      <trkpt lat="41.59228" lon="9.32674">
        <ele>42</ele>
        <time>2008-05-30T19:18:50+02:00</time>
      </trkpt>
      <trkpt lat="41.59242" lon="9.3264">
        <ele>45</ele>
        <time>2008-05-30T19:18:54+02:00</time>
      </trkpt>
      <trkpt lat="41.59272" lon="9.32568">
        <ele>41</ele>
        <time>2008-05-30T19:19:02+02:00</time>
      </trkpt>
      <trkpt lat="41.5928" lon="9.32551">
        <ele>41</ele>
        <time>2008-05-30T19:19:04+02:00</time>
      </trkpt>
      <trkpt lat="41.59302" lon="9.32525">
        <ele>41</ele>
        <time>2008-05-30T19:19:08+02:00</time>
      </trkpt>
      <trkpt lat="41.59316" lon="9.32519">
        <ele>41</ele>
        <time>2008-05-30T19:19:10+02:00</time>
      </trkpt>
      <trkpt lat="41.59342" lon="9.32507">
        <ele>40</ele>
        <time>2008-05-30T19:19:15+02:00</time>
      </trkpt>
      <trkpt lat="41.59361" lon="9.32492">
        <ele>44</ele>
        <time>2008-05-30T19:19:20+02:00</time>
      </trkpt>
      <trkpt lat="41.59374" lon="9.32478">
        <ele>45</ele>
        <time>2008-05-30T19:19:24+02:00</time>
      </trkpt>
      <trkpt lat="41.59403" lon="9.32455">
        <ele>46</ele>
        <time>2008-05-30T19:19:31+02:00</time>
      </trkpt>
      <trkpt lat="41.5941" lon="9.3245">
        <ele>46</ele>
        <time>2008-05-30T19:19:33+02:00</time>
      </trkpt>
      <trkpt lat="41.59435" lon="9.3242">
        <ele>45</ele>
        <time>2008-05-30T19:19:41+02:00</time>
      </trkpt>
      <trkpt lat="41.5945" lon="9.32393">
        <ele>51</ele>
        <time>2008-05-30T19:19:48+02:00</time>
      </trkpt>
      <trkpt lat="41.59473" lon="9.32361">
        <ele>53</ele>
        <time>2008-05-30T19:19:57+02:00</time>
      </trkpt>
      <trkpt lat="41.59491" lon="9.32346">
        <ele>53</ele>
        <time>2008-05-30T19:20:03+02:00</time>
      </trkpt>
      <trkpt lat="41.59517" lon="9.32333">
        <ele>60</ele>
        <time>2008-05-30T19:20:10+02:00</time>
      </trkpt>
      <trkpt lat="41.59526" lon="9.32329">
        <ele>62</ele>
        <time>2008-05-30T19:20:12+02:00</time>
      </trkpt>
      <trkpt lat="41.59544" lon="9.32336">
        <ele>57</ele>
        <time>2008-05-30T19:20:17+02:00</time>
      </trkpt>
      <trkpt lat="41.59546" lon="9.3234">
        <ele>57</ele>
        <time>2008-05-30T19:20:18+02:00</time>
      </trkpt>
      <trkpt lat="41.59557" lon="9.32371">
        <ele>57</ele>
        <time>2008-05-30T19:20:25+02:00</time>
      </trkpt>
      <trkpt lat="41.59565" lon="9.32408">
        <ele>57</ele>
        <time>2008-05-30T19:20:34+02:00</time>
      </trkpt>
      <trkpt lat="41.59578" lon="9.3244">
        <ele>52</ele>
        <time>2008-05-30T19:20:42+02:00</time>
      </trkpt>
      <trkpt lat="41.59601" lon="9.32471">
        <ele>58</ele>
        <time>2008-05-30T19:20:51+02:00</time>
      </trkpt>
      <trkpt lat="41.5963" lon="9.3249">
        <ele>60</ele>
        <time>2008-05-30T19:21:00+02:00</time>
      </trkpt>
      <trkpt lat="41.59657" lon="9.32499">
        <ele>61</ele>
        <time>2008-05-30T19:21:08+02:00</time>
      </trkpt>
      <trkpt lat="41.59686" lon="9.32501">
        <ele>53</ele>
        <time>2008-05-30T19:21:17+02:00</time>
      </trkpt>
      <trkpt lat="41.59709" lon="9.32495">
        <ele>62</ele>
        <time>2008-05-30T19:21:24+02:00</time>
      </trkpt>
      <trkpt lat="41.59737" lon="9.32483">
        <ele>60</ele>
        <time>2008-05-30T19:21:33+02:00</time>
      </trkpt>
      <trkpt lat="41.59752" lon="9.32466">
        <ele>56</ele>
        <time>2008-05-30T19:21:39+02:00</time>
      </trkpt>
      <trkpt lat="41.59755" lon="9.32447">
        <ele>58</ele>
        <time>2008-05-30T19:21:43+02:00</time>
      </trkpt>
      <trkpt lat="41.59757" lon="9.32412">
        <ele>66</ele>
        <time>2008-05-30T19:21:49+02:00</time>
      </trkpt>
      <trkpt lat="41.59762" lon="9.32367">
        <ele>66</ele>
        <time>2008-05-30T19:21:57+02:00</time>
      </trkpt>
      <trkpt lat="41.59765" lon="9.3233">
        <ele>70</ele>
        <time>2008-05-30T19:22:05+02:00</time>
      </trkpt>
      <trkpt lat="41.59761" lon="9.32288">
        <ele>70</ele>
        <time>2008-05-30T19:22:13+02:00</time>
      </trkpt>
      <trkpt lat="41.59759" lon="9.32249">
        <ele>75</ele>
        <time>2008-05-30T19:22:20+02:00</time>
      </trkpt>
      <trkpt lat="41.59756" lon="9.32215">
        <ele>76</ele>
        <time>2008-05-30T19:22:28+02:00</time>
      </trkpt>
      <trkpt lat="41.59751" lon="9.32177">
        <ele>77</ele>
        <time>2008-05-30T19:22:38+02:00</time>
      </trkpt>
      <trkpt lat="41.59747" lon="9.32141">
        <ele>83</ele>
        <time>2008-05-30T19:22:47+02:00</time>
      </trkpt>
      <trkpt lat="41.5974" lon="9.32102">
        <ele>85</ele>
        <time>2008-05-30T19:22:57+02:00</time>
      </trkpt>
      <trkpt lat="41.59731" lon="9.32061">
        <ele>87</ele>
        <time>2008-05-30T19:23:07+02:00</time>
      </trkpt>
      <trkpt lat="41.59725" lon="9.32029">
        <ele>88</ele>
        <time>2008-05-30T19:23:15+02:00</time>
      </trkpt>
      <trkpt lat="41.59717" lon="9.32007">
        <ele>88</ele>
        <time>2008-05-30T19:23:21+02:00</time>
      </trkpt>
      <trkpt lat="41.59706" lon="9.31979">
        <ele>91</ele>
        <time>2008-05-30T19:23:28+02:00</time>
      </trkpt>
      <trkpt lat="41.59688" lon="9.31941">
        <ele>91</ele>
        <time>2008-05-30T19:23:37+02:00</time>
      </trkpt>
      <trkpt lat="41.5967" lon="9.31902">
        <ele>94</ele>
        <time>2008-05-30T19:23:45+02:00</time>
      </trkpt>
      <trkpt lat="41.59649" lon="9.31862">
        <ele>94</ele>
        <time>2008-05-30T19:23:52+02:00</time>
      </trkpt>
      <trkpt lat="41.59624" lon="9.31819">
        <ele>93</ele>
        <time>2008-05-30T19:23:59+02:00</time>
      </trkpt>
      <trkpt lat="41.59593" lon="9.31768">
        <ele>90</ele>
        <time>2008-05-30T19:24:06+02:00</time>
      </trkpt>
      <trkpt lat="41.59554" lon="9.31701">
        <ele>86</ele>
        <time>2008-05-30T19:24:14+02:00</time>
      </trkpt>
      <trkpt lat="41.59526" lon="9.31658">
        <ele>83</ele>
        <time>2008-05-30T19:24:19+02:00</time>
      </trkpt>
      <trkpt lat="41.59483" lon="9.31615">
        <ele>82</ele>
        <time>2008-05-30T19:24:25+02:00</time>
      </trkpt>
      <trkpt lat="41.59441" lon="9.31573">
        <ele>77</ele>
        <time>2008-05-30T19:24:30+02:00</time>
      </trkpt>
      <trkpt lat="41.59413" lon="9.31549">
        <ele>71</ele>
        <time>2008-05-30T19:24:33+02:00</time>
      </trkpt>
      <trkpt lat="41.59366" lon="9.31531">
        <ele>69</ele>
        <time>2008-05-30T19:24:38+02:00</time>
      </trkpt>
      <trkpt lat="41.59328" lon="9.31523">
        <ele>70</ele>
        <time>2008-05-30T19:24:42+02:00</time>
      </trkpt>
      <trkpt lat="41.59296" lon="9.31506">
        <ele>72</ele>
        <time>2008-05-30T19:24:46+02:00</time>
      </trkpt>
      <trkpt lat="41.59289" lon="9.31498">
        <ele>63</ele>
        <time>2008-05-30T19:24:47+02:00</time>
      </trkpt>
      <trkpt lat="41.59277" lon="9.3148">
        <ele>63</ele>
        <time>2008-05-30T19:24:49+02:00</time>
      </trkpt>
      <trkpt lat="41.59245" lon="9.31421">
        <ele>61</ele>
        <time>2008-05-30T19:24:55+02:00</time>
      </trkpt>
      <trkpt lat="41.59198" lon="9.31357">
        <ele>57</ele>
        <time>2008-05-30T19:25:02+02:00</time>
      </trkpt>
      <trkpt lat="41.59168" lon="9.31323">
        <ele>52</ele>
        <time>2008-05-30T19:25:06+02:00</time>
      </trkpt>
      <trkpt lat="41.59154" lon="9.3129">
        <ele>61</ele>
        <time>2008-05-30T19:25:09+02:00</time>
      </trkpt>
      <trkpt lat="41.59153" lon="9.31277">
        <ele>59</ele>
        <time>2008-05-30T19:25:10+02:00</time>
      </trkpt>
      <trkpt lat="41.59147" lon="9.31216">
        <ele>52</ele>
        <time>2008-05-30T19:25:15+02:00</time>
      </trkpt>
      <trkpt lat="41.59123" lon="9.31158">
        <ele>44</ele>
        <time>2008-05-30T19:25:21+02:00</time>
      </trkpt>
      <trkpt lat="41.59091" lon="9.31091">
        <ele>42</ele>
        <time>2008-05-30T19:25:28+02:00</time>
      </trkpt>
      <trkpt lat="41.59061" lon="9.31035">
        <ele>42</ele>
        <time>2008-05-30T19:25:34+02:00</time>
      </trkpt>
      <trkpt lat="41.59036" lon="9.3099">
        <ele>34</ele>
        <time>2008-05-30T19:25:39+02:00</time>
      </trkpt>
      <trkpt lat="41.59012" lon="9.30957">
        <ele>34</ele>
        <time>2008-05-30T19:25:43+02:00</time>
      </trkpt>
      <trkpt lat="41.59" lon="9.30914">
        <ele>33</ele>
        <time>2008-05-30T19:25:47+02:00</time>
      </trkpt>
      <trkpt lat="41.59001" lon="9.30881">
        <ele>27</ele>
        <time>2008-05-30T19:25:50+02:00</time>
      </trkpt>
      <trkpt lat="41.58985" lon="9.30798">
        <ele>29</ele>
        <time>2008-05-30T19:25:57+02:00</time>
      </trkpt>
      <trkpt lat="41.58957" lon="9.30744">
        <ele>20</ele>
        <time>2008-05-30T19:26:02+02:00</time>
      </trkpt>
      <trkpt lat="41.58914" lon="9.30677">
        <ele>21</ele>
        <time>2008-05-30T19:26:09+02:00</time>
      </trkpt>
      <trkpt lat="41.58868" lon="9.30602">
        <ele>16</ele>
        <time>2008-05-30T19:26:17+02:00</time>
      </trkpt>
      <trkpt lat="41.58842" lon="9.30548">
        <ele>10</ele>
        <time>2008-05-30T19:26:22+02:00</time>
      </trkpt>
      <trkpt lat="41.58817" lon="9.30485">
        <ele>8</ele>
        <time>2008-05-30T19:26:28+02:00</time>
      </trkpt>
      <trkpt lat="41.5878" lon="9.304">
        <ele>6</ele>
        <time>2008-05-30T19:26:37+02:00</time>
      </trkpt>
      <trkpt lat="41.58759" lon="9.30348">
        <ele>6</ele>
        <time>2008-05-30T19:26:43+02:00</time>
      </trkpt>
      <trkpt lat="41.5873" lon="9.3028">
        <ele>8</ele>
        <time>2008-05-30T19:26:52+02:00</time>
      </trkpt>
      <trkpt lat="41.58712" lon="9.30237">
        <ele>8</ele>
        <time>2008-05-30T19:26:58+02:00</time>
      </trkpt>
      <trkpt lat="41.5869" lon="9.30185">
        <ele>8</ele>
        <time>2008-05-30T19:27:05+02:00</time>
      </trkpt>
      <trkpt lat="41.58671" lon="9.30142">
        <ele>6</ele>
        <time>2008-05-30T19:27:10+02:00</time>
      </trkpt>
      <trkpt lat="41.58645" lon="9.30116">
        <ele>4</ele>
        <time>2008-05-30T19:27:14+02:00</time>
      </trkpt>
      <trkpt lat="41.58575" lon="9.30083">
        <ele>3</ele>
        <time>2008-05-30T19:27:23+02:00</time>
      </trkpt>
      <trkpt lat="41.58524" lon="9.30058">
        <ele>3</ele>
        <time>2008-05-30T19:27:30+02:00</time>
      </trkpt>
      <trkpt lat="41.5847" lon="9.30031">
        <ele>3</ele>
        <time>2008-05-30T19:27:38+02:00</time>
      </trkpt>
      <trkpt lat="41.58424" lon="9.30006">
        <ele>2</ele>
        <time>2008-05-30T19:27:45+02:00</time>
      </trkpt>
      <trkpt lat="41.58406" lon="9.29996">
        <ele>3</ele>
        <time>2008-05-30T19:27:48+02:00</time>
      </trkpt>
      <trkpt lat="41.58372" lon="9.29968">
        <ele>4</ele>
        <time>2008-05-30T19:27:55+02:00</time>
      </trkpt>
      <trkpt lat="41.58368" lon="9.29965">
        <ele>4</ele>
        <time>2008-05-30T19:27:56+02:00</time>
      </trkpt>
      <trkpt lat="41.58339" lon="9.29945">
        <ele>5</ele>
        <time>2008-05-30T19:28:02+02:00</time>
      </trkpt>
      <trkpt lat="41.58307" lon="9.29915">
        <ele>4</ele>
        <time>2008-05-30T19:28:08+02:00</time>
      </trkpt>
      <trkpt lat="41.58279" lon="9.29888">
        <ele>4</ele>
        <time>2008-05-30T19:28:13+02:00</time>
      </trkpt>
      <trkpt lat="41.58252" lon="9.29853">
        <ele>3</ele>
        <time>2008-05-30T19:28:19+02:00</time>
      </trkpt>
      <trkpt lat="41.5824" lon="9.29832">
        <ele>2</ele>
        <time>2008-05-30T19:28:23+02:00</time>
      </trkpt>
      <trkpt lat="41.5823" lon="9.29818">
        <ele>3</ele>
        <time>2008-05-30T19:28:27+02:00</time>
      </trkpt>
      <trkpt lat="41.58228" lon="9.29815">
        <ele>3</ele>
        <time>2008-05-30T19:28:29+02:00</time>
      </trkpt>
      <trkpt lat="41.58229" lon="9.29814">
        <ele>3</ele>
        <time>2008-05-30T19:28:35+02:00</time>
      </trkpt>
      <trkpt lat="41.5823" lon="9.29814">
        <ele>3</ele>
        <time>2008-05-30T19:28:45+02:00</time>
      </trkpt>
      <trkpt lat="41.5823" lon="9.29814">
        <ele>3</ele>
        <time>2008-05-30T19:28:54+02:00</time>
      </trkpt>
      <trkpt lat="41.5823" lon="9.29814">
        <ele>3</ele>
        <time>2008-05-30T19:29:01+02:00</time>
      </trkpt>
      <trkpt lat="41.58229" lon="9.29814">
        <ele>3</ele>
        <time>2008-05-30T19:29:06+02:00</time>
      </trkpt>
      <trkpt lat="41.58229" lon="9.29814">
        <ele>3</ele>
        <time>2008-05-30T19:29:09+02:00</time>
      </trkpt>
      <trkpt lat="41.58229" lon="9.29815">
        <ele>3</ele>
        <time>2008-05-30T19:29:15+02:00</time>
      </trkpt>
      <trkpt lat="41.58229" lon="9.29815">
        <ele>3</ele>
        <time>2008-05-30T19:29:23+02:00</time>
      </trkpt>
      <trkpt lat="41.58229" lon="9.29816">
        <ele>3</ele>
        <time>2008-05-30T19:29:35+02:00</time>
      </trkpt>
      <trkpt lat="41.58228" lon="9.29815">
        <ele>3</ele>
        <time>2008-05-30T19:29:38+02:00</time>
      </trkpt>
      <trkpt lat="41.58222" lon="9.29812">
        <ele>3</ele>
        <time>2008-05-30T19:29:42+02:00</time>
      </trkpt>
      <trkpt lat="41.58208" lon="9.29804">
        <ele>4</ele>
        <time>2008-05-30T19:29:48+02:00</time>
      </trkpt>
      <trkpt lat="41.58191" lon="9.29793">
        <ele>4</ele>
        <time>2008-05-30T19:29:53+02:00</time>
      </trkpt>
      <trkpt lat="41.58165" lon="9.29777">
        <ele>5</ele>
        <time>2008-05-30T19:29:59+02:00</time>
      </trkpt>
      <trkpt lat="41.58161" lon="9.29774">
        <ele>5</ele>
        <time>2008-05-30T19:30:00+02:00</time>
      </trkpt>
      <trkpt lat="41.58146" lon="9.29757">
        <ele>4</ele>
        <time>2008-05-30T19:30:04+02:00</time>
      </trkpt>
      <trkpt lat="41.58123" lon="9.29724">
        <ele>1</ele>
        <time>2008-05-30T19:30:11+02:00</time>
      </trkpt>
      <trkpt lat="41.58098" lon="9.29711">
        <ele>1</ele>
        <time>2008-05-30T19:30:16+02:00</time>
      </trkpt>
      <trkpt lat="41.58077" lon="9.29703">
        <ele>1</ele>
        <time>2008-05-30T19:30:20+02:00</time>
      </trkpt>
      <trkpt lat="41.58066" lon="9.29701">
        <ele>1</ele>
        <time>2008-05-30T19:30:22+02:00</time>
      </trkpt>
      <trkpt lat="41.58025" lon="9.29689">
        <ele>1</ele>
        <time>2008-05-30T19:30:30+02:00</time>
      </trkpt>
      <trkpt lat="41.58015" lon="9.29687">
        <ele>1</ele>
        <time>2008-05-30T19:30:32+02:00</time>
      </trkpt>
      <trkpt lat="41.57993" lon="9.2969">
        <ele>1</ele>
        <time>2008-05-30T19:30:36+02:00</time>
      </trkpt>
      <trkpt lat="41.57982" lon="9.29696">
        <ele>1</ele>
        <time>2008-05-30T19:30:38+02:00</time>
      </trkpt>
      <trkpt lat="41.57957" lon="9.29697">
        <ele>1</ele>
        <time>2008-05-30T19:30:43+02:00</time>
      </trkpt>
      <trkpt lat="41.57948" lon="9.29693">
        <ele>1</ele>
        <time>2008-05-30T19:30:45+02:00</time>
      </trkpt>
      <trkpt lat="41.57915" lon="9.29665">
        <ele>1</ele>
        <time>2008-05-30T19:30:53+02:00</time>
      </trkpt>
      <trkpt lat="41.57885" lon="9.29626">
        <ele>1</ele>
        <time>2008-05-30T19:31:01+02:00</time>
      </trkpt>
      <trkpt lat="41.57874" lon="9.29601">
        <ele>1</ele>
        <time>2008-05-30T19:31:05+02:00</time>
      </trkpt>
      <trkpt lat="41.57871" lon="9.29588">
        <ele>1</ele>
        <time>2008-05-30T19:31:07+02:00</time>
      </trkpt>
      <trkpt lat="41.57864" lon="9.29563">
        <ele>1</ele>
        <time>2008-05-30T19:31:11+02:00</time>
      </trkpt>
      <trkpt lat="41.57855" lon="9.29537">
        <ele>1</ele>
        <time>2008-05-30T19:31:15+02:00</time>
      </trkpt>
      <trkpt lat="41.57847" lon="9.29519">
        <ele>1</ele>
        <time>2008-05-30T19:31:18+02:00</time>
      </trkpt>
      <trkpt lat="41.57841" lon="9.29506">
        <ele>1</ele>
        <time>2008-05-30T19:31:20+02:00</time>
      </trkpt>
      <trkpt lat="41.5783" lon="9.29481">
        <ele>3</ele>
        <time>2008-05-30T19:31:24+02:00</time>
      </trkpt>
      <trkpt lat="41.57819" lon="9.29447">
        <ele>2</ele>
        <time>2008-05-30T19:31:29+02:00</time>
      </trkpt>
      <trkpt lat="41.57799" lon="9.29421">
        <ele>2</ele>
        <time>2008-05-30T19:31:34+02:00</time>
      </trkpt>
      <trkpt lat="41.57768" lon="9.29404">
        <ele>2</ele>
        <time>2008-05-30T19:31:40+02:00</time>
      </trkpt>
      <trkpt lat="41.57753" lon="9.29394">
        <ele>2</ele>
        <time>2008-05-30T19:31:43+02:00</time>
      </trkpt>
      <trkpt lat="41.57712" lon="9.29345">
        <ele>3</ele>
        <time>2008-05-30T19:31:53+02:00</time>
      </trkpt>
      <trkpt lat="41.577" lon="9.29329">
        <ele>3</ele>
        <time>2008-05-30T19:31:56+02:00</time>
      </trkpt>
      <trkpt lat="41.57688" lon="9.29306">
        <ele>3</ele>
        <time>2008-05-30T19:32:00+02:00</time>
      </trkpt>
      <trkpt lat="41.57674" lon="9.29257">
        <ele>3</ele>
        <time>2008-05-30T19:32:07+02:00</time>
      </trkpt>
      <trkpt lat="41.57659" lon="9.29216">
        <ele>2</ele>
        <time>2008-05-30T19:32:13+02:00</time>
      </trkpt>
      <trkpt lat="41.57644" lon="9.29183">
        <ele>2</ele>
        <time>2008-05-30T19:32:18+02:00</time>
      </trkpt>
      <trkpt lat="41.57613" lon="9.29151">
        <ele>1</ele>
        <time>2008-05-30T19:32:25+02:00</time>
      </trkpt>
      <trkpt lat="41.57584" lon="9.29126">
        <ele>1</ele>
        <time>2008-05-30T19:32:31+02:00</time>
      </trkpt>
      <trkpt lat="41.57564" lon="9.29098">
        <ele>1</ele>
        <time>2008-05-30T19:32:36+02:00</time>
      </trkpt>
      <trkpt lat="41.57529" lon="9.29072">
        <ele>1.06</ele>
        <time>2008-05-30T19:32:43+02:00</time>
      </trkpt>
      <trkpt lat="41.57493" lon="9.29051">
        <ele>2</ele>
        <time>2008-05-30T19:32:50+02:00</time>
      </trkpt>
      <trkpt lat="41.57474" lon="9.29024">
        <ele>1</ele>
        <time>2008-05-30T19:32:55+02:00</time>
      </trkpt>
      <trkpt lat="41.57463" lon="9.28997">
        <ele>1</ele>
        <time>2008-05-30T19:32:59+02:00</time>
      </trkpt>
      <trkpt lat="41.57447" lon="9.28975">
        <ele>1</ele>
        <time>2008-05-30T19:33:03+02:00</time>
      </trkpt>
      <trkpt lat="41.57413" lon="9.28943">
        <ele>1</ele>
        <time>2008-05-30T19:33:10+02:00</time>
      </trkpt>
      <trkpt lat="41.57372" lon="9.28908">
        <ele>3</ele>
        <time>2008-05-30T19:33:18+02:00</time>
      </trkpt>
      <trkpt lat="41.57348" lon="9.28886">
        <ele>3</ele>
        <time>2008-05-30T19:33:23+02:00</time>
      </trkpt>
      <trkpt lat="41.57318" lon="9.2886">
        <ele>4</ele>
        <time>2008-05-30T19:33:29+02:00</time>
      </trkpt>
      <trkpt lat="41.5728" lon="9.28826">
        <ele>4</ele>
        <time>2008-05-30T19:33:37+02:00</time>
      </trkpt>
      <trkpt lat="41.57244" lon="9.28799">
        <ele>3</ele>
        <time>2008-05-30T19:33:44+02:00</time>
      </trkpt>
      <trkpt lat="41.57203" lon="9.28766">
        <ele>3</ele>
        <time>2008-05-30T19:33:52+02:00</time>
      </trkpt>
      <trkpt lat="41.57166" lon="9.28739">
        <ele>3</ele>
        <time>2008-05-30T19:33:59+02:00</time>
      </trkpt>
      <trkpt lat="41.57147" lon="9.28722">
        <ele>4</ele>
        <time>2008-05-30T19:34:03+02:00</time>
      </trkpt>
      <trkpt lat="41.57134" lon="9.28694">
        <ele>4</ele>
        <time>2008-05-30T19:34:08+02:00</time>
      </trkpt>
      <trkpt lat="41.57136" lon="9.28665">
        <ele>4</ele>
        <time>2008-05-30T19:34:12+02:00</time>
      </trkpt>
      <trkpt lat="41.57152" lon="9.28607">
        <ele>4</ele>
        <time>2008-05-30T19:34:21+02:00</time>
      </trkpt>
      <trkpt lat="41.57153" lon="9.286">
        <ele>4</ele>
        <time>2008-05-30T19:34:22+02:00</time>
      </trkpt>
      <trkpt lat="41.57163" lon="9.2857">
        <ele>5</ele>
        <time>2008-05-30T19:34:27+02:00</time>
      </trkpt>
      <trkpt lat="41.57175" lon="9.28528">
        <ele>6</ele>
        <time>2008-05-30T19:34:33+02:00</time>
      </trkpt>
      <trkpt lat="41.57177" lon="9.28521">
        <ele>6</ele>
        <time>2008-05-30T19:34:34+02:00</time>
      </trkpt>
      <trkpt lat="41.57189" lon="9.28481">
        <ele>5</ele>
        <time>2008-05-30T19:34:40+02:00</time>
      </trkpt>
      <trkpt lat="41.57204" lon="9.28439">
        <ele>5</ele>
        <time>2008-05-30T19:34:46+02:00</time>
      </trkpt>
      <trkpt lat="41.57213" lon="9.284">
        <ele>4</ele>
        <time>2008-05-30T19:34:51+02:00</time>
      </trkpt>
      <trkpt lat="41.57223" lon="9.28366">
        <ele>4</ele>
        <time>2008-05-30T19:34:56+02:00</time>
      </trkpt>
      <trkpt lat="41.57239" lon="9.2832">
        <ele>6</ele>
        <time>2008-05-30T19:35:03+02:00</time>
      </trkpt>
      <trkpt lat="41.57243" lon="9.28303">
        <ele>5</ele>
        <time>2008-05-30T19:35:05+02:00</time>
      </trkpt>
      <trkpt lat="41.57253" lon="9.28274">
        <ele>5</ele>
        <time>2008-05-30T19:35:09+02:00</time>
      </trkpt>
      <trkpt lat="41.57262" lon="9.28244">
        <ele>6</ele>
        <time>2008-05-30T19:35:13+02:00</time>
      </trkpt>
      <trkpt lat="41.57272" lon="9.28214">
        <ele>6</ele>
        <time>2008-05-30T19:35:17+02:00</time>
      </trkpt>
      <trkpt lat="41.5728" lon="9.28184">
        <ele>6</ele>
        <time>2008-05-30T19:35:21+02:00</time>
      </trkpt>
      <trkpt lat="41.57281" lon="9.28147">
        <ele>6</ele>
        <time>2008-05-30T19:35:25+02:00</time>
      </trkpt>
      <trkpt lat="41.57278" lon="9.28138">
        <ele>5</ele>
        <time>2008-05-30T19:35:26+02:00</time>
      </trkpt>
      <trkpt lat="41.57246" lon="9.2807">
        <ele>4</ele>
        <time>2008-05-30T19:35:34+02:00</time>
      </trkpt>
      <trkpt lat="41.57218" lon="9.28018">
        <ele>3</ele>
        <time>2008-05-30T19:35:41+02:00</time>
      </trkpt>
      <trkpt lat="41.57186" lon="9.27955">
        <ele>3</ele>
        <time>2008-05-30T19:35:49+02:00</time>
      </trkpt>
      <trkpt lat="41.57175" lon="9.27923">
        <ele>4</ele>
        <time>2008-05-30T19:35:53+02:00</time>
      </trkpt>
      <trkpt lat="41.57158" lon="9.27874">
        <ele>3</ele>
        <time>2008-05-30T19:35:59+02:00</time>
      </trkpt>
      <trkpt lat="41.57152" lon="9.27858">
        <ele>3</ele>
        <time>2008-05-30T19:36:01+02:00</time>
      </trkpt>
      <trkpt lat="41.57148" lon="9.27843">
        <ele>2</ele>
        <time>2008-05-30T19:36:03+02:00</time>
      </trkpt>
      <trkpt lat="41.57146" lon="9.27801">
        <ele>3</ele>
        <time>2008-05-30T19:36:08+02:00</time>
      </trkpt>
      <trkpt lat="41.57156" lon="9.27782">
        <ele>3</ele>
        <time>2008-05-30T19:36:11+02:00</time>
      </trkpt>
      <trkpt lat="41.57165" lon="9.27773">
        <ele>4</ele>
        <time>2008-05-30T19:36:13+02:00</time>
      </trkpt>
      <trkpt lat="41.57178" lon="9.27761">
        <ele>3</ele>
        <time>2008-05-30T19:36:16+02:00</time>
      </trkpt>
      <trkpt lat="41.57188" lon="9.27733">
        <ele>3</ele>
        <time>2008-05-30T19:36:21+02:00</time>
      </trkpt>
      <trkpt lat="41.57188" lon="9.2772">
        <ele>3</ele>
        <time>2008-05-30T19:36:23+02:00</time>
      </trkpt>
      <trkpt lat="41.57177" lon="9.27652">
        <ele>3</ele>
        <time>2008-05-30T19:36:33+02:00</time>
      </trkpt>
      <trkpt lat="41.57176" lon="9.27637">
        <ele>3</ele>
        <time>2008-05-30T19:36:35+02:00</time>
      </trkpt>
      <trkpt lat="41.5718" lon="9.27585">
        <ele>4</ele>
        <time>2008-05-30T19:36:42+02:00</time>
      </trkpt>
      <trkpt lat="41.57185" lon="9.27541">
        <ele>3</ele>
        <time>2008-05-30T19:36:48+02:00</time>
      </trkpt>
      <trkpt lat="41.5719" lon="9.2749">
        <ele>3</ele>
        <time>2008-05-30T19:36:56+02:00</time>
      </trkpt>
      <trkpt lat="41.57191" lon="9.27478">
        <ele>3</ele>
        <time>2008-05-30T19:36:58+02:00</time>
      </trkpt>
      <trkpt lat="41.572" lon="9.27457">
        <ele>2</ele>
        <time>2008-05-30T19:37:02+02:00</time>
      </trkpt>
      <trkpt lat="41.57203" lon="9.27455">
        <ele>2</ele>
        <time>2008-05-30T19:37:10+02:00</time>
      </trkpt>
      <trkpt lat="41.57203" lon="9.27456">
        <ele>2</ele>
        <time>2008-05-30T19:37:23+02:00</time>
      </trkpt>
      <trkpt lat="41.57203" lon="9.27456">
        <ele>2</ele>
        <time>2008-05-30T19:37:29+02:00</time>
      </trkpt>
      <trkpt lat="41.57204" lon="9.27455">
        <ele>2</ele>
        <time>2008-05-30T19:37:35+02:00</time>
      </trkpt>
      <trkpt lat="41.57204" lon="9.27454">
        <ele>2</ele>
        <time>2008-05-30T19:37:36+02:00</time>
      </trkpt>
      <trkpt lat="41.57218" lon="9.27441">
        <ele>2</ele>
        <time>2008-05-30T19:37:42+02:00</time>
      </trkpt>
      <trkpt lat="41.57235" lon="9.27437">
        <ele>2</ele>
        <time>2008-05-30T19:37:46+02:00</time>
      </trkpt>
      <trkpt lat="41.57269" lon="9.27441">
        <ele>2</ele>
        <time>2008-05-30T19:37:52+02:00</time>
      </trkpt>
      <trkpt lat="41.57338" lon="9.2745">
        <ele>5</ele>
        <time>2008-05-30T19:38:03+02:00</time>
      </trkpt>
      <trkpt lat="41.57386" lon="9.27456">
        <ele>4</ele>
        <time>2008-05-30T19:38:11+02:00</time>
      </trkpt>
      <trkpt lat="41.57428" lon="9.27461">
        <ele>4</ele>
        <time>2008-05-30T19:38:18+02:00</time>
      </trkpt>
      <trkpt lat="41.57478" lon="9.27467">
        <ele>4</ele>
        <time>2008-05-30T19:38:26+02:00</time>
      </trkpt>
      <trkpt lat="41.57512" lon="9.27474">
        <ele>5</ele>
        <time>2008-05-30T19:38:31+02:00</time>
      </trkpt>
      <trkpt lat="41.57526" lon="9.27476">
        <ele>4</ele>
        <time>2008-05-30T19:38:33+02:00</time>
      </trkpt>
      <trkpt lat="41.5754" lon="9.27479">
        <ele>4</ele>
        <time>2008-05-30T19:38:35+02:00</time>
      </trkpt>
      <trkpt lat="41.57595" lon="9.27487">
        <ele>5</ele>
        <time>2008-05-30T19:38:43+02:00</time>
      </trkpt>
      <trkpt lat="41.57654" lon="9.27491">
        <ele>4</ele>
        <time>2008-05-30T19:38:51+02:00</time>
      </trkpt>
      <trkpt lat="41.57694" lon="9.27496">
        <ele>4</ele>
        <time>2008-05-30T19:38:57+02:00</time>
      </trkpt>
      <trkpt lat="41.57716" lon="9.27512">
        <ele>5</ele>
        <time>2008-05-30T19:39:01+02:00</time>
      </trkpt>
      <trkpt lat="41.57732" lon="9.27525">
        <ele>5</ele>
        <time>2008-05-30T19:39:04+02:00</time>
      </trkpt>
      <trkpt lat="41.57751" lon="9.27524">
        <ele>6</ele>
        <time>2008-05-30T19:39:07+02:00</time>
      </trkpt>
      <trkpt lat="41.57757" lon="9.2752">
        <ele>6</ele>
        <time>2008-05-30T19:39:08+02:00</time>
      </trkpt>
      <trkpt lat="41.57788" lon="9.27509">
        <ele>6</ele>
        <time>2008-05-30T19:39:13+02:00</time>
      </trkpt>
      <trkpt lat="41.57855" lon="9.27517">
        <ele>6</ele>
        <time>2008-05-30T19:39:23+02:00</time>
      </trkpt>
      <trkpt lat="41.57912" lon="9.27524">
        <ele>6</ele>
        <time>2008-05-30T19:39:32+02:00</time>
      </trkpt>
      <trkpt lat="41.57954" lon="9.27532">
        <ele>6</ele>
        <time>2008-05-30T19:39:40+02:00</time>
      </trkpt>
      <trkpt lat="41.57987" lon="9.27537">
        <ele>6</ele>
        <time>2008-05-30T19:39:47+02:00</time>
      </trkpt>
      <trkpt lat="41.58022" lon="9.27541">
        <ele>8</ele>
        <time>2008-05-30T19:39:55+02:00</time>
      </trkpt>
      <trkpt lat="41.58044" lon="9.27544">
        <ele>9</ele>
        <time>2008-05-30T19:40:00+02:00</time>
      </trkpt>
      <trkpt lat="41.58052" lon="9.27542">
        <ele>9</ele>
        <time>2008-05-30T19:40:02+02:00</time>
      </trkpt>
      <trkpt lat="41.58089" lon="9.27545">
        <ele>11</ele>
        <time>2008-05-30T19:40:11+02:00</time>
      </trkpt>
      <trkpt lat="41.58129" lon="9.2755">
        <ele>12</ele>
        <time>2008-05-30T19:40:21+02:00</time>
      </trkpt>
      <trkpt lat="41.58172" lon="9.27556">
        <ele>15</ele>
        <time>2008-05-30T19:40:32+02:00</time>
      </trkpt>
      <trkpt lat="41.58204" lon="9.27559">
        <ele>16</ele>
        <time>2008-05-30T19:40:40+02:00</time>
      </trkpt>
      <trkpt lat="41.5824" lon="9.27564">
        <ele>16</ele>
        <time>2008-05-30T19:40:48+02:00</time>
      </trkpt>
      <trkpt lat="41.58283" lon="9.2757">
        <ele>20</ele>
        <time>2008-05-30T19:40:58+02:00</time>
      </trkpt>
      <trkpt lat="41.58309" lon="9.27569">
        <ele>21</ele>
        <time>2008-05-30T19:41:03+02:00</time>
      </trkpt>
      <trkpt lat="41.58314" lon="9.27567">
        <ele>21</ele>
        <time>2008-05-30T19:41:04+02:00</time>
      </trkpt>
      <trkpt lat="41.58323" lon="9.27564">
        <ele>21</ele>
        <time>2008-05-30T19:41:06+02:00</time>
      </trkpt>
      <trkpt lat="41.58331" lon="9.27561">
        <ele>21</ele>
        <time>2008-05-30T19:41:08+02:00</time>
      </trkpt>
      <trkpt lat="41.58362" lon="9.27521">
        <ele>26</ele>
        <time>2008-05-30T19:41:21+02:00</time>
      </trkpt>
      <trkpt lat="41.58361" lon="9.27516">
        <ele>26</ele>
        <time>2008-05-30T19:41:24+02:00</time>
      </trkpt>
      <trkpt lat="41.58361" lon="9.27508">
        <ele>26</ele>
        <time>2008-05-30T19:41:37+02:00</time>
      </trkpt>
      <trkpt lat="41.5836" lon="9.2751">
        <ele>26</ele>
        <time>2008-05-30T19:41:41+02:00</time>
      </trkpt>
      <trkpt lat="41.58359" lon="9.27515">
        <ele>26</ele>
        <time>2008-05-30T19:41:46+02:00</time>
      </trkpt>
      <trkpt lat="41.58353" lon="9.27522">
        <ele>26</ele>
        <time>2008-05-30T19:41:52+02:00</time>
      </trkpt>
      <trkpt lat="41.58348" lon="9.27524">
        <ele>26</ele>
        <time>2008-05-30T19:41:59+02:00</time>
      </trkpt>
      <trkpt lat="41.58349" lon="9.27528">
        <ele>26</ele>
        <time>2008-05-30T19:42:05+02:00</time>
      </trkpt>
      <trkpt lat="41.58353" lon="9.27532">
        <ele>25</ele>
        <time>2008-05-30T19:42:15+02:00</time>
      </trkpt>
      <trkpt lat="41.58354" lon="9.27528">
        <ele>25</ele>
        <time>2008-05-30T19:42:20+02:00</time>
      </trkpt>
      <trkpt lat="41.58356" lon="9.27524">
        <ele>26</ele>
        <time>2008-05-30T19:42:29+02:00</time>
      </trkpt>
      <trkpt lat="41.58355" lon="9.27526">
        <ele>26</ele>
        <time>2008-05-30T19:42:31+02:00</time>
      </trkpt>
      <trkpt lat="41.58352" lon="9.27526">
        <ele>26</ele>
        <time>2008-05-30T19:42:34+02:00</time>
      </trkpt>
      <trkpt lat="41.58358" lon="9.27521">
        <ele>26</ele>
        <time>2008-05-30T19:42:41+02:00</time>
      </trkpt>
      <trkpt lat="41.58361" lon="9.27518">
        <ele>26</ele>
        <time>2008-05-30T19:42:47+02:00</time>
      </trkpt>
      <trkpt lat="41.58357" lon="9.2752">
        <ele>26</ele>
        <time>2008-05-30T19:42:52+02:00</time>
      </trkpt>
      <trkpt lat="41.58349" lon="9.27516">
        <ele>26</ele>
        <time>2008-05-30T19:42:59+02:00</time>
      </trkpt>
      <trkpt lat="41.58352" lon="9.27518">
        <ele>26</ele>
        <time>2008-05-30T19:43:04+02:00</time>
      </trkpt>
      <trkpt lat="41.58354" lon="9.27514">
        <ele>26</ele>
        <time>2008-05-30T19:43:10+02:00</time>
      </trkpt>
      <trkpt lat="41.58353" lon="9.27514">
        <ele>26</ele>
        <time>2008-05-30T19:43:13+02:00</time>
      </trkpt>
      <trkpt lat="41.58348" lon="9.27515">
        <ele>26</ele>
        <time>2008-05-30T19:43:20+02:00</time>
      </trkpt>
      <trkpt lat="41.58347" lon="9.27516">
        <ele>26</ele>
        <time>2008-05-30T19:43:21+02:00</time>
      </trkpt>
      <trkpt lat="41.5828" lon="9.27562">
        <ele>20</ele>
        <time>2008-05-31T10:42:26+02:00</time>
      </trkpt>
      <trkpt lat="41.58249" lon="9.27557">
        <ele>17</ele>
        <time>2008-05-31T10:42:34+02:00</time>
      </trkpt>
      <trkpt lat="41.5823" lon="9.27556">
        <ele>16</ele>
        <time>2008-05-31T10:42:40+02:00</time>
      </trkpt>
      <trkpt lat="41.58208" lon="9.27554">
        <ele>16</ele>
        <time>2008-05-31T10:42:46+02:00</time>
      </trkpt>
      <trkpt lat="41.5817" lon="9.2755">
        <ele>15</ele>
        <time>2008-05-31T10:42:55+02:00</time>
      </trkpt>
      <trkpt lat="41.58139" lon="9.27546">
        <ele>12</ele>
        <time>2008-05-31T10:43:01+02:00</time>
      </trkpt>
      <trkpt lat="41.58099" lon="9.27541">
        <ele>11</ele>
        <time>2008-05-31T10:43:08+02:00</time>
      </trkpt>
      <trkpt lat="41.58059" lon="9.27535">
        <ele>9</ele>
        <time>2008-05-31T10:43:14+02:00</time>
      </trkpt>
      <trkpt lat="41.58037" lon="9.27532">
        <ele>8</ele>
        <time>2008-05-31T10:43:18+02:00</time>
      </trkpt>
      <trkpt lat="41.58007" lon="9.27526">
        <ele>8</ele>
        <time>2008-05-31T10:43:24+02:00</time>
      </trkpt>
      <trkpt lat="41.5797" lon="9.27521">
        <ele>6</ele>
        <time>2008-05-31T10:43:30+02:00</time>
      </trkpt>
      <trkpt lat="41.57913" lon="9.27514">
        <ele>6</ele>
        <time>2008-05-31T10:43:38+02:00</time>
      </trkpt>
      <trkpt lat="41.57852" lon="9.27507">
        <ele>6</ele>
        <time>2008-05-31T10:43:46+02:00</time>
      </trkpt>
      <trkpt lat="41.5781" lon="9.27501">
        <ele>6</ele>
        <time>2008-05-31T10:43:52+02:00</time>
      </trkpt>
      <trkpt lat="41.57785" lon="9.27491">
        <ele>5</ele>
        <time>2008-05-31T10:43:56+02:00</time>
      </trkpt>
      <trkpt lat="41.57767" lon="9.27471">
        <ele>5</ele>
        <time>2008-05-31T10:44:00+02:00</time>
      </trkpt>
      <trkpt lat="41.57741" lon="9.27446">
        <ele>4</ele>
        <time>2008-05-31T10:44:06+02:00</time>
      </trkpt>
      <trkpt lat="41.57724" lon="9.27451">
        <ele>4</ele>
        <time>2008-05-31T10:44:09+02:00</time>
      </trkpt>
      <trkpt lat="41.5772" lon="9.27455">
        <ele>4</ele>
        <time>2008-05-31T10:44:10+02:00</time>
      </trkpt>
      <trkpt lat="41.57693" lon="9.2747">
        <ele>4</ele>
        <time>2008-05-31T10:44:15+02:00</time>
      </trkpt>
      <trkpt lat="41.57651" lon="9.27472">
        <ele>3</ele>
        <time>2008-05-31T10:44:22+02:00</time>
      </trkpt>
      <trkpt lat="41.57606" lon="9.2746">
        <ele>3</ele>
        <time>2008-05-31T10:44:30+02:00</time>
      </trkpt>
      <trkpt lat="41.57569" lon="9.27451">
        <ele>4</ele>
        <time>2008-05-31T10:44:37+02:00</time>
      </trkpt>
      <trkpt lat="41.57516" lon="9.27446">
        <ele>4</ele>
        <time>2008-05-31T10:44:48+02:00</time>
      </trkpt>
      <trkpt lat="41.57476" lon="9.27441">
        <ele>4</ele>
        <time>2008-05-31T10:44:56+02:00</time>
      </trkpt>
      <trkpt lat="41.57422" lon="9.27435">
        <ele>4</ele>
        <time>2008-05-31T10:45:07+02:00</time>
      </trkpt>
      <trkpt lat="41.57375" lon="9.27428">
        <ele>5</ele>
        <time>2008-05-31T10:45:16+02:00</time>
      </trkpt>
      <trkpt lat="41.5734" lon="9.27424">
        <ele>5</ele>
        <time>2008-05-31T10:45:22+02:00</time>
      </trkpt>
      <trkpt lat="41.57287" lon="9.27423">
        <ele>3</ele>
        <time>2008-05-31T10:45:31+02:00</time>
      </trkpt>
      <trkpt lat="41.57244" lon="9.27424">
        <ele>1</ele>
        <time>2008-05-31T10:45:38+02:00</time>
      </trkpt>
      <trkpt lat="41.57237" lon="9.27424">
        <ele>2</ele>
        <time>2008-05-31T10:45:39+02:00</time>
      </trkpt>
      <trkpt lat="41.57206" lon="9.2741">
        <ele>2</ele>
        <time>2008-05-31T10:45:44+02:00</time>
      </trkpt>
      <trkpt lat="41.57181" lon="9.27405">
        <ele>2</ele>
        <time>2008-05-31T10:45:49+02:00</time>
      </trkpt>
      <trkpt lat="41.57176" lon="9.27426">
        <ele>3</ele>
        <time>2008-05-31T10:45:52+02:00</time>
      </trkpt>
      <trkpt lat="41.57177" lon="9.27433">
        <ele>3</ele>
        <time>2008-05-31T10:45:53+02:00</time>
      </trkpt>
      <trkpt lat="41.57183" lon="9.27471">
        <ele>3</ele>
        <time>2008-05-31T10:45:58+02:00</time>
      </trkpt>
      <trkpt lat="41.57182" lon="9.27517">
        <ele>3</ele>
        <time>2008-05-31T10:46:03+02:00</time>
      </trkpt>
      <trkpt lat="41.57178" lon="9.27576">
        <ele>4</ele>
        <time>2008-05-31T10:46:10+02:00</time>
      </trkpt>
      <trkpt lat="41.57177" lon="9.27593">
        <ele>4</ele>
        <time>2008-05-31T10:46:12+02:00</time>
      </trkpt>
      <trkpt lat="41.57173" lon="9.27616">
        <ele>3</ele>
        <time>2008-05-31T10:46:15+02:00</time>
      </trkpt>
      <trkpt lat="41.57175" lon="9.27668">
        <ele>3</ele>
        <time>2008-05-31T10:46:22+02:00</time>
      </trkpt>
      <trkpt lat="41.57178" lon="9.27689">
        <ele>3</ele>
        <time>2008-05-31T10:46:25+02:00</time>
      </trkpt>
      <trkpt lat="41.57184" lon="9.27725">
        <ele>3</ele>
        <time>2008-05-31T10:46:30+02:00</time>
      </trkpt>
      <trkpt lat="41.5718" lon="9.27755">
        <ele>3</ele>
        <time>2008-05-31T10:46:34+02:00</time>
      </trkpt>
      <trkpt lat="41.57171" lon="9.27766">
        <ele>3</ele>
        <time>2008-05-31T10:46:36+02:00</time>
      </trkpt>
      <trkpt lat="41.57155" lon="9.27779">
        <ele>4</ele>
        <time>2008-05-31T10:46:39+02:00</time>
      </trkpt>
      <trkpt lat="41.5714" lon="9.27806">
        <ele>3</ele>
        <time>2008-05-31T10:46:43+02:00</time>
      </trkpt>
      <trkpt lat="41.57139" lon="9.2783">
        <ele>3</ele>
        <time>2008-05-31T10:46:46+02:00</time>
      </trkpt>
      <trkpt lat="41.57141" lon="9.27837">
        <ele>3</ele>
        <time>2008-05-31T10:46:47+02:00</time>
      </trkpt>
      <trkpt lat="41.57159" lon="9.27894">
        <ele>3</ele>
        <time>2008-05-31T10:46:55+02:00</time>
      </trkpt>
      <trkpt lat="41.57175" lon="9.27941">
        <ele>3</ele>
        <time>2008-05-31T10:47:02+02:00</time>
      </trkpt>
      <trkpt lat="41.57184" lon="9.27967">
        <ele>3</ele>
        <time>2008-05-31T10:47:06+02:00</time>
      </trkpt>
      <trkpt lat="41.57207" lon="9.28009">
        <ele>3</ele>
        <time>2008-05-31T10:47:13+02:00</time>
      </trkpt>
      <trkpt lat="41.57217" lon="9.28028">
        <ele>3</ele>
        <time>2008-05-31T10:47:16+02:00</time>
      </trkpt>
      <trkpt lat="41.57237" lon="9.2807">
        <ele>4</ele>
        <time>2008-05-31T10:47:23+02:00</time>
      </trkpt>
      <trkpt lat="41.57249" lon="9.28093">
        <ele>5</ele>
        <time>2008-05-31T10:47:27+02:00</time>
      </trkpt>
      <trkpt lat="41.57272" lon="9.2814">
        <ele>6</ele>
        <time>2008-05-31T10:47:35+02:00</time>
      </trkpt>
      <trkpt lat="41.57275" lon="9.28165">
        <ele>6</ele>
        <time>2008-05-31T10:47:39+02:00</time>
      </trkpt>
      <trkpt lat="41.57262" lon="9.28213">
        <ele>6</ele>
        <time>2008-05-31T10:47:47+02:00</time>
      </trkpt>
      <trkpt lat="41.5725" lon="9.28255">
        <ele>7</ele>
        <time>2008-05-31T10:47:53+02:00</time>
      </trkpt>
      <trkpt lat="41.57244" lon="9.28279">
        <ele>6</ele>
        <time>2008-05-31T10:47:57+02:00</time>
      </trkpt>
      <trkpt lat="41.57232" lon="9.28324">
        <ele>5</ele>
        <time>2008-05-31T10:48:04+02:00</time>
      </trkpt>
      <trkpt lat="41.57219" lon="9.28367">
        <ele>4</ele>
        <time>2008-05-31T10:48:11+02:00</time>
      </trkpt>
      <trkpt lat="41.57205" lon="9.28415">
        <ele>4</ele>
        <time>2008-05-31T10:48:18+02:00</time>
      </trkpt>
      <trkpt lat="41.57196" lon="9.28441">
        <ele>4</ele>
        <time>2008-05-31T10:48:22+02:00</time>
      </trkpt>
      <trkpt lat="41.57184" lon="9.28481">
        <ele>5</ele>
        <time>2008-05-31T10:48:28+02:00</time>
      </trkpt>
      <trkpt lat="41.57173" lon="9.2852">
        <ele>6</ele>
        <time>2008-05-31T10:48:34+02:00</time>
      </trkpt>
      <trkpt lat="41.5716" lon="9.28569">
        <ele>5</ele>
        <time>2008-05-31T10:48:41+02:00</time>
      </trkpt>
      <trkpt lat="41.57147" lon="9.28617">
        <ele>4</ele>
        <time>2008-05-31T10:48:48+02:00</time>
      </trkpt>
      <trkpt lat="41.57134" lon="9.28661">
        <ele>4</ele>
        <time>2008-05-31T10:48:54+02:00</time>
      </trkpt>
      <trkpt lat="41.57132" lon="9.28669">
        <ele>4</ele>
        <time>2008-05-31T10:48:55+02:00</time>
      </trkpt>
      <trkpt lat="41.57124" lon="9.28702">
        <ele>4</ele>
        <time>2008-05-31T10:49:00+02:00</time>
      </trkpt>
      <trkpt lat="41.57109" lon="9.28715">
        <ele>4</ele>
        <time>2008-05-31T10:49:04+02:00</time>
      </trkpt>
      <trkpt lat="41.57099" lon="9.28716">
        <ele>4</ele>
        <time>2008-05-31T10:49:07+02:00</time>
      </trkpt>
      <trkpt lat="41.57096" lon="9.28717">
        <ele>4</ele>
        <time>2008-05-31T10:49:08+02:00</time>
      </trkpt>
      <trkpt lat="41.5708" lon="9.28725">
        <ele>5</ele>
        <time>2008-05-31T10:49:14+02:00</time>
      </trkpt>
      <trkpt lat="41.57064" lon="9.28739">
        <ele>5</ele>
        <time>2008-05-31T10:49:20+02:00</time>
      </trkpt>
      <trkpt lat="41.5705" lon="9.28751">
        <ele>5</ele>
        <time>2008-05-31T10:49:24+02:00</time>
      </trkpt>
      <trkpt lat="41.57039" lon="9.28769">
        <ele>5</ele>
        <time>2008-05-31T10:49:28+02:00</time>
      </trkpt>
      <trkpt lat="41.57022" lon="9.28779">
        <ele>5</ele>
        <time>2008-05-31T10:49:33+02:00</time>
      </trkpt>
      <trkpt lat="41.57007" lon="9.28768">
        <ele>5</ele>
        <time>2008-05-31T10:49:37+02:00</time>
      </trkpt>
      <trkpt lat="41.57004" lon="9.28763">
        <ele>5</ele>
        <time>2008-05-31T10:49:38+02:00</time>
      </trkpt>
      <trkpt lat="41.56999" lon="9.28756">
        <ele>5</ele>
        <time>2008-05-31T10:49:40+02:00</time>
      </trkpt>
      <trkpt lat="41.56989" lon="9.28734">
        <ele>5</ele>
        <time>2008-05-31T10:49:46+02:00</time>
      </trkpt>
      <trkpt lat="41.56977" lon="9.28713">
        <ele>5</ele>
        <time>2008-05-31T10:49:51+02:00</time>
      </trkpt>
      <trkpt lat="41.56968" lon="9.28699">
        <ele>5</ele>
        <time>2008-05-31T10:49:54+02:00</time>
      </trkpt>
      <trkpt lat="41.56953" lon="9.28686">
        <ele>4</ele>
        <time>2008-05-31T10:49:58+02:00</time>
      </trkpt>
      <trkpt lat="41.56929" lon="9.28686">
        <ele>3</ele>
        <time>2008-05-31T10:50:03+02:00</time>
      </trkpt>
      <trkpt lat="41.56915" lon="9.28686">
        <ele>3</ele>
        <time>2008-05-31T10:50:06+02:00</time>
      </trkpt>
      <trkpt lat="41.56898" lon="9.28685">
        <ele>3</ele>
        <time>2008-05-31T10:50:10+02:00</time>
      </trkpt>
      <trkpt lat="41.56886" lon="9.28684">
        <ele>3</ele>
        <time>2008-05-31T10:50:13+02:00</time>
      </trkpt>
      <trkpt lat="41.56864" lon="9.28686">
        <ele>3</ele>
        <time>2008-05-31T10:50:18+02:00</time>
      </trkpt>
      <trkpt lat="41.5685" lon="9.28686">
        <ele>3</ele>
        <time>2008-05-31T10:50:21+02:00</time>
      </trkpt>
      <trkpt lat="41.56835" lon="9.28686">
        <ele>3</ele>
        <time>2008-05-31T10:50:24+02:00</time>
      </trkpt>
      <trkpt lat="41.56807" lon="9.28686">
        <ele>4</ele>
        <time>2008-05-31T10:50:30+02:00</time>
      </trkpt>
      <trkpt lat="41.56797" lon="9.28685">
        <ele>4</ele>
        <time>2008-05-31T10:50:32+02:00</time>
      </trkpt>
      <trkpt lat="41.56768" lon="9.28665">
        <ele>4</ele>
        <time>2008-05-31T10:50:38+02:00</time>
      </trkpt>
      <trkpt lat="41.56753" lon="9.28645">
        <ele>4</ele>
        <time>2008-05-31T10:50:42+02:00</time>
      </trkpt>
      <trkpt lat="41.56747" lon="9.28635">
        <ele>4</ele>
        <time>2008-05-31T10:50:44+02:00</time>
      </trkpt>
      <trkpt lat="41.56727" lon="9.28607">
        <ele>3</ele>
        <time>2008-05-31T10:50:50+02:00</time>
      </trkpt>
      <trkpt lat="41.5671" lon="9.28584">
        <ele>3</ele>
        <time>2008-05-31T10:50:55+02:00</time>
      </trkpt>
      <trkpt lat="41.56691" lon="9.28577">
        <ele>2</ele>
        <time>2008-05-31T10:50:59+02:00</time>
      </trkpt>
      <trkpt lat="41.56682" lon="9.2858">
        <ele>2</ele>
        <time>2008-05-31T10:51:01+02:00</time>
      </trkpt>
      <trkpt lat="41.56671" lon="9.2859">
        <ele>3</ele>
        <time>2008-05-31T10:51:04+02:00</time>
      </trkpt>
      <trkpt lat="41.56653" lon="9.28599">
        <ele>3</ele>
        <time>2008-05-31T10:51:08+02:00</time>
      </trkpt>
      <trkpt lat="41.56636" lon="9.28591">
        <ele>4</ele>
        <time>2008-05-31T10:51:12+02:00</time>
      </trkpt>
      <trkpt lat="41.56633" lon="9.28588">
        <ele>4</ele>
        <time>2008-05-31T10:51:13+02:00</time>
      </trkpt>
      <trkpt lat="41.56629" lon="9.28583">
        <ele>3</ele>
        <time>2008-05-31T10:51:15+02:00</time>
      </trkpt>
      <trkpt lat="41.56619" lon="9.2857">
        <ele>3</ele>
        <time>2008-05-31T10:51:19+02:00</time>
      </trkpt>
      <trkpt lat="41.5659" lon="9.28559">
        <ele>3</ele>
        <time>2008-05-31T10:51:26+02:00</time>
      </trkpt>
      <trkpt lat="41.56579" lon="9.28559">
        <ele>4</ele>
        <time>2008-05-31T10:51:29+02:00</time>
      </trkpt>
      <trkpt lat="41.56563" lon="9.28561">
        <ele>4</ele>
        <time>2008-05-31T10:51:33+02:00</time>
      </trkpt>
      <trkpt lat="41.56537" lon="9.28563">
        <ele>4</ele>
        <time>2008-05-31T10:51:40+02:00</time>
      </trkpt>
      <trkpt lat="41.56512" lon="9.28561">
        <ele>4</ele>
        <time>2008-05-31T10:51:46+02:00</time>
      </trkpt>
      <trkpt lat="41.56499" lon="9.28563">
        <ele>4</ele>
        <time>2008-05-31T10:51:49+02:00</time>
      </trkpt>
      <trkpt lat="41.56465" lon="9.28568">
        <ele>4</ele>
        <time>2008-05-31T10:51:56+02:00</time>
      </trkpt>
      <trkpt lat="41.56454" lon="9.28567">
        <ele>4</ele>
        <time>2008-05-31T10:51:58+02:00</time>
      </trkpt>
      <trkpt lat="41.56438" lon="9.28563">
        <ele>4</ele>
        <time>2008-05-31T10:52:01+02:00</time>
      </trkpt>
      <trkpt lat="41.56415" lon="9.28549">
        <ele>4</ele>
        <time>2008-05-31T10:52:06+02:00</time>
      </trkpt>
      <trkpt lat="41.5641" lon="9.28545">
        <ele>4</ele>
        <time>2008-05-31T10:52:07+02:00</time>
      </trkpt>
      <trkpt lat="41.56403" lon="9.28538">
        <ele>3</ele>
        <time>2008-05-31T10:52:09+02:00</time>
      </trkpt>
      <trkpt lat="41.56389" lon="9.28517">
        <ele>3</ele>
        <time>2008-05-31T10:52:14+02:00</time>
      </trkpt>
      <trkpt lat="41.56384" lon="9.28511">
        <ele>3</ele>
        <time>2008-05-31T10:52:16+02:00</time>
      </trkpt>
      <trkpt lat="41.56377" lon="9.2851">
        <ele>3</ele>
        <time>2008-05-31T10:52:20+02:00</time>
      </trkpt>
      <trkpt lat="41.56373" lon="9.28527">
        <ele>3</ele>
        <time>2008-05-31T10:52:25+02:00</time>
      </trkpt>
      <trkpt lat="41.56359" lon="9.28552">
        <ele>3</ele>
        <time>2008-05-31T10:52:31+02:00</time>
      </trkpt>
      <trkpt lat="41.56337" lon="9.28594">
        <ele>3</ele>
        <time>2008-05-31T10:52:40+02:00</time>
      </trkpt>
      <trkpt lat="41.56333" lon="9.28603">
        <ele>4</ele>
        <time>2008-05-31T10:52:42+02:00</time>
      </trkpt>
      <trkpt lat="41.56306" lon="9.28645">
        <ele>5</ele>
        <time>2008-05-31T10:52:51+02:00</time>
      </trkpt>
      <trkpt lat="41.56273" lon="9.28681">
        <ele>5</ele>
        <time>2008-05-31T10:53:00+02:00</time>
      </trkpt>
      <trkpt lat="41.56231" lon="9.28725">
        <ele>7</ele>
        <time>2008-05-31T10:53:11+02:00</time>
      </trkpt>
      <trkpt lat="41.56206" lon="9.28754">
        <ele>8</ele>
        <time>2008-05-31T10:53:18+02:00</time>
      </trkpt>
      <trkpt lat="41.56179" lon="9.2879">
        <ele>8</ele>
        <time>2008-05-31T10:53:26+02:00</time>
      </trkpt>
      <trkpt lat="41.56157" lon="9.28823">
        <ele>9</ele>
        <time>2008-05-31T10:53:33+02:00</time>
      </trkpt>
      <trkpt lat="41.56136" lon="9.28862">
        <ele>12</ele>
        <time>2008-05-31T10:53:41+02:00</time>
      </trkpt>
      <trkpt lat="41.5612" lon="9.28896">
        <ele>12</ele>
        <time>2008-05-31T10:53:48+02:00</time>
      </trkpt>
      <trkpt lat="41.56106" lon="9.28924">
        <ele>14</ele>
        <time>2008-05-31T10:53:54+02:00</time>
      </trkpt>
      <trkpt lat="41.56093" lon="9.28944">
        <ele>15</ele>
        <time>2008-05-31T10:53:59+02:00</time>
      </trkpt>
      <trkpt lat="41.56081" lon="9.28966">
        <ele>17</ele>
        <time>2008-05-31T10:54:06+02:00</time>
      </trkpt>
      <trkpt lat="41.5607" lon="9.28984">
        <ele>17</ele>
        <time>2008-05-31T10:54:12+02:00</time>
      </trkpt>
      <trkpt lat="41.56056" lon="9.29008">
        <ele>20</ele>
        <time>2008-05-31T10:54:20+02:00</time>
      </trkpt>
      <trkpt lat="41.56041" lon="9.29037">
        <ele>21</ele>
        <time>2008-05-31T10:54:30+02:00</time>
      </trkpt>
      <trkpt lat="41.56027" lon="9.29063">
        <ele>23</ele>
        <time>2008-05-31T10:54:40+02:00</time>
      </trkpt>
      <trkpt lat="41.56014" lon="9.29074">
        <ele>24</ele>
        <time>2008-05-31T10:54:48+02:00</time>
      </trkpt>
      <trkpt lat="41.56002" lon="9.29079">
        <ele>26</ele>
        <time>2008-05-31T10:54:55+02:00</time>
      </trkpt>
      <trkpt lat="41.55989" lon="9.29086">
        <ele>31</ele>
        <time>2008-05-31T10:55:03+02:00</time>
      </trkpt>
      <trkpt lat="41.55973" lon="9.29095">
        <ele>34</ele>
        <time>2008-05-31T10:55:13+02:00</time>
      </trkpt>
      <trkpt lat="41.55956" lon="9.29104">
        <ele>35</ele>
        <time>2008-05-31T10:55:24+02:00</time>
      </trkpt>
      <trkpt lat="41.55939" lon="9.29112">
        <ele>36</ele>
        <time>2008-05-31T10:55:34+02:00</time>
      </trkpt>
      <trkpt lat="41.55928" lon="9.29117">
        <ele>37</ele>
        <time>2008-05-31T10:55:41+02:00</time>
      </trkpt>
      <trkpt lat="41.5591" lon="9.29122">
        <ele>38</ele>
        <time>2008-05-31T10:55:52+02:00</time>
      </trkpt>
      <trkpt lat="41.55897" lon="9.29126">
        <ele>39</ele>
        <time>2008-05-31T10:56:00+02:00</time>
      </trkpt>
      <trkpt lat="41.55853" lon="9.29158">
        <ele>41</ele>
        <time>2008-05-31T10:56:25+02:00</time>
      </trkpt>
      <trkpt lat="41.55845" lon="9.29173">
        <ele>48</ele>
        <time>2008-05-31T10:56:32+02:00</time>
      </trkpt>
      <trkpt lat="41.55862" lon="9.29185">
        <ele>51</ele>
        <time>2008-05-31T10:56:43+02:00</time>
      </trkpt>
      <trkpt lat="41.55876" lon="9.29176">
        <ele>51</ele>
        <time>2008-05-31T10:56:50+02:00</time>
      </trkpt>
      <trkpt lat="41.55896" lon="9.29163">
        <ele>43</ele>
        <time>2008-05-31T10:56:59+02:00</time>
      </trkpt>
      <trkpt lat="41.5591" lon="9.29166">
        <ele>46</ele>
        <time>2008-05-31T10:57:05+02:00</time>
      </trkpt>
      <trkpt lat="41.55931" lon="9.29183">
        <ele>51</ele>
        <time>2008-05-31T10:57:16+02:00</time>
      </trkpt>
      <trkpt lat="41.55934" lon="9.29198">
        <ele>53</ele>
        <time>2008-05-31T10:57:22+02:00</time>
      </trkpt>
      <trkpt lat="41.55927" lon="9.29212">
        <ele>55</ele>
        <time>2008-05-31T10:57:28+02:00</time>
      </trkpt>
      <trkpt lat="41.55911" lon="9.29222">
        <ele>56</ele>
        <time>2008-05-31T10:57:36+02:00</time>
      </trkpt>
      <trkpt lat="41.55894" lon="9.29231">
        <ele>57</ele>
        <time>2008-05-31T10:57:42+02:00</time>
      </trkpt>
      <trkpt lat="41.55873" lon="9.29239">
        <ele>56</ele>
        <time>2008-05-31T10:57:48+02:00</time>
      </trkpt>
      <trkpt lat="41.55839" lon="9.29256">
        <ele>63</ele>
        <time>2008-05-31T10:57:57+02:00</time>
      </trkpt>
      <trkpt lat="41.5582" lon="9.2927">
        <ele>64</ele>
        <time>2008-05-31T10:58:04+02:00</time>
      </trkpt>
      <trkpt lat="41.55804" lon="9.29287">
        <ele>66</ele>
        <time>2008-05-31T10:58:13+02:00</time>
      </trkpt>
      <trkpt lat="41.55794" lon="9.29309">
        <ele>68</ele>
        <time>2008-05-31T10:58:22+02:00</time>
      </trkpt>
      <trkpt lat="41.55784" lon="9.29328">
        <ele>69</ele>
        <time>2008-05-31T10:58:30+02:00</time>
      </trkpt>
      <trkpt lat="41.5577" lon="9.29341">
        <ele>80</ele>
        <time>2008-05-31T10:58:38+02:00</time>
      </trkpt>
      <trkpt lat="41.55754" lon="9.29344">
        <ele>78</ele>
        <time>2008-05-31T10:58:45+02:00</time>
      </trkpt>
      <trkpt lat="41.55731" lon="9.29349">
        <ele>82</ele>
        <time>2008-05-31T10:58:54+02:00</time>
      </trkpt>
      <trkpt lat="41.55703" lon="9.29349">
        <ele>84</ele>
        <time>2008-05-31T10:59:04+02:00</time>
      </trkpt>
      <trkpt lat="41.55672" lon="9.29346">
        <ele>82</ele>
        <time>2008-05-31T10:59:15+02:00</time>
      </trkpt>
      <trkpt lat="41.55649" lon="9.29345">
        <ele>86</ele>
        <time>2008-05-31T10:59:24+02:00</time>
      </trkpt>
      <trkpt lat="41.55623" lon="9.29344">
        <ele>88</ele>
        <time>2008-05-31T10:59:34+02:00</time>
      </trkpt>
      <trkpt lat="41.55594" lon="9.29344">
        <ele>87</ele>
        <time>2008-05-31T10:59:45+02:00</time>
      </trkpt>
      <trkpt lat="41.55573" lon="9.29341">
        <ele>89</ele>
        <time>2008-05-31T10:59:53+02:00</time>
      </trkpt>
      <trkpt lat="41.55547" lon="9.2933">
        <ele>84</ele>
        <time>2008-05-31T11:00:02+02:00</time>
      </trkpt>
      <trkpt lat="41.55524" lon="9.2932">
        <ele>86</ele>
        <time>2008-05-31T11:00:09+02:00</time>
      </trkpt>
      <trkpt lat="41.55496" lon="9.29306">
        <ele>90</ele>
        <time>2008-05-31T11:00:17+02:00</time>
      </trkpt>
      <trkpt lat="41.55476" lon="9.293">
        <ele>89</ele>
        <time>2008-05-31T11:00:22+02:00</time>
      </trkpt>
      <trkpt lat="41.55453" lon="9.29301">
        <ele>89</ele>
        <time>2008-05-31T11:00:28+02:00</time>
      </trkpt>
      <trkpt lat="41.55397" lon="9.29329">
        <ele>92</ele>
        <time>2008-05-31T11:00:50+02:00</time>
      </trkpt>
      <trkpt lat="41.55382" lon="9.29341">
        <ele>102</ele>
        <time>2008-05-31T11:00:58+02:00</time>
      </trkpt>
      <trkpt lat="41.55379" lon="9.29367">
        <ele>103</ele>
        <time>2008-05-31T11:01:10+02:00</time>
      </trkpt>
      <trkpt lat="41.55386" lon="9.29368">
        <ele>103</ele>
        <time>2008-05-31T11:01:13+02:00</time>
      </trkpt>
      <trkpt lat="41.5541" lon="9.29359">
        <ele>102</ele>
        <time>2008-05-31T11:01:22+02:00</time>
      </trkpt>
      <trkpt lat="41.55424" lon="9.29362">
        <ele>101</ele>
        <time>2008-05-31T11:01:27+02:00</time>
      </trkpt>
      <trkpt lat="41.55444" lon="9.29377">
        <ele>102</ele>
        <time>2008-05-31T11:01:35+02:00</time>
      </trkpt>
      <trkpt lat="41.55458" lon="9.29389">
        <ele>102</ele>
        <time>2008-05-31T11:01:40+02:00</time>
      </trkpt>
      <trkpt lat="41.55477" lon="9.29399">
        <ele>103</ele>
        <time>2008-05-31T11:01:47+02:00</time>
      </trkpt>
      <trkpt lat="41.5549" lon="9.29407">
        <ele>104</ele>
        <time>2008-05-31T11:01:53+02:00</time>
      </trkpt>
      <trkpt lat="41.55489" lon="9.29408">
        <ele>104</ele>
        <time>2008-05-31T11:01:59+02:00</time>
      </trkpt>
      <trkpt lat="41.55489" lon="9.29409">
        <ele>104</ele>
        <time>2008-05-31T11:02:16+02:00</time>
      </trkpt>
      <trkpt lat="41.5549" lon="9.29408">
        <ele>104</ele>
        <time>2008-05-31T11:02:36+02:00</time>
      </trkpt>
      <trkpt lat="41.55491" lon="9.29408">
        <ele>104</ele>
        <time>2008-05-31T11:02:41+02:00</time>
      </trkpt>
      <trkpt lat="41.55489" lon="9.2941">
        <ele>104</ele>
        <time>2008-05-31T11:02:55+02:00</time>
      </trkpt>
      <trkpt lat="41.55489" lon="9.29409">
        <ele>104</ele>
        <time>2008-05-31T11:03:19+02:00</time>
      </trkpt>
      <trkpt lat="41.55489" lon="9.29409">
        <ele>104</ele>
        <time>2008-05-31T11:03:30+02:00</time>
      </trkpt>
      <trkpt lat="41.55492" lon="9.29409">
        <ele>104</ele>
        <time>2008-05-31T11:03:36+02:00</time>
      </trkpt>
      <trkpt lat="41.55494" lon="9.29412">
        <ele>105</ele>
        <time>2008-05-31T11:03:39+02:00</time>
      </trkpt>
      <trkpt lat="41.55503" lon="9.29424">
        <ele>106</ele>
        <time>2008-05-31T11:03:46+02:00</time>
      </trkpt>
      <trkpt lat="41.55506" lon="9.29436">
        <ele>106</ele>
        <time>2008-05-31T11:03:49+02:00</time>
      </trkpt>
      <trkpt lat="41.55505" lon="9.29462">
        <ele>106</ele>
        <time>2008-05-31T11:03:56+02:00</time>
      </trkpt>
      <trkpt lat="41.55496" lon="9.29471">
        <ele>106</ele>
        <time>2008-05-31T11:04:01+02:00</time>
      </trkpt>
      <trkpt lat="41.55486" lon="9.29475">
        <ele>106</ele>
        <time>2008-05-31T11:04:08+02:00</time>
      </trkpt>
      <trkpt lat="41.5548" lon="9.29476">
        <ele>106</ele>
        <time>2008-05-31T11:04:16+02:00</time>
      </trkpt>
      <trkpt lat="41.55479" lon="9.29475">
        <ele>106</ele>
        <time>2008-05-31T11:04:24+02:00</time>
      </trkpt>
      <trkpt lat="41.55477" lon="9.29475">
        <ele>106</ele>
        <time>2008-05-31T11:04:39+02:00</time>
      </trkpt>
      <trkpt lat="41.55476" lon="9.29474">
        <ele>106</ele>
        <time>2008-05-31T11:04:40+02:00</time>
      </trkpt>
      <trkpt lat="41.55462" lon="9.29476">
        <ele>106</ele>
        <time>2008-05-31T11:04:47+02:00</time>
      </trkpt>
      <trkpt lat="41.55447" lon="9.29478">
        <ele>106</ele>
        <time>2008-05-31T11:04:53+02:00</time>
      </trkpt>
      <trkpt lat="41.55428" lon="9.29476">
        <ele>106</ele>
        <time>2008-05-31T11:05:00+02:00</time>
      </trkpt>
      <trkpt lat="41.55406" lon="9.29475">
        <ele>108</ele>
        <time>2008-05-31T11:05:08+02:00</time>
      </trkpt>
      <trkpt lat="41.55384" lon="9.29478">
        <ele>110</ele>
        <time>2008-05-31T11:05:16+02:00</time>
      </trkpt>
      <trkpt lat="41.55369" lon="9.2948">
        <ele>111</ele>
        <time>2008-05-31T11:05:22+02:00</time>
      </trkpt>
      <trkpt lat="41.55348" lon="9.29487">
        <ele>112</ele>
        <time>2008-05-31T11:05:31+02:00</time>
      </trkpt>
      <trkpt lat="41.55326" lon="9.29504">
        <ele>114</ele>
        <time>2008-05-31T11:05:41+02:00</time>
      </trkpt>
      <trkpt lat="41.55308" lon="9.29513">
        <ele>112</ele>
        <time>2008-05-31T11:05:49+02:00</time>
      </trkpt>
      <trkpt lat="41.55292" lon="9.29511">
        <ele>112</ele>
        <time>2008-05-31T11:05:56+02:00</time>
      </trkpt>
      <trkpt lat="41.55276" lon="9.29506">
        <ele>113</ele>
        <time>2008-05-31T11:06:03+02:00</time>
      </trkpt>
      <trkpt lat="41.55253" lon="9.29502">
        <ele>118</ele>
        <time>2008-05-31T11:06:12+02:00</time>
      </trkpt>
      <trkpt lat="41.55235" lon="9.29498">
        <ele>119</ele>
        <time>2008-05-31T11:06:18+02:00</time>
      </trkpt>
      <trkpt lat="41.55212" lon="9.29489">
        <ele>118</ele>
        <time>2008-05-31T11:06:25+02:00</time>
      </trkpt>
      <trkpt lat="41.55159" lon="9.29446">
        <ele>114</ele>
        <time>2008-05-31T11:06:42+02:00</time>
      </trkpt>
      <trkpt lat="41.55154" lon="9.29452">
        <ele>113</ele>
        <time>2008-05-31T11:06:48+02:00</time>
      </trkpt>
      <trkpt lat="41.55154" lon="9.29455">
        <ele>112</ele>
        <time>2008-05-31T11:06:56+02:00</time>
      </trkpt>
      <trkpt lat="41.55155" lon="9.29457">
        <ele>112</ele>
        <time>2008-05-31T11:07:20+02:00</time>
      </trkpt>
      <trkpt lat="41.55154" lon="9.29459">
        <ele>112</ele>
        <time>2008-05-31T11:08:30+02:00</time>
      </trkpt>
      <trkpt lat="41.55154" lon="9.29459">
        <ele>112</ele>
        <time>2008-05-31T11:08:56+02:00</time>
      </trkpt>
      <trkpt lat="41.55154" lon="9.29459">
        <ele>112</ele>
        <time>2008-05-31T11:09:05+02:00</time>
      </trkpt>
      <trkpt lat="41.55154" lon="9.29459">
        <ele>112</ele>
        <time>2008-05-31T11:09:16+02:00</time>
      </trkpt>
      <trkpt lat="41.55155" lon="9.2946">
        <ele>112</ele>
        <time>2008-05-31T11:10:05+02:00</time>
      </trkpt>
      <trkpt lat="41.55155" lon="9.2946">
        <ele>112</ele>
        <time>2008-05-31T11:10:35+02:00</time>
      </trkpt>
      <trkpt lat="41.55156" lon="9.29463">
        <ele>112</ele>
        <time>2008-05-31T11:10:48+02:00</time>
      </trkpt>
      <trkpt lat="41.55168" lon="9.29468">
        <ele>117</ele>
        <time>2008-05-31T11:10:54+02:00</time>
      </trkpt>
      <trkpt lat="41.55179" lon="9.29467">
        <ele>117</ele>
        <time>2008-05-31T11:10:59+02:00</time>
      </trkpt>
      <trkpt lat="41.5519" lon="9.29471">
        <ele>117</ele>
        <time>2008-05-31T11:11:04+02:00</time>
      </trkpt>
      <trkpt lat="41.55208" lon="9.29489">
        <ele>118</ele>
        <time>2008-05-31T11:11:11+02:00</time>
      </trkpt>
      <trkpt lat="41.55228" lon="9.29499">
        <ele>118</ele>
        <time>2008-05-31T11:11:17+02:00</time>
      </trkpt>
      <trkpt lat="41.55252" lon="9.29504">
        <ele>118</ele>
        <time>2008-05-31T11:11:24+02:00</time>
      </trkpt>
      <trkpt lat="41.55281" lon="9.2951">
        <ele>112</ele>
        <time>2008-05-31T11:11:33+02:00</time>
      </trkpt>
      <trkpt lat="41.55307" lon="9.29515">
        <ele>112</ele>
        <time>2008-05-31T11:11:40+02:00</time>
      </trkpt>
      <trkpt lat="41.55322" lon="9.29506">
        <ele>113</ele>
        <time>2008-05-31T11:11:44+02:00</time>
      </trkpt>
      <trkpt lat="41.55326" lon="9.29503">
        <ele>114</ele>
        <time>2008-05-31T11:11:45+02:00</time>
      </trkpt>
      <trkpt lat="41.55339" lon="9.29493">
        <ele>114</ele>
        <time>2008-05-31T11:11:48+02:00</time>
      </trkpt>
      <trkpt lat="41.55369" lon="9.2948">
        <ele>111</ele>
        <time>2008-05-31T11:11:53+02:00</time>
      </trkpt>
      <trkpt lat="41.55402" lon="9.29477">
        <ele>108</ele>
        <time>2008-05-31T11:11:58+02:00</time>
      </trkpt>
      <trkpt lat="41.55431" lon="9.29478">
        <ele>105</ele>
        <time>2008-05-31T11:12:02+02:00</time>
      </trkpt>
      <trkpt lat="41.55471" lon="9.29475">
        <ele>106</ele>
        <time>2008-05-31T11:12:07+02:00</time>
      </trkpt>
      <trkpt lat="41.55499" lon="9.29469">
        <ele>106</ele>
        <time>2008-05-31T11:12:11+02:00</time>
      </trkpt>
      <trkpt lat="41.55512" lon="9.29471">
        <ele>106</ele>
        <time>2008-05-31T11:12:15+02:00</time>
      </trkpt>
      <trkpt lat="41.55523" lon="9.2949">
        <ele>106</ele>
        <time>2008-05-31T11:12:22+02:00</time>
      </trkpt>
      <trkpt lat="41.55542" lon="9.29492">
        <ele>107</ele>
        <time>2008-05-31T11:12:28+02:00</time>
      </trkpt>
      <trkpt lat="41.55563" lon="9.29487">
        <ele>108</ele>
        <time>2008-05-31T11:12:34+02:00</time>
      </trkpt>
      <trkpt lat="41.55581" lon="9.29491">
        <ele>109</ele>
        <time>2008-05-31T11:12:39+02:00</time>
      </trkpt>
      <trkpt lat="41.55592" lon="9.29507">
        <ele>112</ele>
        <time>2008-05-31T11:12:44+02:00</time>
      </trkpt>
      <trkpt lat="41.55604" lon="9.29539">
        <ele>114</ele>
        <time>2008-05-31T11:12:53+02:00</time>
      </trkpt>
      <trkpt lat="41.55616" lon="9.29568">
        <ele>114</ele>
        <time>2008-05-31T11:13:02+02:00</time>
      </trkpt>
      <trkpt lat="41.55625" lon="9.29588">
        <ele>111</ele>
        <time>2008-05-31T11:13:09+02:00</time>
      </trkpt>
      <trkpt lat="41.55633" lon="9.29603">
        <ele>111</ele>
        <time>2008-05-31T11:13:15+02:00</time>
      </trkpt>
      <trkpt lat="41.55647" lon="9.29617">
        <ele>111</ele>
        <time>2008-05-31T11:13:22+02:00</time>
      </trkpt>
      <trkpt lat="41.5567" lon="9.29631">
        <ele>119</ele>
        <time>2008-05-31T11:13:31+02:00</time>
      </trkpt>
      <trkpt lat="41.55697" lon="9.29643">
        <ele>120</ele>
        <time>2008-05-31T11:13:39+02:00</time>
      </trkpt>
      <trkpt lat="41.55725" lon="9.29655">
        <ele>121</ele>
        <time>2008-05-31T11:13:47+02:00</time>
      </trkpt>
      <trkpt lat="41.55755" lon="9.2967">
        <ele>123</ele>
        <time>2008-05-31T11:13:57+02:00</time>
      </trkpt>
      <trkpt lat="41.55765" lon="9.29677">
        <ele>122</ele>
        <time>2008-05-31T11:14:02+02:00</time>
      </trkpt>
      <trkpt lat="41.55788" lon="9.29685">
        <ele>122</ele>
        <time>2008-05-31T11:14:10+02:00</time>
      </trkpt>
      <trkpt lat="41.55814" lon="9.29689">
        <ele>122</ele>
        <time>2008-05-31T11:14:19+02:00</time>
      </trkpt>
      <trkpt lat="41.55839" lon="9.29695">
        <ele>125</ele>
        <time>2008-05-31T11:14:27+02:00</time>
      </trkpt>
      <trkpt lat="41.55855" lon="9.29711">
        <ele>126</ele>
        <time>2008-05-31T11:14:34+02:00</time>
      </trkpt>
      <trkpt lat="41.55864" lon="9.2973">
        <ele>126</ele>
        <time>2008-05-31T11:14:41+02:00</time>
      </trkpt>
      <trkpt lat="41.55866" lon="9.29753">
        <ele>130</ele>
        <time>2008-05-31T11:14:49+02:00</time>
      </trkpt>
      <trkpt lat="41.55864" lon="9.29775">
        <ele>131</ele>
        <time>2008-05-31T11:14:58+02:00</time>
      </trkpt>
      <trkpt lat="41.55864" lon="9.29795">
        <ele>131</ele>
        <time>2008-05-31T11:15:05+02:00</time>
      </trkpt>
      <trkpt lat="41.55875" lon="9.2981">
        <ele>132</ele>
        <time>2008-05-31T11:15:12+02:00</time>
      </trkpt>
      <trkpt lat="41.55892" lon="9.2982">
        <ele>134</ele>
        <time>2008-05-31T11:15:19+02:00</time>
      </trkpt>
      <trkpt lat="41.55916" lon="9.29832">
        <ele>140</ele>
        <time>2008-05-31T11:15:28+02:00</time>
      </trkpt>
      <trkpt lat="41.55937" lon="9.29849">
        <ele>145</ele>
        <time>2008-05-31T11:15:36+02:00</time>
      </trkpt>
      <trkpt lat="41.5595" lon="9.29867">
        <ele>147</ele>
        <time>2008-05-31T11:15:42+02:00</time>
      </trkpt>
      <trkpt lat="41.5596" lon="9.2989">
        <ele>148</ele>
        <time>2008-05-31T11:15:49+02:00</time>
      </trkpt>
      <trkpt lat="41.55957" lon="9.29909">
        <ele>148</ele>
        <time>2008-05-31T11:15:54+02:00</time>
      </trkpt>
      <trkpt lat="41.55946" lon="9.2993">
        <ele>152</ele>
        <time>2008-05-31T11:16:01+02:00</time>
      </trkpt>
      <trkpt lat="41.55935" lon="9.29946">
        <ele>153</ele>
        <time>2008-05-31T11:16:07+02:00</time>
      </trkpt>
      <trkpt lat="41.55918" lon="9.29962">
        <ele>154</ele>
        <time>2008-05-31T11:16:15+02:00</time>
      </trkpt>
      <trkpt lat="41.55898" lon="9.29975">
        <ele>150</ele>
        <time>2008-05-31T11:16:24+02:00</time>
      </trkpt>
      <trkpt lat="41.55881" lon="9.29985">
        <ele>149</ele>
        <time>2008-05-31T11:16:32+02:00</time>
      </trkpt>
      <trkpt lat="41.55856" lon="9.29995">
        <ele>149</ele>
        <time>2008-05-31T11:16:43+02:00</time>
      </trkpt>
      <trkpt lat="41.55839" lon="9.30003">
        <ele>154</ele>
        <time>2008-05-31T11:16:50+02:00</time>
      </trkpt>
      <trkpt lat="41.55829" lon="9.30013">
        <ele>153</ele>
        <time>2008-05-31T11:16:55+02:00</time>
      </trkpt>
      <trkpt lat="41.5582" lon="9.30035">
        <ele>154</ele>
        <time>2008-05-31T11:17:02+02:00</time>
      </trkpt>
      <trkpt lat="41.55816" lon="9.30061">
        <ele>157</ele>
        <time>2008-05-31T11:17:09+02:00</time>
      </trkpt>
      <trkpt lat="41.55814" lon="9.30096">
        <ele>161</ele>
        <time>2008-05-31T11:17:18+02:00</time>
      </trkpt>
      <trkpt lat="41.55813" lon="9.30123">
        <ele>161</ele>
        <time>2008-05-31T11:17:26+02:00</time>
      </trkpt>
      <trkpt lat="41.55813" lon="9.30136">
        <ele>161</ele>
        <time>2008-05-31T11:17:32+02:00</time>
      </trkpt>
      <trkpt lat="41.55812" lon="9.30149">
        <ele>161</ele>
        <time>2008-05-31T11:17:37+02:00</time>
      </trkpt>
      <trkpt lat="41.55814" lon="9.30169">
        <ele>160</ele>
        <time>2008-05-31T11:17:44+02:00</time>
      </trkpt>
      <trkpt lat="41.55822" lon="9.30191">
        <ele>159</ele>
        <time>2008-05-31T11:17:50+02:00</time>
      </trkpt>
      <trkpt lat="41.55836" lon="9.30211">
        <ele>161</ele>
        <time>2008-05-31T11:17:55+02:00</time>
      </trkpt>
      <trkpt lat="41.55859" lon="9.30239">
        <ele>159</ele>
        <time>2008-05-31T11:18:00+02:00</time>
      </trkpt>
      <trkpt lat="41.55877" lon="9.30259">
        <ele>152</ele>
        <time>2008-05-31T11:18:03+02:00</time>
      </trkpt>
      <trkpt lat="41.55913" lon="9.30282">
        <ele>151</ele>
        <time>2008-05-31T11:18:07+02:00</time>
      </trkpt>
      <trkpt lat="41.55966" lon="9.3031">
        <ele>149</ele>
        <time>2008-05-31T11:18:12+02:00</time>
      </trkpt>
      <trkpt lat="41.56005" lon="9.3034">
        <ele>141</ele>
        <time>2008-05-31T11:18:16+02:00</time>
      </trkpt>
      <trkpt lat="41.56028" lon="9.30363">
        <ele>138</ele>
        <time>2008-05-31T11:18:19+02:00</time>
      </trkpt>
      <trkpt lat="41.56039" lon="9.30378">
        <ele>137</ele>
        <time>2008-05-31T11:18:21+02:00</time>
      </trkpt>
      <trkpt lat="41.56052" lon="9.30412">
        <ele>136</ele>
        <time>2008-05-31T11:18:25+02:00</time>
      </trkpt>
      <trkpt lat="41.56055" lon="9.30422">
        <ele>130</ele>
        <time>2008-05-31T11:18:28+02:00</time>
      </trkpt>
      <trkpt lat="41.56055" lon="9.30423">
        <ele>130</ele>
        <time>2008-05-31T11:18:29+02:00</time>
      </trkpt>
      <trkpt lat="41.5606" lon="9.30423">
        <ele>130</ele>
        <time>2008-05-31T11:18:35+02:00</time>
      </trkpt>
      <trkpt lat="41.56066" lon="9.3041">
        <ele>136</ele>
        <time>2008-05-31T11:18:42+02:00</time>
      </trkpt>
      <trkpt lat="41.56074" lon="9.30395">
        <ele>137</ele>
        <time>2008-05-31T11:18:49+02:00</time>
      </trkpt>
      <trkpt lat="41.56076" lon="9.3039">
        <ele>137</ele>
        <time>2008-05-31T11:18:52+02:00</time>
      </trkpt>
      <trkpt lat="41.56079" lon="9.30381">
        <ele>138</ele>
        <time>2008-05-31T11:18:56+02:00</time>
      </trkpt>
      <trkpt lat="41.5609" lon="9.30363">
        <ele>144</ele>
        <time>2008-05-31T11:19:05+02:00</time>
      </trkpt>
      <trkpt lat="41.56105" lon="9.30356">
        <ele>145</ele>
        <time>2008-05-31T11:19:12+02:00</time>
      </trkpt>
      <trkpt lat="41.5612" lon="9.30357">
        <ele>145</ele>
        <time>2008-05-31T11:19:18+02:00</time>
      </trkpt>
      <trkpt lat="41.5614" lon="9.3036">
        <ele>146</ele>
        <time>2008-05-31T11:19:26+02:00</time>
      </trkpt>
      <trkpt lat="41.56159" lon="9.30363">
        <ele>147</ele>
        <time>2008-05-31T11:19:33+02:00</time>
      </trkpt>
      <trkpt lat="41.56179" lon="9.30375">
        <ele>153</ele>
        <time>2008-05-31T11:19:40+02:00</time>
      </trkpt>
      <trkpt lat="41.56192" lon="9.30389">
        <ele>152</ele>
        <time>2008-05-31T11:19:47+02:00</time>
      </trkpt>
      <trkpt lat="41.56209" lon="9.30412">
        <ele>152</ele>
        <time>2008-05-31T11:19:57+02:00</time>
      </trkpt>
      <trkpt lat="41.56228" lon="9.30432">
        <ele>145</ele>
        <time>2008-05-31T11:20:07+02:00</time>
      </trkpt>
      <trkpt lat="41.56242" lon="9.30445">
        <ele>145</ele>
        <time>2008-05-31T11:20:15+02:00</time>
      </trkpt>
      <trkpt lat="41.56256" lon="9.30452">
        <ele>144</ele>
        <time>2008-05-31T11:20:21+02:00</time>
      </trkpt>
      <trkpt lat="41.56268" lon="9.30452">
        <ele>143</ele>
        <time>2008-05-31T11:20:27+02:00</time>
      </trkpt>
      <trkpt lat="41.56281" lon="9.30448">
        <ele>143</ele>
        <time>2008-05-31T11:20:33+02:00</time>
      </trkpt>
      <trkpt lat="41.5629" lon="9.30444">
        <ele>143</ele>
        <time>2008-05-31T11:20:37+02:00</time>
      </trkpt>
      <trkpt lat="41.56298" lon="9.30439">
        <ele>142</ele>
        <time>2008-05-31T11:20:41+02:00</time>
      </trkpt>
      <trkpt lat="41.56303" lon="9.30436">
        <ele>142</ele>
        <time>2008-05-31T11:20:45+02:00</time>
      </trkpt>
      <trkpt lat="41.56305" lon="9.30436">
        <ele>142</ele>
        <time>2008-05-31T11:20:54+02:00</time>
      </trkpt>
      <trkpt lat="41.56306" lon="9.30436">
        <ele>142</ele>
        <time>2008-05-31T11:21:18+02:00</time>
      </trkpt>
      <trkpt lat="41.56306" lon="9.30436">
        <ele>142</ele>
        <time>2008-05-31T11:21:29+02:00</time>
      </trkpt>
      <trkpt lat="41.56305" lon="9.30435">
        <ele>142</ele>
        <time>2008-05-31T11:21:48+02:00</time>
      </trkpt>
      <trkpt lat="41.56302" lon="9.30438">
        <ele>142</ele>
        <time>2008-05-31T11:21:54+02:00</time>
      </trkpt>
      <trkpt lat="41.56302" lon="9.30439">
        <ele>142</ele>
        <time>2008-05-31T11:22:00+02:00</time>
      </trkpt>
      <trkpt lat="41.56302" lon="9.3044">
        <ele>142</ele>
        <time>2008-05-31T11:22:13+02:00</time>
      </trkpt>
      <trkpt lat="41.56301" lon="9.30442">
        <ele>142</ele>
        <time>2008-05-31T11:22:17+02:00</time>
      </trkpt>
      <trkpt lat="41.56305" lon="9.30442">
        <ele>142</ele>
        <time>2008-05-31T11:22:23+02:00</time>
      </trkpt>
      <trkpt lat="41.56305" lon="9.30442">
        <ele>142</ele>
        <time>2008-05-31T11:22:35+02:00</time>
      </trkpt>
      <trkpt lat="41.56305" lon="9.30439">
        <ele>142</ele>
        <time>2008-05-31T11:22:50+02:00</time>
      </trkpt>
      <trkpt lat="41.56306" lon="9.3044">
        <ele>142</ele>
        <time>2008-05-31T11:23:09+02:00</time>
      </trkpt>
      <trkpt lat="41.56306" lon="9.30441">
        <ele>142</ele>
        <time>2008-05-31T11:23:20+02:00</time>
      </trkpt>
      <trkpt lat="41.56305" lon="9.3044">
        <ele>142</ele>
        <time>2008-05-31T11:23:26+02:00</time>
      </trkpt>
      <trkpt lat="41.56305" lon="9.30441">
        <ele>142</ele>
        <time>2008-05-31T11:23:36+02:00</time>
      </trkpt>
      <trkpt lat="41.56304" lon="9.3044">
        <ele>142</ele>
        <time>2008-05-31T11:23:54+02:00</time>
      </trkpt>
      <trkpt lat="41.56305" lon="9.30441">
        <ele>142</ele>
        <time>2008-05-31T11:24:06+02:00</time>
      </trkpt>
      <trkpt lat="41.56305" lon="9.3044">
        <ele>142</ele>
        <time>2008-05-31T11:24:24+02:00</time>
      </trkpt>
      <trkpt lat="41.56305" lon="9.30439">
        <ele>142</ele>
        <time>2008-05-31T11:24:37+02:00</time>
      </trkpt>
      <trkpt lat="41.56305" lon="9.30441">
        <ele>142</ele>
        <time>2008-05-31T11:24:50+02:00</time>
      </trkpt>
      <trkpt lat="41.56305" lon="9.30441">
        <ele>142</ele>
        <time>2008-05-31T11:24:57+02:00</time>
      </trkpt>
      <trkpt lat="41.56305" lon="9.3044">
        <ele>142</ele>
        <time>2008-05-31T11:25:09+02:00</time>
      </trkpt>
      <trkpt lat="41.56304" lon="9.3044">
        <ele>142</ele>
        <time>2008-05-31T11:25:24+02:00</time>
      </trkpt>
      <trkpt lat="41.56303" lon="9.3044">
        <ele>142</ele>
        <time>2008-05-31T11:25:33+02:00</time>
      </trkpt>
      <trkpt lat="41.563" lon="9.3044">
        <ele>142</ele>
        <time>2008-05-31T11:25:40+02:00</time>
      </trkpt>
      <trkpt lat="41.563" lon="9.30439">
        <ele>142</ele>
        <time>2008-05-31T11:25:44+02:00</time>
      </trkpt>
      <trkpt lat="41.563" lon="9.30436">
        <ele>142</ele>
        <time>2008-05-31T11:25:51+02:00</time>
      </trkpt>
      <trkpt lat="41.56301" lon="9.30435">
        <ele>142</ele>
        <time>2008-05-31T11:26:11+02:00</time>
      </trkpt>
      <trkpt lat="41.56301" lon="9.30436">
        <ele>142</ele>
        <time>2008-05-31T11:26:22+02:00</time>
      </trkpt>
      <trkpt lat="41.56303" lon="9.30435">
        <ele>142</ele>
        <time>2008-05-31T11:26:30+02:00</time>
      </trkpt>
      <trkpt lat="41.56304" lon="9.30433">
        <ele>142</ele>
        <time>2008-05-31T11:26:50+02:00</time>
      </trkpt>
      <trkpt lat="41.56314" lon="9.30421">
        <ele>142</ele>
        <time>2008-05-31T11:26:55+02:00</time>
      </trkpt>
      <trkpt lat="41.56329" lon="9.30408">
        <ele>147</ele>
        <time>2008-05-31T11:26:59+02:00</time>
      </trkpt>
      <trkpt lat="41.56349" lon="9.30395">
        <ele>142</ele>
        <time>2008-05-31T11:27:03+02:00</time>
      </trkpt>
      <trkpt lat="41.56377" lon="9.30365">
        <ele>141</ele>
        <time>2008-05-31T11:27:09+02:00</time>
      </trkpt>
      <trkpt lat="41.56392" lon="9.30356">
        <ele>140</ele>
        <time>2008-05-31T11:27:13+02:00</time>
      </trkpt>
      <trkpt lat="41.56411" lon="9.30343">
        <ele>138</ele>
        <time>2008-05-31T11:27:19+02:00</time>
      </trkpt>
      <trkpt lat="41.56415" lon="9.30342">
        <ele>137</ele>
        <time>2008-05-31T11:27:23+02:00</time>
      </trkpt>
      <trkpt lat="41.56418" lon="9.3034">
        <ele>133</ele>
        <time>2008-05-31T11:27:28+02:00</time>
      </trkpt>
      <trkpt lat="41.5642" lon="9.30339">
        <ele>133</ele>
        <time>2008-05-31T11:27:29+02:00</time>
      </trkpt>
      <trkpt lat="41.56427" lon="9.30336">
        <ele>132</ele>
        <time>2008-05-31T11:27:33+02:00</time>
      </trkpt>
      <trkpt lat="41.56443" lon="9.30329">
        <ele>137</ele>
        <time>2008-05-31T11:27:39+02:00</time>
      </trkpt>
      <trkpt lat="41.56451" lon="9.30318">
        <ele>137</ele>
        <time>2008-05-31T11:27:44+02:00</time>
      </trkpt>
      <trkpt lat="41.56459" lon="9.30309">
        <ele>137</ele>
        <time>2008-05-31T11:27:48+02:00</time>
      </trkpt>
      <trkpt lat="41.56462" lon="9.30294">
        <ele>139</ele>
        <time>2008-05-31T11:27:54+02:00</time>
      </trkpt>
      <trkpt lat="41.56468" lon="9.30291">
        <ele>139</ele>
        <time>2008-05-31T11:27:58+02:00</time>
      </trkpt>
      <trkpt lat="41.56469" lon="9.30292">
        <ele>139</ele>
        <time>2008-05-31T11:27:59+02:00</time>
      </trkpt>
      <trkpt lat="41.56483" lon="9.303">
        <ele>136</ele>
        <time>2008-05-31T11:28:05+02:00</time>
      </trkpt>
      <trkpt lat="41.56497" lon="9.3031">
        <ele>133</ele>
        <time>2008-05-31T11:28:10+02:00</time>
      </trkpt>
      <trkpt lat="41.56512" lon="9.3031">
        <ele>130</ele>
        <time>2008-05-31T11:28:15+02:00</time>
      </trkpt>
      <trkpt lat="41.56523" lon="9.30307">
        <ele>131</ele>
        <time>2008-05-31T11:28:19+02:00</time>
      </trkpt>
      <trkpt lat="41.56538" lon="9.30306">
        <ele>131</ele>
        <time>2008-05-31T11:28:24+02:00</time>
      </trkpt>
      <trkpt lat="41.56541" lon="9.30303">
        <ele>131</ele>
        <time>2008-05-31T11:28:28+02:00</time>
      </trkpt>
      <trkpt lat="41.56545" lon="9.303">
        <ele>131</ele>
        <time>2008-05-31T11:28:35+02:00</time>
      </trkpt>
      <trkpt lat="41.56548" lon="9.30299">
        <ele>131</ele>
        <time>2008-05-31T11:28:48+02:00</time>
      </trkpt>
      <trkpt lat="41.56551" lon="9.303">
        <ele>131</ele>
        <time>2008-05-31T11:28:50+02:00</time>
      </trkpt>
      <trkpt lat="41.56563" lon="9.30306">
        <ele>130</ele>
        <time>2008-05-31T11:28:55+02:00</time>
      </trkpt>
      <trkpt lat="41.56566" lon="9.30308">
        <ele>129</ele>
        <time>2008-05-31T11:28:56+02:00</time>
      </trkpt>
      <trkpt lat="41.56588" lon="9.30313">
        <ele>126</ele>
        <time>2008-05-31T11:29:03+02:00</time>
      </trkpt>
      <trkpt lat="41.566" lon="9.30305">
        <ele>128</ele>
        <time>2008-05-31T11:29:07+02:00</time>
      </trkpt>
      <trkpt lat="41.56612" lon="9.30303">
        <ele>129</ele>
        <time>2008-05-31T11:29:11+02:00</time>
      </trkpt>
      <trkpt lat="41.5662" lon="9.30303">
        <ele>129</ele>
        <time>2008-05-31T11:29:14+02:00</time>
      </trkpt>
      <trkpt lat="41.56627" lon="9.303">
        <ele>129</ele>
        <time>2008-05-31T11:29:19+02:00</time>
      </trkpt>
      <trkpt lat="41.56629" lon="9.30302">
        <ele>129</ele>
        <time>2008-05-31T11:29:23+02:00</time>
      </trkpt>
      <trkpt lat="41.56635" lon="9.30305">
        <ele>129</ele>
        <time>2008-05-31T11:29:31+02:00</time>
      </trkpt>
      <trkpt lat="41.56641" lon="9.30308">
        <ele>128</ele>
        <time>2008-05-31T11:29:35+02:00</time>
      </trkpt>
      <trkpt lat="41.56656" lon="9.30314">
        <ele>126</ele>
        <time>2008-05-31T11:29:41+02:00</time>
      </trkpt>
      <trkpt lat="41.56668" lon="9.30318">
        <ele>126</ele>
        <time>2008-05-31T11:29:47+02:00</time>
      </trkpt>
      <trkpt lat="41.56678" lon="9.30319">
        <ele>127</ele>
        <time>2008-05-31T11:29:51+02:00</time>
      </trkpt>
      <trkpt lat="41.56687" lon="9.30312">
        <ele>129</ele>
        <time>2008-05-31T11:29:56+02:00</time>
      </trkpt>
      <trkpt lat="41.5669" lon="9.30308">
        <ele>130</ele>
        <time>2008-05-31T11:30:00+02:00</time>
      </trkpt>
      <trkpt lat="41.56694" lon="9.30308">
        <ele>130</ele>
        <time>2008-05-31T11:30:04+02:00</time>
      </trkpt>
      <trkpt lat="41.56702" lon="9.3031">
        <ele>130</ele>
        <time>2008-05-31T11:30:09+02:00</time>
      </trkpt>
      <trkpt lat="41.56721" lon="9.30316">
        <ele>130</ele>
        <time>2008-05-31T11:30:16+02:00</time>
      </trkpt>
      <trkpt lat="41.56738" lon="9.3032">
        <ele>129</ele>
        <time>2008-05-31T11:30:22+02:00</time>
      </trkpt>
      <trkpt lat="41.56752" lon="9.30323">
        <ele>129</ele>
        <time>2008-05-31T11:30:28+02:00</time>
      </trkpt>
      <trkpt lat="41.5676" lon="9.30323">
        <ele>130</ele>
        <time>2008-05-31T11:30:31+02:00</time>
      </trkpt>
      <trkpt lat="41.56762" lon="9.30323">
        <ele>130</ele>
        <time>2008-05-31T11:30:37+02:00</time>
      </trkpt>
      <trkpt lat="41.56763" lon="9.30323">
        <ele>130</ele>
        <time>2008-05-31T11:30:42+02:00</time>
      </trkpt>
      <trkpt lat="41.56765" lon="9.30323">
        <ele>131</ele>
        <time>2008-05-31T11:30:46+02:00</time>
      </trkpt>
      <trkpt lat="41.56768" lon="9.30326">
        <ele>131</ele>
        <time>2008-05-31T11:30:52+02:00</time>
      </trkpt>
      <trkpt lat="41.56773" lon="9.30327">
        <ele>131</ele>
        <time>2008-05-31T11:30:55+02:00</time>
      </trkpt>
      <trkpt lat="41.56782" lon="9.30331">
        <ele>132</ele>
        <time>2008-05-31T11:31:01+02:00</time>
      </trkpt>
      <trkpt lat="41.56786" lon="9.30329">
        <ele>132</ele>
        <time>2008-05-31T11:31:03+02:00</time>
      </trkpt>
      <trkpt lat="41.56817" lon="9.30344">
        <ele>131</ele>
        <time>2008-05-31T11:31:29+02:00</time>
      </trkpt>
      <trkpt lat="41.56821" lon="9.30351">
        <ele>131</ele>
        <time>2008-05-31T11:31:33+02:00</time>
      </trkpt>
      <trkpt lat="41.5683" lon="9.30382">
        <ele>133</ele>
        <time>2008-05-31T11:31:48+02:00</time>
      </trkpt>
      <trkpt lat="41.5683" lon="9.30392">
        <ele>133</ele>
        <time>2008-05-31T11:31:52+02:00</time>
      </trkpt>
      <trkpt lat="41.56835" lon="9.30398">
        <ele>137</ele>
        <time>2008-05-31T11:31:57+02:00</time>
      </trkpt>
      <trkpt lat="41.56836" lon="9.30405">
        <ele>138</ele>
        <time>2008-05-31T11:32:02+02:00</time>
      </trkpt>
      <trkpt lat="41.56836" lon="9.30405">
        <ele>138</ele>
        <time>2008-05-31T11:32:11+02:00</time>
      </trkpt>
      <trkpt lat="41.56835" lon="9.30407">
        <ele>138</ele>
        <time>2008-05-31T11:32:18+02:00</time>
      </trkpt>
      <trkpt lat="41.56836" lon="9.30411">
        <ele>138</ele>
        <time>2008-05-31T11:32:24+02:00</time>
      </trkpt>
      <trkpt lat="41.56835" lon="9.30416">
        <ele>138</ele>
        <time>2008-05-31T11:32:31+02:00</time>
      </trkpt>
      <trkpt lat="41.56839" lon="9.30418">
        <ele>140</ele>
        <time>2008-05-31T11:32:37+02:00</time>
      </trkpt>
      <trkpt lat="41.56841" lon="9.30421">
        <ele>141</ele>
        <time>2008-05-31T11:32:43+02:00</time>
      </trkpt>
      <trkpt lat="41.56841" lon="9.30428">
        <ele>143</ele>
        <time>2008-05-31T11:32:52+02:00</time>
      </trkpt>
      <trkpt lat="41.56837" lon="9.30434">
        <ele>144</ele>
        <time>2008-05-31T11:33:00+02:00</time>
      </trkpt>
      <trkpt lat="41.56833" lon="9.3044">
        <ele>143</ele>
        <time>2008-05-31T11:33:08+02:00</time>
      </trkpt>
      <trkpt lat="41.56832" lon="9.30445">
        <ele>143</ele>
        <time>2008-05-31T11:33:15+02:00</time>
      </trkpt>
      <trkpt lat="41.56831" lon="9.30449">
        <ele>144</ele>
        <time>2008-05-31T11:33:21+02:00</time>
      </trkpt>
      <trkpt lat="41.56829" lon="9.30456">
        <ele>145</ele>
        <time>2008-05-31T11:33:29+02:00</time>
      </trkpt>
      <trkpt lat="41.56826" lon="9.30458">
        <ele>146</ele>
        <time>2008-05-31T11:33:36+02:00</time>
      </trkpt>
      <trkpt lat="41.56823" lon="9.30464">
        <ele>147</ele>
        <time>2008-05-31T11:33:44+02:00</time>
      </trkpt>
      <trkpt lat="41.56819" lon="9.30466">
        <ele>147</ele>
        <time>2008-05-31T11:33:51+02:00</time>
      </trkpt>
      <trkpt lat="41.56814" lon="9.30471">
        <ele>147</ele>
        <time>2008-05-31T11:33:58+02:00</time>
      </trkpt>
      <trkpt lat="41.56809" lon="9.30474">
        <ele>147</ele>
        <time>2008-05-31T11:34:06+02:00</time>
      </trkpt>
      <trkpt lat="41.56803" lon="9.3048">
        <ele>147</ele>
        <time>2008-05-31T11:34:15+02:00</time>
      </trkpt>
      <trkpt lat="41.56799" lon="9.30485">
        <ele>147</ele>
        <time>2008-05-31T11:34:22+02:00</time>
      </trkpt>
      <trkpt lat="41.56795" lon="9.30486">
        <ele>147</ele>
        <time>2008-05-31T11:34:28+02:00</time>
      </trkpt>
      <trkpt lat="41.56793" lon="9.30487">
        <ele>147</ele>
        <time>2008-05-31T11:34:34+02:00</time>
      </trkpt>
      <trkpt lat="41.5679" lon="9.30488">
        <ele>147</ele>
        <time>2008-05-31T11:34:40+02:00</time>
      </trkpt>
      <trkpt lat="41.56789" lon="9.30489">
        <ele>147</ele>
        <time>2008-05-31T11:34:41+02:00</time>
      </trkpt>
      <trkpt lat="41.56783" lon="9.30493">
        <ele>147</ele>
        <time>2008-05-31T11:34:46+02:00</time>
      </trkpt>
      <trkpt lat="41.56773" lon="9.305">
        <ele>147</ele>
        <time>2008-05-31T11:34:53+02:00</time>
      </trkpt>
      <trkpt lat="41.56766" lon="9.30504">
        <ele>153</ele>
        <time>2008-05-31T11:34:57+02:00</time>
      </trkpt>
      <trkpt lat="41.56763" lon="9.30518">
        <ele>153</ele>
        <time>2008-05-31T11:35:03+02:00</time>
      </trkpt>
      <trkpt lat="41.56763" lon="9.30529">
        <ele>155</ele>
        <time>2008-05-31T11:35:06+02:00</time>
      </trkpt>
      <trkpt lat="41.56764" lon="9.30551">
        <ele>156</ele>
        <time>2008-05-31T11:35:12+02:00</time>
      </trkpt>
      <trkpt lat="41.56762" lon="9.30583">
        <ele>156</ele>
        <time>2008-05-31T11:35:19+02:00</time>
      </trkpt>
      <trkpt lat="41.56765" lon="9.30598">
        <ele>157</ele>
        <time>2008-05-31T11:35:23+02:00</time>
      </trkpt>
      <trkpt lat="41.56769" lon="9.30619">
        <ele>158</ele>
        <time>2008-05-31T11:35:29+02:00</time>
      </trkpt>
      <trkpt lat="41.5677" lon="9.30623">
        <ele>158</ele>
        <time>2008-05-31T11:35:30+02:00</time>
      </trkpt>
      <trkpt lat="41.5677" lon="9.30642">
        <ele>158</ele>
        <time>2008-05-31T11:35:35+02:00</time>
      </trkpt>
      <trkpt lat="41.56771" lon="9.30665">
        <ele>157</ele>
        <time>2008-05-31T11:35:41+02:00</time>
      </trkpt>
      <trkpt lat="41.56771" lon="9.30684">
        <ele>158</ele>
        <time>2008-05-31T11:35:46+02:00</time>
      </trkpt>
      <trkpt lat="41.56768" lon="9.30706">
        <ele>159</ele>
        <time>2008-05-31T11:35:53+02:00</time>
      </trkpt>
      <trkpt lat="41.5677" lon="9.30729">
        <ele>159</ele>
        <time>2008-05-31T11:36:00+02:00</time>
      </trkpt>
      <trkpt lat="41.5677" lon="9.30738">
        <ele>159</ele>
        <time>2008-05-31T11:36:03+02:00</time>
      </trkpt>
      <trkpt lat="41.56763" lon="9.30755">
        <ele>161</ele>
        <time>2008-05-31T11:36:10+02:00</time>
      </trkpt>
      <trkpt lat="41.56763" lon="9.30774">
        <ele>162</ele>
        <time>2008-05-31T11:36:17+02:00</time>
      </trkpt>
      <trkpt lat="41.56756" lon="9.30785">
        <ele>163</ele>
        <time>2008-05-31T11:36:22+02:00</time>
      </trkpt>
      <trkpt lat="41.56738" lon="9.30805">
        <ele>161</ele>
        <time>2008-05-31T11:36:40+02:00</time>
      </trkpt>
      <trkpt lat="41.56736" lon="9.30813">
        <ele>161</ele>
        <time>2008-05-31T11:36:47+02:00</time>
      </trkpt>
      <trkpt lat="41.56737" lon="9.30826">
        <ele>162</ele>
        <time>2008-05-31T11:37:02+02:00</time>
      </trkpt>
      <trkpt lat="41.56736" lon="9.30832">
        <ele>163</ele>
        <time>2008-05-31T11:37:09+02:00</time>
      </trkpt>
      <trkpt lat="41.56732" lon="9.30836">
        <ele>168</ele>
        <time>2008-05-31T11:37:16+02:00</time>
      </trkpt>
      <trkpt lat="41.56729" lon="9.30842">
        <ele>169</ele>
        <time>2008-05-31T11:37:23+02:00</time>
      </trkpt>
      <trkpt lat="41.56725" lon="9.30849">
        <ele>170</ele>
        <time>2008-05-31T11:37:30+02:00</time>
      </trkpt>
      <trkpt lat="41.56723" lon="9.3085">
        <ele>170</ele>
        <time>2008-05-31T11:37:32+02:00</time>
      </trkpt>
      <trkpt lat="41.56718" lon="9.30851">
        <ele>170</ele>
        <time>2008-05-31T11:37:39+02:00</time>
      </trkpt>
      <trkpt lat="41.56717" lon="9.3085">
        <ele>170</ele>
        <time>2008-05-31T11:37:40+02:00</time>
      </trkpt>
      <trkpt lat="41.56711" lon="9.30853">
        <ele>170</ele>
        <time>2008-05-31T11:37:44+02:00</time>
      </trkpt>
      <trkpt lat="41.5662" lon="9.31071">
        <ele>220</ele>
        <time>2008-05-31T11:43:32+02:00</time>
      </trkpt>
      <trkpt lat="41.56621" lon="9.31076">
        <ele>221</ele>
        <time>2008-05-31T11:43:39+02:00</time>
      </trkpt>
      <trkpt lat="41.56621" lon="9.31086">
        <ele>227</ele>
        <time>2008-05-31T11:43:53+02:00</time>
      </trkpt>
      <trkpt lat="41.56623" lon="9.31086">
        <ele>228</ele>
        <time>2008-05-31T11:44:03+02:00</time>
      </trkpt>
      <trkpt lat="41.56623" lon="9.31087">
        <ele>228</ele>
        <time>2008-05-31T11:44:08+02:00</time>
      </trkpt>
      <trkpt lat="41.56622" lon="9.31087">
        <ele>228</ele>
        <time>2008-05-31T11:44:12+02:00</time>
      </trkpt>
      <trkpt lat="41.56619" lon="9.31085">
        <ele>227</ele>
        <time>2008-05-31T11:44:15+02:00</time>
      </trkpt>
      <trkpt lat="41.56615" lon="9.31082">
        <ele>220</ele>
        <time>2008-05-31T11:44:20+02:00</time>
      </trkpt>
      <trkpt lat="41.56613" lon="9.3108">
        <ele>220</ele>
        <time>2008-05-31T11:44:27+02:00</time>
      </trkpt>
      <trkpt lat="41.56614" lon="9.3108">
        <ele>220</ele>
        <time>2008-05-31T11:44:32+02:00</time>
      </trkpt>
      <trkpt lat="41.56612" lon="9.31079">
        <ele>220</ele>
        <time>2008-05-31T11:45:05+02:00</time>
      </trkpt>
      <trkpt lat="41.56608" lon="9.31075">
        <ele>220</ele>
        <time>2008-05-31T11:45:11+02:00</time>
      </trkpt>
      <trkpt lat="41.56606" lon="9.31075">
        <ele>220</ele>
        <time>2008-05-31T11:45:17+02:00</time>
      </trkpt>
      <trkpt lat="41.56607" lon="9.31076">
        <ele>220</ele>
        <time>2008-05-31T11:45:45+02:00</time>
      </trkpt>
      <trkpt lat="41.56601" lon="9.31075">
        <ele>220</ele>
        <time>2008-05-31T11:45:51+02:00</time>
      </trkpt>
      <trkpt lat="41.56597" lon="9.31076">
        <ele>220</ele>
        <time>2008-05-31T11:45:55+02:00</time>
      </trkpt>
      <trkpt lat="41.56593" lon="9.31076">
        <ele>220</ele>
        <time>2008-05-31T11:46:02+02:00</time>
      </trkpt>
      <trkpt lat="41.56593" lon="9.31074">
        <ele>220</ele>
        <time>2008-05-31T11:46:06+02:00</time>
      </trkpt>
      <trkpt lat="41.56594" lon="9.31074">
        <ele>220</ele>
        <time>2008-05-31T11:46:11+02:00</time>
      </trkpt>
      <trkpt lat="41.56594" lon="9.31074">
        <ele>220</ele>
        <time>2008-05-31T11:46:25+02:00</time>
      </trkpt>
      <trkpt lat="41.56594" lon="9.31075">
        <ele>220</ele>
        <time>2008-05-31T11:46:34+02:00</time>
      </trkpt>
      <trkpt lat="41.56593" lon="9.31076">
        <ele>220</ele>
        <time>2008-05-31T11:46:42+02:00</time>
      </trkpt>
      <trkpt lat="41.56593" lon="9.31076">
        <ele>220</ele>
        <time>2008-05-31T11:46:47+02:00</time>
      </trkpt>
      <trkpt lat="41.56593" lon="9.31075">
        <ele>220</ele>
        <time>2008-05-31T11:46:57+02:00</time>
      </trkpt>
      <trkpt lat="41.56591" lon="9.31074">
        <ele>220</ele>
        <time>2008-05-31T11:47:02+02:00</time>
      </trkpt>
      <trkpt lat="41.56592" lon="9.31075">
        <ele>220</ele>
        <time>2008-05-31T11:47:07+02:00</time>
      </trkpt>
      <trkpt lat="41.56592" lon="9.31073">
        <ele>220</ele>
        <time>2008-05-31T11:47:16+02:00</time>
      </trkpt>
      <trkpt lat="41.56592" lon="9.31072">
        <ele>220</ele>
        <time>2008-05-31T11:47:47+02:00</time>
      </trkpt>
      <trkpt lat="41.56593" lon="9.31075">
        <ele>220</ele>
        <time>2008-05-31T11:47:55+02:00</time>
      </trkpt>
      <trkpt lat="41.56593" lon="9.31075">
        <ele>220</ele>
        <time>2008-05-31T11:48:09+02:00</time>
      </trkpt>
      <trkpt lat="41.56593" lon="9.31074">
        <ele>220</ele>
        <time>2008-05-31T11:48:20+02:00</time>
      </trkpt>
      <trkpt lat="41.56593" lon="9.31076">
        <ele>220</ele>
        <time>2008-05-31T11:48:26+02:00</time>
      </trkpt>
      <trkpt lat="41.56593" lon="9.31076">
        <ele>220</ele>
        <time>2008-05-31T11:48:30+02:00</time>
      </trkpt>
      <trkpt lat="41.56593" lon="9.31076">
        <ele>220</ele>
        <time>2008-05-31T11:48:36+02:00</time>
      </trkpt>
      <trkpt lat="41.56593" lon="9.31077">
        <ele>220</ele>
        <time>2008-05-31T11:48:47+02:00</time>
      </trkpt>
      <trkpt lat="41.56594" lon="9.31077">
        <ele>220</ele>
        <time>2008-05-31T11:48:53+02:00</time>
      </trkpt>
      <trkpt lat="41.56593" lon="9.31079">
        <ele>220</ele>
        <time>2008-05-31T11:49:01+02:00</time>
      </trkpt>
      <trkpt lat="41.56594" lon="9.31076">
        <ele>220</ele>
        <time>2008-05-31T11:49:08+02:00</time>
      </trkpt>
      <trkpt lat="41.56595" lon="9.31074">
        <ele>220</ele>
        <time>2008-05-31T11:49:14+02:00</time>
      </trkpt>
      <trkpt lat="41.56595" lon="9.31075">
        <ele>220</ele>
        <time>2008-05-31T11:49:28+02:00</time>
      </trkpt>
      <trkpt lat="41.56595" lon="9.31076">
        <ele>220</ele>
        <time>2008-05-31T11:49:44+02:00</time>
      </trkpt>
      <trkpt lat="41.56594" lon="9.31078">
        <ele>220</ele>
        <time>2008-05-31T11:49:51+02:00</time>
      </trkpt>
      <trkpt lat="41.56593" lon="9.31077">
        <ele>220</ele>
        <time>2008-05-31T11:49:58+02:00</time>
      </trkpt>
      <trkpt lat="41.56593" lon="9.31077">
        <ele>220</ele>
        <time>2008-05-31T11:50:05+02:00</time>
      </trkpt>
      <trkpt lat="41.56594" lon="9.31078">
        <ele>220</ele>
        <time>2008-05-31T11:50:12+02:00</time>
      </trkpt>
      <trkpt lat="41.56597" lon="9.31078">
        <ele>220</ele>
        <time>2008-05-31T11:50:17+02:00</time>
      </trkpt>
      <trkpt lat="41.56598" lon="9.31076">
        <ele>220</ele>
        <time>2008-05-31T11:50:30+02:00</time>
      </trkpt>
      <trkpt lat="41.56599" lon="9.31076">
        <ele>220</ele>
        <time>2008-05-31T11:50:37+02:00</time>
      </trkpt>
      <trkpt lat="41.56598" lon="9.31078">
        <ele>220</ele>
        <time>2008-05-31T11:50:55+02:00</time>
      </trkpt>
      <trkpt lat="41.56595" lon="9.31077">
        <ele>220</ele>
        <time>2008-05-31T11:51:02+02:00</time>
      </trkpt>
      <trkpt lat="41.56595" lon="9.31078">
        <ele>220</ele>
        <time>2008-05-31T11:51:19+02:00</time>
      </trkpt>
      <trkpt lat="41.56594" lon="9.31077">
        <ele>220</ele>
        <time>2008-05-31T11:51:33+02:00</time>
      </trkpt>
      <trkpt lat="41.56594" lon="9.31077">
        <ele>220</ele>
        <time>2008-05-31T11:51:57+02:00</time>
      </trkpt>
      <trkpt lat="41.56594" lon="9.31076">
        <ele>220</ele>
        <time>2008-05-31T11:52:30+02:00</time>
      </trkpt>
      <trkpt lat="41.56594" lon="9.31076">
        <ele>220</ele>
        <time>2008-05-31T11:52:56+02:00</time>
      </trkpt>
      <trkpt lat="41.56592" lon="9.31073">
        <ele>220</ele>
        <time>2008-05-31T11:53:26+02:00</time>
      </trkpt>
      <trkpt lat="41.56591" lon="9.31073">
        <ele>220</ele>
        <time>2008-05-31T11:53:34+02:00</time>
      </trkpt>
      <trkpt lat="41.56593" lon="9.31076">
        <ele>220</ele>
        <time>2008-05-31T11:53:46+02:00</time>
      </trkpt>
      <trkpt lat="41.56593" lon="9.31077">
        <ele>220</ele>
        <time>2008-05-31T11:53:58+02:00</time>
      </trkpt>
      <trkpt lat="41.56591" lon="9.31077">
        <ele>220</ele>
        <time>2008-05-31T11:54:27+02:00</time>
      </trkpt>
      <trkpt lat="41.56589" lon="9.31076">
        <ele>220</ele>
        <time>2008-05-31T11:54:32+02:00</time>
      </trkpt>
      <trkpt lat="41.56588" lon="9.31074">
        <ele>220</ele>
        <time>2008-05-31T11:54:37+02:00</time>
      </trkpt>
      <trkpt lat="41.56589" lon="9.31073">
        <ele>220</ele>
        <time>2008-05-31T11:54:47+02:00</time>
      </trkpt>
      <trkpt lat="41.56592" lon="9.31075">
        <ele>220</ele>
        <time>2008-05-31T11:54:58+02:00</time>
      </trkpt>
      <trkpt lat="41.56593" lon="9.31075">
        <ele>220</ele>
        <time>2008-05-31T11:55:03+02:00</time>
      </trkpt>
      <trkpt lat="41.56593" lon="9.31075">
        <ele>220</ele>
        <time>2008-05-31T11:55:09+02:00</time>
      </trkpt>
      <trkpt lat="41.56593" lon="9.31075">
        <ele>220</ele>
        <time>2008-05-31T11:55:17+02:00</time>
      </trkpt>
      <trkpt lat="41.56594" lon="9.31075">
        <ele>220</ele>
        <time>2008-05-31T11:55:22+02:00</time>
      </trkpt>
      <trkpt lat="41.56594" lon="9.31076">
        <ele>220</ele>
        <time>2008-05-31T11:55:29+02:00</time>
      </trkpt>
      <trkpt lat="41.56594" lon="9.31076">
        <ele>220</ele>
        <time>2008-05-31T11:55:35+02:00</time>
      </trkpt>
      <trkpt lat="41.56594" lon="9.31075">
        <ele>220</ele>
        <time>2008-05-31T11:55:41+02:00</time>
      </trkpt>
      <trkpt lat="41.56595" lon="9.31074">
        <ele>220</ele>
        <time>2008-05-31T11:55:48+02:00</time>
      </trkpt>
      <trkpt lat="41.56597" lon="9.31076">
        <ele>220</ele>
        <time>2008-05-31T11:55:53+02:00</time>
      </trkpt>
      <trkpt lat="41.56602" lon="9.31076">
        <ele>220</ele>
        <time>2008-05-31T11:56:00+02:00</time>
      </trkpt>
      <trkpt lat="41.56607" lon="9.31078">
        <ele>220</ele>
        <time>2008-05-31T11:56:06+02:00</time>
      </trkpt>
      <trkpt lat="41.56611" lon="9.3108">
        <ele>220</ele>
        <time>2008-05-31T11:56:12+02:00</time>
      </trkpt>
      <trkpt lat="41.56617" lon="9.31086">
        <ele>227</ele>
        <time>2008-05-31T11:56:19+02:00</time>
      </trkpt>
      <trkpt lat="41.56621" lon="9.31087">
        <ele>227</ele>
        <time>2008-05-31T11:56:23+02:00</time>
      </trkpt>
      <trkpt lat="41.56622" lon="9.31088">
        <ele>228</ele>
        <time>2008-05-31T11:56:25+02:00</time>
      </trkpt>
      <trkpt lat="41.56624" lon="9.31089">
        <ele>228</ele>
        <time>2008-05-31T11:56:31+02:00</time>
      </trkpt>
      <trkpt lat="41.56625" lon="9.31089">
        <ele>228</ele>
        <time>2008-05-31T11:56:38+02:00</time>
      </trkpt>
      <trkpt lat="41.5663" lon="9.31094">
        <ele>228</ele>
        <time>2008-05-31T11:56:46+02:00</time>
      </trkpt>
      <trkpt lat="41.56632" lon="9.31095">
        <ele>229</ele>
        <time>2008-05-31T11:56:51+02:00</time>
      </trkpt>
      <trkpt lat="41.56636" lon="9.31101">
        <ele>229</ele>
        <time>2008-05-31T11:56:57+02:00</time>
      </trkpt>
      <trkpt lat="41.56641" lon="9.31105">
        <ele>229</ele>
        <time>2008-05-31T11:57:01+02:00</time>
      </trkpt>
      <trkpt lat="41.5665" lon="9.31113">
        <ele>230</ele>
        <time>2008-05-31T11:57:08+02:00</time>
      </trkpt>
      <trkpt lat="41.56659" lon="9.31119">
        <ele>230</ele>
        <time>2008-05-31T11:57:13+02:00</time>
      </trkpt>
      <trkpt lat="41.56661" lon="9.31121">
        <ele>230</ele>
        <time>2008-05-31T11:57:14+02:00</time>
      </trkpt>
      <trkpt lat="41.56676" lon="9.3113">
        <ele>237</ele>
        <time>2008-05-31T11:57:20+02:00</time>
      </trkpt>
      <trkpt lat="41.56689" lon="9.31139">
        <ele>237</ele>
        <time>2008-05-31T11:57:25+02:00</time>
      </trkpt>
      <trkpt lat="41.56701" lon="9.3114">
        <ele>238</ele>
        <time>2008-05-31T11:57:30+02:00</time>
      </trkpt>
      <trkpt lat="41.56711" lon="9.31148">
        <ele>238</ele>
        <time>2008-05-31T11:57:36+02:00</time>
      </trkpt>
      <trkpt lat="41.56714" lon="9.31152">
        <ele>239</ele>
        <time>2008-05-31T11:57:38+02:00</time>
      </trkpt>
      <trkpt lat="41.56726" lon="9.3117">
        <ele>239</ele>
        <time>2008-05-31T11:57:46+02:00</time>
      </trkpt>
      <trkpt lat="41.56737" lon="9.3118">
        <ele>240</ele>
        <time>2008-05-31T11:57:52+02:00</time>
      </trkpt>
      <trkpt lat="41.56739" lon="9.31182">
        <ele>240</ele>
        <time>2008-05-31T11:57:53+02:00</time>
      </trkpt>
      <trkpt lat="41.56748" lon="9.31196">
        <ele>239</ele>
        <time>2008-05-31T11:58:00+02:00</time>
      </trkpt>
      <trkpt lat="41.56757" lon="9.31202">
        <ele>246</ele>
        <time>2008-05-31T11:58:05+02:00</time>
      </trkpt>
      <trkpt lat="41.56758" lon="9.31204">
        <ele>246</ele>
        <time>2008-05-31T11:58:06+02:00</time>
      </trkpt>
      <trkpt lat="41.56767" lon="9.31214">
        <ele>246</ele>
        <time>2008-05-31T11:58:13+02:00</time>
      </trkpt>
      <trkpt lat="41.56773" lon="9.31224">
        <ele>246</ele>
        <time>2008-05-31T11:58:18+02:00</time>
      </trkpt>
      <trkpt lat="41.56778" lon="9.31231">
        <ele>246</ele>
        <time>2008-05-31T11:58:23+02:00</time>
      </trkpt>
      <trkpt lat="41.56784" lon="9.31232">
        <ele>246</ele>
        <time>2008-05-31T11:58:28+02:00</time>
      </trkpt>
      <trkpt lat="41.56785" lon="9.31232">
        <ele>247</ele>
        <time>2008-05-31T11:58:29+02:00</time>
      </trkpt>
      <trkpt lat="41.56789" lon="9.31233">
        <ele>247</ele>
        <time>2008-05-31T11:58:35+02:00</time>
      </trkpt>
      <trkpt lat="41.56794" lon="9.31237">
        <ele>247</ele>
        <time>2008-05-31T11:58:39+02:00</time>
      </trkpt>
      <trkpt lat="41.56804" lon="9.31248">
        <ele>248</ele>
        <time>2008-05-31T11:58:47+02:00</time>
      </trkpt>
      <trkpt lat="41.56812" lon="9.31257">
        <ele>247</ele>
        <time>2008-05-31T11:58:53+02:00</time>
      </trkpt>
      <trkpt lat="41.56821" lon="9.31267">
        <ele>247</ele>
        <time>2008-05-31T11:58:59+02:00</time>
      </trkpt>
      <trkpt lat="41.56828" lon="9.31278">
        <ele>247</ele>
        <time>2008-05-31T11:59:05+02:00</time>
      </trkpt>
      <trkpt lat="41.56838" lon="9.3129">
        <ele>252</ele>
        <time>2008-05-31T11:59:12+02:00</time>
      </trkpt>
      <trkpt lat="41.56846" lon="9.31298">
        <ele>252</ele>
        <time>2008-05-31T11:59:17+02:00</time>
      </trkpt>
      <trkpt lat="41.56851" lon="9.31311">
        <ele>251</ele>
        <time>2008-05-31T11:59:23+02:00</time>
      </trkpt>
      <trkpt lat="41.56861" lon="9.31326">
        <ele>252</ele>
        <time>2008-05-31T11:59:30+02:00</time>
      </trkpt>
      <trkpt lat="41.5687" lon="9.31339">
        <ele>250</ele>
        <time>2008-05-31T11:59:36+02:00</time>
      </trkpt>
      <trkpt lat="41.56874" lon="9.31344">
        <ele>251</ele>
        <time>2008-05-31T11:59:39+02:00</time>
      </trkpt>
      <trkpt lat="41.56888" lon="9.3135">
        <ele>252</ele>
        <time>2008-05-31T11:59:48+02:00</time>
      </trkpt>
      <trkpt lat="41.56897" lon="9.31356">
        <ele>252</ele>
        <time>2008-05-31T11:59:54+02:00</time>
      </trkpt>
      <trkpt lat="41.569" lon="9.31364">
        <ele>252</ele>
        <time>2008-05-31T12:00:01+02:00</time>
      </trkpt>
      <trkpt lat="41.569" lon="9.31374">
        <ele>252</ele>
        <time>2008-05-31T12:00:07+02:00</time>
      </trkpt>
      <trkpt lat="41.56898" lon="9.31386">
        <ele>251</ele>
        <time>2008-05-31T12:00:13+02:00</time>
      </trkpt>
      <trkpt lat="41.56897" lon="9.31391">
        <ele>251</ele>
        <time>2008-05-31T12:00:15+02:00</time>
      </trkpt>
      <trkpt lat="41.56904" lon="9.31402">
        <ele>252</ele>
        <time>2008-05-31T12:00:20+02:00</time>
      </trkpt>
      <trkpt lat="41.5691" lon="9.31406">
        <ele>252</ele>
        <time>2008-05-31T12:00:23+02:00</time>
      </trkpt>
      <trkpt lat="41.56919" lon="9.31414">
        <ele>254</ele>
        <time>2008-05-31T12:00:29+02:00</time>
      </trkpt>
      <trkpt lat="41.56921" lon="9.31415">
        <ele>255</ele>
        <time>2008-05-31T12:00:30+02:00</time>
      </trkpt>
      <trkpt lat="41.56921" lon="9.31418">
        <ele>255</ele>
        <time>2008-05-31T12:00:34+02:00</time>
      </trkpt>
      <trkpt lat="41.5692" lon="9.31422">
        <ele>255</ele>
        <time>2008-05-31T12:00:36+02:00</time>
      </trkpt>
      <trkpt lat="41.56923" lon="9.31432">
        <ele>258</ele>
        <time>2008-05-31T12:00:42+02:00</time>
      </trkpt>
      <trkpt lat="41.56923" lon="9.31434">
        <ele>258</ele>
        <time>2008-05-31T12:00:46+02:00</time>
      </trkpt>
      <trkpt lat="41.56917" lon="9.31447">
        <ele>251</ele>
        <time>2008-05-31T12:00:52+02:00</time>
      </trkpt>
      <trkpt lat="41.56915" lon="9.31448">
        <ele>250</ele>
        <time>2008-05-31T12:00:53+02:00</time>
      </trkpt>
      <trkpt lat="41.56909" lon="9.31452">
        <ele>250</ele>
        <time>2008-05-31T12:00:57+02:00</time>
      </trkpt>
      <trkpt lat="41.56901" lon="9.31463">
        <ele>250</ele>
        <time>2008-05-31T12:01:03+02:00</time>
      </trkpt>
      <trkpt lat="41.56899" lon="9.31475">
        <ele>250</ele>
        <time>2008-05-31T12:01:07+02:00</time>
      </trkpt>
      <trkpt lat="41.56896" lon="9.31496">
        <ele>251</ele>
        <time>2008-05-31T12:01:15+02:00</time>
      </trkpt>
      <trkpt lat="41.56896" lon="9.31509">
        <ele>249</ele>
        <time>2008-05-31T12:01:20+02:00</time>
      </trkpt>
      <trkpt lat="41.56895" lon="9.31522">
        <ele>248</ele>
        <time>2008-05-31T12:01:26+02:00</time>
      </trkpt>
      <trkpt lat="41.56895" lon="9.31536">
        <ele>247</ele>
        <time>2008-05-31T12:01:32+02:00</time>
      </trkpt>
      <trkpt lat="41.56898" lon="9.31554">
        <ele>247</ele>
        <time>2008-05-31T12:01:39+02:00</time>
      </trkpt>
      <trkpt lat="41.56907" lon="9.31563">
        <ele>248</ele>
        <time>2008-05-31T12:01:45+02:00</time>
      </trkpt>
      <trkpt lat="41.56909" lon="9.31564">
        <ele>248</ele>
        <time>2008-05-31T12:01:46+02:00</time>
      </trkpt>
      <trkpt lat="41.56914" lon="9.31577">
        <ele>250</ele>
        <time>2008-05-31T12:01:52+02:00</time>
      </trkpt>
      <trkpt lat="41.56921" lon="9.31586">
        <ele>251</ele>
        <time>2008-05-31T12:01:57+02:00</time>
      </trkpt>
      <trkpt lat="41.56928" lon="9.31594">
        <ele>252</ele>
        <time>2008-05-31T12:02:03+02:00</time>
      </trkpt>
      <trkpt lat="41.56938" lon="9.31604">
        <ele>253</ele>
        <time>2008-05-31T12:02:10+02:00</time>
      </trkpt>
      <trkpt lat="41.5694" lon="9.31605">
        <ele>253</ele>
        <time>2008-05-31T12:02:11+02:00</time>
      </trkpt>
      <trkpt lat="41.56954" lon="9.31618">
        <ele>253</ele>
        <time>2008-05-31T12:02:18+02:00</time>
      </trkpt>
      <trkpt lat="41.56966" lon="9.31631">
        <ele>253</ele>
        <time>2008-05-31T12:02:25+02:00</time>
      </trkpt>
      <trkpt lat="41.56976" lon="9.3164">
        <ele>253</ele>
        <time>2008-05-31T12:02:30+02:00</time>
      </trkpt>
      <trkpt lat="41.56989" lon="9.31651">
        <ele>253</ele>
        <time>2008-05-31T12:02:37+02:00</time>
      </trkpt>
      <trkpt lat="41.57" lon="9.31661">
        <ele>255</ele>
        <time>2008-05-31T12:02:42+02:00</time>
      </trkpt>
      <trkpt lat="41.57007" lon="9.31673">
        <ele>251</ele>
        <time>2008-05-31T12:02:46+02:00</time>
      </trkpt>
      <trkpt lat="41.57018" lon="9.31694">
        <ele>250</ele>
        <time>2008-05-31T12:02:51+02:00</time>
      </trkpt>
      <trkpt lat="41.57022" lon="9.31705">
        <ele>249</ele>
        <time>2008-05-31T12:02:54+02:00</time>
      </trkpt>
      <trkpt lat="41.57032" lon="9.3172">
        <ele>248</ele>
        <time>2008-05-31T12:02:59+02:00</time>
      </trkpt>
      <trkpt lat="41.57046" lon="9.31735">
        <ele>248</ele>
        <time>2008-05-31T12:03:05+02:00</time>
      </trkpt>
      <trkpt lat="41.5705" lon="9.31739">
        <ele>249</ele>
        <time>2008-05-31T12:03:07+02:00</time>
      </trkpt>
      <trkpt lat="41.5705" lon="9.31748">
        <ele>248</ele>
        <time>2008-05-31T12:03:12+02:00</time>
      </trkpt>
      <trkpt lat="41.57053" lon="9.31753">
        <ele>243</ele>
        <time>2008-05-31T12:03:14+02:00</time>
      </trkpt>
      <trkpt lat="41.57055" lon="9.31756">
        <ele>243</ele>
        <time>2008-05-31T12:03:16+02:00</time>
      </trkpt>
      <trkpt lat="41.57063" lon="9.31777">
        <ele>243</ele>
        <time>2008-05-31T12:03:23+02:00</time>
      </trkpt>
      <trkpt lat="41.5707" lon="9.318">
        <ele>242</ele>
        <time>2008-05-31T12:03:29+02:00</time>
      </trkpt>
      <trkpt lat="41.5708" lon="9.31819">
        <ele>242</ele>
        <time>2008-05-31T12:03:34+02:00</time>
      </trkpt>
      <trkpt lat="41.57086" lon="9.31834">
        <ele>244</ele>
        <time>2008-05-31T12:03:39+02:00</time>
      </trkpt>
      <trkpt lat="41.57088" lon="9.31852">
        <ele>246</ele>
        <time>2008-05-31T12:03:44+02:00</time>
      </trkpt>
      <trkpt lat="41.5709" lon="9.31871">
        <ele>247</ele>
        <time>2008-05-31T12:03:50+02:00</time>
      </trkpt>
      <trkpt lat="41.57099" lon="9.31883">
        <ele>247</ele>
        <time>2008-05-31T12:03:56+02:00</time>
      </trkpt>
      <trkpt lat="41.57107" lon="9.31897">
        <ele>247</ele>
        <time>2008-05-31T12:04:02+02:00</time>
      </trkpt>
      <trkpt lat="41.5711" lon="9.31901">
        <ele>247</ele>
        <time>2008-05-31T12:04:04+02:00</time>
      </trkpt>
      <trkpt lat="41.57116" lon="9.31922">
        <ele>245</ele>
        <time>2008-05-31T12:04:12+02:00</time>
      </trkpt>
      <trkpt lat="41.57122" lon="9.3193">
        <ele>246</ele>
        <time>2008-05-31T12:04:16+02:00</time>
      </trkpt>
      <trkpt lat="41.57133" lon="9.31943">
        <ele>246</ele>
        <time>2008-05-31T12:04:23+02:00</time>
      </trkpt>
      <trkpt lat="41.57141" lon="9.31957">
        <ele>247</ele>
        <time>2008-05-31T12:04:30+02:00</time>
      </trkpt>
      <trkpt lat="41.5715" lon="9.31973">
        <ele>247</ele>
        <time>2008-05-31T12:04:37+02:00</time>
      </trkpt>
      <trkpt lat="41.57157" lon="9.31979">
        <ele>247</ele>
        <time>2008-05-31T12:04:41+02:00</time>
      </trkpt>
      <trkpt lat="41.57169" lon="9.31978">
        <ele>248</ele>
        <time>2008-05-31T12:04:47+02:00</time>
      </trkpt>
      <trkpt lat="41.57188" lon="9.31976">
        <ele>248</ele>
        <time>2008-05-31T12:04:54+02:00</time>
      </trkpt>
      <trkpt lat="41.5721" lon="9.31974">
        <ele>247</ele>
        <time>2008-05-31T12:05:00+02:00</time>
      </trkpt>
      <trkpt lat="41.57224" lon="9.3197">
        <ele>247</ele>
        <time>2008-05-31T12:05:04+02:00</time>
      </trkpt>
      <trkpt lat="41.57238" lon="9.31968">
        <ele>246</ele>
        <time>2008-05-31T12:05:09+02:00</time>
      </trkpt>
      <trkpt lat="41.57249" lon="9.31966">
        <ele>246</ele>
        <time>2008-05-31T12:05:14+02:00</time>
      </trkpt>
      <trkpt lat="41.57264" lon="9.31966">
        <ele>243</ele>
        <time>2008-05-31T12:05:19+02:00</time>
      </trkpt>
      <trkpt lat="41.5727" lon="9.31968">
        <ele>243</ele>
        <time>2008-05-31T12:05:21+02:00</time>
      </trkpt>
      <trkpt lat="41.57288" lon="9.31964">
        <ele>243</ele>
        <time>2008-05-31T12:05:26+02:00</time>
      </trkpt>
      <trkpt lat="41.57298" lon="9.3196">
        <ele>242</ele>
        <time>2008-05-31T12:05:30+02:00</time>
      </trkpt>
      <trkpt lat="41.57308" lon="9.3196">
        <ele>242</ele>
        <time>2008-05-31T12:05:33+02:00</time>
      </trkpt>
      <trkpt lat="41.57324" lon="9.31953">
        <ele>242</ele>
        <time>2008-05-31T12:05:38+02:00</time>
      </trkpt>
      <trkpt lat="41.57348" lon="9.31955">
        <ele>239</ele>
        <time>2008-05-31T12:05:44+02:00</time>
      </trkpt>
      <trkpt lat="41.57364" lon="9.31955">
        <ele>238</ele>
        <time>2008-05-31T12:05:48+02:00</time>
      </trkpt>
      <trkpt lat="41.57374" lon="9.31954">
        <ele>238</ele>
        <time>2008-05-31T12:05:50+02:00</time>
      </trkpt>
      <trkpt lat="41.57383" lon="9.31952">
        <ele>238</ele>
        <time>2008-05-31T12:05:52+02:00</time>
      </trkpt>
      <trkpt lat="41.57401" lon="9.31948">
        <ele>237</ele>
        <time>2008-05-31T12:05:56+02:00</time>
      </trkpt>
      <trkpt lat="41.57415" lon="9.31941">
        <ele>237</ele>
        <time>2008-05-31T12:06:00+02:00</time>
      </trkpt>
      <trkpt lat="41.57425" lon="9.3194">
        <ele>235</ele>
        <time>2008-05-31T12:06:04+02:00</time>
      </trkpt>
      <trkpt lat="41.57432" lon="9.31944">
        <ele>235</ele>
        <time>2008-05-31T12:06:07+02:00</time>
      </trkpt>
      <trkpt lat="41.57442" lon="9.31947">
        <ele>235</ele>
        <time>2008-05-31T12:06:11+02:00</time>
      </trkpt>
      <trkpt lat="41.57458" lon="9.31961">
        <ele>234</ele>
        <time>2008-05-31T12:06:18+02:00</time>
      </trkpt>
      <trkpt lat="41.57469" lon="9.31973">
        <ele>233</ele>
        <time>2008-05-31T12:06:23+02:00</time>
      </trkpt>
      <trkpt lat="41.57475" lon="9.31994">
        <ele>233</ele>
        <time>2008-05-31T12:06:28+02:00</time>
      </trkpt>
      <trkpt lat="41.57481" lon="9.32005">
        <ele>230</ele>
        <time>2008-05-31T12:06:31+02:00</time>
      </trkpt>
      <trkpt lat="41.5748" lon="9.32021">
        <ele>230</ele>
        <time>2008-05-31T12:06:36+02:00</time>
      </trkpt>
      <trkpt lat="41.57483" lon="9.32043">
        <ele>230</ele>
        <time>2008-05-31T12:06:40+02:00</time>
      </trkpt>
      <trkpt lat="41.57481" lon="9.32054">
        <ele>229</ele>
        <time>2008-05-31T12:06:42+02:00</time>
      </trkpt>
      <trkpt lat="41.57473" lon="9.32076">
        <ele>229</ele>
        <time>2008-05-31T12:06:47+02:00</time>
      </trkpt>
      <trkpt lat="41.57472" lon="9.32096">
        <ele>227</ele>
        <time>2008-05-31T12:06:51+02:00</time>
      </trkpt>
      <trkpt lat="41.57478" lon="9.32112">
        <ele>227</ele>
        <time>2008-05-31T12:06:55+02:00</time>
      </trkpt>
      <trkpt lat="41.5748" lon="9.32128">
        <ele>226</ele>
        <time>2008-05-31T12:06:58+02:00</time>
      </trkpt>
      <trkpt lat="41.57485" lon="9.32146">
        <ele>225</ele>
        <time>2008-05-31T12:07:02+02:00</time>
      </trkpt>
      <trkpt lat="41.575" lon="9.32156">
        <ele>224</ele>
        <time>2008-05-31T12:07:06+02:00</time>
      </trkpt>
      <trkpt lat="41.5751" lon="9.32169">
        <ele>223</ele>
        <time>2008-05-31T12:07:10+02:00</time>
      </trkpt>
      <trkpt lat="41.57518" lon="9.32189">
        <ele>222</ele>
        <time>2008-05-31T12:07:14+02:00</time>
      </trkpt>
      <trkpt lat="41.57527" lon="9.32215">
        <ele>222</ele>
        <time>2008-05-31T12:07:19+02:00</time>
      </trkpt>
      <trkpt lat="41.57533" lon="9.32233">
        <ele>222</ele>
        <time>2008-05-31T12:07:24+02:00</time>
      </trkpt>
      <trkpt lat="41.57536" lon="9.32244">
        <ele>222</ele>
        <time>2008-05-31T12:07:27+02:00</time>
      </trkpt>
      <trkpt lat="41.57545" lon="9.32263">
        <ele>222</ele>
        <time>2008-05-31T12:07:33+02:00</time>
      </trkpt>
      <trkpt lat="41.57549" lon="9.32271">
        <ele>222</ele>
        <time>2008-05-31T12:07:37+02:00</time>
      </trkpt>
      <trkpt lat="41.5756" lon="9.32277">
        <ele>222</ele>
        <time>2008-05-31T12:07:41+02:00</time>
      </trkpt>
      <trkpt lat="41.57574" lon="9.32295">
        <ele>222</ele>
        <time>2008-05-31T12:07:46+02:00</time>
      </trkpt>
      <trkpt lat="41.57585" lon="9.32306">
        <ele>223</ele>
        <time>2008-05-31T12:07:49+02:00</time>
      </trkpt>
      <trkpt lat="41.57603" lon="9.32323">
        <ele>223</ele>
        <time>2008-05-31T12:07:54+02:00</time>
      </trkpt>
      <trkpt lat="41.57605" lon="9.32328">
        <ele>223</ele>
        <time>2008-05-31T12:07:55+02:00</time>
      </trkpt>
      <trkpt lat="41.57612" lon="9.32348">
        <ele>224</ele>
        <time>2008-05-31T12:07:59+02:00</time>
      </trkpt>
      <trkpt lat="41.57625" lon="9.32369">
        <ele>225</ele>
        <time>2008-05-31T12:08:04+02:00</time>
      </trkpt>
      <trkpt lat="41.57629" lon="9.32388">
        <ele>225</ele>
        <time>2008-05-31T12:08:09+02:00</time>
      </trkpt>
      <trkpt lat="41.57636" lon="9.32394">
        <ele>225</ele>
        <time>2008-05-31T12:08:12+02:00</time>
      </trkpt>
      <trkpt lat="41.57658" lon="9.32415">
        <ele>226</ele>
        <time>2008-05-31T12:08:19+02:00</time>
      </trkpt>
      <trkpt lat="41.57686" lon="9.32425">
        <ele>227</ele>
        <time>2008-05-31T12:08:26+02:00</time>
      </trkpt>
      <trkpt lat="41.57697" lon="9.32428">
        <ele>227</ele>
        <time>2008-05-31T12:08:29+02:00</time>
      </trkpt>
      <trkpt lat="41.57717" lon="9.32432">
        <ele>228</ele>
        <time>2008-05-31T12:08:34+02:00</time>
      </trkpt>
      <trkpt lat="41.57728" lon="9.32441">
        <ele>228</ele>
        <time>2008-05-31T12:08:37+02:00</time>
      </trkpt>
      <trkpt lat="41.57734" lon="9.32449">
        <ele>228</ele>
        <time>2008-05-31T12:08:39+02:00</time>
      </trkpt>
      <trkpt lat="41.57751" lon="9.3246">
        <ele>228</ele>
        <time>2008-05-31T12:08:44+02:00</time>
      </trkpt>
      <trkpt lat="41.57766" lon="9.32461">
        <ele>228</ele>
        <time>2008-05-31T12:08:48+02:00</time>
      </trkpt>
      <trkpt lat="41.57786" lon="9.32461">
        <ele>228</ele>
        <time>2008-05-31T12:08:53+02:00</time>
      </trkpt>
      <trkpt lat="41.57807" lon="9.32438">
        <ele>228</ele>
        <time>2008-05-31T12:09:00+02:00</time>
      </trkpt>
      <trkpt lat="41.57817" lon="9.32434">
        <ele>228</ele>
        <time>2008-05-31T12:09:03+02:00</time>
      </trkpt>
      <trkpt lat="41.57825" lon="9.32426">
        <ele>229</ele>
        <time>2008-05-31T12:09:07+02:00</time>
      </trkpt>
      <trkpt lat="41.57836" lon="9.32422">
        <ele>230</ele>
        <time>2008-05-31T12:09:11+02:00</time>
      </trkpt>
      <trkpt lat="41.57849" lon="9.32411">
        <ele>230</ele>
        <time>2008-05-31T12:09:16+02:00</time>
      </trkpt>
      <trkpt lat="41.57863" lon="9.32399">
        <ele>231</ele>
        <time>2008-05-31T12:09:20+02:00</time>
      </trkpt>
      <trkpt lat="41.57882" lon="9.32382">
        <ele>231</ele>
        <time>2008-05-31T12:09:25+02:00</time>
      </trkpt>
      <trkpt lat="41.57894" lon="9.32379">
        <ele>231</ele>
        <time>2008-05-31T12:09:28+02:00</time>
      </trkpt>
      <trkpt lat="41.57906" lon="9.32376">
        <ele>231</ele>
        <time>2008-05-31T12:09:32+02:00</time>
      </trkpt>
      <trkpt lat="41.57926" lon="9.32376">
        <ele>232</ele>
        <time>2008-05-31T12:09:37+02:00</time>
      </trkpt>
      <trkpt lat="41.5794" lon="9.32378">
        <ele>232</ele>
        <time>2008-05-31T12:09:41+02:00</time>
      </trkpt>
      <trkpt lat="41.57952" lon="9.32373">
        <ele>232</ele>
        <time>2008-05-31T12:09:45+02:00</time>
      </trkpt>
      <trkpt lat="41.57966" lon="9.32371">
        <ele>232</ele>
        <time>2008-05-31T12:09:50+02:00</time>
      </trkpt>
      <trkpt lat="41.57979" lon="9.32366">
        <ele>232</ele>
        <time>2008-05-31T12:09:55+02:00</time>
      </trkpt>
      <trkpt lat="41.5799" lon="9.32359">
        <ele>232</ele>
        <time>2008-05-31T12:10:00+02:00</time>
      </trkpt>
      <trkpt lat="41.57998" lon="9.32359">
        <ele>232</ele>
        <time>2008-05-31T12:10:04+02:00</time>
      </trkpt>
      <trkpt lat="41.58002" lon="9.32356">
        <ele>234</ele>
        <time>2008-05-31T12:10:06+02:00</time>
      </trkpt>
      <trkpt lat="41.58013" lon="9.32356">
        <ele>234</ele>
        <time>2008-05-31T12:10:10+02:00</time>
      </trkpt>
      <trkpt lat="41.58031" lon="9.32356">
        <ele>235</ele>
        <time>2008-05-31T12:10:16+02:00</time>
      </trkpt>
      <trkpt lat="41.58039" lon="9.32356">
        <ele>236</ele>
        <time>2008-05-31T12:10:20+02:00</time>
      </trkpt>
      <trkpt lat="41.58058" lon="9.32342">
        <ele>237</ele>
        <time>2008-05-31T12:10:27+02:00</time>
      </trkpt>
      <trkpt lat="41.5806" lon="9.32341">
        <ele>237</ele>
        <time>2008-05-31T12:10:28+02:00</time>
      </trkpt>
      <trkpt lat="41.58066" lon="9.3234">
        <ele>237</ele>
        <time>2008-05-31T12:10:30+02:00</time>
      </trkpt>
      <trkpt lat="41.58074" lon="9.3233">
        <ele>235</ele>
        <time>2008-05-31T12:10:35+02:00</time>
      </trkpt>
      <trkpt lat="41.58076" lon="9.32328">
        <ele>235</ele>
        <time>2008-05-31T12:10:36+02:00</time>
      </trkpt>
      <trkpt lat="41.5809" lon="9.32316">
        <ele>237</ele>
        <time>2008-05-31T12:10:43+02:00</time>
      </trkpt>
      <trkpt lat="41.581" lon="9.32306">
        <ele>236</ele>
        <time>2008-05-31T12:10:48+02:00</time>
      </trkpt>
      <trkpt lat="41.5811" lon="9.32301">
        <ele>236</ele>
        <time>2008-05-31T12:10:52+02:00</time>
      </trkpt>
      <trkpt lat="41.58122" lon="9.32287">
        <ele>236</ele>
        <time>2008-05-31T12:10:58+02:00</time>
      </trkpt>
      <trkpt lat="41.58127" lon="9.32282">
        <ele>236</ele>
        <time>2008-05-31T12:11:00+02:00</time>
      </trkpt>
      <trkpt lat="41.58141" lon="9.32269">
        <ele>236</ele>
        <time>2008-05-31T12:11:05+02:00</time>
      </trkpt>
      <trkpt lat="41.58161" lon="9.32262">
        <ele>236</ele>
        <time>2008-05-31T12:11:10+02:00</time>
      </trkpt>
      <trkpt lat="41.58175" lon="9.32252">
        <ele>237</ele>
        <time>2008-05-31T12:11:14+02:00</time>
      </trkpt>
      <trkpt lat="41.58188" lon="9.32246">
        <ele>237</ele>
        <time>2008-05-31T12:11:19+02:00</time>
      </trkpt>
      <trkpt lat="41.58193" lon="9.32247">
        <ele>237</ele>
        <time>2008-05-31T12:11:21+02:00</time>
      </trkpt>
      <trkpt lat="41.58204" lon="9.32234">
        <ele>238</ele>
        <time>2008-05-31T12:11:27+02:00</time>
      </trkpt>
      <trkpt lat="41.58214" lon="9.32226">
        <ele>238</ele>
        <time>2008-05-31T12:11:32+02:00</time>
      </trkpt>
      <trkpt lat="41.58214" lon="9.32218">
        <ele>238</ele>
        <time>2008-05-31T12:11:37+02:00</time>
      </trkpt>
      <trkpt lat="41.58213" lon="9.3222">
        <ele>238</ele>
        <time>2008-05-31T12:11:45+02:00</time>
      </trkpt>
      <trkpt lat="41.58213" lon="9.32219">
        <ele>238</ele>
        <time>2008-05-31T12:11:50+02:00</time>
      </trkpt>
      <trkpt lat="41.58213" lon="9.32219">
        <ele>238</ele>
        <time>2008-05-31T12:11:51+02:00</time>
      </trkpt>
      <trkpt lat="41.58211" lon="9.32216">
        <ele>238</ele>
        <time>2008-05-31T12:11:58+02:00</time>
      </trkpt>
      <trkpt lat="41.58211" lon="9.32215">
        <ele>238</ele>
        <time>2008-05-31T12:11:59+02:00</time>
      </trkpt>
      <trkpt lat="41.58211" lon="9.32215">
        <ele>238</ele>
        <time>2008-05-31T12:12:02+02:00</time>
      </trkpt>
      <trkpt lat="41.58211" lon="9.32214">
        <ele>238</ele>
        <time>2008-05-31T12:12:05+02:00</time>
      </trkpt>
      <trkpt lat="41.58211" lon="9.32208">
        <ele>238</ele>
        <time>2008-05-31T12:12:09+02:00</time>
      </trkpt>
      <trkpt lat="41.58213" lon="9.32197">
        <ele>238</ele>
        <time>2008-05-31T12:12:14+02:00</time>
      </trkpt>
      <trkpt lat="41.58219" lon="9.32183">
        <ele>238</ele>
        <time>2008-05-31T12:12:19+02:00</time>
      </trkpt>
      <trkpt lat="41.58226" lon="9.32159">
        <ele>235</ele>
        <time>2008-05-31T12:12:26+02:00</time>
      </trkpt>
      <trkpt lat="41.58234" lon="9.32143">
        <ele>235</ele>
        <time>2008-05-31T12:12:31+02:00</time>
      </trkpt>
      <trkpt lat="41.58246" lon="9.32134">
        <ele>235</ele>
        <time>2008-05-31T12:12:37+02:00</time>
      </trkpt>
      <trkpt lat="41.58247" lon="9.32133">
        <ele>235</ele>
        <time>2008-05-31T12:12:38+02:00</time>
      </trkpt>
      <trkpt lat="41.58255" lon="9.3213">
        <ele>236</ele>
        <time>2008-05-31T12:12:44+02:00</time>
      </trkpt>
      <trkpt lat="41.58255" lon="9.3213">
        <ele>236</ele>
        <time>2008-05-31T12:12:50+02:00</time>
      </trkpt>
      <trkpt lat="41.58258" lon="9.32129">
        <ele>236</ele>
        <time>2008-05-31T12:12:57+02:00</time>
      </trkpt>
      <trkpt lat="41.5826" lon="9.32128">
        <ele>236</ele>
        <time>2008-05-31T12:13:00+02:00</time>
      </trkpt>
      <trkpt lat="41.58268" lon="9.32115">
        <ele>235</ele>
        <time>2008-05-31T12:13:06+02:00</time>
      </trkpt>
      <trkpt lat="41.58271" lon="9.3211">
        <ele>235</ele>
        <time>2008-05-31T12:13:08+02:00</time>
      </trkpt>
      <trkpt lat="41.58284" lon="9.32098">
        <ele>235</ele>
        <time>2008-05-31T12:13:14+02:00</time>
      </trkpt>
      <trkpt lat="41.58294" lon="9.32085">
        <ele>235</ele>
        <time>2008-05-31T12:13:19+02:00</time>
      </trkpt>
      <trkpt lat="41.58296" lon="9.32083">
        <ele>231</ele>
        <time>2008-05-31T12:13:20+02:00</time>
      </trkpt>
      <trkpt lat="41.58305" lon="9.32081">
        <ele>231</ele>
        <time>2008-05-31T12:13:24+02:00</time>
      </trkpt>
      <trkpt lat="41.58315" lon="9.32064">
        <ele>231</ele>
        <time>2008-05-31T12:13:30+02:00</time>
      </trkpt>
      <trkpt lat="41.58316" lon="9.32061">
        <ele>231</ele>
        <time>2008-05-31T12:13:31+02:00</time>
      </trkpt>
      <trkpt lat="41.58327" lon="9.32057">
        <ele>230</ele>
        <time>2008-05-31T12:13:35+02:00</time>
      </trkpt>
      <trkpt lat="41.58329" lon="9.32055">
        <ele>230</ele>
        <time>2008-05-31T12:13:36+02:00</time>
      </trkpt>
      <trkpt lat="41.58349" lon="9.3204">
        <ele>231</ele>
        <time>2008-05-31T12:13:43+02:00</time>
      </trkpt>
      <trkpt lat="41.58361" lon="9.32028">
        <ele>231</ele>
        <time>2008-05-31T12:13:48+02:00</time>
      </trkpt>
      <trkpt lat="41.58374" lon="9.32019">
        <ele>231</ele>
        <time>2008-05-31T12:13:52+02:00</time>
      </trkpt>
      <trkpt lat="41.58384" lon="9.32006">
        <ele>231</ele>
        <time>2008-05-31T12:13:56+02:00</time>
      </trkpt>
      <trkpt lat="41.58397" lon="9.31984">
        <ele>226</ele>
        <time>2008-05-31T12:14:02+02:00</time>
      </trkpt>
      <trkpt lat="41.58411" lon="9.31965">
        <ele>225</ele>
        <time>2008-05-31T12:14:07+02:00</time>
      </trkpt>
      <trkpt lat="41.58423" lon="9.31946">
        <ele>222</ele>
        <time>2008-05-31T12:14:12+02:00</time>
      </trkpt>
      <trkpt lat="41.58425" lon="9.31937">
        <ele>221</ele>
        <time>2008-05-31T12:14:14+02:00</time>
      </trkpt>
      <trkpt lat="41.58428" lon="9.31914">
        <ele>220</ele>
        <time>2008-05-31T12:14:19+02:00</time>
      </trkpt>
      <trkpt lat="41.58433" lon="9.31891">
        <ele>219</ele>
        <time>2008-05-31T12:14:24+02:00</time>
      </trkpt>
      <trkpt lat="41.58435" lon="9.31864">
        <ele>219</ele>
        <time>2008-05-31T12:14:30+02:00</time>
      </trkpt>
      <trkpt lat="41.58436" lon="9.31843">
        <ele>219</ele>
        <time>2008-05-31T12:14:34+02:00</time>
      </trkpt>
      <trkpt lat="41.58435" lon="9.31839">
        <ele>220</ele>
        <time>2008-05-31T12:14:35+02:00</time>
      </trkpt>
      <trkpt lat="41.58431" lon="9.31823">
        <ele>221</ele>
        <time>2008-05-31T12:14:41+02:00</time>
      </trkpt>
      <trkpt lat="41.58432" lon="9.31806">
        <ele>221</ele>
        <time>2008-05-31T12:14:46+02:00</time>
      </trkpt>
      <trkpt lat="41.58439" lon="9.31808">
        <ele>221</ele>
        <time>2008-05-31T12:14:49+02:00</time>
      </trkpt>
      <trkpt lat="41.58441" lon="9.31811">
        <ele>221</ele>
        <time>2008-05-31T12:14:50+02:00</time>
      </trkpt>
      <trkpt lat="41.58453" lon="9.31826">
        <ele>220</ele>
        <time>2008-05-31T12:14:57+02:00</time>
      </trkpt>
      <trkpt lat="41.58458" lon="9.31831">
        <ele>220</ele>
        <time>2008-05-31T12:15:00+02:00</time>
      </trkpt>
      <trkpt lat="41.58467" lon="9.31843">
        <ele>217</ele>
        <time>2008-05-31T12:15:05+02:00</time>
      </trkpt>
      <trkpt lat="41.58475" lon="9.31854">
        <ele>217</ele>
        <time>2008-05-31T12:15:09+02:00</time>
      </trkpt>
      <trkpt lat="41.58486" lon="9.3186">
        <ele>216</ele>
        <time>2008-05-31T12:15:13+02:00</time>
      </trkpt>
      <trkpt lat="41.58497" lon="9.31866">
        <ele>216</ele>
        <time>2008-05-31T12:15:18+02:00</time>
      </trkpt>
      <trkpt lat="41.58499" lon="9.31867">
        <ele>216</ele>
        <time>2008-05-31T12:15:19+02:00</time>
      </trkpt>
      <trkpt lat="41.58518" lon="9.31865">
        <ele>210</ele>
        <time>2008-05-31T12:15:25+02:00</time>
      </trkpt>
      <trkpt lat="41.58531" lon="9.31869">
        <ele>209</ele>
        <time>2008-05-31T12:15:29+02:00</time>
      </trkpt>
      <trkpt lat="41.58537" lon="9.31872">
        <ele>208</ele>
        <time>2008-05-31T12:15:31+02:00</time>
      </trkpt>
      <trkpt lat="41.58553" lon="9.31883">
        <ele>207</ele>
        <time>2008-05-31T12:15:36+02:00</time>
      </trkpt>
      <trkpt lat="41.5856" lon="9.31884">
        <ele>206</ele>
        <time>2008-05-31T12:15:38+02:00</time>
      </trkpt>
      <trkpt lat="41.58577" lon="9.31888">
        <ele>205</ele>
        <time>2008-05-31T12:15:43+02:00</time>
      </trkpt>
      <trkpt lat="41.5858" lon="9.31888">
        <ele>205</ele>
        <time>2008-05-31T12:15:44+02:00</time>
      </trkpt>
      <trkpt lat="41.58591" lon="9.31893">
        <ele>202</ele>
        <time>2008-05-31T12:15:48+02:00</time>
      </trkpt>
      <trkpt lat="41.58607" lon="9.31913">
        <ele>202</ele>
        <time>2008-05-31T12:15:55+02:00</time>
      </trkpt>
      <trkpt lat="41.58615" lon="9.31921">
        <ele>199</ele>
        <time>2008-05-31T12:16:00+02:00</time>
      </trkpt>
      <trkpt lat="41.58616" lon="9.3192">
        <ele>199</ele>
        <time>2008-05-31T12:16:06+02:00</time>
      </trkpt>
      <trkpt lat="41.58616" lon="9.31919">
        <ele>199</ele>
        <time>2008-05-31T12:16:14+02:00</time>
      </trkpt>
      <trkpt lat="41.58618" lon="9.31921">
        <ele>199</ele>
        <time>2008-05-31T12:16:20+02:00</time>
      </trkpt>
      <trkpt lat="41.58616" lon="9.3192">
        <ele>199</ele>
        <time>2008-05-31T12:16:25+02:00</time>
      </trkpt>
      <trkpt lat="41.58616" lon="9.31921">
        <ele>199</ele>
        <time>2008-05-31T12:16:33+02:00</time>
      </trkpt>
      <trkpt lat="41.58616" lon="9.31919">
        <ele>199</ele>
        <time>2008-05-31T12:16:43+02:00</time>
      </trkpt>
      <trkpt lat="41.58616" lon="9.3192">
        <ele>199</ele>
        <time>2008-05-31T12:16:59+02:00</time>
      </trkpt>
      <trkpt lat="41.58617" lon="9.31919">
        <ele>199</ele>
        <time>2008-05-31T12:17:11+02:00</time>
      </trkpt>
      <trkpt lat="41.58617" lon="9.31919">
        <ele>199</ele>
        <time>2008-05-31T12:17:20+02:00</time>
      </trkpt>
      <trkpt lat="41.58617" lon="9.3192">
        <ele>199</ele>
        <time>2008-05-31T12:17:25+02:00</time>
      </trkpt>
      <trkpt lat="41.58617" lon="9.31921">
        <ele>199</ele>
        <time>2008-05-31T12:17:31+02:00</time>
      </trkpt>
      <trkpt lat="41.58617" lon="9.3192">
        <ele>199</ele>
        <time>2008-05-31T12:17:38+02:00</time>
      </trkpt>
      <trkpt lat="41.58616" lon="9.3192">
        <ele>199</ele>
        <time>2008-05-31T12:17:45+02:00</time>
      </trkpt>
      <trkpt lat="41.58617" lon="9.3192">
        <ele>199</ele>
        <time>2008-05-31T12:17:54+02:00</time>
      </trkpt>
      <trkpt lat="41.58616" lon="9.3192">
        <ele>199</ele>
        <time>2008-05-31T12:18:05+02:00</time>
      </trkpt>
      <trkpt lat="41.58616" lon="9.3192">
        <ele>199</ele>
        <time>2008-05-31T12:18:14+02:00</time>
      </trkpt>
      <trkpt lat="41.58615" lon="9.31919">
        <ele>199</ele>
        <time>2008-05-31T12:18:22+02:00</time>
      </trkpt>
      <trkpt lat="41.58616" lon="9.31919">
        <ele>199</ele>
        <time>2008-05-31T12:18:28+02:00</time>
      </trkpt>
      <trkpt lat="41.58616" lon="9.3192">
        <ele>199</ele>
        <time>2008-05-31T12:18:42+02:00</time>
      </trkpt>
      <trkpt lat="41.58617" lon="9.3192">
        <ele>199</ele>
        <time>2008-05-31T12:19:00+02:00</time>
      </trkpt>
      <trkpt lat="41.58617" lon="9.31919">
        <ele>199</ele>
        <time>2008-05-31T12:19:02+02:00</time>
      </trkpt>
      <trkpt lat="41.58616" lon="9.31919">
        <ele>199</ele>
        <time>2008-05-31T12:19:08+02:00</time>
      </trkpt>
      <trkpt lat="41.58616" lon="9.31919">
        <ele>199</ele>
        <time>2008-05-31T12:19:11+02:00</time>
      </trkpt>
      <trkpt lat="41.58616" lon="9.31919">
        <ele>199</ele>
        <time>2008-05-31T12:19:13+02:00</time>
      </trkpt>
      <trkpt lat="41.58615" lon="9.3192">
        <ele>199</ele>
        <time>2008-05-31T12:19:26+02:00</time>
      </trkpt>
      <trkpt lat="41.58614" lon="9.31918">
        <ele>199</ele>
        <time>2008-05-31T12:19:31+02:00</time>
      </trkpt>
      <trkpt lat="41.58614" lon="9.31919">
        <ele>199</ele>
        <time>2008-05-31T12:19:39+02:00</time>
      </trkpt>
      <trkpt lat="41.58615" lon="9.3192">
        <ele>199</ele>
        <time>2008-05-31T12:19:49+02:00</time>
      </trkpt>
      <trkpt lat="41.58615" lon="9.3192">
        <ele>199</ele>
        <time>2008-05-31T12:19:59+02:00</time>
      </trkpt>
      <trkpt lat="41.58614" lon="9.31919">
        <ele>199</ele>
        <time>2008-05-31T12:20:09+02:00</time>
      </trkpt>
      <trkpt lat="41.58615" lon="9.3192">
        <ele>199</ele>
        <time>2008-05-31T12:20:25+02:00</time>
      </trkpt>
      <trkpt lat="41.58615" lon="9.31919">
        <ele>199</ele>
        <time>2008-05-31T12:20:41+02:00</time>
      </trkpt>
      <trkpt lat="41.58616" lon="9.3192">
        <ele>199</ele>
        <time>2008-05-31T12:20:49+02:00</time>
      </trkpt>
      <trkpt lat="41.58616" lon="9.31919">
        <ele>199</ele>
        <time>2008-05-31T12:20:59+02:00</time>
      </trkpt>
      <trkpt lat="41.58616" lon="9.31919">
        <ele>199</ele>
        <time>2008-05-31T12:21:08+02:00</time>
      </trkpt>
      <trkpt lat="41.58616" lon="9.31919">
        <ele>199</ele>
        <time>2008-05-31T12:21:22+02:00</time>
      </trkpt>
      <trkpt lat="41.58616" lon="9.31918">
        <ele>199</ele>
        <time>2008-05-31T12:21:37+02:00</time>
      </trkpt>
      <trkpt lat="41.58616" lon="9.3192">
        <ele>199</ele>
        <time>2008-05-31T12:21:54+02:00</time>
      </trkpt>
      <trkpt lat="41.58617" lon="9.3192">
        <ele>199</ele>
        <time>2008-05-31T12:22:03+02:00</time>
      </trkpt>
      <trkpt lat="41.58617" lon="9.31921">
        <ele>199</ele>
        <time>2008-05-31T12:22:13+02:00</time>
      </trkpt>
      <trkpt lat="41.58618" lon="9.31921">
        <ele>199</ele>
        <time>2008-05-31T12:22:18+02:00</time>
      </trkpt>
      <trkpt lat="41.58619" lon="9.31919">
        <ele>199</ele>
        <time>2008-05-31T12:22:25+02:00</time>
      </trkpt>
      <trkpt lat="41.58618" lon="9.31919">
        <ele>199</ele>
        <time>2008-05-31T12:22:54+02:00</time>
      </trkpt>
      <trkpt lat="41.58618" lon="9.31919">
        <ele>199</ele>
        <time>2008-05-31T12:23:02+02:00</time>
      </trkpt>
      <trkpt lat="41.58618" lon="9.31919">
        <ele>199</ele>
        <time>2008-05-31T12:23:25+02:00</time>
      </trkpt>
      <trkpt lat="41.58617" lon="9.31917">
        <ele>199</ele>
        <time>2008-05-31T12:23:41+02:00</time>
      </trkpt>
      <trkpt lat="41.58616" lon="9.31918">
        <ele>199</ele>
        <time>2008-05-31T12:24:04+02:00</time>
      </trkpt>
      <trkpt lat="41.58615" lon="9.31918">
        <ele>199</ele>
        <time>2008-05-31T12:24:35+02:00</time>
      </trkpt>
      <trkpt lat="41.58613" lon="9.31917">
        <ele>199</ele>
        <time>2008-05-31T12:24:44+02:00</time>
      </trkpt>
      <trkpt lat="41.58612" lon="9.31916">
        <ele>202</ele>
        <time>2008-05-31T12:24:51+02:00</time>
      </trkpt>
      <trkpt lat="41.58617" lon="9.31915">
        <ele>203</ele>
        <time>2008-05-31T12:24:58+02:00</time>
      </trkpt>
      <trkpt lat="41.58617" lon="9.31916">
        <ele>203</ele>
        <time>2008-05-31T12:25:03+02:00</time>
      </trkpt>
      <trkpt lat="41.58618" lon="9.31919">
        <ele>199</ele>
        <time>2008-05-31T12:25:13+02:00</time>
      </trkpt>
      <trkpt lat="41.58618" lon="9.31921">
        <ele>199</ele>
        <time>2008-05-31T12:25:29+02:00</time>
      </trkpt>
      <trkpt lat="41.58617" lon="9.31921">
        <ele>199</ele>
        <time>2008-05-31T12:25:40+02:00</time>
      </trkpt>
      <trkpt lat="41.58617" lon="9.3192">
        <ele>199</ele>
        <time>2008-05-31T12:25:49+02:00</time>
      </trkpt>
      <trkpt lat="41.58617" lon="9.3192">
        <ele>199</ele>
        <time>2008-05-31T12:25:58+02:00</time>
      </trkpt>
      <trkpt lat="41.58618" lon="9.31919">
        <ele>199</ele>
        <time>2008-05-31T12:26:04+02:00</time>
      </trkpt>
      <trkpt lat="41.58617" lon="9.31918">
        <ele>199</ele>
        <time>2008-05-31T12:26:13+02:00</time>
      </trkpt>
      <trkpt lat="41.58616" lon="9.31917">
        <ele>199</ele>
        <time>2008-05-31T12:26:22+02:00</time>
      </trkpt>
      <trkpt lat="41.58617" lon="9.31917">
        <ele>199</ele>
        <time>2008-05-31T12:26:38+02:00</time>
      </trkpt>
      <trkpt lat="41.58617" lon="9.31916">
        <ele>203</ele>
        <time>2008-05-31T12:26:49+02:00</time>
      </trkpt>
      <trkpt lat="41.58618" lon="9.31916">
        <ele>203</ele>
        <time>2008-05-31T12:26:59+02:00</time>
      </trkpt>
      <trkpt lat="41.58619" lon="9.31917">
        <ele>199</ele>
        <time>2008-05-31T12:27:04+02:00</time>
      </trkpt>
      <trkpt lat="41.58619" lon="9.31918">
        <ele>199</ele>
        <time>2008-05-31T12:27:12+02:00</time>
      </trkpt>
      <trkpt lat="41.58619" lon="9.31918">
        <ele>199</ele>
        <time>2008-05-31T12:27:15+02:00</time>
      </trkpt>
      <trkpt lat="41.58619" lon="9.31918">
        <ele>199</ele>
        <time>2008-05-31T12:27:16+02:00</time>
      </trkpt>
      <trkpt lat="41.58621" lon="9.31919">
        <ele>199</ele>
        <time>2008-05-31T12:27:20+02:00</time>
      </trkpt>
      <trkpt lat="41.58627" lon="9.31921">
        <ele>199</ele>
        <time>2008-05-31T12:27:25+02:00</time>
      </trkpt>
      <trkpt lat="41.58629" lon="9.31933">
        <ele>199</ele>
        <time>2008-05-31T12:27:31+02:00</time>
      </trkpt>
      <trkpt lat="41.5863" lon="9.31934">
        <ele>199</ele>
        <time>2008-05-31T12:27:32+02:00</time>
      </trkpt>
      <trkpt lat="41.58626" lon="9.31948">
        <ele>199</ele>
        <time>2008-05-31T12:27:38+02:00</time>
      </trkpt>
      <trkpt lat="41.58631" lon="9.31959">
        <ele>199</ele>
        <time>2008-05-31T12:27:42+02:00</time>
      </trkpt>
      <trkpt lat="41.58636" lon="9.31963">
        <ele>199</ele>
        <time>2008-05-31T12:27:45+02:00</time>
      </trkpt>
      <trkpt lat="41.58641" lon="9.31967">
        <ele>198</ele>
        <time>2008-05-31T12:27:47+02:00</time>
      </trkpt>
      <trkpt lat="41.58654" lon="9.31986">
        <ele>197</ele>
        <time>2008-05-31T12:27:53+02:00</time>
      </trkpt>
      <trkpt lat="41.58667" lon="9.32005">
        <ele>195</ele>
        <time>2008-05-31T12:27:59+02:00</time>
      </trkpt>
      <trkpt lat="41.58671" lon="9.32011">
        <ele>194</ele>
        <time>2008-05-31T12:28:01+02:00</time>
      </trkpt>
      <trkpt lat="41.58674" lon="9.32027">
        <ele>193</ele>
        <time>2008-05-31T12:28:05+02:00</time>
      </trkpt>
      <trkpt lat="41.58681" lon="9.32045">
        <ele>191</ele>
        <time>2008-05-31T12:28:10+02:00</time>
      </trkpt>
      <trkpt lat="41.58692" lon="9.32056">
        <ele>190</ele>
        <time>2008-05-31T12:28:14+02:00</time>
      </trkpt>
      <trkpt lat="41.58705" lon="9.32068">
        <ele>189</ele>
        <time>2008-05-31T12:28:19+02:00</time>
      </trkpt>
      <trkpt lat="41.58708" lon="9.32069">
        <ele>189</ele>
        <time>2008-05-31T12:28:20+02:00</time>
      </trkpt>
      <trkpt lat="41.58725" lon="9.3207">
        <ele>188</ele>
        <time>2008-05-31T12:28:26+02:00</time>
      </trkpt>
      <trkpt lat="41.58736" lon="9.32069">
        <ele>187</ele>
        <time>2008-05-31T12:28:30+02:00</time>
      </trkpt>
      <trkpt lat="41.58739" lon="9.32069">
        <ele>186</ele>
        <time>2008-05-31T12:28:31+02:00</time>
      </trkpt>
      <trkpt lat="41.58752" lon="9.32068">
        <ele>186</ele>
        <time>2008-05-31T12:28:37+02:00</time>
      </trkpt>
      <trkpt lat="41.58766" lon="9.32071">
        <ele>187</ele>
        <time>2008-05-31T12:28:42+02:00</time>
      </trkpt>
      <trkpt lat="41.58777" lon="9.32079">
        <ele>187</ele>
        <time>2008-05-31T12:28:48+02:00</time>
      </trkpt>
      <trkpt lat="41.5879" lon="9.32089">
        <ele>174</ele>
        <time>2008-05-31T12:28:54+02:00</time>
      </trkpt>
      <trkpt lat="41.588" lon="9.32093">
        <ele>173</ele>
        <time>2008-05-31T12:28:59+02:00</time>
      </trkpt>
      <trkpt lat="41.58812" lon="9.32104">
        <ele>172</ele>
        <time>2008-05-31T12:29:04+02:00</time>
      </trkpt>
      <trkpt lat="41.58818" lon="9.32112">
        <ele>171</ele>
        <time>2008-05-31T12:29:07+02:00</time>
      </trkpt>
      <trkpt lat="41.58833" lon="9.32117">
        <ele>170</ele>
        <time>2008-05-31T12:29:12+02:00</time>
      </trkpt>
      <trkpt lat="41.58835" lon="9.32117">
        <ele>171</ele>
        <time>2008-05-31T12:29:13+02:00</time>
      </trkpt>
      <trkpt lat="41.58842" lon="9.32124">
        <ele>169</ele>
        <time>2008-05-31T12:29:19+02:00</time>
      </trkpt>
      <trkpt lat="41.5885" lon="9.32131">
        <ele>168</ele>
        <time>2008-05-31T12:29:25+02:00</time>
      </trkpt>
      <trkpt lat="41.58851" lon="9.32134">
        <ele>168</ele>
        <time>2008-05-31T12:29:29+02:00</time>
      </trkpt>
      <trkpt lat="41.58853" lon="9.3214">
        <ele>166</ele>
        <time>2008-05-31T12:29:36+02:00</time>
      </trkpt>
      <trkpt lat="41.58858" lon="9.32144">
        <ele>166</ele>
        <time>2008-05-31T12:29:42+02:00</time>
      </trkpt>
      <trkpt lat="41.58858" lon="9.32148">
        <ele>165</ele>
        <time>2008-05-31T12:29:44+02:00</time>
      </trkpt>
      <trkpt lat="41.58856" lon="9.32152">
        <ele>164</ele>
        <time>2008-05-31T12:29:48+02:00</time>
      </trkpt>
      <trkpt lat="41.58858" lon="9.32157">
        <ele>164</ele>
        <time>2008-05-31T12:29:55+02:00</time>
      </trkpt>
      <trkpt lat="41.58862" lon="9.32163">
        <ele>164</ele>
        <time>2008-05-31T12:30:00+02:00</time>
      </trkpt>
      <trkpt lat="41.58863" lon="9.32164">
        <ele>164</ele>
        <time>2008-05-31T12:30:01+02:00</time>
      </trkpt>
      <trkpt lat="41.58869" lon="9.32171">
        <ele>150</ele>
        <time>2008-05-31T12:30:05+02:00</time>
      </trkpt>
      <trkpt lat="41.58872" lon="9.32176">
        <ele>149</ele>
        <time>2008-05-31T12:30:10+02:00</time>
      </trkpt>
      <trkpt lat="41.58873" lon="9.3218">
        <ele>149</ele>
        <time>2008-05-31T12:30:12+02:00</time>
      </trkpt>
      <trkpt lat="41.58875" lon="9.32184">
        <ele>149</ele>
        <time>2008-05-31T12:30:16+02:00</time>
      </trkpt>
      <trkpt lat="41.58878" lon="9.32186">
        <ele>149</ele>
        <time>2008-05-31T12:30:22+02:00</time>
      </trkpt>
      <trkpt lat="41.5888" lon="9.32194">
        <ele>148</ele>
        <time>2008-05-31T12:30:29+02:00</time>
      </trkpt>
      <trkpt lat="41.58878" lon="9.322">
        <ele>147</ele>
        <time>2008-05-31T12:30:36+02:00</time>
      </trkpt>
      <trkpt lat="41.58879" lon="9.32202">
        <ele>147</ele>
        <time>2008-05-31T12:30:42+02:00</time>
      </trkpt>
      <trkpt lat="41.58885" lon="9.32205">
        <ele>147</ele>
        <time>2008-05-31T12:30:47+02:00</time>
      </trkpt>
      <trkpt lat="41.58891" lon="9.32212">
        <ele>145</ele>
        <time>2008-05-31T12:30:52+02:00</time>
      </trkpt>
      <trkpt lat="41.58903" lon="9.32224">
        <ele>142</ele>
        <time>2008-05-31T12:30:58+02:00</time>
      </trkpt>
      <trkpt lat="41.58914" lon="9.32231">
        <ele>138</ele>
        <time>2008-05-31T12:31:03+02:00</time>
      </trkpt>
      <trkpt lat="41.5892" lon="9.32235">
        <ele>138</ele>
        <time>2008-05-31T12:31:07+02:00</time>
      </trkpt>
      <trkpt lat="41.5893" lon="9.32246">
        <ele>137</ele>
        <time>2008-05-31T12:31:12+02:00</time>
      </trkpt>
      <trkpt lat="41.58931" lon="9.32248">
        <ele>138</ele>
        <time>2008-05-31T12:31:13+02:00</time>
      </trkpt>
      <trkpt lat="41.58944" lon="9.32257">
        <ele>127</ele>
        <time>2008-05-31T12:31:19+02:00</time>
      </trkpt>
      <trkpt lat="41.58954" lon="9.32267">
        <ele>127</ele>
        <time>2008-05-31T12:31:26+02:00</time>
      </trkpt>
      <trkpt lat="41.58965" lon="9.3228">
        <ele>126</ele>
        <time>2008-05-31T12:31:32+02:00</time>
      </trkpt>
      <trkpt lat="41.58977" lon="9.32295">
        <ele>125</ele>
        <time>2008-05-31T12:31:37+02:00</time>
      </trkpt>
      <trkpt lat="41.58987" lon="9.32306">
        <ele>122</ele>
        <time>2008-05-31T12:31:42+02:00</time>
      </trkpt>
      <trkpt lat="41.58997" lon="9.32314">
        <ele>119</ele>
        <time>2008-05-31T12:31:47+02:00</time>
      </trkpt>
      <trkpt lat="41.59009" lon="9.32319">
        <ele>118</ele>
        <time>2008-05-31T12:31:52+02:00</time>
      </trkpt>
      <trkpt lat="41.59015" lon="9.32322">
        <ele>119</ele>
        <time>2008-05-31T12:31:55+02:00</time>
      </trkpt>
      <trkpt lat="41.59021" lon="9.3233">
        <ele>118</ele>
        <time>2008-05-31T12:31:59+02:00</time>
      </trkpt>
      <trkpt lat="41.59033" lon="9.3234">
        <ele>106</ele>
        <time>2008-05-31T12:32:04+02:00</time>
      </trkpt>
      <trkpt lat="41.59051" lon="9.32344">
        <ele>104</ele>
        <time>2008-05-31T12:32:10+02:00</time>
      </trkpt>
      <trkpt lat="41.59064" lon="9.32346">
        <ele>103</ele>
        <time>2008-05-31T12:32:14+02:00</time>
      </trkpt>
      <trkpt lat="41.59071" lon="9.3235">
        <ele>103</ele>
        <time>2008-05-31T12:32:18+02:00</time>
      </trkpt>
      <trkpt lat="41.59081" lon="9.32353">
        <ele>103</ele>
        <time>2008-05-31T12:32:23+02:00</time>
      </trkpt>
      <trkpt lat="41.59089" lon="9.32353">
        <ele>94</ele>
        <time>2008-05-31T12:32:27+02:00</time>
      </trkpt>
      <trkpt lat="41.59102" lon="9.32361">
        <ele>91</ele>
        <time>2008-05-31T12:32:34+02:00</time>
      </trkpt>
      <trkpt lat="41.59104" lon="9.32361">
        <ele>91</ele>
        <time>2008-05-31T12:32:36+02:00</time>
      </trkpt>
      <trkpt lat="41.59116" lon="9.32363">
        <ele>89</ele>
        <time>2008-05-31T12:32:41+02:00</time>
      </trkpt>
      <trkpt lat="41.59134" lon="9.32358">
        <ele>88</ele>
        <time>2008-05-31T12:32:48+02:00</time>
      </trkpt>
      <trkpt lat="41.59136" lon="9.32358">
        <ele>88</ele>
        <time>2008-05-31T12:32:49+02:00</time>
      </trkpt>
      <trkpt lat="41.59143" lon="9.3236">
        <ele>87</ele>
        <time>2008-05-31T12:32:53+02:00</time>
      </trkpt>
      <trkpt lat="41.59156" lon="9.3236">
        <ele>87</ele>
        <time>2008-05-31T12:32:59+02:00</time>
      </trkpt>
      <trkpt lat="41.5917" lon="9.32362">
        <ele>80</ele>
        <time>2008-05-31T12:33:04+02:00</time>
      </trkpt>
      <trkpt lat="41.59182" lon="9.32363">
        <ele>80</ele>
        <time>2008-05-31T12:33:09+02:00</time>
      </trkpt>
      <trkpt lat="41.59192" lon="9.32362">
        <ele>79</ele>
        <time>2008-05-31T12:33:13+02:00</time>
      </trkpt>
      <trkpt lat="41.59195" lon="9.32361">
        <ele>79</ele>
        <time>2008-05-31T12:33:14+02:00</time>
      </trkpt>
      <trkpt lat="41.59206" lon="9.32358">
        <ele>79</ele>
        <time>2008-05-31T12:33:21+02:00</time>
      </trkpt>
      <trkpt lat="41.5921" lon="9.32358">
        <ele>79</ele>
        <time>2008-05-31T12:33:25+02:00</time>
      </trkpt>
      <trkpt lat="41.59214" lon="9.32359">
        <ele>79</ele>
        <time>2008-05-31T12:33:31+02:00</time>
      </trkpt>
      <trkpt lat="41.5922" lon="9.32359">
        <ele>79</ele>
        <time>2008-05-31T12:33:36+02:00</time>
      </trkpt>
      <trkpt lat="41.59235" lon="9.32364">
        <ele>78</ele>
        <time>2008-05-31T12:33:43+02:00</time>
      </trkpt>
      <trkpt lat="41.59247" lon="9.32362">
        <ele>79</ele>
        <time>2008-05-31T12:33:48+02:00</time>
      </trkpt>
      <trkpt lat="41.59259" lon="9.32363">
        <ele>74</ele>
        <time>2008-05-31T12:33:53+02:00</time>
      </trkpt>
      <trkpt lat="41.5927" lon="9.3236">
        <ele>74</ele>
        <time>2008-05-31T12:33:58+02:00</time>
      </trkpt>
      <trkpt lat="41.59282" lon="9.32357">
        <ele>73</ele>
        <time>2008-05-31T12:34:03+02:00</time>
      </trkpt>
      <trkpt lat="41.59298" lon="9.32352">
        <ele>72</ele>
        <time>2008-05-31T12:34:08+02:00</time>
      </trkpt>
      <trkpt lat="41.59302" lon="9.32347">
        <ele>72</ele>
        <time>2008-05-31T12:34:10+02:00</time>
      </trkpt>
      <trkpt lat="41.59315" lon="9.32343">
        <ele>72</ele>
        <time>2008-05-31T12:34:15+02:00</time>
      </trkpt>
      <trkpt lat="41.59322" lon="9.32332">
        <ele>80</ele>
        <time>2008-05-31T12:34:19+02:00</time>
      </trkpt>
      <trkpt lat="41.59336" lon="9.32324">
        <ele>74</ele>
        <time>2008-05-31T12:34:24+02:00</time>
      </trkpt>
      <trkpt lat="41.59339" lon="9.32323">
        <ele>75</ele>
        <time>2008-05-31T12:34:25+02:00</time>
      </trkpt>
      <trkpt lat="41.5935" lon="9.32324">
        <ele>75</ele>
        <time>2008-05-31T12:34:30+02:00</time>
      </trkpt>
      <trkpt lat="41.59363" lon="9.32319">
        <ele>75</ele>
        <time>2008-05-31T12:34:35+02:00</time>
      </trkpt>
      <trkpt lat="41.59376" lon="9.32312">
        <ele>75</ele>
        <time>2008-05-31T12:34:40+02:00</time>
      </trkpt>
      <trkpt lat="41.59394" lon="9.32309">
        <ele>73</ele>
        <time>2008-05-31T12:34:46+02:00</time>
      </trkpt>
      <trkpt lat="41.59405" lon="9.32306">
        <ele>73</ele>
        <time>2008-05-31T12:34:50+02:00</time>
      </trkpt>
      <trkpt lat="41.59411" lon="9.32308">
        <ele>72</ele>
        <time>2008-05-31T12:34:53+02:00</time>
      </trkpt>
      <trkpt lat="41.59426" lon="9.32308">
        <ele>66</ele>
        <time>2008-05-31T12:34:59+02:00</time>
      </trkpt>
      <trkpt lat="41.59436" lon="9.32302">
        <ele>66</ele>
        <time>2008-05-31T12:35:04+02:00</time>
      </trkpt>
      <trkpt lat="41.59441" lon="9.32304">
        <ele>66</ele>
        <time>2008-05-31T12:35:08+02:00</time>
      </trkpt>
      <trkpt lat="41.59444" lon="9.32306">
        <ele>66</ele>
        <time>2008-05-31T12:35:10+02:00</time>
      </trkpt>
      <trkpt lat="41.59452" lon="9.32303">
        <ele>66</ele>
        <time>2008-05-31T12:35:17+02:00</time>
      </trkpt>
      <trkpt lat="41.59455" lon="9.32301">
        <ele>66</ele>
        <time>2008-05-31T12:35:19+02:00</time>
      </trkpt>
      <trkpt lat="41.59464" lon="9.32303">
        <ele>65</ele>
        <time>2008-05-31T12:35:25+02:00</time>
      </trkpt>
      <trkpt lat="41.59472" lon="9.32298">
        <ele>65</ele>
        <time>2008-05-31T12:35:29+02:00</time>
      </trkpt>
      <trkpt lat="41.5948" lon="9.32303">
        <ele>64</ele>
        <time>2008-05-31T12:35:33+02:00</time>
      </trkpt>
      <trkpt lat="41.59492" lon="9.32303">
        <ele>63</ele>
        <time>2008-05-31T12:35:37+02:00</time>
      </trkpt>
      <trkpt lat="41.59499" lon="9.32308">
        <ele>62</ele>
        <time>2008-05-31T12:35:39+02:00</time>
      </trkpt>
      <trkpt lat="41.59513" lon="9.32318">
        <ele>61</ele>
        <time>2008-05-31T12:35:44+02:00</time>
      </trkpt>
      <trkpt lat="41.59528" lon="9.32322">
        <ele>62</ele>
        <time>2008-05-31T12:35:48+02:00</time>
      </trkpt>
      <trkpt lat="41.5954" lon="9.32324">
        <ele>64</ele>
        <time>2008-05-31T12:35:53+02:00</time>
      </trkpt>
      <trkpt lat="41.59541" lon="9.32324">
        <ele>64</ele>
        <time>2008-05-31T12:35:54+02:00</time>
      </trkpt>
      <trkpt lat="41.59541" lon="9.32327">
        <ele>64</ele>
        <time>2008-05-31T12:35:59+02:00</time>
      </trkpt>
      <trkpt lat="41.5954" lon="9.32326">
        <ele>64</ele>
        <time>2008-05-31T12:36:04+02:00</time>
      </trkpt>
      <trkpt lat="41.5954" lon="9.32326">
        <ele>64</ele>
        <time>2008-05-31T12:36:13+02:00</time>
      </trkpt>
      <trkpt lat="41.5954" lon="9.32325">
        <ele>64</ele>
        <time>2008-05-31T12:36:20+02:00</time>
      </trkpt>
      <trkpt lat="41.5954" lon="9.32326">
        <ele>64</ele>
        <time>2008-05-31T12:36:25+02:00</time>
      </trkpt>
      <trkpt lat="41.59537" lon="9.32334">
        <ele>57</ele>
        <time>2008-05-31T12:36:31+02:00</time>
      </trkpt>
      <trkpt lat="41.59537" lon="9.32335">
        <ele>56</ele>
        <time>2008-05-31T12:36:37+02:00</time>
      </trkpt>
      <trkpt lat="41.59537" lon="9.32335">
        <ele>57</ele>
        <time>2008-05-31T12:36:49+02:00</time>
      </trkpt>
      <trkpt lat="41.59538" lon="9.32335">
        <ele>57</ele>
        <time>2008-05-31T12:37:17+02:00</time>
      </trkpt>
      <trkpt lat="41.59538" lon="9.32334">
        <ele>57</ele>
        <time>2008-05-31T12:37:24+02:00</time>
      </trkpt>
      <trkpt lat="41.59538" lon="9.32333">
        <ele>63</ele>
        <time>2008-05-31T12:37:35+02:00</time>
      </trkpt>
      <trkpt lat="41.59538" lon="9.32333">
        <ele>63</ele>
        <time>2008-05-31T12:37:47+02:00</time>
      </trkpt>
      <trkpt lat="41.59538" lon="9.32335">
        <ele>57</ele>
        <time>2008-05-31T12:38:19+02:00</time>
      </trkpt>
      <trkpt lat="41.59537" lon="9.32335">
        <ele>57</ele>
        <time>2008-05-31T12:38:30+02:00</time>
      </trkpt>
      <trkpt lat="41.59539" lon="9.32334">
        <ele>57</ele>
        <time>2008-05-31T12:38:57+02:00</time>
      </trkpt>
      <trkpt lat="41.59535" lon="9.32334">
        <ele>56</ele>
        <time>2008-05-31T12:39:04+02:00</time>
      </trkpt>
      <trkpt lat="41.59533" lon="9.32334">
        <ele>56</ele>
        <time>2008-05-31T12:39:20+02:00</time>
      </trkpt>
      <trkpt lat="41.59536" lon="9.32333">
        <ele>56</ele>
        <time>2008-05-31T12:39:36+02:00</time>
      </trkpt>
      <trkpt lat="41.59536" lon="9.32334">
        <ele>56</ele>
        <time>2008-05-31T12:39:45+02:00</time>
      </trkpt>
      <trkpt lat="41.59536" lon="9.32337">
        <ele>56</ele>
        <time>2008-05-31T12:39:51+02:00</time>
      </trkpt>
      <trkpt lat="41.59536" lon="9.32337">
        <ele>56</ele>
        <time>2008-05-31T12:40:00+02:00</time>
      </trkpt>
      <trkpt lat="41.59536" lon="9.32336">
        <ele>56</ele>
        <time>2008-05-31T12:40:16+02:00</time>
      </trkpt>
      <trkpt lat="41.59538" lon="9.32334">
        <ele>57</ele>
        <time>2008-05-31T12:40:23+02:00</time>
      </trkpt>
      <trkpt lat="41.59539" lon="9.32335">
        <ele>57</ele>
        <time>2008-05-31T12:40:31+02:00</time>
      </trkpt>
      <trkpt lat="41.59539" lon="9.32335">
        <ele>57</ele>
        <time>2008-05-31T12:40:38+02:00</time>
      </trkpt>
      <trkpt lat="41.59539" lon="9.32333">
        <ele>63</ele>
        <time>2008-05-31T12:41:24+02:00</time>
      </trkpt>
      <trkpt lat="41.59543" lon="9.32332">
        <ele>64</ele>
        <time>2008-05-31T12:41:29+02:00</time>
      </trkpt>
      <trkpt lat="41.59544" lon="9.32331">
        <ele>64</ele>
        <time>2008-05-31T12:41:35+02:00</time>
      </trkpt>
      <trkpt lat="41.59544" lon="9.3233">
        <ele>64</ele>
        <time>2008-05-31T12:41:43+02:00</time>
      </trkpt>
      <trkpt lat="41.59544" lon="9.3233">
        <ele>64</ele>
        <time>2008-05-31T12:41:48+02:00</time>
      </trkpt>
      <trkpt lat="41.59546" lon="9.32331">
        <ele>64</ele>
        <time>2008-05-31T12:42:18+02:00</time>
      </trkpt>
      <trkpt lat="41.59543" lon="9.32328">
        <ele>64</ele>
        <time>2008-05-31T12:42:27+02:00</time>
      </trkpt>
      <trkpt lat="41.59541" lon="9.32325">
        <ele>64</ele>
        <time>2008-05-31T12:42:33+02:00</time>
      </trkpt>
      <trkpt lat="41.59541" lon="9.32325">
        <ele>64</ele>
        <time>2008-05-31T12:42:44+02:00</time>
      </trkpt>
      <trkpt lat="41.59541" lon="9.32324">
        <ele>64</ele>
        <time>2008-05-31T12:42:52+02:00</time>
      </trkpt>
      <trkpt lat="41.59541" lon="9.32323">
        <ele>64</ele>
        <time>2008-05-31T12:43:08+02:00</time>
      </trkpt>
      <trkpt lat="41.59541" lon="9.32323">
        <ele>64</ele>
        <time>2008-05-31T12:43:11+02:00</time>
      </trkpt>
      <trkpt lat="41.59541" lon="9.32323">
        <ele>64</ele>
        <time>2008-05-31T12:43:14+02:00</time>
      </trkpt>
      <trkpt lat="41.59541" lon="9.32322">
        <ele>64</ele>
        <time>2008-05-31T12:43:16+02:00</time>
      </trkpt>
      <trkpt lat="41.59544" lon="9.32326">
        <ele>64</ele>
        <time>2008-05-31T12:43:20+02:00</time>
      </trkpt>
      <trkpt lat="41.59546" lon="9.32338">
        <ele>57</ele>
        <time>2008-05-31T12:43:25+02:00</time>
      </trkpt>
      <trkpt lat="41.59553" lon="9.32355">
        <ele>57</ele>
        <time>2008-05-31T12:43:32+02:00</time>
      </trkpt>
      <trkpt lat="41.59557" lon="9.32373">
        <ele>57</ele>
        <time>2008-05-31T12:43:37+02:00</time>
      </trkpt>
      <trkpt lat="41.59563" lon="9.32401">
        <ele>57</ele>
        <time>2008-05-31T12:43:45+02:00</time>
      </trkpt>
      <trkpt lat="41.59569" lon="9.3242">
        <ele>54</ele>
        <time>2008-05-31T12:43:51+02:00</time>
      </trkpt>
      <trkpt lat="41.59576" lon="9.32435">
        <ele>53</ele>
        <time>2008-05-31T12:43:56+02:00</time>
      </trkpt>
      <trkpt lat="41.59592" lon="9.32459">
        <ele>59</ele>
        <time>2008-05-31T12:44:04+02:00</time>
      </trkpt>
      <trkpt lat="41.59604" lon="9.32472">
        <ele>59</ele>
        <time>2008-05-31T12:44:09+02:00</time>
      </trkpt>
      <trkpt lat="41.59629" lon="9.32488">
        <ele>60</ele>
        <time>2008-05-31T12:44:18+02:00</time>
      </trkpt>
      <trkpt lat="41.59649" lon="9.32495">
        <ele>61</ele>
        <time>2008-05-31T12:44:25+02:00</time>
      </trkpt>
      <trkpt lat="41.59732" lon="9.32486">
        <ele>60</ele>
        <time>2008-05-31T12:44:54+02:00</time>
      </trkpt>
      <trkpt lat="41.59744" lon="9.32477">
        <ele>61</ele>
        <time>2008-05-31T12:44:59+02:00</time>
      </trkpt>
      <trkpt lat="41.59758" lon="9.32459">
        <ele>56</ele>
        <time>2008-05-31T12:45:10+02:00</time>
      </trkpt>
      <trkpt lat="41.59762" lon="9.32453">
        <ele>57</ele>
        <time>2008-05-31T12:45:16+02:00</time>
      </trkpt>
      <trkpt lat="41.59772" lon="9.32437">
        <ele>58</ele>
        <time>2008-05-31T12:45:19+02:00</time>
      </trkpt>
      <trkpt lat="41.59785" lon="9.32416">
        <ele>63</ele>
        <time>2008-05-31T12:45:22+02:00</time>
      </trkpt>
      <trkpt lat="41.598" lon="9.32397">
        <ele>62</ele>
        <time>2008-05-31T12:45:26+02:00</time>
      </trkpt>
      <trkpt lat="41.59807" lon="9.32401">
        <ele>62</ele>
        <time>2008-05-31T12:45:28+02:00</time>
      </trkpt>
      <trkpt lat="41.59807" lon="9.32416">
        <ele>61</ele>
        <time>2008-05-31T12:45:30+02:00</time>
      </trkpt>
      <trkpt lat="41.59801" lon="9.32447">
        <ele>55</ele>
        <time>2008-05-31T12:45:33+02:00</time>
      </trkpt>
      <trkpt lat="41.59797" lon="9.32518">
        <ele>41</ele>
        <time>2008-05-31T12:45:39+02:00</time>
      </trkpt>
      <trkpt lat="41.59782" lon="9.32563">
        <ele>38</ele>
        <time>2008-05-31T12:45:43+02:00</time>
      </trkpt>
      <trkpt lat="41.59743" lon="9.32605">
        <ele>31</ele>
        <time>2008-05-31T12:45:48+02:00</time>
      </trkpt>
      <trkpt lat="41.59714" lon="9.32615">
        <ele>29</ele>
        <time>2008-05-31T12:45:51+02:00</time>
      </trkpt>
      <trkpt lat="41.59696" lon="9.32632">
        <ele>27</ele>
        <time>2008-05-31T12:45:54+02:00</time>
      </trkpt>
      <trkpt lat="41.59696" lon="9.32654">
        <ele>25</ele>
        <time>2008-05-31T12:45:56+02:00</time>
      </trkpt>
      <trkpt lat="41.59706" lon="9.32677">
        <ele>18</ele>
        <time>2008-05-31T12:45:58+02:00</time>
      </trkpt>
      <trkpt lat="41.59732" lon="9.32729">
        <ele>16</ele>
        <time>2008-05-31T12:46:02+02:00</time>
      </trkpt>
      <trkpt lat="41.59757" lon="9.32749">
        <ele>13</ele>
        <time>2008-05-31T12:46:05+02:00</time>
      </trkpt>
      <trkpt lat="41.59785" lon="9.32749">
        <ele>13</ele>
        <time>2008-05-31T12:46:08+02:00</time>
      </trkpt>
      <trkpt lat="41.59803" lon="9.32753">
        <ele>12</ele>
        <time>2008-05-31T12:46:10+02:00</time>
      </trkpt>
      <trkpt lat="41.59834" lon="9.32769">
        <ele>11</ele>
        <time>2008-05-31T12:46:14+02:00</time>
      </trkpt>
      <trkpt lat="41.59874" lon="9.32815">
        <ele>10</ele>
        <time>2008-05-31T12:46:21+02:00</time>
      </trkpt>
      <trkpt lat="41.59887" lon="9.32826">
        <ele>10</ele>
        <time>2008-05-31T12:46:23+02:00</time>
      </trkpt>
      <trkpt lat="41.59924" lon="9.32841">
        <ele>9</ele>
        <time>2008-05-31T12:46:28+02:00</time>
      </trkpt>
      <trkpt lat="41.59945" lon="9.32848">
        <ele>10</ele>
        <time>2008-05-31T12:46:31+02:00</time>
      </trkpt>
      <trkpt lat="41.59965" lon="9.32858">
        <ele>10</ele>
        <time>2008-05-31T12:46:34+02:00</time>
      </trkpt>
      <trkpt lat="41.60006" lon="9.32864">
        <ele>10</ele>
        <time>2008-05-31T12:46:40+02:00</time>
      </trkpt>
      <trkpt lat="41.60055" lon="9.32886">
        <ele>10</ele>
        <time>2008-05-31T12:46:48+02:00</time>
      </trkpt>
      <trkpt lat="41.60082" lon="9.32898">
        <ele>10</ele>
        <time>2008-05-31T12:46:53+02:00</time>
      </trkpt>
      <trkpt lat="41.6013" lon="9.32928">
        <ele>9</ele>
        <time>2008-05-31T12:47:01+02:00</time>
      </trkpt>
      <trkpt lat="41.60142" lon="9.32938">
        <ele>8</ele>
        <time>2008-05-31T12:47:03+02:00</time>
      </trkpt>
      <trkpt lat="41.60165" lon="9.32971">
        <ele>8</ele>
        <time>2008-05-31T12:47:08+02:00</time>
      </trkpt>
      <trkpt lat="41.60174" lon="9.32992">
        <ele>6</ele>
        <time>2008-05-31T12:47:12+02:00</time>
      </trkpt>
      <trkpt lat="41.60181" lon="9.32994">
        <ele>5</ele>
        <time>2008-05-31T12:47:17+02:00</time>
      </trkpt>
      <trkpt lat="41.60193" lon="9.33">
        <ele>7</ele>
        <time>2008-05-31T13:36:51+02:00</time>
      </trkpt>
      <trkpt lat="41.60189" lon="9.32992">
        <ele>5</ele>
        <time>2008-05-31T13:36:58+02:00</time>
      </trkpt>
      <trkpt lat="41.60194" lon="9.32994">
        <ele>5</ele>
        <time>2008-05-31T13:37:15+02:00</time>
      </trkpt>
      <trkpt lat="41.60194" lon="9.32991">
        <ele>5</ele>
        <time>2008-05-31T13:37:16+02:00</time>
      </trkpt>
      <trkpt lat="41.60193" lon="9.32985">
        <ele>5</ele>
        <time>2008-05-31T13:37:22+02:00</time>
      </trkpt>
      <trkpt lat="41.60196" lon="9.32986">
        <ele>5</ele>
        <time>2008-05-31T13:37:25+02:00</time>
      </trkpt>
      <trkpt lat="41.60196" lon="9.32996">
        <ele>5</ele>
        <time>2008-05-31T13:37:31+02:00</time>
      </trkpt>
      <trkpt lat="41.60194" lon="9.33008">
        <ele>7</ele>
        <time>2008-05-31T13:37:37+02:00</time>
      </trkpt>
      <trkpt lat="41.60192" lon="9.33012">
        <ele>7</ele>
        <time>2008-05-31T13:37:42+02:00</time>
      </trkpt>
      <trkpt lat="41.60195" lon="9.33002">
        <ele>7</ele>
        <time>2008-05-31T13:37:55+02:00</time>
      </trkpt>
      <trkpt lat="41.60198" lon="9.33006">
        <ele>7</ele>
        <time>2008-05-31T13:38:00+02:00</time>
      </trkpt>
      <trkpt lat="41.60196" lon="9.33005">
        <ele>7</ele>
        <time>2008-05-31T13:38:01+02:00</time>
      </trkpt>
      <trkpt lat="41.60197" lon="9.33005">
        <ele>7</ele>
        <time>2008-05-31T13:38:07+02:00</time>
      </trkpt>
      <trkpt lat="41.60199" lon="9.33001">
        <ele>7</ele>
        <time>2008-05-31T13:38:12+02:00</time>
      </trkpt>
      <trkpt lat="41.6019" lon="9.33001">
        <ele>7</ele>
        <time>2008-05-31T13:39:11+02:00</time>
      </trkpt>
      <trkpt lat="41.60189" lon="9.32991">
        <ele>5</ele>
        <time>2008-05-31T13:39:17+02:00</time>
      </trkpt>
      <trkpt lat="41.60194" lon="9.33004">
        <ele>7</ele>
        <time>2008-05-31T13:39:30+02:00</time>
      </trkpt>
      <trkpt lat="41.60201" lon="9.33005">
        <ele>7</ele>
        <time>2008-05-31T13:39:36+02:00</time>
      </trkpt>
      <trkpt lat="41.60199" lon="9.33002">
        <ele>7</ele>
        <time>2008-05-31T13:39:41+02:00</time>
      </trkpt>
      <trkpt lat="41.60192" lon="9.33002">
        <ele>7</ele>
        <time>2008-05-31T13:39:47+02:00</time>
      </trkpt>
      <trkpt lat="41.60178" lon="9.33025">
        <ele>7</ele>
        <time>2008-05-31T13:43:13+02:00</time>
      </trkpt>
      <trkpt lat="41.60165" lon="9.33041">
        <ele>15</ele>
        <time>2008-05-31T13:43:17+02:00</time>
      </trkpt>
      <trkpt lat="41.6015" lon="9.33062">
        <ele>16</ele>
        <time>2008-05-31T13:43:25+02:00</time>
      </trkpt>
      <trkpt lat="41.6014" lon="9.3308">
        <ele>17</ele>
        <time>2008-05-31T13:43:28+02:00</time>
      </trkpt>
      <trkpt lat="41.6015" lon="9.33061">
        <ele>16</ele>
        <time>2008-05-31T13:43:33+02:00</time>
      </trkpt>
      <trkpt lat="41.6018" lon="9.33024">
        <ele>7</ele>
        <time>2008-05-31T13:43:38+02:00</time>
      </trkpt>
      <trkpt lat="41.60211" lon="9.32986">
        <ele>5</ele>
        <time>2008-05-31T13:43:44+02:00</time>
      </trkpt>
      <trkpt lat="41.60226" lon="9.32963">
        <ele>4</ele>
        <time>2008-05-31T13:43:50+02:00</time>
      </trkpt>
      <trkpt lat="41.60219" lon="9.3297">
        <ele>4</ele>
        <time>2008-05-31T13:43:54+02:00</time>
      </trkpt>
      <trkpt lat="41.6019" lon="9.33024">
        <ele>7</ele>
        <time>2008-05-31T13:45:13+02:00</time>
      </trkpt>
      <trkpt lat="41.60187" lon="9.33035">
        <ele>8</ele>
        <time>2008-05-31T13:45:25+02:00</time>
      </trkpt>
      <trkpt lat="41.60202" lon="9.33">
        <ele>5</ele>
        <time>2008-05-31T13:46:30+02:00</time>
      </trkpt>
      <trkpt lat="41.60197" lon="9.32999">
        <ele>5</ele>
        <time>2008-05-31T13:46:37+02:00</time>
      </trkpt>
      <trkpt lat="41.60196" lon="9.33001">
        <ele>7</ele>
        <time>2008-05-31T13:46:42+02:00</time>
      </trkpt>
      <trkpt lat="41.60195" lon="9.33001">
        <ele>7</ele>
        <time>2008-05-31T13:46:47+02:00</time>
      </trkpt>
      <trkpt lat="41.60194" lon="9.33002">
        <ele>7</ele>
        <time>2008-05-31T13:46:57+02:00</time>
      </trkpt>
      <trkpt lat="41.60194" lon="9.33002">
        <ele>7</ele>
        <time>2008-05-31T13:47:06+02:00</time>
      </trkpt>
      <trkpt lat="41.60194" lon="9.33002">
        <ele>7</ele>
        <time>2008-05-31T13:47:12+02:00</time>
      </trkpt>
      <trkpt lat="41.60194" lon="9.33004">
        <ele>7</ele>
        <time>2008-05-31T13:47:24+02:00</time>
      </trkpt>
      <trkpt lat="41.60193" lon="9.33005">
        <ele>7</ele>
        <time>2008-05-31T13:47:32+02:00</time>
      </trkpt>
      <trkpt lat="41.60192" lon="9.33005">
        <ele>7</ele>
        <time>2008-05-31T13:47:42+02:00</time>
      </trkpt>
      <trkpt lat="41.60191" lon="9.33007">
        <ele>7</ele>
        <time>2008-05-31T13:47:51+02:00</time>
      </trkpt>
      <trkpt lat="41.6019" lon="9.33007">
        <ele>7</ele>
        <time>2008-05-31T13:48:02+02:00</time>
      </trkpt>
      <trkpt lat="41.60189" lon="9.33001">
        <ele>7</ele>
        <time>2008-05-31T13:48:10+02:00</time>
      </trkpt>
      <trkpt lat="41.60187" lon="9.33">
        <ele>7</ele>
        <time>2008-05-31T13:48:18+02:00</time>
      </trkpt>
      <trkpt lat="41.60186" lon="9.33">
        <ele>5</ele>
        <time>2008-05-31T13:48:22+02:00</time>
      </trkpt>
      <trkpt lat="41.60186" lon="9.33">
        <ele>7</ele>
        <time>2008-05-31T13:48:28+02:00</time>
      </trkpt>
      <trkpt lat="41.60187" lon="9.33">
        <ele>5</ele>
        <time>2008-05-31T13:48:37+02:00</time>
      </trkpt>
      <trkpt lat="41.60188" lon="9.33">
        <ele>7</ele>
        <time>2008-05-31T13:48:53+02:00</time>
      </trkpt>
      <trkpt lat="41.60188" lon="9.33">
        <ele>7</ele>
        <time>2008-05-31T13:49:02+02:00</time>
      </trkpt>
      <trkpt lat="41.60186" lon="9.33">
        <ele>5</ele>
        <time>2008-05-31T13:49:07+02:00</time>
      </trkpt>
      <trkpt lat="41.60184" lon="9.32997">
        <ele>5</ele>
        <time>2008-05-31T13:49:10+02:00</time>
      </trkpt>
      <trkpt lat="41.60181" lon="9.32991">
        <ele>5</ele>
        <time>2008-05-31T13:49:16+02:00</time>
      </trkpt>
      <trkpt lat="41.60178" lon="9.32992">
        <ele>5</ele>
        <time>2008-05-31T13:49:21+02:00</time>
      </trkpt>
      <trkpt lat="41.60173" lon="9.3299">
        <ele>5</ele>
        <time>2008-05-31T13:49:26+02:00</time>
      </trkpt>
      <trkpt lat="41.60173" lon="9.32985">
        <ele>5</ele>
        <time>2008-05-31T13:49:31+02:00</time>
      </trkpt>
      <trkpt lat="41.60172" lon="9.32982">
        <ele>5</ele>
        <time>2008-05-31T13:49:36+02:00</time>
      </trkpt>
      <trkpt lat="41.60173" lon="9.32983">
        <ele>5</ele>
        <time>2008-05-31T13:49:42+02:00</time>
      </trkpt>
      <trkpt lat="41.60173" lon="9.32984">
        <ele>5</ele>
        <time>2008-05-31T13:49:50+02:00</time>
      </trkpt>
      <trkpt lat="41.60172" lon="9.32984">
        <ele>5</ele>
        <time>2008-05-31T13:49:56+02:00</time>
      </trkpt>
      <trkpt lat="41.60172" lon="9.32983">
        <ele>5</ele>
        <time>2008-05-31T13:50:02+02:00</time>
      </trkpt>
      <trkpt lat="41.60171" lon="9.32985">
        <ele>5</ele>
        <time>2008-05-31T13:50:07+02:00</time>
      </trkpt>
      <trkpt lat="41.60171" lon="9.32985">
        <ele>5</ele>
        <time>2008-05-31T13:50:09+02:00</time>
      </trkpt>
      <trkpt lat="41.60171" lon="9.32985">
        <ele>5</ele>
        <time>2008-05-31T13:50:15+02:00</time>
      </trkpt>
      <trkpt lat="41.60171" lon="9.32986">
        <ele>5</ele>
        <time>2008-05-31T13:50:17+02:00</time>
      </trkpt>
      <trkpt lat="41.60173" lon="9.32995">
        <ele>6</ele>
        <time>2008-05-31T13:50:24+02:00</time>
      </trkpt>
      <trkpt lat="41.60176" lon="9.32994">
        <ele>6</ele>
        <time>2008-05-31T13:50:29+02:00</time>
      </trkpt>
      <trkpt lat="41.60181" lon="9.32995">
        <ele>5</ele>
        <time>2008-05-31T13:50:37+02:00</time>
      </trkpt>
      <trkpt lat="41.60184" lon="9.33">
        <ele>5</ele>
        <time>2008-05-31T13:50:43+02:00</time>
      </trkpt>
      <trkpt lat="41.60185" lon="9.33002">
        <ele>7</ele>
        <time>2008-05-31T13:50:53+02:00</time>
      </trkpt>
      <trkpt lat="41.60185" lon="9.33003">
        <ele>7</ele>
        <time>2008-05-31T13:50:59+02:00</time>
      </trkpt>
      <trkpt lat="41.60185" lon="9.33003">
        <ele>7</ele>
        <time>2008-05-31T13:51:15+02:00</time>
      </trkpt>
      <trkpt lat="41.60185" lon="9.33002">
        <ele>7</ele>
        <time>2008-05-31T13:51:22+02:00</time>
      </trkpt>
      <trkpt lat="41.60186" lon="9.33002">
        <ele>7</ele>
        <time>2008-05-31T13:51:31+02:00</time>
      </trkpt>
      <trkpt lat="41.60186" lon="9.33002">
        <ele>7</ele>
        <time>2008-05-31T13:51:43+02:00</time>
      </trkpt>
      <trkpt lat="41.60186" lon="9.33002">
        <ele>7</ele>
        <time>2008-05-31T13:52:05+02:00</time>
      </trkpt>
      <trkpt lat="41.60185" lon="9.33002">
        <ele>7</ele>
        <time>2008-05-31T13:52:20+02:00</time>
      </trkpt>
      <trkpt lat="41.60185" lon="9.33002">
        <ele>7</ele>
        <time>2008-05-31T13:52:29+02:00</time>
      </trkpt>
      <trkpt lat="41.60186" lon="9.33001">
        <ele>7</ele>
        <time>2008-05-31T13:52:36+02:00</time>
      </trkpt>
      <trkpt lat="41.60186" lon="9.33002">
        <ele>7</ele>
        <time>2008-05-31T13:52:41+02:00</time>
      </trkpt>
      <trkpt lat="41.60188" lon="9.33002">
        <ele>7</ele>
        <time>2008-05-31T13:52:45+02:00</time>
      </trkpt>
      <trkpt lat="41.60187" lon="9.33003">
        <ele>7</ele>
        <time>2008-05-31T13:52:51+02:00</time>
      </trkpt>
      <trkpt lat="41.60186" lon="9.33003">
        <ele>7</ele>
        <time>2008-05-31T13:52:58+02:00</time>
      </trkpt>
      <trkpt lat="41.60186" lon="9.33003">
        <ele>7</ele>
        <time>2008-05-31T13:53:03+02:00</time>
      </trkpt>
      <trkpt lat="41.60186" lon="9.33003">
        <ele>7</ele>
        <time>2008-05-31T13:53:13+02:00</time>
      </trkpt>
      <trkpt lat="41.60186" lon="9.33">
        <ele>5</ele>
        <time>2008-05-31T13:53:23+02:00</time>
      </trkpt>
      <trkpt lat="41.60186" lon="9.33">
        <ele>5</ele>
        <time>2008-05-31T13:53:30+02:00</time>
      </trkpt>
      <trkpt lat="41.60183" lon="9.32995">
        <ele>5</ele>
        <time>2008-05-31T13:53:36+02:00</time>
      </trkpt>
      <trkpt lat="41.60177" lon="9.32992">
        <ele>5</ele>
        <time>2008-05-31T13:53:44+02:00</time>
      </trkpt>
      <trkpt lat="41.60171" lon="9.32993">
        <ele>6</ele>
        <time>2008-05-31T13:53:52+02:00</time>
      </trkpt>
      <trkpt lat="41.6017" lon="9.3299">
        <ele>5</ele>
        <time>2008-05-31T13:53:58+02:00</time>
      </trkpt>
      <trkpt lat="41.60171" lon="9.32986">
        <ele>5</ele>
        <time>2008-05-31T13:54:12+02:00</time>
      </trkpt>
      <trkpt lat="41.6017" lon="9.32988">
        <ele>5</ele>
        <time>2008-05-31T13:54:47+02:00</time>
      </trkpt>
      <trkpt lat="41.60171" lon="9.32988">
        <ele>5</ele>
        <time>2008-05-31T13:54:58+02:00</time>
      </trkpt>
      <trkpt lat="41.6017" lon="9.3299">
        <ele>5</ele>
        <time>2008-05-31T13:55:16+02:00</time>
      </trkpt>
      <trkpt lat="41.60171" lon="9.3299">
        <ele>5</ele>
        <time>2008-05-31T13:55:30+02:00</time>
      </trkpt>
      <trkpt lat="41.60171" lon="9.32989">
        <ele>5</ele>
        <time>2008-05-31T13:55:38+02:00</time>
      </trkpt>
      <trkpt lat="41.60171" lon="9.32989">
        <ele>5</ele>
        <time>2008-05-31T13:56:02+02:00</time>
      </trkpt>
      <trkpt lat="41.60171" lon="9.32991">
        <ele>6</ele>
        <time>2008-05-31T13:56:49+02:00</time>
      </trkpt>
      <trkpt lat="41.60171" lon="9.32991">
        <ele>6</ele>
        <time>2008-05-31T13:58:24+02:00</time>
      </trkpt>
      <trkpt lat="41.60172" lon="9.3299">
        <ele>5</ele>
        <time>2008-05-31T13:59:21+02:00</time>
      </trkpt>
      <trkpt lat="41.60171" lon="9.32989">
        <ele>5</ele>
        <time>2008-05-31T13:59:30+02:00</time>
      </trkpt>
      <trkpt lat="41.6017" lon="9.32987">
        <ele>5</ele>
        <time>2008-05-31T13:59:37+02:00</time>
      </trkpt>
      <trkpt lat="41.60164" lon="9.32974">
        <ele>8</ele>
        <time>2008-05-31T13:59:44+02:00</time>
      </trkpt>
      <trkpt lat="41.60153" lon="9.32953">
        <ele>8</ele>
        <time>2008-05-31T13:59:52+02:00</time>
      </trkpt>
      <trkpt lat="41.60142" lon="9.32939">
        <ele>8</ele>
        <time>2008-05-31T13:59:59+02:00</time>
      </trkpt>
      <trkpt lat="41.60133" lon="9.3293">
        <ele>9</ele>
        <time>2008-05-31T14:00:04+02:00</time>
      </trkpt>
      <trkpt lat="41.60114" lon="9.32917">
        <ele>10</ele>
        <time>2008-05-31T14:00:12+02:00</time>
      </trkpt>
      <trkpt lat="41.6009" lon="9.32901">
        <ele>8</ele>
        <time>2008-05-31T14:00:22+02:00</time>
      </trkpt>
      <trkpt lat="41.60066" lon="9.32888">
        <ele>10</ele>
        <time>2008-05-31T14:00:32+02:00</time>
      </trkpt>
      <trkpt lat="41.60048" lon="9.32879">
        <ele>10</ele>
        <time>2008-05-31T14:00:39+02:00</time>
      </trkpt>
      <trkpt lat="41.60023" lon="9.32867">
        <ele>10</ele>
        <time>2008-05-31T14:00:48+02:00</time>
      </trkpt>
      <trkpt lat="41.60003" lon="9.32859">
        <ele>10</ele>
        <time>2008-05-31T14:00:56+02:00</time>
      </trkpt>
      <trkpt lat="41.59985" lon="9.32858">
        <ele>10</ele>
        <time>2008-05-31T14:01:03+02:00</time>
      </trkpt>
      <trkpt lat="41.59966" lon="9.32854">
        <ele>10</ele>
        <time>2008-05-31T14:01:10+02:00</time>
      </trkpt>
      <trkpt lat="41.59958" lon="9.32851">
        <ele>10</ele>
        <time>2008-05-31T14:01:14+02:00</time>
      </trkpt>
      <trkpt lat="41.59956" lon="9.32849">
        <ele>10</ele>
        <time>2008-05-31T14:01:15+02:00</time>
      </trkpt>
      <trkpt lat="41.59939" lon="9.32842">
        <ele>10</ele>
        <time>2008-05-31T14:01:21+02:00</time>
      </trkpt>
      <trkpt lat="41.59916" lon="9.32834">
        <ele>8</ele>
        <time>2008-05-31T14:01:29+02:00</time>
      </trkpt>
      <trkpt lat="41.59893" lon="9.32826">
        <ele>10</ele>
        <time>2008-05-31T14:01:37+02:00</time>
      </trkpt>
      <trkpt lat="41.59872" lon="9.32811">
        <ele>11</ele>
        <time>2008-05-31T14:01:46+02:00</time>
      </trkpt>
      <trkpt lat="41.59855" lon="9.32791">
        <ele>11</ele>
        <time>2008-05-31T14:01:54+02:00</time>
      </trkpt>
      <trkpt lat="41.59837" lon="9.32772">
        <ele>11</ele>
        <time>2008-05-31T14:02:02+02:00</time>
      </trkpt>
      <trkpt lat="41.5981" lon="9.32754">
        <ele>11</ele>
        <time>2008-05-31T14:02:12+02:00</time>
      </trkpt>
      <trkpt lat="41.5978" lon="9.32747">
        <ele>13</ele>
        <time>2008-05-31T14:02:22+02:00</time>
      </trkpt>
      <trkpt lat="41.5976" lon="9.32748">
        <ele>13</ele>
        <time>2008-05-31T14:02:29+02:00</time>
      </trkpt>
      <trkpt lat="41.59743" lon="9.32742">
        <ele>14</ele>
        <time>2008-05-31T14:02:35+02:00</time>
      </trkpt>
      <trkpt lat="41.59731" lon="9.32726">
        <ele>16</ele>
        <time>2008-05-31T14:02:42+02:00</time>
      </trkpt>
      <trkpt lat="41.59722" lon="9.3271">
        <ele>17</ele>
        <time>2008-05-31T14:02:48+02:00</time>
      </trkpt>
      <trkpt lat="41.59712" lon="9.32689">
        <ele>18</ele>
        <time>2008-05-31T14:02:56+02:00</time>
      </trkpt>
      <trkpt lat="41.59705" lon="9.32676">
        <ele>18</ele>
        <time>2008-05-31T14:03:03+02:00</time>
      </trkpt>
      <trkpt lat="41.597" lon="9.32663">
        <ele>25</ele>
        <time>2008-05-31T14:03:11+02:00</time>
      </trkpt>
      <trkpt lat="41.59694" lon="9.32653">
        <ele>25</ele>
        <time>2008-05-31T14:03:18+02:00</time>
      </trkpt>
      <trkpt lat="41.59692" lon="9.32639">
        <ele>26</ele>
        <time>2008-05-31T14:03:26+02:00</time>
      </trkpt>
      <trkpt lat="41.59694" lon="9.32633">
        <ele>27</ele>
        <time>2008-05-31T14:03:30+02:00</time>
      </trkpt>
      <trkpt lat="41.59703" lon="9.32621">
        <ele>28</ele>
        <time>2008-05-31T14:03:40+02:00</time>
      </trkpt>
      <trkpt lat="41.5971" lon="9.32617">
        <ele>29</ele>
        <time>2008-05-31T14:03:46+02:00</time>
      </trkpt>
      <trkpt lat="41.5972" lon="9.32614">
        <ele>29</ele>
        <time>2008-05-31T14:03:54+02:00</time>
      </trkpt>
      <trkpt lat="41.59735" lon="9.3261">
        <ele>30</ele>
        <time>2008-05-31T14:04:04+02:00</time>
      </trkpt>
      <trkpt lat="41.59747" lon="9.32604">
        <ele>31</ele>
        <time>2008-05-31T14:04:12+02:00</time>
      </trkpt>
      <trkpt lat="41.59759" lon="9.32595">
        <ele>31</ele>
        <time>2008-05-31T14:04:21+02:00</time>
      </trkpt>
      <trkpt lat="41.5977" lon="9.32585">
        <ele>30</ele>
        <time>2008-05-31T14:04:30+02:00</time>
      </trkpt>
      <trkpt lat="41.59777" lon="9.32571">
        <ele>38</ele>
        <time>2008-05-31T14:04:40+02:00</time>
      </trkpt>
      <trkpt lat="41.59782" lon="9.32561">
        <ele>39</ele>
        <time>2008-05-31T14:04:46+02:00</time>
      </trkpt>
      <trkpt lat="41.59788" lon="9.32547">
        <ele>39</ele>
        <time>2008-05-31T14:04:55+02:00</time>
      </trkpt>
      <trkpt lat="41.59791" lon="9.32533">
        <ele>41</ele>
        <time>2008-05-31T14:05:03+02:00</time>
      </trkpt>
      <trkpt lat="41.59794" lon="9.32518">
        <ele>42</ele>
        <time>2008-05-31T14:05:11+02:00</time>
      </trkpt>
      <trkpt lat="41.59795" lon="9.32506">
        <ele>42</ele>
        <time>2008-05-31T14:05:17+02:00</time>
      </trkpt>
      <trkpt lat="41.59795" lon="9.3249">
        <ele>52</ele>
        <time>2008-05-31T14:05:26+02:00</time>
      </trkpt>
      <trkpt lat="41.59796" lon="9.32473">
        <ele>53</ele>
        <time>2008-05-31T14:05:36+02:00</time>
      </trkpt>
      <trkpt lat="41.59796" lon="9.32457">
        <ele>54</ele>
        <time>2008-05-31T14:05:45+02:00</time>
      </trkpt>
      <trkpt lat="41.59796" lon="9.32446">
        <ele>55</ele>
        <time>2008-05-31T14:05:51+02:00</time>
      </trkpt>
      <trkpt lat="41.59798" lon="9.32431">
        <ele>56</ele>
        <time>2008-05-31T14:06:00+02:00</time>
      </trkpt>
      <trkpt lat="41.59803" lon="9.32412">
        <ele>62</ele>
        <time>2008-05-31T14:06:11+02:00</time>
      </trkpt>
      <trkpt lat="41.59804" lon="9.32401">
        <ele>62</ele>
        <time>2008-05-31T14:06:17+02:00</time>
      </trkpt>
      <trkpt lat="41.59798" lon="9.32394">
        <ele>63</ele>
        <time>2008-05-31T14:06:23+02:00</time>
      </trkpt>
      <trkpt lat="41.59791" lon="9.32398">
        <ele>63</ele>
        <time>2008-05-31T14:06:29+02:00</time>
      </trkpt>
      <trkpt lat="41.59785" lon="9.32409">
        <ele>64</ele>
        <time>2008-05-31T14:06:36+02:00</time>
      </trkpt>
      <trkpt lat="41.59778" lon="9.3242">
        <ele>59</ele>
        <time>2008-05-31T14:06:44+02:00</time>
      </trkpt>
      <trkpt lat="41.59768" lon="9.32432">
        <ele>59</ele>
        <time>2008-05-31T14:06:54+02:00</time>
      </trkpt>
      <trkpt lat="41.59765" lon="9.32431">
        <ele>60</ele>
        <time>2008-05-31T14:06:56+02:00</time>
      </trkpt>
      <trkpt lat="41.5976" lon="9.32415">
        <ele>66</ele>
        <time>2008-05-31T14:07:05+02:00</time>
      </trkpt>
      <trkpt lat="41.59758" lon="9.32398">
        <ele>65</ele>
        <time>2008-05-31T14:07:13+02:00</time>
      </trkpt>
      <trkpt lat="41.59758" lon="9.32395">
        <ele>65</ele>
        <time>2008-05-31T14:07:15+02:00</time>
      </trkpt>
      <trkpt lat="41.59758" lon="9.32394">
        <ele>65</ele>
        <time>2008-05-31T14:07:22+02:00</time>
      </trkpt>
      <trkpt lat="41.59758" lon="9.32394">
        <ele>65</ele>
        <time>2008-05-31T14:07:30+02:00</time>
      </trkpt>
      <trkpt lat="41.59758" lon="9.32394">
        <ele>65</ele>
        <time>2008-05-31T14:07:40+02:00</time>
      </trkpt>
      <trkpt lat="41.59758" lon="9.32394">
        <ele>65</ele>
        <time>2008-05-31T14:07:56+02:00</time>
      </trkpt>
      <trkpt lat="41.59758" lon="9.32394">
        <ele>65</ele>
        <time>2008-05-31T14:08:01+02:00</time>
      </trkpt>
      <trkpt lat="41.59758" lon="9.32391">
        <ele>65</ele>
        <time>2008-05-31T14:08:06+02:00</time>
      </trkpt>
      <trkpt lat="41.59758" lon="9.32376">
        <ele>66</ele>
        <time>2008-05-31T14:08:12+02:00</time>
      </trkpt>
      <trkpt lat="41.59758" lon="9.32373">
        <ele>66</ele>
        <time>2008-05-31T14:08:13+02:00</time>
      </trkpt>
      <trkpt lat="41.59759" lon="9.32369">
        <ele>66</ele>
        <time>2008-05-31T14:08:16+02:00</time>
      </trkpt>
      <trkpt lat="41.5976" lon="9.32302">
        <ele>70</ele>
        <time>2008-05-31T14:08:32+02:00</time>
      </trkpt>
      <trkpt lat="41.59758" lon="9.32271">
        <ele>72</ele>
        <time>2008-05-31T14:08:38+02:00</time>
      </trkpt>
      <trkpt lat="41.59754" lon="9.32216">
        <ele>76</ele>
        <time>2008-05-31T14:08:50+02:00</time>
      </trkpt>
      <trkpt lat="41.5975" lon="9.32184">
        <ele>80</ele>
        <time>2008-05-31T14:08:58+02:00</time>
      </trkpt>
      <trkpt lat="41.59745" lon="9.3215">
        <ele>82</ele>
        <time>2008-05-31T14:09:06+02:00</time>
      </trkpt>
      <trkpt lat="41.5974" lon="9.32118">
        <ele>85</ele>
        <time>2008-05-31T14:09:14+02:00</time>
      </trkpt>
      <trkpt lat="41.59734" lon="9.32087">
        <ele>85</ele>
        <time>2008-05-31T14:09:22+02:00</time>
      </trkpt>
      <trkpt lat="41.59727" lon="9.32051">
        <ele>88</ele>
        <time>2008-05-31T14:09:31+02:00</time>
      </trkpt>
      <trkpt lat="41.59715" lon="9.3201">
        <ele>88</ele>
        <time>2008-05-31T14:09:41+02:00</time>
      </trkpt>
      <trkpt lat="41.59701" lon="9.31975">
        <ele>91</ele>
        <time>2008-05-31T14:09:49+02:00</time>
      </trkpt>
      <trkpt lat="41.59682" lon="9.31936">
        <ele>91</ele>
        <time>2008-05-31T14:09:58+02:00</time>
      </trkpt>
      <trkpt lat="41.59666" lon="9.31902">
        <ele>92</ele>
        <time>2008-05-31T14:10:04+02:00</time>
      </trkpt>
      <trkpt lat="41.59635" lon="9.31843">
        <ele>94</ele>
        <time>2008-05-31T14:10:13+02:00</time>
      </trkpt>
      <trkpt lat="41.59613" lon="9.31806">
        <ele>92</ele>
        <time>2008-05-31T14:10:18+02:00</time>
      </trkpt>
      <trkpt lat="41.59585" lon="9.31763">
        <ele>88</ele>
        <time>2008-05-31T14:10:23+02:00</time>
      </trkpt>
      <trkpt lat="41.59556" lon="9.31713">
        <ele>86</ele>
        <time>2008-05-31T14:10:28+02:00</time>
      </trkpt>
      <trkpt lat="41.59525" lon="9.31664">
        <ele>83</ele>
        <time>2008-05-31T14:10:33+02:00</time>
      </trkpt>
      <trkpt lat="41.59478" lon="9.31616">
        <ele>82</ele>
        <time>2008-05-31T14:10:39+02:00</time>
      </trkpt>
      <trkpt lat="41.59441" lon="9.31579">
        <ele>77</ele>
        <time>2008-05-31T14:10:43+02:00</time>
      </trkpt>
      <trkpt lat="41.5942" lon="9.31559">
        <ele>76</ele>
        <time>2008-05-31T14:10:45+02:00</time>
      </trkpt>
      <trkpt lat="41.59378" lon="9.31536">
        <ele>70</ele>
        <time>2008-05-31T14:10:49+02:00</time>
      </trkpt>
      <trkpt lat="41.59341" lon="9.31527">
        <ele>67</ele>
        <time>2008-05-31T14:10:53+02:00</time>
      </trkpt>
      <trkpt lat="41.59315" lon="9.3152">
        <ele>71</ele>
        <time>2008-05-31T14:10:56+02:00</time>
      </trkpt>
      <trkpt lat="41.59288" lon="9.31497">
        <ele>63</ele>
        <time>2008-05-31T14:11:00+02:00</time>
      </trkpt>
      <trkpt lat="41.59276" lon="9.3148">
        <ele>64</ele>
        <time>2008-05-31T14:11:02+02:00</time>
      </trkpt>
      <trkpt lat="41.59239" lon="9.31411">
        <ele>57</ele>
        <time>2008-05-31T14:11:09+02:00</time>
      </trkpt>
      <trkpt lat="41.59205" lon="9.31369">
        <ele>58</ele>
        <time>2008-05-31T14:11:13+02:00</time>
      </trkpt>
      <trkpt lat="41.59169" lon="9.31328">
        <ele>53</ele>
        <time>2008-05-31T14:11:17+02:00</time>
      </trkpt>
      <trkpt lat="41.59148" lon="9.31276">
        <ele>60</ele>
        <time>2008-05-31T14:11:21+02:00</time>
      </trkpt>
      <trkpt lat="41.59146" lon="9.31231">
        <ele>52</ele>
        <time>2008-05-31T14:11:24+02:00</time>
      </trkpt>
      <trkpt lat="41.5913" lon="9.3118">
        <ele>52</ele>
        <time>2008-05-31T14:11:28+02:00</time>
      </trkpt>
      <trkpt lat="41.59078" lon="9.31074">
        <ele>43</ele>
        <time>2008-05-31T14:11:37+02:00</time>
      </trkpt>
      <trkpt lat="41.59045" lon="9.31011">
        <ele>41</ele>
        <time>2008-05-31T14:11:42+02:00</time>
      </trkpt>
      <trkpt lat="41.59038" lon="9.30999">
        <ele>34</ele>
        <time>2008-05-31T14:11:43+02:00</time>
      </trkpt>
      <trkpt lat="41.59014" lon="9.30966">
        <ele>35</ele>
        <time>2008-05-31T14:11:46+02:00</time>
      </trkpt>
      <trkpt lat="41.58996" lon="9.30918">
        <ele>37</ele>
        <time>2008-05-31T14:11:50+02:00</time>
      </trkpt>
      <trkpt lat="41.58995" lon="9.30905">
        <ele>38</ele>
        <time>2008-05-31T14:11:51+02:00</time>
      </trkpt>
      <trkpt lat="41.58995" lon="9.30879">
        <ele>40</ele>
        <time>2008-05-31T14:11:53+02:00</time>
      </trkpt>
      <trkpt lat="41.5898" lon="9.30798">
        <ele>30</ele>
        <time>2008-05-31T14:11:59+02:00</time>
      </trkpt>
      <trkpt lat="41.58946" lon="9.30734">
        <ele>21</ele>
        <time>2008-05-31T14:12:04+02:00</time>
      </trkpt>
      <trkpt lat="41.58901" lon="9.30662">
        <ele>17</ele>
        <time>2008-05-31T14:12:10+02:00</time>
      </trkpt>
      <trkpt lat="41.5885" lon="9.30572">
        <ele>11</ele>
        <time>2008-05-31T14:12:17+02:00</time>
      </trkpt>
      <trkpt lat="41.5882" lon="9.30502">
        <ele>11</ele>
        <time>2008-05-31T14:12:22+02:00</time>
      </trkpt>
      <trkpt lat="41.58777" lon="9.30399">
        <ele>6</ele>
        <time>2008-05-31T14:12:30+02:00</time>
      </trkpt>
      <trkpt lat="41.58749" lon="9.30329">
        <ele>7</ele>
        <time>2008-05-31T14:12:36+02:00</time>
      </trkpt>
      <trkpt lat="41.58724" lon="9.30271">
        <ele>8</ele>
        <time>2008-05-31T14:12:42+02:00</time>
      </trkpt>
      <trkpt lat="41.58699" lon="9.3021">
        <ele>8</ele>
        <time>2008-05-31T14:12:49+02:00</time>
      </trkpt>
      <trkpt lat="41.58676" lon="9.30156">
        <ele>6</ele>
        <time>2008-05-31T14:12:56+02:00</time>
      </trkpt>
      <trkpt lat="41.58673" lon="9.30149">
        <ele>6</ele>
        <time>2008-05-31T14:12:57+02:00</time>
      </trkpt>
      <trkpt lat="41.58652" lon="9.3012">
        <ele>4</ele>
        <time>2008-05-31T14:13:01+02:00</time>
      </trkpt>
      <trkpt lat="41.58645" lon="9.30115">
        <ele>4</ele>
        <time>2008-05-31T14:13:02+02:00</time>
      </trkpt>
      <trkpt lat="41.58595" lon="9.30089">
        <ele>3</ele>
        <time>2008-05-31T14:13:09+02:00</time>
      </trkpt>
      <trkpt lat="41.5855" lon="9.30066">
        <ele>3</ele>
        <time>2008-05-31T14:13:16+02:00</time>
      </trkpt>
      <trkpt lat="41.58537" lon="9.3006">
        <ele>3</ele>
        <time>2008-05-31T14:13:18+02:00</time>
      </trkpt>
      <trkpt lat="41.58507" lon="9.30046">
        <ele>3</ele>
        <time>2008-05-31T14:13:23+02:00</time>
      </trkpt>
      <trkpt lat="41.58468" lon="9.30026">
        <ele>3</ele>
        <time>2008-05-31T14:13:30+02:00</time>
      </trkpt>
      <trkpt lat="41.58446" lon="9.30013">
        <ele>3</ele>
        <time>2008-05-31T14:13:34+02:00</time>
      </trkpt>
      <trkpt lat="41.58408" lon="9.29991">
        <ele>3</ele>
        <time>2008-05-31T14:13:41+02:00</time>
      </trkpt>
      <trkpt lat="41.58376" lon="9.29967">
        <ele>4</ele>
        <time>2008-05-31T14:13:48+02:00</time>
      </trkpt>
      <trkpt lat="41.58365" lon="9.29958">
        <ele>5</ele>
        <time>2008-05-31T14:13:51+02:00</time>
      </trkpt>
      <trkpt lat="41.58342" lon="9.29945">
        <ele>5</ele>
        <time>2008-05-31T14:13:56+02:00</time>
      </trkpt>
      <trkpt lat="41.58315" lon="9.29922">
        <ele>5</ele>
        <time>2008-05-31T14:14:01+02:00</time>
      </trkpt>
      <trkpt lat="41.58276" lon="9.29881">
        <ele>3</ele>
        <time>2008-05-31T14:14:09+02:00</time>
      </trkpt>
      <trkpt lat="41.58246" lon="9.2984">
        <ele>3</ele>
        <time>2008-05-31T14:14:16+02:00</time>
      </trkpt>
      <trkpt lat="41.58223" lon="9.29814">
        <ele>3</ele>
        <time>2008-05-31T14:14:21+02:00</time>
      </trkpt>
      <trkpt lat="41.58186" lon="9.29789">
        <ele>4</ele>
        <time>2008-05-31T14:14:28+02:00</time>
      </trkpt>
      <trkpt lat="41.58164" lon="9.29776">
        <ele>5</ele>
        <time>2008-05-31T14:14:32+02:00</time>
      </trkpt>
      <trkpt lat="41.58134" lon="9.29738">
        <ele>1</ele>
        <time>2008-05-31T14:14:39+02:00</time>
      </trkpt>
      <trkpt lat="41.58125" lon="9.29726">
        <ele>1</ele>
        <time>2008-05-31T14:14:41+02:00</time>
      </trkpt>
      <trkpt lat="41.58104" lon="9.29711">
        <ele>1</ele>
        <time>2008-05-31T14:14:45+02:00</time>
      </trkpt>
      <trkpt lat="41.58056" lon="9.29695">
        <ele>1</ele>
        <time>2008-05-31T14:14:53+02:00</time>
      </trkpt>
      <trkpt lat="41.58016" lon="9.29683">
        <ele>1</ele>
        <time>2008-05-31T14:15:00+02:00</time>
      </trkpt>
      <trkpt lat="41.57993" lon="9.29686">
        <ele>1</ele>
        <time>2008-05-31T14:15:04+02:00</time>
      </trkpt>
      <trkpt lat="41.57982" lon="9.29692">
        <ele>1</ele>
        <time>2008-05-31T14:15:06+02:00</time>
      </trkpt>
      <trkpt lat="41.57958" lon="9.29692">
        <ele>1</ele>
        <time>2008-05-31T14:15:10+02:00</time>
      </trkpt>
      <trkpt lat="41.57916" lon="9.29666">
        <ele>1</ele>
        <time>2008-05-31T14:15:18+02:00</time>
      </trkpt>
      <trkpt lat="41.57887" lon="9.29629">
        <ele>1</ele>
        <time>2008-05-31T14:15:25+02:00</time>
      </trkpt>
      <trkpt lat="41.57884" lon="9.29623">
        <ele>1</ele>
        <time>2008-05-31T14:15:26+02:00</time>
      </trkpt>
      <trkpt lat="41.57869" lon="9.2958">
        <ele>1</ele>
        <time>2008-05-31T14:15:32+02:00</time>
      </trkpt>
      <trkpt lat="41.57866" lon="9.29565">
        <ele>1</ele>
        <time>2008-05-31T14:15:34+02:00</time>
      </trkpt>
      <trkpt lat="41.57849" lon="9.29522">
        <ele>1</ele>
        <time>2008-05-31T14:15:40+02:00</time>
      </trkpt>
      <trkpt lat="41.57822" lon="9.29456">
        <ele>2</ele>
        <time>2008-05-31T14:15:49+02:00</time>
      </trkpt>
      <trkpt lat="41.57816" lon="9.29442">
        <ele>2</ele>
        <time>2008-05-31T14:15:51+02:00</time>
      </trkpt>
      <trkpt lat="41.57791" lon="9.29415">
        <ele>2</ele>
        <time>2008-05-31T14:15:56+02:00</time>
      </trkpt>
      <trkpt lat="41.57785" lon="9.29411">
        <ele>2</ele>
        <time>2008-05-31T14:15:57+02:00</time>
      </trkpt>
      <trkpt lat="41.57745" lon="9.29384">
        <ele>3</ele>
        <time>2008-05-31T14:16:04+02:00</time>
      </trkpt>
      <trkpt lat="41.57712" lon="9.29344">
        <ele>3</ele>
        <time>2008-05-31T14:16:11+02:00</time>
      </trkpt>
      <trkpt lat="41.57687" lon="9.29304">
        <ele>3</ele>
        <time>2008-05-31T14:16:17+02:00</time>
      </trkpt>
      <trkpt lat="41.57681" lon="9.29289">
        <ele>3</ele>
        <time>2008-05-31T14:16:19+02:00</time>
      </trkpt>
      <trkpt lat="41.57663" lon="9.29232">
        <ele>2</ele>
        <time>2008-05-31T14:16:26+02:00</time>
      </trkpt>
      <trkpt lat="41.5764" lon="9.2918">
        <ele>2</ele>
        <time>2008-05-31T14:16:33+02:00</time>
      </trkpt>
      <trkpt lat="41.5761" lon="9.29147">
        <ele>1</ele>
        <time>2008-05-31T14:16:39+02:00</time>
      </trkpt>
      <trkpt lat="41.57575" lon="9.29114">
        <ele>1</ele>
        <time>2008-05-31T14:16:46+02:00</time>
      </trkpt>
      <trkpt lat="41.57558" lon="9.29091">
        <ele>1</ele>
        <time>2008-05-31T14:16:50+02:00</time>
      </trkpt>
      <trkpt lat="41.57531" lon="9.29072">
        <ele>1.12</ele>
        <time>2008-05-31T14:16:55+02:00</time>
      </trkpt>
      <trkpt lat="41.57489" lon="9.29047">
        <ele>2</ele>
        <time>2008-05-31T14:17:02+02:00</time>
      </trkpt>
      <trkpt lat="41.57468" lon="9.29013">
        <ele>1</ele>
        <time>2008-05-31T14:17:07+02:00</time>
      </trkpt>
      <trkpt lat="41.57453" lon="9.28984">
        <ele>1</ele>
        <time>2008-05-31T14:17:11+02:00</time>
      </trkpt>
      <trkpt lat="41.57416" lon="9.28947">
        <ele>1</ele>
        <time>2008-05-31T14:17:18+02:00</time>
      </trkpt>
      <trkpt lat="41.57365" lon="9.28903">
        <ele>3</ele>
        <time>2008-05-31T14:17:27+02:00</time>
      </trkpt>
      <trkpt lat="41.57326" lon="9.28869">
        <ele>4</ele>
        <time>2008-05-31T14:17:34+02:00</time>
      </trkpt>
      <trkpt lat="41.57276" lon="9.28826">
        <ele>4</ele>
        <time>2008-05-31T14:17:43+02:00</time>
      </trkpt>
      <trkpt lat="41.57226" lon="9.28785">
        <ele>3</ele>
        <time>2008-05-31T14:17:52+02:00</time>
      </trkpt>
      <trkpt lat="41.57186" lon="9.28755">
        <ele>3</ele>
        <time>2008-05-31T14:17:59+02:00</time>
      </trkpt>
      <trkpt lat="41.57153" lon="9.28729">
        <ele>4</ele>
        <time>2008-05-31T14:18:05+02:00</time>
      </trkpt>
      <trkpt lat="41.57147" lon="9.28724">
        <ele>4</ele>
        <time>2008-05-31T14:18:06+02:00</time>
      </trkpt>
      <trkpt lat="41.5713" lon="9.2869">
        <ele>4</ele>
        <time>2008-05-31T14:18:11+02:00</time>
      </trkpt>
      <trkpt lat="41.57132" lon="9.28665">
        <ele>4</ele>
        <time>2008-05-31T14:18:14+02:00</time>
      </trkpt>
      <trkpt lat="41.57134" lon="9.28657">
        <ele>4</ele>
        <time>2008-05-31T14:18:15+02:00</time>
      </trkpt>
      <trkpt lat="41.57152" lon="9.28598">
        <ele>4</ele>
        <time>2008-05-31T14:18:22+02:00</time>
      </trkpt>
      <trkpt lat="41.5717" lon="9.28538">
        <ele>6</ele>
        <time>2008-05-31T14:18:29+02:00</time>
      </trkpt>
      <trkpt lat="41.57184" lon="9.28491">
        <ele>5</ele>
        <time>2008-05-31T14:18:35+02:00</time>
      </trkpt>
      <trkpt lat="41.57195" lon="9.2845">
        <ele>5</ele>
        <time>2008-05-31T14:18:40+02:00</time>
      </trkpt>
      <trkpt lat="41.57213" lon="9.28395">
        <ele>4</ele>
        <time>2008-05-31T14:18:47+02:00</time>
      </trkpt>
      <trkpt lat="41.57228" lon="9.28342">
        <ele>5</ele>
        <time>2008-05-31T14:18:53+02:00</time>
      </trkpt>
      <trkpt lat="41.57245" lon="9.28284">
        <ele>6</ele>
        <time>2008-05-31T14:19:00+02:00</time>
      </trkpt>
      <trkpt lat="41.57263" lon="9.28224">
        <ele>6</ele>
        <time>2008-05-31T14:19:07+02:00</time>
      </trkpt>
      <trkpt lat="41.57279" lon="9.2817">
        <ele>6</ele>
        <time>2008-05-31T14:19:14+02:00</time>
      </trkpt>
      <trkpt lat="41.57276" lon="9.28136">
        <ele>5</ele>
        <time>2008-05-31T14:19:18+02:00</time>
      </trkpt>
      <trkpt lat="41.57238" lon="9.28056">
        <ele>4</ele>
        <time>2008-05-31T14:19:27+02:00</time>
      </trkpt>
      <trkpt lat="41.57213" lon="9.28011">
        <ele>3</ele>
        <time>2008-05-31T14:19:33+02:00</time>
      </trkpt>
      <trkpt lat="41.57188" lon="9.27965">
        <ele>3</ele>
        <time>2008-05-31T14:19:39+02:00</time>
      </trkpt>
      <trkpt lat="41.57171" lon="9.27922">
        <ele>4</ele>
        <time>2008-05-31T14:19:44+02:00</time>
      </trkpt>
      <trkpt lat="41.57145" lon="9.27851">
        <ele>3</ele>
        <time>2008-05-31T14:19:52+02:00</time>
      </trkpt>
      <trkpt lat="41.57141" lon="9.27833">
        <ele>3</ele>
        <time>2008-05-31T14:19:54+02:00</time>
      </trkpt>
      <trkpt lat="41.57143" lon="9.27797">
        <ele>3</ele>
        <time>2008-05-31T14:19:58+02:00</time>
      </trkpt>
      <trkpt lat="41.57158" lon="9.27778">
        <ele>4</ele>
        <time>2008-05-31T14:20:01+02:00</time>
      </trkpt>
      <trkpt lat="41.57182" lon="9.2775">
        <ele>3</ele>
        <time>2008-05-31T14:20:06+02:00</time>
      </trkpt>
      <trkpt lat="41.57185" lon="9.27725">
        <ele>3</ele>
        <time>2008-05-31T14:20:09+02:00</time>
      </trkpt>
      <trkpt lat="41.57184" lon="9.27716">
        <ele>3</ele>
        <time>2008-05-31T14:20:10+02:00</time>
      </trkpt>
      <trkpt lat="41.57173" lon="9.27652">
        <ele>3</ele>
        <time>2008-05-31T14:20:17+02:00</time>
      </trkpt>
      <trkpt lat="41.57176" lon="9.27597">
        <ele>3</ele>
        <time>2008-05-31T14:20:23+02:00</time>
      </trkpt>
      <trkpt lat="41.57182" lon="9.27542">
        <ele>3</ele>
        <time>2008-05-31T14:20:30+02:00</time>
      </trkpt>
      <trkpt lat="41.57187" lon="9.27488">
        <ele>3</ele>
        <time>2008-05-31T14:20:38+02:00</time>
      </trkpt>
      <trkpt lat="41.57189" lon="9.27481">
        <ele>3</ele>
        <time>2008-05-31T14:20:39+02:00</time>
      </trkpt>
      <trkpt lat="41.57202" lon="9.27452">
        <ele>2</ele>
        <time>2008-05-31T14:20:44+02:00</time>
      </trkpt>
      <trkpt lat="41.57221" lon="9.27439">
        <ele>2</ele>
        <time>2008-05-31T14:20:49+02:00</time>
      </trkpt>
      <trkpt lat="41.57234" lon="9.27437">
        <ele>2</ele>
        <time>2008-05-31T14:20:52+02:00</time>
      </trkpt>
      <trkpt lat="41.57274" lon="9.27442">
        <ele>2</ele>
        <time>2008-05-31T14:21:00+02:00</time>
      </trkpt>
      <trkpt lat="41.5733" lon="9.2745">
        <ele>3</ele>
        <time>2008-05-31T14:21:10+02:00</time>
      </trkpt>
      <trkpt lat="41.5738" lon="9.27456">
        <ele>4</ele>
        <time>2008-05-31T14:21:19+02:00</time>
      </trkpt>
      <trkpt lat="41.57414" lon="9.2746">
        <ele>5</ele>
        <time>2008-05-31T14:21:25+02:00</time>
      </trkpt>
      <trkpt lat="41.57467" lon="9.27466">
        <ele>4</ele>
        <time>2008-05-31T14:21:34+02:00</time>
      </trkpt>
      <trkpt lat="41.57507" lon="9.27474">
        <ele>5</ele>
        <time>2008-05-31T14:21:41+02:00</time>
      </trkpt>
      <trkpt lat="41.57555" lon="9.2748">
        <ele>5</ele>
        <time>2008-05-31T14:21:49+02:00</time>
      </trkpt>
      <trkpt lat="41.57607" lon="9.27487">
        <ele>4</ele>
        <time>2008-05-31T14:21:57+02:00</time>
      </trkpt>
      <trkpt lat="41.57669" lon="9.27491">
        <ele>4</ele>
        <time>2008-05-31T14:22:07+02:00</time>
      </trkpt>
      <trkpt lat="41.57699" lon="9.27497">
        <ele>4</ele>
        <time>2008-05-31T14:22:12+02:00</time>
      </trkpt>
      <trkpt lat="41.57717" lon="9.27514">
        <ele>5</ele>
        <time>2008-05-31T14:22:16+02:00</time>
      </trkpt>
      <trkpt lat="41.57734" lon="9.27526">
        <ele>5</ele>
        <time>2008-05-31T14:22:20+02:00</time>
      </trkpt>
      <trkpt lat="41.57752" lon="9.27522">
        <ele>6</ele>
        <time>2008-05-31T14:22:24+02:00</time>
      </trkpt>
      <trkpt lat="41.57764" lon="9.27514">
        <ele>6</ele>
        <time>2008-05-31T14:22:27+02:00</time>
      </trkpt>
      <trkpt lat="41.57788" lon="9.27509">
        <ele>6</ele>
        <time>2008-05-31T14:22:32+02:00</time>
      </trkpt>
      <trkpt lat="41.57794" lon="9.27509">
        <ele>6</ele>
        <time>2008-05-31T14:22:33+02:00</time>
      </trkpt>
      <trkpt lat="41.57853" lon="9.27517">
        <ele>6</ele>
        <time>2008-05-31T14:22:44+02:00</time>
      </trkpt>
      <trkpt lat="41.57878" lon="9.27521">
        <ele>6</ele>
        <time>2008-05-31T14:22:49+02:00</time>
      </trkpt>
      <trkpt lat="41.57893" lon="9.27524">
        <ele>6</ele>
        <time>2008-05-31T14:22:55+02:00</time>
      </trkpt>
      <trkpt lat="41.57901" lon="9.27526">
        <ele>6</ele>
        <time>2008-05-31T14:23:01+02:00</time>
      </trkpt>
      <trkpt lat="41.57901" lon="9.27526">
        <ele>6</ele>
        <time>2008-05-31T14:23:08+02:00</time>
      </trkpt>
      <trkpt lat="41.57901" lon="9.27523">
        <ele>6</ele>
        <time>2008-05-31T14:23:17+02:00</time>
      </trkpt>
      <trkpt lat="41.57901" lon="9.27521">
        <ele>6</ele>
        <time>2008-05-31T14:23:18+02:00</time>
      </trkpt>
      <trkpt lat="41.5789" lon="9.27515">
        <ele>6</ele>
        <time>2008-05-31T14:23:23+02:00</time>
      </trkpt>
      <trkpt lat="41.57872" lon="9.27506">
        <ele>6</ele>
        <time>2008-05-31T14:23:29+02:00</time>
      </trkpt>
      <trkpt lat="41.57857" lon="9.27496">
        <ele>6</ele>
        <time>2008-05-31T14:23:35+02:00</time>
      </trkpt>
      <trkpt lat="41.57843" lon="9.2749">
        <ele>6</ele>
        <time>2008-05-31T14:23:41+02:00</time>
      </trkpt>
      <trkpt lat="41.57829" lon="9.2749">
        <ele>6</ele>
        <time>2008-05-31T14:23:48+02:00</time>
      </trkpt>
      <trkpt lat="41.57821" lon="9.2749">
        <ele>6</ele>
        <time>2008-05-31T14:23:55+02:00</time>
      </trkpt>
      <trkpt lat="41.57817" lon="9.2749">
        <ele>6</ele>
        <time>2008-05-31T14:23:59+02:00</time>
      </trkpt>
      <trkpt lat="41.57815" lon="9.27491">
        <ele>6</ele>
        <time>2008-05-31T14:24:05+02:00</time>
      </trkpt>
      <trkpt lat="41.57815" lon="9.27491">
        <ele>6</ele>
        <time>2008-05-31T14:24:20+02:00</time>
      </trkpt>
      <trkpt lat="41.57813" lon="9.2749">
        <ele>6</ele>
        <time>2008-05-31T14:24:29+02:00</time>
      </trkpt>
      <trkpt lat="41.57812" lon="9.2749">
        <ele>6</ele>
        <time>2008-05-31T14:24:37+02:00</time>
      </trkpt>
      <trkpt lat="41.57811" lon="9.2749">
        <ele>6</ele>
        <time>2008-05-31T14:24:44+02:00</time>
      </trkpt>
      <trkpt lat="41.57811" lon="9.2749">
        <ele>6</ele>
        <time>2008-05-31T14:24:52+02:00</time>
      </trkpt>
      <trkpt lat="41.57812" lon="9.27493">
        <ele>6</ele>
        <time>2008-05-31T14:25:08+02:00</time>
      </trkpt>
      <trkpt lat="41.57811" lon="9.27493">
        <ele>6</ele>
        <time>2008-05-31T14:25:14+02:00</time>
      </trkpt>
      <trkpt lat="41.57811" lon="9.27493">
        <ele>6</ele>
        <time>2008-05-31T14:25:23+02:00</time>
      </trkpt>
      <trkpt lat="41.57811" lon="9.27493">
        <ele>6</ele>
        <time>2008-05-31T14:25:32+02:00</time>
      </trkpt>
      <trkpt lat="41.57811" lon="9.27492">
        <ele>6</ele>
        <time>2008-05-31T14:25:38+02:00</time>
      </trkpt>
      <trkpt lat="41.57811" lon="9.27493">
        <ele>6</ele>
        <time>2008-05-31T14:25:48+02:00</time>
      </trkpt>
      <trkpt lat="41.57811" lon="9.2749">
        <ele>6</ele>
        <time>2008-05-31T14:25:58+02:00</time>
      </trkpt>
      <trkpt lat="41.5781" lon="9.2749">
        <ele>6</ele>
        <time>2008-05-31T14:26:05+02:00</time>
      </trkpt>
      <trkpt lat="41.57811" lon="9.2749">
        <ele>6</ele>
        <time>2008-05-31T14:26:13+02:00</time>
      </trkpt>
      <trkpt lat="41.57811" lon="9.27489">
        <ele>6</ele>
        <time>2008-05-31T14:26:23+02:00</time>
      </trkpt>
      <trkpt lat="41.57811" lon="9.2749">
        <ele>6</ele>
        <time>2008-05-31T14:26:38+02:00</time>
      </trkpt>
      <trkpt lat="41.57811" lon="9.27489">
        <ele>6</ele>
        <time>2008-05-31T14:26:56+02:00</time>
      </trkpt>
      <trkpt lat="41.57813" lon="9.27489">
        <ele>6</ele>
        <time>2008-05-31T14:27:10+02:00</time>
      </trkpt>
      <trkpt lat="41.57815" lon="9.2749">
        <ele>6</ele>
        <time>2008-05-31T14:27:36+02:00</time>
      </trkpt>
      <trkpt lat="41.57814" lon="9.2749">
        <ele>6</ele>
        <time>2008-05-31T14:27:46+02:00</time>
      </trkpt>
      <trkpt lat="41.57817" lon="9.27489">
        <ele>6</ele>
        <time>2008-05-31T14:28:01+02:00</time>
      </trkpt>
      <trkpt lat="41.57814" lon="9.2749">
        <ele>6</ele>
        <time>2008-05-31T14:28:11+02:00</time>
      </trkpt>
      <trkpt lat="41.57812" lon="9.27491">
        <ele>6</ele>
        <time>2008-05-31T14:28:19+02:00</time>
      </trkpt>
      <trkpt lat="41.57812" lon="9.27491">
        <ele>6</ele>
        <time>2008-05-31T14:28:48+02:00</time>
      </trkpt>
      <trkpt lat="41.57812" lon="9.27493">
        <ele>6</ele>
        <time>2008-05-31T14:29:25+02:00</time>
      </trkpt>
      <trkpt lat="41.57813" lon="9.27492">
        <ele>6</ele>
        <time>2008-05-31T14:29:49+02:00</time>
      </trkpt>
      <trkpt lat="41.57811" lon="9.27493">
        <ele>6</ele>
        <time>2008-05-31T14:30:00+02:00</time>
      </trkpt>
      <trkpt lat="41.5781" lon="9.27492">
        <ele>6</ele>
        <time>2008-05-31T14:30:11+02:00</time>
      </trkpt>
      <trkpt lat="41.57811" lon="9.27496">
        <ele>6</ele>
        <time>2008-05-31T14:30:34+02:00</time>
      </trkpt>
      <trkpt lat="41.57813" lon="9.27499">
        <ele>6</ele>
        <time>2008-05-31T14:30:43+02:00</time>
      </trkpt>
      <trkpt lat="41.57814" lon="9.27499">
        <ele>6</ele>
        <time>2008-05-31T14:30:50+02:00</time>
      </trkpt>
      <trkpt lat="41.57815" lon="9.27499">
        <ele>6</ele>
        <time>2008-05-31T14:30:59+02:00</time>
      </trkpt>
      <trkpt lat="41.57815" lon="9.27499">
        <ele>6</ele>
        <time>2008-05-31T14:31:22+02:00</time>
      </trkpt>
      <trkpt lat="41.57815" lon="9.27499">
        <ele>6</ele>
        <time>2008-05-31T14:31:27+02:00</time>
      </trkpt>
      <trkpt lat="41.57815" lon="9.27498">
        <ele>6</ele>
        <time>2008-05-31T14:31:35+02:00</time>
      </trkpt>
      <trkpt lat="41.57815" lon="9.275">
        <ele>6</ele>
        <time>2008-05-31T14:31:51+02:00</time>
      </trkpt>
      <trkpt lat="41.57815" lon="9.275">
        <ele>6</ele>
        <time>2008-05-31T14:32:04+02:00</time>
      </trkpt>
      <trkpt lat="41.57815" lon="9.275">
        <ele>6</ele>
        <time>2008-05-31T14:32:11+02:00</time>
      </trkpt>
      <trkpt lat="41.57814" lon="9.27501">
        <ele>6</ele>
        <time>2008-05-31T14:32:17+02:00</time>
      </trkpt>
      <trkpt lat="41.57814" lon="9.27497">
        <ele>6</ele>
        <time>2008-05-31T14:32:33+02:00</time>
      </trkpt>
      <trkpt lat="41.57814" lon="9.27496">
        <ele>6</ele>
        <time>2008-05-31T14:32:46+02:00</time>
      </trkpt>
      <trkpt lat="41.57815" lon="9.27496">
        <ele>6</ele>
        <time>2008-05-31T14:32:55+02:00</time>
      </trkpt>
      <trkpt lat="41.57815" lon="9.27497">
        <ele>6</ele>
        <time>2008-05-31T14:33:04+02:00</time>
      </trkpt>
      <trkpt lat="41.57815" lon="9.27497">
        <ele>6</ele>
        <time>2008-05-31T14:33:11+02:00</time>
      </trkpt>
      <trkpt lat="41.57815" lon="9.27497">
        <ele>6</ele>
        <time>2008-05-31T14:33:25+02:00</time>
      </trkpt>
      <trkpt lat="41.57815" lon="9.27497">
        <ele>6</ele>
        <time>2008-05-31T14:33:36+02:00</time>
      </trkpt>
      <trkpt lat="41.57814" lon="9.27497">
        <ele>6</ele>
        <time>2008-05-31T14:33:44+02:00</time>
      </trkpt>
      <trkpt lat="41.57816" lon="9.27494">
        <ele>6</ele>
        <time>2008-05-31T14:33:59+02:00</time>
      </trkpt>
      <trkpt lat="41.57816" lon="9.27493">
        <ele>6</ele>
        <time>2008-05-31T14:34:10+02:00</time>
      </trkpt>
      <trkpt lat="41.57816" lon="9.27495">
        <ele>6</ele>
        <time>2008-05-31T14:34:17+02:00</time>
      </trkpt>
      <trkpt lat="41.57817" lon="9.27499">
        <ele>6</ele>
        <time>2008-05-31T14:34:23+02:00</time>
      </trkpt>
      <trkpt lat="41.57818" lon="9.27501">
        <ele>6</ele>
        <time>2008-05-31T14:34:26+02:00</time>
      </trkpt>
      <trkpt lat="41.57826" lon="9.27512">
        <ele>6</ele>
        <time>2008-05-31T14:34:32+02:00</time>
      </trkpt>
      <trkpt lat="41.57834" lon="9.27514">
        <ele>6</ele>
        <time>2008-05-31T14:34:35+02:00</time>
      </trkpt>
      <trkpt lat="41.57874" lon="9.2752">
        <ele>6</ele>
        <time>2008-05-31T14:34:45+02:00</time>
      </trkpt>
      <trkpt lat="41.57914" lon="9.27525">
        <ele>6</ele>
        <time>2008-05-31T14:34:55+02:00</time>
      </trkpt>
      <trkpt lat="41.57938" lon="9.2753">
        <ele>6</ele>
        <time>2008-05-31T14:35:02+02:00</time>
      </trkpt>
      <trkpt lat="41.57963" lon="9.27537">
        <ele>6</ele>
        <time>2008-05-31T14:35:10+02:00</time>
      </trkpt>
      <trkpt lat="41.57989" lon="9.27539">
        <ele>6</ele>
        <time>2008-05-31T14:35:19+02:00</time>
      </trkpt>
      <trkpt lat="41.58014" lon="9.27543">
        <ele>8</ele>
        <time>2008-05-31T14:35:28+02:00</time>
      </trkpt>
      <trkpt lat="41.5803" lon="9.27555">
        <ele>8</ele>
        <time>2008-05-31T14:35:36+02:00</time>
      </trkpt>
      <trkpt lat="41.58041" lon="9.27569">
        <ele>8</ele>
        <time>2008-05-31T14:35:41+02:00</time>
      </trkpt>
      <trkpt lat="41.58056" lon="9.2759">
        <ele>7</ele>
        <time>2008-05-31T14:35:46+02:00</time>
      </trkpt>
      <trkpt lat="41.58077" lon="9.27619">
        <ele>6</ele>
        <time>2008-05-31T14:35:51+02:00</time>
      </trkpt>
      <trkpt lat="41.58108" lon="9.27659">
        <ele>7</ele>
        <time>2008-05-31T14:35:57+02:00</time>
      </trkpt>
      <trkpt lat="41.58141" lon="9.27701">
        <ele>6</ele>
        <time>2008-05-31T14:36:04+02:00</time>
      </trkpt>
      <trkpt lat="41.58149" lon="9.27713">
        <ele>6</ele>
        <time>2008-05-31T14:36:06+02:00</time>
      </trkpt>
      <trkpt lat="41.58176" lon="9.27748">
        <ele>8</ele>
        <time>2008-05-31T14:36:14+02:00</time>
      </trkpt>
      <trkpt lat="41.58179" lon="9.27751">
        <ele>8</ele>
        <time>2008-05-31T14:36:15+02:00</time>
      </trkpt>
      <trkpt lat="41.58207" lon="9.27787">
        <ele>9</ele>
        <time>2008-05-31T14:36:24+02:00</time>
      </trkpt>
      <trkpt lat="41.58236" lon="9.27826">
        <ele>10</ele>
        <time>2008-05-31T14:36:34+02:00</time>
      </trkpt>
      <trkpt lat="41.58257" lon="9.27853">
        <ele>11</ele>
        <time>2008-05-31T14:36:42+02:00</time>
      </trkpt>
      <trkpt lat="41.58279" lon="9.27883">
        <ele>11</ele>
        <time>2008-05-31T14:36:50+02:00</time>
      </trkpt>
      <trkpt lat="41.58306" lon="9.27919">
        <ele>11</ele>
        <time>2008-05-31T14:36:59+02:00</time>
      </trkpt>
      <trkpt lat="41.58332" lon="9.27955">
        <ele>10</ele>
        <time>2008-05-31T14:37:06+02:00</time>
      </trkpt>
      <trkpt lat="41.58359" lon="9.27993">
        <ele>10</ele>
        <time>2008-05-31T14:37:14+02:00</time>
      </trkpt>
      <trkpt lat="41.58385" lon="9.28028">
        <ele>11</ele>
        <time>2008-05-31T14:37:22+02:00</time>
      </trkpt>
      <trkpt lat="41.58415" lon="9.28063">
        <ele>11</ele>
        <time>2008-05-31T14:37:31+02:00</time>
      </trkpt>
      <trkpt lat="41.5845" lon="9.28094">
        <ele>9</ele>
        <time>2008-05-31T14:37:39+02:00</time>
      </trkpt>
      <trkpt lat="41.58487" lon="9.28125">
        <ele>8</ele>
        <time>2008-05-31T14:37:46+02:00</time>
      </trkpt>
      <trkpt lat="41.58528" lon="9.2816">
        <ele>7</ele>
        <time>2008-05-31T14:37:53+02:00</time>
      </trkpt>
      <trkpt lat="41.58574" lon="9.28199">
        <ele>5</ele>
        <time>2008-05-31T14:38:01+02:00</time>
      </trkpt>
      <trkpt lat="41.58597" lon="9.28218">
        <ele>6</ele>
        <time>2008-05-31T14:38:07+02:00</time>
      </trkpt>
      <trkpt lat="41.58616" lon="9.28232">
        <ele>6</ele>
        <time>2008-05-31T14:38:13+02:00</time>
      </trkpt>
      <trkpt lat="41.58648" lon="9.28248">
        <ele>7</ele>
        <time>2008-05-31T14:38:21+02:00</time>
      </trkpt>
      <trkpt lat="41.58656" lon="9.28251">
        <ele>7</ele>
        <time>2008-05-31T14:38:23+02:00</time>
      </trkpt>
      <trkpt lat="41.58667" lon="9.28254">
        <ele>8</ele>
        <time>2008-05-31T14:38:26+02:00</time>
      </trkpt>
      <trkpt lat="41.58699" lon="9.28256">
        <ele>8</ele>
        <time>2008-05-31T14:38:35+02:00</time>
      </trkpt>
      <trkpt lat="41.58727" lon="9.28255">
        <ele>8</ele>
        <time>2008-05-31T14:38:42+02:00</time>
      </trkpt>
      <trkpt lat="41.58735" lon="9.28256">
        <ele>8</ele>
        <time>2008-05-31T14:38:44+02:00</time>
      </trkpt>
      <trkpt lat="41.58751" lon="9.28268">
        <ele>7</ele>
        <time>2008-05-31T14:38:48+02:00</time>
      </trkpt>
      <trkpt lat="41.58782" lon="9.28308">
        <ele>5</ele>
        <time>2008-05-31T14:38:55+02:00</time>
      </trkpt>
      <trkpt lat="41.58826" lon="9.28358">
        <ele>3</ele>
        <time>2008-05-31T14:39:04+02:00</time>
      </trkpt>
      <trkpt lat="41.58853" lon="9.28387">
        <ele>2</ele>
        <time>2008-05-31T14:39:10+02:00</time>
      </trkpt>
      <trkpt lat="41.58857" lon="9.28391">
        <ele>2</ele>
        <time>2008-05-31T14:39:11+02:00</time>
      </trkpt>
      <trkpt lat="41.58876" lon="9.2841">
        <ele>2</ele>
        <time>2008-05-31T14:39:17+02:00</time>
      </trkpt>
      <trkpt lat="41.58878" lon="9.28413">
        <ele>2</ele>
        <time>2008-05-31T14:39:18+02:00</time>
      </trkpt>
      <trkpt lat="41.58885" lon="9.28433">
        <ele>3</ele>
        <time>2008-05-31T14:39:23+02:00</time>
      </trkpt>
      <trkpt lat="41.58889" lon="9.28461">
        <ele>3</ele>
        <time>2008-05-31T14:39:29+02:00</time>
      </trkpt>
      <trkpt lat="41.58895" lon="9.28487">
        <ele>3</ele>
        <time>2008-05-31T14:39:35+02:00</time>
      </trkpt>
      <trkpt lat="41.58899" lon="9.28517">
        <ele>4</ele>
        <time>2008-05-31T14:39:42+02:00</time>
      </trkpt>
      <trkpt lat="41.58899" lon="9.28556">
        <ele>5</ele>
        <time>2008-05-31T14:39:50+02:00</time>
      </trkpt>
      <trkpt lat="41.58901" lon="9.28586">
        <ele>5</ele>
        <time>2008-05-31T14:39:56+02:00</time>
      </trkpt>
      <trkpt lat="41.58904" lon="9.28625">
        <ele>4</ele>
        <time>2008-05-31T14:40:03+02:00</time>
      </trkpt>
      <trkpt lat="41.58895" lon="9.28651">
        <ele>4</ele>
        <time>2008-05-31T14:40:08+02:00</time>
      </trkpt>
      <trkpt lat="41.58878" lon="9.28674">
        <ele>3</ele>
        <time>2008-05-31T14:40:13+02:00</time>
      </trkpt>
      <trkpt lat="41.5886" lon="9.28712">
        <ele>2</ele>
        <time>2008-05-31T14:40:20+02:00</time>
      </trkpt>
      <trkpt lat="41.58849" lon="9.28744">
        <ele>2</ele>
        <time>2008-05-31T14:40:26+02:00</time>
      </trkpt>
      <trkpt lat="41.58835" lon="9.28782">
        <ele>1</ele>
        <time>2008-05-31T14:40:33+02:00</time>
      </trkpt>
      <trkpt lat="41.58826" lon="9.28804">
        <ele>2</ele>
        <time>2008-05-31T14:40:37+02:00</time>
      </trkpt>
      <trkpt lat="41.58804" lon="9.28835">
        <ele>3</ele>
        <time>2008-05-31T14:40:44+02:00</time>
      </trkpt>
      <trkpt lat="41.58787" lon="9.28857">
        <ele>3</ele>
        <time>2008-05-31T14:40:50+02:00</time>
      </trkpt>
      <trkpt lat="41.58758" lon="9.28898">
        <ele>2</ele>
        <time>2008-05-31T14:41:00+02:00</time>
      </trkpt>
      <trkpt lat="41.58738" lon="9.28927">
        <ele>2</ele>
        <time>2008-05-31T14:41:07+02:00</time>
      </trkpt>
      <trkpt lat="41.58725" lon="9.28949">
        <ele>2</ele>
        <time>2008-05-31T14:41:13+02:00</time>
      </trkpt>
      <trkpt lat="41.58724" lon="9.28953">
        <ele>2</ele>
        <time>2008-05-31T14:41:14+02:00</time>
      </trkpt>
      <trkpt lat="41.5873" lon="9.28969">
        <ele>2</ele>
        <time>2008-05-31T14:41:19+02:00</time>
      </trkpt>
      <trkpt lat="41.58732" lon="9.28971">
        <ele>2</ele>
        <time>2008-05-31T14:41:20+02:00</time>
      </trkpt>
      <trkpt lat="41.58741" lon="9.28982">
        <ele>2</ele>
        <time>2008-05-31T14:41:25+02:00</time>
      </trkpt>
      <trkpt lat="41.58736" lon="9.28994">
        <ele>2</ele>
        <time>2008-05-31T14:41:30+02:00</time>
      </trkpt>
      <trkpt lat="41.5873" lon="9.29">
        <ele>2</ele>
        <time>2008-05-31T14:41:34+02:00</time>
      </trkpt>
      <trkpt lat="41.58722" lon="9.29017">
        <ele>2</ele>
        <time>2008-05-31T14:41:42+02:00</time>
      </trkpt>
      <trkpt lat="41.58715" lon="9.29032">
        <ele>2</ele>
        <time>2008-05-31T14:41:49+02:00</time>
      </trkpt>
      <trkpt lat="41.58708" lon="9.29045">
        <ele>1</ele>
        <time>2008-05-31T14:41:55+02:00</time>
      </trkpt>
      <trkpt lat="41.58702" lon="9.29068">
        <ele>1</ele>
        <time>2008-05-31T14:42:04+02:00</time>
      </trkpt>
      <trkpt lat="41.58696" lon="9.29085">
        <ele>1</ele>
        <time>2008-05-31T14:42:11+02:00</time>
      </trkpt>
      <trkpt lat="41.58691" lon="9.29104">
        <ele>1</ele>
        <time>2008-05-31T14:42:20+02:00</time>
      </trkpt>
      <trkpt lat="41.5868" lon="9.29123">
        <ele>1</ele>
        <time>2008-05-31T14:42:30+02:00</time>
      </trkpt>
      <trkpt lat="41.58679" lon="9.29124">
        <ele>1</ele>
        <time>2008-05-31T14:42:32+02:00</time>
      </trkpt>
      <trkpt lat="41.58679" lon="9.29127">
        <ele>1</ele>
        <time>2008-05-31T14:42:40+02:00</time>
      </trkpt>
      <trkpt lat="41.58678" lon="9.29128">
        <ele>1</ele>
        <time>2008-05-31T14:42:46+02:00</time>
      </trkpt>
      <trkpt lat="41.58679" lon="9.29125">
        <ele>1</ele>
        <time>2008-05-31T14:42:55+02:00</time>
      </trkpt>
      <trkpt lat="41.58678" lon="9.29123">
        <ele>1</ele>
        <time>2008-05-31T14:42:59+02:00</time>
      </trkpt>
      <trkpt lat="41.58679" lon="9.29124">
        <ele>1</ele>
        <time>2008-05-31T14:43:05+02:00</time>
      </trkpt>
      <trkpt lat="41.58679" lon="9.29124">
        <ele>1</ele>
        <time>2008-05-31T14:43:17+02:00</time>
      </trkpt>
      <trkpt lat="41.58683" lon="9.29125">
        <ele>1</ele>
        <time>2008-05-31T14:43:22+02:00</time>
      </trkpt>
      <trkpt lat="41.58685" lon="9.29125">
        <ele>1</ele>
        <time>2008-05-31T14:43:29+02:00</time>
      </trkpt>
      <trkpt lat="41.58685" lon="9.29127">
        <ele>1</ele>
        <time>2008-05-31T14:43:37+02:00</time>
      </trkpt>
      <trkpt lat="41.58683" lon="9.29128">
        <ele>1</ele>
        <time>2008-05-31T14:43:44+02:00</time>
      </trkpt>
      <trkpt lat="41.5868" lon="9.29125">
        <ele>1</ele>
        <time>2008-05-31T14:43:50+02:00</time>
      </trkpt>
      <trkpt lat="41.58679" lon="9.29126">
        <ele>1</ele>
        <time>2008-05-31T14:43:54+02:00</time>
      </trkpt>
      <trkpt lat="41.58679" lon="9.29125">
        <ele>1</ele>
        <time>2008-05-31T14:44:15+02:00</time>
      </trkpt>
      <trkpt lat="41.58679" lon="9.29125">
        <ele>1</ele>
        <time>2008-05-31T14:44:22+02:00</time>
      </trkpt>
      <trkpt lat="41.5868" lon="9.29125">
        <ele>1</ele>
        <time>2008-05-31T14:44:41+02:00</time>
      </trkpt>
      <trkpt lat="41.5868" lon="9.29126">
        <ele>1</ele>
        <time>2008-05-31T14:44:53+02:00</time>
      </trkpt>
      <trkpt lat="41.5868" lon="9.29125">
        <ele>1</ele>
        <time>2008-05-31T14:45:06+02:00</time>
      </trkpt>
      <trkpt lat="41.58681" lon="9.29125">
        <ele>1</ele>
        <time>2008-05-31T14:45:18+02:00</time>
      </trkpt>
      <trkpt lat="41.58681" lon="9.29125">
        <ele>1</ele>
        <time>2008-05-31T14:45:36+02:00</time>
      </trkpt>
      <trkpt lat="41.5868" lon="9.29126">
        <ele>1</ele>
        <time>2008-05-31T14:45:45+02:00</time>
      </trkpt>
      <trkpt lat="41.5868" lon="9.29126">
        <ele>1</ele>
        <time>2008-05-31T14:45:55+02:00</time>
      </trkpt>
      <trkpt lat="41.5868" lon="9.29126">
        <ele>1</ele>
        <time>2008-05-31T14:46:04+02:00</time>
      </trkpt>
      <trkpt lat="41.5868" lon="9.29125">
        <ele>1</ele>
        <time>2008-05-31T14:46:09+02:00</time>
      </trkpt>
      <trkpt lat="41.5868" lon="9.29125">
        <ele>1</ele>
        <time>2008-05-31T14:46:18+02:00</time>
      </trkpt>
      <trkpt lat="41.58681" lon="9.29125">
        <ele>1</ele>
        <time>2008-05-31T14:46:26+02:00</time>
      </trkpt>
      <trkpt lat="41.58681" lon="9.29126">
        <ele>1</ele>
        <time>2008-05-31T14:46:31+02:00</time>
      </trkpt>
      <trkpt lat="41.58681" lon="9.29126">
        <ele>1</ele>
        <time>2008-05-31T14:46:40+02:00</time>
      </trkpt>
      <trkpt lat="41.5868" lon="9.29127">
        <ele>1</ele>
        <time>2008-05-31T14:46:57+02:00</time>
      </trkpt>
      <trkpt lat="41.5868" lon="9.29127">
        <ele>1</ele>
        <time>2008-05-31T14:47:07+02:00</time>
      </trkpt>
      <trkpt lat="41.5868" lon="9.29127">
        <ele>1</ele>
        <time>2008-05-31T14:47:18+02:00</time>
      </trkpt>
      <trkpt lat="41.5868" lon="9.29128">
        <ele>1</ele>
        <time>2008-05-31T14:47:21+02:00</time>
      </trkpt>
    </trkseg>
  </trk>
</gpx>